
Distance (Route):
Temperature : 14.2°C
Humidity : 82.4%
Pressure : 0hPa| Receiver | Frames | First received | Last received |
|---|---|---|---|
| OM5KV | 653 | 2026-09-02 02:28:16 | 2026-09-02 04:21:37 |
| OE5MMP-10 | 523 | 2026-09-02 02:18:23 | 2026-09-02 04:08:52 |
| PETON7-10 | 403 | 2026-09-02 02:29:20 | 2026-09-02 04:25:21 |
| OE3JTB-15 | 359 | 2026-09-02 02:20:41 | 2026-09-02 04:32:06 |
| DO3MHA-12 | 355 | 2026-09-02 02:24:35 | 2026-09-02 04:05:39 |
| PG1ADW-2 | 312 | 2026-09-02 02:16:45 | 2026-09-02 04:22:47 |
| OE5WHR-10 | 265 | 2026-09-02 02:15:18 | 2026-09-02 04:22:58 |
| OE5DRO-10 | 254 | 2026-09-02 02:15:05 | 2026-09-02 04:24:39 |
| OE5DXL-15 | 217 | 2026-09-02 02:18:12 | 2026-09-02 04:14:57 |
| OE5FHM-15 | 130 | 2026-09-02 02:17:44 | 2026-09-02 03:51:10 |
| OE3OSB-13 | 127 | 2026-09-02 02:40:36 | 2026-09-02 04:28:19 |
| OE8JPQ-2 | 104 | 2026-09-02 02:52:59 | 2026-09-02 03:41:43 |
| OE5HKT-10 | 75 | 2026-09-02 02:16:05 | 2026-09-02 03:35:49 |
| OK1ALN | 49 | 2026-09-02 02:52:52 | 2026-09-02 03:52:32 |
| DG1MFX-10 | 41 | 2026-09-02 02:40:16 | 2026-09-02 03:09:45 |
| DK5PH-5 | 40 | 2026-09-02 03:12:51 | 2026-09-02 03:35:45 |
| SONDE2-11 | 33 | 2026-09-02 03:03:55 | 2026-09-02 03:35:32 |
| DL6DJ-15 | 18 | 2026-09-02 03:13:06 | 2026-09-02 03:30:11 |
| EDDB2-12 | 16 | 2026-09-02 03:18:17 | 2026-09-02 03:35:53 |
| SP3BTT-10 | 13 | 2026-09-02 02:57:55 | 2026-09-02 03:29:29 |
| OE5REO-15 | 9 | 2026-09-02 02:42:32 | 2026-09-02 03:25:15 |
| NBG1-10 | 7 | 2026-09-02 02:36:49 | 2026-09-02 03:48:10 |
| DF7PN | 4 | 2026-09-02 03:20:16 | 2026-09-02 03:27:31 |
| DB0UT-7 | 2 | 2026-09-02 03:24:55 | 2026-09-02 03:29:32 |
| Receiver | Date | Latitude | Longitude | Direction | Speed | Altitude | Climb | Temperature | Humidity | Pressure | Voltage | Killtimer | Uptime | BKT | XDATA |
|---|---|---|---|---|---|---|---|---|---|---|---|---|---|---|---|
| OE3JTB-15 | 2026-09-02 04:32:06 | 48.30922 | 15.72790 | 55° | 7km/h | 280m | -3.7m/s | 14.2°C | 82.4% | 0hPa | 2.7V | 00:00:00 | 00:00:00 | 00:00:00 | |
| OE3JTB-15 | 2026-09-02 04:32:04 | 48.30919 | 15.72786 | 58° | 7km/h | 287m | -3.4m/s | 14.3°C | 81.3% | 0hPa | 2.7V | 07:26:00 | 02:43:21 | 00:00:00 | |
| OE3JTB-15 | 2026-09-02 04:32:02 | 48.30917 | 15.72781 | 54° | 7km/h | 294m | -3.0m/s | 14.2°C | 81.5% | 0hPa | 2.7V | 00:00:00 | 00:00:00 | 00:00:00 | |
| OE3JTB-15 | 2026-09-02 04:32:00 | 48.30915 | 15.72776 | 51° | 9km/h | 300m | -3.2m/s | 14.5°C | 80.2% | 0hPa | 2.7V | 00:00:00 | 00:00:00 | 00:00:00 | |
| OE3JTB-15 | 2026-09-02 04:31:58 | 48.30912 | 15.72771 | 46° | 11km/h | 306m | -3.4m/s | 15.0°C | 75.9% | 0hPa | 2.7V | 00:00:00 | 02:43:15 | 00:00:00 | |
| OE3JTB-15 | 2026-09-02 04:31:56 | 48.30908 | 15.72765 | 39° | 11km/h | 312m | -3.1m/s | 15.1°C | 74.9% | 0hPa | 2.7V | 00:00:00 | 00:00:00 | 00:00:00 | |
| OE3JTB-15 | 2026-09-02 04:31:54 | 48.30903 | 15.72760 | 34° | 13km/h | 317m | -2.8m/s | 15.3°C | 73.4% | 0hPa | 2.7V | 00:00:00 | 00:00:00 | 00:00:00 | |
| OE3JTB-15 | 2026-09-02 04:31:52 | 48.30897 | 15.72756 | 21° | 13km/h | 323m | -2.8m/s | 15.3°C | 72.2% | 0hPa | 2.7V | 00:00:00 | 02:43:09 | 00:00:00 | |
| OE3JTB-15 | 2026-09-02 04:31:50 | 48.30891 | 15.72753 | 8° | 11km/h | 329m | -2.9m/s | 15.6°C | 70.7% | 0hPa | 2.7V | 00:00:00 | 00:00:00 | 00:00:00 | |
| OE3JTB-15 | 2026-09-02 04:31:48 | 48.30885 | 15.72753 | 355° | 9km/h | 335m | -3.3m/s | 15.7°C | 68.9% | 0hPa | 2.7V | 07:26:00 | 00:00:00 | 00:00:00 | |
| OE3JTB-15 | 2026-09-02 04:31:46 | 48.30881 | 15.72753 | 354° | 7km/h | 341m | -3.5m/s | 15.7°C | 68.7% | 0hPa | 2.7V | 00:00:00 | 02:43:03 | 00:00:00 | |
| OE3JTB-15 | 2026-09-02 04:31:44 | 48.30878 | 15.72754 | 359° | 5km/h | 348m | -3.3m/s | 15.8°C | 68.3% | 0hPa | 2.7V | 00:00:00 | 00:00:00 | 00:00:00 | |
| OE3JTB-15 | 2026-09-02 04:31:42 | 48.30875 | 15.72754 | 13° | 5km/h | 355m | -2.7m/s | 15.8°C | 68.4% | 0hPa | 2.7V | 00:00:00 | 00:00:00 | 00:00:00 | |
| OE3JTB-15 | 2026-09-02 04:31:40 | 48.30873 | 15.72752 | 23° | 5km/h | 361m | -2.9m/s | 15.8°C | 67.2% | 0hPa | 2.7V | 00:00:00 | 02:42:57 | 00:00:00 | |
| OE3JTB-15 | 2026-09-02 04:31:38 | 48.30870 | 15.72751 | 14° | 4km/h | 367m | -3.5m/s | 16.0°C | 65.7% | 0hPa | 2.7V | 00:00:00 | 00:00:00 | 00:00:00 | |
| OE3JTB-15 | 2026-09-02 04:31:36 | 48.30868 | 15.72750 | 18° | 5km/h | 375m | -4.0m/s | 16.1°C | 65.4% | 0hPa | 2.7V | 00:00:00 | 00:00:00 | 00:00:00 | |
| OE3JTB-15 | 2026-09-02 04:31:34 | 48.30865 | 15.72748 | 36° | 4km/h | 383m | -3.3m/s | 16.1°C | 65.2% | 0hPa | 2.7V | 00:00:00 | 02:42:51 | 00:00:00 | |
| OE3JTB-15 | 2026-09-02 04:31:32 | 48.30863 | 15.72747 | 31° | 4km/h | 390m | -3.6m/s | 16.3°C | 63.6% | 0hPa | 2.7V | 07:26:00 | 00:00:00 | 00:00:00 | |
| OE3JTB-15 | 2026-09-02 04:31:30 | 48.30862 | 15.72744 | 43° | 5km/h | 397m | -3.7m/s | 16.4°C | 63.3% | 0hPa | 2.7V | 00:00:00 | 00:00:00 | 00:00:00 | |
| OE3JTB-15 | 2026-09-02 04:31:28 | 48.30860 | 15.72742 | 48° | 5km/h | 404m | -3.0m/s | 16.4°C | 63.0% | 0hPa | 2.7V | 00:00:00 | 02:42:45 | 00:00:00 | |
| OE3JTB-15 | 2026-09-02 04:31:26 | 48.30858 | 15.72739 | 59° | 5km/h | 411m | -2.7m/s | 16.4°C | 62.8% | 0hPa | 2.7V | 00:00:00 | 00:00:00 | 00:00:00 | |
| OE3JTB-15 | 2026-09-02 04:31:24 | 48.30857 | 15.72736 | 86° | 4km/h | 416m | -3.1m/s | 16.6°C | 61.8% | 0hPa | 2.7V | 00:00:00 | 00:00:00 | 00:00:00 | |
| OE3JTB-15 | 2026-09-02 04:31:22 | 48.30856 | 15.72733 | 43° | 5km/h | 422m | -3.4m/s | 16.8°C | 60.1% | 0hPa | 2.7V | 00:00:00 | 02:42:39 | 00:00:00 | |
| OE3JTB-15 | 2026-09-02 04:31:20 | 48.30855 | 15.72730 | 63° | 4km/h | 429m | -3.4m/s | 17.1°C | 58.6% | 0hPa | 2.7V | 00:00:00 | 00:00:00 | 00:00:00 | |
| OE3JTB-15 | 2026-09-02 04:31:18 | 48.30855 | 15.72727 | 68° | 4km/h | 436m | -3.2m/s | 17.3°C | 57.2% | 0hPa | 2.7V | 00:00:00 | 00:00:00 | 00:00:00 | |
| OE3JTB-15 | 2026-09-02 04:31:16 | 48.30854 | 15.72724 | 76° | 4km/h | 443m | -3.4m/s | 17.4°C | 56.4% | 0hPa | 2.7V | 07:26:00 | 02:42:33 | 00:00:00 | |
| OE3JTB-15 | 2026-09-02 04:31:14 | 48.30854 | 15.72721 | 87° | 4km/h | 449m | -3.7m/s | 17.4°C | 56.2% | 0hPa | 2.7V | 00:00:00 | 00:00:00 | 00:00:00 | |
| OE3JTB-15 | 2026-09-02 04:31:12 | 48.30853 | 15.72718 | 128° | 4km/h | 456m | -3.8m/s | 17.5°C | 55.9% | 0hPa | 2.7V | 00:00:00 | 00:00:00 | 00:00:00 | |
| OE3JTB-15 | 2026-09-02 04:31:10 | 48.30854 | 15.72715 | 116° | 4km/h | 464m | -3.5m/s | 17.5°C | 55.9% | 0hPa | 2.7V | 00:00:00 | 02:42:27 | 00:00:00 | |
| OE3JTB-15 | 2026-09-02 04:31:09 | 48.30855 | 15.72713 | 105° | 4km/h | 471m | -3.6m/s | 17.4°C | 56.2% | 0hPa | 2.7V | 00:00:00 | 00:00:00 | 00:00:00 | |
| OE3JTB-15 | 2026-09-02 04:31:06 | 48.30856 | 15.72710 | 112° | 5km/h | 478m | -3.3m/s | 17.4°C | 56.3% | 0hPa | 2.7V | 00:00:00 | 00:00:00 | 00:00:00 | |
| OE3JTB-15 | 2026-09-02 04:31:04 | 48.30858 | 15.72708 | 114° | 5km/h | 485m | -3.4m/s | 17.3°C | 56.5% | 0hPa | 2.7V | 00:00:00 | 02:42:21 | 00:00:00 | |
| OE3JTB-15 | 2026-09-02 04:31:00 | 48.30861 | 15.72701 | 109° | 5km/h | 498m | -2.8m/s | 17.5°C | 55.5% | 0hPa | 2.7V | 07:27:00 | 00:00:00 | 00:00:00 | |
| OE3JTB-15 | 2026-09-02 04:30:58 | 48.30862 | 15.72697 | 119° | 5km/h | 504m | -2.5m/s | 17.6°C | 54.3% | 0hPa | 2.7V | 00:00:00 | 02:42:15 | 00:00:00 | |
| OE3JTB-15 | 2026-09-02 04:30:56 | 48.30863 | 15.72693 | 100° | 5km/h | 509m | -2.9m/s | 17.6°C | 54.4% | 0hPa | 2.7V | 00:00:00 | 00:00:00 | 00:00:00 | |
| OE3JTB-15 | 2026-09-02 04:30:54 | 48.30864 | 15.72689 | 105° | 7km/h | 515m | -3.0m/s | 17.5°C | 54.5% | 0hPa | 2.7V | 00:00:00 | 00:00:00 | 00:00:00 | |
| OE3JTB-15 | 2026-09-02 04:30:52 | 48.30866 | 15.72684 | 103° | 7km/h | 522m | -2.8m/s | 17.4°C | 54.9% | 0hPa | 2.7V | 00:00:00 | 02:42:09 | 00:00:00 | |
| OE3JTB-15 | 2026-09-02 04:30:50 | 48.30867 | 15.72678 | 120° | 7km/h | 528m | -3.8m/s | 17.4°C | 55.0% | 0hPa | 2.7V | 00:00:00 | 00:00:00 | 00:00:00 | |
| OE3JTB-15 | 2026-09-02 04:30:48 | 48.30869 | 15.72673 | 114° | 7km/h | 535m | -3.2m/s | 17.7°C | 53.6% | 0hPa | 2.7V | 00:00:00 | 00:00:00 | 00:00:00 | |
| OE3JTB-15 | 2026-09-02 04:30:46 | 48.30871 | 15.72668 | 123° | 7km/h | 541m | -4.0m/s | 17.9°C | 52.4% | 0hPa | 2.7V | 00:00:00 | 02:42:03 | 00:00:00 | |
| OE3JTB-15 | 2026-09-02 04:30:44 | 48.30873 | 15.72663 | 116° | 7km/h | 549m | -3.5m/s | 17.9°C | 52.5% | 0hPa | 2.7V | 07:27:00 | 00:00:00 | 00:00:00 | |
| OE3JTB-15 | 2026-09-02 04:30:42 | 48.30874 | 15.72658 | 118° | 7km/h | 556m | -3.3m/s | 18.0°C | 52.1% | 0hPa | 2.7V | 00:00:00 | 00:00:00 | 00:00:00 | |
| OE3JTB-15 | 2026-09-02 04:30:41 | 48.30876 | 15.72653 | 118° | 7km/h | 563m | -3.3m/s | 18.0°C | 52.2% | 0hPa | 2.7V | 00:00:00 | 02:41:57 | 00:00:00 | |
| OE3JTB-15 | 2026-09-02 04:30:39 | 48.30877 | 15.72648 | 118° | 7km/h | 569m | -2.9m/s | 18.0°C | 52.0% | 0hPa | 2.7V | 00:00:00 | 00:00:00 | 00:00:00 | |
| OE3JTB-15 | 2026-09-02 04:30:36 | 48.30879 | 15.72642 | 95° | 7km/h | 575m | -2.7m/s | 18.1°C | 52.0% | 0hPa | 2.7V | 00:00:00 | 00:00:00 | 00:00:00 | |
| OE3JTB-15 | 2026-09-02 04:30:34 | 48.30879 | 15.72637 | 85° | 5km/h | 581m | -2.9m/s | 18.2°C | 51.5% | 0hPa | 2.7V | 00:00:00 | 02:41:51 | 00:00:00 | |
| OE3JTB-15 | 2026-09-02 04:30:32 | 48.30878 | 15.72650 | 89° | 5km/h | 587m | -3.0m/s | 18.2°C | 51.2% | 0hPa | 2.7V | 00:00:00 | 00:00:00 | 00:00:00 | |
| OE3JTB-15 | 2026-09-02 04:30:30 | 48.30879 | 15.72629 | 99° | 5km/h | 593m | -3.0m/s | 18.3°C | 50.7% | 0hPa | 2.7V | 00:00:00 | 00:00:00 | 00:00:00 | |
| OE3JTB-15 | 2026-09-02 04:30:28 | 48.30879 | 15.72625 | 89° | 5km/h | 599m | -3.2m/s | 18.4°C | 50.3% | 0hPa | 2.7V | 07:27:00 | 02:41:45 | 00:00:00 | |
| OE3JTB-15 | 2026-09-02 04:30:26 | 48.30879 | 15.72620 | 80° | 7km/h | 605m | -3.4m/s | 18.4°C | 50.0% | 0hPa | 2.7V | 00:00:00 | 00:00:00 | 00:00:00 | |
| OE3JTB-15 | 2026-09-02 04:30:24 | 48.30878 | 15.72614 | 84° | 9km/h | 612m | -3.3m/s | 18.7°C | 48.8% | 0hPa | 2.7V | 00:00:00 | 00:00:00 | 00:00:00 | |
| OE3JTB-15 | 2026-09-02 04:30:22 | 48.30877 | 15.72608 | 76° | 9km/h | 619m | -3.4m/s | 18.9°C | 48.0% | 0hPa | 2.7V | 00:00:00 | 02:41:39 | 00:00:00 | |
| OE3JTB-15 | 2026-09-02 04:30:20 | 48.30876 | 15.72602 | 74° | 9km/h | 625m | -3.2m/s | 19.0°C | 48.1% | 0hPa | 2.7V | 00:00:00 | 00:00:00 | 00:00:00 | |
| OE3JTB-15 | 2026-09-02 04:30:18 | 48.30874 | 15.72595 | 72° | 9km/h | 632m | -3.4m/s | 19.0°C | 48.1% | 0hPa | 2.7V | 00:00:00 | 00:00:00 | 00:00:00 | |
| OE3JTB-15 | 2026-09-02 04:30:16 | 48.30873 | 15.72588 | 71° | 9km/h | 639m | -3.3m/s | 18.9°C | 48.1% | 0hPa | 2.7V | 00:00:00 | 02:41:33 | 00:00:00 | |
| OE3JTB-15 | 2026-09-02 04:30:14 | 48.30871 | 15.72581 | 73° | 11km/h | 646m | -3.5m/s | 18.9°C | 48.2% | 0hPa | 2.7V | 00:00:00 | 00:00:00 | 00:00:00 | |
| OE3JTB-15 | 2026-09-02 04:30:12 | 48.30869 | 15.72574 | 72° | 11km/h | 652m | -3.5m/s | 18.9°C | 48.3% | 0hPa | 2.7V | 07:28:00 | 00:00:00 | 00:00:00 | |
| OE3JTB-15 | 2026-09-02 04:30:10 | 48.30867 | 15.72566 | 69° | 11km/h | 660m | -3.4m/s | 18.8°C | 48.3% | 0hPa | 2.7V | 00:00:00 | 02:41:27 | 00:00:00 | |
| OE3JTB-15 | 2026-09-02 04:30:08 | 48.30865 | 15.72558 | 62° | 11km/h | 667m | -3.6m/s | 18.8°C | 48.2% | 0hPa | 2.7V | 00:00:00 | 00:00:00 | 00:00:00 | |
| OE3JTB-15 | 2026-09-02 04:30:06 | 48.30862 | 15.72551 | 62° | 11km/h | 674m | -3.5m/s | 18.9°C | 47.9% | 0hPa | 2.7V | 00:00:00 | 00:00:00 | 00:00:00 | |
| OE3JTB-15 | 2026-09-02 04:30:04 | 48.30860 | 15.72543 | 61° | 11km/h | 680m | -3.4m/s | 18.9°C | 48.0% | 0hPa | 2.7V | 00:00:00 | 02:41:21 | 00:00:00 | |
| OE3JTB-15 | 2026-09-02 04:30:02 | 48.30857 | 15.72536 | 62° | 11km/h | 687m | -3.4m/s | 18.8°C | 48.0% | 0hPa | 2.7V | 00:00:00 | 00:00:00 | 00:00:00 | |
| OE3JTB-15 | 2026-09-02 04:30:00 | 48.30854 | 15.72529 | 58° | 11km/h | 694m | -3.5m/s | 18.8°C | 48.0% | 0hPa | 2.7V | 00:00:00 | 00:00:00 | 00:00:00 | |
| OE3JTB-15 | 2026-09-02 04:29:56 | 48.30849 | 15.72514 | 58° | 11km/h | 707m | -3.5m/s | 18.7°C | 48.0% | 0hPa | 2.7V | 07:28:00 | 00:00:00 | 00:00:00 | |
| OE3JTB-15 | 2026-09-02 04:29:54 | 48.30845 | 15.72507 | 59° | 11km/h | 714m | -3.6m/s | 18.7°C | 48.0% | 0hPa | 2.7V | 00:00:00 | 00:00:00 | 00:00:00 | |
| OE3JTB-15 | 2026-09-02 04:29:52 | 48.30842 | 15.72499 | 62° | 11km/h | 721m | -3.5m/s | 18.7°C | 47.9% | 0hPa | 2.7V | 00:00:00 | 02:41:09 | 00:00:00 | |
| OE3JTB-15 | 2026-09-02 04:29:50 | 48.30839 | 15.72492 | 56° | 11km/h | 728m | -3.5m/s | 18.7°C | 48.0% | 0hPa | 2.7V | 00:00:00 | 00:00:00 | 00:00:00 | |
| OE3JTB-15 | 2026-09-02 04:29:48 | 48.30836 | 15.72485 | 59° | 11km/h | 735m | -3.3m/s | 18.6°C | 48.2% | 0hPa | 2.7V | 00:00:00 | 00:00:00 | 00:00:00 | |
| OE3JTB-15 | 2026-09-02 04:29:46 | 48.30833 | 15.72478 | 56° | 11km/h | 742m | -3.4m/s | 18.6°C | 48.2% | 0hPa | 2.7V | 00:00:00 | 02:41:03 | 00:00:00 | |
| OE3JTB-15 | 2026-09-02 04:29:44 | 48.30830 | 15.72471 | 56° | 11km/h | 749m | -3.5m/s | 18.6°C | 47.8% | 0hPa | 2.7V | 00:00:00 | 00:00:00 | 00:00:00 | |
| OE3JTB-15 | 2026-09-02 04:29:42 | 48.30827 | 15.72464 | 58° | 11km/h | 756m | -3.3m/s | 18.6°C | 48.4% | 0hPa | 2.7V | 00:00:00 | 00:00:00 | 00:00:00 | |
| OE3JTB-15 | 2026-09-02 04:29:40 | 48.30823 | 15.72456 | 57° | 11km/h | 762m | -3.5m/s | 18.6°C | 48.7% | 0hPa | 2.7V | 07:28:00 | 02:40:57 | 00:00:00 | |
| OE3JTB-15 | 2026-09-02 04:29:38 | 48.30821 | 15.72449 | 58° | 11km/h | 769m | -3.5m/s | 18.5°C | 48.7% | 0hPa | 2.7V | 00:00:00 | 00:00:00 | 00:00:00 | |
| OE3JTB-15 | 2026-09-02 04:29:36 | 48.30818 | 15.72443 | 59° | 9km/h | 776m | -3.4m/s | 18.5°C | 48.6% | 0hPa | 2.7V | 00:00:00 | 00:00:00 | 00:00:00 | |
| OE3JTB-15 | 2026-09-02 04:29:34 | 48.30816 | 15.72436 | 60° | 11km/h | 783m | -3.5m/s | 18.4°C | 48.7% | 0hPa | 2.7V | 00:00:00 | 02:40:51 | 00:00:00 | |
| OE3JTB-15 | 2026-09-02 04:29:32 | 48.30813 | 15.72430 | 66° | 9km/h | 789m | -3.5m/s | 18.4°C | 48.8% | 0hPa | 2.7V | 00:00:00 | 00:00:00 | 00:00:00 | |
| OE3JTB-15 | 2026-09-02 04:29:30 | 48.30811 | 15.72423 | 67° | 9km/h | 797m | -3.5m/s | 18.3°C | 48.6% | 0hPa | 2.7V | 00:00:00 | 00:00:00 | 00:00:00 | |
| OE3JTB-15 | 2026-09-02 04:29:28 | 48.30810 | 15.72416 | 78° | 11km/h | 803m | -3.6m/s | 18.3°C | 48.6% | 0hPa | 2.7V | 00:00:00 | 02:40:45 | 00:00:00 | |
| OE3JTB-15 | 2026-09-02 04:29:26 | 48.30808 | 15.72407 | 82° | 13km/h | 811m | -3.7m/s | 18.2°C | 48.7% | 0hPa | 2.7V | 00:00:00 | 00:00:00 | 00:00:00 | |
| OE3JTB-15 | 2026-09-02 04:29:24 | 48.30807 | 15.72397 | 72° | 15km/h | 817m | -3.4m/s | 18.2°C | 48.9% | 0hPa | 2.7V | 07:28:00 | 00:00:00 | 00:00:00 | |
| OE3JTB-15 | 2026-09-02 04:29:22 | 48.30804 | 15.72386 | 65° | 15km/h | 824m | -3.6m/s | 18.2°C | 48.9% | 0hPa | 2.7V | 00:00:00 | 02:40:39 | 00:00:00 | |
| OE3JTB-15 | 2026-09-02 04:29:20 | 48.30800 | 15.72376 | 53° | 15km/h | 831m | -3.6m/s | 18.1°C | 48.9% | 0hPa | 2.7V | 00:00:00 | 00:00:00 | 00:00:00 | |
| OE3JTB-15 | 2026-09-02 04:29:18 | 48.30795 | 15.72367 | 52° | 15km/h | 839m | -3.5m/s | 18.1°C | 48.7% | 0hPa | 2.7V | 00:00:00 | 00:00:00 | 00:00:00 | |
| OE3JTB-15 | 2026-09-02 04:29:16 | 48.30790 | 15.72360 | 43° | 13km/h | 845m | -3.6m/s | 18.1°C | 48.9% | 0hPa | 2.7V | 00:00:00 | 02:40:33 | 00:00:00 | |
| OE3JTB-15 | 2026-09-02 04:29:14 | 48.30785 | 15.72353 | 40° | 13km/h | 852m | -3.2m/s | 18.0°C | 49.1% | 0hPa | 2.7V | 00:00:00 | 00:00:00 | 00:00:00 | |
| OE3JTB-15 | 2026-09-02 04:29:12 | 48.30780 | 15.72347 | 35° | 11km/h | 858m | -3.0m/s | 17.9°C | 49.2% | 0hPa | 2.7V | 00:00:00 | 00:00:00 | 00:00:00 | |
| OE3JTB-15 | 2026-09-02 04:29:10 | 48.30775 | 15.72343 | 33° | 9km/h | 865m | -3.6m/s | 17.9°C | 49.5% | 0hPa | 2.7V | 00:00:00 | 02:40:27 | 00:00:00 | |
| OE3JTB-15 | 2026-09-02 04:29:08 | 48.30771 | 15.72339 | 30° | 9km/h | 872m | -3.3m/s | 17.8°C | 49.6% | 0hPa | 2.7V | 07:29:00 | 00:00:00 | 00:00:00 | |
| OE3JTB-15 | 2026-09-02 04:29:06 | 48.30767 | 15.72335 | 34° | 9km/h | 878m | -2.7m/s | 17.8°C | 49.8% | 0hPa | 2.7V | 00:00:00 | 00:00:00 | 00:00:00 | |
| OE3JTB-15 | 2026-09-02 04:29:04 | 48.30763 | 15.72332 | 40° | 7km/h | 885m | -3.1m/s | 17.7°C | 50.0% | 0hPa | 2.7V | 00:00:00 | 02:40:21 | 00:00:00 | |
| OE3JTB-15 | 2026-09-02 04:29:00 | 48.30758 | 15.72327 | 29° | 4km/h | 898m | -3.7m/s | 17.6°C | 50.2% | 0hPa | 2.7V | 00:00:00 | 00:00:00 | 00:00:00 | |
| OE3JTB-15 | 2026-09-02 04:28:58 | 48.30756 | 15.72325 | 39° | 4km/h | 905m | -3.7m/s | 17.5°C | 50.4% | 0hPa | 2.7V | 00:00:00 | 02:40:15 | 00:00:00 | |
| OE3JTB-15 | 2026-09-02 04:28:56 | 48.30755 | 15.72323 | 44° | 4km/h | 911m | -3.8m/s | 17.4°C | 50.6% | 0hPa | 2.7V | 00:00:00 | 00:00:00 | 00:00:00 | |
| OE3JTB-15 | 2026-09-02 04:28:54 | 48.30754 | 15.72321 | 52° | 4km/h | 919m | -3.9m/s | 17.4°C | 50.8% | 0hPa | 2.7V | 00:00:00 | 00:00:00 | 00:00:00 | |
| OE3JTB-15 | 2026-09-02 04:28:52 | 48.30753 | 15.72319 | 41° | 4km/h | 927m | -3.4m/s | 17.3°C | 51.0% | 0hPa | 2.7V | 07:29:00 | 02:40:09 | 00:00:00 | |
| OE3JTB-15 | 2026-09-02 04:28:50 | 48.30752 | 15.72317 | 81° | 2km/h | 933m | -3.2m/s | 17.2°C | 51.2% | 0hPa | 2.7V | 00:00:00 | 00:00:00 | 00:00:00 | |
| OE3JTB-15 | 2026-09-02 04:28:48 | 48.30752 | 15.72315 | 98° | 4km/h | 940m | -3.7m/s | 17.2°C | 51.4% | 0hPa | 2.7V | 00:00:00 | 00:00:00 | 00:00:00 | |
| OE3JTB-15 | 2026-09-02 04:28:46 | 48.30752 | 15.72313 | 93° | 4km/h | 947m | -4.0m/s | 17.1°C | 51.5% | 0hPa | 2.7V | 00:00:00 | 02:40:03 | 00:00:00 | |
| OE3JTB-15 | 2026-09-02 04:28:44 | 48.30752 | 15.72310 | 139° | 4km/h | 955m | -3.6m/s | 17.0°C | 51.6% | 0hPa | 2.7V | 00:00:00 | 00:00:00 | 00:00:00 | |
| OE3JTB-15 | 2026-09-02 04:28:42 | 48.30753 | 15.72308 | 100° | 4km/h | 962m | -3.7m/s | 17.0°C | 51.9% | 0hPa | 2.7V | 00:00:00 | 00:00:00 | 00:00:00 | |
| OE3JTB-15 | 2026-09-02 04:28:40 | 48.30753 | 15.72306 | 105° | 4km/h | 968m | -4.0m/s | 16.9°C | 52.1% | 0hPa | 2.7V | 00:00:00 | 02:39:57 | 00:00:00 | |
| OE3JTB-15 | 2026-09-02 04:28:38 | 48.30754 | 15.72303 | 95° | 4km/h | 976m | -3.3m/s | 16.8°C | 52.2% | 0hPa | 2.7V | 00:00:00 | 00:00:00 | 00:00:00 | |
| OE3JTB-15 | 2026-09-02 04:28:36 | 48.30754 | 15.72301 | 107° | 5km/h | 983m | -3.4m/s | 16.8°C | 52.5% | 0hPa | 2.7V | 07:29:00 | 00:00:00 | 00:00:00 | |
| OE3JTB-15 | 2026-09-02 04:28:34 | 48.30756 | 15.72298 | 153° | 5km/h | 990m | -3.5m/s | 16.7°C | 52.6% | 0hPa | 2.7V | 00:00:00 | 02:39:51 | 00:00:00 | |
| OE3JTB-15 | 2026-09-02 04:28:32 | 48.30758 | 15.72296 | 131° | 4km/h | 997m | -3.2m/s | 16.6°C | 52.7% | 0hPa | 2.7V | 00:00:00 | 00:00:00 | 00:00:00 | |
| OE3JTB-15 | 2026-09-02 04:28:30 | 48.30759 | 15.72293 | 140° | 5km/h | 1003m | -3.6m/s | 16.6°C | 53.0% | 0hPa | 2.7V | 00:00:00 | 00:00:00 | 00:00:00 | |
| OE3JTB-15 | 2026-09-02 04:28:28 | 48.30761 | 15.72290 | 122° | 5km/h | 1010m | -3.3m/s | 16.5°C | 53.1% | 0hPa | 2.7V | 00:00:00 | 02:39:45 | 00:00:00 | |
| OE3JTB-15 | 2026-09-02 04:28:26 | 48.30763 | 15.72287 | 141° | 7km/h | 1017m | -3.7m/s | 16.5°C | 53.2% | 0hPa | 2.7V | 00:00:00 | 00:00:00 | 00:00:00 | |
| OE3JTB-15 | 2026-09-02 04:28:24 | 48.30766 | 15.72284 | 142° | 5km/h | 1024m | -3.4m/s | 16.4°C | 53.3% | 0hPa | 2.7V | 00:00:00 | 00:00:00 | 00:00:00 | |
| OE3JTB-15 | 2026-09-02 04:28:22 | 48.30768 | 15.72280 | 140° | 7km/h | 1031m | -3.8m/s | 16.4°C | 53.5% | 0hPa | 2.7V | 00:00:00 | 02:39:39 | 00:00:00 | |
| OE3JTB-15 | 2026-09-02 04:28:20 | 48.30771 | 15.72276 | 149° | 9km/h | 1038m | -3.5m/s | 16.3°C | 53.5% | 0hPa | 2.7V | 07:29:00 | 00:00:00 | 00:00:00 | |
| OE3OSB-13 | 2026-09-02 04:28:19 | 48.30775 | 15.72272 | 137° | 7km/h | 1045m | -3.6m/s | 16.3°C | 53.9% | -1.0hPa | 2.7V | 00:00:00 | 00:00:00 | 00:00:00 | |
| OE3JTB-15 | 2026-09-02 04:28:18 | 48.30775 | 15.72272 | 138° | 9km/h | 1045m | -3.5m/s | 16.3°C | 53.8% | 0hPa | 2.7V | 00:00:00 | 00:00:00 | 00:00:00 | |
| OE3JTB-15 | 2026-09-02 04:28:16 | 48.30778 | 15.72267 | 138° | 9km/h | 1051m | -3.8m/s | 16.2°C | 53.9% | 0hPa | 2.7V | 00:00:00 | 02:39:33 | 00:00:00 | |
| OE3JTB-15 | 2026-09-02 04:28:14 | 48.30782 | 15.72262 | 137° | 9km/h | 1058m | -3.6m/s | 16.1°C | 54.1% | 0hPa | 2.7V | 00:00:00 | 00:00:00 | 00:00:00 | |
| OE3JTB-15 | 2026-09-02 04:28:12 | 48.30785 | 15.72256 | 145° | 11km/h | 1065m | -3.6m/s | 16.1°C | 54.2% | 0hPa | 2.7V | 00:00:00 | 00:00:00 | 00:00:00 | |
| OE3JTB-15 | 2026-09-02 04:28:10 | 48.30789 | 15.72251 | 135° | 11km/h | 1072m | -3.8m/s | 16.0°C | 54.5% | 0hPa | 2.7V | 00:00:00 | 02:39:27 | 00:00:00 | |
| OE3JTB-15 | 2026-09-02 04:28:08 | 48.30793 | 15.72245 | 139° | 11km/h | 1080m | -3.3m/s | 16.0°C | 54.6% | 0hPa | 2.7V | 00:00:00 | 00:00:00 | 00:00:00 | |
| OE3JTB-15 | 2026-09-02 04:28:06 | 48.30797 | 15.72238 | 130° | 11km/h | 1087m | -3.3m/s | 15.9°C | 54.9% | 0hPa | 2.7V | 00:00:00 | 00:00:00 | 00:00:00 | |
| OE3JTB-15 | 2026-09-02 04:28:04 | 48.30801 | 15.72231 | 140° | 13km/h | 1093m | -3.6m/s | 15.8°C | 55.0% | 0hPa | 2.7V | 07:30:00 | 02:39:21 | 00:00:00 | |
| OE3OSB-13 | 2026-09-02 04:27:48 | 48.30833 | 15.72158 | 113° | 13km/h | 1155m | -3.6m/s | 15.3°C | 57.1% | -1.0hPa | 2.7V | 00:00:00 | 00:00:00 | 00:00:00 | |
| OE3JTB-15 | 2026-09-02 04:27:46 | 48.30834 | 15.72153 | 113° | 15km/h | 1159m | -3.9m/s | 15.2°C | 57.1% | 0hPa | 2.7V | 00:00:00 | 02:39:03 | 00:00:00 | |
| OE3JTB-15 | 2026-09-02 04:27:44 | 48.30837 | 15.72143 | 112° | 15km/h | 1166m | -3.7m/s | 15.2°C | 57.3% | 0hPa | 2.7V | 00:00:00 | 00:00:00 | 00:00:00 | |
| OE3JTB-15 | 2026-09-02 04:27:42 | 48.30839 | 15.72133 | 110° | 15km/h | 1173m | -3.8m/s | 15.1°C | 57.5% | 0hPa | 2.7V | 00:00:00 | 00:00:00 | 00:00:00 | |
| OE3JTB-15 | 2026-09-02 04:27:40 | 48.30842 | 15.72122 | 112° | 16km/h | 1180m | -3.1m/s | 15.1°C | 57.9% | 0hPa | 2.7V | 00:00:00 | 02:38:57 | 00:00:00 | |
| OE3JTB-15 | 2026-09-02 04:27:38 | 48.30843 | 15.72111 | 100° | 15km/h | 1186m | -3.3m/s | 15.0°C | 58.4% | 0hPa | 2.7V | 00:00:00 | 00:00:00 | 00:00:00 | |
| OE3JTB-15 | 2026-09-02 04:27:36 | 48.30845 | 15.72100 | 98° | 15km/h | 1193m | -3.4m/s | 15.0°C | 58.6% | 0hPa | 2.7V | 00:00:00 | 00:00:00 | 00:00:00 | |
| OE3JTB-15 | 2026-09-02 04:27:34 | 48.30845 | 15.72090 | 95° | 13km/h | 1200m | -3.4m/s | 14.9°C | 59.2% | 0hPa | 2.7V | 00:00:00 | 02:38:51 | 00:00:00 | |
| OE3JTB-15 | 2026-09-02 04:27:32 | 48.30846 | 15.72080 | 98° | 13km/h | 1207m | -3.4m/s | 14.9°C | 60.0% | 0hPa | 2.7V | 07:30:00 | 00:00:00 | 00:00:00 | |
| OE3JTB-15 | 2026-09-02 04:27:30 | 48.30847 | 15.72071 | 100° | 11km/h | 1213m | -3.4m/s | 14.8°C | 60.3% | 0hPa | 2.7V | 00:00:00 | 00:00:00 | 00:00:00 | |
| OE3JTB-15 | 2026-09-02 04:27:28 | 48.30847 | 15.72062 | 98° | 11km/h | 1220m | -3.4m/s | 14.8°C | 60.7% | 0hPa | 2.7V | 00:00:00 | 02:38:45 | 00:00:00 | |
| OE3JTB-15 | 2026-09-02 04:27:26 | 48.30848 | 15.72054 | 99° | 9km/h | 1227m | -3.3m/s | 14.7°C | 60.9% | 0hPa | 2.7V | 00:00:00 | 00:00:00 | 00:00:00 | |
| OE3JTB-15 | 2026-09-02 04:27:24 | 48.30849 | 15.72047 | 101° | 9km/h | 1233m | -3.3m/s | 14.6°C | 61.1% | 0hPa | 2.7V | 00:00:00 | 00:00:00 | 00:00:00 | |
| OE3JTB-15 | 2026-09-02 04:27:22 | 48.30849 | 15.72041 | 105° | 7km/h | 1239m | -3.4m/s | 14.6°C | 61.4% | 0hPa | 2.7V | 00:00:00 | 02:38:39 | 00:00:00 | |
| OE3JTB-15 | 2026-09-02 04:27:20 | 48.30851 | 15.72035 | 110° | 7km/h | 1246m | -3.7m/s | 14.5°C | 61.6% | 0hPa | 2.7V | 00:00:00 | 00:00:00 | 00:00:00 | |
| OE3JTB-15 | 2026-09-02 04:27:18 | 48.30852 | 15.72030 | 111° | 7km/h | 1254m | -3.4m/s | 14.4°C | 61.9% | 0hPa | 2.7V | 00:00:00 | 00:00:00 | 00:00:00 | |
| OE3OSB-13 | 2026-09-02 04:27:16 | 48.30854 | 15.72025 | 121° | 5km/h | 1259m | -3.2m/s | 14.4°C | 62.3% | -1.0hPa | 2.7V | 00:00:00 | 00:00:00 | 00:00:00 | |
| OE3JTB-15 | 2026-09-02 04:27:16 | 48.30853 | 15.72025 | 122° | 7km/h | 1260m | -3.2m/s | 14.4°C | 62.2% | 0hPa | 2.7V | 07:30:00 | 02:38:33 | 00:00:00 | |
| OE3JTB-15 | 2026-09-02 04:27:14 | 48.30856 | 15.72021 | 137° | 7km/h | 1266m | -3.4m/s | 14.3°C | 62.5% | 0hPa | 2.7V | 00:00:00 | 00:00:00 | 00:00:00 | |
| OE3JTB-15 | 2026-09-02 04:27:12 | 48.30859 | 15.72017 | 141° | 9km/h | 1273m | -3.4m/s | 14.2°C | 62.7% | 0hPa | 2.7V | 00:00:00 | 00:00:00 | 00:00:00 | |
| OE3JTB-15 | 2026-09-02 04:27:10 | 48.30863 | 15.72012 | 139° | 9km/h | 1280m | -3.9m/s | 14.2°C | 63.1% | 0hPa | 2.7V | 00:00:00 | 02:38:27 | 00:00:00 | |
| OE3JTB-15 | 2026-09-02 04:27:08 | 48.30867 | 15.72007 | 143° | 11km/h | 1287m | -3.6m/s | 14.1°C | 63.3% | 0hPa | 2.7V | 00:00:00 | 00:00:00 | 00:00:00 | |
| OE3JTB-15 | 2026-09-02 04:27:06 | 48.30872 | 15.72002 | 143° | 13km/h | 1294m | -3.7m/s | 14.0°C | 63.8% | 0hPa | 2.7V | 00:00:00 | 00:00:00 | 00:00:00 | |
| OE3JTB-15 | 2026-09-02 04:27:04 | 48.30877 | 15.71996 | 144° | 13km/h | 1301m | -3.4m/s | 14.0°C | 64.1% | 0hPa | 2.7V | 00:00:00 | 02:38:21 | 00:00:00 | |
| OE3OSB-13 | 2026-09-02 04:26:45 | 48.30934 | 15.71913 | 130° | 18km/h | 1365m | -3.8m/s | 13.4°C | 66.6% | -1.0hPa | 2.7V | 00:00:00 | 00:00:00 | 00:00:00 | |
| OE3JTB-15 | 2026-09-02 04:26:44 | 48.30937 | 15.71907 | 128° | 20km/h | 1368m | -3.0m/s | 13.3°C | 66.9% | 0hPa | 2.7V | 07:31:00 | 00:00:00 | 00:00:00 | |
| OE3JTB-15 | 2026-09-02 04:26:42 | 48.30943 | 15.71895 | 133° | 20km/h | 1374m | -3.4m/s | 13.2°C | 67.1% | 0hPa | 2.7V | 00:00:00 | 00:00:00 | 00:00:00 | |
| OE3JTB-15 | 2026-09-02 04:26:40 | 48.30949 | 15.71883 | 131° | 20km/h | 1381m | -3.4m/s | 13.2°C | 67.4% | 0hPa | 2.7V | 00:00:00 | 02:37:57 | 00:00:00 | |
| OE3JTB-15 | 2026-09-02 04:26:38 | 48.30956 | 15.71870 | 129° | 20km/h | 1387m | -3.6m/s | 13.1°C | 67.7% | 0hPa | 2.7V | 00:00:00 | 00:00:00 | 00:00:00 | |
| OE3JTB-15 | 2026-09-02 04:26:36 | 48.30962 | 15.71858 | 124° | 20km/h | 1394m | -3.8m/s | 13.1°C | 67.9% | 0hPa | 2.7V | 00:00:00 | 00:00:00 | 00:00:00 | |
| OE3JTB-15 | 2026-09-02 04:26:34 | 48.30968 | 15.71844 | 122° | 20km/h | 1401m | -3.9m/s | 13.0°C | 68.3% | 0hPa | 2.7V | 00:00:00 | 02:37:51 | 00:00:00 | |
| OE3JTB-15 | 2026-09-02 04:26:32 | 48.30973 | 15.71830 | 119° | 20km/h | 1408m | -3.7m/s | 12.9°C | 68.5% | 0hPa | 2.7V | 00:00:00 | 00:00:00 | 00:00:00 | |
| OE3JTB-15 | 2026-09-02 04:26:30 | 48.30978 | 15.71816 | 116° | 22km/h | 1415m | -3.9m/s | 12.9°C | 68.8% | 0hPa | 2.7V | 00:00:00 | 00:00:00 | 00:00:00 | |
| OE3JTB-15 | 2026-09-02 04:26:28 | 48.30982 | 15.71801 | 115° | 22km/h | 1422m | -3.8m/s | 12.8°C | 69.2% | 0hPa | 2.7V | 07:31:00 | 02:37:45 | 00:00:00 | |
| OE3JTB-15 | 2026-09-02 04:26:26 | 48.30987 | 15.71786 | 115° | 22km/h | 1429m | -3.7m/s | 12.8°C | 69.3% | 0hPa | 2.7V | 00:00:00 | 00:00:00 | 00:00:00 | |
| OE3JTB-15 | 2026-09-02 04:26:22 | 48.30995 | 15.71756 | 112° | 22km/h | 1443m | -3.4m/s | 12.7°C | 69.6% | 0hPa | 2.7V | 00:00:00 | 02:37:39 | 00:00:00 | |
| OE3JTB-15 | 2026-09-02 04:26:20 | 48.30999 | 15.71740 | 108° | 22km/h | 1450m | -3.6m/s | 12.6°C | 69.6% | 0hPa | 2.7V | 00:00:00 | 00:00:00 | 00:00:00 | |
| OE3JTB-15 | 2026-09-02 04:26:18 | 48.31002 | 15.71725 | 104° | 20km/h | 1456m | -3.1m/s | 12.6°C | 70.0% | 0hPa | 2.7V | 00:00:00 | 00:00:00 | 00:00:00 | |
| OE3JTB-15 | 2026-09-02 04:26:16 | 48.31005 | 15.71710 | 101° | 20km/h | 1463m | -3.0m/s | 12.5°C | 70.2% | 0hPa | 2.7V | 00:00:00 | 02:37:33 | 00:00:00 | |
| OE3OSB-13 | 2026-09-02 04:26:14 | 48.31007 | 15.71695 | 103° | 18km/h | 1469m | -3.4m/s | 12.5°C | 70.3% | -1.0hPa | 2.7V | 00:00:00 | 00:00:00 | 00:00:00 | |
| OE3JTB-15 | 2026-09-02 04:26:14 | 48.31007 | 15.71695 | 104° | 18km/h | 1469m | -3.3m/s | 12.5°C | 70.5% | 0hPa | 2.7V | 00:00:00 | 00:00:00 | 00:00:00 | |
| OE3JTB-15 | 2026-09-02 04:26:12 | 48.31008 | 15.71681 | 99° | 18km/h | 1476m | -3.4m/s | 12.4°C | 70.5% | 0hPa | 2.7V | 07:32:00 | 00:00:00 | 00:00:00 | |
| OE3JTB-15 | 2026-09-02 04:26:10 | 48.31010 | 15.71668 | 101° | 16km/h | 1483m | -3.4m/s | 12.3°C | 70.9% | 0hPa | 2.7V | 00:00:00 | 02:37:27 | 00:00:00 | |
| OE3JTB-15 | 2026-09-02 04:26:08 | 48.31011 | 15.71656 | 97° | 15km/h | 1489m | -3.0m/s | 12.3°C | 71.1% | 0hPa | 2.7V | 00:00:00 | 00:00:00 | 00:00:00 | |
| OE3JTB-15 | 2026-09-02 04:26:06 | 48.31012 | 15.71645 | 106° | 15km/h | 1495m | -3.3m/s | 12.2°C | 71.3% | 0hPa | 2.7V | 00:00:00 | 00:00:00 | 00:00:00 | |
| OE3JTB-15 | 2026-09-02 04:26:04 | 48.31014 | 15.71635 | 106° | 13km/h | 1501m | -3.5m/s | 12.2°C | 71.8% | 0hPa | 2.7V | 00:00:00 | 02:37:21 | 00:00:00 | |
| OE3JTB-15 | 2026-09-02 04:26:02 | 48.31016 | 15.71625 | 106° | 13km/h | 1508m | -2.9m/s | 12.1°C | 72.0% | 0hPa | 2.7V | 00:00:00 | 00:00:00 | 00:00:00 | |
| OE3JTB-15 | 2026-09-02 04:26:00 | 48.31019 | 15.71616 | 113° | 13km/h | 1515m | -3.3m/s | 12.0°C | 72.3% | 0hPa | 2.7V | 00:00:00 | 00:00:00 | 00:00:00 | |
| OE3JTB-15 | 2026-09-02 04:25:58 | 48.31022 | 15.71608 | 122° | 13km/h | 1521m | -3.3m/s | 12.0°C | 72.8% | 0hPa | 2.7V | 00:00:00 | 02:37:15 | 00:00:00 | |
| OE3JTB-15 | 2026-09-02 04:25:56 | 48.31025 | 15.71599 | 127° | 13km/h | 1528m | -3.4m/s | 11.9°C | 72.9% | 0hPa | 2.7V | 07:32:00 | 00:00:00 | 00:00:00 | |
| OE3JTB-15 | 2026-09-02 04:25:54 | 48.31029 | 15.71591 | 128° | 15km/h | 1534m | -3.4m/s | 11.9°C | 73.5% | 0hPa | 2.7V | 00:00:00 | 00:00:00 | 00:00:00 | |
| OE3JTB-15 | 2026-09-02 04:25:52 | 48.31033 | 15.71583 | 127° | 15km/h | 1541m | -3.3m/s | 11.8°C | 74.1% | 0hPa | 2.7V | 00:00:00 | 02:37:09 | 00:00:00 | |
| OE3JTB-15 | 2026-09-02 04:25:50 | 48.31038 | 15.71574 | 134° | 15km/h | 1548m | -3.4m/s | 11.8°C | 74.4% | 0hPa | 2.7V | 00:00:00 | 00:00:00 | 00:00:00 | |
| OE3JTB-15 | 2026-09-02 04:25:48 | 48.31043 | 15.71566 | 128° | 15km/h | 1554m | -3.0m/s | 11.7°C | 74.7% | 0hPa | 2.7V | 00:00:00 | 00:00:00 | 00:00:00 | |
| OE3JTB-15 | 2026-09-02 04:25:46 | 48.31049 | 15.71557 | 128° | 16km/h | 1560m | -3.1m/s | 11.7°C | 74.9% | 0hPa | 2.7V | 00:00:00 | 02:37:03 | 00:00:00 | |
| OE3JTB-15 | 2026-09-02 04:25:44 | 48.31054 | 15.71548 | 133° | 16km/h | 1566m | -3.6m/s | 11.6°C | 74.9% | 0hPa | 2.7V | 00:00:00 | 00:00:00 | 00:00:00 | |
| OE3OSB-13 | 2026-09-02 04:25:43 | 48.31057 | 15.71543 | 133° | 15km/h | 1570m | -3.5m/s | 11.6°C | 74.5% | -1.0hPa | 2.7V | 00:00:00 | 00:00:00 | 00:00:00 | |
| OE3JTB-15 | 2026-09-02 04:25:42 | 48.31060 | 15.71538 | 136° | 18km/h | 1573m | -3.7m/s | 11.6°C | 74.7% | 0hPa | 2.7V | 00:00:00 | 00:00:00 | 00:00:00 | |
| OE3JTB-15 | 2026-09-02 04:25:40 | 48.31066 | 15.71529 | 137° | 20km/h | 1580m | -3.4m/s | 11.5°C | 75.0% | 0hPa | 2.7V | 07:32:00 | 02:36:57 | 00:00:00 | |
| OE3JTB-15 | 2026-09-02 04:25:38 | 48.31073 | 15.71519 | 141° | 20km/h | 1587m | -3.2m/s | 11.4°C | 75.2% | 0hPa | 2.7V | 00:00:00 | 00:00:00 | 00:00:00 | |
| OE3JTB-15 | 2026-09-02 04:25:36 | 48.31081 | 15.71508 | 137° | 20km/h | 1593m | -3.1m/s | 11.4°C | 75.4% | 0hPa | 2.7V | 00:00:00 | 00:00:00 | 00:00:00 | |
| OE3JTB-15 | 2026-09-02 04:25:34 | 48.31088 | 15.71497 | 134° | 22km/h | 1600m | -3.4m/s | 11.3°C | 75.6% | 0hPa | 2.7V | 00:00:00 | 02:36:51 | 00:00:00 | |
| OE3JTB-15 | 2026-09-02 04:25:32 | 48.31096 | 15.71484 | 134° | 24km/h | 1607m | -3.4m/s | 11.2°C | 75.9% | 0hPa | 2.7V | 00:00:00 | 00:00:00 | 00:00:00 | |
| OE3JTB-15 | 2026-09-02 04:25:28 | 48.31112 | 15.71457 | 130° | 24km/h | 1620m | -3.4m/s | 11.1°C | 76.2% | 0hPa | 2.7V | 00:00:00 | 02:36:45 | 00:00:00 | |
| OE3JTB-15 | 2026-09-02 04:25:26 | 48.31119 | 15.71442 | 127° | 26km/h | 1626m | -3.3m/s | 11.1°C | 76.4% | 0hPa | 2.7V | 00:00:00 | 00:00:00 | 00:00:00 | |
| OE3JTB-15 | 2026-09-02 04:25:24 | 48.31126 | 15.71427 | 124° | 26km/h | 1633m | -3.2m/s | 11.0°C | 76.3% | 0hPa | 2.7V | 07:32:00 | 00:00:00 | 00:00:00 | |
| OE3JTB-15 | 2026-09-02 04:25:22 | 48.31133 | 15.71411 | 123° | 26km/h | 1640m | -3.1m/s | 11.0°C | 75.8% | 0hPa | 2.7V | 00:00:00 | 02:36:39 | 00:00:00 | |
| PETON7-10 | 2026-09-02 04:25:21 | 48.31137 | 15.71403 | 124° | 26km/h | 1643m | -3.3m/s | 11.0°C | 75.4% | 0hPa | 2.7V | 00:00:00 | 00:00:00 | 00:00:00 | |
| OE3JTB-15 | 2026-09-02 04:25:20 | 48.31140 | 15.71395 | 120° | 26km/h | 1647m | -3.6m/s | 11.0°C | 74.4% | 0hPa | 2.7V | 00:00:00 | 00:00:00 | 00:00:00 | |
| OE3JTB-15 | 2026-09-02 04:25:18 | 48.31147 | 15.71378 | 121° | 26km/h | 1654m | -3.1m/s | 11.0°C | 74.3% | 0hPa | 2.7V | 00:00:00 | 00:00:00 | 00:00:00 | |
| OE3JTB-15 | 2026-09-02 04:25:16 | 48.31152 | 15.71360 | 116° | 26km/h | 1661m | -3.1m/s | 10.9°C | 74.6% | 0hPa | 2.7V | 00:00:00 | 02:36:33 | 00:00:00 | |
| PETON7-10 | 2026-09-02 04:25:16 | 48.31152 | 15.71360 | 116° | 24km/h | 1661m | -3.1m/s | 10.9°C | 74.6% | 0hPa | 2.7V | 00:00:00 | 00:00:00 | 00:00:00 | |
| OE3JTB-15 | 2026-09-02 04:25:14 | 48.31158 | 15.71343 | 112° | 26km/h | 1666m | -2.4m/s | 10.9°C | 76.5% | 0hPa | 2.7V | 00:00:00 | 00:00:00 | 00:00:00 | |
| OE3JTB-15 | 2026-09-02 04:25:12 | 48.31162 | 15.71326 | 113° | 24km/h | 1672m | -3.1m/s | 10.8°C | 76.6% | 0hPa | 2.7V | 00:00:00 | 00:00:00 | 00:00:00 | |
| PETON7-10 | 2026-09-02 04:25:11 | 48.31165 | 15.71317 | 109° | 18km/h | 1675m | -2.9m/s | 10.8°C | 76.4% | 0hPa | 2.7V | 07:33:00 | 02:36:28 | 00:00:00 | |
| OE3JTB-15 | 2026-09-02 04:25:10 | 48.31167 | 15.71309 | 109° | 24km/h | 1678m | -3.2m/s | 10.8°C | 76.2% | 0hPa | 2.7V | 00:00:00 | 02:36:27 | 00:00:00 | |
| OE3JTB-15 | 2026-09-02 04:25:08 | 48.31171 | 15.71292 | 108° | 22km/h | 1684m | -3.5m/s | 10.7°C | 76.3% | 0hPa | 2.7V | 07:33:00 | 00:00:00 | 00:00:00 | |
| OE3JTB-15 | 2026-09-02 04:25:06 | 48.31174 | 15.71276 | 105° | 22km/h | 1691m | -3.0m/s | 10.7°C | 76.6% | 0hPa | 2.7V | 00:00:00 | 00:00:00 | 00:00:00 | |
| OE3JTB-15 | 2026-09-02 04:25:04 | 48.31177 | 15.71261 | 106° | 20km/h | 1697m | -3.2m/s | 10.6°C | 76.6% | 0hPa | 2.7V | 00:00:00 | 02:36:21 | 00:00:00 | |
| OE3JTB-15 | 2026-09-02 04:25:02 | 48.31180 | 15.71246 | 109° | 18km/h | 1703m | -3.4m/s | 10.6°C | 76.9% | 0hPa | 2.7V | 00:00:00 | 00:00:00 | 00:00:00 | |
| OE3JTB-15 | 2026-09-02 04:25:00 | 48.31182 | 15.71233 | 110° | 18km/h | 1709m | -3.1m/s | 10.5°C | 77.2% | 0hPa | 2.7V | 00:00:00 | 00:00:00 | 00:00:00 | |
| OE3JTB-15 | 2026-09-02 04:24:58 | 48.31186 | 15.71221 | 111° | 16km/h | 1715m | -3.2m/s | 10.5°C | 77.5% | 0hPa | 2.7V | 00:00:00 | 02:36:15 | 00:00:00 | |
| PETON7-10 | 2026-09-02 04:24:56 | 48.31188 | 15.71210 | 113° | 15km/h | 1722m | -2.9m/s | 10.4°C | 77.6% | 0hPa | 2.7V | 00:00:00 | 00:00:00 | 00:00:00 | |
| OE3JTB-15 | 2026-09-02 04:24:56 | 48.31188 | 15.71210 | 113° | 15km/h | 1722m | -2.9m/s | 10.4°C | 77.6% | 0hPa | 2.7V | 00:00:00 | 00:00:00 | 00:00:00 | |
| OE3JTB-15 | 2026-09-02 04:24:54 | 48.31192 | 15.71200 | 122° | 15km/h | 1728m | -3.4m/s | 10.3°C | 77.8% | 0hPa | 2.7V | 00:00:00 | 00:00:00 | 00:00:00 | |
| OE3JTB-15 | 2026-09-02 04:24:52 | 48.31197 | 15.71190 | 131° | 16km/h | 1734m | -3.4m/s | 10.3°C | 78.1% | 0hPa | 2.7V | 07:33:00 | 02:36:09 | 00:00:00 | |
| PETON7-10 | 2026-09-02 04:24:51 | 48.31199 | 15.71185 | 128° | 16km/h | 1738m | -3.9m/s | 10.3°C | 77.7% | 0hPa | 2.7V | 00:00:00 | 00:00:00 | 00:00:00 | |
| OE3JTB-15 | 2026-09-02 04:24:50 | 48.31202 | 15.71181 | 131° | 16km/h | 1741m | -3.6m/s | 10.3°C | 76.0% | 0hPa | 2.7V | 00:00:00 | 00:00:00 | 00:00:00 | |
| OE3JTB-15 | 2026-09-02 04:24:46 | 48.31214 | 15.71162 | 138° | 20km/h | 1755m | -3.5m/s | 10.2°C | 72.8% | 0hPa | 2.7V | 00:00:00 | 02:36:03 | 00:00:00 | |
| PETON7-10 | 2026-09-02 04:24:46 | 48.31214 | 15.71162 | 138° | 20km/h | 1755m | -3.5m/s | 10.2°C | 72.8% | 0hPa | 2.7V | 00:00:00 | 02:36:03 | 00:00:00 | |
| OE3JTB-15 | 2026-09-02 04:24:43 | 48.31225 | 15.71146 | 136° | 22km/h | 1766m | -3.4m/s | 10.2°C | 70.8% | 0hPa | 2.7V | 00:00:00 | 00:00:00 | 00:00:00 | |
| OE3OSB-13 | 2026-09-02 04:24:41 | 48.31237 | 15.71129 | 136° | 22km/h | 1775m | -3.2m/s | 10.2°C | 68.7% | -1.0hPa | 2.7V | 00:00:00 | 00:00:00 | 00:00:00 | |
| PETON7-10 | 2026-09-02 04:24:40 | 48.31237 | 15.71129 | 137° | 24km/h | 1776m | -3.1m/s | 10.1°C | 68.9% | 0hPa | 2.7V | 00:00:00 | 00:00:00 | 00:00:00 | |
| OE5DRO-10 | 2026-09-02 04:24:39 | 48.31241 | 15.71123 | 131° | 24km/h | 1779m | -2.6m/s | 10.1°C | 68.6% | 0hPa | 2.7V | 00:00:00 | 00:00:00 | 00:00:00 | |
| OE3JTB-15 | 2026-09-02 04:24:34 | 48.31262 | 15.71090 | 134° | 26km/h | 1794m | -3.7m/s | 10.1°C | 62.5% | 0hPa | 2.7V | 00:00:00 | 00:00:00 | 00:00:00 | |
| OE5DRO-10 | 2026-09-02 04:24:32 | 48.31270 | 15.71077 | 130° | 26km/h | 1801m | -2.9m/s | 10.0°C | 61.8% | 0hPa | 2.7V | 00:00:00 | 00:00:00 | 00:00:00 | |
| PETON7-10 | 2026-09-02 04:24:30 | 48.31279 | 15.71062 | 130° | 26km/h | 1807m | -3.3m/s | 9.9°C | 62.1% | 0hPa | 2.7V | 00:00:00 | 00:00:00 | 00:00:00 | |
| OE5DRO-10 | 2026-09-02 04:24:25 | 48.31300 | 15.71025 | 126° | 27km/h | 1824m | -2.9m/s | 9.8°C | 60.6% | 0hPa | 2.7V | 00:00:00 | 00:00:00 | 00:00:00 | |
| OE3JTB-15 | 2026-09-02 04:24:25 | 48.31300 | 15.71025 | 126° | 27km/h | 1824m | -2.9m/s | 9.8°C | 60.6% | 0hPa | 2.7V | 00:00:00 | 02:35:42 | 00:00:00 | |
| PETON7-10 | 2026-09-02 04:24:20 | 48.31321 | 15.70984 | 128° | 29km/h | 1840m | -3.8m/s | 9.7°C | 60.2% | 0hPa | 2.7V | 00:00:00 | 02:35:37 | 00:00:00 | |
| OE5DRO-10 | 2026-09-02 04:24:18 | 48.31330 | 15.70967 | 127° | 29km/h | 1847m | -3.3m/s | 9.6°C | 61.1% | 0hPa | 2.7V | 00:00:00 | 00:00:00 | 00:00:00 | |
| OE3JTB-15 | 2026-09-02 04:24:16 | 48.31338 | 15.70949 | 124° | 29km/h | 1854m | -3.0m/s | 9.6°C | 59.7% | 0hPa | 2.7V | 00:00:00 | 00:00:00 | 00:00:00 | |
| OE5DRO-10 | 2026-09-02 04:24:11 | 48.31358 | 15.70903 | 123° | 29km/h | 1871m | -3.1m/s | 9.4°C | 60.4% | 0hPa | 2.7V | 00:00:00 | 00:00:00 | 00:00:00 | |
| PETON7-10 | 2026-09-02 04:24:10 | 48.31362 | 15.70894 | 121° | 29km/h | 1875m | -2.8m/s | 9.4°C | 60.6% | 0hPa | 2.7V | 00:00:00 | 00:00:00 | 00:00:00 | |
| OE3JTB-15 | 2026-09-02 04:24:07 | 48.31373 | 15.70865 | 118° | 29km/h | 1884m | -3.0m/s | 9.3°C | 60.5% | 0hPa | 2.7V | 07:34:00 | 00:00:00 | 00:00:00 | |
| OE5DRO-10 | 2026-09-02 04:24:04 | 48.31384 | 15.70835 | 115° | 31km/h | 1893m | -3.1m/s | 9.2°C | 59.8% | 0hPa | 2.7V | 00:00:00 | 00:00:00 | 00:00:00 | |
| PETON7-10 | 2026-09-02 04:24:00 | 48.31398 | 15.70794 | 115° | 29km/h | 1907m | -3.4m/s | 9.1°C | 59.8% | 0hPa | 2.7V | 07:34:00 | 00:00:00 | 00:00:00 | |
| OE3JTB-15 | 2026-09-02 04:23:58 | 48.31404 | 15.70773 | 116° | 29km/h | 1914m | -3.5m/s | 9.1°C | 58.9% | 0hPa | 2.7V | 00:00:00 | 02:35:15 | 00:00:00 | |
| OE5DRO-10 | 2026-09-02 04:23:57 | 48.31407 | 15.70763 | 113° | 29km/h | 1917m | -3.8m/s | 9.0°C | 59.0% | 0hPa | 2.7V | 07:34:00 | 00:00:00 | 00:00:00 | |
| OE5DRO-10 | 2026-09-02 04:23:50 | 48.31424 | 15.70690 | 106° | 27km/h | 1944m | -3.6m/s | 8.8°C | 59.8% | 0hPa | 2.7V | 00:00:00 | 00:00:00 | 00:00:00 | |
| PETON7-10 | 2026-09-02 04:23:50 | 48.31424 | 15.70690 | 106° | 27km/h | 1944m | -3.6m/s | 8.8°C | 59.8% | 0hPa | 2.7V | 00:00:00 | 02:35:07 | 00:00:00 | |
| OE3JTB-15 | 2026-09-02 04:23:49 | 48.31426 | 15.70679 | 109° | 27km/h | 1947m | -3.3m/s | 8.7°C | 60.0% | 0hPa | 2.7V | 00:00:00 | 00:00:00 | 00:00:00 | |
| OE5DRO-10 | 2026-09-02 04:23:43 | 48.31437 | 15.70618 | 102° | 26km/h | 1969m | -3.6m/s | 8.5°C | 61.9% | 0hPa | 2.7V | 00:00:00 | 00:00:00 | 00:00:00 | |
| OE3JTB-15 | 2026-09-02 04:23:40 | 48.31440 | 15.70589 | 101° | 24km/h | 1979m | -3.4m/s | 8.4°C | 63.5% | 0hPa | 2.7V | 00:00:00 | 00:00:00 | 00:00:00 | |
| PETON7-10 | 2026-09-02 04:23:40 | 48.31440 | 15.70589 | 101° | 22km/h | 1979m | -3.4m/s | 8.4°C | 63.5% | 0hPa | 2.7V | 00:00:00 | 00:00:00 | 00:00:00 | |
| OE3OSB-13 | 2026-09-02 04:23:39 | 48.31443 | 15.70571 | 104° | 24km/h | 1986m | -3.7m/s | 8.4°C | 63.9% | -1.0hPa | 2.7V | 00:00:00 | 00:00:00 | 00:00:00 | |
| OE5DRO-10 | 2026-09-02 04:23:36 | 48.31445 | 15.70553 | 99° | 22km/h | 1994m | -4.0m/s | 8.3°C | 65.7% | 0hPa | 2.7V | 00:00:00 | 00:00:00 | 00:00:00 | |
| OE3JTB-15 | 2026-09-02 04:23:31 | 48.31448 | 15.70512 | 94° | 18km/h | 2012m | -3.6m/s | 8.1°C | 67.1% | 0hPa | 2.7V | 00:00:00 | 02:34:48 | 00:00:00 | |
| PETON7-10 | 2026-09-02 04:23:30 | 48.31449 | 15.70504 | 98° | 18km/h | 2015m | -3.7m/s | 8.1°C | 66.8% | 0hPa | 2.7V | 00:00:00 | 00:00:00 | 00:00:00 | |
| OE5DRO-10 | 2026-09-02 04:23:29 | 48.31449 | 15.70497 | 95° | 18km/h | 2019m | -3.6m/s | 8.0°C | 67.5% | 0hPa | 2.7V | 00:00:00 | 00:00:00 | 00:00:00 | |
| OE5DRO-10 | 2026-09-02 04:23:22 | 48.31456 | 15.70448 | 110° | 16km/h | 2045m | -3.1m/s | 7.8°C | 73.2% | 0hPa | 2.7V | 00:00:00 | 00:00:00 | 00:00:00 | |
| PETON7-10 | 2026-09-02 04:23:20 | 48.31458 | 15.70435 | 104° | 16km/h | 2051m | -3.2m/s | 7.7°C | 69.5% | 0hPa | 2.7V | 00:00:00 | 02:34:37 | 00:00:00 | |
| OE5DRO-10 | 2026-09-02 04:23:15 | 48.31466 | 15.70406 | 116° | 18km/h | 2067m | -3.7m/s | 7.5°C | 75.2% | 0hPa | 2.7V | 00:00:00 | 00:00:00 | 00:00:00 | |
| OE3JTB-15 | 2026-09-02 04:23:13 | 48.31470 | 15.70394 | 117° | 20km/h | 2075m | -3.1m/s | 7.4°C | 82.0% | 0hPa | 2.7V | 00:00:00 | 00:00:00 | 00:00:00 | |
| PETON7-10 | 2026-09-02 04:23:10 | 48.31477 | 15.70377 | 123° | 22km/h | 2085m | -3.6m/s | 7.3°C | 84.6% | 0hPa | 2.7V | 00:00:00 | 00:00:00 | 00:00:00 | |
| OE5DRO-10 | 2026-09-02 04:23:08 | 48.31482 | 15.70364 | 126° | 22km/h | 2092m | -3.5m/s | 7.2°C | 80.6% | 0hPa | 2.7V | 00:00:00 | 00:00:00 | 00:00:00 | |
| OE3JTB-15 | 2026-09-02 04:23:04 | 48.31494 | 15.70337 | 122° | 26km/h | 2105m | -3.9m/s | 7.0°C | 86.9% | 0hPa | 2.7V | 00:00:00 | 02:34:21 | 00:00:00 | |
| OE5DRO-10 | 2026-09-02 04:23:01 | 48.31504 | 15.70314 | 124° | 26km/h | 2116m | -3.4m/s | 6.8°C | 86.3% | 0hPa | 2.7V | 07:35:00 | 00:00:00 | 00:00:00 | |
| PETON7-10 | 2026-09-02 04:23:00 | 48.31507 | 15.70306 | 120° | 27km/h | 2119m | -3.4m/s | 6.7°C | 87.1% | 0hPa | 2.7V | 00:00:00 | 00:00:00 | 00:00:00 | |
| OE5WHR-10 | 2026-09-02 04:22:58 | 48.31513 | 15.70289 | 120° | 27km/h | 2125m | -3.5m/s | 6.5°C | 86.4% | 0hPa | 2.7V | 00:00:00 | 00:00:00 | 00:00:00 | |
| OE3JTB-15 | 2026-09-02 04:22:55 | 48.31523 | 15.70262 | 115° | 27km/h | 2135m | -3.2m/s | 6.4°C | 92.5% | 0hPa | 2.7V | 07:35:00 | 00:00:00 | 00:00:00 | |
| OE5DRO-10 | 2026-09-02 04:22:54 | 48.31525 | 15.70253 | 116° | 27km/h | 2138m | -3.7m/s | 6.4°C | 92.8% | 0hPa | 2.7V | 00:00:00 | 00:00:00 | 00:00:00 | |
| OE5WHR-10 | 2026-09-02 04:22:52 | 48.31531 | 15.70234 | 113° | 27km/h | 2146m | -4.0m/s | 6.3°C | 93.4% | 0hPa | 2.7V | 00:00:00 | 02:34:09 | 00:00:00 | |
| PETON7-10 | 2026-09-02 04:22:50 | 48.31536 | 15.70215 | 112° | 27km/h | 2153m | -3.5m/s | 6.2°C | 93.1% | 0hPa | 2.7V | 00:00:00 | 02:34:07 | 00:00:00 | |
| PG1ADW-2 | 2026-09-02 04:22:47 | 48.31543 | 15.70185 | 109° | 27km/h | 2165m | -3.6m/s | 6.1°C | 93.3% | 0hPa | 2.7V | 07:35:00 | 00:00:00 | 00:00:00 | |
| OE3JTB-15 | 2026-09-02 04:22:46 | 48.31545 | 15.70175 | 104° | 27km/h | 2168m | -3.1m/s | 6.0°C | 93.5% | 0hPa | 2.7V | 00:00:00 | 00:00:00 | 00:00:00 | |
| PETON7-10 | 2026-09-02 04:22:40 | 48.31553 | 15.70115 | 100° | 26km/h | 2189m | -4.0m/s | 5.7°C | 93.2% | 0hPa | 2.7V | 07:35:00 | 00:00:00 | 00:00:00 | |
| OE3JTB-15 | 2026-09-02 04:22:37 | 48.31556 | 15.70086 | 95° | 26km/h | 2200m | -3.6m/s | 5.6°C | 94.6% | 0hPa | 2.7V | 00:00:00 | 02:33:54 | 00:00:00 | |
| OE5WHR-10 | 2026-09-02 04:22:34 | 48.31558 | 15.70056 | 95° | 26km/h | 2211m | -3.6m/s | 5.6°C | 95.8% | 0hPa | 2.7V | 00:00:00 | 00:00:00 | 00:00:00 | |
| OE5DRO-10 | 2026-09-02 04:22:33 | 48.31559 | 15.70046 | 95° | 26km/h | 2214m | -3.7m/s | 5.6°C | 96.1% | 0hPa | 2.7V | 00:00:00 | 00:00:00 | 00:00:00 | |
| PETON7-10 | 2026-09-02 04:22:30 | 48.31560 | 15.70016 | 96° | 26km/h | 2225m | -3.8m/s | 5.5°C | 96.8% | 0hPa | 2.7V | 00:00:00 | 00:00:00 | 00:00:00 | |
| OE5WHR-10 | 2026-09-02 04:22:28 | 48.31562 | 15.69996 | 96° | 26km/h | 2232m | -3.8m/s | 5.6°C | 98.8% | 0hPa | 2.7V | 00:00:00 | 00:00:00 | 00:00:00 | |
| PG1ADW-2 | 2026-09-02 04:22:27 | 48.31562 | 15.69986 | 91° | 26km/h | 2236m | -3.5m/s | 5.6°C | 98.9% | 0hPa | 2.7V | 00:00:00 | 00:00:00 | 00:00:00 | |
| OE5DRO-10 | 2026-09-02 04:22:26 | 48.31562 | 15.69977 | 88° | 26km/h | 2239m | -3.5m/s | 5.6°C | 99.2% | 0hPa | 2.7V | 00:00:00 | 00:00:00 | 00:00:00 | |
| OE5WHR-10 | 2026-09-02 04:22:22 | 48.31562 | 15.69937 | 90° | 26km/h | 2253m | -3.6m/s | 5.5°C | 99.6% | 0hPa | 2.7V | 00:00:00 | 02:33:39 | 00:00:00 | |
| PETON7-10 | 2026-09-02 04:22:20 | 48.31562 | 15.69917 | 92° | 24km/h | 2260m | -3.5m/s | 5.5°C | 0% | 0hPa | 2.7V | 00:00:00 | 02:33:37 | 00:00:00 | |
| OE5DRO-10 | 2026-09-02 04:22:19 | 48.31563 | 15.69907 | 92° | 26km/h | 2263m | -3.9m/s | 5.4°C | 0% | 0hPa | 2.7V | 00:00:00 | 00:00:00 | 00:00:00 | |
| OE5WHR-10 | 2026-09-02 04:22:16 | 48.31563 | 15.69878 | 90° | 24km/h | 2274m | -3.4m/s | 5.4°C | 0% | 0hPa | 2.7V | 00:00:00 | 00:00:00 | 00:00:00 | |
| OE5DRO-10 | 2026-09-02 04:22:12 | 48.31562 | 15.69841 | 85° | 24km/h | 2287m | -2.7m/s | 5.4°C | 0% | 0hPa | 2.7V | 00:00:00 | 00:00:00 | 00:00:00 | |
| PG1ADW-2 | 2026-09-02 04:22:07 | 48.31560 | 15.69798 | 87° | 26km/h | 2302m | -3.7m/s | 5.4°C | 0% | 0hPa | 2.7V | 00:00:00 | 02:33:24 | 00:00:00 | |
| PETON7-10 | 2026-09-02 04:22:06 | 48.31559 | 15.69790 | 87° | 26km/h | 2306m | -4.0m/s | 5.4°C | 0% | 0hPa | 2.7V | 00:00:00 | 00:00:00 | 00:00:00 | |
| OE3JTB-15 | 2026-09-02 04:22:04 | 48.31559 | 15.69773 | 89° | 27km/h | 2313m | -3.4m/s | 5.3°C | 0% | 0hPa | 2.7V | 00:00:00 | 02:33:21 | 00:00:00 | |
| OE5WHR-10 | 2026-09-02 04:21:59 | 48.31562 | 15.69730 | 105° | 29km/h | 2331m | -3.6m/s | 5.2°C | 0% | 0hPa | 2.7V | 07:36:00 | 00:00:00 | 00:00:00 | |
| OE5DRO-10 | 2026-09-02 04:21:56 | 48.31567 | 15.69702 | 105° | 29km/h | 2341m | -3.1m/s | 5.1°C | 0% | 0hPa | 2.7V | 07:36:00 | 00:00:00 | 00:00:00 | |
| PETON7-10 | 2026-09-02 04:21:51 | 48.31577 | 15.69651 | 109° | 31km/h | 2358m | -3.4m/s | 5.0°C | 0% | 0hPa | 2.7V | 00:00:00 | 00:00:00 | 00:00:00 | |
| PG1ADW-2 | 2026-09-02 04:21:47 | 48.31586 | 15.69608 | 105° | 33km/h | 2371m | -2.9m/s | 4.9°C | 0% | 0hPa | 2.7V | 00:00:00 | 00:00:00 | 00:00:00 | |
| OE3JTB-15 | 2026-09-02 04:21:45 | 48.31590 | 15.69586 | 107° | 33km/h | 2377m | -3.3m/s | 4.8°C | 0% | 0hPa | 2.7V | 00:00:00 | 00:00:00 | 00:00:00 | |
| OE5WHR-10 | 2026-09-02 04:21:42 | 48.31595 | 15.69551 | 102° | 33km/h | 2387m | -3.7m/s | 4.7°C | 99.9% | 0hPa | 2.6V | 00:00:00 | 02:32:59 | 00:00:00 | |
| OE5DRO-10 | 2026-09-02 04:21:40 | 48.31599 | 15.69527 | 104° | 33km/h | 2395m | -3.5m/s | 4.6°C | 0% | 0hPa | 2.6V | 00:00:00 | 00:00:00 | 00:00:00 | |
| OM5KV | 2026-09-02 04:21:37 | 48.31602 | 15.69503 | 102° | 33km/h | 2401m | -3.3m/s | 4.6°C | 99.0% | 0hPa | 2.6V | 07:37:00 | 00:00:00 | 00:00:00 | |
| PETON7-10 | 2026-09-02 04:21:36 | 48.31604 | 15.69478 | 96° | 35km/h | 2408m | -3.5m/s | 4.5°C | 97.7% | 0hPa | 2.6V | 00:00:00 | 02:32:53 | 00:00:00 | |
| OE3OSB-13 | 2026-09-02 04:21:34 | 48.31606 | 15.69453 | 96° | 33km/h | 2415m | -3.6m/s | 4.5°C | 96.9% | -1.0hPa | 2.6V | 00:00:00 | 00:00:00 | 00:00:00 | |
| PG1ADW-2 | 2026-09-02 04:21:27 | 48.31611 | 15.69362 | 92° | 33km/h | 2440m | -3.8m/s | 4.4°C | 0% | 0hPa | 2.6V | 00:00:00 | 00:00:00 | 00:00:00 | |
| OE3JTB-15 | 2026-09-02 04:21:26 | 48.31611 | 15.69349 | 92° | 33km/h | 2444m | -3.6m/s | 4.3°C | 0% | 0hPa | 2.7V | 00:00:00 | 00:00:00 | 00:00:00 | |
| OE5WHR-10 | 2026-09-02 04:21:25 | 48.31611 | 15.69336 | 93° | 33km/h | 2447m | -3.5m/s | 4.3°C | 0% | 0hPa | 2.7V | 00:00:00 | 00:00:00 | 00:00:00 | |
| OE5DRO-10 | 2026-09-02 04:21:24 | 48.31611 | 15.69323 | 89° | 33km/h | 2451m | -3.7m/s | 4.2°C | 0% | 0hPa | 2.7V | 00:00:00 | 00:00:00 | 00:00:00 | |
| PETON7-10 | 2026-09-02 04:21:21 | 48.31610 | 15.69284 | 87° | 31km/h | 2461m | -3.5m/s | 4.3°C | 0% | 0hPa | 2.7V | 00:00:00 | 00:00:00 | 00:00:00 | |
| OM5KV | 2026-09-02 04:21:14 | 48.31606 | 15.69209 | 85° | 31km/h | 2482m | -3.6m/s | 4.1°C | 96.5% | 0hPa | 2.7V | 07:37:00 | 00:00:00 | 00:00:00 | |
| OE5WHR-10 | 2026-09-02 04:21:08 | 48.31598 | 15.69130 | 80° | 26km/h | 2505m | -3.6m/s | 3.9°C | 97.7% | 0hPa | 2.7V | 00:00:00 | 00:00:00 | 00:00:00 | |
| PG1ADW-2 | 2026-09-02 04:21:07 | 48.31597 | 15.69120 | 82° | 24km/h | 2509m | -3.6m/s | 3.8°C | 97.8% | 0hPa | 2.7V | 00:00:00 | 00:00:00 | 00:00:00 | |
| PETON7-10 | 2026-09-02 04:21:06 | 48.31596 | 15.69110 | 80° | 24km/h | 2512m | -3.4m/s | 3.8°C | 98.0% | 0hPa | 2.7V | 00:00:00 | 00:00:00 | 00:00:00 | |
| OE3OSB-13 | 2026-09-02 04:21:04 | 48.31593 | 15.69080 | 82° | 26km/h | 2523m | -3.0m/s | 3.8°C | 96.8% | -1.0hPa | 2.7V | 00:00:00 | 00:00:00 | 00:00:00 | |
| OM5KV | 2026-09-02 04:20:54 | 48.31591 | 15.69007 | 97° | 22km/h | 2551m | -3.6m/s | 3.6°C | 95.3% | 0hPa | 2.7V | 07:37:00 | 00:00:00 | 00:00:00 | |
| OE5DRO-10 | 2026-09-02 04:20:52 | 48.31593 | 15.68980 | 96° | 27km/h | 2561m | -3.7m/s | 3.4°C | 96.5% | 0hPa | 2.7V | 00:00:00 | 00:00:00 | 00:00:00 | |
| OE3JTB-15 | 2026-09-02 04:20:48 | 48.31597 | 15.68944 | 103° | 31km/h | 2575m | -3.4m/s | 3.3°C | 95.9% | 0hPa | 2.7V | 00:00:00 | 00:00:00 | 00:00:00 | |
| PG1ADW-2 | 2026-09-02 04:20:47 | 48.31598 | 15.68935 | 103° | 31km/h | 2579m | -3.6m/s | 3.3°C | 95.3% | 0hPa | 2.7V | 00:00:00 | 02:32:04 | 00:00:00 | |
| OM5KV | 2026-09-02 04:20:41 | 48.31607 | 15.68885 | 108° | 29km/h | 2596m | -3.4m/s | 3.3°C | 92.5% | 0hPa | 2.7V | 07:38:00 | 00:00:00 | 00:00:00 | |
| PETON7-10 | 2026-09-02 04:20:36 | 48.31618 | 15.68815 | 103° | 35km/h | 2617m | -3.7m/s | 3.1°C | 94.0% | 0hPa | 2.7V | 00:00:00 | 00:00:00 | 00:00:00 | |
| OE5WHR-10 | 2026-09-02 04:20:34 | 48.31621 | 15.68790 | 102° | 35km/h | 2625m | -4.1m/s | 3.0°C | 94.3% | 0hPa | 2.6V | 00:00:00 | 00:00:00 | 00:00:00 | |
| OE3OSB-13 | 2026-09-02 04:20:33 | 48.31624 | 15.68765 | 99° | 33km/h | 2632m | -4.2m/s | 3.0°C | 92.6% | -1.0hPa | 2.7V | 00:00:00 | 00:00:00 | 00:00:00 | |
| OE3JTB-15 | 2026-09-02 04:20:29 | 48.31629 | 15.68727 | 98° | 35km/h | 2644m | -3.3m/s | 2.9°C | 94.1% | 0hPa | 2.7V | 00:00:00 | 00:00:00 | 00:00:00 | |
| PG1ADW-2 | 2026-09-02 04:20:27 | 48.31631 | 15.68701 | 99° | 35km/h | 2651m | -4.2m/s | 2.8°C | 94.4% | 0hPa | 2.7V | 00:00:00 | 00:00:00 | 00:00:00 | |
| OM5KV | 2026-09-02 04:20:24 | 48.31633 | 15.68675 | 99° | 35km/h | 2659m | -4.1m/s | 2.9°C | 92.6% | 0hPa | 2.7V | 07:38:00 | 00:00:00 | 00:00:00 | |
| PETON7-10 | 2026-09-02 04:20:21 | 48.31638 | 15.68623 | 97° | 37km/h | 2674m | -3.5m/s | 2.7°C | 91.4% | 0hPa | 2.7V | 00:00:00 | 00:00:00 | 00:00:00 | |
| OE5DRO-10 | 2026-09-02 04:20:20 | 48.31638 | 15.68610 | 97° | 37km/h | 2677m | -4.0m/s | 2.7°C | 91.1% | 0hPa | 2.7V | 00:00:00 | 00:00:00 | 00:00:00 | |
| OM5KV | 2026-09-02 04:20:18 | 48.31639 | 15.68597 | 97° | 35km/h | 2681m | -3.7m/s | 2.7°C | 90.0% | 0hPa | 2.7V | 07:38:00 | 00:00:00 | 00:00:00 | |
| OE5WHR-10 | 2026-09-02 04:20:17 | 48.31641 | 15.68570 | 96° | 37km/h | 2689m | -3.7m/s | 2.6°C | 91.0% | 0hPa | 2.7V | 00:00:00 | 00:00:00 | 00:00:00 | |
| OE3JTB-15 | 2026-09-02 04:20:10 | 48.31647 | 15.68475 | 93° | 38km/h | 2714m | -3.4m/s | 2.4°C | 92.7% | 0hPa | 2.7V | 00:00:00 | 02:31:27 | 00:00:00 | |
| PG1ADW-2 | 2026-09-02 04:20:07 | 48.31649 | 15.68433 | 93° | 38km/h | 2724m | -3.6m/s | 2.3°C | 92.0% | 0hPa | 2.7V | 07:38:00 | 00:00:00 | 00:00:00 | |
| PETON7-10 | 2026-09-02 04:20:06 | 48.31650 | 15.68419 | 94° | 38km/h | 2728m | -3.6m/s | 2.3°C | 90.2% | 0hPa | 2.7V | 00:00:00 | 02:31:23 | 00:00:00 | |
| OE5DRO-10 | 2026-09-02 04:20:04 | 48.31650 | 15.68390 | 91° | 38km/h | 2735m | -3.8m/s | 2.3°C | 88.4% | 0hPa | 2.7V | 00:00:00 | 00:00:00 | 00:00:00 | |
| OE3OSB-13 | 2026-09-02 04:20:01 | 48.31650 | 15.68347 | 87° | 37km/h | 2745m | -3.6m/s | 2.4°C | 86.0% | -1.0hPa | 2.7V | 00:00:00 | 00:00:00 | 00:00:00 | |
| OE5WHR-10 | 2026-09-02 04:20:00 | 48.31649 | 15.68332 | 89° | 37km/h | 2749m | -3.7m/s | 2.3°C | 87.0% | 0hPa | 2.7V | 00:00:00 | 02:31:17 | 00:00:00 | |
| PETON7-10 | 2026-09-02 04:19:51 | 48.31642 | 15.68202 | 81° | 35km/h | 2778m | -3.6m/s | 2.1°C | 88.2% | 0hPa | 2.7V | 00:00:00 | 00:00:00 | 00:00:00 | |
| OE5DRO-10 | 2026-09-02 04:19:48 | 48.31637 | 15.68161 | 81° | 33km/h | 2789m | -3.6m/s | 2.0°C | 91.6% | 0hPa | 2.6V | 07:38:00 | 00:00:00 | 00:00:00 | |
| PG1ADW-2 | 2026-09-02 04:19:47 | 48.31636 | 15.68147 | 80° | 33km/h | 2793m | -3.7m/s | 2.0°C | 92.3% | 0hPa | 2.6V | 00:00:00 | 00:00:00 | 00:00:00 | |
| OE5WHR-10 | 2026-09-02 04:19:43 | 48.31628 | 15.68095 | 80° | 31km/h | 2807m | -3.4m/s | 2.0°C | 90.0% | 0hPa | 2.6V | 07:38:00 | 00:00:00 | 00:00:00 | |
| PETON7-10 | 2026-09-02 04:19:36 | 48.31616 | 15.68010 | 77° | 29km/h | 2831m | -3.3m/s | 1.9°C | 88.0% | 0hPa | 2.6V | 00:00:00 | 00:00:00 | 00:00:00 | |
| OM5KV | 2026-09-02 04:19:34 | 48.31614 | 15.67999 | 78° | 33km/h | 2835m | -3.3m/s | 1.9°C | 86.7% | 0hPa | 2.6V | 07:39:00 | 00:00:00 | 00:00:00 | |
| OE3JTB-15 | 2026-09-02 04:19:32 | 48.31609 | 15.67964 | 83° | 27km/h | 2845m | -3.6m/s | 1.8°C | 87.7% | 0hPa | 2.6V | 00:00:00 | 00:00:00 | 00:00:00 | |
| OE3OSB-13 | 2026-09-02 04:19:30 | 48.31607 | 15.67942 | 81° | 29km/h | 2852m | -3.9m/s | 1.9°C | 84.3% | -1.0hPa | 2.6V | 00:00:00 | 00:00:00 | 00:00:00 | |
| PG1ADW-2 | 2026-09-02 04:19:27 | 48.31603 | 15.67909 | 77° | 27km/h | 2864m | -3.7m/s | 1.8°C | 85.1% | 0hPa | 2.6V | 00:00:00 | 02:30:44 | 00:00:00 | |
| OE5WHR-10 | 2026-09-02 04:19:26 | 48.31601 | 15.67898 | 79° | 27km/h | 2868m | -3.7m/s | 1.7°C | 85.4% | 0hPa | 2.7V | 00:00:00 | 00:00:00 | 00:00:00 | |
| PETON7-10 | 2026-09-02 04:19:21 | 48.31597 | 15.67845 | 83° | 27km/h | 2886m | -3.8m/s | 1.5°C | 87.9% | 0hPa | 2.7V | 00:00:00 | 02:30:38 | 00:00:00 | |
| OE5DRO-10 | 2026-09-02 04:19:16 | 48.31593 | 15.67793 | 86° | 26km/h | 2903m | -3.8m/s | 1.4°C | 83.9% | 0hPa | 2.7V | 00:00:00 | 00:00:00 | 00:00:00 | |
| OE3JTB-15 | 2026-09-02 04:19:13 | 48.31591 | 15.67764 | 85° | 27km/h | 2915m | -3.7m/s | 1.4°C | 85.5% | 0hPa | 2.7V | 00:00:00 | 02:30:30 | 00:00:00 | |
| OM5KV | 2026-09-02 04:19:11 | 48.31590 | 15.67754 | 88° | 26km/h | 2918m | -3.3m/s | 1.4°C | 86.0% | 0hPa | 2.7V | 07:39:00 | 00:00:00 | 00:00:00 | |
| OE5WHR-10 | 2026-09-02 04:19:09 | 48.31590 | 15.67724 | 89° | 27km/h | 2929m | -4.3m/s | 1.2°C | 88.9% | 0hPa | 2.7V | 00:00:00 | 02:30:26 | 00:00:00 | |
| PG1ADW-2 | 2026-09-02 04:19:07 | 48.31590 | 15.67704 | 87° | 27km/h | 2937m | -3.6m/s | 1.1°C | 91.9% | 0hPa | 2.7V | 00:00:00 | 00:00:00 | 00:00:00 | |
| PETON7-10 | 2026-09-02 04:19:06 | 48.31590 | 15.67694 | 89° | 27km/h | 2940m | -3.3m/s | 1.1°C | 91.7% | 0hPa | 2.7V | 00:00:00 | 00:00:00 | 00:00:00 | |
| OM5KV | 2026-09-02 04:19:05 | 48.31590 | 15.67694 | 89° | 27km/h | 2940m | -3.3m/s | 1.2°C | 90.4% | 0hPa | 2.7V | 07:39:00 | 00:00:00 | 00:00:00 | |
| OE3OSB-13 | 2026-09-02 04:18:59 | 48.31591 | 15.67624 | 92° | 26km/h | 2967m | -4.2m/s | 0.9°C | 92.4% | -1.0hPa | 2.7V | 00:00:00 | 00:00:00 | 00:00:00 | |
| OE3JTB-15 | 2026-09-02 04:18:54 | 48.31593 | 15.67573 | 97° | 31km/h | 2986m | -4.1m/s | 0.7°C | 94.8% | 0hPa | 2.7V | 00:00:00 | 00:00:00 | 00:00:00 | |
| OE5WHR-10 | 2026-09-02 04:18:52 | 48.31595 | 15.67552 | 96° | 33km/h | 2994m | -4.0m/s | 0.6°C | 95.1% | 0hPa | 2.7V | 00:00:00 | 00:00:00 | 00:00:00 | |
| PETON7-10 | 2026-09-02 04:18:51 | 48.31595 | 15.67541 | 98° | 33km/h | 2998m | -3.9m/s | 0.6°C | 95.3% | 0hPa | 2.6V | 07:39:00 | 00:00:00 | 00:00:00 | |
| OM5KV | 2026-09-02 04:18:48 | 48.31597 | 15.67520 | 103° | 29km/h | 3006m | -3.4m/s | 0.6°C | 94.1% | 0hPa | 2.6V | 07:39:00 | 00:00:00 | 00:00:00 | |
| PG1ADW-2 | 2026-09-02 04:18:47 | 48.31600 | 15.67497 | 98° | 35km/h | 3012m | -3.5m/s | 0.4°C | 95.9% | 0hPa | 2.6V | 00:00:00 | 00:00:00 | 00:00:00 | |
| OE5DRO-10 | 2026-09-02 04:18:44 | 48.31604 | 15.67461 | 101° | 35km/h | 3023m | -3.4m/s | 0.3°C | 96.4% | 0hPa | 2.6V | 00:00:00 | 00:00:00 | 00:00:00 | |
| OM5KV | 2026-09-02 04:18:42 | 48.31605 | 15.67449 | 99° | 33km/h | 3026m | -3.3m/s | 0.4°C | 95.1% | 0hPa | 2.6V | 07:39:00 | 00:00:00 | 00:00:00 | |
| PETON7-10 | 2026-09-02 04:18:36 | 48.31614 | 15.67357 | 99° | 37km/h | 3052m | -3.9m/s | 0.1°C | 97.1% | 0hPa | 2.6V | 00:00:00 | 02:29:53 | 00:00:00 | |
| OE5WHR-10 | 2026-09-02 04:18:35 | 48.31615 | 15.67343 | 97° | 37km/h | 3055m | -4.1m/s | 0.1°C | 97.2% | 0hPa | 2.6V | 00:00:00 | 00:00:00 | 00:00:00 | |
| OM5KV | 2026-09-02 04:18:30 | 48.31618 | 15.67290 | 94° | 37km/h | 3071m | -3.6m/s | 0.1°C | 95.6% | 0hPa | 2.6V | 07:39:00 | 00:00:00 | 00:00:00 | |
| OE5DRO-10 | 2026-09-02 04:18:28 | 48.31620 | 15.67249 | 92° | 37km/h | 3082m | -3.6m/s | 0.0°C | 95.0% | 0hPa | 2.6V | 00:00:00 | 00:00:00 | 00:00:00 | |
| PG1ADW-2 | 2026-09-02 04:18:27 | 48.31620 | 15.67235 | 93° | 37km/h | 3086m | -3.7m/s | 0.0°C | 93.8% | 0hPa | 2.6V | 00:00:00 | 00:00:00 | 00:00:00 | |
| PETON7-10 | 2026-09-02 04:18:21 | 48.31622 | 15.67154 | 90° | 37km/h | 3108m | -3.8m/s | -0.0°C | 90.0% | 0hPa | 2.7V | 00:00:00 | 00:00:00 | 00:00:00 | |
| OE5WHR-10 | 2026-09-02 04:18:18 | 48.31621 | 15.67113 | 88° | 35km/h | 3119m | -3.7m/s | -0.1°C | 90.4% | 0hPa | 2.7V | 00:00:00 | 02:29:35 | 00:00:00 | |
| OE3JTB-15 | 2026-09-02 04:18:16 | 48.31620 | 15.67085 | 87° | 33km/h | 3126m | -4.0m/s | -0.1°C | 89.6% | 0hPa | 2.7V | 00:00:00 | 02:29:33 | 00:00:00 | |
| OE5DRO-10 | 2026-09-02 04:18:12 | 48.31617 | 15.67030 | 83° | 33km/h | 3141m | -3.6m/s | -0.3°C | 90.4% | 0hPa | 2.7V | 00:00:00 | 00:00:00 | 00:00:00 | |
| PG1ADW-2 | 2026-09-02 04:18:07 | 48.31610 | 15.66964 | 79° | 29km/h | 3159m | -3.9m/s | -0.4°C | 91.3% | 0hPa | 2.7V | 00:00:00 | 02:29:24 | 00:00:00 | |
| PETON7-10 | 2026-09-02 04:18:06 | 48.31608 | 15.66952 | 81° | 31km/h | 3163m | -3.8m/s | -0.5°C | 91.5% | 0hPa | 2.7V | 00:00:00 | 00:00:00 | 00:00:00 | |
| OE5WHR-10 | 2026-09-02 04:18:00 | 48.31597 | 15.66882 | 79° | 27km/h | 3186m | -3.8m/s | -0.7°C | 92.1% | 0hPa | 2.7V | 00:00:00 | 00:00:00 | 00:00:00 | |
| OE3JTB-15 | 2026-09-02 04:17:57 | 48.31591 | 15.66849 | 78° | 27km/h | 3198m | -4.0m/s | -0.8°C | 92.8% | 0hPa | 2.7V | 00:00:00 | 00:00:00 | 00:00:00 | |
| PETON7-10 | 2026-09-02 04:17:51 | 48.31580 | 15.66786 | 77° | 26km/h | 3219m | -3.2m/s | -1.0°C | 94.0% | 0hPa | 2.7V | 00:00:00 | 02:29:08 | 00:00:00 | |
| PG1ADW-2 | 2026-09-02 04:17:47 | 48.31576 | 15.66745 | 86° | 27km/h | 3232m | -3.7m/s | -1.2°C | 95.5% | 0hPa | 2.7V | 00:00:00 | 00:00:00 | 00:00:00 | |
| OE5WHR-10 | 2026-09-02 04:17:43 | 48.31575 | 15.66705 | 87° | 27km/h | 3247m | -3.8m/s | -1.4°C | 97.0% | 0hPa | 2.7V | 00:00:00 | 00:00:00 | 00:00:00 | |
| OE5DRO-10 | 2026-09-02 04:17:40 | 48.31574 | 15.66676 | 93° | 27km/h | 3258m | -4.2m/s | -1.5°C | 97.6% | 0hPa | 2.7V | 07:40:00 | 00:00:00 | 00:00:00 | |
| OE3JTB-15 | 2026-09-02 04:17:38 | 48.31574 | 15.66656 | 91° | 27km/h | 3267m | -4.2m/s | -1.6°C | 98.2% | 0hPa | 2.7V | 00:00:00 | 00:00:00 | 00:00:00 | |
| PG1ADW-2 | 2026-09-02 04:17:27 | 48.31580 | 15.66543 | 98° | 29km/h | 3306m | -3.8m/s | -1.9°C | 99.7% | 0hPa | 2.7V | 07:40:00 | 00:00:00 | 00:00:00 | |
| OE5WHR-10 | 2026-09-02 04:17:26 | 48.31582 | 15.66533 | 101° | 29km/h | 3310m | -3.7m/s | -2.0°C | 0% | 0hPa | 2.6V | 07:40:00 | 02:28:43 | 00:00:00 | |
| OE5DRO-10 | 2026-09-02 04:17:24 | 48.31584 | 15.66512 | 100° | 29km/h | 3318m | -4.1m/s | -2.0°C | 0% | 0hPa | 2.6V | 00:00:00 | 00:00:00 | 00:00:00 | |
| PETON7-10 | 2026-09-02 04:17:21 | 48.31587 | 15.66481 | 95° | 29km/h | 3330m | -4.0m/s | -2.1°C | 0% | 0hPa | 2.6V | 00:00:00 | 00:00:00 | 00:00:00 | |
| OE3JTB-15 | 2026-09-02 04:17:19 | 48.31588 | 15.66459 | 101° | 27km/h | 3338m | -3.9m/s | -2.2°C | 0% | 0hPa | 2.6V | 00:00:00 | 02:28:36 | 00:00:00 | |
| OM5KV | 2026-09-02 04:17:11 | 48.31594 | 15.66383 | 99° | 29km/h | 3369m | -5.1m/s | -2.4°C | 99.4% | 0hPa | 2.6V | 07:41:00 | 00:00:00 | 00:00:00 | |
| OE5WHR-10 | 2026-09-02 04:17:09 | 48.31597 | 15.66351 | 97° | 27km/h | 3383m | -4.0m/s | -2.4°C | 0% | 0hPa | 2.6V | 00:00:00 | 00:00:00 | 00:00:00 | |
| OE5DRO-10 | 2026-09-02 04:17:08 | 48.31598 | 15.66340 | 104° | 27km/h | 3388m | -4.6m/s | -2.5°C | 0% | 0hPa | 2.7V | 00:00:00 | 00:00:00 | 00:00:00 | |
| PG1ADW-2 | 2026-09-02 04:17:07 | 48.31599 | 15.66330 | 98° | 27km/h | 3392m | -4.7m/s | -2.5°C | 0% | 0hPa | 2.7V | 00:00:00 | 00:00:00 | 00:00:00 | |
| PETON7-10 | 2026-09-02 04:17:06 | 48.31601 | 15.66319 | 103° | 27km/h | 3397m | -4.5m/s | -2.6°C | 0% | 0hPa | 2.7V | 00:00:00 | 02:28:23 | 00:00:00 | |
| OM5KV | 2026-09-02 04:17:03 | 48.31603 | 15.66299 | 100° | 27km/h | 3405m | -3.7m/s | -2.7°C | 0% | 0hPa | 2.7V | 07:41:00 | 00:00:00 | 00:00:00 | |
| OM5KV | 2026-09-02 04:16:57 | 48.31609 | 15.66239 | 101° | 26km/h | 3429m | -4.1m/s | -2.9°C | 99.9% | 0hPa | 2.7V | 07:41:00 | 00:00:00 | 00:00:00 | |
| OM5KV | 2026-09-02 04:16:55 | 48.31613 | 15.66210 | 101° | 26km/h | 3440m | -4.0m/s | -2.5°C | 86.7% | 0hPa | 2.7V | 07:41:00 | 00:00:00 | 00:00:00 | |
| OE5WHR-10 | 2026-09-02 04:16:52 | 48.31617 | 15.66181 | 110° | 31km/h | 3452m | -4.0m/s | -2.4°C | 82.5% | 0hPa | 2.7V | 00:00:00 | 00:00:00 | 00:00:00 | |
| OM5KV | 2026-09-02 04:16:49 | 48.31621 | 15.66162 | 108° | 27km/h | 3461m | -4.1m/s | -2.5°C | 83.1% | 0hPa | 2.7V | 07:41:00 | 00:00:00 | 00:00:00 | |
| PG1ADW-2 | 2026-09-02 04:16:47 | 48.31628 | 15.66131 | 111° | 33km/h | 3473m | -4.0m/s | -2.3°C | 78.3% | 0hPa | 2.7V | 00:00:00 | 02:28:04 | 00:00:00 | |
| OM5KV | 2026-09-02 04:16:43 | 48.31636 | 15.66100 | 113° | 31km/h | 3485m | -4.0m/s | -2.3°C | 72.5% | 0hPa | 2.7V | 07:41:00 | 00:00:00 | 00:00:00 | |
| PETON7-10 | 2026-09-02 04:16:36 | 48.31664 | 15.66011 | 115° | 37km/h | 3515m | -3.1m/s | -0.6°C | 40.0% | 0hPa | 2.7V | 00:00:00 | 00:00:00 | 00:00:00 | |
| OE5WHR-10 | 2026-09-02 04:16:35 | 48.31667 | 15.65999 | 114° | 38km/h | 3518m | -3.1m/s | -0.5°C | 39.4% | 0hPa | 2.7V | 00:00:00 | 02:27:52 | 00:00:00 | |
| OM5KV | 2026-09-02 04:16:30 | 48.31681 | 15.65948 | 113° | 37km/h | 3531m | -3.4m/s | -0.5°C | 38.0% | 0hPa | 2.7V | 07:42:00 | 00:00:00 | 00:00:00 | |
| PG1ADW-2 | 2026-09-02 04:16:27 | 48.31695 | 15.65896 | 111° | 37km/h | 3544m | -3.2m/s | -0.6°C | 39.3% | 0hPa | 2.7V | 00:00:00 | 00:00:00 | 00:00:00 | |
| OE3JTB-15 | 2026-09-02 04:16:26 | 48.31698 | 15.65882 | 111° | 37km/h | 3547m | -3.1m/s | -0.6°C | 39.4% | 0hPa | 2.7V | 00:00:00 | 00:00:00 | 00:00:00 | |
| OE3OSB-13 | 2026-09-02 04:16:24 | 48.31708 | 15.65841 | 108° | 38km/h | 3556m | -3.4m/s | -0.7°C | 39.1% | -1.0hPa | 2.7V | 00:00:00 | 00:00:00 | 00:00:00 | |
| PETON7-10 | 2026-09-02 04:16:21 | 48.31714 | 15.65813 | 108° | 37km/h | 3563m | -3.1m/s | -0.7°C | 40.0% | 0hPa | 2.7V | 00:00:00 | 02:27:38 | 00:00:00 | |
| OE5DRO-10 | 2026-09-02 04:16:20 | 48.31716 | 15.65799 | 107° | 37km/h | 3566m | -3.1m/s | -0.8°C | 39.9% | 0hPa | 2.7V | 00:00:00 | 00:00:00 | 00:00:00 | |
| OM5KV | 2026-09-02 04:16:18 | 48.31719 | 15.65785 | 106° | 38km/h | 3569m | -3.2m/s | -0.9°C | 39.5% | 0hPa | 2.7V | 07:42:00 | 00:00:00 | 00:00:00 | |
| OM5KV | 2026-09-02 04:16:12 | 48.31731 | 15.65703 | 102° | 37km/h | 3590m | -3.7m/s | -1.1°C | 41.3% | 0hPa | 2.7V | 07:42:00 | 00:00:00 | 00:00:00 | |
| PG1ADW-2 | 2026-09-02 04:16:07 | 48.31742 | 15.65623 | 102° | 31km/h | 3613m | -3.8m/s | -1.2°C | 43.0% | 0hPa | 2.7V | 00:00:00 | 00:00:00 | 00:00:00 | |
| PETON7-10 | 2026-09-02 04:16:06 | 48.31743 | 15.65610 | 100° | 31km/h | 3617m | -3.9m/s | -1.2°C | 43.5% | 0hPa | 2.7V | 00:00:00 | 00:00:00 | 00:00:00 | |
| OE5DRO-10 | 2026-09-02 04:16:04 | 48.31747 | 15.65584 | 103° | 31km/h | 3625m | -4.1m/s | -1.2°C | 43.0% | 0hPa | 2.6V | 00:00:00 | 00:00:00 | 00:00:00 | |
| OE3OSB-13 | 2026-09-02 04:15:53 | 48.31768 | 15.65444 | 100° | 27km/h | 3672m | -4.0m/s | -1.5°C | 41.9% | -1.0hPa | 2.7V | 00:00:00 | 00:00:00 | 00:00:00 | |
| OM5KV | 2026-09-02 04:15:52 | 48.31767 | 15.65455 | 102° | 29km/h | 3668m | -4.2m/s | -1.5°C | 41.9% | 0hPa | 2.7V | 07:42:00 | 00:00:00 | 00:00:00 | |
| PETON7-10 | 2026-09-02 04:15:51 | 48.31769 | 15.65434 | 104° | 27km/h | 3676m | -3.8m/s | -1.5°C | 42.9% | 0hPa | 2.7V | 00:00:00 | 00:00:00 | 00:00:00 | |
| OE5DRO-10 | 2026-09-02 04:15:48 | 48.31774 | 15.65402 | 105° | 27km/h | 3687m | -4.0m/s | -1.6°C | 43.5% | 0hPa | 2.7V | 00:00:00 | 00:00:00 | 00:00:00 | |
| PG1ADW-2 | 2026-09-02 04:15:47 | 48.31776 | 15.65392 | 104° | 27km/h | 3691m | -3.6m/s | -1.6°C | 43.6% | 0hPa | 2.7V | 00:00:00 | 00:00:00 | 00:00:00 | |
| OE5WHR-10 | 2026-09-02 04:15:44 | 48.31782 | 15.65362 | 108° | 27km/h | 3702m | -4.3m/s | -1.7°C | 44.1% | 0hPa | 2.7V | 00:00:00 | 02:27:01 | 00:00:00 | |
| PETON7-10 | 2026-09-02 04:15:36 | 48.31801 | 15.65288 | 115° | 29km/h | 3735m | -4.2m/s | -1.9°C | 44.3% | 0hPa | 2.7V | 00:00:00 | 02:26:53 | 00:00:00 | |
| OM5KV | 2026-09-02 04:15:33 | 48.31807 | 15.65270 | 118° | 27km/h | 3743m | -4.4m/s | -2.0°C | 43.7% | 0hPa | 2.7V | 00:00:00 | 00:00:00 | 00:00:00 | |
| OE5DRO-10 | 2026-09-02 04:15:32 | 48.31813 | 15.65252 | 116° | 29km/h | 3751m | -4.2m/s | -2.0°C | 44.5% | 0hPa | 2.7V | 07:42:00 | 00:00:00 | 00:00:00 | |
| OE3JTB-15 | 2026-09-02 04:15:28 | 48.31827 | 15.65215 | 119° | 35km/h | 3769m | -4.8m/s | -2.2°C | 44.8% | 0hPa | 2.7V | 07:42:00 | 00:00:00 | 00:00:00 | |
| PG1ADW-2 | 2026-09-02 04:15:27 | 48.31830 | 15.65205 | 122° | 33km/h | 3773m | -4.4m/s | -2.2°C | 44.8% | 0hPa | 2.7V | 00:00:00 | 02:26:44 | 00:00:00 | |
| OE3OSB-13 | 2026-09-02 04:15:22 | 48.31855 | 15.65147 | 123° | 29km/h | 3800m | -4.6m/s | -2.4°C | 43.7% | -1.0hPa | 2.7V | 00:00:00 | 00:00:00 | 00:00:00 | |
| PETON7-10 | 2026-09-02 04:15:21 | 48.31855 | 15.65147 | 124° | 33km/h | 3800m | -4.6m/s | -2.4°C | 44.6% | 0hPa | 2.7V | 00:00:00 | 00:00:00 | 00:00:00 | |
| OE5DRO-10 | 2026-09-02 04:15:16 | 48.31877 | 15.65097 | 123° | 37km/h | 3822m | -4.7m/s | -2.6°C | 45.2% | 0hPa | 2.7V | 00:00:00 | 00:00:00 | 00:00:00 | |
| OE5WHR-10 | 2026-09-02 04:15:10 | 48.31905 | 15.65032 | 122° | 38km/h | 3849m | -4.6m/s | -2.7°C | 45.8% | 0hPa | 2.6V | 07:43:00 | 00:00:00 | 00:00:00 | |
| PG1ADW-2 | 2026-09-02 04:15:07 | 48.31919 | 15.64995 | 122° | 38km/h | 3862m | -4.6m/s | -2.8°C | 45.9% | 0hPa | 2.6V | 00:00:00 | 00:00:00 | 00:00:00 | |
| PETON7-10 | 2026-09-02 04:15:06 | 48.31924 | 15.64983 | 121° | 38km/h | 3867m | -4.4m/s | -2.9°C | 45.9% | 0hPa | 2.6V | 00:00:00 | 00:00:00 | 00:00:00 | |
| OE5DRO-10 | 2026-09-02 04:15:00 | 48.31952 | 15.64906 | 118° | 38km/h | 3894m | -4.7m/s | -2.9°C | 43.7% | 0hPa | 2.6V | 00:00:00 | 00:00:00 | 00:00:00 | |
| OE3JTB-15 | 2026-09-02 04:14:59 | 48.31956 | 15.64892 | 116° | 35km/h | 3899m | -4.0m/s | -2.9°C | 43.7% | 0hPa | 2.6V | 00:00:00 | 00:00:00 | 00:00:00 | |
| OE5DXL-15 | 2026-09-02 04:14:57 | 48.31964 | 15.64866 | 115° | 29km/h | 3908m | -4.2m/s | -3.0°C | 43.7% | 0hPa | 2.6V | 00:00:00 | 00:00:00 | 00:00:00 | |
| OM5KV | 2026-09-02 04:14:54 | 48.31973 | 15.64839 | 114° | 38km/h | 3916m | -4.6m/s | -3.1°C | 42.6% | 0hPa | 2.6V | 07:43:00 | 00:00:00 | 00:00:00 | |
| OE5WHR-10 | 2026-09-02 04:14:53 | 48.31980 | 15.64812 | 112° | 37km/h | 3925m | -4.4m/s | -3.1°C | 43.1% | 0hPa | 2.6V | 00:00:00 | 02:26:10 | 00:00:00 | |
| PETON7-10 | 2026-09-02 04:14:51 | 48.31987 | 15.64785 | 112° | 35km/h | 3934m | -4.5m/s | -3.1°C | 41.1% | 0hPa | 2.6V | 07:43:00 | 02:26:08 | 00:00:00 | |
| OM5KV | 2026-09-02 04:14:48 | 48.31993 | 15.64758 | 108° | 38km/h | 3943m | -4.6m/s | -3.2°C | 40.6% | 0hPa | 2.6V | 07:44:00 | 00:00:00 | 00:00:00 | |
| PG1ADW-2 | 2026-09-02 04:14:47 | 48.31999 | 15.64730 | 107° | 31km/h | 3951m | -4.5m/s | -3.3°C | 41.6% | 0hPa | 2.6V | 07:43:00 | 00:00:00 | 00:00:00 | |
| OE5DRO-10 | 2026-09-02 04:14:44 | 48.32006 | 15.64691 | 108° | 31km/h | 3965m | -4.6m/s | -3.4°C | 41.8% | 0hPa | 2.6V | 00:00:00 | 00:00:00 | 00:00:00 | |
| OM5KV | 2026-09-02 04:14:40 | 48.32013 | 15.64652 | 104° | 35km/h | 3978m | -4.2m/s | -3.4°C | 39.2% | 0hPa | 2.6V | 07:44:00 | 00:00:00 | 00:00:00 | |
| OM5KV | 2026-09-02 04:14:38 | 48.32017 | 15.64627 | 105° | 33km/h | 3987m | -4.5m/s | -3.4°C | 37.2% | 0hPa | 2.6V | 07:44:00 | 00:00:00 | 00:00:00 | |
| OE5WHR-10 | 2026-09-02 04:14:36 | 48.32023 | 15.64592 | 105° | 27km/h | 4000m | -4.5m/s | -3.4°C | 36.2% | 0hPa | 2.6V | 00:00:00 | 00:00:00 | 00:00:00 | |
| OM5KV | 2026-09-02 04:14:34 | 48.32025 | 15.64581 | 105° | 29km/h | 4004m | -4.7m/s | -3.5°C | 35.3% | 0hPa | 2.7V | 07:44:00 | 00:00:00 | 00:00:00 | |
| OE3JTB-15 | 2026-09-02 04:14:30 | 48.32035 | 15.64529 | 108° | 33km/h | 4026m | -4.2m/s | -3.4°C | 28.9% | 0hPa | 2.7V | 00:00:00 | 02:25:47 | 00:00:00 | |
| OE5DRO-10 | 2026-09-02 04:14:28 | 48.32039 | 15.64510 | 110° | 29km/h | 4035m | -4.3m/s | -3.5°C | 28.3% | 0hPa | 2.7V | 00:00:00 | 00:00:00 | 00:00:00 | |
| PG1ADW-2 | 2026-09-02 04:14:27 | 48.32041 | 15.64500 | 111° | 31km/h | 4039m | -4.5m/s | -3.5°C | 27.0% | 0hPa | 2.7V | 00:00:00 | 00:00:00 | 00:00:00 | |
| OM5KV | 2026-09-02 04:14:25 | 48.32044 | 15.64491 | 113° | 26km/h | 4043m | -4.7m/s | -3.5°C | 26.3% | 0hPa | 2.7V | 07:44:00 | 00:00:00 | 00:00:00 | |
| PETON7-10 | 2026-09-02 04:14:21 | 48.32059 | 15.64447 | 121° | 33km/h | 4065m | -4.3m/s | -3.6°C | 25.8% | 0hPa | 2.7V | 00:00:00 | 00:00:00 | 00:00:00 | |
| OE3OSB-13 | 2026-09-02 04:14:20 | 48.32067 | 15.64429 | 122° | 27km/h | 4074m | -4.4m/s | -3.7°C | 24.8% | -1.0hPa | 2.7V | 00:00:00 | 00:00:00 | 00:00:00 | |
| OE5WHR-10 | 2026-09-02 04:14:19 | 48.32067 | 15.64429 | 123° | 35km/h | 4074m | -4.3m/s | -3.7°C | 25.4% | 0hPa | 2.7V | 00:00:00 | 00:00:00 | 00:00:00 | |
| OM5KV | 2026-09-02 04:14:15 | 48.32080 | 15.64402 | 128° | 31km/h | 4087m | -4.3m/s | -3.8°C | 25.1% | 0hPa | 2.7V | 07:44:00 | 00:00:00 | 00:00:00 | |
| OE5DXL-15 | 2026-09-02 04:14:12 | 48.32099 | 15.64362 | 125° | 38km/h | 4104m | -4.1m/s | -3.9°C | 25.6% | 0hPa | 2.7V | 07:44:00 | 00:00:00 | 00:00:00 | |
| PG1ADW-2 | 2026-09-02 04:14:07 | 48.32125 | 15.64306 | 122° | 40km/h | 4126m | -4.5m/s | -4.0°C | 23.8% | 0hPa | 2.7V | 00:00:00 | 02:25:24 | 00:00:00 | |
| PETON7-10 | 2026-09-02 04:14:06 | 48.32130 | 15.64293 | 121° | 38km/h | 4131m | -4.5m/s | -4.0°C | 23.7% | 0hPa | 2.7V | 00:00:00 | 02:25:23 | 00:00:00 | |
| OM5KV | 2026-09-02 04:14:05 | 48.32130 | 15.64293 | 122° | 38km/h | 4131m | -4.5m/s | -4.1°C | 23.1% | 0hPa | 2.7V | 07:44:00 | 00:00:00 | 00:00:00 | |
| OE3OSB-13 | 2026-09-02 04:13:49 | 48.32215 | 15.64057 | 112° | 40km/h | 4210m | -3.9m/s | -4.5°C | 17.5% | -1.0hPa | 2.7V | 00:00:00 | 00:00:00 | 00:00:00 | |
| OM5KV | 2026-09-02 04:13:48 | 48.32211 | 15.64071 | 117° | 40km/h | 4206m | -4.2m/s | -4.5°C | 17.5% | 0hPa | 2.7V | 07:45:00 | 00:00:00 | 00:00:00 | |
| PG1ADW-2 | 2026-09-02 04:13:47 | 48.32219 | 15.64043 | 114° | 42km/h | 4214m | -4.2m/s | -4.5°C | 18.1% | 0hPa | 2.7V | 00:00:00 | 00:00:00 | 00:00:00 | |
| OM5KV | 2026-09-02 04:13:46 | 48.32220 | 15.64043 | 114° | 40km/h | 4214m | -4.2m/s | -4.6°C | 17.6% | 0hPa | 2.7V | 07:45:00 | 00:00:00 | 00:00:00 | |
| OE5WHR-10 | 2026-09-02 04:13:45 | 48.32227 | 15.64014 | 112° | 42km/h | 4222m | -4.1m/s | -4.5°C | 18.0% | 0hPa | 2.7V | 00:00:00 | 00:00:00 | 00:00:00 | |
| OE5DXL-15 | 2026-09-02 04:13:42 | 48.32238 | 15.63969 | 110° | 42km/h | 4235m | -4.5m/s | -4.6°C | 17.9% | 0hPa | 2.6V | 00:00:00 | 00:00:00 | 00:00:00 | |
| OE5DRO-10 | 2026-09-02 04:13:40 | 48.32245 | 15.63938 | 108° | 44km/h | 4243m | -4.5m/s | -4.6°C | 20.1% | 0hPa | 2.7V | 00:00:00 | 00:00:00 | 00:00:00 | |
| PETON7-10 | 2026-09-02 04:13:36 | 48.32258 | 15.63876 | 106° | 44km/h | 4261m | -4.2m/s | -4.8°C | 33.5% | 0hPa | 2.7V | 00:00:00 | 00:00:00 | 00:00:00 | |
| OE3JTB-15 | 2026-09-02 04:13:32 | 48.32270 | 15.63812 | 106° | 42km/h | 4277m | -4.1m/s | -5.0°C | 33.1% | 0hPa | 2.7V | 00:00:00 | 00:00:00 | 00:00:00 | |
| OM5KV | 2026-09-02 04:13:30 | 48.32273 | 15.63796 | 108° | 44km/h | 4281m | -4.3m/s | -5.1°C | 32.6% | 0hPa | 2.7V | 07:45:00 | 00:00:00 | 00:00:00 | |
| OE5WHR-10 | 2026-09-02 04:13:28 | 48.32282 | 15.63748 | 104° | 42km/h | 4294m | -4.2m/s | -5.2°C | 36.7% | 0hPa | 2.7V | 00:00:00 | 00:00:00 | 00:00:00 | |
| PG1ADW-2 | 2026-09-02 04:13:27 | 48.32285 | 15.63732 | 106° | 42km/h | 4298m | -4.1m/s | -5.2°C | 36.8% | 0hPa | 2.7V | 00:00:00 | 00:00:00 | 00:00:00 | |
| OE5DRO-10 | 2026-09-02 04:13:24 | 48.32292 | 15.63684 | 102° | 42km/h | 4311m | -4.0m/s | -5.3°C | 37.4% | 0hPa | 2.7V | 07:44:00 | 00:00:00 | 00:00:00 | |
| OM5KV | 2026-09-02 04:13:22 | 48.32294 | 15.63668 | 102° | 42km/h | 4315m | -4.0m/s | -5.4°C | 36.8% | 0hPa | 2.7V | 07:45:00 | 00:00:00 | 00:00:00 | |
| PETON7-10 | 2026-09-02 04:13:21 | 48.32299 | 15.63636 | 100° | 40km/h | 4322m | -3.6m/s | -5.4°C | 38.0% | 0hPa | 2.7V | 00:00:00 | 02:24:38 | 00:00:00 | |
| OM5KV | 2026-09-02 04:13:17 | 48.32304 | 15.63589 | 101° | 42km/h | 4334m | -4.0m/s | -5.6°C | 38.1% | 0hPa | 2.7V | 07:45:00 | 00:00:00 | 00:00:00 | |
| OE5DXL-15 | 2026-09-02 04:13:12 | 48.32315 | 15.63498 | 100° | 40km/h | 4357m | -4.0m/s | -5.6°C | 40.4% | 0hPa | 2.7V | 00:00:00 | 00:00:00 | 00:00:00 | |
| OE5WHR-10 | 2026-09-02 04:13:11 | 48.32317 | 15.63483 | 99° | 38km/h | 4361m | -3.7m/s | -5.6°C | 40.5% | 0hPa | 2.7V | 00:00:00 | 02:24:28 | 00:00:00 | |
| OE5DRO-10 | 2026-09-02 04:13:08 | 48.32322 | 15.63438 | 101° | 38km/h | 4373m | -4.0m/s | -5.7°C | 40.8% | 0hPa | 2.7V | 00:00:00 | 00:00:00 | 00:00:00 | |
| PG1ADW-2 | 2026-09-02 04:13:07 | 48.32323 | 15.63423 | 99° | 40km/h | 4377m | -3.9m/s | -5.7°C | 40.9% | 0hPa | 2.7V | 00:00:00 | 00:00:00 | 00:00:00 | |
| PETON7-10 | 2026-09-02 04:13:06 | 48.32325 | 15.63409 | 102° | 38km/h | 4381m | -4.1m/s | -5.7°C | 40.9% | 0hPa | 2.7V | 00:00:00 | 00:00:00 | 00:00:00 | |
| OE3JTB-15 | 2026-09-02 04:13:03 | 48.32331 | 15.63365 | 101° | 42km/h | 4392m | -3.5m/s | -5.8°C | 40.9% | 0hPa | 2.6V | 00:00:00 | 02:24:20 | 00:00:00 | |
| OM5KV | 2026-09-02 04:13:02 | 48.32331 | 15.63365 | 101° | 38km/h | 4392m | -3.6m/s | -5.9°C | 39.9% | 0hPa | 2.6V | 07:45:00 | 00:00:00 | 00:00:00 | |
| OE3OSB-13 | 2026-09-02 04:12:47 | 48.32385 | 15.63125 | 111° | 44km/h | 4456m | -3.9m/s | -6.3°C | 40.3% | -1.0hPa | 2.6V | 00:00:00 | 00:00:00 | 00:00:00 | |
| OM5KV | 2026-09-02 04:12:46 | 48.32380 | 15.63140 | 114° | 44km/h | 4452m | -3.8m/s | -6.3°C | 40.2% | 0hPa | 2.6V | 07:45:00 | 00:00:00 | 00:00:00 | |
| OE5DXL-15 | 2026-09-02 04:12:42 | 48.32401 | 15.63058 | 110° | 47km/h | 4471m | -4.0m/s | -6.4°C | 41.9% | 0hPa | 2.6V | 00:00:00 | 00:00:00 | 00:00:00 | |
| OM5KV | 2026-09-02 04:12:40 | 48.32405 | 15.63042 | 109° | 47km/h | 4475m | -4.1m/s | -6.5°C | 41.0% | 0hPa | 2.6V | 07:45:00 | 00:00:00 | 00:00:00 | |
| OE5WHR-10 | 2026-09-02 04:12:37 | 48.32419 | 15.62972 | 106° | 47km/h | 4491m | -4.1m/s | -6.5°C | 43.1% | 0hPa | 2.6V | 00:00:00 | 00:00:00 | 00:00:00 | |
| OE3JTB-15 | 2026-09-02 04:12:34 | 48.32427 | 15.62919 | 104° | 46km/h | 4503m | -3.9m/s | -6.6°C | 43.9% | 0hPa | 2.6V | 00:00:00 | 00:00:00 | 00:00:00 | |
| OM5KV | 2026-09-02 04:12:30 | 48.32435 | 15.62865 | 101° | 47km/h | 4514m | -3.9m/s | -6.8°C | 43.9% | 0hPa | 2.6V | 07:45:00 | 00:00:00 | 00:00:00 | |
| OM5KV | 2026-09-02 04:12:28 | 48.32438 | 15.62829 | 101° | 47km/h | 4522m | -3.9m/s | -6.9°C | 43.2% | 0hPa | 2.6V | 07:45:00 | 00:00:00 | 00:00:00 | |
| PG1ADW-2 | 2026-09-02 04:12:26 | 48.32445 | 15.62757 | 97° | 44km/h | 4537m | -4.1m/s | -7.0°C | 44.9% | 0hPa | 2.6V | 00:00:00 | 00:00:00 | 00:00:00 | |
| OM5KV | 2026-09-02 04:12:22 | 48.32448 | 15.62722 | 97° | 46km/h | 4545m | -4.2m/s | -7.1°C | 44.0% | 0hPa | 2.7V | 07:45:00 | 00:00:00 | 00:00:00 | |
| PETON7-10 | 2026-09-02 04:12:21 | 48.32450 | 15.62687 | 95° | 44km/h | 4553m | -4.1m/s | -7.1°C | 45.2% | 0hPa | 2.7V | 00:00:00 | 00:00:00 | 00:00:00 | |
| OE5WHR-10 | 2026-09-02 04:12:20 | 48.32451 | 15.62670 | 96° | 42km/h | 4557m | -4.2m/s | -7.1°C | 45.3% | 0hPa | 2.7V | 00:00:00 | 02:23:37 | 00:00:00 | |
| OM5KV | 2026-09-02 04:12:17 | 48.32452 | 15.62636 | 94° | 46km/h | 4566m | -4.1m/s | -7.3°C | 44.3% | 0hPa | 2.7V | 07:46:00 | 00:00:00 | 00:00:00 | |
| OM5KV | 2026-09-02 04:12:16 | 48.32453 | 15.62619 | 96° | 46km/h | 4570m | -3.9m/s | -7.3°C | 44.5% | 0hPa | 2.7V | 07:46:00 | 00:00:00 | 00:00:00 | |
| OE3OSB-13 | 2026-09-02 04:12:15 | 48.32454 | 15.62585 | 90° | 42km/h | 4577m | -4.0m/s | -7.4°C | 44.8% | -1.0hPa | 2.7V | 00:00:00 | 00:00:00 | 00:00:00 | |
| OE5DXL-15 | 2026-09-02 04:12:12 | 48.32455 | 15.62536 | 94° | 37km/h | 4590m | -3.9m/s | -7.4°C | 46.4% | 0hPa | 2.7V | 00:00:00 | 00:00:00 | 00:00:00 | |
| OM5KV | 2026-09-02 04:12:10 | 48.32455 | 15.62519 | 91° | 44km/h | 4594m | -3.8m/s | -7.5°C | 45.2% | 0hPa | 2.7V | 07:46:00 | 00:00:00 | 00:00:00 | |
| PG1ADW-2 | 2026-09-02 04:12:06 | 48.32455 | 15.62441 | 91° | 37km/h | 4613m | -4.1m/s | -7.6°C | 47.1% | 0hPa | 2.7V | 07:46:00 | 00:00:00 | 00:00:00 | |
| OE3JTB-15 | 2026-09-02 04:12:05 | 48.32455 | 15.62425 | 93° | 37km/h | 4618m | -3.8m/s | -7.7°C | 47.3% | 0hPa | 2.7V | 00:00:00 | 00:00:00 | 00:00:00 | |
| OE5DRO-10 | 2026-09-02 04:12:04 | 48.32456 | 15.62410 | 90° | 37km/h | 4621m | -4.0m/s | -7.7°C | 47.3% | 0hPa | 2.7V | 00:00:00 | 00:00:00 | 00:00:00 | |
| OE5WHR-10 | 2026-09-02 04:12:03 | 48.32456 | 15.62395 | 92° | 37km/h | 4625m | -4.0m/s | -7.8°C | 47.4% | 0hPa | 2.6V | 00:00:00 | 00:00:00 | 00:00:00 | |
| OM5KV | 2026-09-02 04:11:57 | 48.32455 | 15.62321 | 93° | 38km/h | 4645m | -4.1m/s | -8.0°C | 46.4% | 0hPa | 2.6V | 07:46:00 | 00:00:00 | 00:00:00 | |
| OM5KV | 2026-09-02 04:11:56 | 48.32455 | 15.62307 | 91° | 37km/h | 4649m | -4.2m/s | -8.0°C | 46.4% | 0hPa | 2.6V | 07:46:00 | 00:00:00 | 00:00:00 | |
| PETON7-10 | 2026-09-02 04:11:51 | 48.32457 | 15.62226 | 97° | 35km/h | 4673m | -4.1m/s | -8.2°C | 49.0% | 0hPa | 2.6V | 00:00:00 | 02:23:08 | 00:00:00 | |
| OE5DRO-10 | 2026-09-02 04:11:48 | 48.32459 | 15.62188 | 96° | 35km/h | 4685m | -4.2m/s | -8.2°C | 48.9% | 0hPa | 2.6V | 00:00:00 | 00:00:00 | 00:00:00 | |
| PG1ADW-2 | 2026-09-02 04:11:46 | 48.32461 | 15.62164 | 100° | 35km/h | 4693m | -4.0m/s | -8.3°C | 49.1% | 0hPa | 2.6V | 00:00:00 | 00:00:00 | 00:00:00 | |
| OM5KV | 2026-09-02 04:11:45 | 48.32461 | 15.62164 | 100° | 33km/h | 4693m | -4.1m/s | -8.4°C | 47.7% | 0hPa | 2.6V | 07:46:00 | 00:00:00 | 00:00:00 | |
| OE5DXL-15 | 2026-09-02 04:11:42 | 48.32466 | 15.62114 | 103° | 38km/h | 4710m | -3.9m/s | -8.5°C | 49.7% | 0hPa | 2.6V | 00:00:00 | 00:00:00 | 00:00:00 | |
| PETON7-10 | 2026-09-02 04:11:36 | 48.32478 | 15.62037 | 107° | 37km/h | 4735m | -4.3m/s | -8.7°C | 50.6% | 0hPa | 2.6V | 00:00:00 | 00:00:00 | 00:00:00 | |
| OM5KV | 2026-09-02 04:11:33 | 48.32482 | 15.62010 | 104° | 35km/h | 4744m | -4.3m/s | -8.8°C | 49.4% | 0hPa | 2.7V | 07:46:00 | 00:00:00 | 00:00:00 | |
| OE5DRO-10 | 2026-09-02 04:11:32 | 48.32487 | 15.61984 | 106° | 38km/h | 4752m | -4.1m/s | -8.8°C | 51.1% | 0hPa | 2.7V | 00:00:00 | 00:00:00 | 00:00:00 | |
| OE5WHR-10 | 2026-09-02 04:11:29 | 48.32494 | 15.61944 | 105° | 40km/h | 4764m | -4.0m/s | -8.9°C | 51.3% | 0hPa | 2.7V | 00:00:00 | 02:22:46 | 00:00:00 | |
| OM5KV | 2026-09-02 04:11:27 | 48.32497 | 15.61931 | 106° | 38km/h | 4768m | -4.1m/s | -9.0°C | 49.8% | 0hPa | 2.7V | 07:47:00 | 00:00:00 | 00:00:00 | |
| PG1ADW-2 | 2026-09-02 04:11:26 | 48.32501 | 15.61903 | 106° | 42km/h | 4776m | -4.5m/s | -9.1°C | 51.5% | 0hPa | 2.7V | 00:00:00 | 02:22:43 | 00:00:00 | |
| OM5KV | 2026-09-02 04:11:22 | 48.32510 | 15.61861 | 108° | 38km/h | 4789m | -4.3m/s | -9.2°C | 48.2% | 0hPa | 2.7V | 07:47:00 | 00:00:00 | 00:00:00 | |
| PETON7-10 | 2026-09-02 04:11:21 | 48.32516 | 15.61833 | 109° | 44km/h | 4798m | -4.2m/s | -9.2°C | 49.1% | 0hPa | 2.7V | 00:00:00 | 00:00:00 | 00:00:00 | |
| OM5KV | 2026-09-02 04:11:18 | 48.32522 | 15.61803 | 109° | 42km/h | 4806m | -3.8m/s | -9.4°C | 48.2% | 0hPa | 2.7V | 07:47:00 | 00:00:00 | 00:00:00 | |
| OE5DRO-10 | 2026-09-02 04:11:16 | 48.32532 | 15.61757 | 109° | 46km/h | 4819m | -4.3m/s | -9.4°C | 49.9% | 0hPa | 2.7V | 07:46:00 | 00:00:00 | 00:00:00 | |
| OE3OSB-13 | 2026-09-02 04:11:13 | 48.32543 | 15.61709 | 106° | 44km/h | 4830m | -4.2m/s | -9.6°C | 48.6% | -1.0hPa | 2.6V | 00:00:00 | 00:00:00 | 00:00:00 | |
| OE5WHR-10 | 2026-09-02 04:11:12 | 48.32546 | 15.61693 | 107° | 47km/h | 4835m | -4.5m/s | -9.6°C | 50.3% | 0hPa | 2.6V | 00:00:00 | 00:00:00 | 00:00:00 | |
| OM5KV | 2026-09-02 04:11:08 | 48.32556 | 15.61643 | 108° | 46km/h | 4848m | -4.0m/s | -9.7°C | 48.9% | 0hPa | 2.6V | 07:47:00 | 00:00:00 | 00:00:00 | |
| OE3JTB-15 | 2026-09-02 04:11:07 | 48.32563 | 15.61609 | 105° | 49km/h | 4855m | -3.6m/s | -9.8°C | 50.8% | 0hPa | 2.6V | 00:00:00 | 00:00:00 | 00:00:00 | |
| PETON7-10 | 2026-09-02 04:11:06 | 48.32566 | 15.61591 | 104° | 49km/h | 4859m | -4.0m/s | -9.8°C | 50.9% | 0hPa | 2.6V | 00:00:00 | 02:22:23 | 00:00:00 | |
| OM5KV | 2026-09-02 04:11:01 | 48.32578 | 15.61521 | 105° | 47km/h | 4876m | -4.3m/s | -10.0°C | 50.9% | 0hPa | 2.6V | 07:47:00 | 00:00:00 | 00:00:00 | |
| OE5DRO-10 | 2026-09-02 04:11:00 | 48.32584 | 15.61485 | 103° | 49km/h | 4884m | -3.8m/s | -10.0°C | 52.5% | 0hPa | 2.6V | 00:00:00 | 00:00:00 | 00:00:00 | |
| OE5WHR-10 | 2026-09-02 04:10:55 | 48.32598 | 15.61393 | 102° | 51km/h | 4904m | -4.1m/s | -10.2°C | 50.5% | 0hPa | 2.6V | 00:00:00 | 00:00:00 | 00:00:00 | |
| PETON7-10 | 2026-09-02 04:10:51 | 48.32608 | 15.61320 | 100° | 51km/h | 4921m | -4.1m/s | -10.3°C | 49.4% | 0hPa | 2.6V | 07:47:00 | 00:00:00 | 00:00:00 | |
| OM5KV | 2026-09-02 04:10:49 | 48.32610 | 15.61301 | 101° | 51km/h | 4925m | -4.4m/s | -10.4°C | 48.1% | 0hPa | 2.6V | 07:47:00 | 00:00:00 | 00:00:00 | |
| PG1ADW-2 | 2026-09-02 04:10:46 | 48.32618 | 15.61225 | 98° | 51km/h | 4941m | -4.3m/s | -10.4°C | 51.0% | 0hPa | 2.6V | 00:00:00 | 00:00:00 | 00:00:00 | |
| OE5DRO-10 | 2026-09-02 04:10:44 | 48.32621 | 15.61187 | 98° | 51km/h | 4950m | -4.5m/s | -10.5°C | 51.3% | 0hPa | 2.6V | 00:00:00 | 00:00:00 | 00:00:00 | |
| OE5DXL-15 | 2026-09-02 04:10:42 | 48.32624 | 15.61148 | 99° | 47km/h | 4958m | -3.9m/s | -10.6°C | 51.7% | 0hPa | 2.6V | 00:00:00 | 00:00:00 | 00:00:00 | |
| OM5KV | 2026-09-02 04:10:41 | 48.32624 | 15.61148 | 99° | 51km/h | 4958m | -3.9m/s | -10.6°C | 50.0% | 0hPa | 2.7V | 07:47:00 | 00:00:00 | 00:00:00 | |
| OE5WHR-10 | 2026-09-02 04:10:38 | 48.32629 | 15.61070 | 94° | 49km/h | 4973m | -3.7m/s | -10.7°C | 52.3% | 0hPa | 2.7V | 07:47:00 | 02:21:55 | 00:00:00 | |
| PETON7-10 | 2026-09-02 04:10:36 | 48.32630 | 15.61031 | 94° | 49km/h | 4981m | -4.2m/s | -10.8°C | 52.6% | 0hPa | 2.7V | 00:00:00 | 00:00:00 | 00:00:00 | |
| OM5KV | 2026-09-02 04:10:35 | 48.32630 | 15.61031 | 94° | 51km/h | 4981m | -4.2m/s | -10.9°C | 50.9% | 0hPa | 2.7V | 07:48:00 | 00:00:00 | 00:00:00 | |
| OM5KV | 2026-09-02 04:10:29 | 48.32632 | 15.60916 | 90° | 51km/h | 5005m | -4.1m/s | -11.1°C | 51.7% | 0hPa | 2.7V | 07:48:00 | 00:00:00 | 00:00:00 | |
| OE5DRO-10 | 2026-09-02 04:10:28 | 48.32632 | 15.60878 | 91° | 44km/h | 5014m | -4.1m/s | -11.1°C | 53.8% | 0hPa | 2.7V | 00:00:00 | 00:00:00 | 00:00:00 | |
| PG1ADW-2 | 2026-09-02 04:10:26 | 48.32631 | 15.60841 | 88° | 42km/h | 5022m | -4.2m/s | -11.2°C | 53.9% | 0hPa | 2.6V | 00:00:00 | 00:00:00 | 00:00:00 | |
| OM5KV | 2026-09-02 04:10:23 | 48.32630 | 15.60805 | 89° | 47km/h | 5030m | -4.2m/s | -11.3°C | 52.4% | 0hPa | 2.6V | 07:48:00 | 00:00:00 | 00:00:00 | |
| OE5WHR-10 | 2026-09-02 04:10:21 | 48.32628 | 15.60752 | 87° | 40km/h | 5042m | -3.8m/s | -11.4°C | 54.4% | 0hPa | 2.6V | 00:00:00 | 00:00:00 | 00:00:00 | |
| OM5KV | 2026-09-02 04:10:17 | 48.32627 | 15.60703 | 89° | 42km/h | 5054m | -4.0m/s | -11.5°C | 52.8% | 0hPa | 2.6V | 07:48:00 | 00:00:00 | 00:00:00 | |
| OE5DRO-10 | 2026-09-02 04:10:12 | 48.32628 | 15.60610 | 94° | 40km/h | 5079m | -4.1m/s | -11.6°C | 54.0% | 0hPa | 2.6V | 00:00:00 | 00:00:00 | 00:00:00 | |
| OE3OSB-13 | 2026-09-02 04:10:11 | 48.32630 | 15.60580 | 95° | 38km/h | 5087m | -4.3m/s | -11.8°C | 52.0% | -1.0hPa | 2.6V | 00:00:00 | 00:00:00 | 00:00:00 | |
| OE3JTB-15 | 2026-09-02 04:10:09 | 48.32631 | 15.60566 | 98° | 46km/h | 5091m | -4.4m/s | -11.7°C | 54.0% | 0hPa | 2.6V | 00:00:00 | 02:21:26 | 00:00:00 | |
| PETON7-10 | 2026-09-02 04:10:06 | 48.32635 | 15.60521 | 98° | 42km/h | 5104m | -4.2m/s | -11.9°C | 53.5% | 0hPa | 2.6V | 00:00:00 | 00:00:00 | 00:00:00 | |
| OM5KV | 2026-09-02 04:10:05 | 48.32635 | 15.60521 | 99° | 40km/h | 5104m | -4.3m/s | -11.9°C | 51.6% | 0hPa | 2.7V | 07:48:00 | 00:00:00 | 00:00:00 | |
| OE5WHR-10 | 2026-09-02 04:10:04 | 48.32638 | 15.60490 | 100° | 44km/h | 5113m | -4.2m/s | -11.9°C | 53.4% | 0hPa | 2.7V | 00:00:00 | 00:00:00 | 00:00:00 | |
| OM5KV | 2026-09-02 04:10:02 | 48.32640 | 15.60475 | 104° | 40km/h | 5117m | -4.0m/s | -12.0°C | 51.6% | 0hPa | 2.7V | 07:48:00 | 00:00:00 | 00:00:00 | |
| OM5KV | 2026-09-02 04:09:59 | 48.32645 | 15.60429 | 103° | 42km/h | 5129m | -4.2m/s | -12.1°C | 51.5% | 0hPa | 2.7V | 07:48:00 | 00:00:00 | 00:00:00 | |
| OE5DRO-10 | 2026-09-02 04:09:56 | 48.32654 | 15.60365 | 102° | 49km/h | 5145m | -3.8m/s | -12.2°C | 53.6% | 0hPa | 2.7V | 00:00:00 | 00:00:00 | 00:00:00 | |
| OM5KV | 2026-09-02 04:09:53 | 48.32660 | 15.60332 | 106° | 46km/h | 5153m | -4.3m/s | -12.4°C | 51.8% | 0hPa | 2.7V | 07:48:00 | 00:00:00 | 00:00:00 | |
| PETON7-10 | 2026-09-02 04:09:51 | 48.32668 | 15.60281 | 104° | 51km/h | 5165m | -3.8m/s | -12.4°C | 53.2% | 0hPa | 2.7V | 00:00:00 | 00:00:00 | 00:00:00 | |
| OE5WHR-10 | 2026-09-02 04:09:47 | 48.32679 | 15.60209 | 102° | 51km/h | 5182m | -3.8m/s | -12.5°C | 52.9% | 0hPa | 2.7V | 00:00:00 | 02:21:04 | 00:00:00 | |
| PG1ADW-2 | 2026-09-02 04:09:46 | 48.32681 | 15.60190 | 102° | 51km/h | 5185m | -3.9m/s | -12.6°C | 52.8% | 0hPa | 2.7V | 00:00:00 | 00:00:00 | 00:00:00 | |
| OE5DXL-15 | 2026-09-02 04:09:42 | 48.32690 | 15.60112 | 97° | 47km/h | 5201m | -4.0m/s | -12.7°C | 53.3% | 0hPa | 2.7V | 00:00:00 | 00:00:00 | 00:00:00 | |
| OM5KV | 2026-09-02 04:09:41 | 48.32690 | 15.60112 | 97° | 53km/h | 5201m | -4.1m/s | -12.8°C | 51.3% | 0hPa | 2.7V | 07:49:00 | 00:00:00 | 00:00:00 | |
| OE3JTB-15 | 2026-09-02 04:09:40 | 48.32692 | 15.60073 | 94° | 46km/h | 5209m | -3.9m/s | -12.8°C | 53.2% | 0hPa | 2.7V | 00:00:00 | 00:00:00 | 00:00:00 | |
| PETON7-10 | 2026-09-02 04:09:36 | 48.32693 | 15.59995 | 90° | 47km/h | 5225m | -4.3m/s | -12.9°C | 53.4% | 0hPa | 2.7V | 00:00:00 | 02:20:53 | 00:00:00 | |
| OM5KV | 2026-09-02 04:09:35 | 48.32693 | 15.59995 | 91° | 51km/h | 5225m | -4.3m/s | -13.0°C | 51.4% | 0hPa | 2.7V | 07:49:00 | 00:00:00 | 00:00:00 | |
| OE5WHR-10 | 2026-09-02 04:09:30 | 48.32693 | 15.59883 | 89° | 46km/h | 5251m | -4.2m/s | -13.2°C | 53.6% | 0hPa | 2.7V | 00:00:00 | 00:00:00 | 00:00:00 | |
| OM5KV | 2026-09-02 04:09:28 | 48.32693 | 15.59864 | 91° | 47km/h | 5255m | -4.3m/s | -13.3°C | 51.3% | 0hPa | 2.6V | 07:49:00 | 00:00:00 | 00:00:00 | |
| PG1ADW-2 | 2026-09-02 04:09:26 | 48.32692 | 15.59810 | 88° | 42km/h | 5268m | -3.8m/s | -13.3°C | 52.8% | 0hPa | 2.6V | 07:48:00 | 00:00:00 | 00:00:00 | |
| OE5DRO-10 | 2026-09-02 04:09:24 | 48.32691 | 15.59774 | 88° | 42km/h | 5276m | -4.2m/s | -13.4°C | 51.8% | 0hPa | 2.6V | 00:00:00 | 00:00:00 | 00:00:00 | |
| PETON7-10 | 2026-09-02 04:09:21 | 48.32689 | 15.59722 | 88° | 40km/h | 5289m | -4.2m/s | -13.4°C | 51.3% | 0hPa | 2.6V | 00:00:00 | 00:00:00 | 00:00:00 | |
| OE5WHR-10 | 2026-09-02 04:09:13 | 48.32684 | 15.59593 | 88° | 40km/h | 5321m | -4.1m/s | -13.6°C | 48.0% | 0hPa | 2.7V | 00:00:00 | 00:00:00 | 00:00:00 | |
| OE5DXL-15 | 2026-09-02 04:09:12 | 48.32684 | 15.59579 | 89° | 44km/h | 5325m | -4.0m/s | -13.6°C | 47.8% | 0hPa | 2.7V | 00:00:00 | 00:00:00 | 00:00:00 | |
| OE3JTB-15 | 2026-09-02 04:09:11 | 48.32684 | 15.59564 | 92° | 46km/h | 5329m | -4.2m/s | -13.6°C | 47.3% | 0hPa | 2.7V | 00:00:00 | 00:00:00 | 00:00:00 | |
| OE3OSB-13 | 2026-09-02 04:09:09 | 48.32686 | 15.59521 | 96° | 37km/h | 5341m | -4.0m/s | -13.8°C | 45.2% | -1.0hPa | 2.7V | 00:00:00 | 00:00:00 | 00:00:00 | |
| PETON7-10 | 2026-09-02 04:09:06 | 48.32688 | 15.59492 | 98° | 44km/h | 5349m | -3.9m/s | -13.8°C | 46.0% | 0hPa | 2.7V | 00:00:00 | 00:00:00 | 00:00:00 | |
| OM5KV | 2026-09-02 04:09:00 | 48.32697 | 15.59416 | 101° | 44km/h | 5370m | -4.1m/s | -14.0°C | 43.3% | 0hPa | 2.7V | 07:49:00 | 00:00:00 | 00:00:00 | |
| OE5WHR-10 | 2026-09-02 04:08:56 | 48.32707 | 15.59332 | 100° | 49km/h | 5389m | -3.8m/s | -14.1°C | 45.1% | 0hPa | 2.7V | 00:00:00 | 02:20:13 | 00:00:00 | |
| OM5KV | 2026-09-02 04:08:55 | 48.32707 | 15.59332 | 101° | 47km/h | 5389m | -3.8m/s | -14.2°C | 43.3% | 0hPa | 2.7V | 07:50:00 | 00:00:00 | 00:00:00 | |
| OE5MMP-10 | 2026-09-02 04:08:52 | 48.32715 | 15.59260 | 100° | 49km/h | 5405m | -4.0m/s | -14.2°C | 44.8% | 0hPa | 2.7V | 00:00:00 | 02:20:09 | 00:00:00 | |
| PETON7-10 | 2026-09-02 04:08:51 | 48.32717 | 15.59242 | 99° | 51km/h | 5409m | -4.3m/s | -14.3°C | 45.0% | 0hPa | 2.7V | 07:49:00 | 02:20:08 | 00:00:00 | |
| PG1ADW-2 | 2026-09-02 04:08:46 | 48.32725 | 15.59149 | 99° | 53km/h | 5428m | -4.1m/s | -14.4°C | 44.9% | 0hPa | 2.7V | 00:00:00 | 02:20:03 | 00:00:00 | |
| OM5KV | 2026-09-02 04:08:45 | 48.32725 | 15.59149 | 99° | 49km/h | 5428m | -4.2m/s | -14.4°C | 43.1% | 0hPa | 2.7V | 07:50:00 | 00:00:00 | 00:00:00 | |
| OM5KV | 2026-09-02 04:08:43 | 48.32727 | 15.59111 | 96° | 51km/h | 5436m | -4.2m/s | -14.5°C | 43.4% | 0hPa | 2.7V | 07:50:00 | 00:00:00 | 00:00:00 | |
| OE5MMP-10 | 2026-09-02 04:08:42 | 48.32730 | 15.59073 | 95° | 51km/h | 5444m | -3.6m/s | -14.5°C | 45.6% | 0hPa | 2.7V | 00:00:00 | 02:19:59 | 00:00:00 | |
| OE5WHR-10 | 2026-09-02 04:08:39 | 48.32734 | 15.59014 | 96° | 53km/h | 5456m | -4.8m/s | -14.6°C | 45.8% | 0hPa | 2.6V | 00:00:00 | 00:00:00 | 00:00:00 | |
| OE3OSB-13 | 2026-09-02 04:08:38 | 48.32737 | 15.58976 | 94° | 49km/h | 5465m | -4.4m/s | -14.8°C | 44.1% | -1.0hPa | 2.7V | 00:00:00 | 00:00:00 | 00:00:00 | |
| PETON7-10 | 2026-09-02 04:08:36 | 48.32738 | 15.58956 | 95° | 55km/h | 5469m | -4.2m/s | -14.8°C | 46.3% | 0hPa | 2.7V | 00:00:00 | 00:00:00 | 00:00:00 | |
| OE5MMP-10 | 2026-09-02 04:08:32 | 48.32742 | 15.58877 | 94° | 55km/h | 5486m | -4.2m/s | -14.8°C | 50.8% | 0hPa | 2.6V | 00:00:00 | 02:19:49 | 00:00:00 | |
| PG1ADW-2 | 2026-09-02 04:08:26 | 48.32747 | 15.58753 | 93° | 58km/h | 5511m | -4.2m/s | -15.0°C | 53.3% | 0hPa | 2.6V | 00:00:00 | 00:00:00 | 00:00:00 | |
| OE5WHR-10 | 2026-09-02 04:08:22 | 48.32748 | 15.58668 | 91° | 58km/h | 5528m | -4.2m/s | -15.2°C | 55.9% | 0hPa | 2.7V | 07:49:00 | 00:00:00 | 00:00:00 | |
| PETON7-10 | 2026-09-02 04:08:21 | 48.32748 | 15.58646 | 92° | 58km/h | 5532m | -4.3m/s | -15.2°C | 56.3% | 0hPa | 2.7V | 00:00:00 | 00:00:00 | 00:00:00 | |
| OE5DRO-10 | 2026-09-02 04:08:20 | 48.32749 | 15.58624 | 91° | 58km/h | 5536m | -4.7m/s | -15.3°C | 56.6% | 0hPa | 2.7V | 00:00:00 | 00:00:00 | 00:00:00 | |
| OE3JTB-15 | 2026-09-02 04:08:13 | 48.32751 | 15.58471 | 92° | 57km/h | 5567m | -4.4m/s | -15.5°C | 67.1% | 0hPa | 2.7V | 00:00:00 | 00:00:00 | 00:00:00 | |
| OE5DXL-15 | 2026-09-02 04:08:12 | 48.32751 | 15.58449 | 89° | 57km/h | 5572m | -4.5m/s | -15.5°C | 66.9% | 0hPa | 2.6V | 00:00:00 | 00:00:00 | 00:00:00 | |
| OE3OSB-13 | 2026-09-02 04:08:07 | 48.32746 | 15.58316 | 83° | 57km/h | 5599m | -4.4m/s | -15.9°C | 64.1% | -1.0hPa | 2.6V | 00:00:00 | 00:00:00 | 00:00:00 | |
| PETON7-10 | 2026-09-02 04:08:06 | 48.32746 | 15.58316 | 84° | 58km/h | 5599m | -4.3m/s | -15.8°C | 66.8% | 0hPa | 2.6V | 00:00:00 | 02:19:23 | 00:00:00 | |
| OE5WHR-10 | 2026-09-02 04:08:05 | 48.32744 | 15.58294 | 84° | 57km/h | 5603m | -4.4m/s | -15.9°C | 66.7% | 0hPa | 2.6V | 00:00:00 | 02:19:22 | 00:00:00 | |
| OE5DRO-10 | 2026-09-02 04:08:01 | 48.32737 | 15.58206 | 83° | 57km/h | 5621m | -4.8m/s | -16.1°C | 69.5% | 0hPa | 2.6V | 00:00:00 | 00:00:00 | 00:00:00 | |
| OE5MMP-10 | 2026-09-02 04:08:00 | 48.32736 | 15.58184 | 83° | 57km/h | 5626m | -4.8m/s | -16.1°C | 72.3% | 0hPa | 2.7V | 00:00:00 | 02:19:17 | 00:00:00 | |
| OM5KV | 2026-09-02 04:07:57 | 48.32732 | 15.58140 | 83° | 58km/h | 5635m | -4.4m/s | -16.2°C | 69.6% | 0hPa | 2.7V | 07:50:00 | 00:00:00 | 00:00:00 | |
| PETON7-10 | 2026-09-02 04:07:51 | 48.32717 | 15.57990 | 82° | 55km/h | 5667m | -4.7m/s | -16.4°C | 84.1% | 0hPa | 2.7V | 00:00:00 | 00:00:00 | 00:00:00 | |
| OE5MMP-10 | 2026-09-02 04:07:50 | 48.32715 | 15.57968 | 81° | 55km/h | 5672m | -4.7m/s | -16.5°C | 84.3% | 0hPa | 2.6V | 07:50:00 | 02:19:07 | 00:00:00 | |
| PG1ADW-2 | 2026-09-02 04:07:46 | 48.32706 | 15.57884 | 81° | 51km/h | 5690m | -4.7m/s | -16.6°C | 85.5% | 0hPa | 2.6V | 00:00:00 | 00:00:00 | 00:00:00 | |
| OE5WHR-10 | 2026-09-02 04:07:44 | 48.32701 | 15.57843 | 81° | 49km/h | 5699m | -4.7m/s | -16.7°C | 86.0% | 0hPa | 2.6V | 00:00:00 | 00:00:00 | 00:00:00 | |
| OE5DXL-15 | 2026-09-02 04:07:42 | 48.32697 | 15.57802 | 79° | 51km/h | 5708m | -4.7m/s | -16.8°C | 86.5% | 0hPa | 2.7V | 00:00:00 | 00:00:00 | 00:00:00 | |
| OE5MMP-10 | 2026-09-02 04:07:40 | 48.32691 | 15.57762 | 78° | 49km/h | 5717m | -4.7m/s | -16.9°C | 86.9% | 0hPa | 2.6V | 00:00:00 | 02:18:57 | 00:00:00 | |
| OM5KV | 2026-09-02 04:07:39 | 48.32691 | 15.57762 | 79° | 53km/h | 5717m | -4.8m/s | -16.9°C | 83.4% | 0hPa | 2.6V | 07:50:00 | 00:00:00 | 00:00:00 | |
| PETON7-10 | 2026-09-02 04:07:36 | 48.32680 | 15.57684 | 79° | 47km/h | 5736m | -4.7m/s | -17.0°C | 88.1% | 0hPa | 2.6V | 00:00:00 | 00:00:00 | 00:00:00 | |
| OM5KV | 2026-09-02 04:07:34 | 48.32678 | 15.57665 | 79° | 51km/h | 5741m | -4.3m/s | -17.1°C | 84.8% | 0hPa | 2.6V | 07:50:00 | 00:00:00 | 00:00:00 | |
| OM5KV | 2026-09-02 04:07:27 | 48.32665 | 15.57541 | 87° | 46km/h | 5771m | -4.3m/s | -17.4°C | 86.6% | 0hPa | 2.6V | 07:50:00 | 00:00:00 | 00:00:00 | |
| PG1ADW-2 | 2026-09-02 04:07:26 | 48.32664 | 15.57506 | 91° | 53km/h | 5781m | -4.8m/s | -17.4°C | 90.7% | 0hPa | 2.6V | 00:00:00 | 02:18:43 | 00:00:00 | |
| OE5WHR-10 | 2026-09-02 04:07:23 | 48.32664 | 15.57451 | 91° | 55km/h | 5795m | -4.8m/s | -17.5°C | 91.7% | 0hPa | 2.7V | 00:00:00 | 00:00:00 | 00:00:00 | |
| PETON7-10 | 2026-09-02 04:07:21 | 48.32665 | 15.57412 | 93° | 55km/h | 5804m | -4.7m/s | -17.5°C | 92.3% | 0hPa | 2.7V | 00:00:00 | 02:18:38 | 00:00:00 | |
| OM5KV | 2026-09-02 04:07:17 | 48.32666 | 15.57354 | 93° | 53km/h | 5819m | -5.0m/s | -17.7°C | 89.2% | 0hPa | 2.7V | 07:50:00 | 00:00:00 | 00:00:00 | |
| OE5MMP-10 | 2026-09-02 04:07:13 | 48.32665 | 15.57251 | 90° | 57km/h | 5843m | -5.1m/s | -17.8°C | 95.3% | 0hPa | 2.7V | 00:00:00 | 02:18:30 | 00:00:00 | |
| OE5DXL-15 | 2026-09-02 04:07:12 | 48.32665 | 15.57230 | 89° | 60km/h | 5848m | -4.5m/s | -17.9°C | 95.7% | 0hPa | 2.7V | 00:00:00 | 00:00:00 | 00:00:00 | |
| OM5KV | 2026-09-02 04:07:11 | 48.32665 | 15.57230 | 89° | 55km/h | 5848m | -4.5m/s | -17.9°C | 91.7% | 0hPa | 2.7V | 07:51:00 | 00:00:00 | 00:00:00 | |
| PG1ADW-2 | 2026-09-02 04:07:06 | 48.32662 | 15.57100 | 90° | 60km/h | 5877m | -4.6m/s | -18.1°C | 98.6% | 0hPa | 2.7V | 00:00:00 | 00:00:00 | 00:00:00 | |
| OE3OSB-13 | 2026-09-02 04:07:05 | 48.32662 | 15.57056 | 87° | 58km/h | 5885m | -4.6m/s | -18.2°C | 94.1% | -1.0hPa | 2.7V | 00:00:00 | 00:00:00 | 00:00:00 | |
| OE5DRO-10 | 2026-09-02 04:07:04 | 48.32662 | 15.57056 | 88° | 60km/h | 5885m | -4.6m/s | -18.2°C | 98.3% | 0hPa | 2.7V | 00:00:00 | 00:00:00 | 00:00:00 | |
| OE5MMP-10 | 2026-09-02 04:07:03 | 48.32661 | 15.57034 | 88° | 60km/h | 5890m | -4.9m/s | -18.2°C | 98.0% | 0hPa | 2.7V | 00:00:00 | 02:18:20 | 00:00:00 | |
| OE5WHR-10 | 2026-09-02 04:07:02 | 48.32660 | 15.57012 | 90° | 62km/h | 5895m | -4.7m/s | -18.2°C | 97.7% | 0hPa | 2.7V | 00:00:00 | 02:18:19 | 00:00:00 | |
| OE5MMP-10 | 2026-09-02 04:06:53 | 48.32655 | 15.56806 | 88° | 62km/h | 5938m | -4.9m/s | -18.6°C | 95.9% | 0hPa | 2.7V | 00:00:00 | 02:18:10 | 00:00:00 | |
| PETON7-10 | 2026-09-02 04:06:51 | 48.32653 | 15.56759 | 89° | 64km/h | 5948m | -4.9m/s | -18.7°C | 95.7% | 0hPa | 2.5V | 07:51:00 | 00:00:00 | 00:00:00 | |
| OM5KV | 2026-09-02 04:06:49 | 48.32653 | 15.56736 | 88° | 62km/h | 5953m | -5.0m/s | -18.8°C | 91.5% | 0hPa | 2.5V | 07:51:00 | 00:00:00 | 00:00:00 | |
| PG1ADW-2 | 2026-09-02 04:06:46 | 48.32650 | 15.56640 | 87° | 68km/h | 5972m | -4.9m/s | -18.9°C | 95.6% | 0hPa | 2.5V | 07:51:00 | 00:00:00 | 00:00:00 | |
| OE3JTB-15 | 2026-09-02 04:06:45 | 48.32649 | 15.56616 | 86° | 66km/h | 5977m | -4.5m/s | -18.9°C | 95.3% | 0hPa | 2.5V | 00:00:00 | 02:18:02 | 00:00:00 | |
| OE5MMP-10 | 2026-09-02 04:06:43 | 48.32647 | 15.56567 | 86° | 66km/h | 5986m | -4.5m/s | -19.0°C | 95.0% | 0hPa | 2.5V | 00:00:00 | 02:18:00 | 00:00:00 | |
| OE5DXL-15 | 2026-09-02 04:06:42 | 48.32645 | 15.56542 | 85° | 66km/h | 5991m | -4.6m/s | -19.0°C | 93.8% | 0hPa | 2.5V | 00:00:00 | 00:00:00 | 00:00:00 | |
| OE5WHR-10 | 2026-09-02 04:06:41 | 48.32644 | 15.56517 | 85° | 68km/h | 5995m | -4.4m/s | -19.0°C | 93.7% | 0hPa | 2.5V | 00:00:00 | 00:00:00 | 00:00:00 | |
| PETON7-10 | 2026-09-02 04:06:36 | 48.32635 | 15.56392 | 85° | 68km/h | 6018m | -4.5m/s | -19.1°C | 92.8% | 0hPa | 2.6V | 00:00:00 | 02:17:53 | 00:00:00 | |
| OE3OSB-13 | 2026-09-02 04:06:34 | 48.32629 | 15.56315 | 82° | 68km/h | 6032m | -5.0m/s | -19.3°C | 88.8% | -1.0hPa | 2.6V | 00:00:00 | 00:00:00 | 00:00:00 | |
| OE5MMP-10 | 2026-09-02 04:06:33 | 48.32629 | 15.56315 | 83° | 68km/h | 6032m | -5.0m/s | -19.2°C | 92.9% | 0hPa | 2.6V | 00:00:00 | 02:17:50 | 00:00:00 | |
| PG1ADW-2 | 2026-09-02 04:06:26 | 48.32610 | 15.56135 | 80° | 62km/h | 6064m | -4.8m/s | -19.3°C | 85.0% | 0hPa | 2.6V | 00:00:00 | 00:00:00 | 00:00:00 | |
| OE5MMP-10 | 2026-09-02 04:06:23 | 48.32599 | 15.56060 | 76° | 64km/h | 6078m | -4.4m/s | -19.2°C | 76.7% | 0hPa | 2.6V | 07:51:00 | 02:17:40 | 00:00:00 | |
| PETON7-10 | 2026-09-02 04:06:21 | 48.32591 | 15.56012 | 75° | 60km/h | 6087m | -4.8m/s | -19.1°C | 72.7% | 0hPa | 2.7V | 00:00:00 | 00:00:00 | 00:00:00 | |
| OE5WHR-10 | 2026-09-02 04:06:20 | 48.32586 | 15.55988 | 75° | 58km/h | 6092m | -4.6m/s | -19.0°C | 68.3% | 0hPa | 2.7V | 00:00:00 | 00:00:00 | 00:00:00 | |
| OM5KV | 2026-09-02 04:06:17 | 48.32577 | 15.55940 | 74° | 64km/h | 6101m | -4.9m/s | -19.1°C | 64.4% | 0hPa | 2.7V | 07:52:00 | 00:00:00 | 00:00:00 | |
| OE3JTB-15 | 2026-09-02 04:06:16 | 48.32568 | 15.55895 | 74° | 58km/h | 6111m | -4.8m/s | -19.0°C | 65.4% | 0hPa | 2.7V | 00:00:00 | 00:00:00 | 00:00:00 | |
| OE5MMP-10 | 2026-09-02 04:06:13 | 48.32556 | 15.55830 | 75° | 57km/h | 6125m | -4.7m/s | -19.0°C | 62.7% | 0hPa | 2.7V | 00:00:00 | 02:17:30 | 00:00:00 | |
| OE5DXL-15 | 2026-09-02 04:06:12 | 48.32551 | 15.55810 | 75° | 60km/h | 6130m | -4.5m/s | -19.0°C | 62.2% | 0hPa | 2.7V | 07:52:00 | 00:00:00 | 00:00:00 | |
| OM5KV | 2026-09-02 04:06:10 | 48.32548 | 15.55789 | 77° | 57km/h | 6135m | -4.6m/s | -19.1°C | 58.8% | 0hPa | 2.7V | 07:52:00 | 00:00:00 | 00:00:00 | |
| OE5DRO-10 | 2026-09-02 04:06:07 | 48.32536 | 15.55706 | 81° | 58km/h | 6153m | -4.8m/s | -19.1°C | 61.4% | 0hPa | 2.7V | 00:00:00 | 00:00:00 | 00:00:00 | |
| PG1ADW-2 | 2026-09-02 04:06:06 | 48.32534 | 15.55685 | 82° | 60km/h | 6158m | -4.9m/s | -19.2°C | 61.3% | 0hPa | 2.5V | 00:00:00 | 02:17:23 | 00:00:00 | |
| OE3OSB-13 | 2026-09-02 04:06:03 | 48.32528 | 15.55599 | 84° | 57km/h | 6177m | -4.8m/s | -19.3°C | 58.5% | -1.0hPa | 2.5V | 00:00:00 | 00:00:00 | 00:00:00 | |
| OE5WHR-10 | 2026-09-02 04:05:59 | 48.32524 | 15.55532 | 87° | 64km/h | 6192m | -4.9m/s | -19.4°C | 61.8% | 0hPa | 2.5V | 00:00:00 | 02:17:16 | 00:00:00 | |
| OM5KV | 2026-09-02 04:05:56 | 48.32521 | 15.55487 | 86° | 60km/h | 6202m | -5.0m/s | -19.5°C | 59.1% | 0hPa | 2.5V | 07:52:00 | 00:00:00 | 00:00:00 | |
| OE5MMP-10 | 2026-09-02 04:05:53 | 48.32516 | 15.55397 | 85° | 66km/h | 6222m | -4.5m/s | -19.6°C | 61.3% | 0hPa | 2.5V | 00:00:00 | 02:17:10 | 00:00:00 | |
| OM5KV | 2026-09-02 04:05:52 | 48.32516 | 15.55397 | 86° | 60km/h | 6222m | -4.5m/s | -19.7°C | 58.3% | 0hPa | 2.6V | 07:52:00 | 00:00:00 | 00:00:00 | |
| PETON7-10 | 2026-09-02 04:05:51 | 48.32513 | 15.55351 | 86° | 68km/h | 6230m | -4.4m/s | -19.7°C | 61.9% | 0hPa | 2.6V | 00:00:00 | 02:17:08 | 00:00:00 | |
| OM5KV | 2026-09-02 04:05:50 | 48.32513 | 15.55351 | 86° | 62km/h | 6230m | -4.4m/s | -19.7°C | 58.9% | 0hPa | 2.6V | 07:52:00 | 00:00:00 | 00:00:00 | |
| OE5DRO-10 | 2026-09-02 04:05:48 | 48.32509 | 15.55279 | 85° | 66km/h | 6243m | -4.1m/s | -19.7°C | 65.5% | 0hPa | 2.6V | 00:00:00 | 00:00:00 | 00:00:00 | |
| OE3JTB-15 | 2026-09-02 04:05:47 | 48.32507 | 15.55253 | 84° | 57km/h | 6247m | -4.3m/s | -19.7°C | 66.6% | 0hPa | 2.6V | 00:00:00 | 00:00:00 | 00:00:00 | |
| PG1ADW-2 | 2026-09-02 04:05:46 | 48.32505 | 15.55227 | 83° | 66km/h | 6252m | -4.4m/s | -19.7°C | 66.2% | 0hPa | 2.6V | 00:00:00 | 00:00:00 | 00:00:00 | |
| OM5KV | 2026-09-02 04:05:44 | 48.32503 | 15.55201 | 82° | 69km/h | 6256m | -4.2m/s | -19.8°C | 62.2% | 0hPa | 2.6V | 07:52:00 | 00:00:00 | 00:00:00 | |
| OE5MMP-10 | 2026-09-02 04:05:43 | 48.32497 | 15.55149 | 80° | 68km/h | 6265m | -4.6m/s | -19.8°C | 65.0% | 0hPa | 2.6V | 00:00:00 | 02:17:00 | 00:00:00 | |
| OE5DXL-15 | 2026-09-02 04:05:42 | 48.32493 | 15.55123 | 80° | 60km/h | 6269m | -4.4m/s | -19.8°C | 64.7% | 0hPa | 2.6V | 00:00:00 | 00:00:00 | 00:00:00 | |
| OM5KV | 2026-09-02 04:05:40 | 48.32490 | 15.55097 | 81° | 69km/h | 6274m | -4.6m/s | -19.9°C | 61.1% | 0hPa | 2.6V | 07:52:00 | 00:00:00 | 00:00:00 | |
| DO3MHA-12 | 2026-09-02 04:05:39 | 48.32483 | 15.55046 | 77° | 64km/h | 6283m | -4.2m/s | -19.8°C | 61.4% | 0hPa | 2.6V | 00:00:00 | 02:16:56 | 00:00:00 | |
| OE5WHR-10 | 2026-09-02 04:05:38 | 48.32479 | 15.55021 | 77° | 58km/h | 6287m | -4.3m/s | -19.8°C | 60.7% | 0hPa | 2.6V | 07:52:00 | 00:00:00 | 00:00:00 | |
| OM5KV | 2026-09-02 04:05:34 | 48.32468 | 15.54947 | 77° | 66km/h | 6301m | -4.5m/s | -19.9°C | 54.4% | 0hPa | 2.6V | 07:52:00 | 00:00:00 | 00:00:00 | |
| OE5MMP-10 | 2026-09-02 04:05:33 | 48.32460 | 15.54899 | 77° | 57km/h | 6310m | -4.6m/s | -19.9°C | 55.7% | 0hPa | 2.6V | 00:00:00 | 02:16:50 | 00:00:00 | |
| OE3OSB-13 | 2026-09-02 04:05:32 | 48.32452 | 15.54854 | 74° | 58km/h | 6319m | -4.6m/s | -20.0°C | 51.6% | -1.0hPa | 2.6V | 00:00:00 | 00:00:00 | 00:00:00 | |
| DO3MHA-12 | 2026-09-02 04:05:29 | 48.32444 | 15.54811 | 75° | 55km/h | 6328m | -4.7m/s | -20.0°C | 53.1% | 0hPa | 2.6V | 00:00:00 | 02:16:46 | 00:00:00 | |
| OM5KV | 2026-09-02 04:05:28 | 48.32444 | 15.54811 | 76° | 58km/h | 6328m | -4.8m/s | -20.0°C | 50.4% | 0hPa | 2.6V | 07:53:00 | 00:00:00 | 00:00:00 | |
| PG1ADW-2 | 2026-09-02 04:05:26 | 48.32434 | 15.54749 | 78° | 57km/h | 6341m | -4.2m/s | -20.0°C | 50.8% | 0hPa | 2.6V | 00:00:00 | 00:00:00 | 00:00:00 | |
| OE5MMP-10 | 2026-09-02 04:05:23 | 48.32426 | 15.54690 | 81° | 55km/h | 6354m | -4.3m/s | -20.1°C | 46.1% | 0hPa | 2.5V | 00:00:00 | 02:16:40 | 00:00:00 | |
| OM5KV | 2026-09-02 04:05:22 | 48.32426 | 15.54690 | 81° | 53km/h | 6354m | -4.4m/s | -20.1°C | 43.7% | 0hPa | 2.5V | 07:53:00 | 00:00:00 | 00:00:00 | |
| PETON7-10 | 2026-09-02 04:05:21 | 48.32422 | 15.54650 | 84° | 58km/h | 6363m | -4.7m/s | -20.1°C | 42.6% | 0hPa | 2.5V | 00:00:00 | 00:00:00 | 00:00:00 | |
| DO3MHA-12 | 2026-09-02 04:05:19 | 48.32419 | 15.54609 | 85° | 58km/h | 6372m | -4.5m/s | -20.1°C | 40.4% | 0hPa | 2.5V | 00:00:00 | 02:16:36 | 00:00:00 | |
| OE3JTB-15 | 2026-09-02 04:05:18 | 48.32419 | 15.54589 | 88° | 62km/h | 6377m | -4.6m/s | -20.1°C | 39.4% | 0hPa | 2.6V | 00:00:00 | 02:16:35 | 00:00:00 | |
| OE5WHR-10 | 2026-09-02 04:05:17 | 48.32418 | 15.54568 | 87° | 62km/h | 6382m | -4.7m/s | -20.0°C | 38.0% | 0hPa | 2.6V | 00:00:00 | 00:00:00 | 00:00:00 | |
| OM5KV | 2026-09-02 04:05:16 | 48.32418 | 15.54568 | 88° | 57km/h | 6382m | -4.7m/s | -20.1°C | 35.9% | 0hPa | 2.6V | 07:53:00 | 00:00:00 | 00:00:00 | |
| OE5MMP-10 | 2026-09-02 04:05:13 | 48.32416 | 15.54481 | 88° | 62km/h | 6400m | -4.8m/s | -20.0°C | 33.1% | 0hPa | 2.6V | 00:00:00 | 02:16:30 | 00:00:00 | |
| OE5DXL-15 | 2026-09-02 04:05:12 | 48.32416 | 15.54458 | 89° | 66km/h | 6405m | -5.0m/s | -20.0°C | 32.2% | 0hPa | 2.6V | 00:00:00 | 00:00:00 | 00:00:00 | |
| OE5DRO-10 | 2026-09-02 04:05:10 | 48.32414 | 15.54413 | 88° | 64km/h | 6415m | -4.8m/s | -20.0°C | 30.5% | 0hPa | 2.6V | 00:00:00 | 00:00:00 | 00:00:00 | |
| DO3MHA-12 | 2026-09-02 04:05:09 | 48.32414 | 15.54390 | 88° | 64km/h | 6419m | -4.5m/s | -20.0°C | 30.6% | 0hPa | 2.6V | 00:00:00 | 02:16:26 | 00:00:00 | |
| PETON7-10 | 2026-09-02 04:05:06 | 48.32412 | 15.54319 | 87° | 64km/h | 6433m | -4.4m/s | -20.0°C | 30.6% | 0hPa | 2.6V | 00:00:00 | 02:16:23 | 00:00:00 | |
| OE5MMP-10 | 2026-09-02 04:05:03 | 48.32409 | 15.54247 | 87° | 66km/h | 6447m | -4.4m/s | -20.0°C | 30.8% | 0hPa | 2.6V | 07:53:00 | 02:16:20 | 00:00:00 | |
| OM5KV | 2026-09-02 04:05:02 | 48.32409 | 15.54247 | 87° | 64km/h | 6447m | -4.4m/s | -20.1°C | 29.0% | 0hPa | 2.6V | 07:53:00 | 00:00:00 | 00:00:00 | |
| OE3OSB-13 | 2026-09-02 04:05:00 | 48.32406 | 15.54175 | 85° | 64km/h | 6461m | -4.3m/s | -20.1°C | 29.7% | -1.0hPa | 2.6V | 00:00:00 | 00:00:00 | 00:00:00 | |
| DO3MHA-12 | 2026-09-02 04:04:59 | 48.32405 | 15.54150 | 87° | 66km/h | 6465m | -4.2m/s | -20.1°C | 30.8% | 0hPa | 2.6V | 00:00:00 | 02:16:16 | 00:00:00 | |
| OE5WHR-10 | 2026-09-02 04:04:56 | 48.32402 | 15.54076 | 88° | 66km/h | 6478m | -4.5m/s | -20.2°C | 28.6% | 0hPa | 2.6V | 00:00:00 | 02:16:13 | 00:00:00 | |
| OE5MMP-10 | 2026-09-02 04:04:53 | 48.32399 | 15.54001 | 86° | 68km/h | 6492m | -4.4m/s | -20.2°C | 25.8% | 0hPa | 2.6V | 00:00:00 | 02:16:10 | 00:00:00 | |
| OM5KV | 2026-09-02 04:04:52 | 48.32399 | 15.54001 | 86° | 66km/h | 6492m | -4.4m/s | -20.3°C | 24.2% | 0hPa | 2.5V | 07:53:00 | 00:00:00 | 00:00:00 | |
| PETON7-10 | 2026-09-02 04:04:51 | 48.32396 | 15.53950 | 86° | 66km/h | 6500m | -4.5m/s | -20.3°C | 24.7% | 0hPa | 2.5V | 07:53:00 | 00:00:00 | 00:00:00 | |
| OM5KV | 2026-09-02 04:04:50 | 48.32396 | 15.53950 | 86° | 68km/h | 6500m | -4.6m/s | -20.3°C | 23.2% | 0hPa | 2.6V | 07:53:00 | 00:00:00 | 00:00:00 | |
| DO3MHA-12 | 2026-09-02 04:04:49 | 48.32393 | 15.53899 | 85° | 68km/h | 6510m | -4.4m/s | -20.3°C | 24.0% | 0hPa | 2.6V | 00:00:00 | 02:16:06 | 00:00:00 | |
| OM5KV | 2026-09-02 04:04:46 | 48.32389 | 15.53847 | 85° | 68km/h | 6518m | -4.4m/s | -20.3°C | 22.7% | 0hPa | 2.5V | 07:53:00 | 00:00:00 | 00:00:00 | |
| OE5MMP-10 | 2026-09-02 04:04:43 | 48.32380 | 15.53745 | 80° | 60km/h | 6535m | -4.0m/s | -20.2°C | 23.8% | 0hPa | 2.5V | 00:00:00 | 02:16:00 | 00:00:00 | |
| OE5DXL-15 | 2026-09-02 04:04:42 | 48.32377 | 15.53720 | 79° | 64km/h | 6539m | -3.9m/s | -20.2°C | 23.8% | 0hPa | 2.5V | 00:00:00 | 00:00:00 | 00:00:00 | |
| OM5KV | 2026-09-02 04:04:40 | 48.32373 | 15.53695 | 79° | 66km/h | 6543m | -4.1m/s | -20.2°C | 22.2% | 0hPa | 2.6V | 07:54:00 | 00:00:00 | 00:00:00 | |
| DO3MHA-12 | 2026-09-02 04:04:39 | 48.32367 | 15.53649 | 79° | 58km/h | 6552m | -4.2m/s | -20.2°C | 23.2% | 0hPa | 2.6V | 00:00:00 | 02:15:56 | 00:00:00 | |
| OM5KV | 2026-09-02 04:04:38 | 48.32367 | 15.53649 | 80° | 60km/h | 6552m | -4.2m/s | -20.2°C | 21.7% | 0hPa | 2.6V | 07:54:00 | 00:00:00 | 00:00:00 | |
| PETON7-10 | 2026-09-02 04:04:36 | 48.32358 | 15.53583 | 81° | 60km/h | 6564m | -4.3m/s | -20.2°C | 22.6% | 0hPa | 2.6V | 00:00:00 | 00:00:00 | 00:00:00 | |
| OE5WHR-10 | 2026-09-02 04:04:35 | 48.32356 | 15.53562 | 83° | 64km/h | 6569m | -3.9m/s | -20.2°C | 22.6% | 0hPa | 2.6V | 00:00:00 | 00:00:00 | 00:00:00 | |
| OM5KV | 2026-09-02 04:04:34 | 48.32356 | 15.53562 | 83° | 57km/h | 6569m | -4.0m/s | -20.2°C | 21.1% | 0hPa | 2.5V | 07:54:00 | 00:00:00 | 00:00:00 | |
| OE5MMP-10 | 2026-09-02 04:04:33 | 48.32353 | 15.53519 | 85° | 60km/h | 6577m | -4.0m/s | -20.2°C | 22.7% | 0hPa | 2.5V | 00:00:00 | 02:15:50 | 00:00:00 | |
| OE5DRO-10 | 2026-09-02 04:04:32 | 48.32352 | 15.53497 | 86° | 66km/h | 6581m | -4.0m/s | -20.2°C | 22.7% | 0hPa | 2.5V | 00:00:00 | 00:00:00 | 00:00:00 | |
| DO3MHA-12 | 2026-09-02 04:04:29 | 48.32350 | 15.53431 | 89° | 64km/h | 6594m | -4.1m/s | -20.3°C | 22.7% | 0hPa | 2.5V | 07:53:00 | 02:15:46 | 00:00:00 | |
| OM5KV | 2026-09-02 04:04:28 | 48.32350 | 15.53431 | 89° | 58km/h | 6594m | -4.1m/s | -20.3°C | 21.2% | 0hPa | 2.5V | 07:54:00 | 00:00:00 | 00:00:00 | |
| PG1ADW-2 | 2026-09-02 04:04:26 | 48.32351 | 15.53362 | 91° | 69km/h | 6607m | -4.2m/s | -20.3°C | 23.1% | 0hPa | 2.5V | 00:00:00 | 00:00:00 | 00:00:00 | |
| PETON7-10 | 2026-09-02 04:04:21 | 48.32352 | 15.53237 | 91° | 71km/h | 6628m | -4.4m/s | -20.5°C | 23.9% | 0hPa | 2.5V | 00:00:00 | 02:15:38 | 00:00:00 | |
| OE3JTB-15 | 2026-09-02 04:04:20 | 48.32352 | 15.53211 | 90° | 69km/h | 6632m | -4.1m/s | -20.5°C | 24.0% | 0hPa | 2.5V | 00:00:00 | 00:00:00 | 00:00:00 | |
| DO3MHA-12 | 2026-09-02 04:04:19 | 48.32352 | 15.53185 | 92° | 71km/h | 6637m | -4.4m/s | -20.5°C | 24.2% | 0hPa | 2.5V | 00:00:00 | 02:15:36 | 00:00:00 | |
| OM5KV | 2026-09-02 04:04:16 | 48.32352 | 15.53131 | 90° | 71km/h | 6646m | -4.2m/s | -20.6°C | 22.7% | 0hPa | 2.6V | 07:54:00 | 00:00:00 | 00:00:00 | |
| OE5WHR-10 | 2026-09-02 04:04:14 | 48.32351 | 15.53050 | 89° | 69km/h | 6658m | -4.2m/s | -20.6°C | 24.9% | 0hPa | 2.6V | 00:00:00 | 00:00:00 | 00:00:00 | |
| OE5MMP-10 | 2026-09-02 04:04:13 | 48.32350 | 15.53023 | 87° | 73km/h | 6662m | -4.1m/s | -20.6°C | 25.3% | 0hPa | 2.6V | 00:00:00 | 02:15:30 | 00:00:00 | |
| OE5DXL-15 | 2026-09-02 04:04:12 | 48.32348 | 15.52995 | 86° | 68km/h | 6667m | -3.9m/s | -20.7°C | 25.7% | 0hPa | 2.6V | 00:00:00 | 00:00:00 | 00:00:00 | |
| OM5KV | 2026-09-02 04:04:10 | 48.32347 | 15.52967 | 86° | 73km/h | 6671m | -4.2m/s | -20.7°C | 24.3% | 0hPa | 2.6V | 07:54:00 | 00:00:00 | 00:00:00 | |
| DO3MHA-12 | 2026-09-02 04:04:09 | 48.32342 | 15.52912 | 84° | 68km/h | 6679m | -4.3m/s | -20.6°C | 27.2% | 0hPa | 2.6V | 00:00:00 | 02:15:26 | 00:00:00 | |
| OM5KV | 2026-09-02 04:04:08 | 48.32342 | 15.52912 | 84° | 73km/h | 6679m | -4.3m/s | -20.7°C | 25.5% | 0hPa | 2.6V | 07:54:00 | 00:00:00 | 00:00:00 | |
| PETON7-10 | 2026-09-02 04:04:06 | 48.32335 | 15.52830 | 82° | 66km/h | 6692m | -4.4m/s | -20.7°C | 26.0% | 0hPa | 2.6V | 00:00:00 | 00:00:00 | 00:00:00 | |
| OM5KV | 2026-09-02 04:04:04 | 48.32332 | 15.52803 | 81° | 73km/h | 6696m | -4.0m/s | -20.7°C | 23.7% | 0hPa | 2.5V | 07:54:00 | 00:00:00 | 00:00:00 | |
| OE3OSB-13 | 2026-09-02 04:03:58 | 48.32308 | 15.52620 | 77° | 66km/h | 6725m | -4.0m/s | -20.8°C | 19.0% | -1.0hPa | 2.5V | 00:00:00 | 00:00:00 | 00:00:00 | |
| OM5KV | 2026-09-02 04:03:56 | 48.32304 | 15.52596 | 79° | 64km/h | 6729m | -3.8m/s | -20.9°C | 18.7% | 0hPa | 2.5V | 07:54:00 | 00:00:00 | 00:00:00 | |
| DO3MHA-12 | 2026-09-02 04:03:55 | 48.32298 | 15.52550 | 81° | 62km/h | 6737m | -3.6m/s | -20.9°C | 19.5% | 0hPa | 2.5V | 00:00:00 | 02:15:12 | 00:00:00 | |
| OE5DRO-10 | 2026-09-02 04:03:54 | 48.32296 | 15.52528 | 83° | 66km/h | 6740m | -3.9m/s | -20.9°C | 19.4% | 0hPa | 2.5V | 00:00:00 | 00:00:00 | 00:00:00 | |
| OE5WHR-10 | 2026-09-02 04:03:53 | 48.32294 | 15.52505 | 85° | 68km/h | 6745m | -4.1m/s | -20.9°C | 19.4% | 0hPa | 2.5V | 00:00:00 | 02:15:10 | 00:00:00 | |
| OM5KV | 2026-09-02 04:03:52 | 48.32294 | 15.52505 | 86° | 58km/h | 6745m | -4.2m/s | -21.0°C | 18.0% | 0hPa | 2.5V | 07:54:00 | 00:00:00 | 00:00:00 | |
| PETON7-10 | 2026-09-02 04:03:51 | 48.32292 | 15.52460 | 87° | 68km/h | 6753m | -4.2m/s | -20.9°C | 19.9% | 0hPa | 2.5V | 00:00:00 | 00:00:00 | 00:00:00 | |
| PG1ADW-2 | 2026-09-02 04:03:46 | 48.32290 | 15.52341 | 90° | 73km/h | 6774m | -4.2m/s | -21.0°C | 22.7% | 0hPa | 2.5V | 00:00:00 | 00:00:00 | 00:00:00 | |
| DO3MHA-12 | 2026-09-02 04:03:45 | 48.32290 | 15.52316 | 89° | 69km/h | 6778m | -4.3m/s | -21.0°C | 23.6% | 0hPa | 2.5V | 00:00:00 | 02:15:02 | 00:00:00 | |
| OM5KV | 2026-09-02 04:03:44 | 48.32290 | 15.52316 | 89° | 68km/h | 6778m | -4.3m/s | -21.0°C | 22.0% | 0hPa | 2.6V | 07:55:00 | 00:00:00 | 00:00:00 | |
| OE5MMP-10 | 2026-09-02 04:03:43 | 48.32288 | 15.52265 | 88° | 71km/h | 6787m | -4.3m/s | -21.1°C | 24.9% | 0hPa | 2.6V | 07:54:00 | 02:15:00 | 00:00:00 | |
| OE5DXL-15 | 2026-09-02 04:03:42 | 48.32287 | 15.52238 | 87° | 71km/h | 6791m | -4.1m/s | -21.1°C | 26.3% | 0hPa | 2.6V | 00:00:00 | 00:00:00 | 00:00:00 | |
| OM5KV | 2026-09-02 04:03:40 | 48.32286 | 15.52212 | 87° | 69km/h | 6795m | -4.2m/s | -21.2°C | 25.9% | 0hPa | 2.6V | 07:55:00 | 00:00:00 | 00:00:00 | |
| PETON7-10 | 2026-09-02 04:03:36 | 48.32280 | 15.52076 | 85° | 75km/h | 6816m | -4.0m/s | -21.3°C | 33.7% | 0hPa | 2.6V | 00:00:00 | 02:14:53 | 00:00:00 | |
| DO3MHA-12 | 2026-09-02 04:03:35 | 48.32277 | 15.52048 | 84° | 75km/h | 6820m | -4.0m/s | -21.4°C | 34.2% | 0hPa | 2.6V | 00:00:00 | 02:14:52 | 00:00:00 | |
| OM5KV | 2026-09-02 04:03:34 | 48.32278 | 15.52048 | 84° | 75km/h | 6820m | -4.0m/s | -21.4°C | 32.1% | 0hPa | 2.6V | 07:55:00 | 00:00:00 | 00:00:00 | |
| OE5MMP-10 | 2026-09-02 04:03:33 | 48.32273 | 15.51992 | 83° | 75km/h | 6828m | -4.2m/s | -21.5°C | 38.0% | 0hPa | 2.6V | 00:00:00 | 02:14:50 | 00:00:00 | |
| OE5WHR-10 | 2026-09-02 04:03:32 | 48.32270 | 15.51964 | 81° | 71km/h | 6833m | -4.3m/s | -21.5°C | 44.1% | 0hPa | 2.6V | 00:00:00 | 00:00:00 | 00:00:00 | |
| OM5KV | 2026-09-02 04:03:28 | 48.32260 | 15.51879 | 81° | 75km/h | 6845m | -4.0m/s | -21.7°C | 46.1% | 0hPa | 2.5V | 07:55:00 | 00:00:00 | 00:00:00 | |
| OE3OSB-13 | 2026-09-02 04:03:27 | 48.32252 | 15.51823 | 77° | 73km/h | 6853m | -4.3m/s | -21.8°C | 47.7% | -1.0hPa | 2.5V | 00:00:00 | 00:00:00 | 00:00:00 | |
| PG1ADW-2 | 2026-09-02 04:03:26 | 48.32248 | 15.51796 | 79° | 68km/h | 6858m | -4.3m/s | -21.7°C | 50.4% | 0hPa | 2.5V | 00:00:00 | 02:14:43 | 00:00:00 | |
| DO3MHA-12 | 2026-09-02 04:03:25 | 48.32244 | 15.51769 | 77° | 69km/h | 6862m | -4.3m/s | -21.7°C | 49.0% | 0hPa | 2.6V | 00:00:00 | 02:14:42 | 00:00:00 | |
| OE5MMP-10 | 2026-09-02 04:03:23 | 48.32235 | 15.51715 | 77° | 68km/h | 6870m | -3.8m/s | -21.8°C | 46.9% | 0hPa | 2.6V | 00:00:00 | 02:14:40 | 00:00:00 | |
| OE3JTB-15 | 2026-09-02 04:03:22 | 48.32231 | 15.51689 | 75° | 62km/h | 6874m | -3.8m/s | -21.8°C | 46.8% | 0hPa | 2.5V | 07:54:00 | 00:00:00 | 00:00:00 | |
| PETON7-10 | 2026-09-02 04:03:21 | 48.32226 | 15.51663 | 74° | 66km/h | 6878m | -4.1m/s | -21.9°C | 47.2% | 0hPa | 2.5V | 00:00:00 | 00:00:00 | 00:00:00 | |
| OM5KV | 2026-09-02 04:03:20 | 48.32226 | 15.51663 | 75° | 69km/h | 6878m | -4.2m/s | -21.9°C | 44.5% | 0hPa | 2.6V | 07:55:00 | 00:00:00 | 00:00:00 | |
| OE5DRO-10 | 2026-09-02 04:03:16 | 48.32202 | 15.51540 | 74° | 62km/h | 6900m | -4.4m/s | -22.1°C | 48.2% | 0hPa | 2.6V | 00:00:00 | 00:00:00 | 00:00:00 | |
| DO3MHA-12 | 2026-09-02 04:03:13 | 48.32188 | 15.51469 | 76° | 62km/h | 6913m | -4.4m/s | -22.2°C | 47.6% | 0hPa | 2.5V | 00:00:00 | 02:14:30 | 00:00:00 | |
| OE5DXL-15 | 2026-09-02 04:03:12 | 48.32184 | 15.51445 | 75° | 58km/h | 6918m | -4.5m/s | -22.2°C | 47.2% | 0hPa | 2.5V | 00:00:00 | 00:00:00 | 00:00:00 | |
| OE5WHR-10 | 2026-09-02 04:03:11 | 48.32180 | 15.51422 | 75° | 60km/h | 6922m | -4.5m/s | -22.3°C | 46.1% | 0hPa | 2.5V | 00:00:00 | 00:00:00 | 00:00:00 | |
| OM5KV | 2026-09-02 04:03:10 | 48.32180 | 15.51422 | 75° | 64km/h | 6922m | -4.5m/s | -22.3°C | 43.4% | 0hPa | 2.5V | 07:55:00 | 00:00:00 | 00:00:00 | |
| PETON7-10 | 2026-09-02 04:03:06 | 48.32160 | 15.51307 | 78° | 58km/h | 6944m | -4.3m/s | -22.4°C | 39.4% | 0hPa | 2.5V | 00:00:00 | 00:00:00 | 00:00:00 | |
| OM5KV | 2026-09-02 04:03:04 | 48.32156 | 15.51285 | 75° | 60km/h | 6948m | -4.5m/s | -22.5°C | 34.3% | 0hPa | 2.5V | 07:55:00 | 00:00:00 | 00:00:00 | |
| OE5MMP-10 | 2026-09-02 04:03:03 | 48.32148 | 15.51240 | 77° | 58km/h | 6957m | -4.0m/s | -22.5°C | 34.5% | 0hPa | 2.5V | 00:00:00 | 02:14:20 | 00:00:00 | |
| OE3OSB-13 | 2026-09-02 04:02:56 | 48.32122 | 15.51067 | 77° | 58km/h | 6992m | -4.0m/s | -22.9°C | 29.1% | -1.0hPa | 2.5V | 00:00:00 | 00:00:00 | 00:00:00 | |
| DO3MHA-12 | 2026-09-02 04:02:53 | 48.32116 | 15.51024 | 79° | 57km/h | 7001m | -4.4m/s | -22.9°C | 30.9% | 0hPa | 2.5V | 00:00:00 | 02:14:10 | 00:00:00 | |
| PETON7-10 | 2026-09-02 04:02:51 | 48.32110 | 15.50982 | 80° | 55km/h | 7010m | -4.3m/s | -23.0°C | 30.0% | 0hPa | 2.5V | 07:55:00 | 02:14:08 | 00:00:00 | |
| OE5WHR-10 | 2026-09-02 04:02:50 | 48.32108 | 15.50960 | 80° | 53km/h | 7015m | -4.2m/s | -23.0°C | 29.5% | 0hPa | 2.5V | 07:55:00 | 02:14:07 | 00:00:00 | |
| OM5KV | 2026-09-02 04:02:47 | 48.32103 | 15.50918 | 81° | 55km/h | 7024m | -4.4m/s | -23.1°C | 25.6% | 0hPa | 2.5V | 07:56:00 | 00:00:00 | 00:00:00 | |
| PG1ADW-2 | 2026-09-02 04:02:46 | 48.32099 | 15.50877 | 81° | 53km/h | 7033m | -4.6m/s | -23.1°C | 23.9% | 0hPa | 2.5V | 00:00:00 | 00:00:00 | 00:00:00 | |
| OM5KV | 2026-09-02 04:02:45 | 48.32099 | 15.50877 | 81° | 55km/h | 7033m | -4.7m/s | -23.2°C | 22.2% | 0hPa | 2.5V | 07:56:00 | 00:00:00 | 00:00:00 | |
| DO3MHA-12 | 2026-09-02 04:02:43 | 48.32092 | 15.50817 | 84° | 53km/h | 7046m | -4.4m/s | -23.2°C | 18.6% | 0hPa | 2.5V | 00:00:00 | 02:14:00 | 00:00:00 | |
| OE5DXL-15 | 2026-09-02 04:02:42 | 48.32090 | 15.50797 | 82° | 51km/h | 7051m | -4.4m/s | -23.2°C | 16.9% | 0hPa | 2.5V | 00:00:00 | 00:00:00 | 00:00:00 | |
| OE5DRO-10 | 2026-09-02 04:02:38 | 48.32081 | 15.50717 | 80° | 51km/h | 7069m | -4.3m/s | -23.3°C | 17.0% | 0hPa | 2.5V | 00:00:00 | 00:00:00 | 00:00:00 | |
| PETON7-10 | 2026-09-02 04:02:36 | 48.32078 | 15.50679 | 84° | 51km/h | 7077m | -4.1m/s | -23.3°C | 21.7% | 0hPa | 2.5V | 00:00:00 | 00:00:00 | 00:00:00 | |
| OE5MMP-10 | 2026-09-02 04:02:33 | 48.32073 | 15.50619 | 83° | 51km/h | 7090m | -3.6m/s | -23.4°C | 25.4% | 0hPa | 2.5V | 00:00:00 | 02:13:50 | 00:00:00 | |
| DO3MHA-12 | 2026-09-02 04:02:32 | 48.32071 | 15.50600 | 83° | 51km/h | 7094m | -3.7m/s | -23.4°C | 23.5% | 0hPa | 2.5V | 00:00:00 | 02:13:49 | 00:00:00 | |
| OE5WHR-10 | 2026-09-02 04:02:29 | 48.32067 | 15.50542 | 85° | 51km/h | 7106m | -4.1m/s | -23.4°C | 17.2% | 0hPa | 2.5V | 00:00:00 | 00:00:00 | 00:00:00 | |
| PG1ADW-2 | 2026-09-02 04:02:26 | 48.32064 | 15.50486 | 86° | 49km/h | 7118m | -4.0m/s | -23.3°C | 14.4% | 0hPa | 2.5V | 00:00:00 | 00:00:00 | 00:00:00 | |
| OE3OSB-13 | 2026-09-02 04:02:25 | 48.32062 | 15.50448 | 87° | 47km/h | 7127m | -4.8m/s | -23.3°C | 15.5% | -1.0hPa | 2.6V | 00:00:00 | 00:00:00 | 00:00:00 | |
| OE3JTB-15 | 2026-09-02 04:02:24 | 48.32062 | 15.50448 | 88° | 51km/h | 7127m | -4.7m/s | -23.3°C | 16.9% | 0hPa | 2.6V | 00:00:00 | 02:13:41 | 00:00:00 | |
| OE5MMP-10 | 2026-09-02 04:02:23 | 48.32062 | 15.50430 | 89° | 49km/h | 7131m | -4.4m/s | -23.3°C | 17.9% | 0hPa | 2.6V | 07:55:00 | 02:13:40 | 00:00:00 | |
| DO3MHA-12 | 2026-09-02 04:02:22 | 48.32062 | 15.50411 | 92° | 49km/h | 7136m | -4.3m/s | -23.3°C | 18.1% | 0hPa | 2.5V | 00:00:00 | 02:13:39 | 00:00:00 | |
| PETON7-10 | 2026-09-02 04:02:21 | 48.32062 | 15.50393 | 90° | 49km/h | 7141m | -4.4m/s | -23.3°C | 18.3% | 0hPa | 2.5V | 00:00:00 | 00:00:00 | 00:00:00 | |
| OE5DRO-10 | 2026-09-02 04:02:19 | 48.32061 | 15.50356 | 90° | 51km/h | 7149m | -4.5m/s | -23.4°C | 18.6% | 0hPa | 2.5V | 00:00:00 | 00:00:00 | 00:00:00 | |
| OE5MMP-10 | 2026-09-02 04:02:13 | 48.32064 | 15.50243 | 92° | 51km/h | 7176m | -4.5m/s | -23.6°C | 19.6% | 0hPa | 2.5V | 00:00:00 | 02:13:30 | 00:00:00 | |
| OE5DXL-15 | 2026-09-02 04:02:12 | 48.32064 | 15.50224 | 94° | 55km/h | 7180m | -4.3m/s | -23.7°C | 19.8% | 0hPa | 2.5V | 07:56:00 | 00:00:00 | 00:00:00 | |
| PG1ADW-2 | 2026-09-02 04:02:06 | 48.32070 | 15.50109 | 96° | 57km/h | 7207m | -4.4m/s | -23.9°C | 17.0% | 0hPa | 2.5V | 00:00:00 | 02:13:23 | 00:00:00 | |
| OE5WHR-10 | 2026-09-02 04:02:04 | 48.32073 | 15.50070 | 96° | 57km/h | 7216m | -4.4m/s | -23.9°C | 16.0% | 0hPa | 2.5V | 00:00:00 | 00:00:00 | 00:00:00 | |
| OE5MMP-10 | 2026-09-02 04:02:03 | 48.32075 | 15.50050 | 97° | 55km/h | 7220m | -4.0m/s | -24.0°C | 15.8% | 0hPa | 2.5V | 00:00:00 | 02:13:20 | 00:00:00 | |
| OE3OSB-13 | 2026-09-02 04:01:54 | 48.32094 | 15.49845 | 97° | 57km/h | 7264m | -4.2m/s | -24.4°C | 13.1% | -1.0hPa | 2.5V | 00:00:00 | 00:00:00 | 00:00:00 | |
| OE5MMP-10 | 2026-09-02 04:01:53 | 48.32094 | 15.49845 | 98° | 60km/h | 7264m | -4.2m/s | -24.3°C | 14.4% | 0hPa | 2.5V | 00:00:00 | 02:13:10 | 00:00:00 | |
| DO3MHA-12 | 2026-09-02 04:01:52 | 48.32096 | 15.49823 | 99° | 60km/h | 7268m | -3.8m/s | -24.3°C | 14.4% | 0hPa | 2.6V | 00:00:00 | 02:13:09 | 00:00:00 | |
| PETON7-10 | 2026-09-02 04:01:51 | 48.32097 | 15.49801 | 96° | 58km/h | 7272m | -3.7m/s | -24.4°C | 14.3% | 0hPa | 2.6V | 00:00:00 | 00:00:00 | 00:00:00 | |
| OM5KV | 2026-09-02 04:01:48 | 48.32101 | 15.49756 | 97° | 60km/h | 7280m | -4.1m/s | -24.5°C | 12.6% | 0hPa | 2.5V | 07:56:00 | 00:00:00 | 00:00:00 | |
| PG1ADW-2 | 2026-09-02 04:01:46 | 48.32103 | 15.49686 | 92° | 55km/h | 7293m | -4.2m/s | -24.5°C | 13.8% | 0hPa | 2.5V | 00:00:00 | 00:00:00 | 00:00:00 | |
| OE5MMP-10 | 2026-09-02 04:01:43 | 48.32105 | 15.49618 | 90° | 57km/h | 7306m | -4.2m/s | -24.5°C | 14.7% | 0hPa | 2.5V | 00:00:00 | 02:13:00 | 00:00:00 | |
| OE5DXL-15 | 2026-09-02 04:01:42 | 48.32104 | 15.49595 | 90° | 49km/h | 7311m | -4.4m/s | -24.6°C | 15.0% | 0hPa | 2.5V | 00:00:00 | 00:00:00 | 00:00:00 | |
| OE5DRO-10 | 2026-09-02 04:01:41 | 48.32104 | 15.49573 | 91° | 51km/h | 7315m | -4.7m/s | -24.6°C | 15.1% | 0hPa | 2.5V | 07:56:00 | 00:00:00 | 00:00:00 | |
| OM5KV | 2026-09-02 04:01:37 | 48.32103 | 15.49507 | 89° | 57km/h | 7329m | -4.2m/s | -24.8°C | 13.5% | 0hPa | 2.5V | 07:56:00 | 00:00:00 | 00:00:00 | |
| PETON7-10 | 2026-09-02 04:01:36 | 48.32101 | 15.49465 | 86° | 49km/h | 7337m | -4.4m/s | -24.8°C | 14.7% | 0hPa | 2.5V | 00:00:00 | 00:00:00 | 00:00:00 | |
| OM5KV | 2026-09-02 04:01:35 | 48.32101 | 15.49465 | 86° | 55km/h | 7337m | -4.4m/s | -24.8°C | 13.4% | 0hPa | 2.5V | 07:56:00 | 00:00:00 | 00:00:00 | |
| DO3MHA-12 | 2026-09-02 04:01:32 | 48.32097 | 15.49385 | 86° | 47km/h | 7356m | -4.4m/s | -24.9°C | 16.4% | 0hPa | 2.5V | 00:00:00 | 02:12:49 | 00:00:00 | |
| OM5KV | 2026-09-02 04:01:29 | 48.32095 | 15.49347 | 86° | 49km/h | 7365m | -4.6m/s | -25.0°C | 17.7% | 0hPa | 2.5V | 07:56:00 | 00:00:00 | 00:00:00 | |
| PG1ADW-2 | 2026-09-02 04:01:26 | 48.32092 | 15.49274 | 90° | 46km/h | 7383m | -4.4m/s | -25.2°C | 21.0% | 0hPa | 2.5V | 07:56:00 | 00:00:00 | 00:00:00 | |
| OE3OSB-13 | 2026-09-02 04:01:23 | 48.32093 | 15.49204 | 91° | 44km/h | 7401m | -4.7m/s | -25.4°C | 21.3% | -1.0hPa | 2.6V | 00:00:00 | 00:00:00 | 00:00:00 | |
| DO3MHA-12 | 2026-09-02 04:01:22 | 48.32092 | 15.49204 | 92° | 44km/h | 7401m | -4.6m/s | -25.4°C | 23.2% | 0hPa | 2.6V | 00:00:00 | 02:12:39 | 00:00:00 | |
| PETON7-10 | 2026-09-02 04:01:21 | 48.32093 | 15.49187 | 91° | 46km/h | 7406m | -4.6m/s | -25.4°C | 23.8% | 0hPa | 2.6V | 00:00:00 | 02:12:38 | 00:00:00 | |
| OM5KV | 2026-09-02 04:01:17 | 48.32095 | 15.49136 | 96° | 44km/h | 7420m | -4.7m/s | -25.6°C | 22.8% | 0hPa | 2.6V | 07:57:00 | 00:00:00 | 00:00:00 | |
| OE5MMP-10 | 2026-09-02 04:01:13 | 48.32101 | 15.49053 | 97° | 47km/h | 7443m | -4.3m/s | -25.7°C | 25.5% | 0hPa | 2.6V | 00:00:00 | 02:12:30 | 00:00:00 | |
| DO3MHA-12 | 2026-09-02 04:01:12 | 48.32103 | 15.49036 | 98° | 47km/h | 7447m | -4.1m/s | -25.8°C | 25.8% | 0hPa | 2.6V | 00:00:00 | 02:12:29 | 00:00:00 | |
| OM5KV | 2026-09-02 04:01:11 | 48.32103 | 15.49036 | 99° | 46km/h | 7447m | -4.2m/s | -25.8°C | 23.7% | 0hPa | 2.5V | 07:57:00 | 00:00:00 | 00:00:00 | |
| PG1ADW-2 | 2026-09-02 04:01:06 | 48.32117 | 15.48932 | 103° | 53km/h | 7474m | -4.5m/s | -26.0°C | 26.8% | 0hPa | 2.5V | 00:00:00 | 00:00:00 | 00:00:00 | |
| OM5KV | 2026-09-02 04:01:05 | 48.32117 | 15.48932 | 104° | 47km/h | 7474m | -4.6m/s | -26.1°C | 24.7% | 0hPa | 2.5V | 07:57:00 | 00:00:00 | 00:00:00 | |
| OE3OSB-13 | 2026-09-02 04:00:52 | 48.32164 | 15.48641 | 101° | 57km/h | 7543m | -4.7m/s | -26.7°C | 27.0% | -1.0hPa | 2.5V | 00:00:00 | 00:00:00 | 00:00:00 | |
| PETON7-10 | 2026-09-02 04:00:51 | 48.32164 | 15.48640 | 102° | 58km/h | 7543m | -4.6m/s | -26.6°C | 29.4% | 0hPa | 2.5V | 07:57:00 | 00:00:00 | 00:00:00 | |
| OM5KV | 2026-09-02 04:00:47 | 48.32173 | 15.48577 | 101° | 58km/h | 7557m | -4.8m/s | -26.8°C | 27.6% | 0hPa | 2.5V | 07:57:00 | 00:00:00 | 00:00:00 | |
| PG1ADW-2 | 2026-09-02 04:00:46 | 48.32177 | 15.48533 | 99° | 53km/h | 7566m | -4.7m/s | -26.8°C | 30.4% | 0hPa | 2.5V | 00:00:00 | 02:12:03 | 00:00:00 | |
| OE5DRO-10 | 2026-09-02 04:00:44 | 48.32181 | 15.48489 | 98° | 53km/h | 7576m | -4.5m/s | -26.9°C | 31.3% | 0hPa | 2.5V | 00:00:00 | 00:00:00 | 00:00:00 | |
| OE5MMP-10 | 2026-09-02 04:00:43 | 48.32183 | 15.48467 | 96° | 57km/h | 7580m | -4.4m/s | -27.0°C | 31.7% | 0hPa | 2.5V | 00:00:00 | 02:12:00 | 00:00:00 | |
| OE5DXL-15 | 2026-09-02 04:00:42 | 48.32184 | 15.48445 | 96° | 49km/h | 7585m | -4.5m/s | -27.0°C | 32.2% | 0hPa | 2.5V | 00:00:00 | 00:00:00 | 00:00:00 | |
| OM5KV | 2026-09-02 04:00:41 | 48.32184 | 15.48445 | 96° | 58km/h | 7585m | -4.5m/s | -27.1°C | 29.7% | 0hPa | 2.5V | 07:57:00 | 00:00:00 | 00:00:00 | |
| OE5WHR-10 | 2026-09-02 04:00:40 | 48.32186 | 15.48401 | 93° | 49km/h | 7594m | -4.4m/s | -27.1°C | 33.1% | 0hPa | 2.5V | 00:00:00 | 02:11:57 | 00:00:00 | |
| OM5KV | 2026-09-02 04:00:37 | 48.32187 | 15.48358 | 91° | 57km/h | 7603m | -4.3m/s | -27.2°C | 32.4% | 0hPa | 2.5V | 07:57:00 | 00:00:00 | 00:00:00 | |
| PETON7-10 | 2026-09-02 04:00:36 | 48.32187 | 15.48316 | 91° | 47km/h | 7612m | -4.3m/s | -27.2°C | 37.0% | 0hPa | 2.5V | 00:00:00 | 02:11:53 | 00:00:00 | |
| OM5KV | 2026-09-02 04:00:35 | 48.32187 | 15.48316 | 91° | 55km/h | 7612m | -4.4m/s | -27.3°C | 34.3% | 0hPa | 2.5V | 07:57:00 | 00:00:00 | 00:00:00 | |
| OE5MMP-10 | 2026-09-02 04:00:33 | 48.32186 | 15.48256 | 90° | 46km/h | 7625m | -4.6m/s | -27.4°C | 39.6% | 0hPa | 2.5V | 00:00:00 | 02:11:50 | 00:00:00 | |
| DO3MHA-12 | 2026-09-02 04:00:31 | 48.32186 | 15.48218 | 89° | 46km/h | 7634m | -4.4m/s | -27.5°C | 41.0% | 0hPa | 2.5V | 00:00:00 | 02:11:48 | 00:00:00 | |
| OM5KV | 2026-09-02 04:00:29 | 48.32185 | 15.48200 | 91° | 47km/h | 7639m | -4.8m/s | -27.5°C | 38.2% | 0hPa | 2.5V | 07:57:00 | 00:00:00 | 00:00:00 | |
| OE3JTB-15 | 2026-09-02 04:00:28 | 48.32186 | 15.48165 | 92° | 53km/h | 7648m | -4.6m/s | -27.6°C | 42.2% | 0hPa | 2.5V | 00:00:00 | 00:00:00 | 00:00:00 | |
| PG1ADW-2 | 2026-09-02 04:00:26 | 48.32187 | 15.48131 | 95° | 51km/h | 7657m | -4.6m/s | -27.7°C | 43.7% | 0hPa | 2.5V | 00:00:00 | 00:00:00 | 00:00:00 | |
| OE5DRO-10 | 2026-09-02 04:00:25 | 48.32188 | 15.48114 | 99° | 51km/h | 7662m | -4.6m/s | -27.7°C | 44.0% | 0hPa | 2.6V | 00:00:00 | 00:00:00 | 00:00:00 | |
| OE5MMP-10 | 2026-09-02 04:00:23 | 48.32191 | 15.48082 | 100° | 47km/h | 7672m | -4.8m/s | -27.8°C | 44.2% | 0hPa | 2.5V | 00:00:00 | 02:11:40 | 00:00:00 | |
| DO3MHA-12 | 2026-09-02 04:00:21 | 48.32196 | 15.48048 | 103° | 47km/h | 7681m | -4.8m/s | -27.9°C | 44.1% | 0hPa | 2.5V | 00:00:00 | 02:11:38 | 00:00:00 | |
| OE5WHR-10 | 2026-09-02 04:00:19 | 48.32201 | 15.48014 | 106° | 57km/h | 7691m | -4.8m/s | -28.0°C | 44.1% | 0hPa | 2.6V | 00:00:00 | 00:00:00 | 00:00:00 | |
| OM5KV | 2026-09-02 04:00:17 | 48.32204 | 15.47997 | 106° | 49km/h | 7696m | -5.0m/s | -28.1°C | 40.8% | 0hPa | 2.6V | 07:58:00 | 00:00:00 | 00:00:00 | |
| OE5MMP-10 | 2026-09-02 04:00:13 | 48.32222 | 15.47904 | 106° | 58km/h | 7720m | -4.9m/s | -28.2°C | 42.6% | 0hPa | 2.6V | 00:00:00 | 02:11:30 | 00:00:00 | |
| OE5DXL-15 | 2026-09-02 04:00:12 | 48.32226 | 15.47885 | 106° | 58km/h | 7725m | -4.8m/s | -28.3°C | 42.3% | 0hPa | 2.6V | 00:00:00 | 00:00:00 | 00:00:00 | |
| OM5KV | 2026-09-02 04:00:11 | 48.32226 | 15.47884 | 106° | 55km/h | 7725m | -4.9m/s | -28.3°C | 39.2% | 0hPa | 2.5V | 07:58:00 | 00:00:00 | 00:00:00 | |
| DO3MHA-12 | 2026-09-02 04:00:09 | 48.32237 | 15.47823 | 106° | 60km/h | 7739m | -4.5m/s | -28.4°C | 40.2% | 0hPa | 2.5V | 00:00:00 | 02:11:26 | 00:00:00 | |
| PG1ADW-2 | 2026-09-02 04:00:06 | 48.32247 | 15.47758 | 101° | 60km/h | 7753m | -4.1m/s | -28.4°C | 30.8% | 0hPa | 2.5V | 00:00:00 | 00:00:00 | 00:00:00 | |
| OE5MMP-10 | 2026-09-02 04:00:03 | 48.32255 | 15.47690 | 98° | 60km/h | 7767m | -4.5m/s | -28.5°C | 22.9% | 0hPa | 2.5V | 00:00:00 | 02:11:20 | 00:00:00 | |
| OE3OSB-13 | 2026-09-02 03:59:50 | 48.32271 | 15.47373 | 88° | 57km/h | 7834m | -4.4m/s | -29.0°C | 23.8% | -1.0hPa | 2.5V | 00:00:00 | 00:00:00 | 00:00:00 | |
| DO3MHA-12 | 2026-09-02 03:59:49 | 48.32271 | 15.47373 | 89° | 51km/h | 7834m | -4.3m/s | -29.0°C | 26.2% | 0hPa | 2.5V | 00:00:00 | 02:11:06 | 00:00:00 | |
| OE5DRO-10 | 2026-09-02 03:59:47 | 48.32270 | 15.47331 | 89° | 49km/h | 7843m | -4.4m/s | -29.1°C | 25.9% | 0hPa | 2.6V | 00:00:00 | 00:00:00 | 00:00:00 | |
| PG1ADW-2 | 2026-09-02 03:59:46 | 48.32270 | 15.47310 | 88° | 49km/h | 7847m | -4.3m/s | -29.1°C | 25.8% | 0hPa | 2.6V | 00:00:00 | 00:00:00 | 00:00:00 | |
| OE5MMP-10 | 2026-09-02 03:59:43 | 48.32268 | 15.47252 | 90° | 47km/h | 7861m | -4.4m/s | -29.2°C | 24.7% | 0hPa | 2.6V | 07:58:00 | 02:11:00 | 00:00:00 | |
| OE5DXL-15 | 2026-09-02 03:59:42 | 48.32268 | 15.47233 | 89° | 51km/h | 7866m | -4.6m/s | -29.2°C | 24.1% | 0hPa | 2.6V | 00:00:00 | 00:00:00 | 00:00:00 | |
| DO3MHA-12 | 2026-09-02 03:59:38 | 48.32269 | 15.47160 | 94° | 47km/h | 7885m | -4.7m/s | -29.3°C | 23.1% | 0hPa | 2.6V | 00:00:00 | 02:10:55 | 00:00:00 | |
| OE5WHR-10 | 2026-09-02 03:59:37 | 48.32270 | 15.47142 | 94° | 51km/h | 7889m | -4.4m/s | -29.4°C | 23.2% | 0hPa | 2.6V | 00:00:00 | 02:10:54 | 00:00:00 | |
| PETON7-10 | 2026-09-02 03:59:36 | 48.32271 | 15.47125 | 98° | 49km/h | 7894m | -4.7m/s | -29.4°C | 23.1% | 0hPa | 2.6V | 00:00:00 | 00:00:00 | 00:00:00 | |
| OE5MMP-10 | 2026-09-02 03:59:33 | 48.32276 | 15.47071 | 98° | 49km/h | 7908m | -4.6m/s | -29.5°C | 22.9% | 0hPa | 2.5V | 00:00:00 | 02:10:50 | 00:00:00 | |
| OE3JTB-15 | 2026-09-02 03:59:30 | 48.32282 | 15.47018 | 101° | 58km/h | 7923m | -4.5m/s | -29.6°C | 23.8% | 0hPa | 2.5V | 07:58:00 | 02:10:47 | 00:00:00 | |
| DO3MHA-12 | 2026-09-02 03:59:28 | 48.32287 | 15.46982 | 104° | 53km/h | 7932m | -4.5m/s | -29.7°C | 24.7% | 0hPa | 2.5V | 00:00:00 | 02:10:45 | 00:00:00 | |
| OM5KV | 2026-09-02 03:59:27 | 48.32287 | 15.46982 | 104° | 49km/h | 7932m | -4.5m/s | -29.7°C | 22.4% | 0hPa | 2.5V | 07:59:00 | 00:00:00 | 00:00:00 | |
| PG1ADW-2 | 2026-09-02 03:59:26 | 48.32293 | 15.46945 | 104° | 58km/h | 7941m | -4.2m/s | -29.8°C | 25.0% | 0hPa | 2.5V | 00:00:00 | 02:10:43 | 00:00:00 | |
| OE5MMP-10 | 2026-09-02 03:59:23 | 48.32303 | 15.46888 | 105° | 57km/h | 7955m | -4.3m/s | -30.0°C | 27.1% | 0hPa | 2.6V | 00:00:00 | 02:10:40 | 00:00:00 | |
| PETON7-10 | 2026-09-02 03:59:21 | 48.32310 | 15.46849 | 105° | 60km/h | 7964m | -4.3m/s | -30.1°C | 31.2% | 0hPa | 2.6V | 00:00:00 | 00:00:00 | 00:00:00 | |
| OE3OSB-13 | 2026-09-02 03:59:19 | 48.32322 | 15.46787 | 105° | 57km/h | 7977m | -4.4m/s | -30.4°C | 30.6% | -1.0hPa | 2.6V | 00:00:00 | 00:00:00 | 00:00:00 | |
| DO3MHA-12 | 2026-09-02 03:59:18 | 48.32322 | 15.46787 | 106° | 62km/h | 7978m | -4.3m/s | -30.3°C | 33.6% | 0hPa | 2.6V | 00:00:00 | 02:10:35 | 00:00:00 | |
| OE5WHR-10 | 2026-09-02 03:59:16 | 48.32330 | 15.46744 | 104° | 64km/h | 7987m | -4.4m/s | -30.4°C | 36.0% | 0hPa | 2.5V | 00:00:00 | 00:00:00 | 00:00:00 | |
| OE5MMP-10 | 2026-09-02 03:59:13 | 48.32341 | 15.46677 | 104° | 64km/h | 8001m | -4.7m/s | -30.6°C | 37.4% | 0hPa | 2.6V | 00:00:00 | 02:10:30 | 00:00:00 | |
| OE5DXL-15 | 2026-09-02 03:59:12 | 48.32344 | 15.46654 | 102° | 64km/h | 8005m | -4.5m/s | -30.7°C | 39.9% | 0hPa | 2.6V | 00:00:00 | 00:00:00 | 00:00:00 | |
| OE5DRO-10 | 2026-09-02 03:59:09 | 48.32355 | 15.46584 | 101° | 66km/h | 8020m | -4.7m/s | -30.8°C | 43.8% | 0hPa | 2.6V | 07:59:00 | 00:00:00 | 00:00:00 | |
| DO3MHA-12 | 2026-09-02 03:59:08 | 48.32358 | 15.46559 | 100° | 66km/h | 8025m | -4.4m/s | -30.8°C | 43.5% | 0hPa | 2.6V | 00:00:00 | 02:10:25 | 00:00:00 | |
| PETON7-10 | 2026-09-02 03:59:06 | 48.32363 | 15.46510 | 101° | 66km/h | 8035m | -4.6m/s | -30.9°C | 43.2% | 0hPa | 2.6V | 00:00:00 | 02:10:23 | 00:00:00 | |
| OM5KV | 2026-09-02 03:59:05 | 48.32363 | 15.46510 | 101° | 66km/h | 8035m | -4.6m/s | -31.0°C | 39.7% | 0hPa | 2.6V | 07:59:00 | 00:00:00 | 00:00:00 | |
| OE5MMP-10 | 2026-09-02 03:59:03 | 48.32369 | 15.46436 | 97° | 66km/h | 8049m | -4.6m/s | -31.0°C | 48.2% | 0hPa | 2.6V | 00:00:00 | 02:10:20 | 00:00:00 | |
| OE3JTB-15 | 2026-09-02 03:59:01 | 48.32373 | 15.46386 | 98° | 60km/h | 8059m | -4.5m/s | -31.1°C | 48.8% | 0hPa | 2.6V | 00:00:00 | 00:00:00 | 00:00:00 | |
| DO3MHA-12 | 2026-09-02 03:58:58 | 48.32377 | 15.46312 | 93° | 64km/h | 8073m | -4.7m/s | -31.3°C | 50.3% | 0hPa | 2.5V | 00:00:00 | 02:10:15 | 00:00:00 | |
| PETON7-10 | 2026-09-02 03:58:51 | 48.32381 | 15.46140 | 91° | 60km/h | 8109m | -5.1m/s | -31.6°C | 54.1% | 0hPa | 2.5V | 07:59:00 | 00:00:00 | 00:00:00 | |
| OE5DRO-10 | 2026-09-02 03:58:50 | 48.32381 | 15.46116 | 91° | 58km/h | 8114m | -5.3m/s | -31.6°C | 54.2% | 0hPa | 2.6V | 00:00:00 | 00:00:00 | 00:00:00 | |
| DO3MHA-12 | 2026-09-02 03:58:48 | 48.32380 | 15.46068 | 89° | 60km/h | 8125m | -5.4m/s | -31.7°C | 54.1% | 0hPa | 2.6V | 00:00:00 | 02:10:05 | 00:00:00 | |
| PG1ADW-2 | 2026-09-02 03:58:46 | 48.32380 | 15.46021 | 88° | 55km/h | 8136m | -5.3m/s | -31.8°C | 54.1% | 0hPa | 2.5V | 07:59:00 | 00:00:00 | 00:00:00 | |
| OE5MMP-10 | 2026-09-02 03:58:43 | 48.32378 | 15.45953 | 88° | 57km/h | 8152m | -5.7m/s | -32.0°C | 57.6% | 0hPa | 2.5V | 00:00:00 | 02:10:00 | 00:00:00 | |
| OE5DXL-15 | 2026-09-02 03:58:42 | 48.32377 | 15.45931 | 87° | 51km/h | 8158m | -5.7m/s | -32.1°C | 59.5% | 0hPa | 2.5V | 00:00:00 | 00:00:00 | 00:00:00 | |
| DO3MHA-12 | 2026-09-02 03:58:38 | 48.32373 | 15.45844 | 85° | 51km/h | 8181m | -5.3m/s | -32.3°C | 60.5% | 0hPa | 2.5V | 07:59:00 | 02:09:55 | 00:00:00 | |
| PETON7-10 | 2026-09-02 03:58:36 | 48.32370 | 15.45802 | 85° | 49km/h | 8192m | -5.5m/s | -32.4°C | 61.4% | 0hPa | 2.5V | 00:00:00 | 00:00:00 | 00:00:00 | |
| OM5KV | 2026-09-02 03:58:35 | 48.32370 | 15.45802 | 86° | 55km/h | 8192m | -5.6m/s | -32.4°C | 56.7% | 0hPa | 2.5V | 00:00:00 | 00:00:00 | 00:00:00 | |
| OE5WHR-10 | 2026-09-02 03:58:34 | 48.32368 | 15.45762 | 86° | 49km/h | 8203m | -5.5m/s | -32.5°C | 66.7% | 0hPa | 2.5V | 00:00:00 | 02:09:51 | 00:00:00 | |
| OE5MMP-10 | 2026-09-02 03:58:33 | 48.32367 | 15.45742 | 88° | 47km/h | 8209m | -5.4m/s | -32.5°C | 66.8% | 0hPa | 2.5V | 00:00:00 | 02:09:50 | 00:00:00 | |
| OE3JTB-15 | 2026-09-02 03:58:32 | 48.32367 | 15.45723 | 90° | 51km/h | 8214m | -5.0m/s | -32.5°C | 66.6% | 0hPa | 2.5V | 00:00:00 | 00:00:00 | 00:00:00 | |
| OE5DRO-10 | 2026-09-02 03:58:31 | 48.32366 | 15.45704 | 89° | 49km/h | 8219m | -5.4m/s | -32.6°C | 66.2% | 0hPa | 2.5V | 00:00:00 | 00:00:00 | 00:00:00 | |
| OM5KV | 2026-09-02 03:58:29 | 48.32366 | 15.45686 | 91° | 47km/h | 8225m | -5.5m/s | -32.7°C | 60.6% | 0hPa | 2.5V | 00:00:00 | 00:00:00 | 00:00:00 | |
| DO3MHA-12 | 2026-09-02 03:58:28 | 48.32366 | 15.45650 | 93° | 47km/h | 8236m | -5.4m/s | -32.7°C | 64.8% | 0hPa | 2.5V | 00:00:00 | 02:09:45 | 00:00:00 | |
| PG1ADW-2 | 2026-09-02 03:58:26 | 48.32368 | 15.45614 | 95° | 51km/h | 8247m | -5.6m/s | -32.9°C | 64.5% | 0hPa | 2.5V | 00:00:00 | 00:00:00 | 00:00:00 | |
| OE5MMP-10 | 2026-09-02 03:58:23 | 48.32372 | 15.45561 | 98° | 49km/h | 8264m | -5.5m/s | -33.0°C | 65.2% | 0hPa | 2.6V | 07:59:00 | 02:09:40 | 00:00:00 | |
| PETON7-10 | 2026-09-02 03:58:21 | 48.32376 | 15.45525 | 101° | 53km/h | 8275m | -5.1m/s | -33.1°C | 65.2% | 0hPa | 2.6V | 00:00:00 | 02:09:38 | 00:00:00 | |
| DO3MHA-12 | 2026-09-02 03:58:18 | 48.32382 | 15.45471 | 101° | 69km/h | 8291m | -5.3m/s | -33.2°C | 65.0% | 0hPa | 2.6V | 00:00:00 | 02:09:35 | 00:00:00 | |
| OE3OSB-13 | 2026-09-02 03:58:17 | 48.32388 | 15.45434 | 102° | 49km/h | 8302m | -5.4m/s | -33.4°C | 60.2% | -1.0hPa | 2.5V | 00:00:00 | 00:00:00 | 00:00:00 | |
| OE5MMP-10 | 2026-09-02 03:58:13 | 48.32395 | 15.45376 | 101° | 57km/h | 8319m | -5.1m/s | -33.4°C | 67.7% | 0hPa | 2.5V | 00:00:00 | 02:09:30 | 00:00:00 | |
| OE5DXL-15 | 2026-09-02 03:58:12 | 48.32398 | 15.45356 | 102° | 60km/h | 8324m | -5.2m/s | -33.5°C | 68.0% | 0hPa | 2.5V | 00:00:00 | 00:00:00 | 00:00:00 | |
| OM5KV | 2026-09-02 03:58:11 | 48.32398 | 15.45356 | 102° | 53km/h | 8324m | -5.3m/s | -33.5°C | 62.6% | 0hPa | 2.5V | 00:00:00 | 00:00:00 | 00:00:00 | |
| PETON7-10 | 2026-09-02 03:58:06 | 48.32415 | 15.45232 | 102° | 60km/h | 8355m | -5.1m/s | -33.8°C | 68.5% | 0hPa | 2.5V | 00:00:00 | 00:00:00 | 00:00:00 | |
| OE5MMP-10 | 2026-09-02 03:58:03 | 48.32423 | 15.45166 | 100° | 60km/h | 8370m | -4.6m/s | -33.9°C | 67.8% | 0hPa | 2.6V | 00:00:00 | 02:09:20 | 00:00:00 | |
| OE3OSB-13 | 2026-09-02 03:57:46 | 48.32461 | 15.44752 | 94° | 62km/h | 8460m | -5.2m/s | -34.7°C | 69.1% | -1.0hPa | 2.6V | 00:00:00 | 00:00:00 | 00:00:00 | |
| OE5DXL-15 | 2026-09-02 03:57:42 | 48.32464 | 15.44681 | 93° | 66km/h | 8475m | -5.0m/s | -34.7°C | 75.0% | 0hPa | 2.6V | 00:00:00 | 00:00:00 | 00:00:00 | |
| PETON7-10 | 2026-09-02 03:57:36 | 48.32466 | 15.44533 | 92° | 66km/h | 8505m | -4.8m/s | -35.0°C | 76.4% | 0hPa | 2.6V | 00:00:00 | 02:08:53 | 00:00:00 | |
| OE5DRO-10 | 2026-09-02 03:57:34 | 48.32466 | 15.44483 | 92° | 66km/h | 8515m | -4.7m/s | -35.0°C | 77.1% | 0hPa | 2.6V | 08:00:00 | 00:00:00 | 00:00:00 | |
| OE5MMP-10 | 2026-09-02 03:57:33 | 48.32467 | 15.44458 | 90° | 66km/h | 8520m | -5.0m/s | -35.0°C | 77.3% | 0hPa | 2.5V | 00:00:00 | 02:08:50 | 00:00:00 | |
| OE5WHR-10 | 2026-09-02 03:57:31 | 48.32466 | 15.44408 | 89° | 66km/h | 8530m | -4.9m/s | -35.1°C | 78.6% | 0hPa | 2.5V | 00:00:00 | 02:08:48 | 00:00:00 | |
| OM5KV | 2026-09-02 03:57:30 | 48.32466 | 15.44408 | 89° | 66km/h | 8530m | -5.0m/s | -35.1°C | 72.4% | 0hPa | 2.5V | 08:01:00 | 00:00:00 | 00:00:00 | |
| PG1ADW-2 | 2026-09-02 03:57:26 | 48.32462 | 15.44282 | 86° | 66km/h | 8555m | -4.9m/s | -35.1°C | 80.6% | 0hPa | 2.5V | 00:00:00 | 00:00:00 | 00:00:00 | |
| OM5KV | 2026-09-02 03:57:24 | 48.32461 | 15.44257 | 87° | 68km/h | 8559m | -4.9m/s | -35.2°C | 74.5% | 0hPa | 2.6V | 08:01:00 | 00:00:00 | 00:00:00 | |
| OE5MMP-10 | 2026-09-02 03:57:23 | 48.32458 | 15.44206 | 84° | 66km/h | 8570m | -4.9m/s | -35.2°C | 81.4% | 0hPa | 2.6V | 08:00:00 | 02:08:40 | 00:00:00 | |
| PETON7-10 | 2026-09-02 03:57:20 | 48.32452 | 15.44131 | 85° | 64km/h | 8585m | -4.9m/s | -35.3°C | 81.3% | 0hPa | 2.5V | 00:00:00 | 00:00:00 | 00:00:00 | |
| OM5KV | 2026-09-02 03:57:18 | 48.32450 | 15.44105 | 84° | 68km/h | 8590m | -4.9m/s | -35.4°C | 74.5% | 0hPa | 2.5V | 08:01:00 | 00:00:00 | 00:00:00 | |
| OE3OSB-13 | 2026-09-02 03:57:15 | 48.32438 | 15.43981 | 80° | 64km/h | 8615m | -5.2m/s | -35.5°C | 73.9% | -1.0hPa | 2.5V | 00:00:00 | 00:00:00 | 00:00:00 | |
| OE5MMP-10 | 2026-09-02 03:57:13 | 48.32435 | 15.43957 | 80° | 60km/h | 8620m | -5.0m/s | -35.5°C | 81.0% | 0hPa | 2.5V | 00:00:00 | 02:08:30 | 00:00:00 | |
| OE5DXL-15 | 2026-09-02 03:57:12 | 48.32432 | 15.43933 | 79° | 55km/h | 8625m | -4.9m/s | -35.6°C | 81.3% | 0hPa | 2.5V | 08:01:00 | 00:00:00 | 00:00:00 | |
| OE5WHR-10 | 2026-09-02 03:57:10 | 48.32426 | 15.43886 | 79° | 55km/h | 8635m | -4.5m/s | -35.6°C | 80.7% | 0hPa | 2.6V | 08:01:00 | 00:00:00 | 00:00:00 | |
| PG1ADW-2 | 2026-09-02 03:57:06 | 48.32412 | 15.43797 | 77° | 53km/h | 8654m | -4.6m/s | -35.7°C | 79.0% | 0hPa | 2.6V | 00:00:00 | 00:00:00 | 00:00:00 | |
| PETON7-10 | 2026-09-02 03:57:05 | 48.32409 | 15.43776 | 77° | 53km/h | 8659m | -4.9m/s | -35.8°C | 79.1% | 0hPa | 2.6V | 00:00:00 | 00:00:00 | 00:00:00 | |
| OE5DRO-10 | 2026-09-02 03:56:56 | 48.32387 | 15.43599 | 85° | 53km/h | 8701m | -4.7m/s | -36.2°C | 79.6% | 0hPa | 2.6V | 00:00:00 | 00:00:00 | 00:00:00 | |
| OM5KV | 2026-09-02 03:56:55 | 48.32387 | 15.43599 | 85° | 51km/h | 8701m | -4.7m/s | -36.2°C | 73.1% | 0hPa | 2.6V | 08:02:00 | 00:00:00 | 00:00:00 | |
| OE5MMP-10 | 2026-09-02 03:56:53 | 48.32383 | 15.43541 | 85° | 53km/h | 8715m | -4.4m/s | -36.3°C | 79.3% | 0hPa | 2.6V | 00:00:00 | 02:08:10 | 00:00:00 | |
| PETON7-10 | 2026-09-02 03:56:50 | 48.32381 | 15.43482 | 87° | 55km/h | 8728m | -4.4m/s | -36.4°C | 80.1% | 0hPa | 2.5V | 00:00:00 | 02:08:07 | 00:00:00 | |
| OE5WHR-10 | 2026-09-02 03:56:49 | 48.32380 | 15.43463 | 90° | 58km/h | 8733m | -4.5m/s | -36.4°C | 80.1% | 0hPa | 2.5V | 00:00:00 | 00:00:00 | 00:00:00 | |
| PG1ADW-2 | 2026-09-02 03:56:46 | 48.32380 | 15.43402 | 91° | 58km/h | 8747m | -4.7m/s | -36.6°C | 80.1% | 0hPa | 2.5V | 00:00:00 | 02:08:03 | 00:00:00 | |
| OE5MMP-10 | 2026-09-02 03:56:43 | 48.32382 | 15.43341 | 94° | 58km/h | 8761m | -4.4m/s | -36.7°C | 79.8% | 0hPa | 2.5V | 00:00:00 | 02:08:00 | 00:00:00 | |
| OE5DXL-15 | 2026-09-02 03:56:42 | 48.32383 | 15.43320 | 95° | 64km/h | 8766m | -4.4m/s | -36.7°C | 80.0% | 0hPa | 2.5V | 00:00:00 | 00:00:00 | 00:00:00 | |
| OE5DRO-10 | 2026-09-02 03:56:37 | 48.32388 | 15.43211 | 94° | 62km/h | 8789m | -4.6m/s | -36.9°C | 84.4% | 0hPa | 2.5V | 00:00:00 | 00:00:00 | 00:00:00 | |
| OE3JTB-15 | 2026-09-02 03:56:36 | 48.32388 | 15.43188 | 94° | 69km/h | 8794m | -4.7m/s | -37.0°C | 86.0% | 0hPa | 2.6V | 00:00:00 | 02:07:53 | 00:00:00 | |
| PETON7-10 | 2026-09-02 03:56:35 | 48.32390 | 15.43165 | 94° | 62km/h | 8799m | -4.8m/s | -37.0°C | 88.0% | 0hPa | 2.6V | 08:01:00 | 00:00:00 | 00:00:00 | |
| OE5MMP-10 | 2026-09-02 03:56:33 | 48.32392 | 15.43119 | 94° | 62km/h | 8808m | -4.8m/s | -37.0°C | 90.8% | 0hPa | 2.5V | 00:00:00 | 02:07:50 | 00:00:00 | |
| OE5WHR-10 | 2026-09-02 03:56:28 | 48.32396 | 15.43001 | 95° | 69km/h | 8832m | -5.0m/s | -37.2°C | 91.0% | 0hPa | 2.5V | 00:00:00 | 02:07:45 | 00:00:00 | |
| PG1ADW-2 | 2026-09-02 03:56:26 | 48.32398 | 15.42954 | 93° | 69km/h | 8843m | -5.1m/s | -37.3°C | 90.6% | 0hPa | 2.5V | 08:01:00 | 00:00:00 | 00:00:00 | |
| OE5MMP-10 | 2026-09-02 03:56:23 | 48.32401 | 15.42882 | 94° | 69km/h | 8857m | -5.0m/s | -37.4°C | 90.2% | 0hPa | 2.6V | 00:00:00 | 02:07:40 | 00:00:00 | |
| OM5KV | 2026-09-02 03:56:21 | 48.32402 | 15.42858 | 94° | 66km/h | 8862m | -4.4m/s | -37.4°C | 81.9% | 0hPa | 2.6V | 08:02:00 | 00:00:00 | 00:00:00 | |
| PETON7-10 | 2026-09-02 03:56:20 | 48.32404 | 15.42807 | 94° | 73km/h | 8871m | -4.4m/s | -37.4°C | 89.6% | 0hPa | 2.6V | 00:00:00 | 00:00:00 | 00:00:00 | |
| OE5DRO-10 | 2026-09-02 03:56:18 | 48.32405 | 15.42756 | 93° | 75km/h | 8881m | -5.0m/s | -37.4°C | 88.7% | 0hPa | 2.6V | 00:00:00 | 00:00:00 | 00:00:00 | |
| OM5KV | 2026-09-02 03:56:15 | 48.32406 | 15.42703 | 92° | 71km/h | 8891m | -4.9m/s | -37.5°C | 81.5% | 0hPa | 2.6V | 08:02:00 | 00:00:00 | 00:00:00 | |
| OE5MMP-10 | 2026-09-02 03:56:13 | 48.32406 | 15.42620 | 89° | 75km/h | 8905m | -4.6m/s | -37.7°C | 91.5% | 0hPa | 2.6V | 00:00:00 | 02:07:30 | 00:00:00 | |
| OE5DXL-15 | 2026-09-02 03:56:12 | 48.32405 | 15.42592 | 89° | 71km/h | 8911m | -5.2m/s | -37.7°C | 0% | 0hPa | 2.6V | 00:00:00 | 00:00:00 | 00:00:00 | |
| OE5WHR-10 | 2026-09-02 03:56:07 | 48.32400 | 15.42450 | 86° | 73km/h | 8936m | -4.7m/s | -37.7°C | 99.0% | 0hPa | 2.6V | 00:00:00 | 00:00:00 | 00:00:00 | |
| PETON7-10 | 2026-09-02 03:56:05 | 48.32397 | 15.42393 | 85° | 75km/h | 8947m | -4.8m/s | -37.8°C | 97.8% | 0hPa | 2.5V | 00:00:00 | 02:07:22 | 00:00:00 | |
| OE5MMP-10 | 2026-09-02 03:56:03 | 48.32393 | 15.42336 | 84° | 75km/h | 8957m | -5.4m/s | -37.8°C | 97.3% | 0hPa | 2.5V | 00:00:00 | 02:07:20 | 00:00:00 | |
| OE5DRO-10 | 2026-09-02 03:55:59 | 48.32384 | 15.42223 | 83° | 69km/h | 8977m | -5.0m/s | -38.0°C | 97.4% | 0hPa | 2.5V | 00:00:00 | 00:00:00 | 00:00:00 | |
| OM5KV | 2026-09-02 03:55:58 | 48.32384 | 15.42223 | 84° | 75km/h | 8977m | -5.0m/s | -38.0°C | 89.3% | 0hPa | 2.5V | 08:02:00 | 00:00:00 | 00:00:00 | |
| OE5MMP-10 | 2026-09-02 03:55:53 | 48.32367 | 15.42054 | 80° | 66km/h | 9007m | -4.7m/s | -38.2°C | 97.4% | 0hPa | 2.5V | 08:02:00 | 02:07:10 | 00:00:00 | |
| OM5KV | 2026-09-02 03:55:51 | 48.32364 | 15.42027 | 79° | 73km/h | 9011m | -4.7m/s | -38.3°C | 88.9% | 0hPa | 2.5V | 08:02:00 | 00:00:00 | 00:00:00 | |
| PETON7-10 | 2026-09-02 03:55:50 | 48.32356 | 15.41975 | 77° | 68km/h | 9021m | -4.5m/s | -38.3°C | 95.9% | 0hPa | 2.5V | 00:00:00 | 00:00:00 | 00:00:00 | |
| PG1ADW-2 | 2026-09-02 03:55:46 | 48.32344 | 15.41879 | 84° | 71km/h | 9040m | -4.7m/s | -38.4°C | 94.7% | 0hPa | 2.5V | 00:00:00 | 00:00:00 | 00:00:00 | |
| OM5KV | 2026-09-02 03:55:44 | 48.32342 | 15.41856 | 87° | 62km/h | 9045m | -4.8m/s | -38.5°C | 86.5% | 0hPa | 2.5V | 08:02:00 | 00:00:00 | 00:00:00 | |
| OE5MMP-10 | 2026-09-02 03:55:43 | 48.32341 | 15.41807 | 88° | 69km/h | 9055m | -4.8m/s | -38.5°C | 94.5% | 0hPa | 2.5V | 00:00:00 | 02:07:00 | 00:00:00 | |
| OE5DXL-15 | 2026-09-02 03:55:42 | 48.32340 | 15.41782 | 88° | 78km/h | 9060m | -5.1m/s | -38.5°C | 94.3% | 0hPa | 2.5V | 00:00:00 | 00:00:00 | 00:00:00 | |
| OE3OSB-13 | 2026-09-02 03:55:41 | 48.32340 | 15.41757 | 87° | 68km/h | 9065m | -4.8m/s | -38.6°C | 86.0% | -1.0hPa | 2.6V | 00:00:00 | 00:00:00 | 00:00:00 | |
| OE5DRO-10 | 2026-09-02 03:55:40 | 48.32339 | 15.41731 | 90° | 77km/h | 9070m | -5.1m/s | -38.6°C | 94.1% | 0hPa | 2.6V | 00:00:00 | 00:00:00 | 00:00:00 | |
| OE3JTB-15 | 2026-09-02 03:55:38 | 48.32339 | 15.41679 | 89° | 82km/h | 9080m | -4.8m/s | -38.7°C | 93.9% | 0hPa | 2.5V | 00:00:00 | 00:00:00 | 00:00:00 | |
| PETON7-10 | 2026-09-02 03:55:35 | 48.32338 | 15.41597 | 89° | 80km/h | 9096m | -5.0m/s | -38.8°C | 93.5% | 0hPa | 2.5V | 00:00:00 | 00:00:00 | 00:00:00 | |
| OM5KV | 2026-09-02 03:55:34 | 48.32338 | 15.41597 | 89° | 73km/h | 9096m | -5.1m/s | -38.9°C | 85.5% | 0hPa | 2.5V | 08:02:00 | 00:00:00 | 00:00:00 | |
| OE5MMP-10 | 2026-09-02 03:55:33 | 48.32337 | 15.41540 | 90° | 78km/h | 9106m | -4.8m/s | -38.9°C | 93.0% | 0hPa | 2.5V | 00:00:00 | 02:06:50 | 00:00:00 | |
| OM5KV | 2026-09-02 03:55:28 | 48.32335 | 15.41423 | 89° | 80km/h | 9127m | -4.7m/s | -39.1°C | 84.2% | 0hPa | 2.5V | 08:02:00 | 00:00:00 | 00:00:00 | |
| PG1ADW-2 | 2026-09-02 03:55:26 | 48.32332 | 15.41332 | 88° | 86km/h | 9142m | -4.9m/s | -39.1°C | 91.8% | 0hPa | 2.5V | 00:00:00 | 02:06:43 | 00:00:00 | |
| OE5WHR-10 | 2026-09-02 03:55:25 | 48.32331 | 15.41301 | 87° | 86km/h | 9147m | -5.3m/s | -39.2°C | 91.4% | 0hPa | 2.5V | 00:00:00 | 02:06:42 | 00:00:00 | |
| OE5MMP-10 | 2026-09-02 03:55:23 | 48.32329 | 15.41238 | 86° | 86km/h | 9157m | -5.0m/s | -39.3°C | 91.1% | 0hPa | 2.5V | 00:00:00 | 02:06:40 | 00:00:00 | |
| OE5DRO-10 | 2026-09-02 03:55:21 | 48.32326 | 15.41174 | 87° | 86km/h | 9167m | -4.9m/s | -39.3°C | 90.8% | 0hPa | 2.5V | 00:00:00 | 00:00:00 | 00:00:00 | |
| PETON7-10 | 2026-09-02 03:55:20 | 48.32325 | 15.41142 | 85° | 86km/h | 9172m | -4.8m/s | -39.4°C | 91.0% | 0hPa | 2.5V | 00:00:00 | 02:06:37 | 00:00:00 | |
| OM5KV | 2026-09-02 03:55:16 | 48.32318 | 15.41045 | 85° | 86km/h | 9187m | -4.9m/s | -39.6°C | 83.4% | 0hPa | 2.5V | 08:03:00 | 00:00:00 | 00:00:00 | |
| OE5MMP-10 | 2026-09-02 03:55:13 | 48.32309 | 15.40914 | 83° | 88km/h | 9207m | -5.1m/s | -39.7°C | 91.8% | 0hPa | 2.5V | 00:00:00 | 02:06:30 | 00:00:00 | |
| OE5DXL-15 | 2026-09-02 03:55:12 | 48.32306 | 15.40882 | 82° | 84km/h | 9212m | -4.7m/s | -39.7°C | 92.0% | 0hPa | 2.5V | 00:00:00 | 00:00:00 | 00:00:00 | |
| OE3OSB-13 | 2026-09-02 03:55:10 | 48.32298 | 15.40816 | 81° | 86km/h | 9222m | -4.5m/s | -39.9°C | 83.5% | -1.0hPa | 2.5V | 00:00:00 | 00:00:00 | 00:00:00 | |
| OE3JTB-15 | 2026-09-02 03:55:09 | 48.32295 | 15.40783 | 80° | 82km/h | 9227m | -5.0m/s | -39.9°C | 91.8% | 0hPa | 2.5V | 00:00:00 | 02:06:26 | 00:00:00 | |
| OM5KV | 2026-09-02 03:55:08 | 48.32295 | 15.40784 | 80° | 88km/h | 9227m | -5.1m/s | -39.9°C | 83.7% | 0hPa | 2.5V | 08:03:00 | 00:00:00 | 00:00:00 | |
| PG1ADW-2 | 2026-09-02 03:55:06 | 48.32282 | 15.40686 | 79° | 84km/h | 9242m | -5.4m/s | -40.0°C | 91.4% | 0hPa | 2.5V | 00:00:00 | 00:00:00 | 00:00:00 | |
| PETON7-10 | 2026-09-02 03:55:05 | 48.32278 | 15.40654 | 78° | 84km/h | 9248m | -5.2m/s | -40.0°C | 91.2% | 0hPa | 2.5V | 00:00:00 | 00:00:00 | 00:00:00 | |
| OE5WHR-10 | 2026-09-02 03:55:04 | 48.32273 | 15.40622 | 78° | 82km/h | 9253m | -5.5m/s | -40.1°C | 90.8% | 0hPa | 2.5V | 00:00:00 | 00:00:00 | 00:00:00 | |
| OE5MMP-10 | 2026-09-02 03:55:03 | 48.32269 | 15.40590 | 78° | 86km/h | 9259m | -5.2m/s | -40.1°C | 90.4% | 0hPa | 2.5V | 00:00:00 | 02:06:20 | 00:00:00 | |
| OE5DRO-10 | 2026-09-02 03:55:02 | 48.32264 | 15.40559 | 77° | 82km/h | 9264m | -5.4m/s | -40.2°C | 89.6% | 0hPa | 2.5V | 00:00:00 | 00:00:00 | 00:00:00 | |
| OM5KV | 2026-09-02 03:54:58 | 48.32249 | 15.40464 | 77° | 84km/h | 9280m | -5.3m/s | -40.4°C | 79.7% | 0hPa | 2.5V | 08:03:00 | 00:00:00 | 00:00:00 | |
| OM5KV | 2026-09-02 03:54:56 | 48.32239 | 15.40402 | 77° | 84km/h | 9291m | -5.3m/s | -40.4°C | 78.7% | 0hPa | 2.5V | 08:03:00 | 00:00:00 | 00:00:00 | |
| OE5MMP-10 | 2026-09-02 03:54:53 | 48.32218 | 15.40277 | 77° | 78km/h | 9312m | -4.6m/s | -40.5°C | 86.9% | 0hPa | 2.5V | 00:00:00 | 02:06:10 | 00:00:00 | |
| PETON7-10 | 2026-09-02 03:54:50 | 48.32203 | 15.40186 | 76° | 77km/h | 9326m | -4.8m/s | -40.6°C | 88.2% | 0hPa | 2.6V | 00:00:00 | 00:00:00 | 00:00:00 | |
| PG1ADW-2 | 2026-09-02 03:54:46 | 48.32184 | 15.40073 | 78° | 78km/h | 9346m | -4.6m/s | -40.7°C | 88.7% | 0hPa | 2.6V | 00:00:00 | 00:00:00 | 00:00:00 | |
| OE5MMP-10 | 2026-09-02 03:54:43 | 48.32172 | 15.39990 | 79° | 77km/h | 9361m | -5.1m/s | -40.7°C | 90.2% | 0hPa | 2.6V | 00:00:00 | 02:06:00 | 00:00:00 | |
| OE5DXL-15 | 2026-09-02 03:54:42 | 48.32169 | 15.39962 | 80° | 84km/h | 9367m | -5.4m/s | -40.7°C | 90.7% | 0hPa | 2.6V | 00:00:00 | 00:00:00 | 00:00:00 | |
| OM5KV | 2026-09-02 03:54:41 | 48.32169 | 15.39962 | 81° | 75km/h | 9367m | -5.4m/s | -40.8°C | 82.4% | 0hPa | 2.6V | 08:03:00 | 00:00:00 | 00:00:00 | |
| OE3JTB-15 | 2026-09-02 03:54:40 | 48.32162 | 15.39906 | 81° | 84km/h | 9378m | -5.6m/s | -40.8°C | 91.5% | 0hPa | 2.6V | 08:03:00 | 00:00:00 | 00:00:00 | |
| OE3OSB-13 | 2026-09-02 03:54:39 | 48.32159 | 15.39879 | 81° | 73km/h | 9383m | -5.5m/s | -40.9°C | 83.2% | -1.0hPa | 2.5V | 00:00:00 | 00:00:00 | 00:00:00 | |
| OM5KV | 2026-09-02 03:54:37 | 48.32157 | 15.39850 | 84° | 75km/h | 9389m | -5.3m/s | -40.9°C | 83.6% | 0hPa | 2.5V | 08:03:00 | 00:00:00 | 00:00:00 | |
| PETON7-10 | 2026-09-02 03:54:35 | 48.32149 | 15.39763 | 84° | 84km/h | 9405m | -5.2m/s | -41.0°C | 92.3% | 0hPa | 2.5V | 00:00:00 | 02:05:52 | 00:00:00 | |
| OE5MMP-10 | 2026-09-02 03:54:33 | 48.32145 | 15.39703 | 85° | 84km/h | 9415m | -5.3m/s | -41.0°C | 92.2% | 0hPa | 2.5V | 00:00:00 | 02:05:50 | 00:00:00 | |
| OM5KV | 2026-09-02 03:54:31 | 48.32143 | 15.39673 | 85° | 80km/h | 9420m | -5.1m/s | -41.1°C | 83.8% | 0hPa | 2.5V | 08:03:00 | 00:00:00 | 00:00:00 | |
| OM5KV | 2026-09-02 03:54:29 | 48.32139 | 15.39611 | 85° | 82km/h | 9431m | -5.1m/s | -41.2°C | 83.3% | 0hPa | 2.5V | 08:04:00 | 00:00:00 | 00:00:00 | |
| PG1ADW-2 | 2026-09-02 03:54:26 | 48.32131 | 15.39484 | 86° | 91km/h | 9452m | -5.3m/s | -41.3°C | 90.5% | 0hPa | 2.5V | 00:00:00 | 00:00:00 | 00:00:00 | |
| OM5KV | 2026-09-02 03:54:25 | 48.32131 | 15.39484 | 86° | 86km/h | 9452m | -5.3m/s | -41.3°C | 82.0% | 0hPa | 2.6V | 08:04:00 | 00:00:00 | 00:00:00 | |
| OE5DRO-10 | 2026-09-02 03:54:24 | 48.32127 | 15.39419 | 86° | 91km/h | 9462m | -4.9m/s | -41.4°C | 90.7% | 0hPa | 2.6V | 00:00:00 | 00:00:00 | 00:00:00 | |
| OE5MMP-10 | 2026-09-02 03:54:23 | 48.32125 | 15.39386 | 84° | 89km/h | 9467m | -5.2m/s | -41.4°C | 91.1% | 0hPa | 2.6V | 08:03:00 | 02:05:40 | 00:00:00 | |
| OE5WHR-10 | 2026-09-02 03:54:22 | 48.32122 | 15.39353 | 84° | 91km/h | 9473m | -5.4m/s | -41.5°C | 91.2% | 0hPa | 2.5V | 00:00:00 | 02:05:39 | 00:00:00 | |
| PETON7-10 | 2026-09-02 03:54:20 | 48.32117 | 15.39286 | 83° | 91km/h | 9484m | -4.9m/s | -41.5°C | 91.7% | 0hPa | 2.5V | 08:03:00 | 00:00:00 | 00:00:00 | |
| OM5KV | 2026-09-02 03:54:17 | 48.32110 | 15.39219 | 82° | 91km/h | 9494m | -5.4m/s | -41.7°C | 83.5% | 0hPa | 2.6V | 08:04:00 | 00:00:00 | 00:00:00 | |
| OE5MMP-10 | 2026-09-02 03:54:13 | 48.32092 | 15.39047 | 80° | 93km/h | 9521m | -5.3m/s | -41.8°C | 92.5% | 0hPa | 2.6V | 00:00:00 | 02:05:30 | 00:00:00 | |
| OE5DXL-15 | 2026-09-02 03:54:12 | 48.32087 | 15.39012 | 79° | 86km/h | 9526m | -5.4m/s | -41.8°C | 92.3% | 0hPa | 2.6V | 00:00:00 | 00:00:00 | 00:00:00 | |
| OE3JTB-15 | 2026-09-02 03:54:11 | 48.32083 | 15.38977 | 80° | 86km/h | 9532m | -5.3m/s | -41.9°C | 92.0% | 0hPa | 2.6V | 00:00:00 | 00:00:00 | 00:00:00 | |
| OE3OSB-13 | 2026-09-02 03:54:08 | 48.32063 | 15.38840 | 76° | 91km/h | 9553m | -5.4m/s | -42.1°C | 81.4% | -1.0hPa | 2.6V | 00:00:00 | 00:00:00 | 00:00:00 | |
| PG1ADW-2 | 2026-09-02 03:54:06 | 48.32057 | 15.38806 | 76° | 86km/h | 9559m | -5.4m/s | -42.0°C | 89.4% | 0hPa | 2.6V | 00:00:00 | 02:05:23 | 00:00:00 | |
| PETON7-10 | 2026-09-02 03:54:05 | 48.32051 | 15.38773 | 75° | 88km/h | 9565m | -5.1m/s | -42.1°C | 89.0% | 0hPa | 2.6V | 00:00:00 | 00:00:00 | 00:00:00 | |
| OE5MMP-10 | 2026-09-02 03:54:03 | 48.32038 | 15.38705 | 75° | 88km/h | 9575m | -4.9m/s | -42.2°C | 88.5% | 0hPa | 2.6V | 00:00:00 | 02:05:20 | 00:00:00 | |
| OE5WHR-10 | 2026-09-02 03:54:01 | 48.32025 | 15.38640 | 73° | 82km/h | 9585m | -5.1m/s | -42.3°C | 88.2% | 0hPa | 2.6V | 08:04:00 | 00:00:00 | 00:00:00 | |
| OM5KV | 2026-09-02 03:54:00 | 48.32025 | 15.38640 | 74° | 91km/h | 9585m | -5.2m/s | -42.3°C | 79.7% | 0hPa | 2.5V | 08:04:00 | 00:00:00 | 00:00:00 | |
| OM5KV | 2026-09-02 03:53:54 | 48.31984 | 15.38451 | 72° | 86km/h | 9617m | -5.5m/s | -42.6°C | 79.5% | 0hPa | 2.5V | 08:04:00 | 00:00:00 | 00:00:00 | |
| OE5MMP-10 | 2026-09-02 03:53:53 | 48.31971 | 15.38391 | 71° | 80km/h | 9628m | -5.5m/s | -42.7°C | 88.0% | 0hPa | 2.5V | 00:00:00 | 02:05:10 | 00:00:00 | |
| PETON7-10 | 2026-09-02 03:53:50 | 48.31951 | 15.38302 | 72° | 77km/h | 9645m | -5.4m/s | -42.8°C | 87.5% | 0hPa | 2.5V | 00:00:00 | 02:05:07 | 00:00:00 | |
| OM5KV | 2026-09-02 03:53:48 | 48.31944 | 15.38273 | 72° | 82km/h | 9650m | -5.3m/s | -42.9°C | 79.0% | 0hPa | 2.5V | 08:04:00 | 00:00:00 | 00:00:00 | |
| PG1ADW-2 | 2026-09-02 03:53:46 | 48.31925 | 15.38186 | 73° | 77km/h | 9666m | -5.0m/s | -43.1°C | 87.2% | 0hPa | 2.5V | 00:00:00 | 00:00:00 | 00:00:00 | |
| OE5MMP-10 | 2026-09-02 03:53:43 | 48.31908 | 15.38102 | 73° | 75km/h | 9682m | -5.1m/s | -43.2°C | 87.9% | 0hPa | 2.5V | 00:00:00 | 02:05:00 | 00:00:00 | |
| OE5DXL-15 | 2026-09-02 03:53:42 | 48.31903 | 15.38075 | 75° | 80km/h | 9687m | -5.0m/s | -43.3°C | 88.1% | 0hPa | 2.5V | 00:00:00 | 00:00:00 | 00:00:00 | |
| OE5WHR-10 | 2026-09-02 03:53:40 | 48.31892 | 15.38020 | 75° | 78km/h | 9698m | -5.5m/s | -43.4°C | 88.2% | 0hPa | 2.5V | 00:00:00 | 00:00:00 | 00:00:00 | |
| OM5KV | 2026-09-02 03:53:36 | 48.31878 | 15.37937 | 79° | 73km/h | 9714m | -5.1m/s | -43.6°C | 79.6% | 0hPa | 2.5V | 08:05:00 | 00:00:00 | 00:00:00 | |
| PETON7-10 | 2026-09-02 03:53:35 | 48.31871 | 15.37882 | 79° | 78km/h | 9725m | -5.5m/s | -43.6°C | 89.0% | 0hPa | 2.5V | 00:00:00 | 00:00:00 | 00:00:00 | |
| OE5MMP-10 | 2026-09-02 03:53:33 | 48.31863 | 15.37827 | 80° | 78km/h | 9736m | -5.1m/s | -43.7°C | 90.0% | 0hPa | 2.6V | 00:00:00 | 02:04:50 | 00:00:00 | |
| OE5DRO-10 | 2026-09-02 03:53:27 | 48.31846 | 15.37653 | 84° | 86km/h | 9768m | -5.0m/s | -44.0°C | 91.4% | 0hPa | 2.6V | 00:00:00 | 00:00:00 | 00:00:00 | |
| PG1ADW-2 | 2026-09-02 03:53:26 | 48.31844 | 15.37623 | 83° | 88km/h | 9773m | -5.3m/s | -44.1°C | 91.8% | 0hPa | 2.6V | 08:04:00 | 00:00:00 | 00:00:00 | |
| OM5KV | 2026-09-02 03:53:25 | 48.31844 | 15.37623 | 83° | 80km/h | 9773m | -5.3m/s | -44.1°C | 82.6% | 0hPa | 2.5V | 08:05:00 | 00:00:00 | 00:00:00 | |
| OE5MMP-10 | 2026-09-02 03:53:23 | 48.31836 | 15.37531 | 83° | 86km/h | 9790m | -5.3m/s | -44.2°C | 92.4% | 0hPa | 2.5V | 00:00:00 | 02:04:40 | 00:00:00 | |
| PETON7-10 | 2026-09-02 03:53:20 | 48.31828 | 15.37436 | 83° | 89km/h | 9806m | -5.4m/s | -44.4°C | 93.1% | 0hPa | 2.5V | 00:00:00 | 00:00:00 | 00:00:00 | |
| OE5WHR-10 | 2026-09-02 03:53:19 | 48.31825 | 15.37404 | 84° | 91km/h | 9811m | -5.6m/s | -44.4°C | 93.3% | 0hPa | 2.5V | 00:00:00 | 02:04:36 | 00:00:00 | |
| OM5KV | 2026-09-02 03:53:16 | 48.31820 | 15.37339 | 83° | 88km/h | 9822m | -5.2m/s | -44.6°C | 84.0% | 0hPa | 2.5V | 08:05:00 | 00:00:00 | 00:00:00 | |
| OE5MMP-10 | 2026-09-02 03:53:13 | 48.31807 | 15.37206 | 81° | 93km/h | 9844m | -5.3m/s | -44.7°C | 91.5% | 0hPa | 2.5V | 00:00:00 | 02:04:30 | 00:00:00 | |
| OE5DXL-15 | 2026-09-02 03:53:12 | 48.31803 | 15.37172 | 81° | 91km/h | 9850m | -5.0m/s | -44.7°C | 91.0% | 0hPa | 2.5V | 00:00:00 | 00:00:00 | 00:00:00 | |
| OM5KV | 2026-09-02 03:53:11 | 48.31803 | 15.37172 | 82° | 93km/h | 9850m | -5.1m/s | -44.8°C | 81.7% | 0hPa | 2.5V | 08:05:00 | 00:00:00 | 00:00:00 | |
| OE5DRO-10 | 2026-09-02 03:53:08 | 48.31788 | 15.37034 | 81° | 95km/h | 9872m | -5.2m/s | -44.9°C | 90.4% | 0hPa | 2.5V | 00:00:00 | 00:00:00 | 00:00:00 | |
| PG1ADW-2 | 2026-09-02 03:53:06 | 48.31779 | 15.36964 | 80° | 93km/h | 9883m | -5.3m/s | -45.0°C | 90.4% | 0hPa | 2.5V | 00:00:00 | 00:00:00 | 00:00:00 | |
| PETON7-10 | 2026-09-02 03:53:05 | 48.31775 | 15.36930 | 79° | 95km/h | 9888m | -5.3m/s | -45.0°C | 90.3% | 0hPa | 2.5V | 00:00:00 | 02:04:22 | 00:00:00 | |
| OE5MMP-10 | 2026-09-02 03:53:03 | 48.31765 | 15.36859 | 79° | 95km/h | 9899m | -5.5m/s | -45.1°C | 90.0% | 0hPa | 2.5V | 00:00:00 | 02:04:20 | 00:00:00 | |
| OM5KV | 2026-09-02 03:53:01 | 48.31760 | 15.36824 | 80° | 95km/h | 9904m | -5.1m/s | -45.2°C | 80.5% | 0hPa | 2.5V | 08:05:00 | 00:00:00 | 00:00:00 | |
| OE5WHR-10 | 2026-09-02 03:52:58 | 48.31738 | 15.36684 | 77° | 88km/h | 9926m | -5.0m/s | -45.4°C | 89.3% | 0hPa | 2.5V | 00:00:00 | 00:00:00 | 00:00:00 | |
| OM5KV | 2026-09-02 03:52:55 | 48.31726 | 15.36614 | 76° | 97km/h | 9937m | -5.1m/s | -45.5°C | 79.9% | 0hPa | 2.5V | 08:05:00 | 00:00:00 | 00:00:00 | |
| OE5MMP-10 | 2026-09-02 03:52:53 | 48.31706 | 15.36510 | 74° | 89km/h | 9953m | -5.3m/s | -45.6°C | 89.3% | 0hPa | 2.5V | 08:05:00 | 02:04:10 | 00:00:00 | |
| PETON7-10 | 2026-09-02 03:52:50 | 48.31685 | 15.36409 | 73° | 84km/h | 9968m | -5.0m/s | -45.8°C | 89.6% | 0hPa | 2.6V | 00:00:00 | 00:00:00 | 00:00:00 | |
| OE5DRO-10 | 2026-09-02 03:52:49 | 48.31678 | 15.36377 | 72° | 84km/h | 9974m | -5.0m/s | -45.8°C | 89.7% | 0hPa | 2.5V | 00:00:00 | 00:00:00 | 00:00:00 | |
| PG1ADW-2 | 2026-09-02 03:52:46 | 48.31657 | 15.36282 | 73° | 84km/h | 9989m | -5.0m/s | -46.0°C | 89.9% | 0hPa | 2.5V | 00:00:00 | 02:04:03 | 00:00:00 | |
| OM5KV | 2026-09-02 03:52:44 | 48.31651 | 15.36251 | 73° | 86km/h | 9994m | -5.2m/s | -46.1°C | 80.2% | 0hPa | 2.5V | 08:06:00 | 00:00:00 | 00:00:00 | |
| OE5MMP-10 | 2026-09-02 03:52:43 | 48.31638 | 15.36191 | 73° | 80km/h | 10005m | -5.3m/s | -46.1°C | 89.8% | 0hPa | 2.5V | 00:00:00 | 02:04:00 | 00:00:00 | |
| OE5DXL-15 | 2026-09-02 03:52:42 | 48.31632 | 15.36162 | 74° | 89km/h | 10010m | -5.3m/s | -46.2°C | 89.9% | 0hPa | 2.5V | 08:05:00 | 00:00:00 | 00:00:00 | |
| OE3JTB-15 | 2026-09-02 03:52:41 | 48.31626 | 15.36132 | 76° | 89km/h | 10016m | -4.8m/s | -46.2°C | 90.1% | 0hPa | 2.6V | 00:00:00 | 00:00:00 | 00:00:00 | |
| OM5KV | 2026-09-02 03:52:38 | 48.31617 | 15.36073 | 78° | 80km/h | 10026m | -5.3m/s | -46.4°C | 80.2% | 0hPa | 2.6V | 08:06:00 | 00:00:00 | 00:00:00 | |
| OE5WHR-10 | 2026-09-02 03:52:37 | 48.31608 | 15.36014 | 79° | 89km/h | 10036m | -5.3m/s | -46.4°C | 89.8% | 0hPa | 2.6V | 00:00:00 | 00:00:00 | 00:00:00 | |
| PETON7-10 | 2026-09-02 03:52:35 | 48.31600 | 15.35953 | 81° | 88km/h | 10047m | -5.1m/s | -46.5°C | 90.3% | 0hPa | 2.6V | 00:00:00 | 00:00:00 | 00:00:00 | |
| OE5MMP-10 | 2026-09-02 03:52:33 | 48.31594 | 15.35891 | 81° | 88km/h | 10057m | -4.9m/s | -46.6°C | 90.6% | 0hPa | 2.6V | 00:00:00 | 02:03:50 | 00:00:00 | |
| OK1ALN | 2026-09-02 03:52:32 | 48.31594 | 15.35891 | 82° | 84km/h | 10057m | -5.0m/s | -46.7°C | 80.8% | 0hPa | 2.6V | 08:06:00 | 00:00:00 | 00:00:00 | |
| OE5DRO-10 | 2026-09-02 03:52:30 | 48.31584 | 15.35794 | 83° | 93km/h | 10072m | -5.3m/s | -46.7°C | 90.8% | 0hPa | 2.6V | 00:00:00 | 00:00:00 | 00:00:00 | |
| OM5KV | 2026-09-02 03:52:28 | 48.31581 | 15.35762 | 83° | 88km/h | 10078m | -5.2m/s | -46.8°C | 80.9% | 0hPa | 2.6V | 08:06:00 | 00:00:00 | 00:00:00 | |
| PG1ADW-2 | 2026-09-02 03:52:26 | 48.31572 | 15.35663 | 82° | 97km/h | 10093m | -5.0m/s | -46.8°C | 90.0% | 0hPa | 2.6V | 00:00:00 | 00:00:00 | 00:00:00 | |
| OE5MMP-10 | 2026-09-02 03:52:23 | 48.31563 | 15.35561 | 82° | 97km/h | 10108m | -5.1m/s | -46.9°C | 88.7% | 0hPa | 2.5V | 00:00:00 | 02:03:40 | 00:00:00 | |
| OM5KV | 2026-09-02 03:52:22 | 48.31563 | 15.35561 | 83° | 91km/h | 10108m | -5.2m/s | -47.0°C | 79.0% | 0hPa | 2.5V | 08:06:00 | 00:00:00 | 00:00:00 | |
| PETON7-10 | 2026-09-02 03:52:20 | 48.31553 | 15.35456 | 81° | 99km/h | 10123m | -4.8m/s | -47.0°C | 87.6% | 0hPa | 2.5V | 00:00:00 | 02:03:37 | 00:00:00 | |
| OE5WHR-10 | 2026-09-02 03:52:16 | 48.31536 | 15.35311 | 80° | 99km/h | 10142m | -4.5m/s | -47.2°C | 87.1% | 0hPa | 2.5V | 00:00:00 | 02:03:33 | 00:00:00 | |
| OE5MMP-10 | 2026-09-02 03:52:13 | 48.31522 | 15.35200 | 79° | 100km/h | 10156m | -5.0m/s | -47.3°C | 86.8% | 0hPa | 2.5V | 00:00:00 | 02:03:30 | 00:00:00 | |
| OE5DXL-15 | 2026-09-02 03:52:12 | 48.31517 | 15.35163 | 78° | 93km/h | 10161m | -4.8m/s | -47.4°C | 87.2% | 0hPa | 2.5V | 00:00:00 | 00:00:00 | 00:00:00 | |
| OE5DRO-10 | 2026-09-02 03:52:11 | 48.31511 | 15.35126 | 78° | 97km/h | 10166m | -4.9m/s | -47.4°C | 87.5% | 0hPa | 2.5V | 00:00:00 | 00:00:00 | 00:00:00 | |
| OM5KV | 2026-09-02 03:52:09 | 48.31506 | 15.35089 | 77° | 100km/h | 10171m | -5.0m/s | -47.6°C | 78.1% | 0hPa | 2.5V | 08:06:00 | 00:00:00 | 00:00:00 | |
| PG1ADW-2 | 2026-09-02 03:52:06 | 48.31479 | 15.34940 | 74° | 91km/h | 10191m | -5.0m/s | -47.7°C | 89.2% | 0hPa | 2.5V | 00:00:00 | 00:00:00 | 00:00:00 | |
| PETON7-10 | 2026-09-02 03:52:05 | 48.31472 | 15.34904 | 73° | 93km/h | 10196m | -4.9m/s | -47.7°C | 89.5% | 0hPa | 2.5V | 08:06:00 | 00:00:00 | 00:00:00 | |
| OE3OSB-13 | 2026-09-02 03:52:04 | 48.31457 | 15.34832 | 71° | 99km/h | 10206m | -5.1m/s | -47.8°C | 79.6% | -1.0hPa | 2.5V | 00:00:00 | 00:00:00 | 00:00:00 | |
| OM5KV | 2026-09-02 03:51:59 | 48.31433 | 15.34727 | 72° | 95km/h | 10222m | -5.2m/s | -48.0°C | 80.0% | 0hPa | 2.5V | 08:06:00 | 00:00:00 | 00:00:00 | |
| OE5WHR-10 | 2026-09-02 03:51:55 | 48.31397 | 15.34561 | 73° | 95km/h | 10249m | -5.1m/s | -48.2°C | 90.7% | 0hPa | 2.5V | 00:00:00 | 00:00:00 | 00:00:00 | |
| OE5MMP-10 | 2026-09-02 03:51:53 | 48.31384 | 15.34497 | 75° | 86km/h | 10259m | -5.1m/s | -48.3°C | 91.0% | 0hPa | 2.5V | 00:00:00 | 02:03:10 | 00:00:00 | |
| OE5DRO-10 | 2026-09-02 03:51:52 | 48.31378 | 15.34464 | 74° | 88km/h | 10264m | -5.2m/s | -48.4°C | 90.9% | 0hPa | 2.5V | 08:06:00 | 00:00:00 | 00:00:00 | |
| PETON7-10 | 2026-09-02 03:51:50 | 48.31367 | 15.34401 | 77° | 88km/h | 10274m | -4.9m/s | -48.4°C | 90.2% | 0hPa | 2.6V | 00:00:00 | 00:00:00 | 00:00:00 | |
| OM5KV | 2026-09-02 03:51:49 | 48.31367 | 15.34401 | 78° | 86km/h | 10274m | -5.0m/s | -48.5°C | 80.0% | 0hPa | 2.6V | 08:07:00 | 00:00:00 | 00:00:00 | |
| PG1ADW-2 | 2026-09-02 03:51:46 | 48.31347 | 15.34275 | 79° | 91km/h | 10296m | -5.4m/s | -48.7°C | 88.7% | 0hPa | 2.6V | 00:00:00 | 00:00:00 | 00:00:00 | |
| OE5MMP-10 | 2026-09-02 03:51:43 | 48.31335 | 15.34180 | 81° | 89km/h | 10312m | -5.5m/s | -48.8°C | 86.8% | 0hPa | 2.6V | 00:00:00 | 02:03:00 | 00:00:00 | |
| OE5DXL-15 | 2026-09-02 03:51:42 | 48.31331 | 15.34148 | 81° | 99km/h | 10317m | -5.4m/s | -48.9°C | 85.8% | 0hPa | 2.6V | 00:00:00 | 00:00:00 | 00:00:00 | |
| OM5KV | 2026-09-02 03:51:37 | 48.31319 | 15.34015 | 85° | 89km/h | 10339m | -5.2m/s | -49.1°C | 71.4% | 0hPa | 2.6V | 08:07:00 | 00:00:00 | 00:00:00 | |
| PETON7-10 | 2026-09-02 03:51:35 | 48.31310 | 15.33912 | 83° | 100km/h | 10354m | -5.3m/s | -49.2°C | 75.8% | 0hPa | 2.6V | 00:00:00 | 02:02:52 | 00:00:00 | |
| OE3OSB-13 | 2026-09-02 03:51:33 | 48.31302 | 15.33804 | 83° | 95km/h | 10371m | -5.5m/s | -49.4°C | 61.1% | -1.0hPa | 2.6V | 00:00:00 | 00:00:00 | 00:00:00 | |
| OM5KV | 2026-09-02 03:51:31 | 48.31302 | 15.33803 | 85° | 97km/h | 10371m | -5.5m/s | -49.4°C | 61.4% | 0hPa | 2.6V | 08:07:00 | 00:00:00 | 00:00:00 | |
| OM5KV | 2026-09-02 03:51:28 | 48.31293 | 15.33693 | 83° | 99km/h | 10387m | -5.4m/s | -49.5°C | 54.6% | 0hPa | 2.6V | 08:07:00 | 00:00:00 | 00:00:00 | |
| OE5WHR-10 | 2026-09-02 03:51:27 | 48.31286 | 15.33618 | 83° | 106km/h | 10398m | -5.2m/s | -49.4°C | 57.6% | 0hPa | 2.6V | 00:00:00 | 00:00:00 | 00:00:00 | |
| PG1ADW-2 | 2026-09-02 03:51:26 | 48.31282 | 15.33580 | 82° | 106km/h | 10403m | -5.3m/s | -49.4°C | 56.7% | 0hPa | 2.6V | 00:00:00 | 02:02:43 | 00:00:00 | |
| OM5KV | 2026-09-02 03:51:25 | 48.31282 | 15.33580 | 83° | 102km/h | 10403m | -5.3m/s | -49.4°C | 49.0% | 0hPa | 2.5V | 08:07:00 | 00:00:00 | 00:00:00 | |
| OE5MMP-10 | 2026-09-02 03:51:23 | 48.31271 | 15.33464 | 83° | 106km/h | 10420m | -5.5m/s | -49.5°C | 56.8% | 0hPa | 2.5V | 08:06:00 | 02:02:40 | 00:00:00 | |
| PETON7-10 | 2026-09-02 03:51:20 | 48.31260 | 15.33347 | 82° | 108km/h | 10437m | -5.8m/s | -49.7°C | 57.9% | 0hPa | 2.6V | 00:00:00 | 00:00:00 | 00:00:00 | |
| OE5DRO-10 | 2026-09-02 03:51:14 | 48.31235 | 15.33109 | 82° | 108km/h | 10471m | -5.4m/s | -50.0°C | 59.8% | 0hPa | 2.5V | 00:00:00 | 00:00:00 | 00:00:00 | |
| OE5MMP-10 | 2026-09-02 03:51:13 | 48.31230 | 15.33069 | 81° | 110km/h | 10477m | -5.2m/s | -50.1°C | 59.7% | 0hPa | 2.5V | 00:00:00 | 02:02:30 | 00:00:00 | |
| OE5DXL-15 | 2026-09-02 03:51:12 | 48.31226 | 15.33029 | 81° | 102km/h | 10482m | -5.0m/s | -50.1°C | 59.4% | 0hPa | 2.5V | 00:00:00 | 00:00:00 | 00:00:00 | |
| OE5FHM-15 | 2026-09-02 03:51:10 | 48.31216 | 15.32948 | 80° | 102km/h | 10492m | -5.1m/s | -50.2°C | 58.7% | 0hPa | 2.5V | 00:00:00 | 02:02:27 | 00:00:00 | |
| OM5KV | 2026-09-02 03:51:07 | 48.31206 | 15.32866 | 80° | 110km/h | 10502m | -5.3m/s | -50.4°C | 49.5% | 0hPa | 2.5V | 08:07:00 | 00:00:00 | 00:00:00 | |
| OE5WHR-10 | 2026-09-02 03:51:06 | 48.31194 | 15.32785 | 78° | 100km/h | 10513m | -5.5m/s | -50.4°C | 56.3% | 0hPa | 2.5V | 00:00:00 | 02:02:23 | 00:00:00 | |
| PETON7-10 | 2026-09-02 03:51:05 | 48.31188 | 15.32745 | 78° | 106km/h | 10519m | -5.5m/s | -50.4°C | 55.5% | 0hPa | 2.5V | 00:00:00 | 00:00:00 | 00:00:00 | |
| OE5MMP-10 | 2026-09-02 03:51:03 | 48.31175 | 15.32664 | 77° | 106km/h | 10530m | -5.4m/s | -50.4°C | 52.4% | 0hPa | 2.5V | 00:00:00 | 02:02:20 | 00:00:00 | |
| OE3OSB-13 | 2026-09-02 03:51:02 | 48.31163 | 15.32583 | 75° | 108km/h | 10541m | -5.5m/s | -50.5°C | 42.8% | -1.0hPa | 2.5V | 00:00:00 | 00:00:00 | 00:00:00 | |
| OM5KV | 2026-09-02 03:51:01 | 48.31169 | 15.32623 | 77° | 110km/h | 10535m | -5.6m/s | -50.5°C | 43.8% | 0hPa | 2.5V | 08:07:00 | 00:00:00 | 00:00:00 | |
| OE5DRO-10 | 2026-09-02 03:50:55 | 48.31119 | 15.32349 | 73° | 97km/h | 10574m | -5.6m/s | -50.7°C | 43.8% | 0hPa | 2.5V | 00:00:00 | 00:00:00 | 00:00:00 | |
| OE5MMP-10 | 2026-09-02 03:50:53 | 48.31104 | 15.32276 | 73° | 95km/h | 10585m | -5.4m/s | -50.7°C | 41.4% | 0hPa | 2.5V | 00:00:00 | 02:02:10 | 00:00:00 | |
| PETON7-10 | 2026-09-02 03:50:50 | 48.31082 | 15.32169 | 73° | 97km/h | 10601m | -5.6m/s | -50.7°C | 39.6% | 0hPa | 2.5V | 00:00:00 | 02:02:07 | 00:00:00 | |
| OM5KV | 2026-09-02 03:50:49 | 48.31082 | 15.32169 | 74° | 97km/h | 10601m | -5.6m/s | -50.7°C | 33.2% | 0hPa | 2.5V | 08:07:00 | 00:00:00 | 00:00:00 | |
| PG1ADW-2 | 2026-09-02 03:50:46 | 48.31056 | 15.32032 | 77° | 100km/h | 10623m | -5.1m/s | -50.8°C | 38.3% | 0hPa | 2.5V | 00:00:00 | 00:00:00 | 00:00:00 | |
| OE5MMP-10 | 2026-09-02 03:50:43 | 48.31040 | 15.31929 | 80° | 99km/h | 10639m | -5.1m/s | -50.8°C | 37.9% | 0hPa | 2.5V | 00:00:00 | 02:02:00 | 00:00:00 | |
| OE5DXL-15 | 2026-09-02 03:50:42 | 48.31036 | 15.31893 | 81° | 108km/h | 10644m | -5.3m/s | -50.9°C | 37.8% | 0hPa | 2.5V | 00:00:00 | 00:00:00 | 00:00:00 | |
| OE5FHM-15 | 2026-09-02 03:50:40 | 48.31029 | 15.31822 | 83° | 111km/h | 10655m | -5.4m/s | -50.9°C | 37.8% | 0hPa | 2.5V | 08:07:00 | 02:01:57 | 00:00:00 | |
| OE3JTB-15 | 2026-09-02 03:50:37 | 48.31018 | 15.31711 | 83° | 110km/h | 10671m | -5.5m/s | -50.9°C | 37.6% | 0hPa | 2.5V | 00:00:00 | 02:01:54 | 00:00:00 | |
| OE5DRO-10 | 2026-09-02 03:50:36 | 48.31014 | 15.31673 | 82° | 110km/h | 10677m | -5.3m/s | -51.0°C | 37.6% | 0hPa | 2.5V | 00:00:00 | 00:00:00 | 00:00:00 | |
| PETON7-10 | 2026-09-02 03:50:35 | 48.31010 | 15.31634 | 82° | 108km/h | 10682m | -5.6m/s | -51.0°C | 37.7% | 0hPa | 2.5V | 00:00:00 | 00:00:00 | 00:00:00 | |
| OE5MMP-10 | 2026-09-02 03:50:33 | 48.31003 | 15.31556 | 82° | 108km/h | 10694m | -5.7m/s | -51.0°C | 37.8% | 0hPa | 2.6V | 00:00:00 | 02:01:50 | 00:00:00 | |
| OM5KV | 2026-09-02 03:50:30 | 48.30994 | 15.31477 | 81° | 106km/h | 10705m | -5.8m/s | -51.2°C | 31.7% | 0hPa | 2.6V | 08:07:00 | 00:00:00 | 00:00:00 | |
| PG1ADW-2 | 2026-09-02 03:50:26 | 48.30969 | 15.31275 | 79° | 113km/h | 10733m | -5.7m/s | -51.3°C | 38.5% | 0hPa | 2.6V | 08:07:00 | 00:00:00 | 00:00:00 | |
| OM5KV | 2026-09-02 03:50:24 | 48.30964 | 15.31233 | 79° | 113km/h | 10739m | -5.2m/s | -51.4°C | 32.1% | 0hPa | 2.5V | 08:07:00 | 00:00:00 | 00:00:00 | |
| OE5MMP-10 | 2026-09-02 03:50:23 | 48.30952 | 15.31150 | 79° | 113km/h | 10750m | -5.2m/s | -51.4°C | 38.9% | 0hPa | 2.5V | 00:00:00 | 02:01:40 | 00:00:00 | |
| OE5WHR-10 | 2026-09-02 03:50:21 | 48.30940 | 15.31068 | 78° | 113km/h | 10760m | -5.5m/s | -51.5°C | 39.1% | 0hPa | 2.5V | 00:00:00 | 00:00:00 | 00:00:00 | |
| PETON7-10 | 2026-09-02 03:50:20 | 48.30934 | 15.31026 | 77° | 115km/h | 10766m | -5.4m/s | -51.6°C | 39.1% | 0hPa | 2.5V | 00:00:00 | 00:00:00 | 00:00:00 | |
| OM5KV | 2026-09-02 03:50:18 | 48.30927 | 15.30984 | 78° | 113km/h | 10772m | -5.9m/s | -51.7°C | 32.8% | 0hPa | 2.5V | 08:07:00 | 00:00:00 | 00:00:00 | |
| DO3MHA-12 | 2026-09-02 03:50:17 | 48.30914 | 15.30900 | 76° | 115km/h | 10783m | -5.4m/s | -51.7°C | 39.5% | 0hPa | 2.5V | 00:00:00 | 02:01:34 | 00:00:00 | |
| OE5MMP-10 | 2026-09-02 03:50:13 | 48.30886 | 15.30732 | 76° | 115km/h | 10805m | -5.7m/s | -51.9°C | 40.2% | 0hPa | 2.5V | 00:00:00 | 02:01:30 | 00:00:00 | |
| OE5DXL-15 | 2026-09-02 03:50:12 | 48.30879 | 15.30690 | 76° | 106km/h | 10812m | -5.7m/s | -51.9°C | 40.2% | 0hPa | 2.5V | 00:00:00 | 00:00:00 | 00:00:00 | |
| OE5FHM-15 | 2026-09-02 03:50:08 | 48.30848 | 15.30523 | 74° | 113km/h | 10834m | -5.5m/s | -52.0°C | 40.6% | 0hPa | 2.5V | 00:00:00 | 02:01:25 | 00:00:00 | |
| DO3MHA-12 | 2026-09-02 03:50:07 | 48.30840 | 15.30481 | 74° | 111km/h | 10839m | -5.1m/s | -52.1°C | 40.8% | 0hPa | 2.5V | 00:00:00 | 02:01:24 | 00:00:00 | |
| PG1ADW-2 | 2026-09-02 03:50:06 | 48.30832 | 15.30440 | 72° | 106km/h | 10844m | -5.3m/s | -52.1°C | 40.8% | 0hPa | 2.5V | 00:00:00 | 02:01:23 | 00:00:00 | |
| PETON7-10 | 2026-09-02 03:50:05 | 48.30823 | 15.30399 | 73° | 106km/h | 10850m | -5.2m/s | -52.1°C | 41.0% | 0hPa | 2.5V | 00:00:00 | 02:01:22 | 00:00:00 | |
| OE5MMP-10 | 2026-09-02 03:50:03 | 48.30804 | 15.30317 | 70° | 106km/h | 10860m | -5.1m/s | -52.2°C | 41.1% | 0hPa | 2.5V | 00:00:00 | 02:01:20 | 00:00:00 | |
| OE3OSB-13 | 2026-09-02 03:50:00 | 48.30767 | 15.30163 | 69° | 106km/h | 10881m | -5.4m/s | -52.4°C | 33.9% | -1.0hPa | 2.5V | 00:00:00 | 00:00:00 | 00:00:00 | |
| OE5DRO-10 | 2026-09-02 03:49:58 | 48.30758 | 15.30125 | 71° | 102km/h | 10887m | -5.5m/s | -52.4°C | 41.3% | 0hPa | 2.5V | 00:00:00 | 00:00:00 | 00:00:00 | |
| OM5KV | 2026-09-02 03:49:54 | 48.30732 | 15.30014 | 72° | 102km/h | 10903m | -5.4m/s | -52.6°C | 34.6% | 0hPa | 2.5V | 08:08:00 | 00:00:00 | 00:00:00 | |
| OE5MMP-10 | 2026-09-02 03:49:53 | 48.30715 | 15.29941 | 73° | 100km/h | 10914m | -5.6m/s | -52.6°C | 41.7% | 0hPa | 2.5V | 08:08:00 | 02:01:10 | 00:00:00 | |
| PETON7-10 | 2026-09-02 03:49:50 | 48.30694 | 15.29832 | 76° | 104km/h | 10930m | -5.1m/s | -52.7°C | 42.0% | 0hPa | 2.6V | 08:08:00 | 00:00:00 | 00:00:00 | |
| OM5KV | 2026-09-02 03:49:48 | 48.30687 | 15.29795 | 76° | 99km/h | 10935m | -5.6m/s | -52.8°C | 35.1% | 0hPa | 2.5V | 08:08:00 | 00:00:00 | 00:00:00 | |
| PG1ADW-2 | 2026-09-02 03:49:46 | 48.30669 | 15.29685 | 78° | 108km/h | 10952m | -5.5m/s | -52.9°C | 42.6% | 0hPa | 2.5V | 00:00:00 | 00:00:00 | 00:00:00 | |
| OE5MMP-10 | 2026-09-02 03:49:43 | 48.30654 | 15.29570 | 80° | 108km/h | 10968m | -5.5m/s | -53.0°C | 42.7% | 0hPa | 2.5V | 00:00:00 | 02:01:00 | 00:00:00 | |
| OE5DXL-15 | 2026-09-02 03:49:42 | 48.30649 | 15.29532 | 79° | 115km/h | 10973m | -5.4m/s | -53.0°C | 42.7% | 0hPa | 2.5V | 00:00:00 | 00:00:00 | 00:00:00 | |
| OE5WHR-10 | 2026-09-02 03:49:39 | 48.30634 | 15.29413 | 81° | 115km/h | 10990m | -5.4m/s | -53.2°C | 42.9% | 0hPa | 2.6V | 00:00:00 | 00:00:00 | 00:00:00 | |
| OM5KV | 2026-09-02 03:49:36 | 48.30624 | 15.29333 | 81° | 108km/h | 11001m | -5.7m/s | -53.3°C | 35.9% | 0hPa | 2.6V | 08:08:00 | 00:00:00 | 00:00:00 | |
| PETON7-10 | 2026-09-02 03:49:35 | 48.30614 | 15.29251 | 80° | 115km/h | 11012m | -5.7m/s | -53.4°C | 43.4% | 0hPa | 2.6V | 00:00:00 | 00:00:00 | 00:00:00 | |
| OE5MMP-10 | 2026-09-02 03:49:33 | 48.30605 | 15.29169 | 80° | 115km/h | 11023m | -5.5m/s | -53.5°C | 43.7% | 0hPa | 2.6V | 00:00:00 | 02:00:50 | 00:00:00 | |
| OM5KV | 2026-09-02 03:49:30 | 48.30594 | 15.29087 | 80° | 113km/h | 11035m | -5.3m/s | -53.6°C | 36.6% | 0hPa | 2.6V | 08:08:00 | 00:00:00 | 00:00:00 | |
| OE3OSB-13 | 2026-09-02 03:49:28 | 48.30579 | 15.28960 | 78° | 113km/h | 11051m | -5.4m/s | -53.7°C | 36.4% | -1.0hPa | 2.6V | 00:00:00 | 00:00:00 | 00:00:00 | |
| PG1ADW-2 | 2026-09-02 03:49:26 | 48.30568 | 15.28874 | 79° | 119km/h | 11062m | -5.3m/s | -53.7°C | 44.5% | 0hPa | 2.6V | 00:00:00 | 00:00:00 | 00:00:00 | |
| DO3MHA-12 | 2026-09-02 03:49:25 | 48.30562 | 15.28830 | 80° | 120km/h | 11067m | -5.2m/s | -53.8°C | 44.5% | 0hPa | 2.5V | 00:00:00 | 02:00:42 | 00:00:00 | |
| OE5MMP-10 | 2026-09-02 03:49:23 | 48.30549 | 15.28742 | 78° | 120km/h | 11078m | -5.1m/s | -53.8°C | 44.4% | 0hPa | 2.5V | 00:00:00 | 02:00:40 | 00:00:00 | |
| PETON7-10 | 2026-09-02 03:49:20 | 48.30528 | 15.28608 | 76° | 119km/h | 11094m | -5.6m/s | -53.9°C | 44.6% | 0hPa | 2.5V | 00:00:00 | 02:00:37 | 00:00:00 | |
| OE5WHR-10 | 2026-09-02 03:49:18 | 48.30512 | 15.28519 | 76° | 115km/h | 11106m | -5.5m/s | -54.0°C | 44.9% | 0hPa | 2.5V | 00:00:00 | 00:00:00 | 00:00:00 | |
| OM5KV | 2026-09-02 03:49:17 | 48.30512 | 15.28519 | 76° | 120km/h | 11106m | -5.5m/s | -54.1°C | 37.2% | 0hPa | 2.5V | 08:09:00 | 00:00:00 | 00:00:00 | |
| DO3MHA-12 | 2026-09-02 03:49:15 | 48.30486 | 15.28387 | 73° | 117km/h | 11122m | -5.5m/s | -54.2°C | 44.9% | 0hPa | 2.5V | 00:00:00 | 02:00:32 | 00:00:00 | |
| OE5MMP-10 | 2026-09-02 03:49:13 | 48.30467 | 15.28302 | 71° | 115km/h | 11133m | -5.8m/s | -54.3°C | 44.9% | 0hPa | 2.5V | 00:00:00 | 02:00:30 | 00:00:00 | |
| OE5DXL-15 | 2026-09-02 03:49:12 | 48.30458 | 15.28260 | 71° | 108km/h | 11140m | -5.9m/s | -54.3°C | 44.8% | 0hPa | 2.5V | 00:00:00 | 00:00:00 | 00:00:00 | |
| OE3JTB-15 | 2026-09-02 03:49:10 | 48.30438 | 15.28176 | 71° | 108km/h | 11151m | -5.8m/s | -54.4°C | 44.7% | 0hPa | 2.5V | 00:00:00 | 02:00:27 | 00:00:00 | |
| PG1ADW-2 | 2026-09-02 03:49:06 | 48.30398 | 15.28012 | 70° | 106km/h | 11174m | -5.8m/s | -54.6°C | 44.5% | 0hPa | 2.5V | 00:00:00 | 00:00:00 | 00:00:00 | |
| PETON7-10 | 2026-09-02 03:49:05 | 48.30388 | 15.27972 | 70° | 106km/h | 11180m | -5.8m/s | -54.6°C | 44.5% | 0hPa | 2.5V | 00:00:00 | 00:00:00 | 00:00:00 | |
| OE5MMP-10 | 2026-09-02 03:49:03 | 48.30368 | 15.27891 | 70° | 108km/h | 11191m | -5.7m/s | -54.7°C | 44.2% | 0hPa | 2.5V | 00:00:00 | 02:00:20 | 00:00:00 | |
| OE5DRO-10 | 2026-09-02 03:49:01 | 48.30349 | 15.27812 | 69° | 104km/h | 11202m | -5.8m/s | -54.7°C | 44.2% | 0hPa | 2.5V | 08:09:00 | 00:00:00 | 00:00:00 | |
| OE5WHR-10 | 2026-09-02 03:48:57 | 48.30309 | 15.27660 | 69° | 106km/h | 11224m | -5.6m/s | -54.8°C | 43.9% | 0hPa | 2.5V | 00:00:00 | 02:00:14 | 00:00:00 | |
| OM5KV | 2026-09-02 03:48:55 | 48.30299 | 15.27623 | 69° | 104km/h | 11230m | -5.6m/s | -54.9°C | 36.0% | 0hPa | 2.5V | 08:09:00 | 00:00:00 | 00:00:00 | |
| OE5MMP-10 | 2026-09-02 03:48:53 | 48.30271 | 15.27514 | 69° | 102km/h | 11246m | -5.4m/s | -54.9°C | 43.8% | 0hPa | 2.5V | 00:00:00 | 02:00:10 | 00:00:00 | |
| OM5KV | 2026-09-02 03:48:51 | 48.30262 | 15.27479 | 70° | 100km/h | 11252m | -5.6m/s | -55.0°C | 35.9% | 0hPa | 2.5V | 08:09:00 | 00:00:00 | 00:00:00 | |
| PETON7-10 | 2026-09-02 03:48:50 | 48.30245 | 15.27407 | 72° | 108km/h | 11262m | -5.5m/s | -55.0°C | 43.6% | 0hPa | 2.5V | 00:00:00 | 00:00:00 | 00:00:00 | |
| PG1ADW-2 | 2026-09-02 03:48:46 | 48.30217 | 15.27260 | 76° | 115km/h | 11284m | -5.2m/s | -55.1°C | 43.7% | 0hPa | 2.5V | 00:00:00 | 02:00:03 | 00:00:00 | |
| DO3MHA-12 | 2026-09-02 03:48:45 | 48.30211 | 15.27222 | 77° | 119km/h | 11289m | -5.4m/s | -55.1°C | 43.8% | 0hPa | 2.5V | 00:00:00 | 02:00:02 | 00:00:00 | |
| OE5MMP-10 | 2026-09-02 03:48:43 | 48.30199 | 15.27143 | 77° | 113km/h | 11300m | -5.5m/s | -55.2°C | 43.9% | 0hPa | 2.5V | 00:00:00 | 02:00:00 | 00:00:00 | |
| OE5DXL-15 | 2026-09-02 03:48:42 | 48.30192 | 15.27103 | 77° | 117km/h | 11306m | -5.8m/s | -55.2°C | 43.8% | 0hPa | 2.5V | 00:00:00 | 00:00:00 | 00:00:00 | |
| OE3JTB-15 | 2026-09-02 03:48:41 | 48.30185 | 15.27062 | 77° | 117km/h | 11312m | -5.7m/s | -55.3°C | 43.8% | 0hPa | 2.5V | 00:00:00 | 00:00:00 | 00:00:00 | |
| OM5KV | 2026-09-02 03:48:39 | 48.30179 | 15.27021 | 77° | 111km/h | 11318m | -5.7m/s | -55.4°C | 35.8% | 0hPa | 2.5V | 08:09:00 | 00:00:00 | 00:00:00 | |
| OM5KV | 2026-09-02 03:48:37 | 48.30164 | 15.26938 | 77° | 115km/h | 11329m | -5.7m/s | -55.4°C | 35.7% | 0hPa | 2.5V | 08:09:00 | 00:00:00 | 00:00:00 | |
| OE5WHR-10 | 2026-09-02 03:48:36 | 48.30149 | 15.26853 | 75° | 119km/h | 11341m | -5.8m/s | -55.4°C | 43.2% | 0hPa | 2.5V | 00:00:00 | 00:00:00 | 00:00:00 | |
| PETON7-10 | 2026-09-02 03:48:35 | 48.30141 | 15.26810 | 74° | 120km/h | 11347m | -5.7m/s | -55.4°C | 43.3% | 0hPa | 2.5V | 00:00:00 | 01:59:52 | 00:00:00 | |
| OE5MMP-10 | 2026-09-02 03:48:33 | 48.30123 | 15.26724 | 73° | 120km/h | 11359m | -6.1m/s | -55.5°C | 43.1% | 0hPa | 2.5V | 00:00:00 | 01:59:50 | 00:00:00 | |
| OM5KV | 2026-09-02 03:48:31 | 48.30114 | 15.26681 | 73° | 120km/h | 11365m | -5.8m/s | -55.6°C | 35.2% | 0hPa | 2.5V | 08:10:00 | 00:00:00 | 00:00:00 | |
| OM5KV | 2026-09-02 03:48:27 | 48.30073 | 15.26508 | 70° | 122km/h | 11389m | -6.0m/s | -55.8°C | 34.9% | 0hPa | 2.5V | 08:10:00 | 00:00:00 | 00:00:00 | |
| PG1ADW-2 | 2026-09-02 03:48:26 | 48.30040 | 15.26379 | 68° | 111km/h | 11406m | -5.8m/s | -55.8°C | 42.4% | 0hPa | 2.5V | 00:00:00 | 00:00:00 | 00:00:00 | |
| OE5MMP-10 | 2026-09-02 03:48:23 | 48.30016 | 15.26295 | 67° | 113km/h | 11418m | -5.8m/s | -55.8°C | 42.1% | 0hPa | 2.5V | 08:09:00 | 01:59:40 | 00:00:00 | |
| OM5KV | 2026-09-02 03:48:21 | 48.30004 | 15.26253 | 67° | 119km/h | 11423m | -5.5m/s | -55.8°C | 34.3% | 0hPa | 2.6V | 08:10:00 | 00:00:00 | 00:00:00 | |
| PETON7-10 | 2026-09-02 03:48:20 | 48.29980 | 15.26173 | 67° | 108km/h | 11434m | -5.2m/s | -55.8°C | 42.0% | 0hPa | 2.6V | 00:00:00 | 00:00:00 | 00:00:00 | |
| OE5WHR-10 | 2026-09-02 03:48:15 | 48.29923 | 15.25980 | 67° | 110km/h | 11461m | -5.9m/s | -55.9°C | 41.0% | 0hPa | 2.5V | 00:00:00 | 00:00:00 | 00:00:00 | |
| OM5KV | 2026-09-02 03:48:14 | 48.29923 | 15.25980 | 67° | 108km/h | 11461m | -6.0m/s | -55.9°C | 33.3% | 0hPa | 2.5V | 08:10:00 | 00:00:00 | 00:00:00 | |
| OE5DXL-15 | 2026-09-02 03:48:12 | 48.29892 | 15.25867 | 69° | 115km/h | 11479m | -6.0m/s | -56.0°C | 40.7% | 0hPa | 2.5V | 08:10:00 | 00:00:00 | 00:00:00 | |
| NBG1-10 | 2026-09-02 03:48:10 | 48.29872 | 15.25791 | 70° | 77km/h | 11491m | -6.1m/s | 0°C | 0% | 0hPa | 2.5V | 00:00:00 | 01:59:27 | 08:30:00 | |
| OM5KV | 2026-09-02 03:48:08 | 48.29863 | 15.25753 | 71° | 106km/h | 11497m | -6.0m/s | -56.1°C | 32.8% | 0hPa | 2.5V | 08:10:00 | 00:00:00 | 00:00:00 | |
| PG1ADW-2 | 2026-09-02 03:48:05 | 48.29828 | 15.25601 | 73° | 117km/h | 11521m | -5.5m/s | -56.1°C | 40.1% | 0hPa | 2.5V | 00:00:00 | 00:00:00 | 00:00:00 | |
| OE5DRO-10 | 2026-09-02 03:48:04 | 48.29821 | 15.25562 | 75° | 117km/h | 11527m | -5.5m/s | -56.1°C | 40.0% | 0hPa | 2.5V | 00:00:00 | 00:00:00 | 00:00:00 | |
| OE5MMP-10 | 2026-09-02 03:48:03 | 48.29813 | 15.25523 | 75° | 113km/h | 11532m | -5.9m/s | -56.2°C | 39.8% | 0hPa | 2.5V | 00:00:00 | 01:59:20 | 00:00:00 | |
| OM5KV | 2026-09-02 03:48:02 | 48.29813 | 15.25523 | 75° | 108km/h | 11532m | -5.9m/s | -56.2°C | 32.1% | 0hPa | 2.5V | 08:10:00 | 00:00:00 | 00:00:00 | |
| OE3OSB-13 | 2026-09-02 03:47:55 | 48.29752 | 15.25146 | 75° | 119km/h | 11585m | -6.1m/s | -56.4°C | 30.5% | -1.0hPa | 2.5V | 00:00:00 | 00:00:00 | 00:00:00 | |
| OE5WHR-10 | 2026-09-02 03:47:54 | 48.29751 | 15.25146 | 76° | 120km/h | 11586m | -6.1m/s | -56.4°C | 38.3% | 0hPa | 2.5V | 00:00:00 | 01:59:11 | 00:00:00 | |
| OE5MMP-10 | 2026-09-02 03:47:53 | 48.29744 | 15.25102 | 76° | 124km/h | 11592m | -6.1m/s | -56.4°C | 38.2% | 0hPa | 2.5V | 00:00:00 | 01:59:10 | 00:00:00 | |
| PETON7-10 | 2026-09-02 03:47:50 | 48.29718 | 15.24967 | 74° | 122km/h | 11610m | -5.9m/s | -56.4°C | 37.7% | 0hPa | 2.5V | 00:00:00 | 01:59:07 | 00:00:00 | |
| DO3MHA-12 | 2026-09-02 03:47:46 | 48.29679 | 15.24788 | 71° | 119km/h | 11635m | -6.1m/s | -56.5°C | 36.9% | 0hPa | 2.5V | 00:00:00 | 01:59:03 | 00:00:00 | |
| PG1ADW-2 | 2026-09-02 03:47:45 | 48.29669 | 15.24744 | 70° | 115km/h | 11641m | -5.8m/s | -56.5°C | 36.7% | 0hPa | 2.5V | 00:00:00 | 00:00:00 | 00:00:00 | |
| OM5KV | 2026-09-02 03:47:44 | 48.29669 | 15.24744 | 70° | 124km/h | 11641m | -5.8m/s | -56.5°C | 29.3% | 0hPa | 2.5V | 08:10:00 | 00:00:00 | 00:00:00 | |
| OE5MMP-10 | 2026-09-02 03:47:43 | 48.29646 | 15.24656 | 69° | 119km/h | 11652m | -5.7m/s | -56.5°C | 36.3% | 0hPa | 2.5V | 00:00:00 | 01:59:00 | 00:00:00 | |
| OE5DXL-15 | 2026-09-02 03:47:42 | 48.29634 | 15.24613 | 68° | 110km/h | 11658m | -6.3m/s | -56.5°C | 36.0% | 0hPa | 2.5V | 00:00:00 | 00:00:00 | 00:00:00 | |
| OE5FHM-15 | 2026-09-02 03:47:40 | 48.29610 | 15.24528 | 67° | 108km/h | 11670m | -6.0m/s | -56.5°C | 35.7% | 0hPa | 2.5V | 00:00:00 | 01:58:57 | 00:00:00 | |
| OE5DRO-10 | 2026-09-02 03:47:26 | 48.29456 | 15.23981 | 69° | 106km/h | 11755m | -6.3m/s | -57.0°C | 34.1% | 0hPa | 2.5V | 00:00:00 | 00:00:00 | 00:00:00 | |
| PG1ADW-2 | 2026-09-02 03:47:25 | 48.29446 | 15.23945 | 70° | 106km/h | 11761m | -6.3m/s | -57.0°C | 34.0% | 0hPa | 2.5V | 08:10:00 | 01:58:42 | 00:00:00 | |
| OE3OSB-13 | 2026-09-02 03:47:24 | 48.29429 | 15.23871 | 70° | 102km/h | 11773m | -6.2m/s | -57.1°C | 26.2% | -1.0hPa | 2.5V | 00:00:00 | 00:00:00 | 00:00:00 | |
| OE5MMP-10 | 2026-09-02 03:47:23 | 48.29429 | 15.23871 | 71° | 104km/h | 11774m | -6.2m/s | -57.1°C | 33.7% | 0hPa | 2.5V | 00:00:00 | 01:58:40 | 00:00:00 | |
| DO3MHA-12 | 2026-09-02 03:47:21 | 48.29412 | 15.23797 | 73° | 106km/h | 11786m | -6.4m/s | -57.2°C | 33.6% | 0hPa | 2.6V | 00:00:00 | 01:58:38 | 00:00:00 | |
| PETON7-10 | 2026-09-02 03:47:20 | 48.29404 | 15.23760 | 74° | 106km/h | 11792m | -6.4m/s | -57.2°C | 33.6% | 0hPa | 2.6V | 00:00:00 | 00:00:00 | 00:00:00 | |
| OE3JTB-15 | 2026-09-02 03:47:14 | 48.29364 | 15.23529 | 77° | 115km/h | 11830m | -6.3m/s | -57.6°C | 32.8% | 0hPa | 2.6V | 00:00:00 | 00:00:00 | 00:00:00 | |
| OE5MMP-10 | 2026-09-02 03:47:13 | 48.29358 | 15.23490 | 76° | 110km/h | 11836m | -6.6m/s | -57.6°C | 32.7% | 0hPa | 2.5V | 00:00:00 | 01:58:30 | 00:00:00 | |
| OE5WHR-10 | 2026-09-02 03:47:12 | 48.29351 | 15.23451 | 77° | 115km/h | 11843m | -6.8m/s | -57.6°C | 32.5% | 0hPa | 2.5V | 00:00:00 | 00:00:00 | 00:00:00 | |
| OE5FHM-15 | 2026-09-02 03:47:10 | 48.29338 | 15.23372 | 78° | 115km/h | 11856m | -6.3m/s | -57.5°C | 31.5% | 0hPa | 2.5V | 00:00:00 | 01:58:27 | 00:00:00 | |
| OE5DRO-10 | 2026-09-02 03:47:07 | 48.29322 | 15.23252 | 79° | 117km/h | 11875m | -6.6m/s | -57.7°C | 30.8% | 0hPa | 2.5V | 00:00:00 | 00:00:00 | 00:00:00 | |
| PG1ADW-2 | 2026-09-02 03:47:05 | 48.29310 | 15.23169 | 79° | 117km/h | 11888m | -6.4m/s | -57.8°C | 30.2% | 0hPa | 2.5V | 00:00:00 | 00:00:00 | 00:00:00 | |
| OM5KV | 2026-09-02 03:47:04 | 48.29310 | 15.23169 | 80° | 113km/h | 11888m | -6.4m/s | -57.8°C | 23.4% | 0hPa | 2.5V | 08:11:00 | 00:00:00 | 00:00:00 | |
| DO3MHA-12 | 2026-09-02 03:47:00 | 48.29283 | 15.22955 | 80° | 119km/h | 11920m | -6.0m/s | -57.9°C | 28.9% | 0hPa | 2.5V | 00:00:00 | 01:58:17 | 00:00:00 | |
| OM5KV | 2026-09-02 03:46:58 | 48.29277 | 15.22911 | 80° | 119km/h | 11926m | -6.0m/s | -57.9°C | 21.8% | 0hPa | 2.5V | 08:11:00 | 00:00:00 | 00:00:00 | |
| OE5MMP-10 | 2026-09-02 03:46:53 | 48.29239 | 15.22645 | 77° | 117km/h | 11964m | -6.3m/s | -57.5°C | 25.5% | 0hPa | 2.5V | 08:11:00 | 01:58:10 | 00:00:00 | |
| OM5KV | 2026-09-02 03:46:52 | 48.29240 | 15.22645 | 78° | 119km/h | 11964m | -6.4m/s | -57.6°C | 19.3% | 0hPa | 2.5V | 08:11:00 | 00:00:00 | 00:00:00 | |
| OE5WHR-10 | 2026-09-02 03:46:51 | 48.29225 | 15.22557 | 75° | 111km/h | 11976m | -6.6m/s | -57.5°C | 24.7% | 0hPa | 2.5V | 00:00:00 | 01:58:08 | 00:00:00 | |
| PETON7-10 | 2026-09-02 03:46:50 | 48.29217 | 15.22514 | 75° | 113km/h | 11983m | -6.8m/s | -57.5°C | 24.3% | 0hPa | 2.5V | 00:00:00 | 00:00:00 | 00:00:00 | |
| OE5DRO-10 | 2026-09-02 03:46:48 | 48.29200 | 15.22429 | 74° | 111km/h | 11997m | -6.9m/s | -57.5°C | 23.6% | 0hPa | 2.5V | 00:00:00 | 00:00:00 | 00:00:00 | |
| OM5KV | 2026-09-02 03:46:46 | 48.29192 | 15.22386 | 74° | 115km/h | 12004m | -6.7m/s | -57.5°C | 17.4% | 0hPa | 2.5V | 08:12:00 | 00:00:00 | 00:00:00 | |
| PG1ADW-2 | 2026-09-02 03:46:45 | 48.29176 | 15.22303 | 75° | 108km/h | 12017m | -6.6m/s | -57.4°C | 22.6% | 0hPa | 2.5V | 00:00:00 | 00:00:00 | 00:00:00 | |
| OE5MMP-10 | 2026-09-02 03:46:43 | 48.29160 | 15.22219 | 74° | 111km/h | 12030m | -6.9m/s | -57.3°C | 21.9% | 0hPa | 2.5V | 00:00:00 | 01:58:00 | 00:00:00 | |
| OE5DXL-15 | 2026-09-02 03:46:42 | 48.29151 | 15.22177 | 74° | 102km/h | 12037m | -6.7m/s | -57.3°C | 21.6% | 0hPa | 2.5V | 00:00:00 | 01:57:59 | 00:00:00 | |
| OE5FHM-15 | 2026-09-02 03:46:40 | 48.29134 | 15.22094 | 73° | 100km/h | 12051m | -6.7m/s | -57.2°C | 20.9% | 0hPa | 2.5V | 00:00:00 | 01:57:57 | 00:00:00 | |
| DO3MHA-12 | 2026-09-02 03:46:39 | 48.29126 | 15.22054 | 72° | 108km/h | 12057m | -6.9m/s | -57.1°C | 20.6% | 0hPa | 2.5V | 00:00:00 | 01:57:56 | 00:00:00 | |
| PETON7-10 | 2026-09-02 03:46:35 | 48.29092 | 15.21895 | 71° | 100km/h | 12084m | -6.6m/s | -57.2°C | 19.6% | 0hPa | 2.5V | 00:00:00 | 00:00:00 | 00:00:00 | |
| OM5KV | 2026-09-02 03:46:34 | 48.29092 | 15.21895 | 72° | 110km/h | 12084m | -6.7m/s | -57.2°C | 14.3% | 0hPa | 2.5V | 08:12:00 | 00:00:00 | 00:00:00 | |
| OE5MMP-10 | 2026-09-02 03:46:33 | 48.29074 | 15.21818 | 71° | 99km/h | 12098m | -6.7m/s | -57.2°C | 19.3% | 0hPa | 2.5V | 00:00:00 | 01:57:50 | 00:00:00 | |
| OE5WHR-10 | 2026-09-02 03:46:30 | 48.29048 | 15.21706 | 71° | 97km/h | 12118m | -6.4m/s | -57.3°C | 18.5% | 0hPa | 2.5V | 00:00:00 | 00:00:00 | 00:00:00 | |
| DO3MHA-12 | 2026-09-02 03:46:29 | 48.29040 | 15.21670 | 72° | 97km/h | 12124m | -6.5m/s | -57.3°C | 18.3% | 0hPa | 2.6V | 08:11:00 | 01:57:46 | 00:00:00 | |
| PG1ADW-2 | 2026-09-02 03:46:25 | 48.29010 | 15.21530 | 74° | 97km/h | 12151m | -6.7m/s | -57.4°C | 17.4% | 0hPa | 2.5V | 00:00:00 | 00:00:00 | 00:00:00 | |
| OE5MMP-10 | 2026-09-02 03:46:23 | 48.28997 | 15.21460 | 76° | 97km/h | 12164m | -6.7m/s | -57.3°C | 16.7% | 0hPa | 2.6V | 00:00:00 | 01:57:40 | 00:00:00 | |
| OE3OSB-13 | 2026-09-02 03:46:22 | 48.28985 | 15.21389 | 76° | 97km/h | 12178m | -6.7m/s | -57.4°C | 11.2% | -1.0hPa | 2.6V | 00:00:00 | 00:00:00 | 00:00:00 | |
| PETON7-10 | 2026-09-02 03:46:20 | 48.28979 | 15.21353 | 76° | 97km/h | 12185m | -6.9m/s | -57.4°C | 16.2% | 0hPa | 2.6V | 00:00:00 | 01:57:37 | 00:00:00 | |
| DO3MHA-12 | 2026-09-02 03:46:19 | 48.28973 | 15.21316 | 76° | 97km/h | 12191m | -6.7m/s | -57.4°C | 16.0% | 0hPa | 2.6V | 00:00:00 | 01:57:36 | 00:00:00 | |
| OM5KV | 2026-09-02 03:46:17 | 48.28967 | 15.21280 | 77° | 99km/h | 12198m | -6.9m/s | -57.5°C | 11.0% | 0hPa | 2.6V | 08:12:00 | 00:00:00 | 00:00:00 | |
| OE3JTB-15 | 2026-09-02 03:46:16 | 48.28955 | 15.21208 | 76° | 104km/h | 12212m | -7.0m/s | -57.4°C | 15.2% | 0hPa | 2.6V | 00:00:00 | 01:57:33 | 00:00:00 | |
| OE5MMP-10 | 2026-09-02 03:46:13 | 48.28938 | 15.21101 | 78° | 99km/h | 12233m | -7.0m/s | -57.3°C | 14.6% | 0hPa | 2.6V | 00:00:00 | 01:57:30 | 00:00:00 | |
| OE5DXL-15 | 2026-09-02 03:46:12 | 48.28933 | 15.21066 | 78° | 106km/h | 12240m | -6.7m/s | -57.3°C | 14.4% | 0hPa | 2.6V | 00:00:00 | 00:00:00 | 00:00:00 | |
| OE5DRO-10 | 2026-09-02 03:46:10 | 48.28923 | 15.20995 | 79° | 106km/h | 12253m | -6.7m/s | -57.4°C | 14.3% | 0hPa | 2.6V | 08:12:00 | 00:00:00 | 00:00:00 | |
| DO3MHA-12 | 2026-09-02 03:46:09 | 48.28918 | 15.20959 | 79° | 104km/h | 12260m | -6.4m/s | -57.4°C | 14.1% | 0hPa | 2.6V | 00:00:00 | 01:57:26 | 00:00:00 | |
| PETON7-10 | 2026-09-02 03:46:05 | 48.28900 | 15.20810 | 81° | 110km/h | 12286m | -5.9m/s | -57.5°C | 13.6% | 0hPa | 2.6V | 00:00:00 | 00:00:00 | 00:00:00 | |
| OM5KV | 2026-09-02 03:46:01 | 48.28885 | 15.20690 | 79° | 110km/h | 12305m | -6.7m/s | -57.5°C | 8.3% | 0hPa | 2.6V | 08:12:00 | 00:00:00 | 00:00:00 | |
| DO3MHA-12 | 2026-09-02 03:45:59 | 48.28867 | 15.20567 | 77° | 110km/h | 12326m | -7.4m/s | -57.5°C | 11.9% | 0hPa | 2.6V | 00:00:00 | 01:57:16 | 00:00:00 | |
| OM5KV | 2026-09-02 03:45:55 | 48.28847 | 15.20446 | 77° | 111km/h | 12350m | -7.3m/s | -57.3°C | 6.9% | 0hPa | 2.6V | 08:13:00 | 00:00:00 | 00:00:00 | |
| OE5MMP-10 | 2026-09-02 03:45:53 | 48.28825 | 15.20324 | 75° | 106km/h | 12371m | -6.5m/s | -56.6°C | 10.2% | 0hPa | 2.6V | 00:00:00 | 01:57:10 | 00:00:00 | |
| OE5DRO-10 | 2026-09-02 03:45:51 | 48.28808 | 15.20245 | 72° | 100km/h | 12383m | -6.1m/s | -56.6°C | 10.1% | 0hPa | 2.6V | 00:00:00 | 00:00:00 | 00:00:00 | |
| PETON7-10 | 2026-09-02 03:45:50 | 48.28799 | 15.20206 | 71° | 100km/h | 12389m | -5.9m/s | -56.5°C | 9.9% | 0hPa | 2.6V | 00:00:00 | 00:00:00 | 00:00:00 | |
| DO3MHA-12 | 2026-09-02 03:45:49 | 48.28790 | 15.20168 | 70° | 102km/h | 12395m | -5.7m/s | -56.5°C | 9.7% | 0hPa | 2.6V | 00:00:00 | 01:57:06 | 00:00:00 | |
| OE5WHR-10 | 2026-09-02 03:45:48 | 48.28780 | 15.20131 | 69° | 97km/h | 12401m | -6.2m/s | -56.4°C | 9.5% | 0hPa | 2.6V | 00:00:00 | 01:57:05 | 00:00:00 | |
| OE3JTB-15 | 2026-09-02 03:45:47 | 48.28771 | 15.20095 | 69° | 93km/h | 12407m | -6.4m/s | -56.4°C | 9.3% | 0hPa | 2.6V | 08:12:00 | 00:00:00 | 00:00:00 | |
| PG1ADW-2 | 2026-09-02 03:45:45 | 48.28752 | 15.20024 | 69° | 95km/h | 12421m | -7.1m/s | -56.3°C | 8.9% | 0hPa | 2.5V | 00:00:00 | 00:00:00 | 00:00:00 | |
| OE5MMP-10 | 2026-09-02 03:45:43 | 48.28734 | 15.19952 | 70° | 97km/h | 12435m | -7.0m/s | -55.9°C | 8.4% | 0hPa | 2.5V | 00:00:00 | 01:57:00 | 00:00:00 | |
| OE5DXL-15 | 2026-09-02 03:45:42 | 48.28726 | 15.19916 | 72° | 91km/h | 12442m | -7.0m/s | -55.7°C | 8.2% | 0hPa | 2.5V | 00:00:00 | 00:00:00 | 00:00:00 | |
| OM5KV | 2026-09-02 03:45:41 | 48.28726 | 15.19916 | 72° | 100km/h | 12442m | -7.0m/s | -55.8°C | 4.8% | 0hPa | 2.5V | 08:13:00 | 00:00:00 | 00:00:00 | |
| OE5FHM-15 | 2026-09-02 03:45:40 | 48.28710 | 15.19844 | 73° | 91km/h | 12456m | -6.8m/s | -55.2°C | 7.8% | 0hPa | 2.5V | 00:00:00 | 01:56:57 | 00:00:00 | |
| DO3MHA-12 | 2026-09-02 03:45:39 | 48.28703 | 15.19808 | 74° | 95km/h | 12462m | -6.8m/s | -55.1°C | 7.6% | 0hPa | 2.5V | 00:00:00 | 01:56:56 | 00:00:00 | |
| OM5KV | 2026-09-02 03:45:37 | 48.28695 | 15.19773 | 74° | 97km/h | 12469m | -6.7m/s | -55.0°C | 4.2% | 0hPa | 2.5V | 08:13:00 | 00:00:00 | 00:00:00 | |
| PETON7-10 | 2026-09-02 03:45:35 | 48.28676 | 15.19667 | 75° | 89km/h | 12490m | -7.2m/s | -54.8°C | 7.2% | 0hPa | 2.5V | 00:00:00 | 01:56:52 | 00:00:00 | |
| OE5MMP-10 | 2026-09-02 03:45:33 | 48.28664 | 15.19598 | 76° | 91km/h | 12504m | -7.0m/s | -54.6°C | 7.1% | 0hPa | 2.5V | 00:00:00 | 01:56:50 | 00:00:00 | |
| OE5DRO-10 | 2026-09-02 03:45:32 | 48.28658 | 15.19564 | 75° | 88km/h | 12511m | -7.0m/s | -54.6°C | 7.0% | 0hPa | 2.5V | 00:00:00 | 00:00:00 | 00:00:00 | |
| OM5KV | 2026-09-02 03:45:31 | 48.28659 | 15.19564 | 76° | 93km/h | 12511m | -7.0m/s | -54.7°C | 3.9% | 0hPa | 2.5V | 08:13:00 | 00:00:00 | 00:00:00 | |
| DO3MHA-12 | 2026-09-02 03:45:29 | 48.28641 | 15.19462 | 76° | 88km/h | 12532m | -6.8m/s | -54.6°C | 7.0% | 0hPa | 2.5V | 00:00:00 | 01:56:46 | 00:00:00 | |
| OE5WHR-10 | 2026-09-02 03:45:27 | 48.28630 | 15.19395 | 78° | 91km/h | 12544m | -6.4m/s | -54.3°C | 6.7% | 0hPa | 2.5V | 00:00:00 | 00:00:00 | 00:00:00 | |
| PG1ADW-2 | 2026-09-02 03:45:25 | 48.28621 | 15.19329 | 79° | 91km/h | 12557m | -6.3m/s | -54.3°C | 6.5% | 0hPa | 2.6V | 00:00:00 | 00:00:00 | 00:00:00 | |
| OE5MMP-10 | 2026-09-02 03:45:23 | 48.28612 | 15.19264 | 80° | 88km/h | 12570m | -6.3m/s | -54.2°C | 6.4% | 0hPa | 2.5V | 08:12:00 | 01:56:40 | 00:00:00 | |
| PETON7-10 | 2026-09-02 03:45:20 | 48.28603 | 15.19168 | 83° | 93km/h | 12589m | -6.7m/s | -53.9°C | 6.2% | 0hPa | 2.5V | 08:12:00 | 00:00:00 | 00:00:00 | |
| DO3MHA-12 | 2026-09-02 03:45:19 | 48.28600 | 15.19137 | 83° | 91km/h | 12595m | -6.6m/s | -53.6°C | 6.0% | 0hPa | 2.6V | 00:00:00 | 01:56:36 | 00:00:00 | |
| OE3JTB-15 | 2026-09-02 03:45:18 | 48.28598 | 15.19105 | 86° | 102km/h | 12602m | -6.5m/s | -53.6°C | 6.0% | 0hPa | 2.6V | 00:00:00 | 00:00:00 | 00:00:00 | |
| OM5KV | 2026-09-02 03:45:17 | 48.28598 | 15.19105 | 86° | 84km/h | 12602m | -6.5m/s | -53.7°C | 3.2% | 0hPa | 2.6V | 08:13:00 | 00:00:00 | 00:00:00 | |
| OE5MMP-10 | 2026-09-02 03:45:13 | 48.28591 | 15.18936 | 88° | 100km/h | 12634m | -6.4m/s | -53.2°C | 5.9% | 0hPa | 2.6V | 00:00:00 | 01:56:30 | 00:00:00 | |
| OE5DXL-15 | 2026-09-02 03:45:12 | 48.28590 | 15.18900 | 89° | 104km/h | 12641m | -6.5m/s | -53.0°C | 5.8% | 0hPa | 2.6V | 00:00:00 | 00:00:00 | 00:00:00 | |
| OM5KV | 2026-09-02 03:45:11 | 48.28590 | 15.18900 | 89° | 95km/h | 12641m | -6.6m/s | -53.1°C | 3.1% | 0hPa | 2.5V | 08:13:00 | 00:00:00 | 00:00:00 | |
| OE5FHM-15 | 2026-09-02 03:45:10 | 48.28588 | 15.18825 | 87° | 104km/h | 12654m | -6.9m/s | -52.8°C | 5.6% | 0hPa | 2.5V | 00:00:00 | 01:56:27 | 00:00:00 | |
| OE5WHR-10 | 2026-09-02 03:45:06 | 48.28581 | 15.18673 | 86° | 106km/h | 12684m | -7.0m/s | -52.9°C | 5.6% | 0hPa | 2.5V | 00:00:00 | 00:00:00 | 00:00:00 | |
| PETON7-10 | 2026-09-02 03:45:05 | 48.28579 | 15.18634 | 85° | 108km/h | 12691m | -7.0m/s | -53.0°C | 5.6% | 0hPa | 2.5V | 00:00:00 | 00:00:00 | 00:00:00 | |
| OM5KV | 2026-09-02 03:45:04 | 48.28579 | 15.18634 | 86° | 104km/h | 12691m | -7.1m/s | -53.1°C | 2.9% | 0hPa | 2.5V | 08:13:00 | 00:00:00 | 00:00:00 | |
| OE5MMP-10 | 2026-09-02 03:45:03 | 48.28574 | 15.18554 | 84° | 108km/h | 12704m | -6.4m/s | -53.1°C | 5.7% | 0hPa | 2.5V | 00:00:00 | 01:56:20 | 00:00:00 | |
| DO3MHA-12 | 2026-09-02 03:44:59 | 48.28560 | 15.18391 | 82° | 108km/h | 12730m | -6.1m/s | -52.8°C | 5.6% | 0hPa | 2.5V | 08:13:00 | 01:56:16 | 00:00:00 | |
| OE5DRO-10 | 2026-09-02 03:44:54 | 48.28538 | 15.18187 | 80° | 100km/h | 12763m | -6.9m/s | -52.5°C | 5.4% | 0hPa | 2.5V | 00:00:00 | 00:00:00 | 00:00:00 | |
| OE5MMP-10 | 2026-09-02 03:44:53 | 48.28533 | 15.18147 | 80° | 104km/h | 12770m | -6.7m/s | -52.5°C | 5.4% | 0hPa | 2.5V | 00:00:00 | 01:56:10 | 00:00:00 | |
| PETON7-10 | 2026-09-02 03:44:50 | 48.28517 | 15.18028 | 79° | 99km/h | 12790m | -7.0m/s | -52.6°C | 5.4% | 0hPa | 2.5V | 00:00:00 | 01:56:07 | 00:00:00 | |
| OE3JTB-15 | 2026-09-02 03:44:49 | 48.28512 | 15.17989 | 79° | 93km/h | 12797m | -6.6m/s | -52.6°C | 5.4% | 0hPa | 2.5V | 00:00:00 | 01:56:06 | 00:00:00 | |
| DO3MHA-12 | 2026-09-02 03:44:48 | 48.28507 | 15.17951 | 79° | 99km/h | 12804m | -6.4m/s | -52.6°C | 5.4% | 0hPa | 2.5V | 00:00:00 | 01:56:05 | 00:00:00 | |
| OM5KV | 2026-09-02 03:44:47 | 48.28507 | 15.17951 | 80° | 104km/h | 12804m | -6.5m/s | -52.7°C | 2.8% | 0hPa | 2.5V | 08:13:00 | 00:00:00 | 00:00:00 | |
| OE5WHR-10 | 2026-09-02 03:44:45 | 48.28490 | 15.17837 | 77° | 93km/h | 12824m | -6.5m/s | -52.7°C | 5.4% | 0hPa | 2.5V | 00:00:00 | 01:56:02 | 00:00:00 | |
| OE5MMP-10 | 2026-09-02 03:44:43 | 48.28479 | 15.17764 | 78° | 93km/h | 12837m | -6.3m/s | -52.9°C | 5.4% | 0hPa | 2.5V | 00:00:00 | 01:56:00 | 00:00:00 | |
| OE5DXL-15 | 2026-09-02 03:44:42 | 48.28474 | 15.17728 | 78° | 93km/h | 12843m | -6.4m/s | -52.9°C | 5.4% | 0hPa | 2.5V | 00:00:00 | 00:00:00 | 00:00:00 | |
| OM5KV | 2026-09-02 03:44:41 | 48.28473 | 15.17728 | 79° | 97km/h | 12843m | -6.4m/s | -53.0°C | 2.8% | 0hPa | 2.5V | 08:13:00 | 00:00:00 | 00:00:00 | |
| OE5FHM-15 | 2026-09-02 03:44:40 | 48.28464 | 15.17657 | 79° | 93km/h | 12856m | -6.5m/s | -53.0°C | 5.4% | 0hPa | 2.5V | 00:00:00 | 01:55:57 | 00:00:00 | |
| DO3MHA-12 | 2026-09-02 03:44:38 | 48.28456 | 15.17588 | 81° | 91km/h | 12868m | -6.4m/s | -53.1°C | 5.4% | 0hPa | 2.5V | 00:00:00 | 01:55:55 | 00:00:00 | |
| PETON7-10 | 2026-09-02 03:44:35 | 48.28444 | 15.17484 | 80° | 91km/h | 12889m | -6.9m/s | -53.3°C | 5.4% | 0hPa | 2.5V | 00:00:00 | 00:00:00 | 00:00:00 | |
| OE5MMP-10 | 2026-09-02 03:44:33 | 48.28436 | 15.17416 | 82° | 91km/h | 12902m | -6.7m/s | -53.3°C | 5.5% | 0hPa | 2.5V | 00:00:00 | 01:55:50 | 00:00:00 | |
| OM5KV | 2026-09-02 03:44:29 | 48.28427 | 15.17312 | 84° | 91km/h | 12922m | -6.8m/s | -53.3°C | 2.7% | 0hPa | 2.5V | 08:13:00 | 00:00:00 | 00:00:00 | |
| DO3MHA-12 | 2026-09-02 03:44:28 | 48.28421 | 15.17243 | 84° | 89km/h | 12935m | -6.4m/s | -53.3°C | 5.4% | 0hPa | 2.5V | 00:00:00 | 01:55:45 | 00:00:00 | |
| PG1ADW-2 | 2026-09-02 03:44:25 | 48.28416 | 15.17141 | 87° | 97km/h | 12954m | -6.5m/s | -53.3°C | 5.3% | 0hPa | 2.5V | 08:13:00 | 00:00:00 | 00:00:00 | |
| OE5WHR-10 | 2026-09-02 03:44:24 | 48.28415 | 15.17108 | 88° | 97km/h | 12960m | -6.4m/s | -53.2°C | 5.3% | 0hPa | 2.5V | 08:13:00 | 00:00:00 | 00:00:00 | |
| OE5MMP-10 | 2026-09-02 03:44:23 | 48.28414 | 15.17074 | 89° | 93km/h | 12966m | -6.6m/s | -53.3°C | 5.3% | 0hPa | 2.5V | 00:00:00 | 01:55:40 | 00:00:00 | |
| PETON7-10 | 2026-09-02 03:44:20 | 48.28413 | 15.16971 | 90° | 99km/h | 12986m | -6.8m/s | -53.3°C | 5.3% | 0hPa | 2.5V | 00:00:00 | 00:00:00 | 00:00:00 | |
| DO3MHA-12 | 2026-09-02 03:44:18 | 48.28413 | 15.16901 | 90° | 99km/h | 12999m | -6.6m/s | -53.3°C | 5.3% | 0hPa | 2.5V | 00:00:00 | 01:55:35 | 00:00:00 | |
| OM5KV | 2026-09-02 03:44:17 | 48.28412 | 15.16901 | 90° | 93km/h | 12999m | -6.7m/s | -53.3°C | 2.6% | 0hPa | 2.5V | 08:14:00 | 00:00:00 | 00:00:00 | |
| OE5DRO-10 | 2026-09-02 03:44:16 | 48.28412 | 15.16829 | 89° | 100km/h | 13012m | -6.6m/s | -53.3°C | 5.3% | 0hPa | 2.5V | 00:00:00 | 00:00:00 | 00:00:00 | |
| OE5MMP-10 | 2026-09-02 03:44:13 | 48.28410 | 15.16718 | 87° | 102km/h | 13032m | -6.7m/s | -53.3°C | 5.2% | 0hPa | 2.6V | 00:00:00 | 01:55:30 | 00:00:00 | |
| OE5DXL-15 | 2026-09-02 03:44:12 | 48.28408 | 15.16680 | 86° | 100km/h | 13039m | -6.6m/s | -53.3°C | 5.2% | 0hPa | 2.6V | 00:00:00 | 00:00:00 | 00:00:00 | |
| OM5KV | 2026-09-02 03:44:11 | 48.28408 | 15.16680 | 87° | 100km/h | 13039m | -6.6m/s | -53.4°C | 2.5% | 0hPa | 2.6V | 08:14:00 | 00:00:00 | 00:00:00 | |
| OE5FHM-15 | 2026-09-02 03:44:10 | 48.28404 | 15.16604 | 86° | 99km/h | 13053m | -6.7m/s | -53.4°C | 5.2% | 0hPa | 2.6V | 08:14:00 | 01:55:27 | 00:00:00 | |
| DO3MHA-12 | 2026-09-02 03:44:08 | 48.28399 | 15.16527 | 84° | 102km/h | 13066m | -6.8m/s | -53.5°C | 5.2% | 0hPa | 2.5V | 00:00:00 | 01:55:25 | 00:00:00 | |
| PETON7-10 | 2026-09-02 03:44:05 | 48.28389 | 15.16412 | 83° | 102km/h | 13088m | -6.9m/s | -53.3°C | 5.0% | 0hPa | 2.5V | 00:00:00 | 01:55:22 | 00:00:00 | |
| OE5WHR-10 | 2026-09-02 03:44:03 | 48.28381 | 15.16336 | 80° | 99km/h | 13101m | -7.1m/s | -53.2°C | 4.9% | 0hPa | 2.5V | 00:00:00 | 00:00:00 | 00:00:00 | |
| OE3OSB-13 | 2026-09-02 03:43:47 | 48.28278 | 15.15707 | 73° | 91km/h | 13217m | -6.3m/s | -53.0°C | 2.0% | -1.0hPa | 2.5V | 00:00:00 | 00:00:00 | 00:00:00 | |
| PG1ADW-2 | 2026-09-02 03:43:45 | 48.28271 | 15.15673 | 75° | 88km/h | 13224m | -6.6m/s | -53.0°C | 4.7% | 0hPa | 2.5V | 00:00:00 | 00:00:00 | 00:00:00 | |
| OE5MMP-10 | 2026-09-02 03:43:43 | 48.28260 | 15.15608 | 77° | 88km/h | 13237m | -6.7m/s | -53.1°C | 4.7% | 0hPa | 2.5V | 00:00:00 | 01:55:00 | 00:00:00 | |
| OE5DXL-15 | 2026-09-02 03:43:42 | 48.28255 | 15.15576 | 78° | 88km/h | 13244m | -6.6m/s | -53.1°C | 4.7% | 0hPa | 2.5V | 08:14:00 | 00:00:00 | 00:00:00 | |
| OM5KV | 2026-09-02 03:43:41 | 48.28255 | 15.15576 | 79° | 88km/h | 13244m | -6.7m/s | -53.1°C | 2.1% | 0hPa | 2.6V | 08:14:00 | 00:00:00 | 00:00:00 | |
| OE5FHM-15 | 2026-09-02 03:43:40 | 48.28246 | 15.15511 | 79° | 88km/h | 13257m | -7.0m/s | -53.1°C | 4.7% | 0hPa | 2.6V | 00:00:00 | 01:54:57 | 00:00:00 | |
| OE5DRO-10 | 2026-09-02 03:43:38 | 48.28238 | 15.15445 | 81° | 86km/h | 13272m | -7.1m/s | -53.1°C | 4.7% | 0hPa | 2.6V | 00:00:00 | 00:00:00 | 00:00:00 | |
| OM5KV | 2026-09-02 03:43:37 | 48.28238 | 15.15445 | 81° | 88km/h | 13272m | -7.1m/s | -53.2°C | 2.1% | 0hPa | 2.6V | 08:14:00 | 00:00:00 | 00:00:00 | |
| PETON7-10 | 2026-09-02 03:43:35 | 48.28228 | 15.15347 | 83° | 86km/h | 13293m | -6.9m/s | -53.1°C | 4.6% | 0hPa | 2.6V | 00:00:00 | 00:00:00 | 00:00:00 | |
| OE5MMP-10 | 2026-09-02 03:43:33 | 48.28223 | 15.15281 | 86° | 88km/h | 13307m | -6.7m/s | -53.0°C | 4.6% | 0hPa | 2.6V | 00:00:00 | 01:54:50 | 00:00:00 | |
| OM5KV | 2026-09-02 03:43:29 | 48.28218 | 15.15183 | 88° | 88km/h | 13328m | -7.1m/s | -52.8°C | 2.0% | 0hPa | 2.6V | 08:14:00 | 00:00:00 | 00:00:00 | |
| DO3MHA-12 | 2026-09-02 03:43:28 | 48.28216 | 15.15117 | 88° | 86km/h | 13342m | -7.2m/s | -52.7°C | 4.4% | 0hPa | 2.6V | 08:14:00 | 01:54:45 | 00:00:00 | |
| PG1ADW-2 | 2026-09-02 03:43:25 | 48.28215 | 15.15018 | 90° | 89km/h | 13362m | -6.9m/s | -52.5°C | 4.3% | 0hPa | 2.5V | 00:00:00 | 01:54:42 | 00:00:00 | |
| OE5MMP-10 | 2026-09-02 03:43:23 | 48.28216 | 15.14953 | 92° | 86km/h | 13376m | -6.8m/s | -52.4°C | 4.3% | 0hPa | 2.6V | 00:00:00 | 01:54:40 | 00:00:00 | |
| OE3JTB-15 | 2026-09-02 03:43:22 | 48.28217 | 15.14921 | 95° | 89km/h | 13383m | -6.6m/s | -52.4°C | 4.3% | 0hPa | 2.5V | 00:00:00 | 01:54:39 | 00:00:00 | |
| PETON7-10 | 2026-09-02 03:43:20 | 48.28219 | 15.14855 | 94° | 91km/h | 13395m | -6.7m/s | -52.4°C | 4.2% | 0hPa | 2.5V | 00:00:00 | 01:54:37 | 00:00:00 | |
| OE5DRO-10 | 2026-09-02 03:43:19 | 48.28221 | 15.14823 | 97° | 91km/h | 13402m | -6.4m/s | -52.4°C | 4.2% | 0hPa | 2.5V | 08:14:00 | 00:00:00 | 00:00:00 | |
| DO3MHA-12 | 2026-09-02 03:43:18 | 48.28223 | 15.14790 | 97° | 89km/h | 13408m | -6.8m/s | -52.4°C | 4.3% | 0hPa | 2.6V | 00:00:00 | 01:54:35 | 00:00:00 | |
| OE3OSB-13 | 2026-09-02 03:43:16 | 48.28232 | 15.14692 | 97° | 88km/h | 13429m | -7.0m/s | -52.4°C | 1.7% | -1.0hPa | 2.6V | 00:00:00 | 00:00:00 | 00:00:00 | |
| OE5MMP-10 | 2026-09-02 03:43:13 | 48.28238 | 15.14625 | 98° | 95km/h | 13443m | -6.9m/s | -52.4°C | 4.2% | 0hPa | 2.6V | 00:00:00 | 01:54:30 | 00:00:00 | |
| OE5DXL-15 | 2026-09-02 03:43:12 | 48.28241 | 15.14591 | 99° | 86km/h | 13450m | -6.8m/s | -52.4°C | 4.2% | 0hPa | 2.6V | 00:00:00 | 00:00:00 | 00:00:00 | |
| OE5FHM-15 | 2026-09-02 03:43:10 | 48.28248 | 15.14522 | 98° | 84km/h | 13464m | -7.0m/s | -52.4°C | 4.2% | 0hPa | 2.6V | 00:00:00 | 01:54:27 | 00:00:00 | |
| DO3MHA-12 | 2026-09-02 03:43:08 | 48.28253 | 15.14449 | 97° | 93km/h | 13477m | -7.0m/s | -52.5°C | 4.3% | 0hPa | 2.6V | 00:00:00 | 01:54:25 | 00:00:00 | |
| OM5KV | 2026-09-02 03:43:06 | 48.28256 | 15.14413 | 96° | 97km/h | 13484m | -6.7m/s | -52.6°C | 1.8% | 0hPa | 2.6V | 08:15:00 | 00:00:00 | 00:00:00 | |
| PETON7-10 | 2026-09-02 03:43:05 | 48.28258 | 15.14339 | 92° | 88km/h | 13497m | -6.6m/s | -52.7°C | 4.4% | 0hPa | 2.6V | 08:15:00 | 00:00:00 | 00:00:00 | |
| OE5WHR-10 | 2026-09-02 03:43:00 | 48.28253 | 15.14162 | 85° | 78km/h | 13532m | -7.4m/s | -52.8°C | 4.4% | 0hPa | 2.5V | 00:00:00 | 00:00:00 | 00:00:00 | |
| DO3MHA-12 | 2026-09-02 03:42:58 | 48.28249 | 15.14097 | 86° | 82km/h | 13547m | -7.1m/s | -52.8°C | 4.4% | 0hPa | 2.5V | 00:00:00 | 01:54:15 | 00:00:00 | |
| OM5KV | 2026-09-02 03:42:54 | 48.28242 | 15.14000 | 84° | 82km/h | 13570m | -7.9m/s | -53.0°C | 1.8% | 0hPa | 2.5V | 08:15:00 | 00:00:00 | 00:00:00 | |
| PETON7-10 | 2026-09-02 03:42:50 | 48.28230 | 15.13848 | 83° | 71km/h | 13607m | -7.2m/s | -52.6°C | 4.3% | 0hPa | 2.5V | 00:00:00 | 00:00:00 | 00:00:00 | |
| DO3MHA-12 | 2026-09-02 03:42:48 | 48.28225 | 15.13790 | 81° | 71km/h | 13621m | -6.9m/s | -52.5°C | 4.3% | 0hPa | 2.5V | 00:00:00 | 01:54:05 | 00:00:00 | |
| PG1ADW-2 | 2026-09-02 03:42:45 | 48.28214 | 15.13707 | 79° | 69km/h | 13643m | -7.6m/s | -52.5°C | 4.3% | 0hPa | 2.5V | 00:00:00 | 00:00:00 | 00:00:00 | |
| OE3OSB-13 | 2026-09-02 03:42:44 | 48.28211 | 15.13680 | 79° | 71km/h | 13650m | -7.2m/s | -52.6°C | 1.6% | -1.0hPa | 2.5V | 00:00:00 | 00:00:00 | 00:00:00 | |
| OE5MMP-10 | 2026-09-02 03:42:43 | 48.28208 | 15.13653 | 78° | 66km/h | 13658m | -7.3m/s | -52.5°C | 4.3% | 0hPa | 2.5V | 00:00:00 | 01:54:00 | 00:00:00 | |
| OE5DXL-15 | 2026-09-02 03:42:42 | 48.28204 | 15.13627 | 77° | 75km/h | 13665m | -7.6m/s | -52.6°C | 4.3% | 0hPa | 2.5V | 00:00:00 | 00:00:00 | 00:00:00 | |
| OE5DRO-10 | 2026-09-02 03:42:41 | 48.28200 | 15.13601 | 79° | 69km/h | 13673m | -7.1m/s | -52.6°C | 4.4% | 0hPa | 2.5V | 00:00:00 | 00:00:00 | 00:00:00 | |
| OE5FHM-15 | 2026-09-02 03:42:40 | 48.28197 | 15.13576 | 78° | 77km/h | 13680m | -6.9m/s | -52.7°C | 4.3% | 0hPa | 2.5V | 00:00:00 | 01:53:57 | 00:00:00 | |
| OE5WHR-10 | 2026-09-02 03:42:39 | 48.28193 | 15.13550 | 78° | 71km/h | 13687m | -6.8m/s | -52.7°C | 4.4% | 0hPa | 2.5V | 00:00:00 | 01:53:56 | 00:00:00 | |
| DO3MHA-12 | 2026-09-02 03:42:38 | 48.28189 | 15.13526 | 78° | 66km/h | 13694m | -6.7m/s | -52.8°C | 4.4% | 0hPa | 2.5V | 00:00:00 | 01:53:55 | 00:00:00 | |
| PETON7-10 | 2026-09-02 03:42:35 | 48.28182 | 15.13456 | 86° | 73km/h | 13714m | -6.7m/s | -52.9°C | 4.4% | 0hPa | 2.5V | 00:00:00 | 01:53:52 | 00:00:00 | |
| OE5MMP-10 | 2026-09-02 03:42:33 | 48.28180 | 15.13407 | 90° | 73km/h | 13728m | -6.9m/s | -53.1°C | 4.5% | 0hPa | 2.5V | 00:00:00 | 01:53:50 | 00:00:00 | |
| DO3MHA-12 | 2026-09-02 03:42:28 | 48.28181 | 15.13276 | 91° | 78km/h | 13763m | -7.4m/s | -53.0°C | 4.4% | 0hPa | 2.5V | 00:00:00 | 01:53:45 | 00:00:00 | |
| OM5KV | 2026-09-02 03:42:27 | 48.28181 | 15.13276 | 91° | 75km/h | 13763m | -7.4m/s | -53.0°C | 1.9% | 0hPa | 2.6V | 08:16:00 | 00:00:00 | 00:00:00 | |
| PG1ADW-2 | 2026-09-02 03:42:25 | 48.28182 | 15.13190 | 91° | 88km/h | 13785m | -7.6m/s | -52.9°C | 4.4% | 0hPa | 2.6V | 00:00:00 | 00:00:00 | 00:00:00 | |
| OE3JTB-15 | 2026-09-02 03:42:24 | 48.28182 | 15.13161 | 90° | 88km/h | 13793m | -7.6m/s | -52.9°C | 4.4% | 0hPa | 2.5V | 00:00:00 | 00:00:00 | 00:00:00 | |
| OE5MMP-10 | 2026-09-02 03:42:23 | 48.28182 | 15.13131 | 90° | 84km/h | 13800m | -7.3m/s | -53.0°C | 4.4% | 0hPa | 2.5V | 08:15:00 | 01:53:40 | 00:00:00 | |
| OE5DRO-10 | 2026-09-02 03:42:22 | 48.28182 | 15.13101 | 91° | 89km/h | 13808m | -7.6m/s | -53.0°C | 4.4% | 0hPa | 2.5V | 00:00:00 | 00:00:00 | 00:00:00 | |
| OM5KV | 2026-09-02 03:42:21 | 48.28182 | 15.13101 | 91° | 80km/h | 13808m | -7.6m/s | -53.1°C | 1.9% | 0hPa | 2.6V | 08:16:00 | 00:00:00 | 00:00:00 | |
| PETON7-10 | 2026-09-02 03:42:20 | 48.28182 | 15.13040 | 92° | 91km/h | 13824m | -7.5m/s | -53.1°C | 4.4% | 0hPa | 2.6V | 00:00:00 | 00:00:00 | 00:00:00 | |
| DO3MHA-12 | 2026-09-02 03:42:18 | 48.28182 | 15.12976 | 91° | 91km/h | 13839m | -7.7m/s | -53.1°C | 4.4% | 0hPa | 2.5V | 00:00:00 | 01:53:35 | 00:00:00 | |
| OM5KV | 2026-09-02 03:42:15 | 48.28184 | 15.12911 | 92° | 88km/h | 13853m | -7.5m/s | -53.2°C | 1.9% | 0hPa | 2.5V | 08:16:00 | 00:00:00 | 00:00:00 | |
| OE5MMP-10 | 2026-09-02 03:42:13 | 48.28185 | 15.12808 | 91° | 95km/h | 13875m | -6.9m/s | -53.3°C | 4.5% | 0hPa | 2.5V | 00:00:00 | 01:53:30 | 00:00:00 | |
| OE5DXL-15 | 2026-09-02 03:42:12 | 48.28185 | 15.12773 | 90° | 80km/h | 13882m | -7.0m/s | -53.3°C | 4.5% | 0hPa | 2.5V | 00:00:00 | 00:00:00 | 00:00:00 | |
| OE5FHM-15 | 2026-09-02 03:42:10 | 48.28184 | 15.12701 | 87° | 77km/h | 13896m | -7.0m/s | -53.3°C | 4.6% | 0hPa | 2.5V | 00:00:00 | 01:53:27 | 00:00:00 | |
| OM5KV | 2026-09-02 03:42:09 | 48.28184 | 15.12701 | 88° | 97km/h | 13896m | -7.0m/s | -53.3°C | 1.9% | 0hPa | 2.5V | 08:16:00 | 00:00:00 | 00:00:00 | |
| DO3MHA-12 | 2026-09-02 03:42:08 | 48.28180 | 15.12628 | 84° | 88km/h | 13910m | -6.9m/s | -53.2°C | 4.5% | 0hPa | 2.5V | 00:00:00 | 01:53:25 | 00:00:00 | |
| PETON7-10 | 2026-09-02 03:42:05 | 48.28170 | 15.12522 | 82° | 80km/h | 13931m | -7.3m/s | -53.2°C | 4.5% | 0hPa | 2.5V | 00:00:00 | 00:00:00 | 00:00:00 | |
| OE5MMP-10 | 2026-09-02 03:42:03 | 48.28163 | 15.12456 | 82° | 80km/h | 13946m | -7.6m/s | -53.2°C | 4.4% | 0hPa | 2.5V | 00:00:00 | 01:53:20 | 00:00:00 | |
| DO3MHA-12 | 2026-09-02 03:41:58 | 48.28149 | 15.12300 | 84° | 73km/h | 13985m | -7.4m/s | -53.0°C | 4.4% | 0hPa | 2.5V | 08:16:00 | 01:53:15 | 00:00:00 | |
| OE5WHR-10 | 2026-09-02 03:41:57 | 48.28147 | 15.12271 | 84° | 68km/h | 13992m | -7.5m/s | -52.8°C | 4.3% | 0hPa | 2.5V | 00:00:00 | 00:00:00 | 00:00:00 | |
| OE3JTB-15 | 2026-09-02 03:41:55 | 48.28142 | 15.12212 | 84° | 66km/h | 14007m | -8.0m/s | -52.7°C | 4.3% | 0hPa | 2.5V | 00:00:00 | 01:53:12 | 00:00:00 | |
| OE5MMP-10 | 2026-09-02 03:41:53 | 48.28138 | 15.12156 | 84° | 68km/h | 14022m | -8.0m/s | -52.7°C | 4.2% | 0hPa | 2.5V | 00:00:00 | 01:53:10 | 00:00:00 | |
| OM5KV | 2026-09-02 03:41:51 | 48.28136 | 15.12129 | 83° | 71km/h | 14030m | -7.8m/s | -52.7°C | 1.7% | 0hPa | 2.5V | 08:16:00 | 00:00:00 | 00:00:00 | |
| PETON7-10 | 2026-09-02 03:41:50 | 48.28132 | 15.12076 | 84° | 62km/h | 14045m | -7.7m/s | -52.7°C | 4.2% | 0hPa | 2.5V | 00:00:00 | 01:53:07 | 00:00:00 | |
| DO3MHA-12 | 2026-09-02 03:41:48 | 48.28129 | 15.12025 | 84° | 62km/h | 14060m | -7.5m/s | -52.8°C | 4.2% | 0hPa | 2.5V | 00:00:00 | 01:53:05 | 00:00:00 | |
| PG1ADW-2 | 2026-09-02 03:41:45 | 48.28123 | 15.11951 | 84° | 64km/h | 14084m | -7.8m/s | -52.8°C | 4.2% | 0hPa | 2.5V | 00:00:00 | 00:00:00 | 00:00:00 | |
| OE5DRO-10 | 2026-09-02 03:41:44 | 48.28121 | 15.11927 | 84° | 62km/h | 14092m | -7.6m/s | -52.8°C | 4.2% | 0hPa | 2.5V | 00:00:00 | 00:00:00 | 00:00:00 | |
| OE8JPQ-2 | 2026-09-02 03:41:43 | 48.28120 | 15.11903 | 84° | 64km/h | 14099m | -7.7m/s | -52.7°C | 4.2% | 0hPa | 2.5V | 00:00:00 | 01:53:00 | 00:00:00 | |
| OE5DXL-15 | 2026-09-02 03:41:42 | 48.28118 | 15.11880 | 83° | 71km/h | 14107m | -7.6m/s | -52.8°C | 4.2% | 0hPa | 2.5V | 00:00:00 | 00:00:00 | 00:00:00 | |
| OM5KV | 2026-09-02 03:41:39 | 48.28115 | 15.11834 | 86° | 60km/h | 14122m | -7.5m/s | -52.9°C | 1.7% | 0hPa | 2.5V | 08:17:00 | 00:00:00 | 00:00:00 | |
| DO3MHA-12 | 2026-09-02 03:41:38 | 48.28113 | 15.11790 | 88° | 62km/h | 14137m | -7.2m/s | -52.8°C | 4.2% | 0hPa | 2.5V | 00:00:00 | 01:52:55 | 00:00:00 | |
| OE5WHR-10 | 2026-09-02 03:41:36 | 48.28112 | 15.11746 | 94° | 71km/h | 14151m | -6.9m/s | -52.9°C | 4.2% | 0hPa | 2.5V | 00:00:00 | 01:52:53 | 00:00:00 | |
| PETON7-10 | 2026-09-02 03:41:35 | 48.28113 | 15.11724 | 93° | 69km/h | 14158m | -7.4m/s | -52.9°C | 4.2% | 0hPa | 2.5V | 00:00:00 | 00:00:00 | 00:00:00 | |
| OE5MMP-10 | 2026-09-02 03:41:33 | 48.28115 | 15.11679 | 94° | 69km/h | 14173m | -7.5m/s | -53.0°C | 4.2% | 0hPa | 2.6V | 00:00:00 | 01:52:50 | 00:00:00 | |
| DO3MHA-12 | 2026-09-02 03:41:28 | 48.28123 | 15.11555 | 96° | 77km/h | 14211m | -7.4m/s | -53.1°C | 4.3% | 0hPa | 2.6V | 00:00:00 | 01:52:45 | 00:00:00 | |
| OM5KV | 2026-09-02 03:41:27 | 48.28123 | 15.11555 | 97° | 71km/h | 14211m | -7.5m/s | -53.2°C | 1.7% | 0hPa | 2.5V | 08:17:00 | 00:00:00 | 00:00:00 | |
| OE3JTB-15 | 2026-09-02 03:41:26 | 48.28126 | 15.11501 | 96° | 86km/h | 14226m | -7.5m/s | -53.2°C | 4.3% | 0hPa | 2.5V | 08:16:00 | 00:00:00 | 00:00:00 | |
| PG1ADW-2 | 2026-09-02 03:41:25 | 48.28128 | 15.11473 | 95° | 80km/h | 14234m | -7.3m/s | -53.2°C | 4.3% | 0hPa | 2.5V | 08:16:00 | 00:00:00 | 00:00:00 | |
| OE5MMP-10 | 2026-09-02 03:41:23 | 48.28131 | 15.11415 | 96° | 82km/h | 14249m | -7.2m/s | -53.3°C | 4.3% | 0hPa | 2.5V | 00:00:00 | 01:52:40 | 00:00:00 | |
| OM5KV | 2026-09-02 03:41:21 | 48.28133 | 15.11385 | 95° | 80km/h | 14256m | -7.7m/s | -53.4°C | 1.7% | 0hPa | 2.5V | 08:17:00 | 00:00:00 | 00:00:00 | |
| PETON7-10 | 2026-09-02 03:41:20 | 48.28136 | 15.11324 | 95° | 86km/h | 14272m | -7.6m/s | -53.4°C | 4.3% | 0hPa | 2.5V | 00:00:00 | 00:00:00 | 00:00:00 | |
| DO3MHA-12 | 2026-09-02 03:41:18 | 48.28139 | 15.11263 | 97° | 86km/h | 14287m | -7.3m/s | -53.3°C | 4.3% | 0hPa | 2.5V | 00:00:00 | 01:52:35 | 00:00:00 | |
| OE5WHR-10 | 2026-09-02 03:41:15 | 48.28145 | 15.11170 | 95° | 91km/h | 14309m | -7.4m/s | -52.9°C | 4.2% | 0hPa | 2.5V | 08:17:00 | 00:00:00 | 00:00:00 | |
| OE5MMP-10 | 2026-09-02 03:41:13 | 48.28148 | 15.11106 | 96° | 91km/h | 14325m | -7.3m/s | -52.7°C | 4.2% | 0hPa | 2.6V | 00:00:00 | 01:52:30 | 00:00:00 | |
| OE5DXL-15 | 2026-09-02 03:41:12 | 48.28150 | 15.11073 | 95° | 84km/h | 14332m | -7.8m/s | -52.7°C | 4.1% | 0hPa | 2.6V | 00:00:00 | 00:00:00 | 00:00:00 | |
| OE3OSB-13 | 2026-09-02 03:41:11 | 48.28154 | 15.11007 | 94° | 89km/h | 14347m | -7.5m/s | -52.7°C | 1.4% | -1.0hPa | 2.6V | 00:00:00 | 00:00:00 | 00:00:00 | |
| OM5KV | 2026-09-02 03:41:09 | 48.28154 | 15.11007 | 96° | 91km/h | 14348m | -7.5m/s | -52.7°C | 1.5% | 0hPa | 2.6V | 08:17:00 | 00:00:00 | 00:00:00 | |
| DO3MHA-12 | 2026-09-02 03:41:08 | 48.28158 | 15.10938 | 96° | 95km/h | 14362m | -7.0m/s | -52.6°C | 4.1% | 0hPa | 2.6V | 00:00:00 | 01:52:25 | 00:00:00 | |
| OE5DRO-10 | 2026-09-02 03:41:06 | 48.28161 | 15.10868 | 93° | 86km/h | 14376m | -6.7m/s | -52.6°C | 4.1% | 0hPa | 2.6V | 00:00:00 | 00:00:00 | 00:00:00 | |
| PETON7-10 | 2026-09-02 03:41:05 | 48.28162 | 15.10832 | 92° | 88km/h | 14383m | -6.3m/s | -52.6°C | 4.1% | 0hPa | 2.6V | 00:00:00 | 01:52:22 | 00:00:00 | |
| DO3MHA-12 | 2026-09-02 03:40:58 | 48.28150 | 15.10582 | 86° | 80km/h | 14433m | -7.2m/s | -52.5°C | 4.1% | 0hPa | 2.6V | 00:00:00 | 01:52:15 | 00:00:00 | |
| OE3JTB-15 | 2026-09-02 03:40:57 | 48.28148 | 15.10548 | 85° | 69km/h | 14440m | -7.3m/s | -52.4°C | 4.1% | 0hPa | 2.6V | 00:00:00 | 00:00:00 | 00:00:00 | |
| PG1ADW-2 | 2026-09-02 03:40:56 | 48.28145 | 15.10515 | 85° | 69km/h | 14448m | -7.4m/s | -52.2°C | 4.1% | 0hPa | 2.6V | 00:00:00 | 00:00:00 | 00:00:00 | |
| OE5WHR-10 | 2026-09-02 03:40:54 | 48.28142 | 15.10451 | 87° | 68km/h | 14462m | -6.7m/s | -51.9°C | 4.0% | 0hPa | 2.6V | 00:00:00 | 00:00:00 | 00:00:00 | |
| OE5MMP-10 | 2026-09-02 03:40:53 | 48.28140 | 15.10420 | 85° | 71km/h | 14469m | -6.9m/s | -51.9°C | 4.0% | 0hPa | 2.6V | 08:17:00 | 01:52:10 | 00:00:00 | |
| OM5KV | 2026-09-02 03:40:51 | 48.28138 | 15.10390 | 86° | 75km/h | 14476m | -7.3m/s | -51.9°C | 1.5% | 0hPa | 2.5V | 08:18:00 | 00:00:00 | 00:00:00 | |
| PETON7-10 | 2026-09-02 03:40:50 | 48.28136 | 15.10334 | 88° | 66km/h | 14490m | -7.2m/s | -51.9°C | 4.0% | 0hPa | 2.5V | 08:17:00 | 00:00:00 | 00:00:00 | |
| DO3MHA-12 | 2026-09-02 03:40:48 | 48.28135 | 15.10282 | 90° | 66km/h | 14505m | -7.7m/s | -51.9°C | 4.0% | 0hPa | 2.6V | 00:00:00 | 01:52:05 | 00:00:00 | |
| OE5DRO-10 | 2026-09-02 03:40:47 | 48.28135 | 15.10256 | 92° | 66km/h | 14513m | -7.4m/s | -51.9°C | 4.0% | 0hPa | 2.6V | 00:00:00 | 00:00:00 | 00:00:00 | |
| OM5KV | 2026-09-02 03:40:45 | 48.28136 | 15.10231 | 90° | 68km/h | 14521m | -7.5m/s | -51.9°C | 1.5% | 0hPa | 2.6V | 08:18:00 | 00:00:00 | 00:00:00 | |
| OE5MMP-10 | 2026-09-02 03:40:43 | 48.28135 | 15.10156 | 93° | 64km/h | 14545m | -7.7m/s | -51.9°C | 4.0% | 0hPa | 2.6V | 00:00:00 | 01:52:00 | 00:00:00 | |
| OE5DXL-15 | 2026-09-02 03:40:42 | 48.28136 | 15.10132 | 91° | 68km/h | 14553m | -7.9m/s | -51.9°C | 4.0% | 0hPa | 2.6V | 00:00:00 | 00:00:00 | 00:00:00 | |
| OM5KV | 2026-09-02 03:40:39 | 48.28136 | 15.10084 | 93° | 64km/h | 14570m | -8.3m/s | -51.8°C | 1.5% | 0hPa | 2.5V | 08:18:00 | 00:00:00 | 00:00:00 | |
| DO3MHA-12 | 2026-09-02 03:40:38 | 48.28136 | 15.10035 | 90° | 66km/h | 14587m | -8.9m/s | -51.8°C | 3.9% | 0hPa | 2.5V | 00:00:00 | 01:51:55 | 00:00:00 | |
| OM5KV | 2026-09-02 03:40:37 | 48.28136 | 15.10035 | 90° | 62km/h | 14587m | -9.0m/s | -51.9°C | 1.5% | 0hPa | 2.5V | 08:18:00 | 00:00:00 | 00:00:00 | |
| PETON7-10 | 2026-09-02 03:40:35 | 48.28136 | 15.09961 | 89° | 68km/h | 14612m | -8.7m/s | -51.8°C | 3.9% | 0hPa | 2.5V | 00:00:00 | 00:00:00 | 00:00:00 | |
| OE5WHR-10 | 2026-09-02 03:40:33 | 48.28135 | 15.09912 | 90° | 69km/h | 14629m | -8.2m/s | -51.8°C | 3.9% | 0hPa | 2.5V | 00:00:00 | 01:51:50 | 00:00:00 | |
| PG1ADW-2 | 2026-09-02 03:40:30 | 48.28132 | 15.09838 | 86° | 71km/h | 14654m | -8.6m/s | -51.7°C | 3.9% | 0hPa | 2.5V | 00:00:00 | 01:51:47 | 00:00:00 | |
| OM5KV | 2026-09-02 03:40:25 | 48.28127 | 15.09737 | 84° | 68km/h | 14687m | -8.7m/s | -51.4°C | 1.5% | 0hPa | 2.5V | 08:18:00 | 00:00:00 | 00:00:00 | |
| OE5MMP-10 | 2026-09-02 03:40:23 | 48.28120 | 15.09659 | 82° | 71km/h | 14711m | -8.1m/s | -51.4°C | 3.8% | 0hPa | 2.5V | 00:00:00 | 01:51:40 | 00:00:00 | |
| OM5KV | 2026-09-02 03:40:21 | 48.28117 | 15.09632 | 81° | 71km/h | 14719m | -8.6m/s | -51.5°C | 1.5% | 0hPa | 2.5V | 08:18:00 | 00:00:00 | 00:00:00 | |
| PETON7-10 | 2026-09-02 03:40:20 | 48.28111 | 15.09580 | 82° | 71km/h | 14736m | -7.7m/s | -51.6°C | 3.8% | 0hPa | 2.5V | 00:00:00 | 01:51:37 | 00:00:00 | |
| OM5KV | 2026-09-02 03:40:19 | 48.28111 | 15.09580 | 83° | 71km/h | 14736m | -7.7m/s | -51.6°C | 1.4% | 0hPa | 2.5V | 08:18:00 | 00:00:00 | 00:00:00 | |
| DO3MHA-12 | 2026-09-02 03:40:18 | 48.28104 | 15.09526 | 79° | 73km/h | 14752m | -8.3m/s | -51.7°C | 3.8% | 0hPa | 2.5V | 00:00:00 | 01:51:35 | 00:00:00 | |
| OM5KV | 2026-09-02 03:40:15 | 48.28097 | 15.09473 | 79° | 71km/h | 14769m | -8.3m/s | -51.8°C | 1.4% | 0hPa | 2.5V | 08:18:00 | 00:00:00 | 00:00:00 | |
| OE5MMP-10 | 2026-09-02 03:40:13 | 48.28084 | 15.09393 | 76° | 71km/h | 14794m | -8.1m/s | -51.9°C | 3.9% | 0hPa | 2.5V | 00:00:00 | 01:51:30 | 00:00:00 | |
| OE5DXL-15 | 2026-09-02 03:40:12 | 48.28079 | 15.09367 | 76° | 71km/h | 14802m | -8.7m/s | -51.9°C | 3.8% | 0hPa | 2.5V | 00:00:00 | 00:00:00 | 00:00:00 | |
| PG1ADW-2 | 2026-09-02 03:40:10 | 48.28069 | 15.09314 | 73° | 69km/h | 14819m | -8.2m/s | -52.0°C | 3.9% | 0hPa | 2.5V | 00:00:00 | 00:00:00 | 00:00:00 | |
| OE5DRO-10 | 2026-09-02 03:40:09 | 48.28063 | 15.09288 | 73° | 69km/h | 14828m | -8.4m/s | -52.1°C | 3.9% | 0hPa | 2.5V | 00:00:00 | 00:00:00 | 00:00:00 | |
| DO3MHA-12 | 2026-09-02 03:40:08 | 48.28058 | 15.09263 | 72° | 69km/h | 14836m | -8.5m/s | -52.2°C | 3.9% | 0hPa | 2.5V | 00:00:00 | 01:51:25 | 00:00:00 | |
| OE5MMP-10 | 2026-09-02 03:40:03 | 48.28029 | 15.09139 | 71° | 69km/h | 14879m | -8.4m/s | -52.4°C | 3.9% | 0hPa | 2.5V | 00:00:00 | 01:51:20 | 00:00:00 | |
| OE3JTB-15 | 2026-09-02 03:39:59 | 48.28007 | 15.09038 | 75° | 69km/h | 14913m | -8.3m/s | -52.7°C | 4.0% | 0hPa | 2.5V | 00:00:00 | 00:00:00 | 00:00:00 | |
| DO3MHA-12 | 2026-09-02 03:39:58 | 48.28003 | 15.09013 | 75° | 69km/h | 14921m | -8.5m/s | -52.7°C | 4.0% | 0hPa | 2.5V | 00:00:00 | 01:51:15 | 00:00:00 | |
| OM5KV | 2026-09-02 03:39:57 | 48.28003 | 15.09013 | 75° | 71km/h | 14921m | -8.6m/s | -52.8°C | 1.5% | 0hPa | 2.5V | 08:19:00 | 00:00:00 | 00:00:00 | |
| OE5MMP-10 | 2026-09-02 03:39:53 | 48.27977 | 15.08886 | 73° | 71km/h | 14963m | -8.1m/s | -53.0°C | 4.1% | 0hPa | 2.5V | 00:00:00 | 01:51:10 | 00:00:00 | |
| OE5WHR-10 | 2026-09-02 03:39:51 | 48.27966 | 15.08836 | 74° | 69km/h | 14980m | -8.4m/s | -53.0°C | 4.1% | 0hPa | 2.5V | 00:00:00 | 00:00:00 | 00:00:00 | |
| PETON7-10 | 2026-09-02 03:39:50 | 48.27961 | 15.08811 | 73° | 69km/h | 14989m | -8.4m/s | -53.0°C | 4.1% | 0hPa | 2.5V | 00:00:00 | 00:00:00 | 00:00:00 | |
| OM5KV | 2026-09-02 03:39:49 | 48.27961 | 15.08811 | 73° | 69km/h | 14989m | -8.5m/s | -53.1°C | 1.6% | 0hPa | 2.5V | 08:19:00 | 00:00:00 | 00:00:00 | |
| DO3MHA-12 | 2026-09-02 03:39:48 | 48.27951 | 15.08760 | 75° | 71km/h | 15006m | -8.5m/s | -52.9°C | 4.1% | 0hPa | 2.5V | 00:00:00 | 01:51:05 | 00:00:00 | |
| OM5KV | 2026-09-02 03:39:45 | 48.27941 | 15.08707 | 76° | 71km/h | 15023m | -8.4m/s | -52.9°C | 1.5% | 0hPa | 2.5V | 08:19:00 | 00:00:00 | 00:00:00 | |
| OE8JPQ-2 | 2026-09-02 03:39:43 | 48.27926 | 15.08629 | 77° | 69km/h | 15049m | -8.0m/s | -52.9°C | 4.1% | 0hPa | 2.5V | 00:00:00 | 01:51:00 | 00:00:00 | |
| OE5DXL-15 | 2026-09-02 03:39:42 | 48.27921 | 15.08602 | 75° | 69km/h | 15057m | -8.4m/s | -52.9°C | 4.1% | 0hPa | 2.5V | 00:00:00 | 00:00:00 | 00:00:00 | |
| OM5KV | 2026-09-02 03:39:39 | 48.27912 | 15.08551 | 78° | 68km/h | 15074m | -8.3m/s | -53.1°C | 1.5% | 0hPa | 2.5V | 08:19:00 | 00:00:00 | 00:00:00 | |
| DO3MHA-12 | 2026-09-02 03:39:38 | 48.27904 | 15.08500 | 77° | 68km/h | 15091m | -8.4m/s | -53.1°C | 4.1% | 0hPa | 2.5V | 00:00:00 | 01:50:55 | 00:00:00 | |
| OM5KV | 2026-09-02 03:39:37 | 48.27904 | 15.08500 | 77° | 68km/h | 15091m | -8.5m/s | -53.2°C | 1.5% | 0hPa | 2.5V | 08:19:00 | 00:00:00 | 00:00:00 | |
| PETON7-10 | 2026-09-02 03:39:35 | 48.27895 | 15.08426 | 83° | 69km/h | 15117m | -8.3m/s | -53.2°C | 4.2% | 0hPa | 2.5V | 00:00:00 | 01:50:52 | 00:00:00 | |
| OE5MMP-10 | 2026-09-02 03:39:33 | 48.27891 | 15.08375 | 85° | 69km/h | 15135m | -8.9m/s | -53.2°C | 4.2% | 0hPa | 2.5V | 00:00:00 | 01:50:50 | 00:00:00 | |
| OE5DRO-10 | 2026-09-02 03:39:31 | 48.27889 | 15.08323 | 88° | 69km/h | 15152m | -9.2m/s | -53.3°C | 4.2% | 0hPa | 2.5V | 00:00:00 | 00:00:00 | 00:00:00 | |
| OE5WHR-10 | 2026-09-02 03:39:30 | 48.27888 | 15.08297 | 88° | 69km/h | 15161m | -8.9m/s | -53.3°C | 4.2% | 0hPa | 2.5V | 00:00:00 | 01:50:47 | 00:00:00 | |
| DO3MHA-12 | 2026-09-02 03:39:28 | 48.27887 | 15.08244 | 91° | 71km/h | 15178m | -7.8m/s | -53.4°C | 4.3% | 0hPa | 2.5V | 00:00:00 | 01:50:45 | 00:00:00 | |
| OM5KV | 2026-09-02 03:39:27 | 48.27887 | 15.08244 | 92° | 69km/h | 15178m | -7.9m/s | -53.4°C | 1.6% | 0hPa | 2.5V | 08:19:00 | 00:00:00 | 00:00:00 | |
| PG1ADW-2 | 2026-09-02 03:39:26 | 48.27887 | 15.08190 | 90° | 64km/h | 15195m | -8.9m/s | -53.2°C | 4.2% | 0hPa | 2.5V | 00:00:00 | 00:00:00 | 00:00:00 | |
| OE5MMP-10 | 2026-09-02 03:39:23 | 48.27888 | 15.08108 | 91° | 69km/h | 15220m | -8.7m/s | -53.0°C | 4.2% | 0hPa | 2.5V | 08:18:00 | 01:50:40 | 00:00:00 | |
| OM5KV | 2026-09-02 03:39:21 | 48.27888 | 15.08082 | 93° | 71km/h | 15229m | -8.8m/s | -53.1°C | 1.5% | 0hPa | 2.5V | 08:19:00 | 00:00:00 | 00:00:00 | |
| PETON7-10 | 2026-09-02 03:39:20 | 48.27890 | 15.08028 | 94° | 68km/h | 15247m | -8.5m/s | -53.0°C | 4.2% | 0hPa | 2.5V | 00:00:00 | 00:00:00 | 00:00:00 | |
| DO3MHA-12 | 2026-09-02 03:39:18 | 48.27891 | 15.07975 | 94° | 68km/h | 15264m | -8.7m/s | -53.0°C | 4.1% | 0hPa | 2.5V | 00:00:00 | 01:50:35 | 00:00:00 | |
| OM5KV | 2026-09-02 03:39:15 | 48.27892 | 15.07922 | 91° | 68km/h | 15282m | -9.2m/s | -53.0°C | 1.5% | 0hPa | 2.5V | 08:19:00 | 00:00:00 | 00:00:00 | |
| OE5MMP-10 | 2026-09-02 03:39:13 | 48.27893 | 15.07845 | 91° | 64km/h | 15309m | -9.2m/s | -53.0°C | 4.2% | 0hPa | 2.5V | 00:00:00 | 01:50:30 | 00:00:00 | |
| OE5DXL-15 | 2026-09-02 03:39:12 | 48.27893 | 15.07820 | 94° | 60km/h | 15318m | -8.6m/s | -53.0°C | 4.2% | 0hPa | 2.5V | 08:19:00 | 00:00:00 | 00:00:00 | |
| OE5WHR-10 | 2026-09-02 03:39:09 | 48.27895 | 15.07746 | 96° | 60km/h | 15344m | -8.5m/s | -52.9°C | 4.2% | 0hPa | 2.6V | 00:00:00 | 00:00:00 | 00:00:00 | |
| DO3MHA-12 | 2026-09-02 03:39:08 | 48.27897 | 15.07722 | 94° | 58km/h | 15352m | -8.5m/s | -52.9°C | 4.2% | 0hPa | 2.5V | 00:00:00 | 01:50:25 | 00:00:00 | |
| OE3OSB-13 | 2026-09-02 03:39:07 | 48.27900 | 15.07675 | 96° | 60km/h | 15370m | -8.9m/s | -52.8°C | 1.4% | -1.0hPa | 2.5V | 00:00:00 | 00:00:00 | 00:00:00 | |
| PG1ADW-2 | 2026-09-02 03:39:05 | 48.27902 | 15.07652 | 99° | 60km/h | 15378m | -8.0m/s | -52.6°C | 4.1% | 0hPa | 2.5V | 00:00:00 | 01:50:22 | 00:00:00 | |
| OE5MMP-10 | 2026-09-02 03:39:03 | 48.27906 | 15.07606 | 99° | 62km/h | 15396m | -9.0m/s | -52.4°C | 3.9% | 0hPa | 2.6V | 00:00:00 | 01:50:20 | 00:00:00 | |
| OE3JTB-15 | 2026-09-02 03:39:01 | 48.27910 | 15.07560 | 95° | 60km/h | 15414m | -9.2m/s | -52.4°C | 4.0% | 0hPa | 2.6V | 00:00:00 | 01:50:18 | 00:00:00 | |
| OM5KV | 2026-09-02 03:38:57 | 48.27913 | 15.07489 | 92° | 64km/h | 15441m | -8.9m/s | -52.6°C | 1.5% | 0hPa | 2.6V | 08:19:00 | 00:00:00 | 00:00:00 | |
| OE5MMP-10 | 2026-09-02 03:38:53 | 48.27911 | 15.07373 | 87° | 58km/h | 15487m | -9.0m/s | -52.6°C | 4.0% | 0hPa | 2.6V | 00:00:00 | 01:50:10 | 00:00:00 | |
| OM5KV | 2026-09-02 03:38:51 | 48.27910 | 15.07350 | 88° | 60km/h | 15496m | -9.2m/s | -52.7°C | 1.5% | 0hPa | 2.6V | 08:19:00 | 00:00:00 | 00:00:00 | |
| PETON7-10 | 2026-09-02 03:38:50 | 48.27910 | 15.07306 | 90° | 58km/h | 15515m | -8.5m/s | -52.8°C | 4.0% | 0hPa | 2.6V | 00:00:00 | 01:50:07 | 00:00:00 | |
| OE5WHR-10 | 2026-09-02 03:38:48 | 48.27910 | 15.07263 | 91° | 58km/h | 15533m | -9.7m/s | -52.8°C | 4.1% | 0hPa | 2.6V | 00:00:00 | 00:00:00 | 00:00:00 | |
| PG1ADW-2 | 2026-09-02 03:38:45 | 48.27911 | 15.07199 | 92° | 58km/h | 15560m | -9.2m/s | -52.8°C | 4.1% | 0hPa | 2.6V | 00:00:00 | 00:00:00 | 00:00:00 | |
| OE5MMP-10 | 2026-09-02 03:38:43 | 48.27912 | 15.07155 | 93° | 58km/h | 15578m | -9.0m/s | -52.8°C | 4.1% | 0hPa | 2.6V | 00:00:00 | 01:50:00 | 00:00:00 | |
| OE5DXL-15 | 2026-09-02 03:38:42 | 48.27912 | 15.07134 | 92° | 57km/h | 15587m | -9.5m/s | -52.9°C | 4.1% | 0hPa | 2.6V | 00:00:00 | 00:00:00 | 00:00:00 | |
| OM5KV | 2026-09-02 03:38:39 | 48.27913 | 15.07089 | 92° | 58km/h | 15606m | -9.5m/s | -53.0°C | 1.5% | 0hPa | 2.6V | 08:19:00 | 00:00:00 | 00:00:00 | |
| OE3OSB-13 | 2026-09-02 03:38:36 | 48.27912 | 15.06976 | 87° | 58km/h | 15652m | -9.5m/s | -52.8°C | 1.4% | -1.0hPa | 2.6V | 00:00:00 | 00:00:00 | 00:00:00 | |
| PETON7-10 | 2026-09-02 03:38:35 | 48.27912 | 15.06976 | 88° | 58km/h | 15652m | -9.4m/s | -52.7°C | 4.1% | 0hPa | 2.6V | 08:19:00 | 00:00:00 | 00:00:00 | |
| OE5FHM-15 | 2026-09-02 03:38:33 | 48.27911 | 15.06930 | 89° | 55km/h | 15671m | -8.9m/s | -52.9°C | 4.1% | 0hPa | 2.5V | 00:00:00 | 01:49:50 | 00:00:00 | |
| OE3JTB-15 | 2026-09-02 03:38:32 | 48.27910 | 15.06908 | 87° | 55km/h | 15681m | -9.8m/s | -52.9°C | 4.1% | 0hPa | 2.5V | 00:00:00 | 00:00:00 | 00:00:00 | |
| OE5DRO-10 | 2026-09-02 03:38:28 | 48.27908 | 15.06818 | 90° | 51km/h | 15719m | -8.7m/s | -53.1°C | 4.2% | 0hPa | 2.5V | 00:00:00 | 00:00:00 | 00:00:00 | |
| OE5WHR-10 | 2026-09-02 03:38:27 | 48.27907 | 15.06796 | 86° | 55km/h | 15728m | -10.2m/s | -53.2°C | 4.1% | 0hPa | 2.6V | 00:00:00 | 01:49:44 | 00:00:00 | |
| PG1ADW-2 | 2026-09-02 03:38:25 | 48.27906 | 15.06754 | 88° | 55km/h | 15747m | -9.9m/s | -53.3°C | 4.2% | 0hPa | 2.6V | 00:00:00 | 00:00:00 | 00:00:00 | |
| OE5MMP-10 | 2026-09-02 03:38:23 | 48.27906 | 15.06712 | 90° | 55km/h | 15766m | -10.0m/s | -53.3°C | 4.2% | 0hPa | 2.6V | 00:00:00 | 01:49:40 | 00:00:00 | |
| OM5KV | 2026-09-02 03:38:21 | 48.27906 | 15.06692 | 93° | 55km/h | 15776m | -8.8m/s | -53.4°C | 1.6% | 0hPa | 2.6V | 08:19:00 | 00:00:00 | 00:00:00 | |
| PETON7-10 | 2026-09-02 03:38:20 | 48.27906 | 15.06650 | 93° | 55km/h | 15795m | -9.1m/s | -53.4°C | 4.2% | 0hPa | 2.6V | 00:00:00 | 00:00:00 | 00:00:00 | |
| OM5KV | 2026-09-02 03:38:15 | 48.27907 | 15.06566 | 90° | 57km/h | 15832m | -10.2m/s | -53.6°C | 1.6% | 0hPa | 2.6V | 08:20:00 | 00:00:00 | 00:00:00 | |
| OE5MMP-10 | 2026-09-02 03:38:13 | 48.27906 | 15.06503 | 88° | 53km/h | 15861m | -9.4m/s | -53.6°C | 4.3% | 0hPa | 2.6V | 00:00:00 | 01:49:30 | 00:00:00 | |
| OE5DXL-15 | 2026-09-02 03:38:12 | 48.27905 | 15.06482 | 87° | 49km/h | 15870m | -9.2m/s | -53.6°C | 4.3% | 0hPa | 2.6V | 00:00:00 | 00:00:00 | 00:00:00 | |
| DO3MHA-12 | 2026-09-02 03:38:07 | 48.27896 | 15.06384 | 78° | 33km/h | 15917m | -9.6m/s | -53.5°C | 4.2% | 0hPa | 2.6V | 08:20:00 | 01:49:24 | 00:00:00 | |
| OE5WHR-10 | 2026-09-02 03:38:06 | 48.27893 | 15.06365 | 77° | 49km/h | 15927m | -9.6m/s | -53.4°C | 4.2% | 0hPa | 2.6V | 08:20:00 | 00:00:00 | 00:00:00 | |
| PETON7-10 | 2026-09-02 03:38:05 | 48.27890 | 15.06346 | 79° | 47km/h | 15936m | -9.1m/s | -53.3°C | 4.2% | 0hPa | 2.5V | 00:00:00 | 01:49:22 | 00:00:00 | |
| OE5MMP-10 | 2026-09-02 03:38:03 | 48.27884 | 15.06310 | 76° | 47km/h | 15956m | -9.7m/s | -53.4°C | 4.2% | 0hPa | 2.5V | 00:00:00 | 01:49:20 | 00:00:00 | |
| OM5KV | 2026-09-02 03:37:57 | 48.27869 | 15.06223 | 78° | 47km/h | 16004m | -9.4m/s | -53.4°C | 1.5% | 0hPa | 2.5V | 08:20:00 | 00:00:00 | 00:00:00 | |
| OE5MMP-10 | 2026-09-02 03:37:53 | 48.27856 | 15.06137 | 78° | 49km/h | 16053m | -9.8m/s | -53.7°C | 4.1% | 0hPa | 2.5V | 08:20:00 | 01:49:10 | 00:00:00 | |
| OM5KV | 2026-09-02 03:37:51 | 48.27855 | 15.06119 | 82° | 49km/h | 16062m | -9.6m/s | -53.8°C | 1.5% | 0hPa | 2.7V | 08:20:00 | 00:00:00 | 00:00:00 | |
| PETON7-10 | 2026-09-02 03:37:50 | 48.27850 | 15.06082 | 81° | 49km/h | 16081m | -9.6m/s | -53.9°C | 4.2% | 0hPa | 2.7V | 00:00:00 | 00:00:00 | 00:00:00 | |
| PG1ADW-2 | 2026-09-02 03:37:45 | 48.27834 | 15.05988 | 77° | 49km/h | 16130m | -9.6m/s | -54.3°C | 4.3% | 0hPa | 2.5V | 00:00:00 | 01:49:02 | 00:00:00 | |
| OE5MMP-10 | 2026-09-02 03:37:43 | 48.27827 | 15.05953 | 72° | 49km/h | 16150m | -10.2m/s | -54.5°C | 4.4% | 0hPa | 2.5V | 00:00:00 | 01:49:00 | 00:00:00 | |
| OE5DXL-15 | 2026-09-02 03:37:42 | 48.27823 | 15.05936 | 73° | 53km/h | 16160m | -9.8m/s | -54.5°C | 4.4% | 0hPa | 2.5V | 00:00:00 | 00:00:00 | 00:00:00 | |
| OE5DRO-10 | 2026-09-02 03:37:39 | 48.27813 | 15.05883 | 73° | 51km/h | 16188m | -9.5m/s | -54.6°C | 4.4% | 0hPa | 2.5V | 00:00:00 | 00:00:00 | 00:00:00 | |
| PETON7-10 | 2026-09-02 03:37:35 | 48.27798 | 15.05814 | 72° | 51km/h | 16229m | -10.0m/s | -54.6°C | 4.4% | 0hPa | 2.5V | 00:00:00 | 00:00:00 | 00:00:00 | |
| OE3OSB-13 | 2026-09-02 03:37:34 | 48.27790 | 15.05777 | 75° | 51km/h | 16248m | -9.3m/s | -54.8°C | 1.4% | -1.0hPa | 2.5V | 00:00:00 | 00:00:00 | 00:00:00 | |
| OE5MMP-10 | 2026-09-02 03:37:33 | 48.27790 | 15.05777 | 76° | 51km/h | 16248m | -9.3m/s | -54.8°C | 4.4% | 0hPa | 2.5V | 00:00:00 | 01:48:50 | 00:00:00 | |
| OM5KV | 2026-09-02 03:37:27 | 48.27771 | 15.05684 | 76° | 51km/h | 16296m | -10.1m/s | -54.9°C | 1.6% | 0hPa | 2.5V | 08:21:00 | 00:00:00 | 00:00:00 | |
| PG1ADW-2 | 2026-09-02 03:37:25 | 48.27762 | 15.05629 | 78° | 57km/h | 16326m | -10.1m/s | -54.1°C | 4.2% | 0hPa | 2.5V | 00:00:00 | 00:00:00 | 00:00:00 | |
| OE5WHR-10 | 2026-09-02 03:37:24 | 48.27760 | 15.05610 | 81° | 58km/h | 16335m | -9.6m/s | -54.0°C | 4.2% | 0hPa | 2.5V | 00:00:00 | 01:48:41 | 00:00:00 | |
| OE5MMP-10 | 2026-09-02 03:37:23 | 48.27757 | 15.05590 | 83° | 57km/h | 16345m | -9.3m/s | -54.0°C | 4.1% | 0hPa | 2.5V | 00:00:00 | 01:48:40 | 00:00:00 | |
| OM5KV | 2026-09-02 03:37:21 | 48.27755 | 15.05570 | 82° | 51km/h | 16354m | -9.9m/s | -54.1°C | 1.4% | 0hPa | 2.5V | 08:21:00 | 00:00:00 | 00:00:00 | |
| PETON7-10 | 2026-09-02 03:37:20 | 48.27752 | 15.05530 | 83° | 58km/h | 16374m | -9.8m/s | -54.2°C | 4.2% | 0hPa | 2.5V | 00:00:00 | 01:48:37 | 00:00:00 | |
| OM5KV | 2026-09-02 03:37:15 | 48.27746 | 15.05441 | 84° | 58km/h | 16410m | -9.9m/s | -54.4°C | 1.4% | 0hPa | 2.5V | 08:21:00 | 00:00:00 | 00:00:00 | |
| OE5MMP-10 | 2026-09-02 03:37:13 | 48.27741 | 15.05373 | 84° | 58km/h | 16439m | -10.5m/s | -54.5°C | 4.2% | 0hPa | 2.5V | 00:00:00 | 01:48:30 | 00:00:00 | |
| OE5DXL-15 | 2026-09-02 03:37:12 | 48.27740 | 15.05351 | 85° | 55km/h | 16449m | -10.6m/s | -54.5°C | 4.3% | 0hPa | 2.5V | 00:00:00 | 00:00:00 | 00:00:00 | |
| OM5KV | 2026-09-02 03:37:09 | 48.27736 | 15.05306 | 85° | 58km/h | 16470m | -10.7m/s | -54.7°C | 1.4% | 0hPa | 2.5V | 08:21:00 | 00:00:00 | 00:00:00 | |
| PG1ADW-2 | 2026-09-02 03:37:05 | 48.27733 | 15.05197 | 89° | 55km/h | 16524m | -10.5m/s | -54.8°C | 4.4% | 0hPa | 2.5V | 00:00:00 | 00:00:00 | 00:00:00 | |
| OE5MMP-10 | 2026-09-02 03:37:03 | 48.27733 | 15.05152 | 91° | 58km/h | 16544m | -10.2m/s | -54.9°C | 4.4% | 0hPa | 2.5V | 00:00:00 | 01:48:20 | 00:00:00 | |
| OE5DRO-10 | 2026-09-02 03:37:01 | 48.27732 | 15.05107 | 90° | 53km/h | 16563m | -10.1m/s | -54.8°C | 4.4% | 0hPa | 2.5V | 08:21:00 | 00:00:00 | 00:00:00 | |
| OM5KV | 2026-09-02 03:36:57 | 48.27732 | 15.05040 | 90° | 58km/h | 16592m | -10.4m/s | -54.8°C | 1.5% | 0hPa | 2.6V | 08:21:00 | 00:00:00 | 00:00:00 | |
| OE5MMP-10 | 2026-09-02 03:36:53 | 48.27733 | 15.04934 | 90° | 49km/h | 16641m | -10.4m/s | -54.8°C | 4.4% | 0hPa | 2.6V | 00:00:00 | 01:48:10 | 00:00:00 | |
| OM5KV | 2026-09-02 03:36:51 | 48.27733 | 15.04914 | 91° | 51km/h | 16652m | -10.5m/s | -54.8°C | 1.5% | 0hPa | 2.6V | 08:21:00 | 00:00:00 | 00:00:00 | |
| PETON7-10 | 2026-09-02 03:36:50 | 48.27734 | 15.04875 | 91° | 44km/h | 16671m | -10.1m/s | -54.5°C | 4.3% | 0hPa | 2.6V | 00:00:00 | 00:00:00 | 00:00:00 | |
| OE8JPQ-2 | 2026-09-02 03:36:46 | 48.27735 | 15.04801 | 92° | 44km/h | 16712m | -11.0m/s | -54.2°C | 4.2% | 0hPa | 2.6V | 00:00:00 | 00:00:00 | 00:00:00 | |
| PG1ADW-2 | 2026-09-02 03:36:45 | 48.27735 | 15.04783 | 93° | 44km/h | 16722m | -10.8m/s | -54.1°C | 4.1% | 0hPa | 2.5V | 00:00:00 | 00:00:00 | 00:00:00 | |
| OE5MMP-10 | 2026-09-02 03:36:43 | 48.27736 | 15.04749 | 93° | 42km/h | 16743m | -11.2m/s | -54.0°C | 4.1% | 0hPa | 2.5V | 00:00:00 | 01:48:00 | 00:00:00 | |
| OE5DXL-15 | 2026-09-02 03:36:42 | 48.27736 | 15.04732 | 93° | 42km/h | 16754m | -10.8m/s | -53.9°C | 4.1% | 0hPa | 2.5V | 00:00:00 | 00:00:00 | 00:00:00 | |
| OE3JTB-15 | 2026-09-02 03:36:36 | 48.27742 | 15.04640 | 102° | 44km/h | 16817m | -9.7m/s | -53.9°C | 4.0% | 0hPa | 2.5V | 00:00:00 | 00:00:00 | 00:00:00 | |
| PETON7-10 | 2026-09-02 03:36:35 | 48.27744 | 15.04625 | 100° | 44km/h | 16826m | -9.9m/s | -54.0°C | 4.0% | 0hPa | 2.5V | 00:00:00 | 01:47:52 | 00:00:00 | |
| OE5FHM-15 | 2026-09-02 03:36:33 | 48.27748 | 15.04592 | 102° | 42km/h | 16847m | -10.9m/s | -54.1°C | 4.1% | 0hPa | 2.5V | 08:21:00 | 01:47:50 | 00:00:00 | |
| OE3OSB-13 | 2026-09-02 03:36:32 | 48.27751 | 15.04559 | 96° | 42km/h | 16867m | -10.8m/s | -54.1°C | 1.2% | -1.0hPa | 2.6V | 00:00:00 | 00:00:00 | 00:00:00 | |
| OE8JPQ-2 | 2026-09-02 03:36:26 | 48.27754 | 15.04476 | 91° | 42km/h | 16921m | -10.2m/s | -54.2°C | 4.2% | 0hPa | 2.6V | 00:00:00 | 00:00:00 | 00:00:00 | |
| PG1ADW-2 | 2026-09-02 03:36:25 | 48.27754 | 15.04459 | 90° | 42km/h | 16931m | -9.6m/s | -54.2°C | 4.2% | 0hPa | 2.6V | 00:00:00 | 01:47:42 | 00:00:00 | |
| OE5MMP-10 | 2026-09-02 03:36:23 | 48.27754 | 15.04426 | 90° | 44km/h | 16950m | -10.1m/s | -54.3°C | 4.2% | 0hPa | 2.6V | 08:21:00 | 01:47:40 | 00:00:00 | |
| OE5WHR-10 | 2026-09-02 03:36:21 | 48.27753 | 15.04393 | 88° | 42km/h | 16971m | -10.4m/s | -54.4°C | 4.2% | 0hPa | 2.5V | 00:00:00 | 01:47:38 | 00:00:00 | |
| PETON7-10 | 2026-09-02 03:36:20 | 48.27753 | 15.04376 | 88° | 42km/h | 16981m | -11.0m/s | -54.5°C | 4.3% | 0hPa | 2.5V | 08:21:00 | 00:00:00 | 00:00:00 | |
| OK1ALN | 2026-09-02 03:36:19 | 48.27753 | 15.04376 | 88° | 44km/h | 16981m | -11.1m/s | -54.5°C | 1.4% | 0hPa | 2.6V | 00:00:00 | 00:00:00 | 00:00:00 | |
| OM5KV | 2026-09-02 03:36:16 | 48.27753 | 15.04329 | 91° | 42km/h | 17014m | -10.0m/s | -54.7°C | 1.4% | 0hPa | 2.6V | 08:22:00 | 00:00:00 | 00:00:00 | |
| OE5MMP-10 | 2026-09-02 03:36:13 | 48.27752 | 15.04264 | 89° | 40km/h | 17054m | -11.2m/s | -54.4°C | 4.3% | 0hPa | 2.6V | 00:00:00 | 01:47:30 | 00:00:00 | |
| OE5DXL-15 | 2026-09-02 03:36:12 | 48.27752 | 15.04248 | 90° | 40km/h | 17065m | -11.4m/s | -54.3°C | 4.2% | 0hPa | 2.6V | 00:00:00 | 00:00:00 | 00:00:00 | |
| OM5KV | 2026-09-02 03:36:11 | 48.27752 | 15.04248 | 90° | 40km/h | 17065m | -11.4m/s | -54.3°C | 1.4% | 0hPa | 2.5V | 08:22:00 | 00:00:00 | 00:00:00 | |
| OE3JTB-15 | 2026-09-02 03:36:07 | 48.27753 | 15.04170 | 92° | 40km/h | 17116m | -10.5m/s | -54.1°C | 4.2% | 0hPa | 2.5V | 00:00:00 | 01:47:24 | 00:00:00 | |
| OE8JPQ-2 | 2026-09-02 03:36:06 | 48.27753 | 15.04153 | 93° | 38km/h | 17127m | -10.9m/s | -54.1°C | 4.2% | 0hPa | 2.5V | 00:00:00 | 01:47:23 | 00:00:00 | |
| OM5KV | 2026-09-02 03:36:05 | 48.27753 | 15.04153 | 93° | 42km/h | 17127m | -10.9m/s | -54.2°C | 1.3% | 0hPa | 2.5V | 08:22:00 | 00:00:00 | 00:00:00 | |
| OE5DRO-10 | 2026-09-02 03:36:04 | 48.27753 | 15.04123 | 90° | 38km/h | 17148m | -10.9m/s | -54.0°C | 4.2% | 0hPa | 2.5V | 00:00:00 | 00:00:00 | 00:00:00 | |
| OE5MMP-10 | 2026-09-02 03:36:03 | 48.27754 | 15.04109 | 94° | 40km/h | 17159m | -10.1m/s | -53.8°C | 4.1% | 0hPa | 2.6V | 00:00:00 | 01:47:20 | 00:00:00 | |
| OE3OSB-13 | 2026-09-02 03:36:01 | 48.27757 | 15.04064 | 95° | 40km/h | 17190m | -10.4m/s | -53.8°C | 1.1% | -1.0hPa | 2.6V | 00:00:00 | 00:00:00 | 00:00:00 | |
| EDDB2-12 | 2026-09-02 03:35:53 | 48.27757 | 15.03916 | 90° | 37km/h | 17296m | -11.0m/s | -53.6°C | 1.1% | -1.0hPa | 2.6V | 00:00:00 | 00:00:00 | 00:00:00 | |
| OM5KV | 2026-09-02 03:35:51 | 48.27758 | 15.03943 | 86° | 35km/h | 17275m | -10.5m/s | -53.6°C | 1.3% | 0hPa | 2.6V | 08:22:00 | 00:00:00 | 00:00:00 | |
| PETON7-10 | 2026-09-02 03:35:50 | 48.27757 | 15.03916 | 91° | 44km/h | 17296m | -10.9m/s | -53.5°C | 3.9% | 0hPa | 2.6V | 00:00:00 | 01:47:07 | 00:00:00 | |
| OE5HKT-10 | 2026-09-02 03:35:49 | 48.27758 | 15.03901 | 92° | 24km/h | 17307m | -11.0m/s | -53.6°C | 3.9% | 0hPa | 2.6V | 08:22:00 | 00:00:00 | 00:00:00 | |
| OE8JPQ-2 | 2026-09-02 03:35:46 | 48.27758 | 15.03858 | 96° | 44km/h | 17340m | -11.1m/s | -53.6°C | 3.9% | 0hPa | 2.5V | 08:22:00 | 00:00:00 | 00:00:00 | |
| DK5PH-5 | 2026-09-02 03:35:45 | 48.27760 | 15.03843 | 98° | 44km/h | 17351m | -10.1m/s | -53.6°C | 3.9% | 0hPa | 2.7V | 08:22:00 | 01:47:02 | 00:00:00 | |
| OE5MMP-10 | 2026-09-02 03:35:43 | 48.27763 | 15.03810 | 98° | 46km/h | 17371m | -10.6m/s | -53.4°C | 3.9% | 0hPa | 2.6V | 00:00:00 | 01:47:00 | 00:00:00 | |
| OE5DXL-15 | 2026-09-02 03:35:42 | 48.27764 | 15.03792 | 96° | 44km/h | 17381m | -10.4m/s | -53.4°C | 3.9% | 0hPa | 2.6V | 00:00:00 | 00:00:00 | 00:00:00 | |
| OM5KV | 2026-09-02 03:35:41 | 48.27764 | 15.03792 | 96° | 49km/h | 17381m | -10.5m/s | -53.5°C | 1.2% | 0hPa | 2.6V | 08:23:00 | 00:00:00 | 00:00:00 | |
| OE5WHR-10 | 2026-09-02 03:35:39 | 48.27766 | 15.03737 | 88° | 44km/h | 17414m | -11.7m/s | -53.6°C | 3.9% | 0hPa | 2.6V | 00:00:00 | 00:00:00 | 00:00:00 | |
| OE3JTB-15 | 2026-09-02 03:35:38 | 48.27765 | 15.03719 | 86° | 42km/h | 17425m | -11.3m/s | -53.7°C | 4.0% | 0hPa | 2.6V | 00:00:00 | 00:00:00 | 00:00:00 | |
| PETON7-10 | 2026-09-02 03:35:35 | 48.27761 | 15.03667 | 81° | 42km/h | 17458m | -10.8m/s | -53.9°C | 4.0% | 0hPa | 2.5V | 00:00:00 | 00:00:00 | 00:00:00 | |
| OE5MMP-10 | 2026-09-02 03:35:33 | 48.27758 | 15.03635 | 84° | 42km/h | 17478m | -10.0m/s | -54.0°C | 4.1% | 0hPa | 2.5V | 00:00:00 | 01:46:50 | 00:00:00 | |
| SONDE2-11 | 2026-09-02 03:35:32 | 48.27757 | 15.03620 | 84° | 40km/h | 17489m | -10.8m/s | -54.1°C | 1.1% | -1.0hPa | 2.5V | 00:00:00 | 00:00:00 | 00:00:00 | |
| OE3OSB-13 | 2026-09-02 03:35:29 | 48.27755 | 15.03573 | 86° | 40km/h | 17521m | -11.1m/s | -54.2°C | 1.1% | -1.0hPa | 2.5V | 00:00:00 | 00:00:00 | 00:00:00 | |
| OM5KV | 2026-09-02 03:35:28 | 48.27755 | 15.03573 | 88° | 40km/h | 17521m | -11.1m/s | -54.2°C | 1.3% | 0hPa | 2.5V | 08:23:00 | 00:00:00 | 00:00:00 | |
| OE8JPQ-2 | 2026-09-02 03:35:26 | 48.27756 | 15.03528 | 96° | 38km/h | 17555m | -10.6m/s | -54.3°C | 4.1% | 0hPa | 2.5V | 00:00:00 | 00:00:00 | 00:00:00 | |
| PG1ADW-2 | 2026-09-02 03:35:25 | 48.27757 | 15.03513 | 100° | 38km/h | 17566m | -10.6m/s | -54.3°C | 4.2% | 0hPa | 2.5V | 00:00:00 | 00:00:00 | 00:00:00 | |
| OE5MMP-10 | 2026-09-02 03:35:23 | 48.27761 | 15.03479 | 101° | 44km/h | 17586m | -10.0m/s | -54.3°C | 4.2% | 0hPa | 2.5V | 00:00:00 | 01:46:40 | 00:00:00 | |
| EDDB2-12 | 2026-09-02 03:35:22 | 48.27765 | 15.03444 | 97° | 47km/h | 17607m | -11.5m/s | -54.4°C | 1.2% | -1.0hPa | 2.5V | 00:00:00 | 00:00:00 | 00:00:00 | |
| PETON7-10 | 2026-09-02 03:35:20 | 48.27766 | 15.03426 | 95° | 37km/h | 17618m | -11.3m/s | -54.3°C | 4.2% | 0hPa | 2.5V | 00:00:00 | 00:00:00 | 00:00:00 | |
| OE5WHR-10 | 2026-09-02 03:35:18 | 48.27768 | 15.03392 | 98° | 33km/h | 17640m | -10.6m/s | -54.4°C | 4.2% | 0hPa | 2.5V | 00:00:00 | 01:46:35 | 00:00:00 | |
| OM5KV | 2026-09-02 03:35:16 | 48.27769 | 15.03376 | 93° | 44km/h | 17650m | -11.2m/s | -54.5°C | 1.3% | 0hPa | 2.5V | 08:23:00 | 00:00:00 | 00:00:00 | |
| DK5PH-5 | 2026-09-02 03:35:15 | 48.27769 | 15.03344 | 93° | 31km/h | 17672m | -11.7m/s | -54.5°C | 4.3% | 0hPa | 2.5V | 00:00:00 | 01:46:32 | 00:00:00 | |
| OE5MMP-10 | 2026-09-02 03:35:13 | 48.27770 | 15.03317 | 95° | 29km/h | 17696m | -11.4m/s | -54.5°C | 4.3% | 0hPa | 2.5V | 00:00:00 | 01:46:30 | 00:00:00 | |
| OM5KV | 2026-09-02 03:35:12 | 48.27770 | 15.03317 | 96° | 33km/h | 17696m | -11.4m/s | -54.5°C | 1.3% | 0hPa | 2.5V | 08:23:00 | 00:00:00 | 00:00:00 | |
| OM5KV | 2026-09-02 03:35:10 | 48.27772 | 15.03293 | 101° | 31km/h | 17718m | -10.5m/s | -54.5°C | 1.4% | 0hPa | 2.5V | 08:23:00 | 00:00:00 | 00:00:00 | |
| OE3JTB-15 | 2026-09-02 03:35:09 | 48.27776 | 15.03271 | 108° | 29km/h | 17739m | -10.3m/s | -54.3°C | 4.3% | 0hPa | 2.5V | 00:00:00 | 00:00:00 | 00:00:00 | |
| OE5DRO-10 | 2026-09-02 03:35:07 | 48.27780 | 15.03250 | 110° | 29km/h | 17760m | -11.6m/s | -53.9°C | 4.1% | 0hPa | 2.5V | 00:00:00 | 00:00:00 | 00:00:00 | |
| OE8JPQ-2 | 2026-09-02 03:35:06 | 48.27782 | 15.03239 | 110° | 29km/h | 17772m | -11.3m/s | -53.8°C | 4.0% | 0hPa | 2.5V | 00:00:00 | 01:46:23 | 00:00:00 | |
| PETON7-10 | 2026-09-02 03:35:05 | 48.27784 | 15.03230 | 107° | 31km/h | 17783m | -10.9m/s | -53.8°C | 4.1% | 0hPa | 2.5V | 00:00:00 | 01:46:22 | 00:00:00 | |
| OK1ALN | 2026-09-02 03:35:04 | 48.27784 | 15.03230 | 108° | 24km/h | 17783m | -11.0m/s | -53.9°C | 1.3% | 0hPa | 2.5V | 08:23:00 | 00:00:00 | 00:00:00 | |
| OE5FHM-15 | 2026-09-02 03:35:03 | 48.27790 | 15.03212 | 119° | 29km/h | 17806m | -10.6m/s | -53.7°C | 4.0% | 0hPa | 2.5V | 00:00:00 | 01:46:20 | 00:00:00 | |
| SONDE2-11 | 2026-09-02 03:35:01 | 48.27796 | 15.03192 | 116° | 27km/h | 17828m | -12.0m/s | -53.7°C | 1.1% | -1.0hPa | 2.5V | 00:00:00 | 00:00:00 | 00:00:00 | |
| OE3OSB-13 | 2026-09-02 03:34:58 | 48.27806 | 15.03162 | 118° | 31km/h | 17861m | -10.3m/s | -53.7°C | 1.1% | -1.0hPa | 2.5V | 00:00:00 | 00:00:00 | 00:00:00 | |
| OE5WHR-10 | 2026-09-02 03:34:57 | 48.27810 | 15.03151 | 111° | 29km/h | 17872m | -11.0m/s | -53.7°C | 4.0% | 0hPa | 2.5V | 08:23:00 | 00:00:00 | 00:00:00 | |
| OE5MMP-10 | 2026-09-02 03:34:53 | 48.27818 | 15.03103 | 98° | 27km/h | 17918m | -11.1m/s | -53.5°C | 4.0% | 0hPa | 2.6V | 08:23:00 | 01:46:10 | 00:00:00 | |
| PETON7-10 | 2026-09-02 03:34:50 | 48.27821 | 15.03067 | 90° | 27km/h | 17951m | -11.6m/s | -53.4°C | 3.9% | 0hPa | 2.5V | 00:00:00 | 00:00:00 | 00:00:00 | |
| OE5DRO-10 | 2026-09-02 03:34:48 | 48.27821 | 15.03046 | 94° | 29km/h | 17974m | -11.0m/s | -53.4°C | 3.9% | 0hPa | 2.5V | 00:00:00 | 00:00:00 | 00:00:00 | |
| OE8JPQ-2 | 2026-09-02 03:34:46 | 48.27822 | 15.03026 | 95° | 29km/h | 17996m | -11.3m/s | -53.6°C | 3.9% | 0hPa | 2.5V | 00:00:00 | 00:00:00 | 00:00:00 | |
| DK5PH-5 | 2026-09-02 03:34:45 | 48.27823 | 15.03017 | 95° | 31km/h | 18008m | -11.6m/s | -53.7°C | 4.0% | 0hPa | 2.7V | 00:00:00 | 01:46:02 | 00:00:00 | |
| OE5MMP-10 | 2026-09-02 03:34:43 | 48.27825 | 15.02999 | 108° | 29km/h | 18030m | -10.6m/s | -53.9°C | 4.0% | 0hPa | 2.7V | 00:00:00 | 01:46:00 | 00:00:00 | |
| OE5DXL-15 | 2026-09-02 03:34:42 | 48.27827 | 15.02989 | 103° | 31km/h | 18041m | -11.2m/s | -54.0°C | 4.0% | 0hPa | 2.7V | 08:23:00 | 00:00:00 | 00:00:00 | |
| OE3JTB-15 | 2026-09-02 03:34:40 | 48.27829 | 15.02969 | 105° | 31km/h | 18064m | -11.8m/s | -54.1°C | 4.1% | 0hPa | 2.5V | 00:00:00 | 01:45:57 | 00:00:00 | |
| OE5WHR-10 | 2026-09-02 03:34:36 | 48.27836 | 15.02924 | 97° | 33km/h | 18110m | -11.6m/s | -54.2°C | 4.1% | 0hPa | 2.5V | 00:00:00 | 00:00:00 | 00:00:00 | |
| PETON7-10 | 2026-09-02 03:34:35 | 48.27837 | 15.02913 | 100° | 33km/h | 18122m | -11.0m/s | -54.2°C | 4.2% | 0hPa | 2.5V | 00:00:00 | 00:00:00 | 00:00:00 | |
| OE5FHM-15 | 2026-09-02 03:34:33 | 48.27838 | 15.02889 | 91° | 27km/h | 18144m | -12.0m/s | -54.1°C | 4.1% | 0hPa | 2.5V | 00:00:00 | 01:45:50 | 00:00:00 | |
| OM5KV | 2026-09-02 03:34:31 | 48.27838 | 15.02877 | 90° | 31km/h | 18156m | -12.3m/s | -54.0°C | 1.2% | 0hPa | 2.5V | 00:00:00 | 00:00:00 | 00:00:00 | |
| SONDE2-11 | 2026-09-02 03:34:30 | 48.27838 | 15.02853 | 91° | 31km/h | 18179m | -11.2m/s | -53.9°C | 1.1% | -1.0hPa | 2.5V | 00:00:00 | 00:00:00 | 00:00:00 | |
| OE5DRO-10 | 2026-09-02 03:34:29 | 48.27838 | 15.02841 | 88° | 31km/h | 18190m | -11.2m/s | -53.9°C | 4.1% | 0hPa | 2.5V | 00:00:00 | 00:00:00 | 00:00:00 | |
| OE3OSB-13 | 2026-09-02 03:34:27 | 48.27837 | 15.02817 | 83° | 31km/h | 18213m | -12.0m/s | -54.1°C | 1.1% | -1.0hPa | 2.5V | 00:00:00 | 00:00:00 | 00:00:00 | |
| OE8JPQ-2 | 2026-09-02 03:34:26 | 48.27837 | 15.02804 | 94° | 27km/h | 18226m | -12.0m/s | -54.0°C | 4.1% | 0hPa | 2.5V | 00:00:00 | 00:00:00 | 00:00:00 | |
| PG1ADW-2 | 2026-09-02 03:34:25 | 48.27837 | 15.02792 | 88° | 27km/h | 18237m | -12.0m/s | -54.0°C | 4.0% | 0hPa | 2.5V | 00:00:00 | 00:00:00 | 00:00:00 | |
| OE5MMP-10 | 2026-09-02 03:34:23 | 48.27835 | 15.02767 | 86° | 31km/h | 18261m | -11.2m/s | -54.0°C | 4.0% | 0hPa | 2.5V | 00:00:00 | 01:45:40 | 00:00:00 | |
| OK1ALN | 2026-09-02 03:34:21 | 48.27834 | 15.02754 | 85° | 35km/h | 18272m | -11.5m/s | -54.1°C | 1.2% | 0hPa | 2.5V | 08:24:00 | 00:00:00 | 00:00:00 | |
| PETON7-10 | 2026-09-02 03:34:20 | 48.27831 | 15.02729 | 82° | 24km/h | 18295m | -12.0m/s | -54.2°C | 4.1% | 0hPa | 2.5V | 00:00:00 | 01:45:37 | 00:00:00 | |
| EDDB2-12 | 2026-09-02 03:34:19 | 48.27830 | 15.02717 | 85° | 33km/h | 18307m | -11.3m/s | -54.4°C | 1.1% | -1.0hPa | 2.5V | 00:00:00 | 00:00:00 | 00:00:00 | |
| DK5PH-5 | 2026-09-02 03:34:15 | 48.27825 | 15.02671 | 83° | 22km/h | 18354m | -11.0m/s | -53.9°C | 4.1% | 0hPa | 2.5V | 00:00:00 | 01:45:32 | 00:00:00 | |
| OE5MMP-10 | 2026-09-02 03:34:13 | 48.27823 | 15.02652 | 80° | 20km/h | 18378m | -12.1m/s | -53.8°C | 4.1% | 0hPa | 2.5V | 00:00:00 | 01:45:30 | 00:00:00 | |
| OE5DXL-15 | 2026-09-02 03:34:12 | 48.27823 | 15.02643 | 80° | 24km/h | 18390m | -12.1m/s | -53.8°C | 4.0% | 0hPa | 2.5V | 00:00:00 | 00:00:00 | 00:00:00 | |
| OE3JTB-15 | 2026-09-02 03:34:11 | 48.27823 | 15.02636 | 94° | 24km/h | 18402m | -11.3m/s | -53.7°C | 4.0% | 0hPa | 2.5V | 00:00:00 | 00:00:00 | 00:00:00 | |
| OE5DRO-10 | 2026-09-02 03:34:10 | 48.27823 | 15.02628 | 86° | 29km/h | 18413m | -11.4m/s | -53.7°C | 4.0% | 0hPa | 2.5V | 08:24:00 | 00:00:00 | 00:00:00 | |
| OM5KV | 2026-09-02 03:34:09 | 48.27822 | 15.02628 | 87° | 22km/h | 18413m | -11.4m/s | -53.8°C | 1.2% | 0hPa | 2.5V | 00:00:00 | 00:00:00 | 00:00:00 | |
| OE8JPQ-2 | 2026-09-02 03:34:06 | 48.27823 | 15.02601 | 99° | 22km/h | 18460m | -12.8m/s | -53.7°C | 4.0% | 0hPa | 2.5V | 00:00:00 | 01:45:23 | 00:00:00 | |
| PETON7-10 | 2026-09-02 03:34:05 | 48.27824 | 15.02595 | 106° | 20km/h | 18472m | -11.5m/s | -53.8°C | 4.0% | 0hPa | 2.5V | 08:24:00 | 00:00:00 | 00:00:00 | |
| SONDE2-11 | 2026-09-02 03:33:59 | 48.27829 | 15.02553 | 105° | 20km/h | 18543m | -11.4m/s | -54.2°C | 1.1% | -1.0hPa | 2.7V | 00:00:00 | 00:00:00 | 00:00:00 | |
| OE3OSB-13 | 2026-09-02 03:33:56 | 48.27833 | 15.02523 | 97° | 20km/h | 18589m | -12.1m/s | -54.5°C | 1.1% | -1.0hPa | 2.7V | 00:00:00 | 00:00:00 | 00:00:00 | |
| EDDB2-12 | 2026-09-02 03:33:48 | 48.27849 | 15.02459 | 110° | 31km/h | 18673m | -11.9m/s | -53.7°C | 1.0% | -1.0hPa | 2.7V | 00:00:00 | 00:00:00 | 00:00:00 | |
| OE8JPQ-2 | 2026-09-02 03:33:46 | 48.27853 | 15.02436 | 110° | 29km/h | 18697m | -10.9m/s | -53.9°C | 4.0% | 0hPa | 2.7V | 00:00:00 | 00:00:00 | 00:00:00 | |
| DK5PH-5 | 2026-09-02 03:33:45 | 48.27856 | 15.02425 | 106° | 27km/h | 18708m | -12.1m/s | -54.0°C | 4.0% | 0hPa | 2.7V | 00:00:00 | 01:45:02 | 00:00:00 | |
| OE5MMP-10 | 2026-09-02 03:33:43 | 48.27859 | 15.02401 | 104° | 31km/h | 18732m | -11.0m/s | -54.2°C | 4.1% | 0hPa | 2.7V | 00:00:00 | 01:45:00 | 00:00:00 | |
| OK1ALN | 2026-09-02 03:33:39 | 48.27864 | 15.02351 | 95° | 31km/h | 18781m | -12.5m/s | -54.4°C | 1.2% | 0hPa | 2.7V | 08:24:00 | 00:00:00 | 00:00:00 | |
| OM5KV | 2026-09-02 03:33:38 | 48.27864 | 15.02351 | 95° | 31km/h | 18781m | -12.5m/s | -54.4°C | 1.2% | 0hPa | 2.7V | 08:24:00 | 00:00:00 | 00:00:00 | |
| OM5KV | 2026-09-02 03:33:37 | 48.27865 | 15.02339 | 98° | 33km/h | 18793m | -11.8m/s | -54.4°C | 1.2% | 0hPa | 2.7V | 08:24:00 | 00:00:00 | 00:00:00 | |
| OE5MMP-10 | 2026-09-02 03:33:33 | 48.27869 | 15.02284 | 103° | 24km/h | 18854m | -11.1m/s | -54.3°C | 4.1% | 0hPa | 2.7V | 00:00:00 | 01:44:50 | 00:00:00 | |
| OE5DRO-10 | 2026-09-02 03:33:32 | 48.27870 | 15.02274 | 97° | 29km/h | 18865m | -12.7m/s | -54.2°C | 4.1% | 0hPa | 2.7V | 00:00:00 | 00:00:00 | 00:00:00 | |
| OM5KV | 2026-09-02 03:33:31 | 48.27870 | 15.02274 | 97° | 27km/h | 18865m | -12.7m/s | -54.3°C | 1.2% | 0hPa | 2.7V | 08:24:00 | 00:00:00 | 00:00:00 | |
| DO3MHA-12 | 2026-09-02 03:33:29 | 48.27872 | 15.02246 | 91° | 22km/h | 18902m | -12.4m/s | -54.4°C | 4.1% | 0hPa | 2.7V | 00:00:00 | 01:44:46 | 00:00:00 | |
| OE8JPQ-2 | 2026-09-02 03:33:26 | 48.27873 | 15.02221 | 91° | 29km/h | 18939m | -12.1m/s | -54.0°C | 4.0% | 0hPa | 2.7V | 00:00:00 | 00:00:00 | 00:00:00 | |
| PG1ADW-2 | 2026-09-02 03:33:25 | 48.27873 | 15.02212 | 88° | 29km/h | 18952m | -12.8m/s | -54.0°C | 3.9% | 0hPa | 2.7V | 00:00:00 | 00:00:00 | 00:00:00 | |
| OM5KV | 2026-09-02 03:33:24 | 48.27873 | 15.02212 | 89° | 24km/h | 18952m | -12.8m/s | -54.0°C | 1.2% | 0hPa | 2.7V | 08:24:00 | 00:00:00 | 00:00:00 | |
| OE5MMP-10 | 2026-09-02 03:33:23 | 48.27872 | 15.02196 | 87° | 27km/h | 18977m | -13.1m/s | -54.0°C | 3.9% | 0hPa | 2.7V | 08:24:00 | 01:44:40 | 00:00:00 | |
| PETON7-10 | 2026-09-02 03:33:20 | 48.27869 | 15.02170 | 75° | 33km/h | 19015m | -12.8m/s | -54.2°C | 3.9% | 0hPa | 2.5V | 00:00:00 | 00:00:00 | 00:00:00 | |
| DO3MHA-12 | 2026-09-02 03:33:19 | 48.27868 | 15.02161 | 81° | 31km/h | 19027m | -12.3m/s | -54.3°C | 4.0% | 0hPa | 2.7V | 00:00:00 | 01:44:36 | 00:00:00 | |
| OM5KV | 2026-09-02 03:33:18 | 48.27868 | 15.02161 | 82° | 26km/h | 19027m | -12.4m/s | -54.3°C | 1.2% | 0hPa | 2.7V | 08:24:00 | 00:00:00 | 00:00:00 | |
| EDDB2-12 | 2026-09-02 03:33:17 | 48.27864 | 15.02141 | 67° | 26km/h | 19052m | -12.8m/s | -54.5°C | 1.1% | -1.0hPa | 2.7V | 00:00:00 | 00:00:00 | 00:00:00 | |
| DK5PH-5 | 2026-09-02 03:33:15 | 48.27858 | 15.02120 | 64° | 29km/h | 19077m | -13.3m/s | -54.5°C | 4.0% | 0hPa | 2.7V | 00:00:00 | 01:44:32 | 00:00:00 | |
| OE5MMP-10 | 2026-09-02 03:33:13 | 48.27851 | 15.02098 | 63° | 37km/h | 19103m | -12.6m/s | -54.7°C | 4.1% | 0hPa | 2.7V | 00:00:00 | 01:44:30 | 00:00:00 | |
| OE5DXL-15 | 2026-09-02 03:33:12 | 48.27846 | 15.02086 | 54° | 31km/h | 19116m | -13.1m/s | -54.8°C | 4.1% | 0hPa | 2.7V | 00:00:00 | 00:00:00 | 00:00:00 | |
| OM5KV | 2026-09-02 03:33:09 | 48.27835 | 15.02065 | 54° | 38km/h | 19141m | -12.9m/s | -55.0°C | 1.2% | 0hPa | 2.5V | 08:25:00 | 00:00:00 | 00:00:00 | |
| OE5DRO-10 | 2026-09-02 03:33:08 | 48.27823 | 15.02045 | 49° | 35km/h | 19166m | -11.8m/s | -55.1°C | 4.2% | 0hPa | 2.5V | 00:00:00 | 00:00:00 | 00:00:00 | |
| OM5KV | 2026-09-02 03:33:07 | 48.27823 | 15.02045 | 49° | 35km/h | 19166m | -11.8m/s | -55.2°C | 1.3% | 0hPa | 2.5V | 08:25:00 | 00:00:00 | 00:00:00 | |
| OE8JPQ-2 | 2026-09-02 03:33:06 | 48.27811 | 15.02025 | 44° | 31km/h | 19191m | -12.9m/s | -55.3°C | 4.3% | 0hPa | 2.5V | 00:00:00 | 01:44:23 | 00:00:00 | |
| PETON7-10 | 2026-09-02 03:33:05 | 48.27805 | 15.02015 | 53° | 33km/h | 19204m | -12.6m/s | -55.4°C | 4.3% | 0hPa | 2.5V | 00:00:00 | 00:00:00 | 00:00:00 | |
| OE5FHM-15 | 2026-09-02 03:33:03 | 48.27794 | 15.01995 | 59° | 26km/h | 19230m | -13.2m/s | -55.6°C | 4.4% | 0hPa | 2.5V | 00:00:00 | 01:44:20 | 00:00:00 | |
| SONDE2-11 | 2026-09-02 03:32:57 | 48.27767 | 15.01927 | 64° | 35km/h | 19307m | -13.6m/s | -55.5°C | 1.2% | -1.0hPa | 2.5V | 00:00:00 | 00:00:00 | 00:00:00 | |
| OE3OSB-13 | 2026-09-02 03:32:54 | 48.27753 | 15.01881 | 73° | 31km/h | 19359m | -12.1m/s | -55.6°C | 1.2% | -1.0hPa | 2.5V | 00:00:00 | 00:00:00 | 00:00:00 | |
| OE5MMP-10 | 2026-09-02 03:32:53 | 48.27753 | 15.01881 | 74° | 24km/h | 19359m | -12.0m/s | -55.5°C | 4.4% | 0hPa | 2.5V | 00:00:00 | 01:44:10 | 00:00:00 | |
| OE5WHR-10 | 2026-09-02 03:32:51 | 48.27748 | 15.01860 | 75° | 22km/h | 19385m | -12.5m/s | -55.5°C | 4.4% | 0hPa | 2.5V | 00:00:00 | 00:00:00 | 00:00:00 | |
| PETON7-10 | 2026-09-02 03:32:50 | 48.27747 | 15.01851 | 76° | 22km/h | 19398m | -13.2m/s | -55.5°C | 4.4% | 0hPa | 2.5V | 00:00:00 | 01:44:07 | 00:00:00 | |
| DO3MHA-12 | 2026-09-02 03:32:49 | 48.27745 | 15.01842 | 71° | 20km/h | 19411m | -12.9m/s | -55.4°C | 4.4% | 0hPa | 2.5V | 00:00:00 | 01:44:06 | 00:00:00 | |
| OE8JPQ-2 | 2026-09-02 03:32:46 | 48.27744 | 15.01820 | 100° | 22km/h | 19449m | -13.7m/s | -55.3°C | 4.4% | 0hPa | 2.5V | 08:25:00 | 00:00:00 | 00:00:00 | |
| PG1ADW-2 | 2026-09-02 03:32:45 | 48.27745 | 15.01814 | 114° | 22km/h | 19462m | -12.0m/s | -55.2°C | 4.4% | 0hPa | 2.6V | 00:00:00 | 00:00:00 | 00:00:00 | |
| DK5PH-5 | 2026-09-02 03:32:44 | 48.27747 | 15.01807 | 110° | 22km/h | 19475m | -13.3m/s | -55.2°C | 4.4% | 0hPa | 2.6V | 00:00:00 | 01:44:01 | 00:00:00 | |
| OE5MMP-10 | 2026-09-02 03:32:43 | 48.27749 | 15.01801 | 118° | 24km/h | 19488m | -12.6m/s | -55.2°C | 4.4% | 0hPa | 2.7V | 00:00:00 | 01:44:00 | 00:00:00 | |
| OE5DXL-15 | 2026-09-02 03:32:42 | 48.27751 | 15.01794 | 123° | 22km/h | 19500m | -12.5m/s | -55.2°C | 4.4% | 0hPa | 2.7V | 00:00:00 | 00:00:00 | 00:00:00 | |
| OM5KV | 2026-09-02 03:32:40 | 48.27754 | 15.01787 | 122° | 20km/h | 19513m | -13.7m/s | -55.1°C | 1.3% | 0hPa | 2.7V | 08:25:00 | 00:00:00 | 00:00:00 | |
| DO3MHA-12 | 2026-09-02 03:32:39 | 48.27760 | 15.01773 | 125° | 24km/h | 19539m | -14.0m/s | -54.8°C | 4.2% | 0hPa | 2.7V | 08:25:00 | 01:43:56 | 00:00:00 | |
| OM5KV | 2026-09-02 03:32:38 | 48.27761 | 15.01773 | 125° | 26km/h | 19539m | -14.1m/s | -54.8°C | 1.2% | 0hPa | 2.5V | 08:25:00 | 00:00:00 | 00:00:00 | |
| PETON7-10 | 2026-09-02 03:32:35 | 48.27773 | 15.01742 | 111° | 20km/h | 19592m | -13.6m/s | -55.0°C | 4.3% | 0hPa | 2.5V | 00:00:00 | 00:00:00 | 00:00:00 | |
| OM5KV | 2026-09-02 03:32:34 | 48.27773 | 15.01742 | 112° | 26km/h | 19592m | -13.7m/s | -55.0°C | 1.2% | 0hPa | 2.5V | 08:25:00 | 00:00:00 | 00:00:00 | |
| OE5MMP-10 | 2026-09-02 03:32:33 | 48.27777 | 15.01726 | 109° | 20km/h | 19618m | -13.5m/s | -55.1°C | 4.3% | 0hPa | 2.5V | 00:00:00 | 01:43:50 | 00:00:00 | |
| OE5FHM-15 | 2026-09-02 03:32:31 | 48.27781 | 15.01710 | 107° | 18km/h | 19645m | -13.4m/s | -55.3°C | 4.5% | 0hPa | 2.5V | 00:00:00 | 01:43:48 | 00:00:00 | |
| OE5WHR-10 | 2026-09-02 03:32:30 | 48.27782 | 15.01702 | 103° | 20km/h | 19658m | -13.7m/s | -55.3°C | 4.5% | 0hPa | 2.5V | 00:00:00 | 00:00:00 | 00:00:00 | |
| DO3MHA-12 | 2026-09-02 03:32:29 | 48.27783 | 15.01694 | 109° | 20km/h | 19671m | -12.8m/s | -55.3°C | 4.5% | 0hPa | 2.5V | 00:00:00 | 01:43:46 | 00:00:00 | |
| OE8JPQ-2 | 2026-09-02 03:32:26 | 48.27786 | 15.01673 | 89° | 20km/h | 19711m | -13.8m/s | -54.8°C | 4.4% | 0hPa | 2.5V | 00:00:00 | 00:00:00 | 00:00:00 | |
| PG1ADW-2 | 2026-09-02 03:32:25 | 48.27786 | 15.01666 | 101° | 18km/h | 19724m | -13.1m/s | -54.7°C | 4.4% | 0hPa | 2.5V | 00:00:00 | 01:43:42 | 00:00:00 | |
| OE5MMP-10 | 2026-09-02 03:32:23 | 48.27786 | 15.01652 | 98° | 20km/h | 19750m | -13.3m/s | -54.3°C | 4.2% | 0hPa | 2.5V | 00:00:00 | 01:43:40 | 00:00:00 | |
| OM5KV | 2026-09-02 03:32:22 | 48.27786 | 15.01652 | 99° | 18km/h | 19750m | -13.3m/s | -54.4°C | 1.2% | 0hPa | 2.5V | 08:26:00 | 00:00:00 | 00:00:00 | |
| PETON7-10 | 2026-09-02 03:32:20 | 48.27787 | 15.01630 | 96° | 18km/h | 19791m | -15.0m/s | -54.3°C | 4.2% | 0hPa | 2.5V | 00:00:00 | 00:00:00 | 00:00:00 | |
| DO3MHA-12 | 2026-09-02 03:32:19 | 48.27788 | 15.01623 | 100° | 20km/h | 19805m | -13.3m/s | -54.3°C | 4.1% | 0hPa | 2.5V | 00:00:00 | 01:43:36 | 00:00:00 | |
| OM5KV | 2026-09-02 03:32:17 | 48.27788 | 15.01615 | 93° | 22km/h | 19818m | -14.1m/s | -54.2°C | 1.2% | 0hPa | 2.5V | 08:26:00 | 00:00:00 | 00:00:00 | |
| OM5KV | 2026-09-02 03:32:16 | 48.27789 | 15.01608 | 112° | 20km/h | 19832m | -15.1m/s | -54.2°C | 1.2% | 0hPa | 2.5V | 08:26:00 | 00:00:00 | 00:00:00 | |
| OE3JTB-15 | 2026-09-02 03:32:15 | 48.27791 | 15.01592 | 96° | 16km/h | 19860m | -13.1m/s | -54.3°C | 4.2% | 0hPa | 2.5V | 00:00:00 | 00:00:00 | 00:00:00 | |
| DK5PH-5 | 2026-09-02 03:32:14 | 48.27792 | 15.01584 | 97° | 16km/h | 19873m | -13.9m/s | -54.4°C | 4.2% | 0hPa | 2.5V | 00:00:00 | 01:43:31 | 00:00:00 | |
| OE5MMP-10 | 2026-09-02 03:32:13 | 48.27792 | 15.01577 | 99° | 16km/h | 19887m | -13.5m/s | -54.3°C | 4.2% | 0hPa | 2.5V | 00:00:00 | 01:43:30 | 00:00:00 | |
| OE5DXL-15 | 2026-09-02 03:32:12 | 48.27792 | 15.01569 | 89° | 16km/h | 19900m | -13.9m/s | -54.2°C | 4.1% | 0hPa | 2.5V | 00:00:00 | 00:00:00 | 00:00:00 | |
| OE5DRO-10 | 2026-09-02 03:32:11 | 48.27792 | 15.01562 | 96° | 13km/h | 19914m | -13.3m/s | -54.2°C | 4.1% | 0hPa | 2.5V | 00:00:00 | 00:00:00 | 00:00:00 | |
| OK1ALN | 2026-09-02 03:32:10 | 48.27793 | 15.01562 | 97° | 16km/h | 19914m | -13.3m/s | -54.2°C | 1.2% | 0hPa | 2.5V | 00:00:00 | 00:00:00 | 00:00:00 | |
| DO3MHA-12 | 2026-09-02 03:32:09 | 48.27793 | 15.01547 | 94° | 11km/h | 19941m | -13.5m/s | -54.2°C | 4.1% | 0hPa | 2.5V | 00:00:00 | 01:43:26 | 00:00:00 | |
| OE8JPQ-2 | 2026-09-02 03:32:06 | 48.27793 | 15.01530 | 84° | 15km/h | 19982m | -14.5m/s | -54.4°C | 4.2% | 0hPa | 2.5V | 00:00:00 | 01:43:23 | 00:00:00 | |
| PETON7-10 | 2026-09-02 03:32:05 | 48.27792 | 15.01526 | 85° | 13km/h | 19996m | -13.4m/s | -54.5°C | 4.3% | 0hPa | 2.5V | 00:00:00 | 01:43:22 | 00:00:00 | |
| OM5KV | 2026-09-02 03:32:04 | 48.27792 | 15.01526 | 85° | 9km/h | 19996m | -13.4m/s | -54.5°C | 1.3% | 0hPa | 2.5V | 08:26:00 | 00:00:00 | 00:00:00 | |
| OM5KV | 2026-09-02 03:32:03 | 48.27792 | 15.01522 | 78° | 11km/h | 20010m | -14.1m/s | -54.6°C | 1.2% | 0hPa | 2.5V | 08:26:00 | 00:00:00 | 00:00:00 | |
| SONDE2-11 | 2026-09-02 03:31:55 | 48.27800 | 15.01495 | 117° | 13km/h | 20134m | -13.9m/s | -54.3°C | 1.1% | -1.0hPa | 2.5V | 00:00:00 | 00:00:00 | 00:00:00 | |
| OE3OSB-13 | 2026-09-02 03:31:52 | 48.27809 | 15.01469 | 115° | 20km/h | 20188m | -14.3m/s | -54.4°C | 1.1% | -1.0hPa | 2.5V | 00:00:00 | 00:00:00 | 00:00:00 | |
| OM5KV | 2026-09-02 03:31:51 | 48.27807 | 15.01476 | 120° | 22km/h | 20174m | -12.8m/s | -54.5°C | 1.3% | 0hPa | 2.5V | 08:26:00 | 00:00:00 | 00:00:00 | |
| PETON7-10 | 2026-09-02 03:31:50 | 48.27811 | 15.01462 | 119° | 18km/h | 20202m | -13.2m/s | -53.9°C | 4.2% | 0hPa | 2.5V | 08:26:00 | 00:00:00 | 00:00:00 | |
| DO3MHA-12 | 2026-09-02 03:31:49 | 48.27814 | 15.01454 | 111° | 18km/h | 20215m | -14.0m/s | -53.5°C | 4.1% | 0hPa | 2.5V | 00:00:00 | 01:43:06 | 00:00:00 | |
| OE5WHR-10 | 2026-09-02 03:31:47 | 48.27818 | 15.01439 | 111° | 16km/h | 20242m | -14.5m/s | -53.4°C | 4.0% | 0hPa | 2.5V | 08:26:00 | 00:00:00 | 00:00:00 | |
| OE8JPQ-2 | 2026-09-02 03:31:46 | 48.27821 | 15.01432 | 121° | 16km/h | 20256m | -13.2m/s | -53.3°C | 4.0% | 0hPa | 2.5V | 00:00:00 | 00:00:00 | 00:00:00 | |
| PG1ADW-2 | 2026-09-02 03:31:45 | 48.27823 | 15.01425 | 114° | 15km/h | 20270m | -14.7m/s | -53.2°C | 4.0% | 0hPa | 2.5V | 00:00:00 | 00:00:00 | 00:00:00 | |
| DK5PH-5 | 2026-09-02 03:31:44 | 48.27825 | 15.01418 | 118° | 11km/h | 20284m | -13.4m/s | -53.2°C | 4.0% | 0hPa | 2.5V | 00:00:00 | 01:43:01 | 00:00:00 | |
| OE5MMP-10 | 2026-09-02 03:31:43 | 48.27827 | 15.01412 | 116° | 15km/h | 20298m | -14.5m/s | -53.1°C | 3.9% | 0hPa | 2.5V | 00:00:00 | 01:43:00 | 00:00:00 | |
| OE5DXL-15 | 2026-09-02 03:31:42 | 48.27829 | 15.01406 | 125° | 11km/h | 20312m | -13.2m/s | -52.9°C | 3.9% | 0hPa | 2.5V | 00:00:00 | 00:00:00 | 00:00:00 | |
| OM5KV | 2026-09-02 03:31:40 | 48.27831 | 15.01401 | 116° | 15km/h | 20326m | -14.7m/s | -52.9°C | 1.1% | 0hPa | 2.7V | 08:26:00 | 00:00:00 | 00:00:00 | |
| OM5KV | 2026-09-02 03:31:39 | 48.27833 | 15.01397 | 141° | 13km/h | 20340m | -13.3m/s | -52.7°C | 1.1% | 0hPa | 2.7V | 08:26:00 | 00:00:00 | 00:00:00 | |
| DO3MHA-12 | 2026-09-02 03:31:38 | 48.27838 | 15.01390 | 148° | 15km/h | 20367m | -13.4m/s | -52.7°C | 3.7% | 0hPa | 2.7V | 00:00:00 | 01:42:55 | 00:00:00 | |
| PETON7-10 | 2026-09-02 03:31:35 | 48.27847 | 15.01382 | 146° | 11km/h | 20409m | -15.1m/s | -52.9°C | 3.8% | 0hPa | 2.5V | 00:00:00 | 00:00:00 | 00:00:00 | |
| OE5MMP-10 | 2026-09-02 03:31:33 | 48.27854 | 15.01374 | 133° | 13km/h | 20437m | -14.5m/s | -53.1°C | 3.9% | 0hPa | 2.5V | 00:00:00 | 01:42:50 | 00:00:00 | |
| OE5FHM-15 | 2026-09-02 03:31:30 | 48.27861 | 15.01361 | 116° | 9km/h | 20480m | -14.0m/s | -53.3°C | 3.9% | 0hPa | 2.5V | 00:00:00 | 01:42:47 | 00:00:00 | |
| DO3MHA-12 | 2026-09-02 03:31:28 | 48.27863 | 15.01351 | 105° | 7km/h | 20508m | -14.0m/s | -53.3°C | 3.9% | 0hPa | 2.5V | 00:00:00 | 01:42:45 | 00:00:00 | |
| OE5WHR-10 | 2026-09-02 03:31:26 | 48.27864 | 15.01343 | 104° | 7km/h | 20536m | -15.1m/s | -53.4°C | 3.9% | 0hPa | 2.5V | 00:00:00 | 00:00:00 | 00:00:00 | |
| PG1ADW-2 | 2026-09-02 03:31:25 | 48.27863 | 15.01340 | 82° | 7km/h | 20551m | -14.2m/s | -53.5°C | 3.9% | 0hPa | 2.5V | 00:00:00 | 00:00:00 | 00:00:00 | |
| SONDE2-11 | 2026-09-02 03:31:24 | 48.27863 | 15.01337 | 70° | 9km/h | 20565m | -15.0m/s | -53.6°C | 1.0% | -1.0hPa | 2.5V | 00:00:00 | 00:00:00 | 00:00:00 | |
| OE5MMP-10 | 2026-09-02 03:31:23 | 48.27862 | 15.01334 | 63° | 5km/h | 20580m | -14.0m/s | -53.5°C | 3.9% | 0hPa | 2.5V | 00:00:00 | 01:42:40 | 00:00:00 | |
| OM5KV | 2026-09-02 03:31:22 | 48.27862 | 15.01334 | 64° | 5km/h | 20580m | -14.1m/s | -53.6°C | 1.1% | 0hPa | 2.5V | 08:27:00 | 00:00:00 | 00:00:00 | |
| OM5KV | 2026-09-02 03:31:21 | 48.27861 | 15.01332 | 72° | 9km/h | 20594m | -14.6m/s | -53.6°C | 1.1% | 0hPa | 2.5V | 08:27:00 | 00:00:00 | 00:00:00 | |
| PETON7-10 | 2026-09-02 03:31:20 | 48.27860 | 15.01329 | 65° | 7km/h | 20623m | -14.7m/s | -53.7°C | 4.1% | 0hPa | 2.5V | 00:00:00 | 01:42:37 | 00:00:00 | |
| OK1ALN | 2026-09-02 03:31:19 | 48.27860 | 15.01329 | 65° | 5km/h | 20623m | -14.8m/s | -53.8°C | 1.1% | 0hPa | 2.5V | 00:00:00 | 00:00:00 | 00:00:00 | |
| DO3MHA-12 | 2026-09-02 03:31:18 | 48.27860 | 15.01326 | 89° | 7km/h | 20651m | -15.4m/s | -53.7°C | 4.0% | 0hPa | 2.5V | 00:00:00 | 01:42:35 | 00:00:00 | |
| OE3JTB-15 | 2026-09-02 03:31:17 | 48.27860 | 15.01325 | 138° | 11km/h | 20666m | -13.7m/s | -53.7°C | 4.0% | 0hPa | 2.5V | 00:00:00 | 00:00:00 | 00:00:00 | |
| DK5PH-5 | 2026-09-02 03:31:14 | 48.27862 | 15.01320 | 94° | 13km/h | 20709m | -14.9m/s | -53.8°C | 4.0% | 0hPa | 2.5V | 08:27:00 | 01:42:31 | 00:00:00 | |
| OE5MMP-10 | 2026-09-02 03:31:13 | 48.27862 | 15.01318 | 109° | 11km/h | 20723m | -13.9m/s | -53.9°C | 4.1% | 0hPa | 2.5V | 00:00:00 | 01:42:30 | 00:00:00 | |
| OE5DXL-15 | 2026-09-02 03:31:12 | 48.27862 | 15.01316 | 67° | 15km/h | 20738m | -14.7m/s | -54.0°C | 4.2% | 0hPa | 2.5V | 00:00:00 | 00:00:00 | 00:00:00 | |
| OM5KV | 2026-09-02 03:31:11 | 48.27862 | 15.01316 | 67° | 4km/h | 20738m | -14.8m/s | -54.1°C | 1.2% | 0hPa | 2.5V | 08:27:00 | 00:00:00 | 00:00:00 | |
| DO3MHA-12 | 2026-09-02 03:31:08 | 48.27863 | 15.01302 | 93° | 13km/h | 20797m | -14.6m/s | -53.9°C | 4.1% | 0hPa | 2.5V | 08:27:00 | 01:42:25 | 00:00:00 | |
| OE8JPQ-2 | 2026-09-02 03:31:06 | 48.27863 | 15.01293 | 104° | 15km/h | 20826m | -14.0m/s | -53.7°C | 4.1% | 0hPa | 2.7V | 00:00:00 | 01:42:23 | 00:00:00 | |
| PETON7-10 | 2026-09-02 03:31:05 | 48.27863 | 15.01289 | 96° | 15km/h | 20840m | -15.1m/s | -53.7°C | 4.0% | 0hPa | 2.7V | 00:00:00 | 00:00:00 | 00:00:00 | |
| OM5KV | 2026-09-02 03:31:04 | 48.27863 | 15.01289 | 96° | 15km/h | 20840m | -15.2m/s | -53.8°C | 1.1% | 0hPa | 2.5V | 08:27:00 | 00:00:00 | 00:00:00 | |
| OE5MMP-10 | 2026-09-02 03:31:03 | 48.27864 | 15.01280 | 103° | 15km/h | 20870m | -15.0m/s | -53.9°C | 4.1% | 0hPa | 2.5V | 00:00:00 | 01:42:20 | 00:00:00 | |
| SONDE2-11 | 2026-09-02 03:30:53 | 48.27866 | 15.01221 | 68° | 15km/h | 21030m | -15.3m/s | -53.5°C | 1.0% | -1.0hPa | 2.5V | 00:00:00 | 00:00:00 | 00:00:00 | |
| OE3OSB-13 | 2026-09-02 03:30:49 | 48.27861 | 15.01207 | 65° | 13km/h | 21074m | -13.8m/s | -53.8°C | 1.0% | -1.0hPa | 2.5V | 00:00:00 | 00:00:00 | 00:00:00 | |
| DO3MHA-12 | 2026-09-02 03:30:48 | 48.27858 | 15.01202 | 46° | 20km/h | 21089m | -15.0m/s | -53.8°C | 4.0% | 0hPa | 2.5V | 00:00:00 | 01:42:05 | 00:00:00 | |
| OE8JPQ-2 | 2026-09-02 03:30:46 | 48.27853 | 15.01191 | 54° | 22km/h | 21118m | -14.7m/s | -53.8°C | 4.0% | 0hPa | 2.5V | 00:00:00 | 00:00:00 | 00:00:00 | |
| PG1ADW-2 | 2026-09-02 03:30:45 | 48.27851 | 15.01185 | 62° | 22km/h | 21133m | -15.3m/s | -53.8°C | 4.1% | 0hPa | 2.7V | 00:00:00 | 00:00:00 | 00:00:00 | |
| DK5PH-5 | 2026-09-02 03:30:44 | 48.27849 | 15.01179 | 63° | 18km/h | 21148m | -14.7m/s | -53.9°C | 4.1% | 0hPa | 2.7V | 00:00:00 | 01:42:01 | 00:00:00 | |
| OE5MMP-10 | 2026-09-02 03:30:43 | 48.27846 | 15.01171 | 68° | 26km/h | 21163m | -15.2m/s | -53.9°C | 4.1% | 0hPa | 2.7V | 00:00:00 | 01:42:00 | 00:00:00 | |
| OE5DXL-15 | 2026-09-02 03:30:42 | 48.27844 | 15.01164 | 70° | 16km/h | 21178m | -14.4m/s | -53.9°C | 4.1% | 0hPa | 2.7V | 00:00:00 | 00:00:00 | 00:00:00 | |
| OM5KV | 2026-09-02 03:30:40 | 48.27842 | 15.01156 | 67° | 22km/h | 21193m | -15.6m/s | -53.9°C | 1.2% | 0hPa | 2.7V | 08:28:00 | 00:00:00 | 00:00:00 | |
| OM5KV | 2026-09-02 03:30:39 | 48.27840 | 15.01147 | 78° | 26km/h | 21208m | -14.2m/s | -53.8°C | 1.1% | 0hPa | 2.7V | 08:28:00 | 00:00:00 | 00:00:00 | |
| DO3MHA-12 | 2026-09-02 03:30:38 | 48.27836 | 15.01130 | 81° | 22km/h | 21238m | -14.7m/s | -53.7°C | 4.0% | 0hPa | 2.7V | 00:00:00 | 01:41:55 | 00:00:00 | |
| OE5DRO-10 | 2026-09-02 03:30:36 | 48.27834 | 15.01110 | 81° | 16km/h | 21267m | -16.0m/s | -53.6°C | 4.0% | 0hPa | 2.5V | 00:00:00 | 00:00:00 | 00:00:00 | |
| PETON7-10 | 2026-09-02 03:30:35 | 48.27832 | 15.01100 | 84° | 16km/h | 21283m | -14.7m/s | -53.6°C | 4.0% | 0hPa | 2.5V | 00:00:00 | 01:41:52 | 00:00:00 | |
| OE5MMP-10 | 2026-09-02 03:30:33 | 48.27830 | 15.01082 | 88° | 16km/h | 21313m | -14.6m/s | -53.5°C | 4.0% | 0hPa | 2.5V | 00:00:00 | 01:41:50 | 00:00:00 | |
| OE5FHM-15 | 2026-09-02 03:30:30 | 48.27828 | 15.01060 | 82° | 13km/h | 21358m | -15.4m/s | -53.7°C | 4.1% | 0hPa | 2.5V | 00:00:00 | 01:41:47 | 00:00:00 | |
| OM5KV | 2026-09-02 03:30:29 | 48.27828 | 15.01060 | 83° | 15km/h | 21358m | -15.5m/s | -53.7°C | 1.1% | 0hPa | 2.5V | 08:28:00 | 00:00:00 | 00:00:00 | |
| DO3MHA-12 | 2026-09-02 03:30:28 | 48.27828 | 15.01048 | 92° | 11km/h | 21388m | -15.2m/s | -53.8°C | 4.1% | 0hPa | 2.5V | 00:00:00 | 01:41:45 | 00:00:00 | |
| OE8JPQ-2 | 2026-09-02 03:30:26 | 48.27828 | 15.01038 | 102° | 13km/h | 21419m | -14.4m/s | -53.8°C | 4.1% | 0hPa | 2.5V | 00:00:00 | 00:00:00 | 00:00:00 | |
| PG1ADW-2 | 2026-09-02 03:30:25 | 48.27828 | 15.01033 | 88° | 13km/h | 21434m | -15.8m/s | -53.7°C | 4.0% | 0hPa | 2.5V | 00:00:00 | 00:00:00 | 00:00:00 | |
| OE5MMP-10 | 2026-09-02 03:30:23 | 48.27829 | 15.01025 | 82° | 11km/h | 21464m | -15.4m/s | -53.7°C | 4.1% | 0hPa | 2.5V | 08:27:00 | 01:41:40 | 00:00:00 | |
| OM5KV | 2026-09-02 03:30:22 | 48.27829 | 15.01025 | 83° | 9km/h | 21464m | -15.5m/s | -53.8°C | 1.1% | 0hPa | 2.7V | 08:28:00 | 00:00:00 | 00:00:00 | |
| OM5KV | 2026-09-02 03:30:21 | 48.27829 | 15.01022 | 97° | 11km/h | 21479m | -16.4m/s | -53.8°C | 1.1% | 0hPa | 2.7V | 08:28:00 | 00:00:00 | 00:00:00 | |
| PETON7-10 | 2026-09-02 03:30:20 | 48.27828 | 15.01014 | 74° | 13km/h | 21511m | -16.0m/s | -53.6°C | 4.1% | 0hPa | 2.7V | 00:00:00 | 00:00:00 | 00:00:00 | |
| OE3JTB-15 | 2026-09-02 03:30:19 | 48.27828 | 15.01010 | 78° | 13km/h | 21527m | -14.9m/s | -53.6°C | 4.0% | 0hPa | 2.5V | 00:00:00 | 01:41:36 | 00:00:00 | |
| DO3MHA-12 | 2026-09-02 03:30:18 | 48.27827 | 15.01007 | 65° | 13km/h | 21542m | -16.0m/s | -53.6°C | 4.1% | 0hPa | 2.5V | 00:00:00 | 01:41:35 | 00:00:00 | |
| OE5DRO-10 | 2026-09-02 03:30:17 | 48.27825 | 15.01003 | 68° | 15km/h | 21557m | -14.9m/s | -53.6°C | 4.1% | 0hPa | 2.5V | 00:00:00 | 00:00:00 | 00:00:00 | |
| OM5KV | 2026-09-02 03:30:15 | 48.27824 | 15.00999 | 43° | 11km/h | 21573m | -15.7m/s | -53.7°C | 1.1% | 0hPa | 2.5V | 08:28:00 | 00:00:00 | 00:00:00 | |
| DK5PH-5 | 2026-09-02 03:30:14 | 48.27821 | 15.00992 | 57° | 13km/h | 21604m | -15.8m/s | -53.7°C | 4.1% | 0hPa | 2.5V | 00:00:00 | 01:41:31 | 00:00:00 | |
| OE5DXL-15 | 2026-09-02 03:30:12 | 48.27818 | 15.00983 | 73° | 15km/h | 21635m | -15.2m/s | -53.7°C | 4.1% | 0hPa | 2.5V | 08:28:00 | 00:00:00 | 00:00:00 | |
| DL6DJ-15 | 2026-09-02 03:30:11 | 48.27816 | 15.00974 | 88° | 13km/h | 21665m | -15.0m/s | -53.5°C | 1.0% | -1.0hPa | 2.5V | 00:00:00 | 00:00:00 | 00:00:00 | |
| DO3MHA-12 | 2026-09-02 03:30:08 | 48.27815 | 15.00964 | 103° | 16km/h | 21697m | -17.6m/s | -53.4°C | 4.0% | 0hPa | 2.5V | 00:00:00 | 01:41:25 | 00:00:00 | |
| OM5KV | 2026-09-02 03:30:07 | 48.27815 | 15.00964 | 104° | 16km/h | 21697m | -17.6m/s | -53.5°C | 1.1% | 0hPa | 2.5V | 08:28:00 | 00:00:00 | 00:00:00 | |
| OE8JPQ-2 | 2026-09-02 03:30:06 | 48.27814 | 15.00953 | 80° | 15km/h | 21730m | -16.3m/s | -53.3°C | 4.0% | 0hPa | 2.5V | 00:00:00 | 01:41:23 | 00:00:00 | |
| PETON7-10 | 2026-09-02 03:30:05 | 48.27814 | 15.00947 | 90° | 15km/h | 21746m | -15.4m/s | -53.3°C | 4.0% | 0hPa | 2.5V | 00:00:00 | 00:00:00 | 00:00:00 | |
| SONDE2-11 | 2026-09-02 03:29:51 | 48.27798 | 15.00871 | 75° | 11km/h | 21986m | -16.9m/s | -53.3°C | 1.0% | -1.0hPa | 2.5V | 00:00:00 | 00:00:00 | 00:00:00 | |
| OE3OSB-13 | 2026-09-02 03:29:47 | 48.27797 | 15.00857 | 83° | 16km/h | 22034m | -16.6m/s | -53.2°C | 1.0% | -1.0hPa | 2.5V | 00:00:00 | 00:00:00 | 00:00:00 | |
| OE8JPQ-2 | 2026-09-02 03:29:46 | 48.27797 | 15.00851 | 95° | 16km/h | 22051m | -16.2m/s | -52.9°C | 4.0% | 0hPa | 2.5V | 08:28:00 | 00:00:00 | 00:00:00 | |
| PG1ADW-2 | 2026-09-02 03:29:45 | 48.27797 | 15.00845 | 91° | 16km/h | 22067m | -17.0m/s | -52.7°C | 3.9% | 0hPa | 2.5V | 00:00:00 | 01:41:02 | 00:00:00 | |
| OE5MMP-10 | 2026-09-02 03:29:43 | 48.27798 | 15.00833 | 96° | 20km/h | 22100m | -16.5m/s | -52.3°C | 3.8% | 0hPa | 2.5V | 00:00:00 | 01:41:00 | 00:00:00 | |
| OE5DXL-15 | 2026-09-02 03:29:42 | 48.27799 | 15.00827 | 103° | 20km/h | 22117m | -16.5m/s | -52.2°C | 3.7% | 0hPa | 2.5V | 00:00:00 | 00:00:00 | 00:00:00 | |
| OE5WHR-10 | 2026-09-02 03:29:41 | 48.27801 | 15.00819 | 112° | 16km/h | 22133m | -16.4m/s | -52.1°C | 3.7% | 0hPa | 2.5V | 00:00:00 | 00:00:00 | 00:00:00 | |
| DL6DJ-15 | 2026-09-02 03:29:40 | 48.27805 | 15.00805 | 121° | 22km/h | 22166m | -16.1m/s | -52.2°C | 0.9% | -1.0hPa | 2.5V | 00:00:00 | 00:00:00 | 00:00:00 | |
| DO3MHA-12 | 2026-09-02 03:29:38 | 48.27808 | 15.00797 | 120° | 16km/h | 22182m | -16.9m/s | -52.3°C | 3.7% | 0hPa | 2.5V | 08:28:00 | 01:40:55 | 00:00:00 | |
| OM5KV | 2026-09-02 03:29:36 | 48.27811 | 15.00790 | 133° | 26km/h | 22199m | -15.3m/s | -52.4°C | 1.0% | 0hPa | 2.5V | 08:29:00 | 00:00:00 | 00:00:00 | |
| PETON7-10 | 2026-09-02 03:29:35 | 48.27819 | 15.00777 | 143° | 13km/h | 22231m | -16.0m/s | -52.4°C | 3.8% | 0hPa | 2.5V | 08:28:00 | 00:00:00 | 00:00:00 | |
| OE5MMP-10 | 2026-09-02 03:29:33 | 48.27827 | 15.00770 | 154° | 9km/h | 22264m | -17.5m/s | -52.4°C | 3.8% | 0hPa | 2.5V | 00:00:00 | 01:40:50 | 00:00:00 | |
| DB0UT-7 | 2026-09-02 03:29:32 | 48.27830 | 15.00769 | 189° | 24km/h | 22279m | -14.6m/s | -52.5°C | 3.7% | 0hPa | 2.5V | 00:00:00 | 01:40:49 | 00:00:00 | |
| OE5FHM-15 | 2026-09-02 03:29:30 | 48.27836 | 15.00771 | 212° | 22km/h | 22313m | -18.4m/s | -52.7°C | 3.8% | 0hPa | 2.5V | 00:00:00 | 01:40:47 | 00:00:00 | |
| SP3BTT-10 | 2026-09-02 03:29:29 | 48.27838 | 15.00773 | 199° | 24km/h | 22331m | -18.9m/s | -52.8°C | 3.9% | 0hPa | 2.5V | 00:00:00 | 00:00:00 | 00:00:00 | |
| DO3MHA-12 | 2026-09-02 03:29:28 | 48.27839 | 15.00775 | 237° | 16km/h | 22349m | -17.2m/s | -52.8°C | 3.9% | 0hPa | 2.5V | 00:00:00 | 01:40:45 | 00:00:00 | |
| OE8JPQ-2 | 2026-09-02 03:29:26 | 48.27842 | 15.00778 | 196° | 24km/h | 22378m | -14.9m/s | -53.0°C | 4.0% | 0hPa | 2.5V | 00:00:00 | 00:00:00 | 00:00:00 | |
| PG1ADW-2 | 2026-09-02 03:29:25 | 48.27842 | 15.00776 | 108° | 24km/h | 22393m | -14.9m/s | -53.0°C | 4.0% | 0hPa | 2.5V | 00:00:00 | 00:00:00 | 00:00:00 | |
| DK5PH-5 | 2026-09-02 03:29:23 | 48.27841 | 15.00767 | 75° | 26km/h | 22424m | -15.4m/s | -53.1°C | 4.1% | 0hPa | 2.5V | 00:00:00 | 01:40:40 | 00:00:00 | |
| OE3JTB-15 | 2026-09-02 03:29:21 | 48.27836 | 15.00752 | 64° | 26km/h | 22456m | -18.1m/s | -53.2°C | 4.1% | 0hPa | 2.5V | 00:00:00 | 00:00:00 | 00:00:00 | |
| SONDE2-11 | 2026-09-02 03:29:20 | 48.27834 | 15.00734 | 79° | 27km/h | 22491m | -16.9m/s | -53.2°C | 1.0% | -1.0hPa | 2.5V | 00:00:00 | 00:00:00 | 00:00:00 | |
| DO3MHA-12 | 2026-09-02 03:29:18 | 48.27832 | 15.00724 | 85° | 27km/h | 22507m | -15.3m/s | -52.9°C | 4.1% | 0hPa | 2.5V | 00:00:00 | 01:40:35 | 00:00:00 | |
| OE3OSB-13 | 2026-09-02 03:29:16 | 48.27833 | 15.00703 | 98° | 26km/h | 22538m | -15.3m/s | -52.7°C | 0.9% | -1.0hPa | 2.5V | 00:00:00 | 00:00:00 | 00:00:00 | |
| OK1ALN | 2026-09-02 03:29:15 | 48.27832 | 15.00703 | 99° | 27km/h | 22538m | -15.3m/s | -52.7°C | 1.0% | 0hPa | 2.5V | 00:00:00 | 00:00:00 | 00:00:00 | |
| OE5MMP-10 | 2026-09-02 03:29:13 | 48.27839 | 15.00671 | 106° | 26km/h | 22586m | -15.0m/s | -52.5°C | 3.9% | 0hPa | 2.5V | 00:00:00 | 01:40:30 | 00:00:00 | |
| OE5DXL-15 | 2026-09-02 03:29:12 | 48.27842 | 15.00661 | 118° | 26km/h | 22601m | -14.5m/s | -52.4°C | 3.9% | 0hPa | 2.5V | 00:00:00 | 00:00:00 | 00:00:00 | |
| OM5KV | 2026-09-02 03:29:10 | 48.27845 | 15.00651 | 115° | 27km/h | 22616m | -15.4m/s | -52.4°C | 1.0% | 0hPa | 2.5V | 08:29:00 | 00:00:00 | 00:00:00 | |
| DL6DJ-15 | 2026-09-02 03:29:09 | 48.27855 | 15.00628 | 133° | 22km/h | 22661m | -14.5m/s | -52.4°C | 0.9% | -1.0hPa | 2.5V | 00:00:00 | 00:00:00 | 00:00:00 | |
| DO3MHA-12 | 2026-09-02 03:29:08 | 48.27855 | 15.00627 | 134° | 24km/h | 22661m | -14.4m/s | -52.3°C | 3.8% | 0hPa | 2.5V | 00:00:00 | 01:40:25 | 00:00:00 | |
| OM5KV | 2026-09-02 03:29:07 | 48.27855 | 15.00627 | 134° | 24km/h | 22661m | -14.5m/s | -52.4°C | 1.0% | 0hPa | 2.5V | 08:29:00 | 00:00:00 | 00:00:00 | |
| OE8JPQ-2 | 2026-09-02 03:29:06 | 48.27864 | 15.00614 | 140° | 26km/h | 22691m | -14.0m/s | -52.2°C | 3.8% | 0hPa | 2.5V | 00:00:00 | 01:40:23 | 00:00:00 | |
| PG1ADW-2 | 2026-09-02 03:29:05 | 48.27868 | 15.00608 | 138° | 26km/h | 22705m | -15.3m/s | -52.0°C | 3.7% | 0hPa | 2.5V | 08:29:00 | 00:00:00 | 00:00:00 | |
| OE5MMP-10 | 2026-09-02 03:29:03 | 48.27878 | 15.00597 | 144° | 26km/h | 22735m | -14.7m/s | -51.8°C | 3.7% | 0hPa | 2.5V | 00:00:00 | 01:40:20 | 00:00:00 | |
| OM5KV | 2026-09-02 03:29:02 | 48.27878 | 15.00597 | 145° | 22km/h | 22735m | -14.8m/s | -51.9°C | 1.0% | 0hPa | 2.5V | 08:29:00 | 00:00:00 | 00:00:00 | |
| SONDE2-11 | 2026-09-02 03:28:49 | 48.27963 | 15.00525 | 159° | 26km/h | 22956m | -15.1m/s | -52.2°C | 0.9% | -1.0hPa | 2.5V | 00:00:00 | 00:00:00 | 00:00:00 | |
| DO3MHA-12 | 2026-09-02 03:28:48 | 48.27963 | 15.00525 | 160° | 29km/h | 22956m | -15.1m/s | -52.1°C | 3.7% | 0hPa | 2.5V | 00:00:00 | 01:40:05 | 00:00:00 | |
| OE8JPQ-2 | 2026-09-02 03:28:46 | 48.27977 | 15.00518 | 166° | 33km/h | 22986m | -14.7m/s | -52.3°C | 3.7% | 0hPa | 2.5V | 00:00:00 | 00:00:00 | 00:00:00 | |
| PG1ADW-2 | 2026-09-02 03:28:45 | 48.27983 | 15.00515 | 161° | 33km/h | 23001m | -15.5m/s | -52.3°C | 3.7% | 0hPa | 2.5V | 00:00:00 | 00:00:00 | 00:00:00 | |
| OM5KV | 2026-09-02 03:28:44 | 48.27983 | 15.00515 | 161° | 29km/h | 23001m | -15.6m/s | -52.4°C | 1.0% | 0hPa | 2.5V | 00:00:00 | 00:00:00 | 00:00:00 | |
| OE5MMP-10 | 2026-09-02 03:28:43 | 48.27997 | 15.00508 | 163° | 33km/h | 23031m | -15.7m/s | -52.4°C | 3.7% | 0hPa | 2.5V | 00:00:00 | 01:40:00 | 00:00:00 | |
| OE5DRO-10 | 2026-09-02 03:28:42 | 48.28005 | 15.00506 | 169° | 33km/h | 23046m | -14.3m/s | -52.4°C | 3.8% | 0hPa | 2.5V | 00:00:00 | 00:00:00 | 00:00:00 | |
| DO3MHA-12 | 2026-09-02 03:28:38 | 48.28036 | 15.00499 | 173° | 35km/h | 23104m | -15.0m/s | -52.3°C | 3.7% | 0hPa | 2.5V | 00:00:00 | 01:39:55 | 00:00:00 | |
| OM5KV | 2026-09-02 03:28:37 | 48.28036 | 15.00499 | 174° | 33km/h | 23104m | -15.1m/s | -52.4°C | 1.0% | 0hPa | 2.5V | 00:00:00 | 00:00:00 | 00:00:00 | |
| PETON7-10 | 2026-09-02 03:28:35 | 48.28062 | 15.00497 | 181° | 33km/h | 23149m | -14.3m/s | -52.5°C | 3.8% | 0hPa | 2.5V | 00:00:00 | 00:00:00 | 00:00:00 | |
| OE5MMP-10 | 2026-09-02 03:28:33 | 48.28079 | 15.00499 | 185° | 35km/h | 23178m | -14.9m/s | -52.6°C | 3.7% | 0hPa | 2.5V | 00:00:00 | 01:39:50 | 00:00:00 | |
| OM5KV | 2026-09-02 03:28:31 | 48.28088 | 15.00501 | 193° | 37km/h | 23193m | -14.5m/s | -52.7°C | 1.0% | 0hPa | 2.5V | 00:00:00 | 00:00:00 | 00:00:00 | |
| OE5FHM-15 | 2026-09-02 03:28:30 | 48.28105 | 15.00507 | 196° | 29km/h | 23222m | -14.3m/s | -52.8°C | 3.8% | 0hPa | 2.5V | 00:00:00 | 01:39:47 | 00:00:00 | |
| DO3MHA-12 | 2026-09-02 03:28:28 | 48.28121 | 15.00516 | 201° | 33km/h | 23252m | -14.3m/s | -52.9°C | 3.8% | 0hPa | 2.5V | 00:00:00 | 01:39:45 | 00:00:00 | |
| OM5KV | 2026-09-02 03:28:27 | 48.28121 | 15.00516 | 202° | 35km/h | 23252m | -14.3m/s | -53.0°C | 1.0% | 0hPa | 2.5V | 00:00:00 | 00:00:00 | 00:00:00 | |
| OE8JPQ-2 | 2026-09-02 03:28:26 | 48.28136 | 15.00527 | 206° | 29km/h | 23282m | -14.7m/s | -53.0°C | 3.9% | 0hPa | 2.5V | 00:00:00 | 00:00:00 | 00:00:00 | |
| PG1ADW-2 | 2026-09-02 03:28:25 | 48.28144 | 15.00533 | 210° | 29km/h | 23296m | -14.0m/s | -53.1°C | 3.9% | 0hPa | 2.5V | 00:00:00 | 01:39:42 | 00:00:00 | |
| OE5MMP-10 | 2026-09-02 03:28:23 | 48.28158 | 15.00546 | 211° | 29km/h | 23325m | -14.4m/s | -53.1°C | 4.0% | 0hPa | 2.5V | 00:00:00 | 01:39:40 | 00:00:00 | |
| DK5PH-5 | 2026-09-02 03:28:21 | 48.28170 | 15.00560 | 216° | 20km/h | 23354m | -15.1m/s | -53.1°C | 4.0% | 0hPa | 2.5V | 00:00:00 | 01:39:38 | 00:00:00 | |
| PETON7-10 | 2026-09-02 03:28:20 | 48.28177 | 15.00567 | 217° | 27km/h | 23369m | -14.4m/s | -53.1°C | 4.0% | 0hPa | 2.5V | 00:00:00 | 01:39:37 | 00:00:00 | |
| OM5KV | 2026-09-02 03:28:19 | 48.28176 | 15.00567 | 218° | 33km/h | 23369m | -14.5m/s | -53.2°C | 1.1% | 0hPa | 2.5V | 00:00:00 | 00:00:00 | 00:00:00 | |
| SONDE2-11 | 2026-09-02 03:28:18 | 48.28193 | 15.00590 | 231° | 29km/h | 23413m | -14.8m/s | -53.3°C | 1.0% | -1.0hPa | 2.5V | 00:00:00 | 00:00:00 | 00:00:00 | |
| OE5WHR-10 | 2026-09-02 03:28:17 | 48.28193 | 15.00590 | 232° | 22km/h | 23413m | -14.7m/s | -53.2°C | 4.1% | 0hPa | 2.5V | 00:00:00 | 00:00:00 | 00:00:00 | |
| OE3OSB-13 | 2026-09-02 03:28:14 | 48.28206 | 15.00614 | 236° | 26km/h | 23456m | -14.9m/s | -53.3°C | 0.9% | -1.0hPa | 2.5V | 00:00:00 | 00:00:00 | 00:00:00 | |
| OE5MMP-10 | 2026-09-02 03:28:13 | 48.28210 | 15.00623 | 237° | 26km/h | 23471m | -14.0m/s | -53.2°C | 4.1% | 0hPa | 2.5V | 00:00:00 | 01:39:30 | 00:00:00 | |
| OE5DXL-15 | 2026-09-02 03:28:12 | 48.28213 | 15.00632 | 251° | 16km/h | 23485m | -14.7m/s | -53.3°C | 4.1% | 0hPa | 2.5V | 00:00:00 | 00:00:00 | 00:00:00 | |
| SP3BTT-10 | 2026-09-02 03:28:10 | 48.28217 | 15.00651 | 255° | 20km/h | 23514m | -14.3m/s | -53.2°C | 4.1% | 0hPa | 2.5V | 00:00:00 | 00:00:00 | 08:30:00 | |
| DO3MHA-12 | 2026-09-02 03:28:08 | 48.28218 | 15.00669 | 269° | 20km/h | 23543m | -14.4m/s | -53.2°C | 4.1% | 0hPa | 2.7V | 00:00:00 | 01:39:25 | 08:30:00 | |
| EDDB2-12 | 2026-09-02 03:28:07 | 48.28217 | 15.00679 | 283° | 27km/h | 23558m | -15.1m/s | -53.1°C | 1.0% | -1.0hPa | 2.5V | 00:00:00 | 00:00:00 | 00:00:00 | |
| OE8JPQ-2 | 2026-09-02 03:28:06 | 48.28216 | 15.00689 | 288° | 13km/h | 23573m | -15.1m/s | -52.9°C | 4.1% | 0hPa | 2.5V | 00:00:00 | 01:39:23 | 00:00:00 | |
| PETON7-10 | 2026-09-02 03:28:05 | 48.28213 | 15.00698 | 291° | 13km/h | 23588m | -15.2m/s | -52.8°C | 4.1% | 0hPa | 2.5V | 00:00:00 | 00:00:00 | 00:00:00 | |
| OE5DRO-10 | 2026-09-02 03:28:04 | 48.28211 | 15.00707 | 295° | 11km/h | 23603m | -15.4m/s | -52.7°C | 4.1% | 0hPa | 2.7V | 00:00:00 | 00:00:00 | 08:30:00 | |
| OK1ALN | 2026-09-02 03:28:03 | 48.28211 | 15.00707 | 295° | 24km/h | 23603m | -15.5m/s | -52.7°C | 1.1% | 0hPa | 2.7V | 00:00:00 | 00:00:00 | 00:00:00 | |
| OM5KV | 2026-09-02 03:28:01 | 48.28206 | 15.00723 | 299° | 22km/h | 23633m | -14.8m/s | -52.5°C | 1.1% | 0hPa | 2.7V | 00:00:00 | 00:00:00 | 00:00:00 | |
| OE5FHM-15 | 2026-09-02 03:28:00 | 48.28202 | 15.00736 | 301° | 13km/h | 23662m | -14.0m/s | -52.1°C | 3.9% | 0hPa | 2.7V | 00:00:00 | 01:39:17 | 00:00:00 | |
| DO3MHA-12 | 2026-09-02 03:27:58 | 48.28200 | 15.00743 | 249° | 5km/h | 23690m | -14.3m/s | -52.0°C | 3.8% | 0hPa | 2.7V | 00:00:00 | 01:39:15 | 00:00:00 | |
| OE5WHR-10 | 2026-09-02 03:27:56 | 48.28202 | 15.00746 | 238° | 13km/h | 23722m | -19.9m/s | -51.8°C | 3.6% | 0hPa | 2.7V | 00:00:00 | 01:39:13 | 00:00:00 | |
| OE3JTB-15 | 2026-09-02 03:27:54 | 48.28204 | 15.00749 | 271° | 13km/h | 23780m | -34.4m/s | -51.6°C | 3.4% | 0hPa | 2.7V | 00:00:00 | 00:00:00 | 00:00:00 | |
| OE5MMP-10 | 2026-09-02 03:27:53 | 48.28204 | 15.00751 | 245° | 11km/h | 23813m | -32.0m/s | -51.5°C | 3.4% | 0hPa | 2.7V | 00:00:00 | 01:39:10 | 00:00:00 | |
| DK5PH-5 | 2026-09-02 03:27:51 | 48.28203 | 15.00755 | 290° | 15km/h | 23874m | -28.4m/s | -51.5°C | 3.4% | 0hPa | 2.5V | 00:00:00 | 01:39:08 | 00:00:00 | |
| PETON7-10 | 2026-09-02 03:27:50 | 48.28203 | 15.00757 | 277° | 15km/h | 23902m | -26.6m/s | -51.7°C | 3.5% | 0hPa | 2.7V | 00:00:00 | 00:00:00 | 00:00:00 | |
| DO3MHA-12 | 2026-09-02 03:27:48 | 48.28204 | 15.00763 | 256° | 16km/h | 23951m | -21.7m/s | -51.8°C | 3.6% | 0hPa | 2.7V | 00:00:00 | 01:39:05 | 00:00:00 | |
| OE8JPQ-2 | 2026-09-02 03:27:46 | 48.28206 | 15.00773 | 247° | 15km/h | 23985m | -12.0m/s | -51.8°C | 3.7% | 0hPa | 2.7V | 00:00:00 | 00:00:00 | 00:00:00 | |
| PG1ADW-2 | 2026-09-02 03:27:45 | 48.28208 | 15.00780 | 241° | 15km/h | 23993m | -4.0m/s | -51.8°C | 3.7% | 0hPa | 2.5V | 00:00:00 | 00:00:00 | 00:00:00 | |
| OM5KV | 2026-09-02 03:27:44 | 48.28208 | 15.00780 | 241° | 20km/h | 23993m | -4.0m/s | -51.8°C | 1.0% | 0hPa | 2.5V | 00:00:00 | 00:00:00 | 00:00:00 | |
| OE5MMP-10 | 2026-09-02 03:27:43 | 48.28214 | 15.00792 | 233° | 16km/h | 23986m | 5.6m/s | -51.9°C | 3.7% | 0hPa | 2.5V | 00:00:00 | 01:39:00 | 00:00:00 | |
| OE5DXL-15 | 2026-09-02 03:27:42 | 48.28216 | 15.00798 | 243° | 13km/h | 23980m | 6.0m/s | -51.9°C | 3.7% | 0hPa | 2.5V | 00:00:00 | 00:00:00 | 00:00:00 | |
| DO3MHA-12 | 2026-09-02 03:27:38 | 48.28222 | 15.00821 | 243° | 15km/h | 23957m | 5.6m/s | -51.9°C | 3.8% | 0hPa | 2.5V | 00:00:00 | 01:38:55 | 00:00:00 | |
| EDDB2-12 | 2026-09-02 03:27:36 | 48.28226 | 15.00832 | 242° | 15km/h | 23945m | 6.6m/s | -52.0°C | 0.9% | -1.0hPa | 2.7V | 00:00:00 | 00:00:00 | 00:00:00 | |
| PETON7-10 | 2026-09-02 03:27:35 | 48.28228 | 15.00838 | 256° | 13km/h | 23938m | 6.4m/s | -51.9°C | 3.8% | 0hPa | 2.7V | 00:00:00 | 01:38:52 | 00:00:00 | |
| OE5MMP-10 | 2026-09-02 03:27:33 | 48.28231 | 15.00850 | 240° | 11km/h | 23927m | 6.6m/s | -51.9°C | 3.7% | 0hPa | 2.7V | 00:00:00 | 01:38:50 | 00:00:00 | |
| DF7PN | 2026-09-02 03:27:31 | 48.28236 | 15.00864 | 250° | 9km/h | 23909m | 5.9m/s | 0°C | -1.0% | -1.0hPa | 2.7V | 00:00:00 | 00:00:00 | 00:00:00 | |
| OE5FHM-15 | 2026-09-02 03:27:30 | 48.28236 | 15.00864 | 251° | 11km/h | 23909m | 5.9m/s | -51.8°C | 3.7% | 0hPa | 2.7V | 00:00:00 | 01:38:47 | 08:30:00 | |
| DO3MHA-12 | 2026-09-02 03:27:28 | 48.28238 | 15.00869 | 231° | 11km/h | 23898m | 6.7m/s | -51.7°C | 3.7% | 0hPa | 2.5V | 00:00:00 | 01:38:45 | 00:00:00 | |
| OE8JPQ-2 | 2026-09-02 03:27:26 | 48.28242 | 15.00873 | 219° | 13km/h | 23885m | 6.3m/s | -51.7°C | 3.7% | 0hPa | 2.5V | 00:00:00 | 00:00:00 | 00:00:00 | |
| PG1ADW-2 | 2026-09-02 03:27:25 | 48.28243 | 15.00877 | 239° | 13km/h | 23879m | 6.3m/s | -51.7°C | 3.6% | 0hPa | 2.5V | 00:00:00 | 00:00:00 | 00:00:00 | |
| OE5MMP-10 | 2026-09-02 03:27:23 | 48.28247 | 15.00886 | 235° | 11km/h | 23869m | 5.2m/s | -51.6°C | 3.6% | 0hPa | 2.5V | 00:00:00 | 01:38:40 | 08:30:00 | |
| DK5PH-5 | 2026-09-02 03:27:21 | 48.28252 | 15.00893 | 214° | 13km/h | 23858m | 5.4m/s | -51.6°C | 3.6% | 0hPa | 2.7V | 00:00:00 | 01:38:38 | 00:00:00 | |
| PETON7-10 | 2026-09-02 03:27:20 | 48.28254 | 15.00895 | 208° | 13km/h | 23852m | 5.6m/s | -51.7°C | 3.6% | 0hPa | 2.7V | 00:00:00 | 00:00:00 | 08:30:00 | |
| DO3MHA-12 | 2026-09-02 03:27:18 | 48.28256 | 15.00899 | 267° | 13km/h | 23839m | 5.4m/s | -51.8°C | 3.6% | 0hPa | 2.5V | 00:00:00 | 01:38:35 | 00:00:00 | |
| OK1ALN | 2026-09-02 03:27:16 | 48.28256 | 15.00903 | 258° | 9km/h | 23834m | 5.0m/s | -51.8°C | 1.0% | 0hPa | 2.5V | 00:00:00 | 00:00:00 | 00:00:00 | |
| OM5KV | 2026-09-02 03:27:15 | 48.28257 | 15.00906 | 240° | 11km/h | 23828m | 7.1m/s | -51.9°C | 1.0% | 0hPa | 2.5V | 00:00:00 | 00:00:00 | 00:00:00 | |
| OE5WHR-10 | 2026-09-02 03:27:14 | 48.28262 | 15.00912 | 219° | 13km/h | 23817m | 4.5m/s | -52.0°C | 3.7% | 0hPa | 2.5V | 00:00:00 | 00:00:00 | 00:00:00 | |
| OE5MMP-10 | 2026-09-02 03:27:13 | 48.28265 | 15.00916 | 224° | 15km/h | 23811m | 6.5m/s | -52.0°C | 3.7% | 0hPa | 2.5V | 00:00:00 | 01:38:30 | 00:00:00 | |
| OE5DXL-15 | 2026-09-02 03:27:12 | 48.28267 | 15.00920 | 232° | 11km/h | 23805m | 5.7m/s | -52.0°C | 3.7% | 0hPa | 2.5V | 00:00:00 | 00:00:00 | 00:00:00 | |
| DO3MHA-12 | 2026-09-02 03:27:08 | 48.28279 | 15.00933 | 213° | 11km/h | 23782m | 5.1m/s | -52.0°C | 3.7% | 0hPa | 2.7V | 00:00:00 | 01:38:25 | 00:00:00 | |
| OE5DRO-10 | 2026-09-02 03:27:07 | 48.28281 | 15.00936 | 230° | 11km/h | 23776m | 7.1m/s | -52.0°C | 3.7% | 0hPa | 2.5V | 00:00:00 | 00:00:00 | 00:00:00 | |
| OE8JPQ-2 | 2026-09-02 03:27:06 | 48.28282 | 15.00940 | 255° | 11km/h | 23770m | 6.1m/s | -52.0°C | 3.7% | 0hPa | 2.6V | 00:00:00 | 01:38:23 | 00:00:00 | |
| PG1ADW-2 | 2026-09-02 03:27:05 | 48.28283 | 15.00945 | 259° | 11km/h | 23764m | 5.6m/s | -52.0°C | 3.7% | 0hPa | 2.6V | 00:00:00 | 01:38:22 | 00:00:00 | |
| DL6DJ-15 | 2026-09-02 03:27:04 | 48.28284 | 15.00950 | 257° | 11km/h | 23757m | 7.0m/s | -52.0°C | 0.8% | -1.0hPa | 2.5V | 00:00:00 | 00:00:00 | 00:00:00 | |
| OE5MMP-10 | 2026-09-02 03:27:03 | 48.28285 | 15.00954 | 258° | 11km/h | 23751m | 5.5m/s | -52.0°C | 3.7% | 0hPa | 2.5V | 00:00:00 | 01:38:20 | 00:00:00 | |
| OE5FHM-15 | 2026-09-02 03:27:00 | 48.28285 | 15.00966 | 264° | 9km/h | 23734m | 3.8m/s | -52.0°C | 3.7% | 0hPa | 2.5V | 00:00:00 | 01:38:17 | 00:00:00 | |
| OM5KV | 2026-09-02 03:26:59 | 48.28285 | 15.00966 | 265° | 9km/h | 23734m | 3.9m/s | -52.1°C | 1.0% | 0hPa | 2.5V | 00:00:00 | 00:00:00 | 00:00:00 | |
| DO3MHA-12 | 2026-09-02 03:26:58 | 48.28287 | 15.00971 | 205° | 13km/h | 23722m | 5.8m/s | -52.0°C | 3.6% | 0hPa | 2.5V | 00:00:00 | 01:38:15 | 00:00:00 | |
| OE3JTB-15 | 2026-09-02 03:26:56 | 48.28293 | 15.00974 | 198° | 7km/h | 23710m | 6.3m/s | -52.1°C | 3.7% | 0hPa | 2.5V | 00:00:00 | 00:00:00 | 00:00:00 | |
| OK1ALN | 2026-09-02 03:26:55 | 48.28293 | 15.00974 | 198° | 13km/h | 23710m | 6.4m/s | -52.1°C | 1.0% | 0hPa | 2.6V | 00:00:00 | 00:00:00 | 00:00:00 | |
| OE5MMP-10 | 2026-09-02 03:26:53 | 48.28303 | 15.00977 | 186° | 11km/h | 23692m | 6.4m/s | -52.0°C | 3.6% | 0hPa | 2.6V | 00:00:00 | 01:38:10 | 00:00:00 | |
| DK5PH-5 | 2026-09-02 03:26:51 | 48.28309 | 15.00979 | 203° | 7km/h | 23681m | 6.4m/s | -52.0°C | 3.6% | 0hPa | 2.7V | 00:00:00 | 01:38:08 | 00:00:00 | |
| PETON7-10 | 2026-09-02 03:26:50 | 48.28311 | 15.00982 | 240° | 9km/h | 23674m | 6.8m/s | -52.0°C | 3.6% | 0hPa | 2.7V | 00:00:00 | 01:38:07 | 00:00:00 | |
| DO3MHA-12 | 2026-09-02 03:26:48 | 48.28313 | 15.00990 | 249° | 9km/h | 23662m | 6.7m/s | -52.1°C | 3.6% | 0hPa | 2.7V | 00:00:00 | 01:38:05 | 00:00:00 | |
| OE8JPQ-2 | 2026-09-02 03:26:46 | 48.28316 | 15.00997 | 234° | 5km/h | 23650m | 5.4m/s | -52.3°C | 3.7% | 0hPa | 2.7V | 00:00:00 | 00:00:00 | 08:30:00 | |
| PG1ADW-2 | 2026-09-02 03:26:45 | 48.28318 | 15.01000 | 237° | 5km/h | 23644m | 6.7m/s | -52.4°C | 3.7% | 0hPa | 2.5V | 00:00:00 | 00:00:00 | 00:00:00 | |
| SONDE2-11 | 2026-09-02 03:26:44 | 48.28319 | 15.01003 | 233° | 5km/h | 23638m | 5.5m/s | -52.5°C | 0.9% | -1.0hPa | 2.5V | 00:00:00 | 00:00:00 | 00:00:00 | |
| OE5MMP-10 | 2026-09-02 03:26:43 | 48.28320 | 15.01004 | 194° | 7km/h | 23633m | 4.8m/s | -52.5°C | 3.7% | 0hPa | 2.5V | 00:00:00 | 01:38:00 | 00:00:00 | |
| OE5DXL-15 | 2026-09-02 03:26:42 | 48.28321 | 15.01004 | 178° | 9km/h | 23627m | 6.8m/s | -52.6°C | 3.8% | 0hPa | 2.5V | 00:00:00 | 00:00:00 | 00:00:00 | |
| OE3OSB-13 | 2026-09-02 03:26:41 | 48.28326 | 15.01003 | 170° | 11km/h | 23615m | 5.7m/s | -52.7°C | 0.9% | -1.0hPa | 2.5V | 00:00:00 | 00:00:00 | 00:00:00 | |
| DO3MHA-12 | 2026-09-02 03:26:38 | 48.28330 | 15.01002 | 209° | 4km/h | 23602m | 5.4m/s | -52.7°C | 3.8% | 0hPa | 2.5V | 00:00:00 | 01:37:55 | 08:30:00 | |
| OM5KV | 2026-09-02 03:26:37 | 48.28330 | 15.01002 | 209° | 5km/h | 23602m | 5.5m/s | -52.8°C | 1.0% | 0hPa | 2.7V | 00:00:00 | 00:00:00 | 00:00:00 | |
| PETON7-10 | 2026-09-02 03:26:35 | 48.28333 | 15.01006 | 267° | 7km/h | 23584m | 5.6m/s | -52.8°C | 3.8% | 0hPa | 2.7V | 00:00:00 | 00:00:00 | 00:00:00 | |
| EDDB2-12 | 2026-09-02 03:26:34 | 48.28332 | 15.01007 | 311° | 5km/h | 23577m | 7.4m/s | -52.9°C | 0.9% | -1.0hPa | 2.6V | 00:00:00 | 00:00:00 | 00:00:00 | |
| OE5MMP-10 | 2026-09-02 03:26:33 | 48.28331 | 15.01009 | 329° | 5km/h | 23570m | 5.3m/s | -52.9°C | 3.8% | 0hPa | 2.6V | 00:00:00 | 01:37:50 | 00:00:00 | |
| OE5WHR-10 | 2026-09-02 03:26:32 | 48.28329 | 15.01010 | 339° | 11km/h | 23564m | 7.1m/s | -53.0°C | 3.9% | 0hPa | 2.6V | 00:00:00 | 00:00:00 | 00:00:00 | |
| OE5FHM-15 | 2026-09-02 03:26:30 | 48.28328 | 15.01010 | 60° | 15km/h | 23552m | 5.2m/s | -53.2°C | 3.9% | 0hPa | 2.5V | 00:00:00 | 01:37:47 | 00:00:00 | |
| OE5DRO-10 | 2026-09-02 03:26:29 | 48.28328 | 15.01009 | 74° | 13km/h | 23546m | 6.5m/s | -53.2°C | 4.0% | 0hPa | 2.5V | 00:00:00 | 00:00:00 | 00:00:00 | |
| DO3MHA-12 | 2026-09-02 03:26:28 | 48.28328 | 15.01008 | 119° | 5km/h | 23540m | 4.8m/s | -53.2°C | 4.0% | 0hPa | 2.5V | 00:00:00 | 01:37:45 | 00:00:00 | |
| OE3JTB-15 | 2026-09-02 03:26:27 | 48.28329 | 15.01007 | 154° | 16km/h | 23535m | 5.9m/s | -53.2°C | 4.0% | 0hPa | 2.5V | 00:00:00 | 00:00:00 | 00:00:00 | |
| OE8JPQ-2 | 2026-09-02 03:26:26 | 48.28331 | 15.01006 | 170° | 15km/h | 23528m | 6.8m/s | -53.2°C | 4.0% | 0hPa | 2.5V | 00:00:00 | 00:00:00 | 00:00:00 | |
| PG1ADW-2 | 2026-09-02 03:26:25 | 48.28333 | 15.01005 | 173° | 15km/h | 23522m | 6.1m/s | -53.2°C | 4.0% | 0hPa | 2.5V | 00:00:00 | 00:00:00 | 00:00:00 | |
| OE5MMP-10 | 2026-09-02 03:26:23 | 48.28338 | 15.01005 | 207° | 13km/h | 23509m | 5.4m/s | -53.2°C | 4.0% | 0hPa | 2.5V | 00:00:00 | 01:37:40 | 00:00:00 | |
| DK5PH-5 | 2026-09-02 03:26:21 | 48.28342 | 15.01008 | 204° | 20km/h | 23498m | 6.3m/s | -53.2°C | 4.0% | 0hPa | 2.5V | 00:00:00 | 01:37:38 | 08:30:00 | |
| PETON7-10 | 2026-09-02 03:26:20 | 48.28345 | 15.01010 | 209° | 16km/h | 23492m | 6.3m/s | -53.2°C | 4.0% | 0hPa | 2.6V | 00:00:00 | 00:00:00 | 00:00:00 | |
| DO3MHA-12 | 2026-09-02 03:26:18 | 48.28352 | 15.01014 | 195° | 16km/h | 23479m | 7.1m/s | -53.2°C | 4.0% | 0hPa | 2.6V | 00:00:00 | 01:37:35 | 00:00:00 | |
| OM5KV | 2026-09-02 03:26:15 | 48.28357 | 15.01016 | 184° | 11km/h | 23467m | 4.7m/s | -53.2°C | 1.1% | 0hPa | 2.6V | 00:00:00 | 00:00:00 | 00:00:00 | |
| OE5MMP-10 | 2026-09-02 03:26:13 | 48.28370 | 15.01017 | 183° | 20km/h | 23451m | 5.0m/s | -53.2°C | 4.0% | 0hPa | 2.6V | 00:00:00 | 01:37:30 | 00:00:00 | |
| OE5DXL-15 | 2026-09-02 03:26:12 | 48.28375 | 15.01017 | 179° | 22km/h | 23445m | 7.0m/s | -53.2°C | 4.0% | 0hPa | 2.6V | 00:00:00 | 00:00:00 | 00:00:00 | |
| OE5WHR-10 | 2026-09-02 03:26:11 | 48.28380 | 15.01017 | 182° | 22km/h | 23438m | 5.8m/s | -53.2°C | 4.0% | 0hPa | 2.6V | 00:00:00 | 00:00:00 | 00:00:00 | |
| OE5DRO-10 | 2026-09-02 03:26:10 | 48.28384 | 15.01017 | 183° | 22km/h | 23432m | 5.9m/s | -53.2°C | 4.0% | 0hPa | 2.6V | 00:00:00 | 00:00:00 | 00:00:00 | |
| OM5KV | 2026-09-02 03:26:09 | 48.28384 | 15.01017 | 184° | 20km/h | 23432m | 5.9m/s | -53.2°C | 1.0% | 0hPa | 2.6V | 00:00:00 | 00:00:00 | 00:00:00 | |
| SP3BTT-10 | 2026-09-02 03:26:08 | 48.28395 | 15.01019 | 190° | 22km/h | 23420m | 5.4m/s | -53.1°C | 4.0% | 0hPa | 2.6V | 00:00:00 | 00:00:00 | 00:00:00 | |
| OE8JPQ-2 | 2026-09-02 03:26:06 | 48.28405 | 15.01019 | 172° | 24km/h | 23407m | 5.1m/s | -53.1°C | 4.0% | 0hPa | 2.6V | 00:00:00 | 01:37:23 | 00:00:00 | |
| PETON7-10 | 2026-09-02 03:26:05 | 48.28409 | 15.01018 | 176° | 22km/h | 23401m | 6.4m/s | -53.1°C | 4.0% | 0hPa | 2.6V | 00:00:00 | 01:37:22 | 00:00:00 | |
| DO3MHA-12 | 2026-09-02 03:26:04 | 48.28414 | 15.01018 | 173° | 24km/h | 23394m | 6.6m/s | -53.1°C | 4.0% | 0hPa | 2.6V | 00:00:00 | 01:37:21 | 00:00:00 | |
| OE5MMP-10 | 2026-09-02 03:26:03 | 48.28419 | 15.01016 | 172° | 24km/h | 23389m | 4.9m/s | -53.1°C | 4.0% | 0hPa | 2.5V | 00:00:00 | 01:37:20 | 00:00:00 | |
| DL6DJ-15 | 2026-09-02 03:26:02 | 48.28425 | 15.01015 | 162° | 22km/h | 23383m | 5.4m/s | -53.1°C | 0.9% | -1.0hPa | 2.5V | 00:00:00 | 00:00:00 | 00:00:00 | |
| OE5FHM-15 | 2026-09-02 03:26:00 | 48.28435 | 15.01008 | 154° | 20km/h | 23371m | 5.6m/s | -53.0°C | 4.0% | 0hPa | 2.5V | 00:00:00 | 01:37:17 | 00:00:00 | |
| OE3JTB-15 | 2026-09-02 03:25:58 | 48.28446 | 15.01001 | 163° | 20km/h | 23359m | 5.3m/s | -53.0°C | 4.0% | 0hPa | 2.7V | 00:00:00 | 01:37:15 | 00:00:00 | |
| DO3MHA-12 | 2026-09-02 03:25:53 | 48.28476 | 15.00988 | 172° | 22km/h | 23328m | 5.5m/s | -53.0°C | 4.0% | 0hPa | 2.7V | 00:00:00 | 01:37:10 | 00:00:00 | |
| DK5PH-5 | 2026-09-02 03:25:51 | 48.28486 | 15.00985 | 165° | 18km/h | 23316m | 6.7m/s | -53.0°C | 3.9% | 0hPa | 2.7V | 00:00:00 | 01:37:08 | 00:00:00 | |
| OE5WHR-10 | 2026-09-02 03:25:50 | 48.28492 | 15.00982 | 155° | 18km/h | 23310m | 5.3m/s | -53.0°C | 4.0% | 0hPa | 2.7V | 00:00:00 | 01:37:07 | 00:00:00 | |
| OM5KV | 2026-09-02 03:25:47 | 48.28504 | 15.00975 | 165° | 27km/h | 23298m | 6.4m/s | -53.0°C | 1.0% | 0hPa | 2.7V | 00:00:00 | 00:00:00 | 00:00:00 | |
| OE8JPQ-2 | 2026-09-02 03:25:46 | 48.28516 | 15.00970 | 161° | 16km/h | 23286m | 7.3m/s | -52.9°C | 4.0% | 0hPa | 2.7V | 00:00:00 | 00:00:00 | 00:00:00 | |
| PG1ADW-2 | 2026-09-02 03:25:45 | 48.28522 | 15.00967 | 153° | 16km/h | 23279m | 5.2m/s | -53.0°C | 4.0% | 0hPa | 2.6V | 00:00:00 | 01:37:02 | 00:00:00 | |
| DO3MHA-12 | 2026-09-02 03:25:43 | 48.28530 | 15.00962 | 168° | 16km/h | 23267m | 6.2m/s | -52.9°C | 4.0% | 0hPa | 2.6V | 00:00:00 | 01:37:00 | 00:00:00 | |
| OE5DXL-15 | 2026-09-02 03:25:42 | 48.28534 | 15.00961 | 171° | 15km/h | 23261m | 6.0m/s | -52.8°C | 3.9% | 0hPa | 2.6V | 00:00:00 | 00:00:00 | 08:30:00 | |
| OE3OSB-13 | 2026-09-02 03:25:39 | 48.28545 | 15.00953 | 160° | 15km/h | 23235m | 5.2m/s | -52.7°C | 0.9% | -1.0hPa | 2.7V | 00:00:00 | 00:00:00 | 00:00:00 | |
| SP3BTT-10 | 2026-09-02 03:25:38 | 48.28545 | 15.00953 | 161° | 11km/h | 23236m | 5.2m/s | -52.7°C | 3.9% | 0hPa | 2.7V | 00:00:00 | 00:00:00 | 00:00:00 | |
| PETON7-10 | 2026-09-02 03:25:35 | 48.28558 | 15.00943 | 146° | 16km/h | 23218m | 5.2m/s | -52.6°C | 3.9% | 0hPa | 2.7V | 00:00:00 | 00:00:00 | 00:00:00 | |
| OE5MMP-10 | 2026-09-02 03:25:33 | 48.28567 | 15.00937 | 169° | 16km/h | 23207m | 6.8m/s | -52.6°C | 3.9% | 0hPa | 2.7V | 00:00:00 | 01:36:50 | 00:00:00 | |
| OE5DRO-10 | 2026-09-02 03:25:32 | 48.28571 | 15.00936 | 175° | 15km/h | 23201m | 4.9m/s | -52.6°C | 3.9% | 0hPa | 2.7V | 00:00:00 | 00:00:00 | 00:00:00 | |
| DL6DJ-15 | 2026-09-02 03:25:31 | 48.28576 | 15.00936 | 174° | 15km/h | 23195m | 6.3m/s | -52.6°C | 0.9% | -1.0hPa | 2.7V | 00:00:00 | 00:00:00 | 00:00:00 | |
| OE5FHM-15 | 2026-09-02 03:25:30 | 48.28580 | 15.00935 | 166° | 15km/h | 23189m | 6.5m/s | -52.5°C | 3.9% | 0hPa | 2.7V | 00:00:00 | 01:36:47 | 00:00:00 | |
| OE3JTB-15 | 2026-09-02 03:25:29 | 48.28583 | 15.00933 | 155° | 15km/h | 23183m | 5.0m/s | -52.5°C | 3.9% | 0hPa | 2.7V | 00:00:00 | 00:00:00 | 00:00:00 | |
| OE8JPQ-2 | 2026-09-02 03:25:26 | 48.28592 | 15.00926 | 141° | 15km/h | 23165m | 7.1m/s | -52.5°C | 3.9% | 0hPa | 2.5V | 00:00:00 | 00:00:00 | 00:00:00 | |
| PG1ADW-2 | 2026-09-02 03:25:25 | 48.28595 | 15.00922 | 129° | 15km/h | 23158m | 7.2m/s | -52.4°C | 3.9% | 0hPa | 2.5V | 00:00:00 | 00:00:00 | 00:00:00 | |
| DO3MHA-12 | 2026-09-02 03:25:23 | 48.28600 | 15.00912 | 134° | 13km/h | 23146m | 6.6m/s | -52.4°C | 3.9% | 0hPa | 2.5V | 00:00:00 | 01:36:40 | 00:00:00 | |
| DK5PH-5 | 2026-09-02 03:25:21 | 48.28606 | 15.00903 | 139° | 13km/h | 23133m | 7.3m/s | -52.3°C | 3.9% | 0hPa | 2.5V | 00:00:00 | 01:36:38 | 00:00:00 | |
| PETON7-10 | 2026-09-02 03:25:20 | 48.28608 | 15.00900 | 135° | 15km/h | 23127m | 5.5m/s | -52.3°C | 3.8% | 0hPa | 2.5V | 00:00:00 | 01:36:37 | 00:00:00 | |
| OE5REO-15 | 2026-09-02 03:25:15 | 48.28621 | 15.00893 | 175° | 13km/h | 23103m | 5.4m/s | -52.3°C | 1.0% | 0hPa | 2.5V | 00:00:00 | 00:00:00 | 00:00:00 | |
| DO3MHA-12 | 2026-09-02 03:25:13 | 48.28628 | 15.00887 | 133° | 16km/h | 23086m | 6.1m/s | -52.2°C | 3.8% | 0hPa | 2.5V | 00:00:00 | 01:36:30 | 00:00:00 | |
| OE5DXL-15 | 2026-09-02 03:25:12 | 48.28630 | 15.00883 | 133° | 13km/h | 23079m | 5.8m/s | -52.1°C | 3.7% | 0hPa | 2.5V | 00:00:00 | 00:00:00 | 00:00:00 | |
| SONDE2-11 | 2026-09-02 03:25:11 | 48.28633 | 15.00878 | 129° | 16km/h | 23073m | 5.4m/s | -52.2°C | 0.9% | -1.0hPa | 2.5V | 00:00:00 | 00:00:00 | 00:00:00 | |
| OE3OSB-13 | 2026-09-02 03:25:08 | 48.28642 | 15.00855 | 128° | 16km/h | 23050m | 6.6m/s | -52.2°C | 0.9% | -1.0hPa | 2.5V | 00:00:00 | 00:00:00 | 00:00:00 | |
| OE8JPQ-2 | 2026-09-02 03:25:06 | 48.28645 | 15.00851 | 141° | 11km/h | 23044m | 4.8m/s | -52.2°C | 3.8% | 0hPa | 2.5V | 00:00:00 | 01:36:23 | 00:00:00 | |
| PG1ADW-2 | 2026-09-02 03:25:05 | 48.28648 | 15.00847 | 136° | 11km/h | 23039m | 5.7m/s | -52.2°C | 3.8% | 0hPa | 2.5V | 00:00:00 | 00:00:00 | 00:00:00 | |
| DO3MHA-12 | 2026-09-02 03:25:03 | 48.28651 | 15.00842 | 114° | 13km/h | 23028m | 4.3m/s | -52.3°C | 3.9% | 0hPa | 2.6V | 00:00:00 | 01:36:20 | 08:30:00 | |
| EDDB2-12 | 2026-09-02 03:25:01 | 48.28654 | 15.00835 | 126° | 9km/h | 23011m | 5.3m/s | -52.3°C | 0.9% | -1.0hPa | 2.5V | 00:00:00 | 00:00:00 | 00:00:00 | |
| OE5FHM-15 | 2026-09-02 03:25:00 | 48.28654 | 15.00835 | 127° | 11km/h | 23011m | 5.3m/s | -52.2°C | 3.9% | 0hPa | 2.5V | 00:00:00 | 01:36:17 | 00:00:00 | |
| OM5KV | 2026-09-02 03:24:57 | 48.28656 | 15.00827 | 92° | 15km/h | 22998m | 5.8m/s | -52.2°C | 1.0% | 0hPa | 2.5V | 00:00:00 | 00:00:00 | 00:00:00 | |
| DB0UT-7 | 2026-09-02 03:24:55 | 48.28657 | 15.00809 | 96° | 9km/h | 22980m | 4.9m/s | -52.1°C | 3.8% | 0hPa | 2.5V | 00:00:00 | 01:36:12 | 00:00:00 | |
| OE5DRO-10 | 2026-09-02 03:24:54 | 48.28658 | 15.00803 | 90° | 11km/h | 22975m | 6.6m/s | -52.0°C | 3.8% | 0hPa | 2.5V | 00:00:00 | 00:00:00 | 00:00:00 | |
| OE5MMP-10 | 2026-09-02 03:24:53 | 48.28657 | 15.00798 | 75° | 11km/h | 22969m | 5.4m/s | -52.0°C | 3.8% | 0hPa | 2.5V | 00:00:00 | 01:36:10 | 00:00:00 | |
| DK5PH-5 | 2026-09-02 03:24:51 | 48.28656 | 15.00789 | 96° | 9km/h | 22957m | 7.4m/s | -52.0°C | 3.8% | 0hPa | 2.7V | 00:00:00 | 01:36:08 | 00:00:00 | |
| PETON7-10 | 2026-09-02 03:24:50 | 48.28657 | 15.00786 | 138° | 11km/h | 22950m | 5.6m/s | -52.0°C | 3.8% | 0hPa | 2.7V | 00:00:00 | 00:00:00 | 00:00:00 | |
| OM5KV | 2026-09-02 03:24:47 | 48.28660 | 15.00783 | 149° | 9km/h | 22938m | 6.7m/s | -52.0°C | 1.0% | 0hPa | 2.7V | 00:00:00 | 00:00:00 | 00:00:00 | |
| OE8JPQ-2 | 2026-09-02 03:24:46 | 48.28664 | 15.00778 | 141° | 9km/h | 22926m | 6.2m/s | -51.9°C | 3.7% | 0hPa | 2.7V | 00:00:00 | 00:00:00 | 00:00:00 | |
| PG1ADW-2 | 2026-09-02 03:24:45 | 48.28667 | 15.00775 | 138° | 9km/h | 22920m | 5.9m/s | -51.8°C | 3.7% | 0hPa | 2.5V | 00:00:00 | 00:00:00 | 00:00:00 | |
| OE5REO-15 | 2026-09-02 03:24:44 | 48.28667 | 15.00775 | 139° | 15km/h | 22920m | 6.0m/s | -51.9°C | 1.0% | 0hPa | 2.5V | 00:00:00 | 00:00:00 | 00:00:00 | |
| DO3MHA-12 | 2026-09-02 03:24:43 | 48.28671 | 15.00767 | 117° | 9km/h | 22909m | 6.0m/s | -51.8°C | 3.7% | 0hPa | 2.5V | 00:00:00 | 01:36:00 | 00:00:00 | |
| OM5KV | 2026-09-02 03:24:42 | 48.28672 | 15.00762 | 92° | 13km/h | 22903m | 6.0m/s | -51.8°C | 1.0% | 0hPa | 2.5V | 00:00:00 | 00:00:00 | 00:00:00 | |
| SONDE2-11 | 2026-09-02 03:24:40 | 48.28671 | 15.00754 | 62° | 9km/h | 22892m | 5.9m/s | -51.8°C | 0.9% | -1.0hPa | 2.5V | 00:00:00 | 00:00:00 | 00:00:00 | |
| OK1ALN | 2026-09-02 03:24:39 | 48.28671 | 15.00754 | 64° | 11km/h | 22893m | 5.9m/s | -51.8°C | 1.0% | 0hPa | 2.5V | 00:00:00 | 00:00:00 | 00:00:00 | |
| OE3OSB-13 | 2026-09-02 03:24:36 | 48.28669 | 15.00742 | 69° | 9km/h | 22869m | 5.4m/s | -51.9°C | 0.9% | -1.0hPa | 2.5V | 00:00:00 | 00:00:00 | 00:00:00 | |
| OM5KV | 2026-09-02 03:24:35 | 48.28669 | 15.00742 | 71° | 9km/h | 22869m | 5.4m/s | -51.9°C | 1.0% | 0hPa | 2.5V | 00:00:00 | 00:00:00 | 00:00:00 | |
| DO3MHA-12 | 2026-09-02 03:24:33 | 48.28668 | 15.00733 | 127° | 5km/h | 22854m | 5.4m/s | -51.8°C | 3.7% | 0hPa | 2.5V | 00:00:00 | 01:35:50 | 00:00:00 | |
| OE3JTB-15 | 2026-09-02 03:24:31 | 48.28671 | 15.00729 | 129° | 5km/h | 22843m | 6.6m/s | -51.9°C | 3.7% | 0hPa | 2.6V | 00:00:00 | 01:35:48 | 00:00:00 | |
| OE5FHM-15 | 2026-09-02 03:24:30 | 48.28672 | 15.00726 | 115° | 5km/h | 22837m | 5.2m/s | -51.9°C | 3.7% | 0hPa | 2.6V | 00:00:00 | 01:35:47 | 00:00:00 | |
| DL6DJ-15 | 2026-09-02 03:24:29 | 48.28673 | 15.00724 | 110° | 5km/h | 22831m | 5.0m/s | -52.0°C | 0.9% | -1.0hPa | 2.5V | 00:00:00 | 00:00:00 | 00:00:00 | |
| OE8JPQ-2 | 2026-09-02 03:24:26 | 48.28673 | 15.00721 | 360° | 5km/h | 22814m | 5.0m/s | -51.8°C | 3.7% | 0hPa | 2.5V | 00:00:00 | 00:00:00 | 00:00:00 | |
| PG1ADW-2 | 2026-09-02 03:24:25 | 48.28672 | 15.00721 | 46° | 7km/h | 22808m | 6.2m/s | -51.8°C | 3.7% | 0hPa | 2.5V | 00:00:00 | 01:35:42 | 00:00:00 | |
| DO3MHA-12 | 2026-09-02 03:24:23 | 48.28671 | 15.00717 | 79° | 7km/h | 22798m | 5.9m/s | -51.8°C | 3.7% | 0hPa | 2.5V | 00:00:00 | 01:35:40 | 00:00:00 | |
| DK5PH-5 | 2026-09-02 03:24:21 | 48.28672 | 15.00714 | 133° | 5km/h | 22787m | 4.6m/s | -51.8°C | 3.7% | 0hPa | 2.5V | 00:00:00 | 01:35:38 | 00:00:00 | |
| PETON7-10 | 2026-09-02 03:24:20 | 48.28673 | 15.00711 | 128° | 7km/h | 22781m | 5.8m/s | -51.8°C | 3.7% | 0hPa | 2.5V | 00:00:00 | 00:00:00 | 00:00:00 | |
| OM5KV | 2026-09-02 03:24:19 | 48.28673 | 15.00711 | 128° | 9km/h | 22781m | 5.9m/s | -51.9°C | 1.0% | 0hPa | 2.5V | 00:00:00 | 00:00:00 | 00:00:00 | |
| OE5DRO-10 | 2026-09-02 03:24:16 | 48.28677 | 15.00696 | 82° | 5km/h | 22759m | 5.7m/s | -51.8°C | 3.6% | 0hPa | 2.5V | 00:00:00 | 00:00:00 | 00:00:00 | |
| DO3MHA-12 | 2026-09-02 03:24:13 | 48.28676 | 15.00693 | 89° | 5km/h | 22744m | 5.4m/s | -51.8°C | 3.6% | 0hPa | 2.7V | 00:00:00 | 01:35:30 | 00:00:00 | |
| OE5DXL-15 | 2026-09-02 03:24:12 | 48.28676 | 15.00691 | 95° | 5km/h | 22739m | 4.7m/s | -51.8°C | 3.6% | 0hPa | 2.7V | 00:00:00 | 00:00:00 | 00:00:00 | |
| SONDE2-11 | 2026-09-02 03:24:09 | 48.28676 | 15.00687 | 77° | 4km/h | 22722m | 5.7m/s | -52.1°C | 0.9% | -1.0hPa | 2.6V | 00:00:00 | 00:00:00 | 00:00:00 | |
| OM5KV | 2026-09-02 03:24:08 | 48.28676 | 15.00687 | 79° | 5km/h | 22722m | 5.7m/s | -52.1°C | 1.0% | 0hPa | 2.6V | 00:00:00 | 00:00:00 | 00:00:00 | |
| OE3OSB-13 | 2026-09-02 03:24:06 | 48.28673 | 15.00677 | 57° | 4km/h | 22699m | 6.0m/s | -52.4°C | 0.9% | -1.0hPa | 2.6V | 00:00:00 | 00:00:00 | 00:00:00 | |
| PETON7-10 | 2026-09-02 03:24:05 | 48.28673 | 15.00677 | 58° | 5km/h | 22699m | 5.9m/s | -52.3°C | 3.7% | 0hPa | 2.6V | 00:00:00 | 00:00:00 | 00:00:00 | |
| OE5MMP-10 | 2026-09-02 03:24:03 | 48.28672 | 15.00674 | 111° | 4km/h | 22687m | 6.4m/s | -52.4°C | 3.8% | 0hPa | 2.6V | 00:00:00 | 01:35:20 | 00:00:00 | |
| OM5KV | 2026-09-02 03:24:02 | 48.28672 | 15.00674 | 111° | 5km/h | 22687m | 6.4m/s | -52.5°C | 1.0% | 0hPa | 2.6V | 00:00:00 | 00:00:00 | 00:00:00 | |
| EDDB2-12 | 2026-09-02 03:23:59 | 48.28677 | 15.00674 | 152° | 5km/h | 22658m | 6.0m/s | -52.5°C | 0.9% | -1.0hPa | 2.6V | 00:00:00 | 00:00:00 | 00:00:00 | |
| DL6DJ-15 | 2026-09-02 03:23:58 | 48.28678 | 15.00673 | 156° | 2km/h | 22653m | 4.5m/s | -52.5°C | 0.9% | -1.0hPa | 2.6V | 00:00:00 | 00:00:00 | 00:00:00 | |
| DF7PN | 2026-09-02 03:23:54 | 48.28674 | 15.00670 | 29° | 5km/h | 22623m | 6.1m/s | -52.5°C | 0.9% | -1.0hPa | 2.6V | 00:00:00 | 00:00:00 | 00:00:00 | |
| OE5MMP-10 | 2026-09-02 03:23:53 | 48.28676 | 15.00672 | 28° | 9km/h | 22629m | 6.1m/s | -52.4°C | 3.7% | 0hPa | 2.6V | 00:00:00 | 01:35:10 | 00:00:00 | |
| DK5PH-5 | 2026-09-02 03:23:51 | 48.28673 | 15.00669 | 22° | 11km/h | 22617m | 5.5m/s | -52.4°C | 3.7% | 0hPa | 2.6V | 00:00:00 | 01:35:08 | 00:00:00 | |
| PETON7-10 | 2026-09-02 03:23:50 | 48.28672 | 15.00668 | 97° | 9km/h | 22612m | 5.2m/s | -52.5°C | 3.7% | 0hPa | 2.6V | 00:00:00 | 01:35:07 | 00:00:00 | |
| OE8JPQ-2 | 2026-09-02 03:23:46 | 48.28678 | 15.00657 | 143° | 13km/h | 22590m | 6.2m/s | -52.7°C | 3.8% | 0hPa | 2.6V | 00:00:00 | 00:00:00 | 08:30:00 | |
| PG1ADW-2 | 2026-09-02 03:23:45 | 48.28680 | 15.00654 | 147° | 13km/h | 22584m | 4.9m/s | -52.8°C | 3.8% | 0hPa | 2.5V | 00:00:00 | 00:00:00 | 00:00:00 | |
| OE5MMP-10 | 2026-09-02 03:23:43 | 48.28683 | 15.00651 | 130° | 11km/h | 22574m | 6.6m/s | -52.8°C | 3.8% | 0hPa | 2.5V | 00:00:00 | 01:35:00 | 00:00:00 | |
| OE5DXL-15 | 2026-09-02 03:23:42 | 48.28684 | 15.00647 | 111° | 11km/h | 22568m | 5.8m/s | -52.8°C | 3.8% | 0hPa | 2.5V | 00:00:00 | 00:00:00 | 00:00:00 | |
| OE5DRO-10 | 2026-09-02 03:23:38 | 48.28687 | 15.00634 | 120° | 11km/h | 22545m | 5.1m/s | -53.0°C | 3.9% | 0hPa | 2.5V | 00:00:00 | 00:00:00 | 00:00:00 | |
| DO3MHA-12 | 2026-09-02 03:23:36 | 48.28690 | 15.00629 | 133° | 11km/h | 22534m | 4.1m/s | -53.1°C | 3.9% | 0hPa | 2.5V | 00:00:00 | 01:34:53 | 00:00:00 | |
| PETON7-10 | 2026-09-02 03:23:35 | 48.28692 | 15.00626 | 147° | 13km/h | 22528m | 6.6m/s | -53.1°C | 3.9% | 0hPa | 2.6V | 00:00:00 | 00:00:00 | 00:00:00 | |
| OE3OSB-13 | 2026-09-02 03:23:34 | 48.28695 | 15.00624 | 152° | 13km/h | 22522m | 5.3m/s | -53.2°C | 0.9% | -1.0hPa | 2.7V | 00:00:00 | 00:00:00 | 00:00:00 | |
| OM5KV | 2026-09-02 03:23:32 | 48.28697 | 15.00621 | 151° | 15km/h | 22516m | 5.9m/s | -53.2°C | 1.0% | 0hPa | 2.7V | 00:00:00 | 00:00:00 | 00:00:00 | |
| OE5FHM-15 | 2026-09-02 03:23:30 | 48.28708 | 15.00607 | 135° | 11km/h | 22499m | 4.8m/s | -53.3°C | 4.0% | 0hPa | 2.7V | 00:00:00 | 01:34:47 | 00:00:00 | |
| EDDB2-12 | 2026-09-02 03:23:28 | 48.28715 | 15.00595 | 124° | 9km/h | 22482m | 4.9m/s | -53.4°C | 1.0% | -1.0hPa | 2.7V | 00:00:00 | 00:00:00 | 00:00:00 | |
| DL6DJ-15 | 2026-09-02 03:23:27 | 48.28717 | 15.00592 | 117° | 9km/h | 22477m | 6.7m/s | -53.4°C | 1.0% | -1.0hPa | 2.7V | 00:00:00 | 00:00:00 | 00:00:00 | |
| OE8JPQ-2 | 2026-09-02 03:23:26 | 48.28717 | 15.00592 | 118° | 7km/h | 22477m | 6.6m/s | -53.3°C | 4.0% | 0hPa | 2.7V | 00:00:00 | 00:00:00 | 00:00:00 | |
| PG1ADW-2 | 2026-09-02 03:23:25 | 48.28718 | 15.00588 | 100° | 7km/h | 22471m | 4.5m/s | -53.4°C | 4.0% | 0hPa | 2.7V | 00:00:00 | 00:00:00 | 00:00:00 | |
| DO3MHA-12 | 2026-09-02 03:23:24 | 48.28718 | 15.00585 | 100° | 7km/h | 22466m | 5.9m/s | -53.4°C | 4.0% | 0hPa | 2.7V | 00:00:00 | 01:34:41 | 00:00:00 | |
| OE5MMP-10 | 2026-09-02 03:23:23 | 48.28718 | 15.00582 | 94° | 7km/h | 22459m | 5.7m/s | -53.3°C | 4.0% | 0hPa | 2.7V | 00:00:00 | 01:34:40 | 00:00:00 | |
| DK5PH-5 | 2026-09-02 03:23:21 | 48.28718 | 15.00579 | 88° | 11km/h | 22448m | 6.6m/s | -53.3°C | 4.0% | 0hPa | 2.5V | 00:00:00 | 01:34:38 | 00:00:00 | |
| PETON7-10 | 2026-09-02 03:23:20 | 48.28718 | 15.00576 | 89° | 9km/h | 22442m | 5.3m/s | -53.3°C | 4.0% | 0hPa | 2.6V | 00:00:00 | 00:00:00 | 00:00:00 | |
| OE5DRO-10 | 2026-09-02 03:23:19 | 48.28718 | 15.00573 | 95° | 11km/h | 22436m | 6.0m/s | -53.3°C | 4.0% | 0hPa | 2.6V | 00:00:00 | 00:00:00 | 00:00:00 | |
| DO3MHA-12 | 2026-09-02 03:23:14 | 48.28716 | 15.00560 | 74° | 11km/h | 22408m | 6.0m/s | -53.1°C | 4.0% | 0hPa | 2.5V | 00:00:00 | 01:34:31 | 00:00:00 | |
| OE5MMP-10 | 2026-09-02 03:23:13 | 48.28716 | 15.00558 | 62° | 11km/h | 22402m | 5.5m/s | -53.1°C | 4.0% | 0hPa | 2.5V | 00:00:00 | 01:34:30 | 00:00:00 | |
| OE5DXL-15 | 2026-09-02 03:23:12 | 48.28715 | 15.00556 | 81° | 15km/h | 22396m | 4.7m/s | -53.1°C | 4.0% | 0hPa | 2.5V | 00:00:00 | 00:00:00 | 00:00:00 | |
| OM5KV | 2026-09-02 03:23:08 | 48.28714 | 15.00548 | 87° | 9km/h | 22378m | 6.2m/s | -53.1°C | 1.1% | 0hPa | 2.5V | 00:00:00 | 00:00:00 | 00:00:00 | |
| SONDE2-11 | 2026-09-02 03:23:07 | 48.28715 | 15.00540 | 114° | 11km/h | 22367m | 3.2m/s | -53.1°C | 1.0% | -1.0hPa | 2.5V | 00:00:00 | 00:00:00 | 00:00:00 | |
| OE8JPQ-2 | 2026-09-02 03:23:06 | 48.28717 | 15.00535 | 114° | 16km/h | 22363m | 6.2m/s | -53.0°C | 4.0% | 0hPa | 2.5V | 00:00:00 | 01:34:23 | 00:00:00 | |
| PG1ADW-2 | 2026-09-02 03:23:05 | 48.28718 | 15.00529 | 111° | 16km/h | 22357m | 5.1m/s | -53.0°C | 4.0% | 0hPa | 2.5V | 00:00:00 | 01:34:22 | 08:30:00 | |
| DO3MHA-12 | 2026-09-02 03:23:04 | 48.28720 | 15.00522 | 114° | 15km/h | 22352m | 4.7m/s | -53.0°C | 4.0% | 0hPa | 2.6V | 00:00:00 | 01:34:21 | 08:30:00 | |
| OE5MMP-10 | 2026-09-02 03:23:03 | 48.28722 | 15.00516 | 124° | 13km/h | 22346m | 6.5m/s | -52.9°C | 4.0% | 0hPa | 2.5V | 00:00:00 | 01:34:20 | 00:00:00 | |
| OM5KV | 2026-09-02 03:23:02 | 48.28722 | 15.00516 | 125° | 18km/h | 22346m | 6.6m/s | -53.0°C | 1.1% | 0hPa | 2.5V | 00:00:00 | 00:00:00 | 00:00:00 | |
| DL6DJ-15 | 2026-09-02 03:22:56 | 48.28731 | 15.00475 | 98° | 9km/h | 22303m | 5.4m/s | -52.7°C | 0.9% | -1.0hPa | 2.5V | 00:00:00 | 00:00:00 | 00:00:00 | |
| DO3MHA-12 | 2026-09-02 03:22:54 | 48.28731 | 15.00472 | 118° | 18km/h | 22297m | 4.7m/s | -52.6°C | 3.9% | 0hPa | 2.5V | 00:00:00 | 01:34:11 | 00:00:00 | |
| OE5MMP-10 | 2026-09-02 03:22:53 | 48.28733 | 15.00469 | 140° | 20km/h | 22292m | 6.0m/s | -52.7°C | 3.8% | 0hPa | 2.5V | 00:00:00 | 01:34:10 | 08:30:00 | |
| DK5PH-5 | 2026-09-02 03:22:51 | 48.28738 | 15.00463 | 138° | 18km/h | 22281m | 5.3m/s | -52.7°C | 3.9% | 0hPa | 2.7V | 00:00:00 | 01:34:08 | 00:00:00 | |
| PETON7-10 | 2026-09-02 03:22:50 | 48.28741 | 15.00458 | 127° | 18km/h | 22275m | 6.1m/s | -52.8°C | 3.9% | 0hPa | 2.7V | 00:00:00 | 00:00:00 | 08:30:00 | |
| OE8JPQ-2 | 2026-09-02 03:22:46 | 48.28751 | 15.00429 | 110° | 18km/h | 22252m | 6.3m/s | -52.7°C | 3.9% | 0hPa | 2.6V | 00:00:00 | 00:00:00 | 00:00:00 | |
| PG1ADW-2 | 2026-09-02 03:22:45 | 48.28753 | 15.00420 | 103° | 18km/h | 22246m | 5.5m/s | -52.7°C | 3.9% | 0hPa | 2.5V | 00:00:00 | 00:00:00 | 00:00:00 | |
| DO3MHA-12 | 2026-09-02 03:22:44 | 48.28755 | 15.00412 | 106° | 18km/h | 22240m | 5.0m/s | -52.7°C | 3.9% | 0hPa | 2.5V | 00:00:00 | 01:34:01 | 00:00:00 | |
| OE5MMP-10 | 2026-09-02 03:22:43 | 48.28756 | 15.00405 | 120° | 18km/h | 22234m | 6.5m/s | -52.6°C | 3.9% | 0hPa | 2.5V | 00:00:00 | 01:34:00 | 00:00:00 | |
| OE5DXL-15 | 2026-09-02 03:22:42 | 48.28758 | 15.00400 | 121° | 16km/h | 22228m | 5.2m/s | -52.6°C | 3.9% | 0hPa | 2.5V | 00:00:00 | 00:00:00 | 00:00:00 | |
| OE5DRO-10 | 2026-09-02 03:22:41 | 48.28760 | 15.00396 | 120° | 16km/h | 22222m | 6.5m/s | -52.6°C | 3.9% | 0hPa | 2.7V | 00:00:00 | 00:00:00 | 00:00:00 | |
| PETON7-10 | 2026-09-02 03:22:35 | 48.28775 | 15.00363 | 105° | 18km/h | 22190m | 6.2m/s | -52.5°C | 3.8% | 0hPa | 2.7V | 00:00:00 | 00:00:00 | 00:00:00 | |
| DO3MHA-12 | 2026-09-02 03:22:34 | 48.28776 | 15.00353 | 103° | 16km/h | 22185m | 4.4m/s | -52.4°C | 3.7% | 0hPa | 2.7V | 00:00:00 | 01:33:51 | 00:00:00 | |
| OM5KV | 2026-09-02 03:22:33 | 48.28778 | 15.00344 | 104° | 26km/h | 22179m | 6.4m/s | -52.5°C | 1.0% | 0hPa | 2.6V | 00:00:00 | 00:00:00 | 00:00:00 | |
| OE3OSB-13 | 2026-09-02 03:22:32 | 48.28779 | 15.00335 | 105° | 24km/h | 22173m | 5.1m/s | -52.5°C | 0.9% | -1.0hPa | 2.6V | 00:00:00 | 00:00:00 | 00:00:00 | |
| OE5WHR-10 | 2026-09-02 03:22:30 | 48.28781 | 15.00320 | 93° | 15km/h | 22161m | 5.3m/s | -52.4°C | 3.7% | 0hPa | 2.6V | 00:00:00 | 00:00:00 | 00:00:00 | |
| OE8JPQ-2 | 2026-09-02 03:22:26 | 48.28786 | 15.00306 | 138° | 16km/h | 22140m | 5.2m/s | -52.6°C | 3.7% | 0hPa | 2.7V | 00:00:00 | 00:00:00 | 00:00:00 | |
| PG1ADW-2 | 2026-09-02 03:22:25 | 48.28788 | 15.00303 | 124° | 16km/h | 22134m | 6.0m/s | -52.7°C | 3.6% | 0hPa | 2.7V | 00:00:00 | 00:00:00 | 00:00:00 | |
| DO3MHA-12 | 2026-09-02 03:22:24 | 48.28789 | 15.00299 | 109° | 18km/h | 22128m | 4.8m/s | -52.7°C | 3.7% | 0hPa | 2.7V | 00:00:00 | 01:33:41 | 00:00:00 | |
| OE5MMP-10 | 2026-09-02 03:22:23 | 48.28790 | 15.00293 | 113° | 18km/h | 22123m | 5.2m/s | -52.8°C | 3.7% | 0hPa | 2.7V | 00:00:00 | 01:33:40 | 00:00:00 | |
| OE5DRO-10 | 2026-09-02 03:22:22 | 48.28792 | 15.00287 | 118° | 16km/h | 22117m | 6.4m/s | -52.9°C | 3.7% | 0hPa | 2.7V | 00:00:00 | 00:00:00 | 08:30:00 | |
| DK5PH-5 | 2026-09-02 03:22:21 | 48.28794 | 15.00280 | 106° | 15km/h | 22111m | 5.4m/s | -53.0°C | 3.8% | 0hPa | 2.7V | 00:00:00 | 01:33:38 | 00:00:00 | |
| PETON7-10 | 2026-09-02 03:22:20 | 48.28795 | 15.00273 | 95° | 16km/h | 22105m | 6.8m/s | -53.1°C | 3.8% | 0hPa | 2.7V | 00:00:00 | 01:33:37 | 00:00:00 | |
| DO3MHA-12 | 2026-09-02 03:22:14 | 48.28789 | 15.00235 | 52° | 16km/h | 22070m | 5.5m/s | -53.5°C | 4.0% | 0hPa | 2.7V | 00:00:00 | 01:33:31 | 00:00:00 | |
| OE5MMP-10 | 2026-09-02 03:22:13 | 48.28786 | 15.00230 | 56° | 16km/h | 22065m | 5.1m/s | -53.6°C | 4.0% | 0hPa | 2.7V | 00:00:00 | 01:33:30 | 00:00:00 | |
| OE5DXL-15 | 2026-09-02 03:22:12 | 48.28784 | 15.00225 | 63° | 13km/h | 22059m | 7.2m/s | -53.6°C | 4.1% | 0hPa | 2.7V | 00:00:00 | 00:00:00 | 00:00:00 | |
| OE5WHR-10 | 2026-09-02 03:22:09 | 48.28780 | 15.00210 | 65° | 15km/h | 22041m | 5.7m/s | -53.7°C | 4.1% | 0hPa | 2.7V | 00:00:00 | 00:00:00 | 00:00:00 | |
| OM5KV | 2026-09-02 03:22:08 | 48.28780 | 15.00210 | 66° | 16km/h | 22041m | 5.8m/s | -53.7°C | 1.1% | 0hPa | 2.7V | 00:00:00 | 00:00:00 | 00:00:00 | |
| OE8JPQ-2 | 2026-09-02 03:22:06 | 48.28775 | 15.00192 | 65° | 13km/h | 22024m | 5.4m/s | -53.6°C | 4.1% | 0hPa | 2.7V | 00:00:00 | 01:33:23 | 00:00:00 | |
| PETON7-10 | 2026-09-02 03:22:05 | 48.28773 | 15.00188 | 61° | 15km/h | 22018m | 5.8m/s | -53.6°C | 4.1% | 0hPa | 2.7V | 00:00:00 | 00:00:00 | 00:00:00 | |
| DO3MHA-12 | 2026-09-02 03:22:04 | 48.28771 | 15.00183 | 47° | 13km/h | 22012m | 6.0m/s | -53.6°C | 4.1% | 0hPa | 2.5V | 00:00:00 | 01:33:21 | 00:00:00 | |
| OE5MMP-10 | 2026-09-02 03:22:03 | 48.28768 | 15.00178 | 52° | 13km/h | 22007m | 3.9m/s | -53.6°C | 4.1% | 0hPa | 2.5V | 00:00:00 | 01:33:20 | 00:00:00 | |
| OM5KV | 2026-09-02 03:22:02 | 48.28768 | 15.00178 | 52° | 16km/h | 22007m | 4.0m/s | -53.7°C | 1.1% | 0hPa | 2.5V | 00:00:00 | 00:00:00 | 00:00:00 | |
| OE3OSB-13 | 2026-09-02 03:22:01 | 48.28764 | 15.00170 | 70° | 9km/h | 21995m | 4.8m/s | -53.6°C | 1.0% | -1.0hPa | 2.5V | 00:00:00 | 00:00:00 | 00:00:00 | |
| DL6DJ-15 | 2026-09-02 03:21:54 | 48.28757 | 15.00134 | 55° | 15km/h | 21951m | 6.2m/s | -53.4°C | 1.0% | -1.0hPa | 2.5V | 00:00:00 | 00:00:00 | 00:00:00 | |
| OE5MMP-10 | 2026-09-02 03:21:53 | 48.28757 | 15.00134 | 56° | 11km/h | 21951m | 6.1m/s | -53.3°C | 4.0% | 0hPa | 2.5V | 00:00:00 | 01:33:10 | 00:00:00 | |
| DK5PH-5 | 2026-09-02 03:21:51 | 48.28752 | 15.00124 | 51° | 11km/h | 21940m | 5.8m/s | -53.3°C | 4.0% | 0hPa | 2.6V | 00:00:00 | 01:33:08 | 08:30:00 | |
| PETON7-10 | 2026-09-02 03:21:50 | 48.28750 | 15.00120 | 56° | 9km/h | 21934m | 6.3m/s | -53.3°C | 4.0% | 0hPa | 2.6V | 00:00:00 | 00:00:00 | 00:00:00 | |
| OE5WHR-10 | 2026-09-02 03:21:48 | 48.28747 | 15.00114 | 50° | 9km/h | 21923m | 6.0m/s | -53.3°C | 4.0% | 0hPa | 2.6V | 00:00:00 | 01:33:05 | 00:00:00 | |
| OE8JPQ-2 | 2026-09-02 03:21:46 | 48.28743 | 15.00110 | 48° | 9km/h | 21912m | 3.9m/s | -53.3°C | 4.0% | 0hPa | 2.6V | 00:00:00 | 00:00:00 | 00:00:00 | |
| PG1ADW-2 | 2026-09-02 03:21:45 | 48.28742 | 15.00108 | 53° | 9km/h | 21907m | 7.1m/s | -53.3°C | 4.0% | 0hPa | 2.6V | 00:00:00 | 01:33:02 | 00:00:00 | |
| DO3MHA-12 | 2026-09-02 03:21:44 | 48.28741 | 15.00107 | 45° | 11km/h | 21900m | 5.7m/s | -53.3°C | 4.0% | 0hPa | 2.6V | 00:00:00 | 01:33:01 | 00:00:00 | |
| OE5MMP-10 | 2026-09-02 03:21:43 | 48.28741 | 15.00105 | 70° | 11km/h | 21894m | 5.6m/s | -53.3°C | 4.0% | 0hPa | 2.6V | 00:00:00 | 01:33:00 | 00:00:00 | |
| OE5DXL-15 | 2026-09-02 03:21:42 | 48.28740 | 15.00103 | 62° | 15km/h | 21889m | 5.3m/s | -53.3°C | 4.0% | 0hPa | 2.6V | 00:00:00 | 00:00:00 | 00:00:00 | |
| OM5KV | 2026-09-02 03:21:38 | 48.28739 | 15.00090 | 89° | 13km/h | 21871m | 4.9m/s | -53.4°C | 1.1% | 0hPa | 2.6V | 00:00:00 | 00:00:00 | 00:00:00 | |
| OE3JTB-15 | 2026-09-02 03:21:37 | 48.28738 | 15.00080 | 65° | 15km/h | 21860m | 6.0m/s | -53.3°C | 3.9% | 0hPa | 2.6V | 00:00:00 | 01:32:54 | 00:00:00 | |
| PETON7-10 | 2026-09-02 03:21:35 | 48.28734 | 15.00071 | 54° | 13km/h | 21850m | 5.5m/s | -53.4°C | 4.0% | 0hPa | 2.6V | 00:00:00 | 01:32:52 | 00:00:00 | |
| DO3MHA-12 | 2026-09-02 03:21:34 | 48.28732 | 15.00068 | 51° | 11km/h | 21844m | 5.6m/s | -53.4°C | 3.9% | 0hPa | 2.6V | 00:00:00 | 01:32:51 | 08:30:00 | |
| OE5MMP-10 | 2026-09-02 03:21:33 | 48.28731 | 15.00065 | 70° | 11km/h | 21839m | 5.1m/s | -53.4°C | 4.0% | 0hPa | 2.6V | 00:00:00 | 01:32:50 | 00:00:00 | |
| OM5KV | 2026-09-02 03:21:32 | 48.28732 | 15.00065 | 71° | 7km/h | 21839m | 5.1m/s | -53.4°C | 1.1% | 0hPa | 2.6V | 00:00:00 | 00:00:00 | 00:00:00 | |
| OE5FHM-15 | 2026-09-02 03:21:30 | 48.28729 | 15.00056 | 74° | 15km/h | 21822m | 5.4m/s | -53.3°C | 3.9% | 0hPa | 2.6V | 00:00:00 | 01:32:47 | 00:00:00 | |
| OE5WHR-10 | 2026-09-02 03:21:27 | 48.28729 | 15.00047 | 74° | 18km/h | 21804m | 6.4m/s | -53.3°C | 3.9% | 0hPa | 2.7V | 00:00:00 | 00:00:00 | 08:30:00 | |
| OE8JPQ-2 | 2026-09-02 03:21:26 | 48.28727 | 15.00042 | 73° | 18km/h | 21798m | 6.3m/s | -53.2°C | 3.9% | 0hPa | 2.6V | 00:00:00 | 00:00:00 | 00:00:00 | |
| PG1ADW-2 | 2026-09-02 03:21:25 | 48.28726 | 15.00036 | 69° | 18km/h | 21793m | 3.8m/s | -53.3°C | 3.9% | 0hPa | 2.6V | 00:00:00 | 00:00:00 | 00:00:00 | |
| DO3MHA-12 | 2026-09-02 03:21:24 | 48.28725 | 15.00029 | 76° | 18km/h | 21788m | 5.9m/s | -53.3°C | 3.9% | 0hPa | 2.6V | 00:00:00 | 01:32:41 | 00:00:00 | |
| OE5MMP-10 | 2026-09-02 03:21:23 | 48.28723 | 15.00021 | 86° | 16km/h | 21782m | 6.1m/s | -53.3°C | 3.9% | 0hPa | 2.6V | 00:00:00 | 01:32:40 | 08:30:00 | |
| OM5KV | 2026-09-02 03:21:22 | 48.28723 | 15.00021 | 86° | 20km/h | 21782m | 6.2m/s | -53.3°C | 1.1% | 0hPa | 2.5V | 00:00:00 | 00:00:00 | 00:00:00 | |
| DK5PH-5 | 2026-09-02 03:21:21 | 48.28723 | 15.00006 | 83° | 15km/h | 21771m | 5.9m/s | -53.4°C | 3.9% | 0hPa | 2.5V | 00:00:00 | 01:32:38 | 00:00:00 | |
| PETON7-10 | 2026-09-02 03:21:20 | 48.28722 | 14.99999 | 74° | 16km/h | 21764m | 6.1m/s | -53.4°C | 4.0% | 0hPa | 2.5V | 00:00:00 | 00:00:00 | 00:00:00 | |
| DF7PN | 2026-09-02 03:21:18 | 48.28719 | 14.99981 | 71° | 13km/h | 21747m | 4.1m/s | -53.5°C | -1.0% | -1.0hPa | 2.6V | 00:00:00 | 00:00:00 | 00:00:00 | |
| DO3MHA-12 | 2026-09-02 03:21:14 | 48.28714 | 14.99966 | 70° | 18km/h | 21730m | 6.4m/s | -53.5°C | 4.0% | 0hPa | 2.6V | 00:00:00 | 01:32:31 | 00:00:00 | |
| OE5MMP-10 | 2026-09-02 03:21:13 | 48.28712 | 14.99960 | 70° | 16km/h | 21725m | 3.9m/s | -53.5°C | 4.0% | 0hPa | 2.6V | 00:00:00 | 01:32:30 | 00:00:00 | |
| OE5DXL-15 | 2026-09-02 03:21:12 | 48.28711 | 14.99954 | 67° | 11km/h | 21719m | 6.7m/s | -53.5°C | 4.0% | 0hPa | 2.6V | 00:00:00 | 00:00:00 | 08:30:00 | |
| OE3JTB-15 | 2026-09-02 03:21:08 | 48.28703 | 14.99927 | 77° | 9km/h | 21696m | 3.9m/s | -53.5°C | 4.0% | 0hPa | 2.6V | 00:00:00 | 00:00:00 | 00:00:00 | |
| OE8JPQ-2 | 2026-09-02 03:21:06 | 48.28701 | 14.99915 | 65° | 11km/h | 21686m | 5.8m/s | -53.6°C | 3.9% | 0hPa | 2.5V | 00:00:00 | 01:32:23 | 00:00:00 | |
| PETON7-10 | 2026-09-02 03:21:05 | 48.28699 | 14.99910 | 58° | 13km/h | 21680m | 5.2m/s | -53.6°C | 3.9% | 0hPa | 2.5V | 00:00:00 | 00:00:00 | 00:00:00 | |
| DO3MHA-12 | 2026-09-02 03:21:04 | 48.28698 | 14.99906 | 65° | 11km/h | 21675m | 6.1m/s | -53.6°C | 4.0% | 0hPa | 2.5V | 00:00:00 | 01:32:21 | 00:00:00 | |
| OM5KV | 2026-09-02 03:21:02 | 48.28696 | 14.99903 | 60° | 11km/h | 21669m | 6.1m/s | -53.7°C | 1.1% | 0hPa | 2.6V | 00:00:00 | 00:00:00 | 00:00:00 | |
| OE3OSB-13 | 2026-09-02 03:20:59 | 48.28691 | 14.99889 | 72° | 9km/h | 21646m | 6.9m/s | -53.9°C | 1.0% | -1.0hPa | 2.6V | 00:00:00 | 00:00:00 | 00:00:00 | |
| EDDB2-12 | 2026-09-02 03:20:52 | 48.28682 | 14.99861 | 49° | 11km/h | 21608m | 5.2m/s | -53.9°C | 1.0% | -1.0hPa | 2.6V | 00:00:00 | 00:00:00 | 00:00:00 | |
| DK5PH-5 | 2026-09-02 03:20:51 | 48.28679 | 14.99858 | 39° | 7km/h | 21603m | 4.7m/s | -53.9°C | 4.1% | 0hPa | 2.6V | 00:00:00 | 01:32:08 | 00:00:00 | |
| PETON7-10 | 2026-09-02 03:20:50 | 48.28677 | 14.99855 | 36° | 5km/h | 21598m | 6.2m/s | -53.9°C | 4.1% | 0hPa | 2.6V | 00:00:00 | 01:32:07 | 00:00:00 | |
| OE5DRO-10 | 2026-09-02 03:20:47 | 48.28672 | 14.99849 | 66° | 5km/h | 21580m | 4.9m/s | -53.9°C | 4.1% | 0hPa | 2.6V | 00:00:00 | 00:00:00 | 00:00:00 | |
| OE8JPQ-2 | 2026-09-02 03:20:46 | 48.28671 | 14.99847 | 54° | 5km/h | 21575m | 5.5m/s | -53.9°C | 4.1% | 0hPa | 2.6V | 00:00:00 | 00:00:00 | 08:30:00 | |
| PG1ADW-2 | 2026-09-02 03:20:45 | 48.28671 | 14.99847 | 48° | 7km/h | 21569m | 5.3m/s | -53.9°C | 4.1% | 0hPa | 2.5V | 00:00:00 | 00:00:00 | 00:00:00 | |
| DO3MHA-12 | 2026-09-02 03:20:44 | 48.28670 | 14.99846 | 97° | 4km/h | 21564m | 4.1m/s | -53.8°C | 4.1% | 0hPa | 2.5V | 00:00:00 | 01:32:01 | 00:00:00 | |
| OE5MMP-10 | 2026-09-02 03:20:43 | 48.28670 | 14.99846 | 105° | 5km/h | 21559m | 6.3m/s | -53.8°C | 4.1% | 0hPa | 2.5V | 00:00:00 | 01:32:00 | 00:00:00 | |
| OE5DXL-15 | 2026-09-02 03:20:42 | 48.28671 | 14.99845 | 133° | 11km/h | 21553m | 5.2m/s | -53.8°C | 4.1% | 0hPa | 2.5V | 00:00:00 | 00:00:00 | 00:00:00 | |
| OE3JTB-15 | 2026-09-02 03:20:39 | 48.28670 | 14.99842 | 46° | 13km/h | 21537m | 4.7m/s | -53.8°C | 4.0% | 0hPa | 2.5V | 00:00:00 | 00:00:00 | 00:00:00 | |
| OM5KV | 2026-09-02 03:20:38 | 48.28670 | 14.99842 | 46° | 5km/h | 21537m | 4.8m/s | -53.8°C | 1.1% | 0hPa | 2.5V | 00:00:00 | 00:00:00 | 00:00:00 | |
| PETON7-10 | 2026-09-02 03:20:35 | 48.28668 | 14.99833 | 83° | 11km/h | 21515m | 6.3m/s | -53.8°C | 4.1% | 0hPa | 2.5V | 00:00:00 | 00:00:00 | 08:30:00 | |
| DO3MHA-12 | 2026-09-02 03:20:34 | 48.28668 | 14.99830 | 69° | 9km/h | 21509m | 5.2m/s | -53.9°C | 4.1% | 0hPa | 2.6V | 00:00:00 | 01:31:51 | 00:00:00 | |
| OE5MMP-10 | 2026-09-02 03:20:33 | 48.28667 | 14.99828 | 63° | 11km/h | 21505m | 3.5m/s | -53.9°C | 4.1% | 0hPa | 2.6V | 00:00:00 | 01:31:50 | 00:00:00 | |
| SONDE2-11 | 2026-09-02 03:20:32 | 48.28667 | 14.99826 | 103° | 7km/h | 21500m | 5.0m/s | -54.0°C | 1.0% | -1.0hPa | 2.6V | 00:00:00 | 00:00:00 | 00:00:00 | |
| OM5KV | 2026-09-02 03:20:31 | 48.28667 | 14.99826 | 104° | 7km/h | 21501m | 5.0m/s | -54.0°C | 1.1% | 0hPa | 2.6V | 00:00:00 | 00:00:00 | 00:00:00 | |
| OE5FHM-15 | 2026-09-02 03:20:30 | 48.28670 | 14.99820 | 138° | 18km/h | 21489m | 4.9m/s | -53.9°C | 4.1% | 0hPa | 2.6V | 00:00:00 | 01:31:47 | 00:00:00 | |
| OE5DRO-10 | 2026-09-02 03:20:28 | 48.28673 | 14.99816 | 145° | 16km/h | 21477m | 4.5m/s | -53.9°C | 4.1% | 0hPa | 2.6V | 00:00:00 | 00:00:00 | 00:00:00 | |
| OE8JPQ-2 | 2026-09-02 03:20:26 | 48.28677 | 14.99810 | 122° | 16km/h | 21466m | 4.3m/s | -53.9°C | 4.1% | 0hPa | 2.6V | 00:00:00 | 00:00:00 | 00:00:00 | |
| PG1ADW-2 | 2026-09-02 03:20:25 | 48.28679 | 14.99805 | 105° | 18km/h | 21462m | 5.5m/s | -53.8°C | 4.1% | 0hPa | 2.6V | 00:00:00 | 01:31:42 | 00:00:00 | |
| DO3MHA-12 | 2026-09-02 03:20:24 | 48.28679 | 14.99800 | 93° | 16km/h | 21456m | 5.1m/s | -53.8°C | 4.1% | 0hPa | 2.6V | 00:00:00 | 01:31:41 | 00:00:00 | |
| OE5MMP-10 | 2026-09-02 03:20:23 | 48.28680 | 14.99795 | 95° | 18km/h | 21451m | 4.8m/s | -53.8°C | 4.1% | 0hPa | 2.6V | 00:00:00 | 01:31:40 | 00:00:00 | |
| DK5PH-5 | 2026-09-02 03:20:21 | 48.28680 | 14.99785 | 99° | 20km/h | 21440m | 4.6m/s | -53.9°C | 4.1% | 0hPa | 2.7V | 00:00:00 | 01:31:38 | 00:00:00 | |
| PETON7-10 | 2026-09-02 03:20:20 | 48.28681 | 14.99779 | 99° | 18km/h | 21434m | 6.4m/s | -53.9°C | 4.1% | 0hPa | 2.7V | 00:00:00 | 00:00:00 | 00:00:00 | |
| OM5KV | 2026-09-02 03:20:18 | 48.28681 | 14.99773 | 83° | 15km/h | 21428m | 5.7m/s | -54.0°C | 1.2% | 0hPa | 2.7V | 00:00:00 | 00:00:00 | 00:00:00 | |
| DF7PN | 2026-09-02 03:20:16 | 48.28683 | 14.99752 | 107° | 20km/h | 21411m | 5.3m/s | 0°C | -1.0% | -1.0hPa | 2.7V | 00:00:00 | 00:00:00 | 00:00:00 | |
| DO3MHA-12 | 2026-09-02 03:20:14 | 48.28687 | 14.99737 | 115° | 20km/h | 21399m | 5.7m/s | -53.9°C | 4.1% | 0hPa | 2.7V | 00:00:00 | 01:31:31 | 00:00:00 | |
| OE5MMP-10 | 2026-09-02 03:20:13 | 48.28689 | 14.99731 | 114° | 20km/h | 21394m | 3.8m/s | -53.8°C | 4.1% | 0hPa | 2.7V | 00:00:00 | 01:31:30 | 00:00:00 | |
| OE5DXL-15 | 2026-09-02 03:20:12 | 48.28691 | 14.99725 | 118° | 22km/h | 21389m | 5.5m/s | -53.8°C | 4.1% | 0hPa | 2.7V | 00:00:00 | 00:00:00 | 00:00:00 | |
| OE3JTB-15 | 2026-09-02 03:20:10 | 48.28695 | 14.99712 | 103° | 24km/h | 21378m | 6.3m/s | -53.8°C | 4.1% | 0hPa | 2.7V | 00:00:00 | 01:31:27 | 00:00:00 | |
| OE5DRO-10 | 2026-09-02 03:20:09 | 48.28695 | 14.99705 | 85° | 22km/h | 21373m | 4.3m/s | -53.9°C | 4.1% | 0hPa | 2.7V | 00:00:00 | 00:00:00 | 00:00:00 | |
| OM5KV | 2026-09-02 03:20:07 | 48.28695 | 14.99698 | 87° | 20km/h | 21368m | 5.4m/s | -53.9°C | 1.2% | 0hPa | 2.7V | 00:00:00 | 00:00:00 | 00:00:00 | |
| OE8JPQ-2 | 2026-09-02 03:20:06 | 48.28695 | 14.99682 | 85° | 24km/h | 21357m | 4.7m/s | -53.8°C | 4.1% | 0hPa | 2.7V | 00:00:00 | 01:31:23 | 00:00:00 | |
| PG1ADW-2 | 2026-09-02 03:20:05 | 48.28694 | 14.99673 | 85° | 24km/h | 21352m | 5.3m/s | -53.8°C | 4.1% | 0hPa | 2.7V | 00:00:00 | 00:00:00 | 08:30:00 | |
| DO3MHA-12 | 2026-09-02 03:20:04 | 48.28693 | 14.99664 | 79° | 20km/h | 21346m | 6.0m/s | -53.7°C | 4.1% | 0hPa | 2.7V | 00:00:00 | 01:31:21 | 08:30:00 | |
| OE5MMP-10 | 2026-09-02 03:20:03 | 48.28692 | 14.99656 | 76° | 20km/h | 21340m | 4.5m/s | -53.7°C | 4.1% | 0hPa | 2.5V | 00:00:00 | 01:31:20 | 00:00:00 | |
| OE3OSB-13 | 2026-09-02 03:19:57 | 48.28687 | 14.99611 | 85° | 16km/h | 21309m | 5.9m/s | -53.7°C | 1.0% | -1.0hPa | 2.5V | 00:00:00 | 00:00:00 | 00:00:00 | |
| EDDB2-12 | 2026-09-02 03:19:50 | 48.28683 | 14.99547 | 73° | 27km/h | 21272m | 6.1m/s | -53.9°C | 1.0% | -1.0hPa | 2.5V | 00:00:00 | 00:00:00 | 00:00:00 | |
| DL6DJ-15 | 2026-09-02 03:19:49 | 48.28677 | 14.99517 | 72° | 26km/h | 21256m | 5.9m/s | -53.9°C | 1.0% | -1.0hPa | 2.5V | 00:00:00 | 00:00:00 | 00:00:00 | |
| OM5KV | 2026-09-02 03:19:47 | 48.28679 | 14.99527 | 75° | 26km/h | 21262m | 6.0m/s | -53.9°C | 1.1% | 0hPa | 2.5V | 00:00:00 | 00:00:00 | 00:00:00 | |
| OE8JPQ-2 | 2026-09-02 03:19:46 | 48.28675 | 14.99508 | 75° | 22km/h | 21251m | 4.1m/s | -53.8°C | 4.1% | 0hPa | 2.5V | 00:00:00 | 00:00:00 | 00:00:00 | |
| PG1ADW-2 | 2026-09-02 03:19:45 | 48.28673 | 14.99499 | 71° | 22km/h | 21245m | 7.4m/s | -53.8°C | 4.0% | 0hPa | 2.6V | 00:00:00 | 00:00:00 | 00:00:00 | |
| DO3MHA-12 | 2026-09-02 03:19:44 | 48.28671 | 14.99491 | 61° | 22km/h | 21239m | 4.9m/s | -53.8°C | 4.0% | 0hPa | 2.6V | 00:00:00 | 01:31:01 | 00:00:00 | |
| OE5MMP-10 | 2026-09-02 03:19:43 | 48.28668 | 14.99483 | 73° | 24km/h | 21234m | 5.4m/s | -53.8°C | 4.0% | 0hPa | 2.6V | 00:00:00 | 01:31:00 | 00:00:00 | |
| OE5WHR-10 | 2026-09-02 03:19:42 | 48.28667 | 14.99475 | 80° | 20km/h | 21228m | 6.0m/s | -53.8°C | 4.0% | 0hPa | 2.6V | 00:00:00 | 01:30:59 | 00:00:00 | |
| OE3JTB-15 | 2026-09-02 03:19:41 | 48.28666 | 14.99467 | 78° | 18km/h | 21222m | 4.6m/s | -53.9°C | 4.1% | 0hPa | 2.6V | 00:00:00 | 00:00:00 | 08:30:00 | |
| OM5KV | 2026-09-02 03:19:38 | 48.28664 | 14.99453 | 79° | 20km/h | 21211m | 5.5m/s | -54.1°C | 1.1% | 0hPa | 2.6V | 00:00:00 | 00:00:00 | 00:00:00 | |
| PETON7-10 | 2026-09-02 03:19:35 | 48.28654 | 14.99420 | 51° | 20km/h | 21191m | 5.8m/s | -54.1°C | 4.1% | 0hPa | 2.6V | 00:00:00 | 00:00:00 | 00:00:00 | |
| DO3MHA-12 | 2026-09-02 03:19:34 | 48.28649 | 14.99412 | 40° | 20km/h | 21185m | 5.6m/s | -54.1°C | 4.1% | 0hPa | 2.6V | 00:00:00 | 01:30:51 | 00:00:00 | |
| OE5MMP-10 | 2026-09-02 03:19:33 | 48.28644 | 14.99406 | 42° | 18km/h | 21179m | 5.4m/s | -54.1°C | 4.1% | 0hPa | 2.7V | 00:00:00 | 01:30:50 | 00:00:00 | |
| OM5KV | 2026-09-02 03:19:32 | 48.28644 | 14.99406 | 43° | 26km/h | 21179m | 5.4m/s | -54.1°C | 1.1% | 0hPa | 2.7V | 00:00:00 | 00:00:00 | 00:00:00 | |
| OE5DRO-10 | 2026-09-02 03:19:31 | 48.28635 | 14.99393 | 47° | 15km/h | 21168m | 3.8m/s | -54.1°C | 4.2% | 0hPa | 2.7V | 00:00:00 | 00:00:00 | 08:30:00 | |
| OE5FHM-15 | 2026-09-02 03:19:30 | 48.28632 | 14.99387 | 49° | 13km/h | 21163m | 6.7m/s | -54.0°C | 4.1% | 0hPa | 2.6V | 00:00:00 | 01:30:47 | 00:00:00 | |
| OM5KV | 2026-09-02 03:19:29 | 48.28632 | 14.99387 | 50° | 18km/h | 21163m | 6.7m/s | -54.1°C | 1.1% | 0hPa | 2.6V | 00:00:00 | 00:00:00 | 00:00:00 | |
| OE8JPQ-2 | 2026-09-02 03:19:26 | 48.28624 | 14.99366 | 73° | 13km/h | 21140m | 4.9m/s | -54.0°C | 4.1% | 0hPa | 2.6V | 00:00:00 | 00:00:00 | 00:00:00 | |
| PG1ADW-2 | 2026-09-02 03:19:25 | 48.28622 | 14.99361 | 61° | 13km/h | 21134m | 6.0m/s | -54.0°C | 4.1% | 0hPa | 2.6V | 00:00:00 | 00:00:00 | 00:00:00 | |
| DO3MHA-12 | 2026-09-02 03:19:24 | 48.28621 | 14.99356 | 70° | 15km/h | 21129m | 3.8m/s | -54.0°C | 4.2% | 0hPa | 2.6V | 00:00:00 | 01:30:41 | 00:00:00 | |
| OE5MMP-10 | 2026-09-02 03:19:23 | 48.28619 | 14.99349 | 75° | 13km/h | 21124m | 6.9m/s | -53.9°C | 4.1% | 0hPa | 2.6V | 00:00:00 | 01:30:40 | 00:00:00 | |
| DK5PH-5 | 2026-09-02 03:19:21 | 48.28617 | 14.99336 | 75° | 13km/h | 21112m | 6.2m/s | -53.9°C | 4.1% | 0hPa | 2.7V | 00:00:00 | 01:30:38 | 00:00:00 | |
| PETON7-10 | 2026-09-02 03:19:20 | 48.28616 | 14.99331 | 77° | 11km/h | 21106m | 5.2m/s | -53.8°C | 4.0% | 0hPa | 2.7V | 00:00:00 | 01:30:37 | 00:00:00 | |
| EDDB2-12 | 2026-09-02 03:19:19 | 48.28615 | 14.99326 | 67° | 13km/h | 21100m | 6.4m/s | -53.9°C | 1.0% | -1.0hPa | 2.7V | 00:00:00 | 00:00:00 | 00:00:00 | |
| DL6DJ-15 | 2026-09-02 03:19:18 | 48.28613 | 14.99320 | 77° | 16km/h | 21094m | 5.0m/s | -53.9°C | 1.0% | -1.0hPa | 2.7V | 00:00:00 | 00:00:00 | 00:00:00 | |
| OM5KV | 2026-09-02 03:19:17 | 48.28613 | 14.99320 | 78° | 16km/h | 21094m | 5.0m/s | -53.9°C | 1.1% | 0hPa | 2.7V | 00:00:00 | 00:00:00 | 00:00:00 | |
| DO3MHA-12 | 2026-09-02 03:19:14 | 48.28610 | 14.99307 | 40° | 9km/h | 21071m | 6.0m/s | -53.8°C | 4.0% | 0hPa | 2.7V | 00:00:00 | 01:30:31 | 00:00:00 | |
| OE5MMP-10 | 2026-09-02 03:19:13 | 48.28608 | 14.99306 | 36° | 9km/h | 21065m | 5.3m/s | -53.7°C | 4.0% | 0hPa | 2.7V | 00:00:00 | 01:30:30 | 00:00:00 | |
| OE5DXL-15 | 2026-09-02 03:19:12 | 48.28606 | 14.99303 | 43° | 15km/h | 21061m | 3.7m/s | -53.7°C | 4.1% | 0hPa | 2.7V | 00:00:00 | 00:00:00 | 00:00:00 | |
| OM5KV | 2026-09-02 03:19:09 | 48.28604 | 14.99300 | 53° | 5km/h | 21050m | 4.6m/s | -53.7°C | 1.1% | 0hPa | 2.7V | 00:00:00 | 00:00:00 | 00:00:00 | |
| OE8JPQ-2 | 2026-09-02 03:19:06 | 48.28601 | 14.99285 | 72° | 15km/h | 21029m | 5.0m/s | -53.6°C | 3.9% | 0hPa | 2.7V | 00:00:00 | 01:30:23 | 00:00:00 | |
| PETON7-10 | 2026-09-02 03:19:05 | 48.28599 | 14.99280 | 76° | 15km/h | 21024m | 5.6m/s | -53.5°C | 3.9% | 0hPa | 2.7V | 00:00:00 | 00:00:00 | 00:00:00 | |
| DO3MHA-12 | 2026-09-02 03:19:04 | 48.28599 | 14.99276 | 91° | 13km/h | 21018m | 5.2m/s | -53.5°C | 3.9% | 0hPa | 2.7V | 00:00:00 | 01:30:21 | 00:00:00 | |
| OE5MMP-10 | 2026-09-02 03:19:03 | 48.28599 | 14.99273 | 81° | 15km/h | 21013m | 6.1m/s | -53.5°C | 3.9% | 0hPa | 2.6V | 00:00:00 | 01:30:20 | 00:00:00 | |
| SONDE2-11 | 2026-09-02 03:18:59 | 48.28601 | 14.99253 | 108° | 13km/h | 20985m | 6.1m/s | -53.7°C | 1.0% | -1.0hPa | 2.6V | 00:00:00 | 00:00:00 | 00:00:00 | |
| OE3OSB-13 | 2026-09-02 03:18:55 | 48.28609 | 14.99229 | 124° | 18km/h | 20962m | 4.6m/s | -54.0°C | 1.0% | -1.0hPa | 2.6V | 00:00:00 | 00:00:00 | 00:00:00 | |
| EDDB2-12 | 2026-09-02 03:18:48 | 48.28618 | 14.99190 | 109° | 18km/h | 20931m | 5.1m/s | -54.2°C | 1.0% | -1.0hPa | 2.6V | 00:00:00 | 00:00:00 | 00:00:00 | |
| DL6DJ-15 | 2026-09-02 03:18:47 | 48.28619 | 14.99183 | 104° | 20km/h | 20925m | 5.5m/s | -54.3°C | 1.0% | -1.0hPa | 2.6V | 00:00:00 | 00:00:00 | 00:00:00 | |
| OE8JPQ-2 | 2026-09-02 03:18:46 | 48.28621 | 14.99176 | 109° | 13km/h | 20921m | 4.3m/s | -54.2°C | 4.2% | 0hPa | 2.6V | 00:00:00 | 00:00:00 | 00:00:00 | |
| PG1ADW-2 | 2026-09-02 03:18:45 | 48.28622 | 14.99170 | 119° | 13km/h | 20915m | 6.0m/s | -54.2°C | 4.2% | 0hPa | 2.6V | 00:00:00 | 00:00:00 | 00:00:00 | |
| DO3MHA-12 | 2026-09-02 03:18:44 | 48.28624 | 14.99165 | 124° | 15km/h | 20910m | 5.3m/s | -54.2°C | 4.2% | 0hPa | 2.6V | 00:00:00 | 01:30:01 | 00:00:00 | |
| OE5MMP-10 | 2026-09-02 03:18:43 | 48.28626 | 14.99160 | 124° | 15km/h | 20904m | 5.9m/s | -54.1°C | 4.2% | 0hPa | 2.6V | 00:00:00 | 01:30:00 | 00:00:00 | |
| OE5DXL-15 | 2026-09-02 03:18:42 | 48.28628 | 14.99156 | 110° | 11km/h | 20898m | 5.3m/s | -54.1°C | 4.1% | 0hPa | 2.6V | 00:00:00 | 00:00:00 | 00:00:00 | |
| OE5WHR-10 | 2026-09-02 03:18:39 | 48.28630 | 14.99141 | 101° | 11km/h | 20881m | 4.7m/s | -54.0°C | 4.1% | 0hPa | 2.6V | 00:00:00 | 01:29:56 | 00:00:00 | |
| PETON7-10 | 2026-09-02 03:18:35 | 48.28630 | 14.99119 | 89° | 11km/h | 20860m | 6.5m/s | -53.9°C | 4.1% | 0hPa | 2.6V | 00:00:00 | 01:29:52 | 00:00:00 | |
| DO3MHA-12 | 2026-09-02 03:18:34 | 48.28631 | 14.99114 | 113° | 11km/h | 20854m | 4.2m/s | -53.9°C | 4.1% | 0hPa | 2.6V | 00:00:00 | 01:29:51 | 08:30:00 | |
| OE5MMP-10 | 2026-09-02 03:18:33 | 48.28632 | 14.99110 | 120° | 11km/h | 20850m | 4.0m/s | -53.9°C | 4.1% | 0hPa | 2.6V | 00:00:00 | 01:29:50 | 00:00:00 | |
| OE5FHM-15 | 2026-09-02 03:18:30 | 48.28638 | 14.99098 | 125° | 7km/h | 20833m | 6.1m/s | -54.1°C | 4.1% | 0hPa | 2.6V | 00:00:00 | 01:29:47 | 08:30:00 | |
| OM5KV | 2026-09-02 03:18:27 | 48.28641 | 14.99091 | 123° | 11km/h | 20822m | 4.9m/s | -54.1°C | 1.2% | 0hPa | 2.6V | 00:00:00 | 00:00:00 | 00:00:00 | |
| OE8JPQ-2 | 2026-09-02 03:18:26 | 48.28643 | 14.99084 | 98° | 7km/h | 20811m | 4.8m/s | -54.1°C | 4.1% | 0hPa | 2.6V | 00:00:00 | 00:00:00 | 00:00:00 | |
| PG1ADW-2 | 2026-09-02 03:18:25 | 48.28643 | 14.99080 | 90° | 7km/h | 20805m | 6.2m/s | -54.1°C | 4.1% | 0hPa | 2.6V | 00:00:00 | 00:00:00 | 00:00:00 | |
| DO3MHA-12 | 2026-09-02 03:18:24 | 48.28643 | 14.99076 | 92° | 7km/h | 20799m | 5.1m/s | -54.1°C | 4.2% | 0hPa | 2.6V | 00:00:00 | 01:29:41 | 00:00:00 | |
| OE5MMP-10 | 2026-09-02 03:18:23 | 48.28643 | 14.99072 | 90° | 7km/h | 20793m | 5.7m/s | -54.1°C | 4.2% | 0hPa | 2.6V | 00:00:00 | 01:29:40 | 08:30:00 | |
| DK5PH-5 | 2026-09-02 03:18:21 | 48.28642 | 14.99063 | 77° | 7km/h | 20783m | 4.6m/s | -54.1°C | 4.1% | 0hPa | 2.7V | 00:00:00 | 01:29:38 | 00:00:00 | |
| PETON7-10 | 2026-09-02 03:18:20 | 48.28642 | 14.99060 | 65° | 7km/h | 20777m | 6.2m/s | -54.1°C | 4.2% | 0hPa | 2.7V | 00:00:00 | 00:00:00 | 08:30:00 | |
| OE5WHR-10 | 2026-09-02 03:18:18 | 48.28640 | 14.99057 | 56° | 5km/h | 20766m | 4.7m/s | -54.1°C | 4.2% | 0hPa | 2.6V | 00:00:00 | 00:00:00 | 08:30:00 | |
| EDDB2-12 | 2026-09-02 03:18:17 | 48.28639 | 14.99055 | 80° | 7km/h | 20761m | 5.5m/s | -54.1°C | 1.1% | -1.0hPa | 2.6V | 00:00:00 | 00:00:00 | 00:00:00 | |
| DL6DJ-15 | 2026-09-02 03:18:16 | 48.28639 | 14.99052 | 73° | 5km/h | 20756m | 4.6m/s | -54.0°C | 1.0% | -1.0hPa | 2.6V | 00:00:00 | 00:00:00 | 00:00:00 | |
| OE5DRO-10 | 2026-09-02 03:18:15 | 48.28639 | 14.99051 | 85° | 5km/h | 20750m | 6.8m/s | -54.0°C | 4.1% | 0hPa | 2.6V | 00:00:00 | 00:00:00 | 00:00:00 | |
| DO3MHA-12 | 2026-09-02 03:18:14 | 48.28638 | 14.99050 | 15° | 7km/h | 20744m | 4.6m/s | -53.9°C | 4.1% | 0hPa | 2.6V | 00:00:00 | 01:29:31 | 00:00:00 | |
| OE5MMP-10 | 2026-09-02 03:18:13 | 48.28638 | 14.99049 | 23° | 7km/h | 20740m | 3.9m/s | -53.9°C | 4.1% | 0hPa | 2.6V | 00:00:00 | 01:29:30 | 00:00:00 | |
| OE5DXL-15 | 2026-09-02 03:18:12 | 48.28636 | 14.99048 | 52° | 7km/h | 20735m | 6.5m/s | -53.9°C | 4.1% | 0hPa | 2.6V | 00:00:00 | 00:00:00 | 00:00:00 | |
| OM5KV | 2026-09-02 03:18:09 | 48.28633 | 14.99042 | 53° | 9km/h | 20724m | 5.9m/s | -53.8°C | 1.1% | 0hPa | 2.6V | 00:00:00 | 00:00:00 | 00:00:00 | |
| OE8JPQ-2 | 2026-09-02 03:18:06 | 48.28630 | 14.99032 | 80° | 7km/h | 20701m | 6.4m/s | -53.7°C | 4.0% | 0hPa | 2.6V | 00:00:00 | 01:29:23 | 00:00:00 | |
| PETON7-10 | 2026-09-02 03:18:05 | 48.28629 | 14.99030 | 60° | 5km/h | 20695m | 5.5m/s | -53.6°C | 4.0% | 0hPa | 2.6V | 00:00:00 | 00:00:00 | 00:00:00 | |
| DO3MHA-12 | 2026-09-02 03:18:04 | 48.28629 | 14.99029 | 36° | 5km/h | 20690m | 6.0m/s | -53.6°C | 4.1% | 0hPa | 2.6V | 00:00:00 | 01:29:21 | 00:00:00 | |
| OE5MMP-10 | 2026-09-02 03:18:03 | 48.28629 | 14.99028 | 83° | 5km/h | 20684m | 4.6m/s | -53.6°C | 4.0% | 0hPa | 2.7V | 00:00:00 | 01:29:20 | 00:00:00 | |
| OE5FHM-15 | 2026-09-02 03:18:00 | 48.28627 | 14.99024 | 40° | 9km/h | 20666m | 5.4m/s | -53.6°C | 4.0% | 0hPa | 2.7V | 00:00:00 | 01:29:17 | 00:00:00 | |
| OE5WHR-10 | 2026-09-02 03:17:57 | 48.28625 | 14.99018 | 77° | 11km/h | 20649m | 6.8m/s | -53.6°C | 4.0% | 0hPa | 2.7V | 00:00:00 | 00:00:00 | 00:00:00 | |
| OE5DRO-10 | 2026-09-02 03:17:56 | 48.28625 | 14.99015 | 93° | 11km/h | 20643m | 5.1m/s | -53.6°C | 4.1% | 0hPa | 2.7V | 00:00:00 | 00:00:00 | 00:00:00 | |
| DO3MHA-12 | 2026-09-02 03:17:53 | 48.28626 | 14.99006 | 105° | 11km/h | 20627m | 3.8m/s | -53.6°C | 4.1% | 0hPa | 2.7V | 00:00:00 | 01:29:10 | 00:00:00 | |
| OK1ALN | 2026-09-02 03:17:52 | 48.28626 | 14.99006 | 106° | 7km/h | 20627m | 3.8m/s | -53.6°C | 1.1% | 0hPa | 2.7V | 00:00:00 | 00:00:00 | 00:00:00 | |
| DK5PH-5 | 2026-09-02 03:17:51 | 48.28627 | 14.99000 | 97° | 11km/h | 20616m | 6.3m/s | -53.6°C | 4.1% | 0hPa | 2.7V | 00:00:00 | 01:29:08 | 00:00:00 | |
| PETON7-10 | 2026-09-02 03:17:50 | 48.28627 | 14.98995 | 96° | 11km/h | 20610m | 5.4m/s | -53.6°C | 4.1% | 0hPa | 2.7V | 00:00:00 | 01:29:07 | 00:00:00 | |
| OE8JPQ-2 | 2026-09-02 03:17:46 | 48.28627 | 14.98980 | 92° | 11km/h | 20588m | 6.4m/s | -53.4°C | 4.0% | 0hPa | 2.7V | 00:00:00 | 00:00:00 | 08:30:00 | |
| PG1ADW-2 | 2026-09-02 03:17:45 | 48.28627 | 14.98975 | 94° | 11km/h | 20582m | 5.4m/s | -53.4°C | 4.1% | 0hPa | 2.6V | 00:00:00 | 01:29:02 | 00:00:00 | |
| DO3MHA-12 | 2026-09-02 03:17:43 | 48.28628 | 14.98968 | 97° | 11km/h | 20570m | 4.8m/s | -53.4°C | 4.1% | 0hPa | 2.6V | 00:00:00 | 01:29:00 | 00:00:00 | |
| OE5DXL-15 | 2026-09-02 03:17:42 | 48.28628 | 14.98966 | 103° | 13km/h | 20565m | 4.2m/s | -53.4°C | 4.0% | 0hPa | 2.6V | 00:00:00 | 00:00:00 | 00:00:00 | |
| OM5KV | 2026-09-02 03:17:40 | 48.28629 | 14.98963 | 112° | 11km/h | 20560m | 6.4m/s | -53.5°C | 1.1% | 0hPa | 2.6V | 00:00:00 | 00:00:00 | 00:00:00 | |
| OE5DRO-10 | 2026-09-02 03:17:37 | 48.28636 | 14.98946 | 144° | 13km/h | 20536m | 4.4m/s | -53.3°C | 4.0% | 0hPa | 2.6V | 00:00:00 | 00:00:00 | 00:00:00 | |
| OE5WHR-10 | 2026-09-02 03:17:36 | 48.28639 | 14.98944 | 144° | 15km/h | 20531m | 4.6m/s | -53.3°C | 4.0% | 0hPa | 2.7V | 00:00:00 | 01:28:53 | 00:00:00 | |
| PETON7-10 | 2026-09-02 03:17:35 | 48.28641 | 14.98941 | 128° | 13km/h | 20526m | 6.4m/s | -53.3°C | 4.0% | 0hPa | 2.7V | 00:00:00 | 00:00:00 | 00:00:00 | |
| OM5KV | 2026-09-02 03:17:34 | 48.28641 | 14.98941 | 128° | 13km/h | 20526m | 6.4m/s | -53.3°C | 1.1% | 0hPa | 2.6V | 00:00:00 | 00:00:00 | 00:00:00 | |
| DO3MHA-12 | 2026-09-02 03:17:33 | 48.28644 | 14.98933 | 127° | 11km/h | 20514m | 6.6m/s | -53.3°C | 4.0% | 0hPa | 2.6V | 00:00:00 | 01:28:50 | 00:00:00 | |
| OM5KV | 2026-09-02 03:17:28 | 48.28648 | 14.98919 | 110° | 15km/h | 20491m | 3.7m/s | -53.3°C | 1.1% | 0hPa | 2.6V | 00:00:00 | 00:00:00 | 00:00:00 | |
| OK1ALN | 2026-09-02 03:17:27 | 48.28649 | 14.98914 | 120° | 13km/h | 20486m | 6.0m/s | -53.3°C | 1.1% | 0hPa | 2.6V | 00:00:00 | 00:00:00 | 00:00:00 | |
| OE8JPQ-2 | 2026-09-02 03:17:26 | 48.28654 | 14.98907 | 145° | 15km/h | 20474m | 5.2m/s | -53.3°C | 4.0% | 0hPa | 2.6V | 00:00:00 | 00:00:00 | 00:00:00 | |
| PG1ADW-2 | 2026-09-02 03:17:25 | 48.28656 | 14.98904 | 128° | 15km/h | 20469m | 6.0m/s | -53.3°C | 3.9% | 0hPa | 2.6V | 00:00:00 | 00:00:00 | 00:00:00 | |
| DO3MHA-12 | 2026-09-02 03:17:23 | 48.28660 | 14.98896 | 125° | 16km/h | 20458m | 6.1m/s | -53.2°C | 3.9% | 0hPa | 2.6V | 00:00:00 | 01:28:40 | 00:00:00 | |
| OE3OSB-13 | 2026-09-02 03:17:22 | 48.28664 | 14.98887 | 118° | 16km/h | 20446m | 6.4m/s | -53.2°C | 1.0% | -1.0hPa | 2.6V | 00:00:00 | 00:00:00 | 00:00:00 | |
| DK5PH-5 | 2026-09-02 03:17:21 | 48.28664 | 14.98886 | 119° | 20km/h | 20447m | 6.3m/s | -53.1°C | 3.9% | 0hPa | 2.6V | 00:00:00 | 01:28:38 | 08:30:00 | |
| PETON7-10 | 2026-09-02 03:17:20 | 48.28666 | 14.98880 | 115° | 15km/h | 20440m | 5.3m/s | -53.1°C | 4.0% | 0hPa | 2.6V | 00:00:00 | 00:00:00 | 00:00:00 | |
| OE5DRO-10 | 2026-09-02 03:17:18 | 48.28671 | 14.98867 | 128° | 18km/h | 20430m | 6.2m/s | -53.0°C | 3.9% | 0hPa | 2.6V | 00:00:00 | 00:00:00 | 00:00:00 | |
| OE3JTB-15 | 2026-09-02 03:17:16 | 48.28677 | 14.98858 | 133° | 22km/h | 20419m | 4.5m/s | -53.0°C | 3.9% | 0hPa | 2.6V | 00:00:00 | 01:28:33 | 00:00:00 | |
| OE5WHR-10 | 2026-09-02 03:17:15 | 48.28680 | 14.98854 | 128° | 20km/h | 20414m | 5.8m/s | -53.0°C | 3.9% | 0hPa | 2.6V | 00:00:00 | 00:00:00 | 00:00:00 | |
| DL6DJ-15 | 2026-09-02 03:17:14 | 48.28682 | 14.98849 | 123° | 16km/h | 20408m | 4.1m/s | -53.0°C | 1.0% | -1.0hPa | 2.6V | 00:00:00 | 00:00:00 | 00:00:00 | |
| DO3MHA-12 | 2026-09-02 03:17:13 | 48.28684 | 14.98844 | 132° | 16km/h | 20404m | 4.7m/s | -53.0°C | 3.9% | 0hPa | 2.6V | 00:00:00 | 01:28:30 | 00:00:00 | |
| OE5DXL-15 | 2026-09-02 03:17:12 | 48.28687 | 14.98841 | 149° | 24km/h | 20399m | 6.5m/s | -53.1°C | 3.9% | 0hPa | 2.6V | 00:00:00 | 00:00:00 | 00:00:00 | |
| OE8JPQ-2 | 2026-09-02 03:17:06 | 48.28702 | 14.98821 | 128° | 27km/h | 20365m | 5.2m/s | -53.2°C | 3.9% | 0hPa | 2.6V | 00:00:00 | 01:28:23 | 00:00:00 | |
| PETON7-10 | 2026-09-02 03:17:05 | 48.28705 | 14.98815 | 120° | 26km/h | 20359m | 4.7m/s | -53.3°C | 3.9% | 0hPa | 2.6V | 00:00:00 | 01:28:22 | 00:00:00 | |
| DO3MHA-12 | 2026-09-02 03:17:03 | 48.28711 | 14.98797 | 116° | 26km/h | 20347m | 5.3m/s | -53.3°C | 3.9% | 0hPa | 2.6V | 00:00:00 | 01:28:20 | 08:30:00 | |
| SONDE2-11 | 2026-09-02 03:16:55 | 48.28733 | 14.98719 | 112° | 27km/h | 20297m | 3.9m/s | -53.4°C | 1.0% | -1.0hPa | 2.7V | 00:00:00 | 00:00:00 | 00:00:00 | |
| OE3OSB-13 | 2026-09-02 03:16:51 | 48.28749 | 14.98681 | 126° | 29km/h | 20277m | 4.8m/s | -53.5°C | 1.0% | -1.0hPa | 2.7V | 00:00:00 | 00:00:00 | 00:00:00 | |
| PETON7-10 | 2026-09-02 03:16:50 | 48.28749 | 14.98681 | 127° | 29km/h | 20277m | 4.7m/s | -53.5°C | 3.9% | 0hPa | 2.7V | 00:00:00 | 00:00:00 | 00:00:00 | |
| OE3JTB-15 | 2026-09-02 03:16:47 | 48.28762 | 14.98651 | 125° | 20km/h | 20260m | 7.2m/s | -53.5°C | 3.9% | 0hPa | 2.6V | 00:00:00 | 00:00:00 | 00:00:00 | |
| OE8JPQ-2 | 2026-09-02 03:16:46 | 48.28766 | 14.98642 | 126° | 22km/h | 20254m | 4.8m/s | -53.5°C | 3.9% | 0hPa | 2.7V | 00:00:00 | 00:00:00 | 00:00:00 | |
| PG1ADW-2 | 2026-09-02 03:16:45 | 48.28770 | 14.98633 | 119° | 22km/h | 20249m | 4.3m/s | -53.5°C | 3.9% | 0hPa | 2.6V | 00:00:00 | 00:00:00 | 00:00:00 | |
| OE5MMP-10 | 2026-09-02 03:16:43 | 48.28775 | 14.98614 | 115° | 26km/h | 20239m | 3.9m/s | -53.5°C | 3.8% | 0hPa | 2.6V | 00:00:00 | 01:28:00 | 00:00:00 | |
| OE5DXL-15 | 2026-09-02 03:16:42 | 48.28779 | 14.98604 | 119° | 16km/h | 20234m | 6.1m/s | -53.6°C | 3.8% | 0hPa | 2.6V | 00:00:00 | 00:00:00 | 08:30:00 | |
| OE5DRO-10 | 2026-09-02 03:16:40 | 48.28788 | 14.98583 | 119° | 18km/h | 20224m | 5.5m/s | -53.9°C | 3.9% | 0hPa | 2.7V | 00:00:00 | 00:00:00 | 08:30:00 | |
| OE5REO-15 | 2026-09-02 03:16:37 | 48.28795 | 14.98564 | 124° | 27km/h | 20213m | 5.7m/s | -54.5°C | 1.3% | 0hPa | 2.6V | 00:00:00 | 00:00:00 | 00:00:00 | |
| PETON7-10 | 2026-09-02 03:16:35 | 48.28805 | 14.98547 | 124° | 15km/h | 20196m | 6.1m/s | -54.6°C | 4.2% | 0hPa | 2.6V | 00:00:00 | 00:00:00 | 00:00:00 | |
| DO3MHA-12 | 2026-09-02 03:16:33 | 48.28808 | 14.98540 | 136° | 16km/h | 20184m | 7.0m/s | -54.5°C | 4.2% | 0hPa | 2.6V | 00:00:00 | 01:27:50 | 00:00:00 | |
| OE5FHM-15 | 2026-09-02 03:16:30 | 48.28811 | 14.98529 | 91° | 13km/h | 20168m | 6.0m/s | -54.4°C | 4.1% | 0hPa | 2.7V | 00:00:00 | 01:27:47 | 00:00:00 | |
| OE8JPQ-2 | 2026-09-02 03:16:26 | 48.28813 | 14.98500 | 95° | 11km/h | 20146m | 5.2m/s | -54.4°C | 4.1% | 0hPa | 2.7V | 00:00:00 | 00:00:00 | 00:00:00 | |
| PG1ADW-2 | 2026-09-02 03:16:25 | 48.28813 | 14.98492 | 98° | 11km/h | 20141m | 5.4m/s | -54.4°C | 4.1% | 0hPa | 2.7V | 00:00:00 | 01:27:42 | 00:00:00 | |
| SONDE2-11 | 2026-09-02 03:16:24 | 48.28816 | 14.98480 | 118° | 13km/h | 20129m | 4.2m/s | -54.6°C | 1.1% | -1.0hPa | 2.7V | 00:00:00 | 00:00:00 | 00:00:00 | |
| DO3MHA-12 | 2026-09-02 03:16:23 | 48.28816 | 14.98480 | 119° | 9km/h | 20129m | 4.1m/s | -54.6°C | 4.2% | 0hPa | 2.7V | 00:00:00 | 01:27:40 | 00:00:00 | |
| DK5PH-5 | 2026-09-02 03:16:21 | 48.28819 | 14.98473 | 106° | 11km/h | 20119m | 5.7m/s | -54.6°C | 4.2% | 0hPa | 2.7V | 00:00:00 | 01:27:38 | 00:00:00 | |
| PETON7-10 | 2026-09-02 03:16:20 | 48.28819 | 14.98471 | 105° | 9km/h | 20114m | 5.3m/s | -54.6°C | 4.2% | 0hPa | 2.7V | 00:00:00 | 01:27:37 | 00:00:00 | |
| OE3OSB-13 | 2026-09-02 03:16:19 | 48.28819 | 14.98469 | 70° | 2km/h | 20108m | 6.0m/s | -54.7°C | 1.1% | -1.0hPa | 2.7V | 00:00:00 | 00:00:00 | 00:00:00 | |
| OE3JTB-15 | 2026-09-02 03:16:18 | 48.28819 | 14.98468 | 115° | 11km/h | 20102m | 5.3m/s | -54.7°C | 4.2% | 0hPa | 2.7V | 00:00:00 | 00:00:00 | 00:00:00 | |
| DO3MHA-12 | 2026-09-02 03:16:13 | 48.28820 | 14.98451 | 112° | 11km/h | 20076m | 4.7m/s | -54.7°C | 4.3% | 0hPa | 2.7V | 00:00:00 | 01:27:30 | 00:00:00 | |
| OE5DXL-15 | 2026-09-02 03:16:12 | 48.28821 | 14.98446 | 119° | 15km/h | 20071m | 4.4m/s | -54.7°C | 4.2% | 0hPa | 2.7V | 00:00:00 | 00:00:00 | 00:00:00 | |
| OE8JPQ-2 | 2026-09-02 03:16:06 | 48.28825 | 14.98421 | 108° | 13km/h | 20038m | 5.0m/s | -54.6°C | 4.2% | 0hPa | 2.7V | 00:00:00 | 01:27:23 | 00:00:00 | |
| PETON7-10 | 2026-09-02 03:16:05 | 48.28826 | 14.98417 | 100° | 13km/h | 20033m | 5.6m/s | -54.6°C | 4.3% | 0hPa | 2.7V | 00:00:00 | 00:00:00 | 08:30:00 | |
| DO3MHA-12 | 2026-09-02 03:16:03 | 48.28827 | 14.98410 | 101° | 11km/h | 20022m | 6.0m/s | -54.7°C | 4.3% | 0hPa | 2.6V | 00:00:00 | 01:27:20 | 00:00:00 | |
| SONDE2-11 | 2026-09-02 03:15:53 | 48.28833 | 14.98363 | 105° | 15km/h | 19962m | 4.3m/s | -54.4°C | 1.0% | -1.0hPa | 2.6V | 00:00:00 | 00:00:00 | 00:00:00 | |
| OE3OSB-13 | 2026-09-02 03:15:48 | 48.28838 | 14.98336 | 105° | 16km/h | 19939m | 5.0m/s | -54.4°C | 1.1% | -1.0hPa | 2.6V | 00:00:00 | 00:00:00 | 00:00:00 | |
| OE8JPQ-2 | 2026-09-02 03:15:46 | 48.28840 | 14.98322 | 92° | 22km/h | 19928m | 5.9m/s | -54.3°C | 4.2% | 0hPa | 2.6V | 00:00:00 | 00:00:00 | 00:00:00 | |
| PG1ADW-2 | 2026-09-02 03:15:45 | 48.28840 | 14.98314 | 93° | 22km/h | 19923m | 4.9m/s | -54.3°C | 4.1% | 0hPa | 2.7V | 00:00:00 | 00:00:00 | 00:00:00 | |
| DO3MHA-12 | 2026-09-02 03:15:43 | 48.28840 | 14.98300 | 87° | 22km/h | 19912m | 4.2m/s | -54.3°C | 4.1% | 0hPa | 2.7V | 00:00:00 | 01:27:00 | 00:00:00 | |
| OE5DXL-15 | 2026-09-02 03:15:42 | 48.28840 | 14.98293 | 78° | 22km/h | 19906m | 6.5m/s | -54.3°C | 4.1% | 0hPa | 2.7V | 00:00:00 | 00:00:00 | 00:00:00 | |
| PETON7-10 | 2026-09-02 03:15:35 | 48.28834 | 14.98236 | 89° | 24km/h | 19867m | 6.3m/s | -54.4°C | 4.1% | 0hPa | 2.7V | 00:00:00 | 01:26:52 | 00:00:00 | |
| DO3MHA-12 | 2026-09-02 03:15:33 | 48.28836 | 14.98217 | 103° | 24km/h | 19856m | 5.3m/s | -54.4°C | 4.0% | 0hPa | 2.7V | 00:00:00 | 01:26:50 | 08:30:00 | |
| OE5FHM-15 | 2026-09-02 03:15:30 | 48.28840 | 14.98190 | 96° | 18km/h | 19839m | 4.9m/s | -54.6°C | 4.1% | 0hPa | 2.6V | 00:00:00 | 01:26:47 | 00:00:00 | |
| OE8JPQ-2 | 2026-09-02 03:15:26 | 48.28841 | 14.98154 | 85° | 18km/h | 19819m | 5.8m/s | -54.6°C | 4.1% | 0hPa | 2.6V | 00:00:00 | 00:00:00 | 00:00:00 | |
| PG1ADW-2 | 2026-09-02 03:15:25 | 48.28840 | 14.98145 | 80° | 18km/h | 19813m | 4.4m/s | -54.5°C | 4.2% | 0hPa | 2.6V | 00:00:00 | 00:00:00 | 00:00:00 | |
| OE5DRO-10 | 2026-09-02 03:15:24 | 48.28839 | 14.98136 | 78° | 18km/h | 19808m | 5.9m/s | -54.5°C | 4.1% | 0hPa | 2.6V | 00:00:00 | 00:00:00 | 00:00:00 | |
| DO3MHA-12 | 2026-09-02 03:15:23 | 48.28838 | 14.98129 | 89° | 18km/h | 19803m | 5.0m/s | -54.4°C | 4.1% | 0hPa | 2.6V | 00:00:00 | 01:26:40 | 00:00:00 | |
| SONDE2-11 | 2026-09-02 03:15:22 | 48.28839 | 14.98114 | 94° | 18km/h | 19793m | 6.1m/s | -54.4°C | 1.1% | -1.0hPa | 2.6V | 00:00:00 | 00:00:00 | 00:00:00 | |
| DK5PH-5 | 2026-09-02 03:15:21 | 48.28839 | 14.98114 | 95° | 18km/h | 19793m | 6.0m/s | -54.4°C | 4.1% | 0hPa | 2.6V | 00:00:00 | 01:26:38 | 00:00:00 | |
| PETON7-10 | 2026-09-02 03:15:20 | 48.28839 | 14.98107 | 97° | 16km/h | 19788m | 5.4m/s | -54.4°C | 4.1% | 0hPa | 2.6V | 00:00:00 | 00:00:00 | 00:00:00 | |
| OE3OSB-13 | 2026-09-02 03:15:17 | 48.28841 | 14.98087 | 99° | 18km/h | 19771m | 4.7m/s | -54.8°C | 1.1% | -1.0hPa | 2.7V | 00:00:00 | 00:00:00 | 00:00:00 | |
| DO3MHA-12 | 2026-09-02 03:15:13 | 48.28840 | 14.98060 | 87° | 15km/h | 19749m | 6.2m/s | -54.9°C | 4.3% | 0hPa | 2.7V | 00:00:00 | 01:26:30 | 00:00:00 | |
| OE5DXL-15 | 2026-09-02 03:15:12 | 48.28840 | 14.98055 | 80° | 18km/h | 19743m | 4.4m/s | -55.0°C | 4.2% | 0hPa | 2.7V | 00:00:00 | 00:00:00 | 00:00:00 | |
| OE5WHR-10 | 2026-09-02 03:15:09 | 48.28837 | 14.98039 | 68° | 20km/h | 19727m | 6.1m/s | -55.0°C | 4.2% | 0hPa | 2.6V | 00:00:00 | 00:00:00 | 08:30:00 | |
| OE8JPQ-2 | 2026-09-02 03:15:06 | 48.28834 | 14.98022 | 78° | 20km/h | 19710m | 4.3m/s | -55.0°C | 4.2% | 0hPa | 2.6V | 00:00:00 | 01:26:23 | 00:00:00 | |
| PG1ADW-2 | 2026-09-02 03:15:05 | 48.28833 | 14.98015 | 83° | 20km/h | 19705m | 5.4m/s | -55.0°C | 4.2% | 0hPa | 2.6V | 00:00:00 | 01:26:22 | 00:00:00 | |
| OK1ALN | 2026-09-02 03:15:04 | 48.28833 | 14.98015 | 84° | 16km/h | 19705m | 5.5m/s | -55.0°C | 1.2% | 0hPa | 2.6V | 00:00:00 | 00:00:00 | 00:00:00 | |
| DO3MHA-12 | 2026-09-02 03:15:03 | 48.28832 | 14.98004 | 100° | 22km/h | 19694m | 4.3m/s | -55.1°C | 4.3% | 0hPa | 2.6V | 00:00:00 | 01:26:20 | 00:00:00 | |
| SONDE2-11 | 2026-09-02 03:14:50 | 48.28875 | 14.97921 | 110° | 18km/h | 19622m | 3.9m/s | -55.0°C | 1.1% | -1.0hPa | 2.6V | 00:00:00 | 00:00:00 | 00:00:00 | |
| OE5WHR-10 | 2026-09-02 03:14:48 | 48.28879 | 14.97908 | 117° | 16km/h | 19612m | 5.7m/s | -54.9°C | 4.3% | 0hPa | 2.6V | 00:00:00 | 00:00:00 | 00:00:00 | |
| OE8JPQ-2 | 2026-09-02 03:14:46 | 48.28882 | 14.97901 | 134° | 16km/h | 19601m | 6.2m/s | -54.9°C | 4.3% | 0hPa | 2.6V | 00:00:00 | 00:00:00 | 08:30:00 | |
| PG1ADW-2 | 2026-09-02 03:14:45 | 48.28885 | 14.97897 | 135° | 16km/h | 19595m | 5.0m/s | -54.8°C | 4.3% | 0hPa | 2.7V | 00:00:00 | 00:00:00 | 00:00:00 | |
| OK1ALN | 2026-09-02 03:14:44 | 48.28885 | 14.97897 | 136° | 15km/h | 19595m | 5.0m/s | -54.9°C | 1.3% | 0hPa | 2.7V | 00:00:00 | 00:00:00 | 00:00:00 | |
| OE5MMP-10 | 2026-09-02 03:14:43 | 48.28890 | 14.97888 | 133° | 18km/h | 19584m | 6.1m/s | -54.8°C | 4.2% | 0hPa | 2.7V | 00:00:00 | 01:26:00 | 00:00:00 | |
| OE5DXL-15 | 2026-09-02 03:14:42 | 48.28893 | 14.97884 | 124° | 18km/h | 19579m | 4.1m/s | -54.7°C | 4.2% | 0hPa | 2.7V | 00:00:00 | 00:00:00 | 00:00:00 | |
| PETON7-10 | 2026-09-02 03:14:35 | 48.28908 | 14.97840 | 120° | 18km/h | 19541m | 6.1m/s | -54.6°C | 4.1% | 0hPa | 2.7V | 00:00:00 | 00:00:00 | 00:00:00 | |
| DO3MHA-12 | 2026-09-02 03:14:33 | 48.28913 | 14.97829 | 125° | 16km/h | 19531m | 4.5m/s | -54.7°C | 4.1% | 0hPa | 2.6V | 00:00:00 | 01:25:50 | 00:00:00 | |
| OE5FHM-15 | 2026-09-02 03:14:30 | 48.28917 | 14.97816 | 124° | 20km/h | 19514m | 6.2m/s | -54.8°C | 4.2% | 0hPa | 2.6V | 00:00:00 | 01:25:47 | 00:00:00 | |
| OE5WHR-10 | 2026-09-02 03:14:27 | 48.28923 | 14.97801 | 115° | 22km/h | 19497m | 5.4m/s | -55.0°C | 4.2% | 0hPa | 2.6V | 00:00:00 | 01:25:44 | 00:00:00 | |
| OE8JPQ-2 | 2026-09-02 03:14:26 | 48.28925 | 14.97794 | 117° | 22km/h | 19491m | 6.5m/s | -55.1°C | 4.2% | 0hPa | 2.6V | 00:00:00 | 00:00:00 | 00:00:00 | |
| PG1ADW-2 | 2026-09-02 03:14:25 | 48.28927 | 14.97787 | 112° | 22km/h | 19485m | 3.9m/s | -55.1°C | 4.2% | 0hPa | 2.6V | 00:00:00 | 00:00:00 | 00:00:00 | |
| OE5HKT-10 | 2026-09-02 03:14:24 | 48.28929 | 14.97780 | 106° | 20km/h | 19480m | 5.8m/s | -55.1°C | 4.2% | 0hPa | 2.6V | 00:00:00 | 00:00:00 | 00:00:00 | |
| OK1ALN | 2026-09-02 03:14:23 | 48.28929 | 14.97780 | 106° | 22km/h | 19480m | 5.8m/s | -55.2°C | 1.2% | 0hPa | 2.6V | 00:00:00 | 00:00:00 | 00:00:00 | |
| OE3JTB-15 | 2026-09-02 03:14:22 | 48.28930 | 14.97763 | 92° | 26km/h | 19469m | 4.8m/s | -55.1°C | 4.2% | 0hPa | 2.6V | 00:00:00 | 01:25:39 | 00:00:00 | |
| DK5PH-5 | 2026-09-02 03:14:21 | 48.28930 | 14.97755 | 96° | 27km/h | 19463m | 6.4m/s | -55.1°C | 4.2% | 0hPa | 2.6V | 00:00:00 | 01:25:38 | 00:00:00 | |
| PETON7-10 | 2026-09-02 03:14:20 | 48.28931 | 14.97747 | 95° | 22km/h | 19458m | 4.2m/s | -55.1°C | 4.2% | 0hPa | 2.6V | 00:00:00 | 00:00:00 | 00:00:00 | |
| SONDE2-11 | 2026-09-02 03:14:19 | 48.28931 | 14.97741 | 86° | 16km/h | 19452m | 6.7m/s | -55.2°C | 1.1% | -1.0hPa | 2.6V | 00:00:00 | 00:00:00 | 00:00:00 | |
| OE3OSB-13 | 2026-09-02 03:14:15 | 48.28927 | 14.97715 | 86° | 20km/h | 19429m | 4.5m/s | -55.4°C | 1.1% | -1.0hPa | 2.6V | 00:00:00 | 00:00:00 | 00:00:00 | |
| DO3MHA-12 | 2026-09-02 03:14:13 | 48.28926 | 14.97696 | 83° | 22km/h | 19419m | 6.1m/s | -55.4°C | 4.3% | 0hPa | 2.6V | 00:00:00 | 01:25:30 | 00:00:00 | |
| OE5DXL-15 | 2026-09-02 03:14:12 | 48.28925 | 14.97686 | 83° | 33km/h | 19414m | 4.8m/s | -55.4°C | 4.4% | 0hPa | 2.6V | 00:00:00 | 00:00:00 | 00:00:00 | |
| OE5DRO-10 | 2026-09-02 03:14:08 | 48.28923 | 14.97647 | 77° | 31km/h | 19390m | 5.9m/s | -55.6°C | 4.4% | 0hPa | 2.6V | 00:00:00 | 00:00:00 | 00:00:00 | |
| OE5WHR-10 | 2026-09-02 03:14:06 | 48.28921 | 14.97631 | 78° | 33km/h | 19378m | 5.3m/s | -55.6°C | 4.4% | 0hPa | 2.6V | 00:00:00 | 00:00:00 | 00:00:00 | |
| PG1ADW-2 | 2026-09-02 03:14:05 | 48.28919 | 14.97625 | 70° | 31km/h | 19372m | 7.4m/s | -55.6°C | 4.4% | 0hPa | 2.6V | 00:00:00 | 00:00:00 | 08:30:00 | |
| DO3MHA-12 | 2026-09-02 03:14:03 | 48.28914 | 14.97614 | 54° | 35km/h | 19360m | 4.5m/s | -55.5°C | 4.4% | 0hPa | 2.7V | 00:00:00 | 01:25:20 | 08:30:00 | |
| OK1ALN | 2026-09-02 03:14:02 | 48.28914 | 14.97614 | 54° | 22km/h | 19360m | 4.5m/s | -55.5°C | 1.3% | 0hPa | 2.6V | 00:00:00 | 00:00:00 | 00:00:00 | |
| OE5FHM-15 | 2026-09-02 03:14:00 | 48.28903 | 14.97585 | 63° | 38km/h | 19343m | 4.6m/s | -55.4°C | 4.4% | 0hPa | 2.6V | 00:00:00 | 01:25:17 | 08:30:00 | |
| OM5KV | 2026-09-02 03:13:56 | 48.28887 | 14.97545 | 58° | 40km/h | 19328m | 4.8m/s | -55.5°C | 1.3% | 0hPa | 2.7V | 00:00:00 | 00:00:00 | 00:00:00 | |
| DO3MHA-12 | 2026-09-02 03:13:53 | 48.28871 | 14.97497 | 61° | 37km/h | 19306m | 6.3m/s | -55.5°C | 4.4% | 0hPa | 2.7V | 00:00:00 | 01:25:10 | 00:00:00 | |
| DK5PH-5 | 2026-09-02 03:13:51 | 48.28861 | 14.97476 | 50° | 37km/h | 19295m | 5.8m/s | -55.6°C | 4.5% | 0hPa | 2.7V | 00:00:00 | 01:25:08 | 00:00:00 | |
| PETON7-10 | 2026-09-02 03:13:50 | 48.28856 | 14.97467 | 54° | 40km/h | 19289m | 5.6m/s | -55.6°C | 4.5% | 0hPa | 2.7V | 00:00:00 | 00:00:00 | 08:30:00 | |
| OE5DRO-10 | 2026-09-02 03:13:49 | 48.28851 | 14.97458 | 46° | 40km/h | 19284m | 4.2m/s | -55.6°C | 4.5% | 0hPa | 2.7V | 00:00:00 | 00:00:00 | 08:30:00 | |
| OE8JPQ-2 | 2026-09-02 03:13:46 | 48.28828 | 14.97431 | 37° | 40km/h | 19266m | 4.9m/s | -55.5°C | 4.5% | 0hPa | 2.6V | 00:00:00 | 00:00:00 | 00:00:00 | |
| SONDE2-11 | 2026-09-02 03:13:45 | 48.28811 | 14.97411 | 41° | 42km/h | 19255m | 5.0m/s | -55.5°C | 1.1% | -1.0hPa | 2.7V | 00:00:00 | 00:00:00 | 00:00:00 | |
| OE3OSB-13 | 2026-09-02 03:13:44 | 48.28811 | 14.97411 | 41° | 42km/h | 19255m | 5.0m/s | -55.5°C | 1.1% | -1.0hPa | 2.7V | 00:00:00 | 00:00:00 | 00:00:00 | |
| DO3MHA-12 | 2026-09-02 03:13:43 | 48.28803 | 14.97400 | 43° | 42km/h | 19249m | 5.5m/s | -55.4°C | 4.4% | 0hPa | 2.7V | 00:00:00 | 01:25:00 | 00:00:00 | |
| OE5DXL-15 | 2026-09-02 03:13:42 | 48.28794 | 14.97388 | 40° | 33km/h | 19244m | 5.6m/s | -55.4°C | 4.4% | 0hPa | 2.7V | 00:00:00 | 00:00:00 | 00:00:00 | |
| DL6DJ-15 | 2026-09-02 03:13:37 | 48.28744 | 14.97328 | 31° | 42km/h | 19208m | 3.8m/s | 0°C | -1.0% | -1.0hPa | 2.6V | 00:00:00 | 00:00:00 | 00:00:00 | |
| PETON7-10 | 2026-09-02 03:13:35 | 48.28735 | 14.97320 | 34° | 33km/h | 19203m | 6.3m/s | -55.3°C | 4.4% | 0hPa | 2.6V | 00:00:00 | 00:00:00 | 00:00:00 | |
| DO3MHA-12 | 2026-09-02 03:13:33 | 48.28719 | 14.97304 | 32° | 33km/h | 19191m | 5.6m/s | -55.3°C | 4.4% | 0hPa | 2.6V | 00:00:00 | 01:24:50 | 00:00:00 | |
| OM5KV | 2026-09-02 03:13:32 | 48.28719 | 14.97304 | 33° | 40km/h | 19191m | 5.6m/s | -55.4°C | 1.3% | 0hPa | 2.6V | 00:00:00 | 00:00:00 | 00:00:00 | |
| OE5FHM-15 | 2026-09-02 03:13:30 | 48.28696 | 14.97278 | 47° | 26km/h | 19174m | 6.9m/s | -55.3°C | 4.5% | 0hPa | 2.6V | 00:00:00 | 01:24:47 | 00:00:00 | |
| OM5KV | 2026-09-02 03:13:29 | 48.28696 | 14.97278 | 47° | 35km/h | 19174m | 6.9m/s | -55.4°C | 1.3% | 0hPa | 2.6V | 00:00:00 | 00:00:00 | 00:00:00 | |
| PG1ADW-2 | 2026-09-02 03:13:27 | 48.28681 | 14.97249 | 53° | 26km/h | 19155m | 5.9m/s | -55.1°C | 4.4% | 0hPa | 2.6V | 00:00:00 | 01:24:44 | 00:00:00 | |
| OE8JPQ-2 | 2026-09-02 03:13:26 | 48.28676 | 14.97240 | 54° | 26km/h | 19149m | 5.8m/s | -55.0°C | 4.4% | 0hPa | 2.6V | 00:00:00 | 00:00:00 | 00:00:00 | |
| OE5WHR-10 | 2026-09-02 03:13:24 | 48.28667 | 14.97223 | 44° | 24km/h | 19137m | 5.4m/s | -55.0°C | 4.4% | 0hPa | 2.6V | 00:00:00 | 01:24:41 | 00:00:00 | |
| OE5MMP-10 | 2026-09-02 03:13:23 | 48.28661 | 14.97216 | 36° | 26km/h | 19131m | 6.0m/s | -55.0°C | 4.4% | 0hPa | 2.6V | 00:00:00 | 01:24:40 | 00:00:00 | |
| OK1ALN | 2026-09-02 03:13:22 | 48.28661 | 14.97216 | 37° | 27km/h | 19131m | 6.1m/s | -55.0°C | 1.3% | 0hPa | 2.6V | 00:00:00 | 00:00:00 | 00:00:00 | |
| DK5PH-5 | 2026-09-02 03:13:21 | 48.28649 | 14.97207 | 24° | 22km/h | 19121m | 6.5m/s | 0°C | 0% | 0hPa | 2.6V | 00:00:00 | 01:24:38 | 00:00:00 | |
| PETON7-10 | 2026-09-02 03:13:20 | 48.28644 | 14.97203 | 23° | 24km/h | 19115m | 4.8m/s | -54.8°C | 4.3% | 0hPa | 2.6V | 00:00:00 | 01:24:37 | 00:00:00 | |
| OM5KV | 2026-09-02 03:13:17 | 48.28632 | 14.97193 | 36° | 26km/h | 19102m | 6.1m/s | -54.8°C | 1.3% | 0hPa | 2.6V | 00:00:00 | 00:00:00 | 00:00:00 | |
| OM5KV | 2026-09-02 03:13:14 | 48.28619 | 14.97176 | 52° | 22km/h | 19083m | 5.9m/s | -54.7°C | 1.3% | 0hPa | 2.6V | 00:00:00 | 00:00:00 | 00:00:00 | |
| DO3MHA-12 | 2026-09-02 03:13:13 | 48.28611 | 14.97162 | 49° | 24km/h | 19072m | 4.1m/s | -54.6°C | 4.3% | 0hPa | 2.6V | 00:00:00 | 01:24:30 | 00:00:00 | |
| OE5DXL-15 | 2026-09-02 03:13:12 | 48.28607 | 14.97155 | 51° | 20km/h | 19066m | 5.8m/s | -54.5°C | 4.3% | 0hPa | 2.6V | 00:00:00 | 00:00:00 | 00:00:00 | |
| OE5DRO-10 | 2026-09-02 03:13:11 | 48.28604 | 14.97149 | 49° | 20km/h | 19061m | 6.0m/s | -54.5°C | 4.3% | 0hPa | 2.6V | 00:00:00 | 00:00:00 | 00:00:00 | |
| OM5KV | 2026-09-02 03:13:08 | 48.28596 | 14.97138 | 53° | 24km/h | 19050m | 6.3m/s | -54.5°C | 1.3% | 0hPa | 2.6V | 00:00:00 | 00:00:00 | 00:00:00 | |
| DL6DJ-15 | 2026-09-02 03:13:06 | 48.28582 | 14.97108 | 48° | 22km/h | 19026m | 4.3m/s | 0°C | -1.0% | -1.0hPa | 2.6V | 00:00:00 | 00:00:00 | 00:00:00 | |
| PETON7-10 | 2026-09-02 03:13:05 | 48.28582 | 14.97108 | 49° | 20km/h | 19026m | 4.3m/s | -54.3°C | 4.2% | 0hPa | 2.6V | 00:00:00 | 00:00:00 | 00:00:00 | |
| DO3MHA-12 | 2026-09-02 03:13:03 | 48.28573 | 14.97094 | 48° | 18km/h | 19014m | 5.3m/s | -54.2°C | 4.2% | 0hPa | 2.6V | 00:00:00 | 01:24:20 | 00:00:00 | |
| OK1ALN | 2026-09-02 03:13:01 | 48.28569 | 14.97086 | 52° | 26km/h | 19009m | 5.6m/s | -54.2°C | 1.2% | 0hPa | 2.6V | 00:00:00 | 00:00:00 | 00:00:00 | |
| OE5FHM-15 | 2026-09-02 03:13:00 | 48.28562 | 14.97074 | 55° | 18km/h | 18997m | 5.2m/s | -54.0°C | 4.2% | 0hPa | 2.6V | 00:00:00 | 01:24:17 | 00:00:00 | |
| OE3JTB-15 | 2026-09-02 03:12:55 | 48.28553 | 14.97047 | 75° | 20km/h | 18968m | 5.1m/s | -53.8°C | 4.1% | 0hPa | 2.6V | 00:00:00 | 01:24:12 | 00:00:00 | |
| DO3MHA-12 | 2026-09-02 03:12:53 | 48.28550 | 14.97035 | 68° | 20km/h | 18957m | 4.7m/s | -53.7°C | 4.1% | 0hPa | 2.6V | 00:00:00 | 01:24:10 | 00:00:00 | |
| OE5DRO-10 | 2026-09-02 03:12:52 | 48.28548 | 14.97027 | 72° | 20km/h | 18952m | 5.1m/s | -53.6°C | 4.0% | 0hPa | 2.6V | 00:00:00 | 00:00:00 | 00:00:00 | |
| DK5PH-5 | 2026-09-02 03:12:51 | 48.28546 | 14.97020 | 68° | 20km/h | 18945m | 6.8m/s | 0°C | 0% | 0hPa | 2.7V | 00:00:00 | 01:24:08 | 00:00:00 | |
| PETON7-10 | 2026-09-02 03:12:50 | 48.28545 | 14.97013 | 71° | 18km/h | 18939m | 5.1m/s | -53.6°C | 4.0% | 0hPa | 2.7V | 00:00:00 | 00:00:00 | 00:00:00 | |
| OE8JPQ-2 | 2026-09-02 03:12:46 | 48.28537 | 14.96984 | 60° | 22km/h | 18916m | 6.4m/s | -53.6°C | 3.9% | 0hPa | 2.7V | 00:00:00 | 00:00:00 | 00:00:00 | |
| DO3MHA-12 | 2026-09-02 03:12:43 | 48.28530 | 14.96968 | 57° | 18km/h | 18899m | 5.4m/s | -53.7°C | 4.0% | 0hPa | 2.7V | 00:00:00 | 01:24:00 | 00:00:00 | |
| OE5DXL-15 | 2026-09-02 03:12:42 | 48.28527 | 14.96962 | 56° | 27km/h | 18893m | 5.0m/s | -53.7°C | 4.0% | 0hPa | 2.7V | 00:00:00 | 00:00:00 | 00:00:00 | |
| OK1ALN | 2026-09-02 03:12:41 | 48.28528 | 14.96962 | 57° | 20km/h | 18893m | 5.0m/s | -53.8°C | 1.2% | 0hPa | 2.7V | 00:00:00 | 00:00:00 | 00:00:00 | |
| OM5KV | 2026-09-02 03:12:40 | 48.28525 | 14.96956 | 54° | 18km/h | 18888m | 5.4m/s | -53.8°C | 1.2% | 0hPa | 2.7V | 00:00:00 | 00:00:00 | 00:00:00 | |
| OM5KV | 2026-09-02 03:12:37 | 48.28520 | 14.96939 | 86° | 20km/h | 18870m | 4.8m/s | -54.1°C | 1.2% | 0hPa | 2.7V | 00:00:00 | 00:00:00 | 00:00:00 | |
| PETON7-10 | 2026-09-02 03:12:35 | 48.28519 | 14.96917 | 86° | 27km/h | 18852m | 5.1m/s | -54.0°C | 4.0% | 0hPa | 2.7V | 00:00:00 | 01:23:52 | 00:00:00 | |
| OM5KV | 2026-09-02 03:12:34 | 48.28519 | 14.96917 | 87° | 20km/h | 18852m | 5.2m/s | -54.0°C | 1.2% | 0hPa | 2.7V | 00:00:00 | 00:00:00 | 00:00:00 | |
| DO3MHA-12 | 2026-09-02 03:12:33 | 48.28520 | 14.96900 | 97° | 27km/h | 18838m | 5.7m/s | -54.0°C | 4.1% | 0hPa | 2.7V | 00:00:00 | 01:23:50 | 08:30:00 | |
| OE5FHM-15 | 2026-09-02 03:12:30 | 48.28523 | 14.96873 | 100° | 29km/h | 18819m | 6.7m/s | -54.1°C | 4.1% | 0hPa | 2.6V | 00:00:00 | 01:23:47 | 00:00:00 | |
| OM5KV | 2026-09-02 03:12:27 | 48.28527 | 14.96854 | 109° | 27km/h | 18806m | 6.0m/s | -54.3°C | 1.3% | 0hPa | 2.7V | 00:00:00 | 00:00:00 | 00:00:00 | |
| PG1ADW-2 | 2026-09-02 03:12:26 | 48.28530 | 14.96835 | 104° | 33km/h | 18796m | 3.9m/s | -54.2°C | 4.2% | 0hPa | 2.7V | 00:00:00 | 00:00:00 | 00:00:00 | |
| OM5KV | 2026-09-02 03:12:25 | 48.28530 | 14.96834 | 104° | 27km/h | 18796m | 3.9m/s | -54.2°C | 1.3% | 0hPa | 2.7V | 00:00:00 | 00:00:00 | 00:00:00 | |
| DO3MHA-12 | 2026-09-02 03:12:23 | 48.28534 | 14.96799 | 98° | 35km/h | 18779m | 5.2m/s | -54.1°C | 4.1% | 0hPa | 2.7V | 00:00:00 | 01:23:40 | 00:00:00 | |
| OM5KV | 2026-09-02 03:12:22 | 48.28534 | 14.96799 | 98° | 38km/h | 18779m | 5.2m/s | -54.2°C | 1.2% | 0hPa | 2.7V | 00:00:00 | 00:00:00 | 00:00:00 | |
| OE5WHR-10 | 2026-09-02 03:12:21 | 48.28536 | 14.96771 | 91° | 29km/h | 18767m | 4.8m/s | -54.1°C | 4.2% | 0hPa | 2.7V | 00:00:00 | 01:23:38 | 00:00:00 | |
| PETON7-10 | 2026-09-02 03:12:20 | 48.28535 | 14.96758 | 89° | 31km/h | 18761m | 5.3m/s | -54.1°C | 4.2% | 0hPa | 2.7V | 00:00:00 | 00:00:00 | 00:00:00 | |
| OM5KV | 2026-09-02 03:12:19 | 48.28535 | 14.96758 | 90° | 35km/h | 18761m | 5.4m/s | -54.1°C | 1.3% | 0hPa | 2.7V | 00:00:00 | 00:00:00 | 00:00:00 | |
| OE5DRO-10 | 2026-09-02 03:12:14 | 48.28537 | 14.96682 | 98° | 22km/h | 18727m | 6.7m/s | -54.0°C | 4.2% | 0hPa | 2.7V | 00:00:00 | 00:00:00 | 00:00:00 | |
| DO3MHA-12 | 2026-09-02 03:12:13 | 48.28538 | 14.96671 | 100° | 29km/h | 18721m | 4.7m/s | -54.0°C | 4.2% | 0hPa | 2.7V | 00:00:00 | 01:23:30 | 00:00:00 | |
| OE5DXL-15 | 2026-09-02 03:12:12 | 48.28539 | 14.96659 | 94° | 27km/h | 18716m | 5.2m/s | -54.0°C | 4.2% | 0hPa | 2.7V | 00:00:00 | 00:00:00 | 08:30:00 | |
| SONDE2-11 | 2026-09-02 03:12:11 | 48.28539 | 14.96648 | 85° | 27km/h | 18710m | 6.0m/s | -54.0°C | 1.1% | -1.0hPa | 2.6V | 00:00:00 | 00:00:00 | 00:00:00 | |
| OM5KV | 2026-09-02 03:12:10 | 48.28539 | 14.96648 | 87° | 29km/h | 18710m | 6.0m/s | -54.0°C | 1.3% | 0hPa | 2.6V | 00:00:00 | 00:00:00 | 00:00:00 | |
| OM5KV | 2026-09-02 03:12:08 | 48.28538 | 14.96626 | 89° | 31km/h | 18699m | 5.9m/s | -53.9°C | 1.3% | 0hPa | 2.6V | 00:00:00 | 00:00:00 | 00:00:00 | |
| OM5KV | 2026-09-02 03:12:07 | 48.28538 | 14.96614 | 91° | 31km/h | 18694m | 5.0m/s | -53.9°C | 1.2% | 0hPa | 2.6V | 00:00:00 | 00:00:00 | 00:00:00 | |
| OE8JPQ-2 | 2026-09-02 03:12:06 | 48.28537 | 14.96592 | 85° | 26km/h | 18683m | 6.2m/s | -53.7°C | 4.1% | 0hPa | 2.6V | 00:00:00 | 01:23:23 | 00:00:00 | |
| PETON7-10 | 2026-09-02 03:12:05 | 48.28536 | 14.96583 | 85° | 27km/h | 18678m | 4.8m/s | -53.7°C | 4.0% | 0hPa | 2.6V | 00:00:00 | 00:00:00 | 00:00:00 | |
| DO3MHA-12 | 2026-09-02 03:12:03 | 48.28536 | 14.96565 | 96° | 29km/h | 18666m | 5.6m/s | -53.6°C | 4.0% | 0hPa | 2.6V | 00:00:00 | 01:23:20 | 00:00:00 | |
| OK1ALN | 2026-09-02 03:12:01 | 48.28536 | 14.96556 | 95° | 26km/h | 18661m | 5.3m/s | -53.6°C | 1.2% | 0hPa | 2.7V | 00:00:00 | 00:00:00 | 00:00:00 | |
| OE5FHM-15 | 2026-09-02 03:12:00 | 48.28537 | 14.96536 | 94° | 24km/h | 18649m | 4.7m/s | -53.5°C | 3.9% | 0hPa | 2.7V | 00:00:00 | 01:23:17 | 00:00:00 | |
| OM5KV | 2026-09-02 03:11:59 | 48.28537 | 14.96536 | 95° | 29km/h | 18649m | 4.8m/s | -53.5°C | 1.2% | 0hPa | 2.7V | 00:00:00 | 00:00:00 | 00:00:00 | |
| OE3JTB-15 | 2026-09-02 03:11:57 | 48.28541 | 14.96501 | 102° | 22km/h | 18634m | 4.6m/s | -53.4°C | 3.9% | 0hPa | 2.7V | 00:00:00 | 00:00:00 | 00:00:00 | |
| OM5KV | 2026-09-02 03:11:56 | 48.28541 | 14.96501 | 103° | 31km/h | 18634m | 4.6m/s | -53.5°C | 1.2% | 0hPa | 2.7V | 00:00:00 | 00:00:00 | 00:00:00 | |
| OM5KV | 2026-09-02 03:11:55 | 48.28542 | 14.96489 | 95° | 31km/h | 18628m | 6.3m/s | -53.5°C | 1.2% | 0hPa | 2.7V | 00:00:00 | 00:00:00 | 00:00:00 | |
| DO3MHA-12 | 2026-09-02 03:11:53 | 48.28542 | 14.96455 | 93° | 26km/h | 18611m | 5.7m/s | -53.5°C | 4.0% | 0hPa | 2.7V | 00:00:00 | 01:23:10 | 00:00:00 | |
| PETON7-10 | 2026-09-02 03:11:50 | 48.28543 | 14.96427 | 90° | 20km/h | 18595m | 5.1m/s | -53.8°C | 4.1% | 0hPa | 2.7V | 00:00:00 | 01:23:07 | 00:00:00 | |
| OM5KV | 2026-09-02 03:11:49 | 48.28543 | 14.96427 | 90° | 20km/h | 18595m | 5.1m/s | -53.8°C | 1.2% | 0hPa | 2.7V | 00:00:00 | 00:00:00 | 00:00:00 | |
| PG1ADW-2 | 2026-09-02 03:11:46 | 48.28549 | 14.96397 | 106° | 20km/h | 18573m | 6.3m/s | -54.3°C | 4.2% | 0hPa | 2.7V | 00:00:00 | 00:00:00 | 00:00:00 | |
| OE5MMP-10 | 2026-09-02 03:11:43 | 48.28553 | 14.96371 | 109° | 20km/h | 18556m | 5.8m/s | -54.2°C | 4.2% | 0hPa | 2.7V | 00:00:00 | 01:23:00 | 00:00:00 | |
| OE5DXL-15 | 2026-09-02 03:11:42 | 48.28555 | 14.96362 | 112° | 22km/h | 18550m | 4.7m/s | -54.2°C | 4.2% | 0hPa | 2.7V | 00:00:00 | 00:00:00 | 00:00:00 | |
| DO3MHA-12 | 2026-09-02 03:11:41 | 48.28557 | 14.96354 | 110° | 18km/h | 18545m | 6.9m/s | -54.2°C | 4.1% | 0hPa | 2.7V | 00:00:00 | 01:22:58 | 00:00:00 | |
| OE3OSB-13 | 2026-09-02 03:11:40 | 48.28559 | 14.96340 | 99° | 18km/h | 18532m | 6.9m/s | -54.2°C | 1.1% | -1.0hPa | 2.7V | 00:00:00 | 00:00:00 | 00:00:00 | |
| OE5WHR-10 | 2026-09-02 03:11:39 | 48.28559 | 14.96340 | 100° | 20km/h | 18533m | 6.8m/s | -54.2°C | 4.1% | 0hPa | 2.7V | 00:00:00 | 00:00:00 | 00:00:00 | |
| OM5KV | 2026-09-02 03:11:36 | 48.28560 | 14.96327 | 84° | 15km/h | 18521m | 4.0m/s | -54.1°C | 1.3% | 0hPa | 2.7V | 00:00:00 | 00:00:00 | 00:00:00 | |
| PETON7-10 | 2026-09-02 03:11:35 | 48.28558 | 14.96316 | 63° | 20km/h | 18510m | 4.1m/s | -54.0°C | 4.1% | 0hPa | 2.7V | 00:00:00 | 00:00:00 | 08:30:00 | |
| OM5KV | 2026-09-02 03:11:34 | 48.28558 | 14.96316 | 63° | 18km/h | 18510m | 4.1m/s | -54.1°C | 1.3% | 0hPa | 2.6V | 00:00:00 | 00:00:00 | 00:00:00 | |
| OE5MMP-10 | 2026-09-02 03:11:33 | 48.28554 | 14.96303 | 69° | 20km/h | 18499m | 5.8m/s | -54.0°C | 4.1% | 0hPa | 2.6V | 00:00:00 | 01:22:50 | 00:00:00 | |
| OE5FHM-15 | 2026-09-02 03:11:30 | 48.28548 | 14.96281 | 71° | 27km/h | 18482m | 4.6m/s | -53.9°C | 4.1% | 0hPa | 2.6V | 00:00:00 | 01:22:47 | 00:00:00 | |
| DO3MHA-12 | 2026-09-02 03:11:29 | 48.28547 | 14.96274 | 83° | 20km/h | 18476m | 6.6m/s | -53.9°C | 4.0% | 0hPa | 2.6V | 00:00:00 | 01:22:46 | 00:00:00 | |
| OE3JTB-15 | 2026-09-02 03:11:28 | 48.28547 | 14.96266 | 89° | 29km/h | 18470m | 5.4m/s | -53.8°C | 4.0% | 0hPa | 2.6V | 00:00:00 | 01:22:45 | 00:00:00 | |
| OE8JPQ-2 | 2026-09-02 03:11:26 | 48.28546 | 14.96253 | 81° | 26km/h | 18458m | 4.9m/s | -53.9°C | 4.0% | 0hPa | 2.6V | 00:00:00 | 00:00:00 | 00:00:00 | |
| OM5KV | 2026-09-02 03:11:24 | 48.28545 | 14.96246 | 85° | 20km/h | 18453m | 4.9m/s | -54.0°C | 1.3% | 0hPa | 2.6V | 00:00:00 | 00:00:00 | 00:00:00 | |
| OE5MMP-10 | 2026-09-02 03:11:23 | 48.28545 | 14.96230 | 83° | 26km/h | 18442m | 4.4m/s | -54.0°C | 4.1% | 0hPa | 2.6V | 00:00:00 | 01:22:40 | 00:00:00 | |
| OM5KV | 2026-09-02 03:11:22 | 48.28545 | 14.96230 | 83° | 22km/h | 18442m | 4.4m/s | -54.1°C | 1.2% | 0hPa | 2.6V | 00:00:00 | 00:00:00 | 00:00:00 | |
| PETON7-10 | 2026-09-02 03:11:20 | 48.28543 | 14.96206 | 89° | 29km/h | 18426m | 5.3m/s | -54.1°C | 4.1% | 0hPa | 2.6V | 00:00:00 | 00:00:00 | 00:00:00 | |
| DO3MHA-12 | 2026-09-02 03:11:19 | 48.28543 | 14.96197 | 90° | 29km/h | 18420m | 6.3m/s | -54.2°C | 4.1% | 0hPa | 2.6V | 00:00:00 | 01:22:36 | 00:00:00 | |
| OE5WHR-10 | 2026-09-02 03:11:18 | 48.28544 | 14.96187 | 96° | 33km/h | 18414m | 5.5m/s | -54.2°C | 4.2% | 0hPa | 2.6V | 00:00:00 | 01:22:35 | 00:00:00 | |
| OE5MMP-10 | 2026-09-02 03:11:13 | 48.28549 | 14.96132 | 96° | 31km/h | 18386m | 6.0m/s | -54.3°C | 4.2% | 0hPa | 2.6V | 00:00:00 | 01:22:30 | 00:00:00 | |
| OE5DXL-15 | 2026-09-02 03:11:12 | 48.28549 | 14.96121 | 90° | 37km/h | 18380m | 4.8m/s | -54.3°C | 4.2% | 0hPa | 2.6V | 00:00:00 | 00:00:00 | 00:00:00 | |
| DO3MHA-12 | 2026-09-02 03:11:09 | 48.28546 | 14.96090 | 79° | 47km/h | 18364m | 4.8m/s | -54.3°C | 4.1% | 0hPa | 2.6V | 00:00:00 | 01:22:26 | 00:00:00 | |
| PG1ADW-2 | 2026-09-02 03:11:06 | 48.28543 | 14.96057 | 82° | 38km/h | 18347m | 5.6m/s | -54.5°C | 4.3% | 0hPa | 2.6V | 00:00:00 | 00:00:00 | 00:00:00 | |
| PETON7-10 | 2026-09-02 03:11:05 | 48.28541 | 14.96045 | 80° | 38km/h | 18342m | 5.5m/s | -54.6°C | 4.2% | 0hPa | 2.6V | 00:00:00 | 01:22:22 | 00:00:00 | |
| OE5FHM-15 | 2026-09-02 03:11:00 | 48.28537 | 14.95972 | 85° | 35km/h | 18314m | 4.7m/s | -54.5°C | 4.2% | 0hPa | 2.6V | 00:00:00 | 01:22:17 | 00:00:00 | |
| OE3JTB-15 | 2026-09-02 03:10:59 | 48.28536 | 14.95956 | 84° | 35km/h | 18309m | 5.1m/s | -54.4°C | 4.2% | 0hPa | 2.6V | 00:00:00 | 00:00:00 | 08:30:00 | |
| OE5WHR-10 | 2026-09-02 03:10:57 | 48.28534 | 14.95925 | 82° | 37km/h | 18298m | 4.7m/s | -54.4°C | 4.2% | 0hPa | 2.7V | 00:00:00 | 00:00:00 | 00:00:00 | |
| OM5KV | 2026-09-02 03:10:54 | 48.28530 | 14.95897 | 79° | 40km/h | 18287m | 4.7m/s | -54.5°C | 1.3% | 0hPa | 2.6V | 00:00:00 | 00:00:00 | 00:00:00 | |
| OE5MMP-10 | 2026-09-02 03:10:53 | 48.28526 | 14.95869 | 79° | 37km/h | 18276m | 5.2m/s | -54.4°C | 4.2% | 0hPa | 2.6V | 00:00:00 | 01:22:10 | 08:30:00 | |
| PETON7-10 | 2026-09-02 03:10:50 | 48.28521 | 14.95830 | 83° | 35km/h | 18261m | 4.6m/s | -54.3°C | 4.2% | 0hPa | 2.7V | 00:00:00 | 00:00:00 | 00:00:00 | |
| NBG1-10 | 2026-09-02 03:10:49 | 48.28520 | 14.95817 | 89° | 33km/h | 18255m | 5.2m/s | 0°C | 0% | 0hPa | 2.6V | 00:00:00 | 01:22:06 | 00:00:00 | |
| OM5KV | 2026-09-02 03:10:48 | 48.28520 | 14.95817 | 90° | 33km/h | 18255m | 5.3m/s | -54.3°C | 1.3% | 0hPa | 2.6V | 00:00:00 | 00:00:00 | 00:00:00 | |
| OE8JPQ-2 | 2026-09-02 03:10:46 | 48.28520 | 14.95779 | 91° | 33km/h | 18241m | 4.8m/s | -54.2°C | 4.2% | 0hPa | 2.6V | 00:00:00 | 00:00:00 | 00:00:00 | |
| OM5KV | 2026-09-02 03:10:44 | 48.28520 | 14.95764 | 92° | 40km/h | 18237m | 3.8m/s | -54.2°C | 1.3% | 0hPa | 2.6V | 00:00:00 | 00:00:00 | 00:00:00 | |
| OE5MMP-10 | 2026-09-02 03:10:43 | 48.28521 | 14.95734 | 92° | 31km/h | 18227m | 3.5m/s | -54.2°C | 4.1% | 0hPa | 2.6V | 00:00:00 | 01:22:00 | 00:00:00 | |
| OE5DXL-15 | 2026-09-02 03:10:42 | 48.28521 | 14.95718 | 88° | 29km/h | 18222m | 6.3m/s | -54.2°C | 4.1% | 0hPa | 2.6V | 00:00:00 | 00:00:00 | 00:00:00 | |
| OM5KV | 2026-09-02 03:10:41 | 48.28521 | 14.95718 | 89° | 42km/h | 18222m | 6.3m/s | -54.2°C | 1.3% | 0hPa | 2.6V | 00:00:00 | 00:00:00 | 00:00:00 | |
| OK1ALN | 2026-09-02 03:10:39 | 48.28519 | 14.95688 | 86° | 35km/h | 18212m | 3.7m/s | -54.3°C | 1.3% | 0hPa | 2.6V | 00:00:00 | 00:00:00 | 00:00:00 | |
| OE3OSB-13 | 2026-09-02 03:10:38 | 48.28519 | 14.95656 | 101° | 24km/h | 18195m | 5.6m/s | -54.3°C | 1.1% | -1.0hPa | 2.6V | 00:00:00 | 00:00:00 | 00:00:00 | |
| OE5WHR-10 | 2026-09-02 03:10:36 | 48.28520 | 14.95647 | 100° | 27km/h | 18190m | 4.8m/s | -54.2°C | 4.2% | 0hPa | 2.6V | 00:00:00 | 00:00:00 | 00:00:00 | |
| PETON7-10 | 2026-09-02 03:10:35 | 48.28521 | 14.95638 | 95° | 27km/h | 18185m | 5.3m/s | -54.2°C | 4.2% | 0hPa | 2.6V | 00:00:00 | 00:00:00 | 00:00:00 | |
| OE5MMP-10 | 2026-09-02 03:10:33 | 48.28523 | 14.95621 | 108° | 29km/h | 18174m | 6.1m/s | -54.2°C | 4.2% | 0hPa | 2.6V | 00:00:00 | 01:21:50 | 00:00:00 | |
| OE5FHM-15 | 2026-09-02 03:10:30 | 48.28529 | 14.95588 | 102° | 31km/h | 18158m | 4.4m/s | -54.3°C | 4.2% | 0hPa | 2.6V | 00:00:00 | 01:21:47 | 00:00:00 | |
| OE5DRO-10 | 2026-09-02 03:10:27 | 48.28536 | 14.95553 | 112° | 33km/h | 18143m | 3.2m/s | -54.3°C | 4.3% | 0hPa | 2.6V | 00:00:00 | 00:00:00 | 08:30:00 | |
| PG1ADW-2 | 2026-09-02 03:10:26 | 48.28539 | 14.95542 | 112° | 29km/h | 18138m | 5.8m/s | -54.2°C | 4.2% | 0hPa | 2.6V | 00:00:00 | 00:00:00 | 00:00:00 | |
| OE5MMP-10 | 2026-09-02 03:10:23 | 48.28545 | 14.95514 | 115° | 27km/h | 18123m | 5.7m/s | -54.2°C | 4.2% | 0hPa | 2.6V | 00:00:00 | 01:21:40 | 00:00:00 | |
| PETON7-10 | 2026-09-02 03:10:20 | 48.28552 | 14.95492 | 109° | 31km/h | 18107m | 4.8m/s | -54.1°C | 4.2% | 0hPa | 2.6V | 00:00:00 | 01:21:37 | 00:00:00 | |
| OK1ALN | 2026-09-02 03:10:19 | 48.28552 | 14.95492 | 110° | 24km/h | 18107m | 4.8m/s | -54.1°C | 1.3% | 0hPa | 2.6V | 00:00:00 | 00:00:00 | 00:00:00 | |
| OE5WHR-10 | 2026-09-02 03:10:15 | 48.28562 | 14.95438 | 100° | 35km/h | 18081m | 4.2m/s | -53.9°C | 4.2% | 0hPa | 2.6V | 00:00:00 | 01:21:32 | 00:00:00 | |
| OE5MMP-10 | 2026-09-02 03:10:13 | 48.28568 | 14.95413 | 112° | 31km/h | 18070m | 4.0m/s | -53.8°C | 4.2% | 0hPa | 2.6V | 00:00:00 | 01:21:30 | 00:00:00 | |
| OE5DXL-15 | 2026-09-02 03:10:12 | 48.28571 | 14.95401 | 111° | 35km/h | 18066m | 4.7m/s | -53.8°C | 4.2% | 0hPa | 2.6V | 00:00:00 | 00:00:00 | 00:00:00 | |
| OM5KV | 2026-09-02 03:10:08 | 48.28579 | 14.95368 | 112° | 29km/h | 18050m | 6.0m/s | -53.8°C | 1.3% | 0hPa | 2.6V | 00:00:00 | 00:00:00 | 00:00:00 | |
| OE3OSB-13 | 2026-09-02 03:10:07 | 48.28586 | 14.95337 | 103° | 29km/h | 18033m | 5.8m/s | -53.9°C | 1.2% | -1.0hPa | 2.6V | 00:00:00 | 00:00:00 | 00:00:00 | |
| OE8JPQ-2 | 2026-09-02 03:10:06 | 48.28586 | 14.95337 | 104° | 37km/h | 18033m | 5.7m/s | -53.8°C | 4.2% | 0hPa | 2.6V | 00:00:00 | 01:21:23 | 00:00:00 | |
| PETON7-10 | 2026-09-02 03:10:05 | 48.28588 | 14.95325 | 105° | 37km/h | 18028m | 4.5m/s | -53.8°C | 4.2% | 0hPa | 2.6V | 00:00:00 | 00:00:00 | 00:00:00 | |
| OM5KV | 2026-09-02 03:10:04 | 48.28588 | 14.95325 | 105° | 35km/h | 18028m | 4.5m/s | -53.8°C | 1.3% | 0hPa | 2.7V | 00:00:00 | 00:00:00 | 00:00:00 | |
| OE5MMP-10 | 2026-09-02 03:10:03 | 48.28593 | 14.95299 | 109° | 37km/h | 18018m | 3.5m/s | -53.7°C | 4.2% | 0hPa | 2.7V | 00:00:00 | 01:21:20 | 00:00:00 | |
| OE5DRO-10 | 2026-09-02 03:10:02 | 48.28596 | 14.95285 | 106° | 33km/h | 18013m | 5.8m/s | -53.7°C | 4.2% | 0hPa | 2.7V | 00:00:00 | 00:00:00 | 00:00:00 | |
| OE3JTB-15 | 2026-09-02 03:10:01 | 48.28599 | 14.95272 | 105° | 35km/h | 18008m | 4.6m/s | -53.6°C | 4.2% | 0hPa | 2.7V | 00:00:00 | 01:21:18 | 00:00:00 | |
| OE5FHM-15 | 2026-09-02 03:10:00 | 48.28601 | 14.95259 | 111° | 35km/h | 18003m | 4.9m/s | -53.6°C | 4.2% | 0hPa | 2.7V | 00:00:00 | 01:21:17 | 00:00:00 | |
| OK1ALN | 2026-09-02 03:09:58 | 48.28605 | 14.95247 | 116° | 37km/h | 17998m | 6.1m/s | -53.6°C | 1.3% | 0hPa | 2.7V | 00:00:00 | 00:00:00 | 00:00:00 | |
| OM5KV | 2026-09-02 03:09:57 | 48.28609 | 14.95234 | 114° | 37km/h | 17992m | 3.9m/s | -53.5°C | 1.3% | 0hPa | 2.7V | 00:00:00 | 00:00:00 | 00:00:00 | |
| OE5WHR-10 | 2026-09-02 03:09:54 | 48.28620 | 14.95184 | 113° | 35km/h | 17972m | 5.2m/s | -53.3°C | 4.0% | 0hPa | 2.7V | 00:00:00 | 00:00:00 | 00:00:00 | |
| OE5MMP-10 | 2026-09-02 03:09:53 | 48.28623 | 14.95171 | 112° | 37km/h | 17967m | 4.5m/s | -53.3°C | 4.0% | 0hPa | 2.6V | 00:00:00 | 01:21:10 | 00:00:00 | |
| PETON7-10 | 2026-09-02 03:09:50 | 48.28630 | 14.95133 | 106° | 35km/h | 17950m | 6.2m/s | -53.2°C | 4.0% | 0hPa | 2.6V | 00:00:00 | 00:00:00 | 00:00:00 | |
| OM5KV | 2026-09-02 03:09:48 | 48.28633 | 14.95119 | 105° | 37km/h | 17945m | 4.0m/s | -53.2°C | 1.3% | 0hPa | 2.6V | 00:00:00 | 00:00:00 | 00:00:00 | |
| OE8JPQ-2 | 2026-09-02 03:09:46 | 48.28640 | 14.95078 | 107° | 35km/h | 17928m | 6.3m/s | -53.0°C | 3.9% | 0hPa | 2.6V | 00:00:00 | 00:00:00 | 00:00:00 | |
| DG1MFX-10 | 2026-09-02 03:09:45 | 48.28640 | 14.95078 | 107° | 37km/h | 17928m | 6.3m/s | -53.0°C | 1.3% | 0hPa | 2.7V | 00:00:00 | 00:00:00 | 00:00:00 | |
| OE5MMP-10 | 2026-09-02 03:09:43 | 48.28651 | 14.95037 | 113° | 33km/h | 17912m | 5.3m/s | -52.9°C | 3.8% | 0hPa | 2.7V | 00:00:00 | 01:21:00 | 00:00:00 | |
| OE5DXL-15 | 2026-09-02 03:09:42 | 48.28655 | 14.95025 | 118° | 33km/h | 17907m | 5.0m/s | -52.8°C | 3.8% | 0hPa | 2.7V | 00:00:00 | 00:00:00 | 00:00:00 | |
| OM5KV | 2026-09-02 03:09:38 | 48.28666 | 14.94988 | 110° | 35km/h | 17890m | 6.0m/s | -52.9°C | 1.2% | 0hPa | 2.7V | 00:00:00 | 00:00:00 | 00:00:00 | |
| OK1ALN | 2026-09-02 03:09:37 | 48.28668 | 14.94977 | 107° | 31km/h | 17885m | 4.0m/s | -52.9°C | 1.2% | 0hPa | 2.7V | 00:00:00 | 00:00:00 | 00:00:00 | |
| OE3OSB-13 | 2026-09-02 03:09:36 | 48.28675 | 14.94947 | 106° | 26km/h | 17868m | 6.1m/s | -52.8°C | 1.0% | -1.0hPa | 2.7V | 00:00:00 | 00:00:00 | 00:00:00 | |
| PETON7-10 | 2026-09-02 03:09:35 | 48.28675 | 14.94947 | 107° | 33km/h | 17868m | 6.1m/s | -52.8°C | 3.7% | 0hPa | 2.7V | 00:00:00 | 01:20:52 | 00:00:00 | |
| OE5MMP-10 | 2026-09-02 03:09:33 | 48.28681 | 14.94926 | 114° | 33km/h | 17857m | 6.1m/s | -52.9°C | 3.8% | 0hPa | 2.7V | 00:00:00 | 01:20:50 | 00:00:00 | |
| OE3JTB-15 | 2026-09-02 03:09:32 | 48.28684 | 14.94915 | 121° | 35km/h | 17851m | 5.2m/s | -52.9°C | 3.8% | 0hPa | 2.7V | 00:00:00 | 00:00:00 | 00:00:00 | |
| OE5FHM-15 | 2026-09-02 03:09:30 | 48.28694 | 14.94892 | 124° | 37km/h | 17841m | 6.2m/s | -53.2°C | 3.8% | 0hPa | 2.6V | 00:00:00 | 01:20:47 | 08:30:00 | |
| OM5KV | 2026-09-02 03:09:28 | 48.28699 | 14.94881 | 123° | 37km/h | 17835m | 4.3m/s | -53.5°C | 1.2% | 0hPa | 2.6V | 00:00:00 | 00:00:00 | 00:00:00 | |
| OE8JPQ-2 | 2026-09-02 03:09:26 | 48.28713 | 14.94848 | 118° | 33km/h | 17819m | 5.5m/s | -53.5°C | 3.9% | 0hPa | 2.6V | 00:00:00 | 00:00:00 | 00:00:00 | |
| OM5KV | 2026-09-02 03:09:25 | 48.28713 | 14.94848 | 119° | 31km/h | 17819m | 5.5m/s | -53.5°C | 1.2% | 0hPa | 2.6V | 00:00:00 | 00:00:00 | 00:00:00 | |
| OE5MMP-10 | 2026-09-02 03:09:23 | 48.28721 | 14.94817 | 110° | 33km/h | 17802m | 4.5m/s | -53.5°C | 4.0% | 0hPa | 2.6V | 00:00:00 | 01:20:40 | 08:30:00 | |
| OM5KV | 2026-09-02 03:09:22 | 48.28721 | 14.94817 | 111° | 29km/h | 17802m | 4.6m/s | -53.5°C | 1.3% | 0hPa | 2.6V | 00:00:00 | 00:00:00 | 00:00:00 | |
| PETON7-10 | 2026-09-02 03:09:20 | 48.28728 | 14.94783 | 107° | 35km/h | 17786m | 4.2m/s | -53.5°C | 4.0% | 0hPa | 2.6V | 00:00:00 | 00:00:00 | 08:30:00 | |
| OM5KV | 2026-09-02 03:09:19 | 48.28728 | 14.94783 | 107° | 33km/h | 17786m | 4.2m/s | -53.6°C | 1.3% | 0hPa | 2.6V | 00:00:00 | 00:00:00 | 00:00:00 | |
| OM5KV | 2026-09-02 03:09:17 | 48.28733 | 14.94760 | 114° | 29km/h | 17775m | 4.9m/s | -53.7°C | 1.3% | 0hPa | 2.6V | 00:00:00 | 00:00:00 | 00:00:00 | |
| DG1MFX-10 | 2026-09-02 03:09:16 | 48.28736 | 14.94749 | 119° | 33km/h | 17770m | 4.2m/s | -53.7°C | 1.3% | 0hPa | 2.6V | 00:00:00 | 00:00:00 | 00:00:00 | |
| OE5DRO-10 | 2026-09-02 03:09:15 | 48.28745 | 14.94726 | 121° | 42km/h | 17759m | 5.2m/s | -53.8°C | 4.0% | 0hPa | 2.6V | 00:00:00 | 00:00:00 | 00:00:00 | |
| OE5MMP-10 | 2026-09-02 03:09:13 | 48.28753 | 14.94704 | 118° | 38km/h | 17748m | 4.2m/s | -53.8°C | 4.0% | 0hPa | 2.6V | 00:00:00 | 01:20:30 | 00:00:00 | |
| OE5DXL-15 | 2026-09-02 03:09:12 | 48.28757 | 14.94692 | 114° | 46km/h | 17743m | 6.4m/s | -53.8°C | 4.1% | 0hPa | 2.6V | 00:00:00 | 00:00:00 | 00:00:00 | |
| OM5KV | 2026-09-02 03:09:11 | 48.28757 | 14.94692 | 114° | 35km/h | 17743m | 6.5m/s | -53.9°C | 1.3% | 0hPa | 2.7V | 00:00:00 | 00:00:00 | 00:00:00 | |
| OM5KV | 2026-09-02 03:09:10 | 48.28760 | 14.94679 | 113° | 38km/h | 17736m | 5.9m/s | -54.0°C | 1.3% | 0hPa | 2.7V | 00:00:00 | 00:00:00 | 00:00:00 | |
| OM5KV | 2026-09-02 03:09:07 | 48.28769 | 14.94639 | 107° | 38km/h | 17720m | 4.8m/s | -54.1°C | 1.3% | 0hPa | 2.7V | 00:00:00 | 00:00:00 | 00:00:00 | |
| OE8JPQ-2 | 2026-09-02 03:09:06 | 48.28775 | 14.94610 | 106° | 46km/h | 17707m | 5.2m/s | -54.1°C | 4.2% | 0hPa | 2.7V | 00:00:00 | 01:20:23 | 00:00:00 | |
| PETON7-10 | 2026-09-02 03:09:05 | 48.28778 | 14.94596 | 109° | 46km/h | 17702m | 5.2m/s | -54.1°C | 4.2% | 0hPa | 2.7V | 00:00:00 | 00:00:00 | 00:00:00 | |
| OE3OSB-13 | 2026-09-02 03:09:04 | 48.28782 | 14.94582 | 109° | 42km/h | 17697m | 3.8m/s | -54.2°C | 1.2% | -1.0hPa | 2.7V | 00:00:00 | 00:00:00 | 00:00:00 | |
| OE5MMP-10 | 2026-09-02 03:09:03 | 48.28786 | 14.94567 | 113° | 47km/h | 17692m | 6.7m/s | -54.1°C | 4.2% | 0hPa | 2.7V | 00:00:00 | 01:20:20 | 00:00:00 | |
| OM5KV | 2026-09-02 03:09:02 | 48.28786 | 14.94567 | 113° | 44km/h | 17692m | 6.8m/s | -54.1°C | 1.3% | 0hPa | 2.7V | 00:00:00 | 00:00:00 | 00:00:00 | |
| OE5FHM-15 | 2026-09-02 03:09:00 | 48.28798 | 14.94516 | 111° | 47km/h | 17673m | 5.8m/s | -54.0°C | 4.2% | 0hPa | 2.7V | 00:00:00 | 01:20:17 | 00:00:00 | |
| OE5DRO-10 | 2026-09-02 03:08:56 | 48.28816 | 14.94446 | 115° | 47km/h | 17650m | 6.1m/s | -53.8°C | 4.1% | 0hPa | 2.7V | 00:00:00 | 00:00:00 | 00:00:00 | |
| OK1ALN | 2026-09-02 03:08:55 | 48.28816 | 14.94446 | 115° | 46km/h | 17650m | 6.2m/s | -53.9°C | 1.3% | 0hPa | 2.6V | 00:00:00 | 00:00:00 | 00:00:00 | |
| OE5MMP-10 | 2026-09-02 03:08:53 | 48.28830 | 14.94397 | 111° | 47km/h | 17633m | 4.3m/s | -53.8°C | 4.1% | 0hPa | 2.6V | 00:00:00 | 01:20:10 | 00:00:00 | |
| OM5KV | 2026-09-02 03:08:52 | 48.28830 | 14.94397 | 112° | 47km/h | 17633m | 4.3m/s | -53.8°C | 1.3% | 0hPa | 2.7V | 00:00:00 | 00:00:00 | 00:00:00 | |
| OE5WHR-10 | 2026-09-02 03:08:51 | 48.28838 | 14.94366 | 110° | 47km/h | 17622m | 5.3m/s | -53.7°C | 4.1% | 0hPa | 2.7V | 00:00:00 | 00:00:00 | 08:30:00 | |
| PETON7-10 | 2026-09-02 03:08:50 | 48.28842 | 14.94349 | 110° | 47km/h | 17617m | 4.7m/s | -53.7°C | 4.1% | 0hPa | 2.6V | 00:00:00 | 01:20:07 | 00:00:00 | |
| OM5KV | 2026-09-02 03:08:49 | 48.28841 | 14.94349 | 111° | 47km/h | 17617m | 4.8m/s | -53.7°C | 1.3% | 0hPa | 2.6V | 00:00:00 | 00:00:00 | 00:00:00 | |
| OE8JPQ-2 | 2026-09-02 03:08:46 | 48.28858 | 14.94280 | 107° | 47km/h | 17594m | 4.6m/s | -53.6°C | 4.1% | 0hPa | 2.6V | 00:00:00 | 00:00:00 | 08:30:00 | |
| DG1MFX-10 | 2026-09-02 03:08:45 | 48.28858 | 14.94280 | 107° | 47km/h | 17594m | 4.7m/s | -53.6°C | 1.3% | 0hPa | 2.6V | 00:00:00 | 00:00:00 | 00:00:00 | |
| OE5MMP-10 | 2026-09-02 03:08:43 | 48.28867 | 14.94227 | 98° | 46km/h | 17576m | 4.3m/s | -53.6°C | 4.1% | 0hPa | 2.6V | 00:00:00 | 01:20:00 | 00:00:00 | |
| OE5DXL-15 | 2026-09-02 03:08:42 | 48.28868 | 14.94209 | 98° | 47km/h | 17571m | 6.5m/s | -53.6°C | 4.1% | 0hPa | 2.6V | 00:00:00 | 00:00:00 | 00:00:00 | |
| OM5KV | 2026-09-02 03:08:40 | 48.28870 | 14.94192 | 102° | 42km/h | 17565m | 5.0m/s | -53.6°C | 1.3% | 0hPa | 2.6V | 00:00:00 | 00:00:00 | 00:00:00 | |
| NBG1-10 | 2026-09-02 03:08:38 | 48.28878 | 14.94142 | 105° | 47km/h | 17549m | 5.0m/s | 0°C | 0% | 0hPa | 2.6V | 00:00:00 | 01:19:55 | 00:00:00 | |
| PETON7-10 | 2026-09-02 03:08:35 | 48.28886 | 14.94092 | 102° | 49km/h | 17531m | 6.0m/s | -53.6°C | 4.0% | 0hPa | 2.6V | 00:00:00 | 00:00:00 | 00:00:00 | |
| OE3JTB-15 | 2026-09-02 03:08:34 | 48.28888 | 14.94073 | 101° | 47km/h | 17525m | 5.8m/s | -53.6°C | 4.1% | 0hPa | 2.6V | 00:00:00 | 01:19:51 | 00:00:00 | |
| OE5MMP-10 | 2026-09-02 03:08:33 | 48.28890 | 14.94055 | 98° | 47km/h | 17518m | 6.8m/s | -53.5°C | 4.1% | 0hPa | 2.6V | 00:00:00 | 01:19:50 | 00:00:00 | |
| OM5KV | 2026-09-02 03:08:32 | 48.28890 | 14.94055 | 99° | 47km/h | 17518m | 6.9m/s | -53.6°C | 1.3% | 0hPa | 2.6V | 00:00:00 | 00:00:00 | 00:00:00 | |
| OE5WHR-10 | 2026-09-02 03:08:30 | 48.28896 | 14.94001 | 99° | 47km/h | 17499m | 5.0m/s | -53.6°C | 4.0% | 0hPa | 2.6V | 00:00:00 | 00:00:00 | 00:00:00 | |
| PG1ADW-2 | 2026-09-02 03:08:26 | 48.28902 | 14.93930 | 99° | 47km/h | 17476m | 6.4m/s | -53.7°C | 4.1% | 0hPa | 2.6V | 00:00:00 | 00:00:00 | 00:00:00 | |
| OE8JPQ-2 | 2026-09-02 03:08:25 | 48.28904 | 14.93912 | 95° | 47km/h | 17470m | 4.2m/s | -53.7°C | 4.2% | 0hPa | 2.6V | 00:00:00 | 00:00:00 | 00:00:00 | |
| OM5KV | 2026-09-02 03:08:24 | 48.28904 | 14.93912 | 96° | 49km/h | 17470m | 4.2m/s | -53.8°C | 1.3% | 0hPa | 2.6V | 00:00:00 | 00:00:00 | 00:00:00 | |
| OE5MMP-10 | 2026-09-02 03:08:23 | 48.28904 | 14.93874 | 91° | 47km/h | 17458m | 5.3m/s | -53.7°C | 4.1% | 0hPa | 2.6V | 00:00:00 | 01:19:40 | 00:00:00 | |
| PETON7-10 | 2026-09-02 03:08:20 | 48.28904 | 14.93815 | 89° | 46km/h | 17442m | 6.4m/s | -53.5°C | 4.1% | 0hPa | 2.6V | 00:00:00 | 00:00:00 | 00:00:00 | |
| OM5KV | 2026-09-02 03:08:19 | 48.28904 | 14.93815 | 89° | 47km/h | 17442m | 6.5m/s | -53.6°C | 1.3% | 0hPa | 2.6V | 00:00:00 | 00:00:00 | 00:00:00 | |
| OM5KV | 2026-09-02 03:08:18 | 48.28903 | 14.93798 | 85° | 44km/h | 17436m | 4.7m/s | -53.5°C | 1.3% | 0hPa | 2.6V | 00:00:00 | 00:00:00 | 00:00:00 | |
| OM5KV | 2026-09-02 03:08:15 | 48.28901 | 14.93747 | 88° | 47km/h | 17420m | 3.7m/s | -53.5°C | 1.3% | 0hPa | 2.6V | 00:00:00 | 00:00:00 | 00:00:00 | |
| OK1ALN | 2026-09-02 03:08:14 | 48.28900 | 14.93730 | 88° | 44km/h | 17414m | 6.7m/s | -53.4°C | 1.3% | 0hPa | 2.6V | 00:00:00 | 00:00:00 | 00:00:00 | |
| OE5MMP-10 | 2026-09-02 03:08:13 | 48.28900 | 14.93697 | 89° | 44km/h | 17402m | 5.6m/s | -53.3°C | 4.0% | 0hPa | 2.6V | 00:00:00 | 01:19:30 | 00:00:00 | |
| OE5DXL-15 | 2026-09-02 03:08:12 | 48.28900 | 14.93680 | 90° | 42km/h | 17395m | 6.0m/s | -53.3°C | 4.0% | 0hPa | 2.6V | 00:00:00 | 00:00:00 | 00:00:00 | |
| OE5WHR-10 | 2026-09-02 03:08:09 | 48.28902 | 14.93624 | 99° | 40km/h | 17380m | 5.3m/s | -53.2°C | 4.0% | 0hPa | 2.6V | 00:00:00 | 01:19:26 | 00:00:00 | |
| PG1ADW-2 | 2026-09-02 03:08:06 | 48.28906 | 14.93576 | 89° | 38km/h | 17364m | 4.8m/s | -53.1°C | 4.0% | 0hPa | 2.6V | 00:00:00 | 01:19:23 | 00:00:00 | |
| PETON7-10 | 2026-09-02 03:08:05 | 48.28905 | 14.93561 | 85° | 38km/h | 17359m | 4.4m/s | -53.1°C | 4.0% | 0hPa | 2.6V | 00:00:00 | 01:19:22 | 00:00:00 | |
| OE3OSB-13 | 2026-09-02 03:08:02 | 48.28904 | 14.93519 | 86° | 37km/h | 17341m | 6.7m/s | -53.0°C | 1.1% | -1.0hPa | 2.6V | 00:00:00 | 00:00:00 | 00:00:00 | |
| OE5FHM-15 | 2026-09-02 03:08:00 | 48.28904 | 14.93490 | 94° | 40km/h | 17330m | 5.8m/s | -52.9°C | 3.9% | 0hPa | 2.6V | 00:00:00 | 01:19:17 | 00:00:00 | |
| OM5KV | 2026-09-02 03:07:54 | 48.28910 | 14.93418 | 105° | 40km/h | 17301m | 5.0m/s | -53.0°C | 1.3% | 0hPa | 2.6V | 00:00:00 | 00:00:00 | 00:00:00 | |
| OE5MMP-10 | 2026-09-02 03:07:53 | 48.28914 | 14.93387 | 99° | 42km/h | 17291m | 5.4m/s | -53.1°C | 4.0% | 0hPa | 2.6V | 00:00:00 | 01:19:10 | 08:30:00 | |
| OM5KV | 2026-09-02 03:07:51 | 48.28916 | 14.93371 | 100° | 42km/h | 17286m | 4.1m/s | -53.1°C | 1.3% | 0hPa | 2.6V | 00:00:00 | 00:00:00 | 00:00:00 | |
| PETON7-10 | 2026-09-02 03:07:50 | 48.28919 | 14.93342 | 100° | 40km/h | 17275m | 5.0m/s | -53.0°C | 4.0% | 0hPa | 2.6V | 00:00:00 | 00:00:00 | 00:00:00 | |
| OE5DRO-10 | 2026-09-02 03:07:49 | 48.28921 | 14.93327 | 103° | 40km/h | 17271m | 3.5m/s | -53.0°C | 4.0% | 0hPa | 2.6V | 00:00:00 | 00:00:00 | 00:00:00 | |
| OE5WHR-10 | 2026-09-02 03:07:48 | 48.28923 | 14.93313 | 101° | 40km/h | 17266m | 5.4m/s | -53.0°C | 4.0% | 0hPa | 2.6V | 00:00:00 | 00:00:00 | 00:00:00 | |
| PG1ADW-2 | 2026-09-02 03:07:46 | 48.28926 | 14.93282 | 99° | 40km/h | 17255m | 4.8m/s | -53.1°C | 4.0% | 0hPa | 2.7V | 00:00:00 | 00:00:00 | 08:30:00 | |
| OE8JPQ-2 | 2026-09-02 03:07:43 | 48.28932 | 14.93234 | 101° | 44km/h | 17240m | 5.2m/s | -53.2°C | 4.0% | 0hPa | 2.6V | 00:00:00 | 00:00:00 | 00:00:00 | |
| OE5DXL-15 | 2026-09-02 03:07:42 | 48.28933 | 14.93218 | 98° | 40km/h | 17234m | 6.4m/s | -53.3°C | 4.0% | 0hPa | 2.7V | 00:00:00 | 00:00:00 | 08:30:00 | |
| OM5KV | 2026-09-02 03:07:41 | 48.28933 | 14.93218 | 98° | 44km/h | 17234m | 6.4m/s | -53.3°C | 1.3% | 0hPa | 2.7V | 00:00:00 | 00:00:00 | 00:00:00 | |
| OE3JTB-15 | 2026-09-02 03:07:36 | 48.28939 | 14.93129 | 95° | 42km/h | 17202m | 4.7m/s | -53.3°C | 4.0% | 0hPa | 2.7V | 00:00:00 | 00:00:00 | 00:00:00 | |
| PETON7-10 | 2026-09-02 03:07:35 | 48.28940 | 14.93114 | 97° | 38km/h | 17196m | 5.9m/s | -53.2°C | 4.0% | 0hPa | 2.7V | 00:00:00 | 00:00:00 | 00:00:00 | |
| OM5KV | 2026-09-02 03:07:34 | 48.28940 | 14.93114 | 98° | 38km/h | 17196m | 5.9m/s | -53.3°C | 1.3% | 0hPa | 2.7V | 00:00:00 | 00:00:00 | 00:00:00 | |
| OE5MMP-10 | 2026-09-02 03:07:33 | 48.28942 | 14.93085 | 96° | 38km/h | 17184m | 6.5m/s | -53.2°C | 4.0% | 0hPa | 2.7V | 00:00:00 | 01:18:50 | 00:00:00 | |
| SONDE2-11 | 2026-09-02 03:07:32 | 48.28944 | 14.93070 | 96° | 38km/h | 17179m | 4.5m/s | -53.3°C | 1.2% | -1.0hPa | 2.7V | 00:00:00 | 00:00:00 | 00:00:00 | |
| OE3OSB-13 | 2026-09-02 03:07:31 | 48.28945 | 14.93056 | 101° | 37km/h | 17173m | 6.5m/s | -53.3°C | 1.2% | -1.0hPa | 2.7V | 00:00:00 | 00:00:00 | 00:00:00 | |
| OE5FHM-15 | 2026-09-02 03:07:30 | 48.28947 | 14.93042 | 100° | 44km/h | 17167m | 5.0m/s | -53.3°C | 4.0% | 0hPa | 2.7V | 00:00:00 | 01:18:47 | 00:00:00 | |
| OM5KV | 2026-09-02 03:07:29 | 48.28947 | 14.93042 | 100° | 35km/h | 17167m | 5.1m/s | -53.3°C | 1.3% | 0hPa | 2.7V | 00:00:00 | 00:00:00 | 00:00:00 | |
| OE5WHR-10 | 2026-09-02 03:07:27 | 48.28952 | 14.92999 | 101° | 44km/h | 17150m | 5.8m/s | -53.3°C | 3.9% | 0hPa | 2.7V | 00:00:00 | 00:00:00 | 00:00:00 | |
| PG1ADW-2 | 2026-09-02 03:07:26 | 48.28954 | 14.92984 | 101° | 44km/h | 17144m | 4.6m/s | -53.3°C | 3.9% | 0hPa | 2.7V | 00:00:00 | 00:00:00 | 00:00:00 | |
| OM5KV | 2026-09-02 03:07:24 | 48.28955 | 14.92969 | 99° | 40km/h | 17139m | 6.1m/s | -53.3°C | 1.3% | 0hPa | 2.7V | 00:00:00 | 00:00:00 | 00:00:00 | |
| OE5MMP-10 | 2026-09-02 03:07:23 | 48.28958 | 14.92939 | 97° | 42km/h | 17128m | 5.0m/s | -53.2°C | 3.8% | 0hPa | 2.7V | 00:00:00 | 01:18:40 | 00:00:00 | |
| DG1MFX-10 | 2026-09-02 03:07:22 | 48.28958 | 14.92939 | 97° | 40km/h | 17128m | 5.1m/s | -53.3°C | 1.3% | 0hPa | 2.6V | 00:00:00 | 00:00:00 | 00:00:00 | |
| PETON7-10 | 2026-09-02 03:07:20 | 48.28965 | 14.92895 | 104° | 46km/h | 17111m | 6.1m/s | -53.3°C | 3.9% | 0hPa | 2.6V | 00:00:00 | 01:18:37 | 00:00:00 | |
| OE5MMP-10 | 2026-09-02 03:07:13 | 48.28980 | 14.92784 | 99° | 49km/h | 17073m | 5.4m/s | -53.9°C | 4.1% | 0hPa | 2.6V | 00:00:00 | 01:18:30 | 00:00:00 | |
| OE5DXL-15 | 2026-09-02 03:07:12 | 48.28983 | 14.92765 | 100° | 47km/h | 17067m | 5.6m/s | -54.1°C | 4.2% | 0hPa | 2.6V | 00:00:00 | 00:00:00 | 00:00:00 | |
| OE5DRO-10 | 2026-09-02 03:07:11 | 48.28985 | 14.92745 | 101° | 47km/h | 17062m | 4.1m/s | -54.4°C | 4.2% | 0hPa | 2.6V | 00:00:00 | 00:00:00 | 00:00:00 | |
| NBG1-10 | 2026-09-02 03:07:07 | 48.28992 | 14.92670 | 96° | 51km/h | 17041m | 3.8m/s | 0°C | 0% | 0hPa | 2.6V | 00:00:00 | 01:18:24 | 00:00:00 | |
| PG1ADW-2 | 2026-09-02 03:07:06 | 48.28993 | 14.92652 | 95° | 47km/h | 17036m | 6.5m/s | -54.8°C | 4.4% | 0hPa | 2.6V | 00:00:00 | 00:00:00 | 00:00:00 | |
| PETON7-10 | 2026-09-02 03:07:05 | 48.28993 | 14.92636 | 93° | 47km/h | 17030m | 4.5m/s | -54.7°C | 4.4% | 0hPa | 2.6V | 00:00:00 | 00:00:00 | 08:30:00 | |
| SONDE2-11 | 2026-09-02 03:07:01 | 48.28998 | 14.92568 | 98° | 47km/h | 17008m | 5.1m/s | -54.7°C | 1.3% | -1.0hPa | 2.7V | 00:00:00 | 00:00:00 | 00:00:00 | |
| OE5FHM-15 | 2026-09-02 03:07:00 | 48.28999 | 14.92549 | 98° | 46km/h | 17002m | 5.3m/s | -54.6°C | 4.3% | 0hPa | 2.7V | 00:00:00 | 01:18:17 | 00:00:00 | |
| OE5MMP-10 | 2026-09-02 03:06:53 | 48.29013 | 14.92420 | 97° | 44km/h | 16965m | 4.3m/s | -54.5°C | 4.3% | 0hPa | 2.7V | 00:00:00 | 01:18:10 | 00:00:00 | |
| OE5DRO-10 | 2026-09-02 03:06:52 | 48.29014 | 14.92403 | 95° | 46km/h | 16960m | 6.0m/s | -54.5°C | 4.3% | 0hPa | 2.7V | 00:00:00 | 00:00:00 | 00:00:00 | |
| OK1ALN | 2026-09-02 03:06:51 | 48.29014 | 14.92403 | 95° | 44km/h | 16960m | 6.0m/s | -54.5°C | 1.5% | 0hPa | 2.7V | 00:00:00 | 00:00:00 | 00:00:00 | |
| PETON7-10 | 2026-09-02 03:06:50 | 48.29016 | 14.92369 | 94° | 46km/h | 16950m | 2.9m/s | -54.5°C | 4.3% | 0hPa | 2.7V | 00:00:00 | 00:00:00 | 00:00:00 | |
| OM5KV | 2026-09-02 03:06:49 | 48.29016 | 14.92369 | 95° | 46km/h | 16950m | 2.9m/s | -54.5°C | 1.5% | 0hPa | 2.7V | 00:00:00 | 00:00:00 | 00:00:00 | |
| OM5KV | 2026-09-02 03:06:48 | 48.29016 | 14.92352 | 93° | 44km/h | 16945m | 5.4m/s | -54.5°C | 1.5% | 0hPa | 2.7V | 00:00:00 | 00:00:00 | 00:00:00 | |
| PG1ADW-2 | 2026-09-02 03:06:46 | 48.29020 | 14.92301 | 100° | 46km/h | 16929m | 4.5m/s | -54.5°C | 4.3% | 0hPa | 2.7V | 00:00:00 | 01:18:03 | 00:00:00 | |
| OE5WHR-10 | 2026-09-02 03:06:45 | 48.29022 | 14.92285 | 102° | 46km/h | 16924m | 6.0m/s | -54.5°C | 4.3% | 0hPa | 2.7V | 00:00:00 | 00:00:00 | 00:00:00 | |
| OE5MMP-10 | 2026-09-02 03:06:43 | 48.29027 | 14.92254 | 105° | 46km/h | 16913m | 5.7m/s | -54.5°C | 4.3% | 0hPa | 2.6V | 00:00:00 | 01:18:00 | 00:00:00 | |
| OM5KV | 2026-09-02 03:06:42 | 48.29027 | 14.92254 | 106° | 42km/h | 16913m | 5.8m/s | -54.5°C | 1.5% | 0hPa | 2.6V | 00:00:00 | 00:00:00 | 00:00:00 | |
| DG1MFX-10 | 2026-09-02 03:06:40 | 48.29033 | 14.92221 | 104° | 44km/h | 16902m | 5.9m/s | -54.6°C | 1.5% | 0hPa | 2.6V | 00:00:00 | 00:00:00 | 00:00:00 | |
| OE3JTB-15 | 2026-09-02 03:06:38 | 48.29038 | 14.92170 | 99° | 49km/h | 16886m | 5.1m/s | -54.6°C | 4.3% | 0hPa | 2.6V | 00:00:00 | 00:00:00 | 08:30:00 | |
| OM5KV | 2026-09-02 03:06:36 | 48.29040 | 14.92152 | 100° | 47km/h | 16881m | 5.9m/s | -54.6°C | 1.5% | 0hPa | 2.7V | 00:00:00 | 00:00:00 | 00:00:00 | |
| PETON7-10 | 2026-09-02 03:06:35 | 48.29043 | 14.92117 | 100° | 47km/h | 16870m | 4.0m/s | -54.6°C | 4.3% | 0hPa | 2.7V | 00:00:00 | 01:17:52 | 00:00:00 | |
| OE5MMP-10 | 2026-09-02 03:06:33 | 48.29049 | 14.92083 | 107° | 47km/h | 16861m | 4.0m/s | -54.7°C | 4.4% | 0hPa | 2.7V | 00:00:00 | 01:17:50 | 00:00:00 | |
| OM5KV | 2026-09-02 03:06:32 | 48.29049 | 14.92083 | 108° | 46km/h | 16861m | 4.0m/s | -54.7°C | 1.5% | 0hPa | 2.7V | 00:00:00 | 00:00:00 | 00:00:00 | |
| OE5DRO-10 | 2026-09-02 03:06:31 | 48.29054 | 14.92051 | 103° | 51km/h | 16850m | 4.6m/s | -54.6°C | 4.3% | 0hPa | 2.7V | 00:00:00 | 00:00:00 | 08:30:00 | |
| OE5FHM-15 | 2026-09-02 03:06:30 | 48.29057 | 14.92034 | 105° | 51km/h | 16846m | 4.7m/s | -54.7°C | 4.3% | 0hPa | 2.7V | 00:00:00 | 01:17:47 | 00:00:00 | |
| OE3OSB-13 | 2026-09-02 03:06:29 | 48.29060 | 14.92018 | 105° | 46km/h | 16840m | 6.0m/s | -54.7°C | 1.4% | -1.0hPa | 2.6V | 00:00:00 | 00:00:00 | 00:00:00 | |
| PG1ADW-2 | 2026-09-02 03:06:26 | 48.29068 | 14.91966 | 101° | 53km/h | 16824m | 3.9m/s | -54.9°C | 4.4% | 0hPa | 2.6V | 00:00:00 | 00:00:00 | 00:00:00 | |
| OE5WHR-10 | 2026-09-02 03:06:24 | 48.29073 | 14.91929 | 102° | 53km/h | 16815m | 4.8m/s | -54.9°C | 4.5% | 0hPa | 2.6V | 00:00:00 | 00:00:00 | 00:00:00 | |
| OE5MMP-10 | 2026-09-02 03:06:23 | 48.29076 | 14.91909 | 101° | 53km/h | 16810m | 4.8m/s | -54.9°C | 4.4% | 0hPa | 2.6V | 00:00:00 | 01:17:40 | 08:30:00 | |
| PETON7-10 | 2026-09-02 03:06:20 | 48.29081 | 14.91851 | 95° | 53km/h | 16794m | 6.2m/s | -55.0°C | 4.5% | 0hPa | 2.7V | 00:00:00 | 00:00:00 | 00:00:00 | |
| OM5KV | 2026-09-02 03:06:19 | 48.29081 | 14.91851 | 95° | 51km/h | 16794m | 6.2m/s | -55.0°C | 1.6% | 0hPa | 2.6V | 00:00:00 | 00:00:00 | 00:00:00 | |
| DG1MFX-10 | 2026-09-02 03:06:18 | 48.29082 | 14.91831 | 97° | 55km/h | 16788m | 5.2m/s | -55.0°C | 1.6% | 0hPa | 2.6V | 00:00:00 | 00:00:00 | 00:00:00 | |
| OE5MMP-10 | 2026-09-02 03:06:13 | 48.29084 | 14.91706 | 94° | 51km/h | 16757m | 5.0m/s | -55.1°C | 4.5% | 0hPa | 2.6V | 00:00:00 | 01:17:30 | 00:00:00 | |
| OE5DXL-15 | 2026-09-02 03:06:12 | 48.29084 | 14.91686 | 95° | 57km/h | 16751m | 5.8m/s | -55.1°C | 4.5% | 0hPa | 2.6V | 00:00:00 | 00:00:00 | 00:00:00 | |
| OK1ALN | 2026-09-02 03:06:10 | 48.29086 | 14.91667 | 99° | 51km/h | 16746m | 4.5m/s | -55.2°C | 1.6% | 0hPa | 2.6V | 00:00:00 | 00:00:00 | 00:00:00 | |
| OE3JTB-15 | 2026-09-02 03:06:09 | 48.29090 | 14.91628 | 99° | 58km/h | 16736m | 3.7m/s | -55.2°C | 4.5% | 0hPa | 2.6V | 00:00:00 | 00:00:00 | 00:00:00 | |
| OM5KV | 2026-09-02 03:06:08 | 48.29090 | 14.91628 | 99° | 53km/h | 16736m | 3.8m/s | -55.3°C | 1.6% | 0hPa | 2.6V | 00:00:00 | 00:00:00 | 00:00:00 | |
| PETON7-10 | 2026-09-02 03:06:05 | 48.29095 | 14.91551 | 97° | 58km/h | 16714m | 5.0m/s | -55.4°C | 4.6% | 0hPa | 2.6V | 00:00:00 | 00:00:00 | 00:00:00 | |
| OE5WHR-10 | 2026-09-02 03:06:03 | 48.29098 | 14.91511 | 98° | 60km/h | 16703m | 4.9m/s | -55.3°C | 4.6% | 0hPa | 2.6V | 00:00:00 | 01:17:20 | 00:00:00 | |
| OM5KV | 2026-09-02 03:06:02 | 48.29099 | 14.91511 | 98° | 53km/h | 16703m | 4.9m/s | -55.4°C | 1.6% | 0hPa | 2.6V | 00:00:00 | 00:00:00 | 00:00:00 | |
| SONDE2-11 | 2026-09-02 03:05:59 | 48.29104 | 14.91425 | 93° | 57km/h | 16682m | 6.3m/s | -55.5°C | 1.5% | -1.0hPa | 2.6V | 00:00:00 | 00:00:00 | 00:00:00 | |
| OE3OSB-13 | 2026-09-02 03:05:58 | 48.29105 | 14.91404 | 91° | 57km/h | 16677m | 4.2m/s | -55.5°C | 1.5% | -1.0hPa | 2.6V | 00:00:00 | 00:00:00 | 00:00:00 | |
| OM5KV | 2026-09-02 03:05:57 | 48.29105 | 14.91382 | 91° | 58km/h | 16672m | 5.3m/s | -55.5°C | 1.7% | 0hPa | 2.6V | 00:00:00 | 00:00:00 | 00:00:00 | |
| DG1MFX-10 | 2026-09-02 03:05:55 | 48.29105 | 14.91359 | 92° | 62km/h | 16666m | 5.0m/s | -55.5°C | 1.7% | 0hPa | 2.6V | 00:00:00 | 00:00:00 | 00:00:00 | |
| OE5MMP-10 | 2026-09-02 03:05:53 | 48.29106 | 14.91292 | 93° | 62km/h | 16651m | 5.2m/s | -55.6°C | 4.7% | 0hPa | 2.6V | 00:00:00 | 01:17:10 | 00:00:00 | |
| OM5KV | 2026-09-02 03:05:51 | 48.29107 | 14.91269 | 93° | 60km/h | 16645m | 5.3m/s | -55.7°C | 1.7% | 0hPa | 2.7V | 00:00:00 | 00:00:00 | 00:00:00 | |
| PETON7-10 | 2026-09-02 03:05:50 | 48.29108 | 14.91224 | 91° | 64km/h | 16634m | 6.1m/s | -55.7°C | 4.8% | 0hPa | 2.7V | 00:00:00 | 01:17:07 | 00:00:00 | |
| OM5KV | 2026-09-02 03:05:47 | 48.29108 | 14.91180 | 93° | 58km/h | 16625m | 4.8m/s | -55.8°C | 1.7% | 0hPa | 2.7V | 00:00:00 | 00:00:00 | 00:00:00 | |
| PG1ADW-2 | 2026-09-02 03:05:46 | 48.29110 | 14.91134 | 95° | 64km/h | 16614m | 4.8m/s | -55.7°C | 4.8% | 0hPa | 2.7V | 00:00:00 | 00:00:00 | 00:00:00 | |
| OM5KV | 2026-09-02 03:05:44 | 48.29111 | 14.91109 | 91° | 66km/h | 16609m | 5.0m/s | -55.7°C | 1.8% | 0hPa | 2.6V | 00:00:00 | 00:00:00 | 00:00:00 | |
| OE5MMP-10 | 2026-09-02 03:05:43 | 48.29110 | 14.91059 | 90° | 64km/h | 16598m | 5.6m/s | -55.6°C | 4.8% | 0hPa | 2.6V | 00:00:00 | 01:17:00 | 00:00:00 | |
| OE5WHR-10 | 2026-09-02 03:05:42 | 48.29110 | 14.91033 | 89° | 62km/h | 16593m | 4.6m/s | -55.6°C | 4.8% | 0hPa | 2.6V | 00:00:00 | 00:00:00 | 08:30:00 | |
| OM5KV | 2026-09-02 03:05:41 | 48.29110 | 14.91033 | 90° | 68km/h | 16593m | 4.7m/s | -55.6°C | 1.7% | 0hPa | 2.7V | 00:00:00 | 00:00:00 | 00:00:00 | |
| OE3JTB-15 | 2026-09-02 03:05:40 | 48.29108 | 14.90984 | 85° | 58km/h | 16582m | 4.2m/s | -55.5°C | 4.8% | 0hPa | 2.7V | 00:00:00 | 01:16:57 | 00:00:00 | |
| PETON7-10 | 2026-09-02 03:05:35 | 48.29103 | 14.90864 | 86° | 60km/h | 16557m | 5.1m/s | -55.4°C | 4.7% | 0hPa | 2.7V | 00:00:00 | 00:00:00 | 00:00:00 | |
| OE5DRO-10 | 2026-09-02 03:05:34 | 48.29102 | 14.90839 | 86° | 58km/h | 16552m | 5.8m/s | -55.4°C | 4.7% | 0hPa | 2.6V | 00:00:00 | 00:00:00 | 00:00:00 | |
| OE5MMP-10 | 2026-09-02 03:05:33 | 48.29101 | 14.90814 | 88° | 60km/h | 16546m | 4.0m/s | -55.4°C | 4.7% | 0hPa | 2.6V | 00:00:00 | 01:16:50 | 00:00:00 | |
| OE5FHM-15 | 2026-09-02 03:05:30 | 48.29096 | 14.90742 | 83° | 55km/h | 16532m | 3.2m/s | -55.3°C | 4.7% | 0hPa | 2.6V | 00:00:00 | 01:16:47 | 00:00:00 | |
| OK1ALN | 2026-09-02 03:05:29 | 48.29097 | 14.90742 | 83° | 58km/h | 16532m | 3.3m/s | -55.3°C | 1.7% | 0hPa | 2.6V | 00:00:00 | 00:00:00 | 00:00:00 | |
| SONDE2-11 | 2026-09-02 03:05:28 | 48.29089 | 14.90677 | 77° | 57km/h | 16517m | 5.4m/s | -55.3°C | 1.5% | -1.0hPa | 2.6V | 00:00:00 | 00:00:00 | 00:00:00 | |
| OE3OSB-13 | 2026-09-02 03:05:27 | 48.29089 | 14.90677 | 77° | 57km/h | 16517m | 5.4m/s | -55.3°C | 1.5% | -1.0hPa | 2.6V | 00:00:00 | 00:00:00 | 00:00:00 | |
| PG1ADW-2 | 2026-09-02 03:05:26 | 48.29086 | 14.90656 | 80° | 55km/h | 16512m | 4.1m/s | -55.2°C | 4.7% | 0hPa | 2.6V | 00:00:00 | 01:16:43 | 00:00:00 | |
| OE5MMP-10 | 2026-09-02 03:05:23 | 48.29079 | 14.90592 | 79° | 57km/h | 16498m | 5.5m/s | -55.1°C | 4.7% | 0hPa | 2.6V | 00:00:00 | 01:16:40 | 00:00:00 | |
| OE5WHR-10 | 2026-09-02 03:05:21 | 48.29073 | 14.90550 | 79° | 53km/h | 16487m | 5.3m/s | -55.1°C | 4.6% | 0hPa | 2.7V | 00:00:00 | 00:00:00 | 00:00:00 | |
| PETON7-10 | 2026-09-02 03:05:20 | 48.29071 | 14.90529 | 83° | 55km/h | 16482m | 4.6m/s | -55.1°C | 4.6% | 0hPa | 2.7V | 00:00:00 | 00:00:00 | 00:00:00 | |
| OM5KV | 2026-09-02 03:05:17 | 48.29066 | 14.90486 | 80° | 58km/h | 16472m | 5.9m/s | -55.1°C | 1.7% | 0hPa | 2.7V | 00:00:00 | 00:00:00 | 00:00:00 | |
| OM5KV | 2026-09-02 03:05:16 | 48.29063 | 14.90464 | 79° | 57km/h | 16467m | 4.0m/s | -55.1°C | 1.7% | 0hPa | 2.7V | 00:00:00 | 00:00:00 | 00:00:00 | |
| OE5DRO-10 | 2026-09-02 03:05:15 | 48.29058 | 14.90422 | 83° | 51km/h | 16456m | 3.7m/s | -55.0°C | 4.6% | 0hPa | 2.7V | 00:00:00 | 00:00:00 | 00:00:00 | |
| OE5MMP-10 | 2026-09-02 03:05:13 | 48.29054 | 14.90382 | 78° | 53km/h | 16446m | 5.5m/s | -55.0°C | 4.6% | 0hPa | 2.7V | 00:00:00 | 01:16:30 | 00:00:00 | |
| OE5DXL-15 | 2026-09-02 03:05:12 | 48.29052 | 14.90362 | 82° | 51km/h | 16441m | 4.9m/s | -55.0°C | 4.6% | 0hPa | 2.7V | 00:00:00 | 00:00:00 | 00:00:00 | |
| OE3JTB-15 | 2026-09-02 03:05:11 | 48.29050 | 14.90342 | 80° | 49km/h | 16435m | 5.4m/s | -55.1°C | 4.6% | 0hPa | 2.7V | 00:00:00 | 00:00:00 | 00:00:00 | |
| DG1MFX-10 | 2026-09-02 03:05:10 | 48.29050 | 14.90342 | 81° | 53km/h | 16435m | 5.4m/s | -55.1°C | 1.8% | 0hPa | 2.6V | 00:00:00 | 00:00:00 | 00:00:00 | |
| OK1ALN | 2026-09-02 03:05:09 | 48.29047 | 14.90323 | 80° | 53km/h | 16430m | 5.0m/s | -55.2°C | 1.7% | 0hPa | 2.6V | 00:00:00 | 00:00:00 | 00:00:00 | |
| PG1ADW-2 | 2026-09-02 03:05:06 | 48.29038 | 14.90243 | 81° | 49km/h | 16411m | 3.2m/s | -55.2°C | 4.7% | 0hPa | 2.6V | 00:00:00 | 00:00:00 | 00:00:00 | |
| PETON7-10 | 2026-09-02 03:05:05 | 48.29036 | 14.90224 | 81° | 49km/h | 16406m | 5.5m/s | -55.2°C | 4.7% | 0hPa | 2.6V | 00:00:00 | 01:16:22 | 00:00:00 | |
| OE5MMP-10 | 2026-09-02 03:05:03 | 48.29031 | 14.90186 | 79° | 47km/h | 16397m | 4.8m/s | -55.4°C | 4.7% | 0hPa | 2.6V | 00:00:00 | 01:16:20 | 00:00:00 | |
| SONDE2-11 | 2026-09-02 03:04:57 | 48.29012 | 14.90086 | 69° | 44km/h | 16366m | 4.3m/s | -55.9°C | -1.0% | -1.0hPa | 2.6V | 00:00:00 | 00:00:00 | 00:00:00 | |
| OE5DRO-10 | 2026-09-02 03:04:56 | 48.29008 | 14.90070 | 66° | 49km/h | 16361m | 5.8m/s | -55.8°C | 4.9% | 0hPa | 2.6V | 00:00:00 | 00:00:00 | 00:00:00 | |
| OM5KV | 2026-09-02 03:04:55 | 48.29008 | 14.90070 | 67° | 47km/h | 16361m | 5.9m/s | -55.8°C | 1.8% | 0hPa | 2.6V | 00:00:00 | 00:00:00 | 00:00:00 | |
| OM5KV | 2026-09-02 03:04:54 | 48.29003 | 14.90053 | 69° | 49km/h | 16356m | 3.2m/s | -55.8°C | 1.8% | 0hPa | 2.6V | 00:00:00 | 00:00:00 | 00:00:00 | |
| OE5MMP-10 | 2026-09-02 03:04:53 | 48.28994 | 14.90019 | 71° | 51km/h | 16346m | 3.9m/s | -55.7°C | 4.9% | 0hPa | 2.6V | 00:00:00 | 01:16:10 | 08:30:00 | |
| PETON7-10 | 2026-09-02 03:04:50 | 48.28980 | 14.89962 | 73° | 47km/h | 16331m | 5.7m/s | -55.6°C | 4.9% | 0hPa | 2.7V | 00:00:00 | 00:00:00 | 08:30:00 | |
| NBG1-10 | 2026-09-02 03:04:49 | 48.28977 | 14.89944 | 75° | 51km/h | 16326m | 2.7m/s | 0°C | 0% | 0hPa | 2.7V | 00:00:00 | 01:16:06 | 00:00:00 | |
| OM5KV | 2026-09-02 03:04:48 | 48.28976 | 14.89944 | 76° | 51km/h | 16326m | 2.8m/s | -55.7°C | 1.9% | 0hPa | 2.7V | 00:00:00 | 00:00:00 | 00:00:00 | |
| PG1ADW-2 | 2026-09-02 03:04:46 | 48.28965 | 14.89888 | 75° | 46km/h | 16312m | 5.6m/s | -55.6°C | 4.9% | 0hPa | 2.7V | 00:00:00 | 00:00:00 | 08:30:00 | |
| DG1MFX-10 | 2026-09-02 03:04:45 | 48.28965 | 14.89888 | 76° | 49km/h | 16312m | 5.7m/s | -55.6°C | 1.9% | 0hPa | 2.6V | 00:00:00 | 00:00:00 | 00:00:00 | |
| SP3BTT-10 | 2026-09-02 03:04:44 | 48.28960 | 14.89851 | 79° | 49km/h | 16302m | 5.2m/s | -55.6°C | 4.9% | 0hPa | 2.6V | 00:00:00 | 00:00:00 | 00:00:00 | |
| OE5MMP-10 | 2026-09-02 03:04:43 | 48.28957 | 14.89832 | 78° | 44km/h | 16297m | 4.6m/s | -55.6°C | 4.9% | 0hPa | 2.6V | 00:00:00 | 01:16:00 | 00:00:00 | |
| OE3JTB-15 | 2026-09-02 03:04:42 | 48.28955 | 14.89814 | 80° | 46km/h | 16292m | 4.5m/s | -55.6°C | 5.0% | 0hPa | 2.6V | 00:00:00 | 00:00:00 | 00:00:00 | |
| OE5WHR-10 | 2026-09-02 03:04:39 | 48.28947 | 14.89762 | 73° | 46km/h | 16276m | 5.3m/s | -55.6°C | 4.9% | 0hPa | 2.6V | 00:00:00 | 00:00:00 | 00:00:00 | |
| OE5DRO-10 | 2026-09-02 03:04:37 | 48.28942 | 14.89731 | 77° | 46km/h | 16267m | 5.5m/s | -55.5°C | 4.9% | 0hPa | 2.6V | 00:00:00 | 00:00:00 | 00:00:00 | |
| OM5KV | 2026-09-02 03:04:36 | 48.28942 | 14.89731 | 78° | 40km/h | 16267m | 5.5m/s | -55.5°C | 1.8% | 0hPa | 2.6V | 00:00:00 | 00:00:00 | 00:00:00 | |
| PETON7-10 | 2026-09-02 03:04:35 | 48.28938 | 14.89701 | 81° | 47km/h | 16257m | 6.1m/s | -55.4°C | 4.8% | 0hPa | 2.6V | 00:00:00 | 00:00:00 | 00:00:00 | |
| OE5MMP-10 | 2026-09-02 03:04:33 | 48.28935 | 14.89669 | 86° | 47km/h | 16246m | 5.8m/s | -55.4°C | 4.9% | 0hPa | 2.6V | 00:00:00 | 01:15:50 | 00:00:00 | |
| OE5FHM-15 | 2026-09-02 03:04:30 | 48.28932 | 14.89616 | 85° | 49km/h | 16231m | 4.5m/s | -55.3°C | 4.9% | 0hPa | 2.6V | 00:00:00 | 01:15:47 | 00:00:00 | |
| OK1ALN | 2026-09-02 03:04:28 | 48.28931 | 14.89598 | 86° | 47km/h | 16226m | 4.8m/s | -55.3°C | 1.8% | 0hPa | 2.6V | 00:00:00 | 00:00:00 | 00:00:00 | |
| OM5KV | 2026-09-02 03:04:27 | 48.28930 | 14.89580 | 85° | 47km/h | 16221m | 5.7m/s | -55.2°C | 1.8% | 0hPa | 2.6V | 00:00:00 | 00:00:00 | 00:00:00 | |
| PG1ADW-2 | 2026-09-02 03:04:26 | 48.28928 | 14.89544 | 85° | 49km/h | 16211m | 5.8m/s | -55.1°C | 4.8% | 0hPa | 2.6V | 00:00:00 | 00:00:00 | 00:00:00 | |
| DG1MFX-10 | 2026-09-02 03:04:25 | 48.28928 | 14.89544 | 85° | 46km/h | 16211m | 5.9m/s | -55.1°C | 1.9% | 0hPa | 2.6V | 00:00:00 | 00:00:00 | 00:00:00 | |
| OM5KV | 2026-09-02 03:04:24 | 48.28926 | 14.89527 | 80° | 47km/h | 16206m | 4.4m/s | -55.1°C | 1.8% | 0hPa | 2.6V | 00:00:00 | 00:00:00 | 00:00:00 | |
| OE5MMP-10 | 2026-09-02 03:04:23 | 48.28923 | 14.89491 | 84° | 47km/h | 16197m | 5.6m/s | -55.0°C | 4.7% | 0hPa | 2.6V | 00:00:00 | 01:15:40 | 00:00:00 | |
| OE8JPQ-2 | 2026-09-02 03:04:22 | 48.28921 | 14.89473 | 80° | 49km/h | 16192m | 4.1m/s | -54.9°C | 4.7% | 0hPa | 2.7V | 00:00:00 | 01:15:39 | 00:00:00 | |
| OM5KV | 2026-09-02 03:04:21 | 48.28921 | 14.89473 | 80° | 47km/h | 16192m | 4.1m/s | -55.0°C | 1.8% | 0hPa | 2.7V | 00:00:00 | 00:00:00 | 00:00:00 | |
| PETON7-10 | 2026-09-02 03:04:20 | 48.28917 | 14.89438 | 81° | 49km/h | 16181m | 5.2m/s | -54.9°C | 4.7% | 0hPa | 2.7V | 00:00:00 | 01:15:37 | 00:00:00 | |
| OE5WHR-10 | 2026-09-02 03:04:18 | 48.28912 | 14.89404 | 80° | 49km/h | 16171m | 2.8m/s | -54.8°C | 4.8% | 0hPa | 2.7V | 00:00:00 | 00:00:00 | 00:00:00 | |
| OM5KV | 2026-09-02 03:04:15 | 48.28907 | 14.89371 | 74° | 46km/h | 16161m | 5.4m/s | -54.8°C | 1.8% | 0hPa | 2.7V | 00:00:00 | 00:00:00 | 00:00:00 | |
| OE5MMP-10 | 2026-09-02 03:04:13 | 48.28897 | 14.89318 | 82° | 51km/h | 16146m | 5.4m/s | -54.7°C | 4.7% | 0hPa | 2.7V | 00:00:00 | 01:15:30 | 00:00:00 | |
| OE5DXL-15 | 2026-09-02 03:04:12 | 48.28895 | 14.89300 | 81° | 51km/h | 16141m | 3.9m/s | -54.6°C | 4.6% | 0hPa | 2.7V | 00:00:00 | 00:00:00 | 00:00:00 | |
| OM5KV | 2026-09-02 03:04:09 | 48.28890 | 14.89261 | 79° | 55km/h | 16131m | 4.1m/s | -54.7°C | 1.8% | 0hPa | 2.7V | 00:00:00 | 00:00:00 | 00:00:00 | |
| OK1ALN | 2026-09-02 03:04:07 | 48.28885 | 14.89222 | 78° | 51km/h | 16120m | 5.2m/s | -54.6°C | 1.8% | 0hPa | 2.7V | 00:00:00 | 00:00:00 | 00:00:00 | |
| PG1ADW-2 | 2026-09-02 03:04:06 | 48.28880 | 14.89185 | 76° | 51km/h | 16110m | 5.0m/s | -54.6°C | 4.7% | 0hPa | 2.7V | 00:00:00 | 01:15:23 | 00:00:00 | |
| PETON7-10 | 2026-09-02 03:04:05 | 48.28876 | 14.89167 | 74° | 51km/h | 16106m | 3.4m/s | -54.6°C | 4.7% | 0hPa | 2.7V | 00:00:00 | 00:00:00 | 00:00:00 | |
| DG1MFX-10 | 2026-09-02 03:04:04 | 48.28876 | 14.89167 | 74° | 49km/h | 16106m | 3.5m/s | -54.6°C | 1.8% | 0hPa | 2.7V | 00:00:00 | 00:00:00 | 00:00:00 | |
| OE5MMP-10 | 2026-09-02 03:04:03 | 48.28871 | 14.89131 | 79° | 51km/h | 16096m | 4.8m/s | -54.6°C | 4.6% | 0hPa | 2.7V | 00:00:00 | 01:15:20 | 00:00:00 | |
| SONDE2-11 | 2026-09-02 03:03:55 | 48.28856 | 14.88960 | 84° | 55km/h | 16049m | 5.1m/s | 0°C | -1.0% | -1.0hPa | 2.7V | 00:00:00 | 00:00:00 | 00:00:00 | |
| OE3OSB-13 | 2026-09-02 03:03:54 | 48.28855 | 14.88939 | 84° | 55km/h | 16043m | 5.1m/s | -54.7°C | 1.6% | -1.0hPa | 2.7V | 00:00:00 | 00:00:00 | 00:00:00 | |
| OE5MMP-10 | 2026-09-02 03:03:53 | 48.28855 | 14.88939 | 85° | 51km/h | 16043m | 5.0m/s | -54.6°C | 4.7% | 0hPa | 2.7V | 00:00:00 | 01:15:10 | 00:00:00 | |
| PETON7-10 | 2026-09-02 03:03:50 | 48.28852 | 14.88880 | 89° | 51km/h | 16029m | 3.8m/s | -54.6°C | 4.7% | 0hPa | 2.6V | 00:00:00 | 00:00:00 | 00:00:00 | |
| OM5KV | 2026-09-02 03:03:49 | 48.28852 | 14.88880 | 90° | 51km/h | 16029m | 3.8m/s | -54.6°C | 1.8% | 0hPa | 2.6V | 00:00:00 | 00:00:00 | 00:00:00 | |
| PG1ADW-2 | 2026-09-02 03:03:46 | 48.28849 | 14.88804 | 88° | 51km/h | 16008m | 4.8m/s | -54.6°C | 4.7% | 0hPa | 2.6V | 00:00:00 | 00:00:00 | 00:00:00 | |
| OE3JTB-15 | 2026-09-02 03:03:44 | 48.28846 | 14.88766 | 84° | 49km/h | 15997m | 4.5m/s | -54.5°C | 4.6% | 0hPa | 2.7V | 00:00:00 | 00:00:00 | 00:00:00 | |
| OE5MMP-10 | 2026-09-02 03:03:43 | 48.28845 | 14.88746 | 84° | 51km/h | 15992m | 6.0m/s | -54.5°C | 4.6% | 0hPa | 2.6V | 00:00:00 | 01:15:00 | 00:00:00 | |
| OE5DXL-15 | 2026-09-02 03:03:42 | 48.28843 | 14.88726 | 87° | 51km/h | 15986m | 4.2m/s | -54.5°C | 4.6% | 0hPa | 2.6V | 00:00:00 | 00:00:00 | 00:00:00 | |
| OE5DRO-10 | 2026-09-02 03:03:40 | 48.28841 | 14.88686 | 82° | 49km/h | 15975m | 3.8m/s | -54.4°C | 4.7% | 0hPa | 2.6V | 00:00:00 | 00:00:00 | 08:30:00 | |
| OM5KV | 2026-09-02 03:03:38 | 48.28839 | 14.88666 | 86° | 53km/h | 15971m | 4.8m/s | -54.4°C | 1.7% | 0hPa | 2.6V | 00:00:00 | 00:00:00 | 00:00:00 | |
| OE5WHR-10 | 2026-09-02 03:03:36 | 48.28838 | 14.88609 | 88° | 49km/h | 15956m | 5.9m/s | -54.3°C | 4.6% | 0hPa | 2.6V | 00:00:00 | 00:00:00 | 00:00:00 | |
| PETON7-10 | 2026-09-02 03:03:35 | 48.28838 | 14.88590 | 90° | 49km/h | 15950m | 4.2m/s | -54.2°C | 4.6% | 0hPa | 2.6V | 00:00:00 | 01:14:52 | 00:00:00 | |
| OE5MMP-10 | 2026-09-02 03:03:33 | 48.28838 | 14.88553 | 89° | 47km/h | 15941m | 3.9m/s | -54.2°C | 4.5% | 0hPa | 2.6V | 00:00:00 | 01:14:50 | 00:00:00 | |
| OM5KV | 2026-09-02 03:03:32 | 48.28838 | 14.88553 | 90° | 49km/h | 15941m | 3.9m/s | -54.2°C | 1.7% | 0hPa | 2.6V | 00:00:00 | 00:00:00 | 00:00:00 | |
| OE5FHM-15 | 2026-09-02 03:03:30 | 48.28835 | 14.88499 | 89° | 55km/h | 15925m | 5.1m/s | -54.1°C | 4.5% | 0hPa | 2.6V | 00:00:00 | 01:14:47 | 00:00:00 | |
| PG1ADW-2 | 2026-09-02 03:03:26 | 48.28832 | 14.88426 | 88° | 55km/h | 15905m | 5.7m/s | -54.0°C | 4.4% | 0hPa | 2.6V | 00:00:00 | 00:00:00 | 00:00:00 | |
| SP3BTT-10 | 2026-09-02 03:03:25 | 48.28832 | 14.88408 | 91° | 58km/h | 15900m | 4.9m/s | -54.0°C | 4.4% | 0hPa | 2.6V | 00:00:00 | 00:00:00 | 00:00:00 | |
| OM5KV | 2026-09-02 03:03:24 | 48.28832 | 14.88408 | 92° | 47km/h | 15900m | 4.9m/s | -54.1°C | 1.7% | 0hPa | 2.7V | 00:00:00 | 00:00:00 | 00:00:00 | |
| OE5MMP-10 | 2026-09-02 03:03:23 | 48.28831 | 14.88372 | 88° | 53km/h | 15889m | 3.9m/s | -54.1°C | 4.4% | 0hPa | 2.7V | 00:00:00 | 01:14:40 | 08:30:00 | |
| OE8JPQ-2 | 2026-09-02 03:03:22 | 48.28831 | 14.88353 | 93° | 57km/h | 15884m | 5.4m/s | -54.2°C | 4.5% | 0hPa | 2.6V | 00:00:00 | 01:14:39 | 00:00:00 | |
| OE5DRO-10 | 2026-09-02 03:03:21 | 48.28832 | 14.88335 | 95° | 55km/h | 15879m | 4.2m/s | -54.2°C | 4.5% | 0hPa | 2.6V | 00:00:00 | 00:00:00 | 00:00:00 | |
| PETON7-10 | 2026-09-02 03:03:20 | 48.28833 | 14.88317 | 96° | 57km/h | 15875m | 4.3m/s | -54.2°C | 4.4% | 0hPa | 2.6V | 00:00:00 | 00:00:00 | 00:00:00 | |
| OM5KV | 2026-09-02 03:03:17 | 48.28834 | 14.88279 | 88° | 51km/h | 15865m | 3.8m/s | -54.2°C | 1.7% | 0hPa | 2.6V | 00:00:00 | 00:00:00 | 00:00:00 | |
| OE5WHR-10 | 2026-09-02 03:03:15 | 48.28833 | 14.88217 | 87° | 60km/h | 15849m | 5.5m/s | -54.2°C | 4.5% | 0hPa | 2.6V | 00:00:00 | 00:00:00 | 00:00:00 | |
| OM5KV | 2026-09-02 03:03:14 | 48.28833 | 14.88217 | 87° | 58km/h | 15849m | 5.5m/s | -54.3°C | 1.7% | 0hPa | 2.6V | 00:00:00 | 00:00:00 | 00:00:00 | |
| OE5MMP-10 | 2026-09-02 03:03:13 | 48.28830 | 14.88172 | 84° | 60km/h | 15838m | 5.5m/s | -54.2°C | 4.5% | 0hPa | 2.6V | 00:00:00 | 01:14:30 | 00:00:00 | |
| OE5DXL-15 | 2026-09-02 03:03:12 | 48.28829 | 14.88149 | 89° | 57km/h | 15833m | 4.3m/s | -54.2°C | 4.6% | 0hPa | 2.6V | 00:00:00 | 00:00:00 | 08:30:00 | |
| PG1ADW-2 | 2026-09-02 03:03:06 | 48.28829 | 14.88014 | 92° | 57km/h | 15801m | 6.0m/s | -54.2°C | 4.5% | 0hPa | 2.7V | 00:00:00 | 00:00:00 | 00:00:00 | |
| PETON7-10 | 2026-09-02 03:03:05 | 48.28829 | 14.87992 | 90° | 57km/h | 15796m | 4.6m/s | -54.1°C | 4.6% | 0hPa | 2.7V | 00:00:00 | 00:00:00 | 00:00:00 | |
| OE8JPQ-2 | 2026-09-02 03:03:02 | 48.28829 | 14.87923 | 89° | 57km/h | 15779m | 5.9m/s | -54.1°C | 4.5% | 0hPa | 2.7V | 00:00:00 | 00:00:00 | 00:00:00 | |
| OE5FHM-15 | 2026-09-02 03:03:00 | 48.28827 | 14.87875 | 88° | 57km/h | 15769m | 6.3m/s | -54.1°C | 4.5% | 0hPa | 2.6V | 00:00:00 | 01:14:17 | 00:00:00 | |
| OM5KV | 2026-09-02 03:02:58 | 48.28826 | 14.87852 | 86° | 60km/h | 15763m | 4.2m/s | -54.1°C | 1.7% | 0hPa | 2.6V | 00:00:00 | 00:00:00 | 00:00:00 | |
| SP3BTT-10 | 2026-09-02 03:02:55 | 48.28820 | 14.87766 | 86° | 58km/h | 15741m | 4.9m/s | -54.1°C | 4.5% | 0hPa | 2.6V | 00:00:00 | 00:00:00 | 00:00:00 | |
| OE5WHR-10 | 2026-09-02 03:02:54 | 48.28819 | 14.87746 | 88° | 57km/h | 15736m | 5.2m/s | -54.1°C | 4.5% | 0hPa | 2.6V | 00:00:00 | 01:14:11 | 00:00:00 | |
| OE5MMP-10 | 2026-09-02 03:02:53 | 48.28819 | 14.87727 | 92° | 53km/h | 15730m | 6.1m/s | -54.1°C | 4.4% | 0hPa | 2.6V | 00:00:00 | 01:14:10 | 00:00:00 | |
| PETON7-10 | 2026-09-02 03:02:50 | 48.28821 | 14.87669 | 91° | 58km/h | 15714m | 5.2m/s | -54.1°C | 4.5% | 0hPa | 2.7V | 00:00:00 | 01:14:07 | 00:00:00 | |
| OM5KV | 2026-09-02 03:02:49 | 48.28821 | 14.87669 | 92° | 49km/h | 15714m | 5.3m/s | -54.2°C | 1.7% | 0hPa | 2.7V | 00:00:00 | 00:00:00 | 00:00:00 | |
| OM5KV | 2026-09-02 03:02:47 | 48.28822 | 14.87630 | 95° | 51km/h | 15704m | 5.8m/s | -54.2°C | 1.7% | 0hPa | 2.7V | 00:00:00 | 00:00:00 | 00:00:00 | |
| PG1ADW-2 | 2026-09-02 03:02:46 | 48.28823 | 14.87590 | 92° | 60km/h | 15694m | 6.0m/s | -54.1°C | 4.5% | 0hPa | 2.7V | 00:00:00 | 01:14:03 | 00:00:00 | |
| OK1ALN | 2026-09-02 03:02:45 | 48.28823 | 14.87590 | 92° | 55km/h | 15694m | 6.1m/s | -54.1°C | 1.7% | 0hPa | 2.7V | 00:00:00 | 00:00:00 | 00:00:00 | |
| OE5MMP-10 | 2026-09-02 03:02:43 | 48.28823 | 14.87523 | 91° | 60km/h | 15678m | 5.2m/s | -54.0°C | 4.5% | 0hPa | 2.7V | 00:00:00 | 01:14:00 | 00:00:00 | |
| OE5DXL-15 | 2026-09-02 03:02:42 | 48.28823 | 14.87499 | 88° | 62km/h | 15673m | 5.3m/s | -54.0°C | 4.5% | 0hPa | 2.7V | 00:00:00 | 01:13:59 | 00:00:00 | |
| OM5KV | 2026-09-02 03:02:41 | 48.28823 | 14.87499 | 88° | 64km/h | 15673m | 5.4m/s | -54.0°C | 1.7% | 0hPa | 2.7V | 00:00:00 | 00:00:00 | 00:00:00 | |
| DG1MFX-10 | 2026-09-02 03:02:38 | 48.28820 | 14.87428 | 89° | 62km/h | 15656m | 6.4m/s | -53.9°C | 1.7% | 0hPa | 2.7V | 00:00:00 | 00:00:00 | 00:00:00 | |
| OM5KV | 2026-09-02 03:02:37 | 48.28820 | 14.87405 | 88° | 60km/h | 15651m | 4.3m/s | -53.9°C | 1.7% | 0hPa | 2.7V | 00:00:00 | 00:00:00 | 00:00:00 | |
| OM5KV | 2026-09-02 03:02:36 | 48.28819 | 14.87382 | 87° | 58km/h | 15645m | 6.1m/s | -53.9°C | 1.7% | 0hPa | 2.7V | 00:00:00 | 00:00:00 | 00:00:00 | |
| PETON7-10 | 2026-09-02 03:02:35 | 48.28817 | 14.87339 | 88° | 62km/h | 15637m | 4.1m/s | -53.8°C | 4.5% | 0hPa | 2.7V | 00:00:00 | 00:00:00 | 08:30:00 | |
| OE5MMP-10 | 2026-09-02 03:02:33 | 48.28816 | 14.87295 | 91° | 62km/h | 15626m | 4.4m/s | -53.8°C | 4.5% | 0hPa | 2.7V | 00:00:00 | 01:13:50 | 00:00:00 | |
| OM5KV | 2026-09-02 03:02:31 | 48.28816 | 14.87272 | 91° | 60km/h | 15621m | 5.9m/s | -53.8°C | 1.7% | 0hPa | 2.7V | 00:00:00 | 00:00:00 | 00:00:00 | |
| OE5FHM-15 | 2026-09-02 03:02:30 | 48.28817 | 14.87226 | 95° | 62km/h | 15610m | 5.7m/s | -53.7°C | 4.4% | 0hPa | 2.7V | 00:00:00 | 01:13:47 | 00:00:00 | |
| PG1ADW-2 | 2026-09-02 03:02:26 | 48.28822 | 14.87130 | 93° | 62km/h | 15589m | 4.3m/s | -53.6°C | 4.4% | 0hPa | 2.7V | 00:00:00 | 00:00:00 | 00:00:00 | |
| SP3BTT-10 | 2026-09-02 03:02:25 | 48.28823 | 14.87105 | 92° | 62km/h | 15584m | 5.7m/s | -53.6°C | 4.4% | 0hPa | 2.7V | 00:00:00 | 00:00:00 | 00:00:00 | |
| OE5DRO-10 | 2026-09-02 03:02:24 | 48.28823 | 14.87080 | 91° | 60km/h | 15579m | 4.4m/s | -53.6°C | 4.4% | 0hPa | 2.7V | 00:00:00 | 00:00:00 | 00:00:00 | |
| OE5MMP-10 | 2026-09-02 03:02:23 | 48.28823 | 14.87057 | 86° | 60km/h | 15573m | 6.3m/s | -53.6°C | 4.4% | 0hPa | 2.7V | 00:00:00 | 01:13:40 | 00:00:00 | |
| OE8JPQ-2 | 2026-09-02 03:02:22 | 48.28822 | 14.87034 | 87° | 60km/h | 15568m | 4.6m/s | -53.6°C | 4.4% | 0hPa | 2.7V | 00:00:00 | 01:13:39 | 00:00:00 | |
| OE3OSB-13 | 2026-09-02 03:02:21 | 48.28821 | 14.86989 | 90° | 58km/h | 15556m | 5.1m/s | -53.7°C | 1.5% | -1.0hPa | 2.7V | 00:00:00 | 00:00:00 | 00:00:00 | |
| PETON7-10 | 2026-09-02 03:02:20 | 48.28821 | 14.86989 | 91° | 60km/h | 15557m | 5.0m/s | -53.7°C | 4.5% | 0hPa | 2.7V | 00:00:00 | 00:00:00 | 00:00:00 | |
| OE3JTB-15 | 2026-09-02 03:02:17 | 48.28821 | 14.86924 | 90° | 64km/h | 15541m | 6.0m/s | -53.6°C | 4.4% | 0hPa | 2.7V | 00:00:00 | 00:00:00 | 08:30:00 | |
| OM5KV | 2026-09-02 03:02:16 | 48.28821 | 14.86924 | 90° | 58km/h | 15541m | 6.0m/s | -53.7°C | 1.7% | 0hPa | 2.7V | 00:00:00 | 00:00:00 | 00:00:00 | |
| OE5MMP-10 | 2026-09-02 03:02:13 | 48.28820 | 14.86829 | 90° | 62km/h | 15519m | 6.1m/s | -53.5°C | 4.3% | 0hPa | 2.7V | 00:00:00 | 01:13:30 | 00:00:00 | |
| OE5DXL-15 | 2026-09-02 03:02:12 | 48.28820 | 14.86805 | 93° | 64km/h | 15513m | 5.6m/s | -53.5°C | 4.3% | 0hPa | 2.7V | 00:00:00 | 00:00:00 | 00:00:00 | |
| PG1ADW-2 | 2026-09-02 03:02:06 | 48.28824 | 14.86667 | 94° | 64km/h | 15480m | 3.4m/s | -53.5°C | 4.3% | 0hPa | 2.7V | 00:00:00 | 00:00:00 | 00:00:00 | |
| PETON7-10 | 2026-09-02 03:02:05 | 48.28825 | 14.86645 | 95° | 64km/h | 15475m | 5.6m/s | -53.5°C | 4.4% | 0hPa | 2.7V | 00:00:00 | 01:13:22 | 00:00:00 | |
| OK1ALN | 2026-09-02 03:02:03 | 48.28826 | 14.86622 | 94° | 60km/h | 15470m | 4.6m/s | -53.5°C | 1.7% | 0hPa | 2.7V | 00:00:00 | 00:00:00 | 00:00:00 | |
| OE3OSB-13 | 2026-09-02 03:01:50 | 48.28853 | 14.86257 | 95° | 66km/h | 15390m | 5.0m/s | -53.6°C | 1.5% | -1.0hPa | 2.7V | 00:00:00 | 00:00:00 | 00:00:00 | |
| OE3JTB-15 | 2026-09-02 03:01:48 | 48.28855 | 14.86232 | 97° | 73km/h | 15385m | 4.9m/s | -53.5°C | 4.4% | 0hPa | 2.7V | 00:00:00 | 00:00:00 | 00:00:00 | |
| PG1ADW-2 | 2026-09-02 03:01:46 | 48.28859 | 14.86181 | 94° | 73km/h | 15375m | 3.8m/s | -53.5°C | 4.3% | 0hPa | 2.7V | 00:00:00 | 00:00:00 | 08:30:00 | |
| OE5MMP-10 | 2026-09-02 03:01:43 | 48.28862 | 14.86105 | 96° | 77km/h | 15359m | 5.1m/s | -53.7°C | 4.5% | 0hPa | 2.7V | 00:00:00 | 01:13:00 | 00:00:00 | |
| OE5DXL-15 | 2026-09-02 03:01:42 | 48.28864 | 14.86078 | 96° | 75km/h | 15355m | 3.3m/s | -53.7°C | 4.4% | 0hPa | 2.7V | 00:00:00 | 00:00:00 | 00:00:00 | |
| OM5KV | 2026-09-02 03:01:37 | 48.28872 | 14.85964 | 98° | 80km/h | 15334m | 4.8m/s | -53.8°C | 1.7% | 0hPa | 2.7V | 00:00:00 | 00:00:00 | 00:00:00 | |
| OM5KV | 2026-09-02 03:01:36 | 48.28875 | 14.85934 | 97° | 80km/h | 15328m | 6.0m/s | -53.8°C | 1.7% | 0hPa | 2.7V | 00:00:00 | 00:00:00 | 00:00:00 | |
| PETON7-10 | 2026-09-02 03:01:35 | 48.28878 | 14.85874 | 96° | 73km/h | 15318m | 5.3m/s | -53.8°C | 4.4% | 0hPa | 2.7V | 00:00:00 | 00:00:00 | 00:00:00 | |
| OE5MMP-10 | 2026-09-02 03:01:33 | 48.28882 | 14.85816 | 94° | 71km/h | 15308m | 5.2m/s | -53.8°C | 4.5% | 0hPa | 2.7V | 00:00:00 | 01:12:50 | 00:00:00 | |
| OM5KV | 2026-09-02 03:01:32 | 48.28882 | 14.85816 | 95° | 75km/h | 15308m | 5.2m/s | -53.8°C | 1.7% | 0hPa | 2.7V | 00:00:00 | 00:00:00 | 00:00:00 | |
| OE5FHM-15 | 2026-09-02 03:01:30 | 48.28883 | 14.85733 | 91° | 73km/h | 15292m | 5.9m/s | -53.7°C | 4.5% | 0hPa | 2.7V | 00:00:00 | 01:12:47 | 00:00:00 | |
| OM5KV | 2026-09-02 03:01:29 | 48.28883 | 14.85733 | 92° | 69km/h | 15292m | 6.0m/s | -53.8°C | 1.7% | 0hPa | 2.7V | 00:00:00 | 00:00:00 | 00:00:00 | |
| PG1ADW-2 | 2026-09-02 03:01:26 | 48.28884 | 14.85627 | 91° | 75km/h | 15270m | 5.4m/s | -53.7°C | 4.4% | 0hPa | 2.7V | 00:00:00 | 01:12:43 | 00:00:00 | |
| SP3BTT-10 | 2026-09-02 03:01:25 | 48.28884 | 14.85600 | 91° | 71km/h | 15265m | 4.2m/s | -53.7°C | 4.4% | 0hPa | 2.7V | 00:00:00 | 00:00:00 | 00:00:00 | |
| OE5DRO-10 | 2026-09-02 03:01:24 | 48.28884 | 14.85572 | 88° | 75km/h | 15260m | 5.7m/s | -53.7°C | 4.4% | 0hPa | 2.7V | 00:00:00 | 00:00:00 | 00:00:00 | |
| OE5MMP-10 | 2026-09-02 03:01:23 | 48.28883 | 14.85543 | 88° | 75km/h | 15255m | 4.8m/s | -53.7°C | 4.4% | 0hPa | 2.7V | 00:00:00 | 01:12:40 | 00:00:00 | |
| OE8JPQ-2 | 2026-09-02 03:01:22 | 48.28882 | 14.85515 | 87° | 75km/h | 15249m | 6.2m/s | -53.7°C | 4.4% | 0hPa | 2.7V | 00:00:00 | 01:12:39 | 00:00:00 | |
| PETON7-10 | 2026-09-02 03:01:20 | 48.28880 | 14.85460 | 85° | 75km/h | 15239m | 5.0m/s | -53.7°C | 4.4% | 0hPa | 2.7V | 00:00:00 | 01:12:37 | 00:00:00 | |
| OE3JTB-15 | 2026-09-02 03:01:19 | 48.28878 | 14.85431 | 86° | 73km/h | 15234m | 4.2m/s | -53.7°C | 4.4% | 0hPa | 2.7V | 00:00:00 | 01:12:36 | 00:00:00 | |
| OM5KV | 2026-09-02 03:01:18 | 48.28878 | 14.85431 | 86° | 77km/h | 15234m | 4.2m/s | -53.8°C | 1.7% | 0hPa | 2.7V | 00:00:00 | 00:00:00 | 00:00:00 | |
| OM5KV | 2026-09-02 03:01:15 | 48.28875 | 14.85344 | 89° | 77km/h | 15220m | 3.4m/s | -53.7°C | 1.7% | 0hPa | 2.7V | 00:00:00 | 00:00:00 | 00:00:00 | |
| OE5MMP-10 | 2026-09-02 03:01:13 | 48.28872 | 14.85259 | 88° | 73km/h | 15205m | 5.6m/s | -53.7°C | 4.4% | 0hPa | 2.7V | 00:00:00 | 01:12:30 | 00:00:00 | |
| OE5DXL-15 | 2026-09-02 03:01:12 | 48.28871 | 14.85231 | 86° | 71km/h | 15199m | 4.6m/s | -53.6°C | 4.4% | 0hPa | 2.7V | 00:00:00 | 00:00:00 | 00:00:00 | |
| OE5WHR-10 | 2026-09-02 03:01:09 | 48.28865 | 14.85148 | 84° | 71km/h | 15183m | 5.3m/s | -53.6°C | 4.4% | 0hPa | 2.7V | 00:00:00 | 00:00:00 | 00:00:00 | |
| PG1ADW-2 | 2026-09-02 03:01:06 | 48.28858 | 14.85064 | 81° | 71km/h | 15167m | 6.0m/s | -53.5°C | 4.4% | 0hPa | 2.7V | 00:00:00 | 00:00:00 | 00:00:00 | |
| PETON7-10 | 2026-09-02 03:01:05 | 48.28855 | 14.85037 | 79° | 69km/h | 15161m | 4.9m/s | -53.5°C | 4.4% | 0hPa | 2.7V | 00:00:00 | 00:00:00 | 00:00:00 | |
| OM5KV | 2026-09-02 03:01:04 | 48.28854 | 14.85037 | 80° | 69km/h | 15161m | 5.0m/s | -53.5°C | 1.7% | 0hPa | 2.7V | 00:00:00 | 00:00:00 | 00:00:00 | |
| OE3OSB-13 | 2026-09-02 03:00:47 | 48.28778 | 14.84572 | 70° | 69km/h | 15062m | 3.9m/s | -53.3°C | 1.5% | -1.0hPa | 2.7V | 00:00:00 | 00:00:00 | 00:00:00 | |
| PG1ADW-2 | 2026-09-02 03:00:46 | 48.28772 | 14.84546 | 71° | 68km/h | 15058m | 4.7m/s | -53.3°C | 4.4% | 0hPa | 2.7V | 00:00:00 | 00:00:00 | 00:00:00 | |
| OM5KV | 2026-09-02 03:00:45 | 48.28771 | 14.84546 | 71° | 71km/h | 15058m | 4.8m/s | -53.3°C | 1.7% | 0hPa | 2.6V | 00:00:00 | 00:00:00 | 00:00:00 | |
| OM5KV | 2026-09-02 03:00:44 | 48.28766 | 14.84521 | 72° | 73km/h | 15053m | 5.7m/s | -53.3°C | 1.7% | 0hPa | 2.6V | 00:00:00 | 00:00:00 | 00:00:00 | |
| OE5MMP-10 | 2026-09-02 03:00:43 | 48.28753 | 14.84469 | 70° | 68km/h | 15042m | 5.9m/s | -53.2°C | 4.3% | 0hPa | 2.6V | 00:00:00 | 01:12:00 | 00:00:00 | |
| OE8JPQ-2 | 2026-09-02 03:00:42 | 48.28746 | 14.84444 | 69° | 68km/h | 15037m | 5.2m/s | -53.1°C | 4.3% | 0hPa | 2.6V | 00:00:00 | 00:00:00 | 00:00:00 | |
| OK1ALN | 2026-09-02 03:00:41 | 48.28746 | 14.84444 | 69° | 73km/h | 15037m | 5.2m/s | -53.2°C | 1.6% | 0hPa | 2.6V | 00:00:00 | 00:00:00 | 00:00:00 | |
| OM5KV | 2026-09-02 03:00:39 | 48.28733 | 14.84394 | 69° | 69km/h | 15025m | 5.9m/s | -53.1°C | 1.7% | 0hPa | 2.6V | 00:00:00 | 00:00:00 | 00:00:00 | |
| DG1MFX-10 | 2026-09-02 03:00:38 | 48.28727 | 14.84371 | 71° | 66km/h | 15020m | 5.0m/s | -53.1°C | 1.7% | 0hPa | 2.6V | 00:00:00 | 00:00:00 | 00:00:00 | |
| PETON7-10 | 2026-09-02 03:00:35 | 48.28705 | 14.84275 | 70° | 66km/h | 15001m | 5.7m/s | -53.1°C | 4.3% | 0hPa | 2.6V | 00:00:00 | 01:11:52 | 00:00:00 | |
| OE5MMP-10 | 2026-09-02 03:00:33 | 48.28693 | 14.84229 | 67° | 66km/h | 14990m | 6.3m/s | -53.0°C | 4.3% | 0hPa | 2.6V | 00:00:00 | 01:11:50 | 00:00:00 | |
| OE5FHM-15 | 2026-09-02 03:00:30 | 48.28671 | 14.84161 | 63° | 68km/h | 14973m | 4.3m/s | -53.0°C | 4.3% | 0hPa | 2.6V | 00:00:00 | 01:11:47 | 08:30:00 | |
| OE5WHR-10 | 2026-09-02 03:00:27 | 48.28650 | 14.84093 | 67° | 68km/h | 14958m | 5.7m/s | -52.9°C | 4.2% | 0hPa | 2.7V | 00:00:00 | 00:00:00 | 00:00:00 | |
| PG1ADW-2 | 2026-09-02 03:00:26 | 48.28643 | 14.84070 | 67° | 68km/h | 14953m | 4.6m/s | -52.9°C | 4.3% | 0hPa | 2.6V | 00:00:00 | 00:00:00 | 00:00:00 | |
| SP3BTT-10 | 2026-09-02 03:00:25 | 48.28636 | 14.84047 | 69° | 69km/h | 14947m | 6.5m/s | -52.9°C | 4.3% | 0hPa | 2.6V | 00:00:00 | 00:00:00 | 00:00:00 | |
| OE5MMP-10 | 2026-09-02 03:00:23 | 48.28624 | 14.83999 | 69° | 66km/h | 14936m | 6.4m/s | -52.9°C | 4.3% | 0hPa | 2.7V | 00:00:00 | 01:11:40 | 08:30:00 | |
| OE8JPQ-2 | 2026-09-02 03:00:22 | 48.28618 | 14.83977 | 66° | 68km/h | 14931m | 4.7m/s | -52.9°C | 4.3% | 0hPa | 2.6V | 00:00:00 | 01:11:39 | 00:00:00 | |
| OE3JTB-15 | 2026-09-02 03:00:21 | 48.28611 | 14.83954 | 69° | 68km/h | 14925m | 5.7m/s | -52.9°C | 4.3% | 0hPa | 2.6V | 00:00:00 | 00:00:00 | 00:00:00 | |
| PETON7-10 | 2026-09-02 03:00:20 | 48.28605 | 14.83931 | 69° | 68km/h | 14919m | 5.9m/s | -52.9°C | 4.3% | 0hPa | 2.6V | 00:00:00 | 00:00:00 | 08:30:00 | |
| DG1MFX-10 | 2026-09-02 03:00:17 | 48.28593 | 14.83885 | 68° | 64km/h | 14909m | 5.7m/s | -53.0°C | 1.7% | 0hPa | 2.6V | 00:00:00 | 00:00:00 | 00:00:00 | |
| OE3OSB-13 | 2026-09-02 03:00:16 | 48.28581 | 14.83840 | 71° | 66km/h | 14898m | 6.0m/s | -53.1°C | 1.5% | -1.0hPa | 2.6V | 00:00:00 | 00:00:00 | 00:00:00 | |
| OE5MMP-10 | 2026-09-02 03:00:13 | 48.28566 | 14.83767 | 72° | 69km/h | 14881m | 4.6m/s | -53.0°C | 4.4% | 0hPa | 2.6V | 00:00:00 | 01:11:30 | 00:00:00 | |
| OE5DXL-15 | 2026-09-02 03:00:12 | 48.28560 | 14.83742 | 73° | 69km/h | 14875m | 6.0m/s | -52.9°C | 4.4% | 0hPa | 2.6V | 00:00:00 | 00:00:00 | 00:00:00 | |
| OM5KV | 2026-09-02 03:00:11 | 48.28560 | 14.83742 | 74° | 71km/h | 14875m | 6.0m/s | -53.0°C | 1.7% | 0hPa | 2.7V | 00:00:00 | 00:00:00 | 00:00:00 | |
| DO3MHA-12 | 2026-09-02 03:00:10 | 48.28550 | 14.83690 | 76° | 69km/h | 14863m | 4.8m/s | -52.9°C | 4.3% | 0hPa | 2.7V | 00:00:00 | 01:11:27 | 08:30:00 | |
| OE5HKT-10 | 2026-09-02 03:00:09 | 48.28546 | 14.83665 | 74° | 84km/h | 14857m | 5.7m/s | -52.8°C | 4.3% | 0hPa | 2.7V | 00:00:00 | 00:00:00 | 00:00:00 | |
| OE5DRO-10 | 2026-09-02 03:00:08 | 48.28541 | 14.83640 | 75° | 69km/h | 14852m | 4.1m/s | -52.8°C | 4.3% | 0hPa | 2.7V | 00:00:00 | 00:00:00 | 00:00:00 | |
| OE5WHR-10 | 2026-09-02 03:00:06 | 48.28532 | 14.83590 | 75° | 69km/h | 14841m | 4.6m/s | -52.7°C | 4.3% | 0hPa | 2.7V | 00:00:00 | 00:00:00 | 00:00:00 | |
| PETON7-10 | 2026-09-02 03:00:05 | 48.28527 | 14.83564 | 73° | 69km/h | 14835m | 5.8m/s | -52.7°C | 4.3% | 0hPa | 2.7V | 00:00:00 | 00:00:00 | 00:00:00 | |
| OE5MMP-10 | 2026-09-02 03:00:03 | 48.28517 | 14.83513 | 77° | 68km/h | 14825m | 5.3m/s | -52.6°C | 4.3% | 0hPa | 2.7V | 00:00:00 | 01:11:20 | 00:00:00 | |
| OE8JPQ-2 | 2026-09-02 03:00:02 | 48.28513 | 14.83488 | 77° | 68km/h | 14820m | 4.5m/s | -52.5°C | 4.3% | 0hPa | 2.7V | 00:00:00 | 00:00:00 | 00:00:00 | |
| OE5FHM-15 | 2026-09-02 03:00:00 | 48.28506 | 14.83437 | 77° | 66km/h | 14809m | 4.2m/s | -52.4°C | 4.2% | 0hPa | 2.6V | 00:00:00 | 01:11:17 | 00:00:00 | |
| OM5KV | 2026-09-02 02:59:59 | 48.28506 | 14.83437 | 78° | 68km/h | 14809m | 4.2m/s | -52.5°C | 1.7% | 0hPa | 2.6V | 00:00:00 | 00:00:00 | 00:00:00 | |
| DG1MFX-10 | 2026-09-02 02:59:56 | 48.28495 | 14.83362 | 79° | 68km/h | 14792m | 4.9m/s | -52.3°C | 1.7% | 0hPa | 2.6V | 00:00:00 | 00:00:00 | 00:00:00 | |
| SP3BTT-10 | 2026-09-02 02:59:55 | 48.28489 | 14.83311 | 81° | 66km/h | 14782m | 6.0m/s | -52.2°C | 4.3% | 0hPa | 2.6V | 00:00:00 | 00:00:00 | 00:00:00 | |
| OE5MMP-10 | 2026-09-02 02:59:53 | 48.28482 | 14.83261 | 78° | 68km/h | 14774m | 5.0m/s | -52.1°C | 4.2% | 0hPa | 2.6V | 00:00:00 | 01:11:10 | 00:00:00 | |
| OE3JTB-15 | 2026-09-02 02:59:52 | 48.28478 | 14.83236 | 75° | 64km/h | 14769m | 4.4m/s | -52.1°C | 4.2% | 0hPa | 2.7V | 00:00:00 | 01:11:09 | 00:00:00 | |
| PETON7-10 | 2026-09-02 02:59:50 | 48.28470 | 14.83184 | 76° | 66km/h | 14758m | 4.5m/s | -52.0°C | 4.2% | 0hPa | 2.7V | 00:00:00 | 01:11:07 | 00:00:00 | |
| OE5DRO-10 | 2026-09-02 02:59:49 | 48.28466 | 14.83158 | 76° | 66km/h | 14753m | 6.2m/s | -51.9°C | 4.2% | 0hPa | 2.7V | 00:00:00 | 00:00:00 | 00:00:00 | |
| OM5KV | 2026-09-02 02:59:48 | 48.28466 | 14.83158 | 77° | 69km/h | 14753m | 6.3m/s | -52.0°C | 1.6% | 0hPa | 2.6V | 00:00:00 | 00:00:00 | 00:00:00 | |
| OM5KV | 2026-09-02 02:59:47 | 48.28461 | 14.83133 | 75° | 66km/h | 14747m | 4.4m/s | -52.0°C | 1.7% | 0hPa | 2.6V | 00:00:00 | 00:00:00 | 00:00:00 | |
| PG1ADW-2 | 2026-09-02 02:59:46 | 48.28453 | 14.83084 | 79° | 64km/h | 14738m | 5.5m/s | -51.8°C | 4.1% | 0hPa | 2.6V | 00:00:00 | 00:00:00 | 00:00:00 | |
| OE5WHR-10 | 2026-09-02 02:59:45 | 48.28451 | 14.83060 | 82° | 64km/h | 14733m | 4.5m/s | -51.8°C | 4.1% | 0hPa | 2.7V | 00:00:00 | 01:11:02 | 00:00:00 | |
| DO3MHA-12 | 2026-09-02 02:59:43 | 48.28445 | 14.83011 | 81° | 64km/h | 14722m | 4.5m/s | -51.7°C | 4.1% | 0hPa | 2.7V | 00:00:00 | 01:11:00 | 00:00:00 | |
| OE5DXL-15 | 2026-09-02 02:59:42 | 48.28442 | 14.82986 | 82° | 62km/h | 14716m | 6.7m/s | -51.7°C | 4.0% | 0hPa | 2.7V | 00:00:00 | 00:00:00 | 00:00:00 | |
| OK1ALN | 2026-09-02 02:59:40 | 48.28440 | 14.82961 | 84° | 66km/h | 14710m | 4.6m/s | -51.7°C | 1.6% | 0hPa | 2.7V | 00:00:00 | 00:00:00 | 00:00:00 | |
| DG1MFX-10 | 2026-09-02 02:59:36 | 48.28430 | 14.82866 | 84° | 62km/h | 14688m | 5.4m/s | -51.5°C | 1.6% | 0hPa | 2.7V | 00:00:00 | 00:00:00 | 00:00:00 | |
| PETON7-10 | 2026-09-02 02:59:35 | 48.28425 | 14.82819 | 81° | 62km/h | 14676m | 4.9m/s | -51.4°C | 4.0% | 0hPa | 2.7V | 00:00:00 | 00:00:00 | 00:00:00 | |
| DO3MHA-12 | 2026-09-02 02:59:33 | 48.28421 | 14.82772 | 84° | 62km/h | 14666m | 5.1m/s | -51.5°C | 4.1% | 0hPa | 2.6V | 00:00:00 | 01:10:50 | 00:00:00 | |
| OM5KV | 2026-09-02 02:59:31 | 48.28419 | 14.82747 | 83° | 66km/h | 14661m | 5.3m/s | -51.6°C | 1.6% | 0hPa | 2.7V | 00:00:00 | 00:00:00 | 00:00:00 | |
| OE5FHM-15 | 2026-09-02 02:59:30 | 48.28413 | 14.82697 | 82° | 64km/h | 14651m | 4.7m/s | -51.6°C | 4.0% | 0hPa | 2.7V | 00:00:00 | 01:10:47 | 00:00:00 | |
| PG1ADW-2 | 2026-09-02 02:59:26 | 48.28406 | 14.82604 | 86° | 62km/h | 14629m | 4.6m/s | -51.8°C | 4.1% | 0hPa | 2.7V | 00:00:00 | 00:00:00 | 00:00:00 | |
| SP3BTT-10 | 2026-09-02 02:59:25 | 48.28405 | 14.82581 | 88° | 69km/h | 14624m | 5.9m/s | -51.8°C | 4.1% | 0hPa | 2.7V | 00:00:00 | 00:00:00 | 00:00:00 | |
| OE5WHR-10 | 2026-09-02 02:59:24 | 48.28405 | 14.82558 | 89° | 64km/h | 14619m | 3.3m/s | -51.9°C | 4.1% | 0hPa | 2.7V | 00:00:00 | 00:00:00 | 08:30:00 | |
| DO3MHA-12 | 2026-09-02 02:59:23 | 48.28404 | 14.82536 | 86° | 60km/h | 14615m | 5.8m/s | -51.9°C | 4.1% | 0hPa | 2.7V | 00:00:00 | 01:10:40 | 00:00:00 | |
| OE8JPQ-2 | 2026-09-02 02:59:22 | 48.28403 | 14.82512 | 86° | 64km/h | 14610m | 3.9m/s | -51.9°C | 4.1% | 0hPa | 2.7V | 00:00:00 | 01:10:39 | 00:00:00 | |
| PETON7-10 | 2026-09-02 02:59:20 | 48.28401 | 14.82466 | 87° | 62km/h | 14600m | 5.0m/s | -51.9°C | 4.1% | 0hPa | 2.7V | 00:00:00 | 00:00:00 | 00:00:00 | |
| OK1ALN | 2026-09-02 02:59:19 | 48.28401 | 14.82466 | 87° | 62km/h | 14600m | 5.1m/s | -52.0°C | 1.7% | 0hPa | 2.7V | 00:00:00 | 00:00:00 | 00:00:00 | |
| OM5KV | 2026-09-02 02:59:17 | 48.28400 | 14.82420 | 90° | 60km/h | 14589m | 3.8m/s | -52.1°C | 1.7% | 0hPa | 2.7V | 00:00:00 | 00:00:00 | 00:00:00 | |
| DG1MFX-10 | 2026-09-02 02:59:16 | 48.28400 | 14.82397 | 91° | 60km/h | 14584m | 5.6m/s | -52.1°C | 1.7% | 0hPa | 2.7V | 00:00:00 | 00:00:00 | 00:00:00 | |
| OE3OSB-13 | 2026-09-02 02:59:14 | 48.28401 | 14.82329 | 91° | 60km/h | 14568m | 4.5m/s | -52.1°C | 1.5% | -1.0hPa | 2.7V | 00:00:00 | 00:00:00 | 00:00:00 | |
| DO3MHA-12 | 2026-09-02 02:59:13 | 48.28402 | 14.82306 | 93° | 66km/h | 14563m | 5.2m/s | -52.0°C | 4.1% | 0hPa | 2.7V | 00:00:00 | 01:10:30 | 00:00:00 | |
| OE5DXL-15 | 2026-09-02 02:59:12 | 48.28403 | 14.82283 | 97° | 75km/h | 14558m | 4.5m/s | -52.0°C | 4.2% | 0hPa | 2.7V | 00:00:00 | 00:00:00 | 00:00:00 | |
| OE5DRO-10 | 2026-09-02 02:59:11 | 48.28405 | 14.82260 | 96° | 71km/h | 14554m | 3.5m/s | -52.0°C | 4.2% | 0hPa | 2.7V | 00:00:00 | 00:00:00 | 00:00:00 | |
| OM5KV | 2026-09-02 02:59:08 | 48.28407 | 14.82211 | 94° | 66km/h | 14544m | 4.5m/s | -52.0°C | 1.7% | 0hPa | 2.7V | 00:00:00 | 00:00:00 | 00:00:00 | |
| PG1ADW-2 | 2026-09-02 02:59:06 | 48.28412 | 14.82134 | 98° | 75km/h | 14529m | 5.6m/s | -51.9°C | 4.2% | 0hPa | 2.7V | 00:00:00 | 00:00:00 | 00:00:00 | |
| PETON7-10 | 2026-09-02 02:59:05 | 48.28415 | 14.82109 | 96° | 73km/h | 14523m | 4.7m/s | -51.9°C | 4.2% | 0hPa | 2.7V | 00:00:00 | 01:10:22 | 00:00:00 | |
| OE8JPQ-2 | 2026-09-02 02:59:02 | 48.28421 | 14.82030 | 98° | 78km/h | 14507m | 6.2m/s | -51.9°C | 4.1% | 0hPa | 2.7V | 00:00:00 | 00:00:00 | 08:30:00 | |
| OE5FHM-15 | 2026-09-02 02:59:00 | 48.28425 | 14.81976 | 97° | 84km/h | 14496m | 6.0m/s | -52.0°C | 4.1% | 0hPa | 2.7V | 00:00:00 | 01:10:17 | 00:00:00 | |
| OK1ALN | 2026-09-02 02:58:58 | 48.28427 | 14.81948 | 95° | 73km/h | 14491m | 4.4m/s | -52.1°C | 1.7% | 0hPa | 2.6V | 00:00:00 | 00:00:00 | 00:00:00 | |
| DG1MFX-10 | 2026-09-02 02:58:55 | 48.28431 | 14.81866 | 97° | 75km/h | 14474m | 6.8m/s | -52.3°C | 1.7% | 0hPa | 2.6V | 00:00:00 | 00:00:00 | 00:00:00 | |
| OE3JTB-15 | 2026-09-02 02:58:54 | 48.28437 | 14.81810 | 99° | 88km/h | 14464m | 4.6m/s | -52.4°C | 4.2% | 0hPa | 2.6V | 00:00:00 | 00:00:00 | 00:00:00 | |
| DO3MHA-12 | 2026-09-02 02:58:53 | 48.28439 | 14.81782 | 98° | 84km/h | 14460m | 4.1m/s | -52.4°C | 4.2% | 0hPa | 2.6V | 00:00:00 | 01:10:10 | 00:00:00 | |
| OE5DRO-10 | 2026-09-02 02:58:52 | 48.28442 | 14.81753 | 98° | 88km/h | 14455m | 4.2m/s | -52.4°C | 4.2% | 0hPa | 2.6V | 00:00:00 | 00:00:00 | 00:00:00 | |
| PETON7-10 | 2026-09-02 02:58:50 | 48.28447 | 14.81694 | 98° | 88km/h | 14446m | 4.3m/s | -52.4°C | 4.2% | 0hPa | 2.7V | 00:00:00 | 00:00:00 | 00:00:00 | |
| OM5KV | 2026-09-02 02:58:48 | 48.28449 | 14.81664 | 97° | 78km/h | 14440m | 7.3m/s | -52.5°C | 1.7% | 0hPa | 2.7V | 00:00:00 | 00:00:00 | 00:00:00 | |
| PG1ADW-2 | 2026-09-02 02:58:46 | 48.28455 | 14.81571 | 94° | 91km/h | 14423m | 4.4m/s | -52.5°C | 4.3% | 0hPa | 2.7V | 00:00:00 | 01:10:03 | 08:30:00 | |
| OE5MMP-10 | 2026-09-02 02:58:43 | 48.28456 | 14.81473 | 91° | 91km/h | 14407m | 6.0m/s | -52.6°C | 4.3% | 0hPa | 2.7V | 00:00:00 | 01:10:00 | 00:00:00 | |
| OE8JPQ-2 | 2026-09-02 02:58:42 | 48.28456 | 14.81439 | 92° | 91km/h | 14402m | 4.0m/s | -52.6°C | 4.4% | 0hPa | 2.7V | 00:00:00 | 00:00:00 | 00:00:00 | |
| OM5KV | 2026-09-02 02:58:40 | 48.28456 | 14.81406 | 92° | 88km/h | 14397m | 6.2m/s | -52.7°C | 1.8% | 0hPa | 2.7V | 00:00:00 | 00:00:00 | 00:00:00 | |
| OK1ALN | 2026-09-02 02:58:38 | 48.28458 | 14.81338 | 93° | 93km/h | 14386m | 6.0m/s | -52.8°C | 1.9% | 0hPa | 2.7V | 00:00:00 | 00:00:00 | 00:00:00 | |
| DO3MHA-12 | 2026-09-02 02:58:37 | 48.28459 | 14.81268 | 92° | 93km/h | 14376m | 5.5m/s | -52.8°C | 4.5% | 0hPa | 2.7V | 00:00:00 | 01:09:54 | 00:00:00 | |
| PETON7-10 | 2026-09-02 02:58:35 | 48.28459 | 14.81199 | 90° | 91km/h | 14367m | 4.0m/s | -52.9°C | 4.5% | 0hPa | 2.7V | 00:00:00 | 00:00:00 | 00:00:00 | |
| DG1MFX-10 | 2026-09-02 02:58:34 | 48.28459 | 14.81199 | 90° | 93km/h | 14367m | 4.0m/s | -52.9°C | 1.9% | 0hPa | 2.7V | 00:00:00 | 00:00:00 | 00:00:00 | |
| OE5MMP-10 | 2026-09-02 02:58:33 | 48.28458 | 14.81128 | 89° | 91km/h | 14357m | 5.0m/s | -52.9°C | 4.6% | 0hPa | 2.7V | 00:00:00 | 01:09:50 | 00:00:00 | |
| OE5FHM-15 | 2026-09-02 02:58:30 | 48.28456 | 14.81022 | 87° | 82km/h | 14342m | 3.8m/s | -52.9°C | 4.5% | 0hPa | 2.7V | 00:00:00 | 01:09:47 | 00:00:00 | |
| OM5KV | 2026-09-02 02:58:29 | 48.28455 | 14.81022 | 88° | 93km/h | 14342m | 3.8m/s | -52.9°C | 1.9% | 0hPa | 2.7V | 00:00:00 | 00:00:00 | 00:00:00 | |
| DO3MHA-12 | 2026-09-02 02:58:27 | 48.28451 | 14.80918 | 89° | 84km/h | 14327m | 5.5m/s | -52.8°C | 4.5% | 0hPa | 2.7V | 00:00:00 | 01:09:44 | 08:30:00 | |
| PG1ADW-2 | 2026-09-02 02:58:26 | 48.28451 | 14.80883 | 89° | 84km/h | 14322m | 3.6m/s | -52.8°C | 4.5% | 0hPa | 2.7V | 00:00:00 | 00:00:00 | 00:00:00 | |
| OE3JTB-15 | 2026-09-02 02:58:25 | 48.28450 | 14.80849 | 88° | 80km/h | 14317m | 6.0m/s | -52.8°C | 4.4% | 0hPa | 2.7V | 00:00:00 | 01:09:42 | 00:00:00 | |
| OM5KV | 2026-09-02 02:58:24 | 48.28450 | 14.80849 | 88° | 88km/h | 14317m | 6.0m/s | -52.9°C | 1.9% | 0hPa | 2.7V | 00:00:00 | 00:00:00 | 00:00:00 | |
| OE5MMP-10 | 2026-09-02 02:58:23 | 48.28448 | 14.80783 | 89° | 84km/h | 14306m | 5.4m/s | -53.0°C | 4.4% | 0hPa | 2.7V | 00:00:00 | 01:09:40 | 00:00:00 | |
| OE5WHR-10 | 2026-09-02 02:58:21 | 48.28446 | 14.80715 | 86° | 80km/h | 14297m | 5.1m/s | -53.1°C | 4.5% | 0hPa | 2.7V | 00:00:00 | 00:00:00 | 00:00:00 | |
| PETON7-10 | 2026-09-02 02:58:20 | 48.28444 | 14.80682 | 84° | 80km/h | 14292m | 4.9m/s | -53.3°C | 4.6% | 0hPa | 2.7V | 00:00:00 | 01:09:37 | 00:00:00 | |
| OM5KV | 2026-09-02 02:58:19 | 48.28444 | 14.80682 | 85° | 86km/h | 14292m | 5.0m/s | -53.3°C | 2.0% | 0hPa | 2.7V | 00:00:00 | 00:00:00 | 00:00:00 | |
| OK1ALN | 2026-09-02 02:58:17 | 48.28440 | 14.80616 | 87° | 89km/h | 14282m | 4.8m/s | -53.5°C | 2.0% | 0hPa | 2.7V | 00:00:00 | 00:00:00 | 00:00:00 | |
| OE5DRO-10 | 2026-09-02 02:58:14 | 48.28435 | 14.80494 | 90° | 77km/h | 14264m | 5.6m/s | -53.7°C | 4.8% | 0hPa | 2.7V | 00:00:00 | 00:00:00 | 00:00:00 | |
| OE5MMP-10 | 2026-09-02 02:58:13 | 48.28435 | 14.80465 | 92° | 78km/h | 14259m | 4.7m/s | -53.7°C | 4.8% | 0hPa | 2.7V | 00:00:00 | 01:09:30 | 00:00:00 | |
| OE5DXL-15 | 2026-09-02 02:58:12 | 48.28436 | 14.80436 | 91° | 75km/h | 14253m | 6.0m/s | -53.8°C | 4.8% | 0hPa | 2.7V | 00:00:00 | 00:00:00 | 00:00:00 | |
| PG1ADW-2 | 2026-09-02 02:58:06 | 48.28433 | 14.80255 | 87° | 75km/h | 14226m | 3.7m/s | -53.6°C | 4.8% | 0hPa | 2.7V | 00:00:00 | 00:00:00 | 00:00:00 | |
| PETON7-10 | 2026-09-02 02:58:05 | 48.28432 | 14.80227 | 88° | 75km/h | 14221m | 4.4m/s | -53.6°C | 4.9% | 0hPa | 2.7V | 00:00:00 | 00:00:00 | 08:30:00 | |
| OE5MMP-10 | 2026-09-02 02:58:03 | 48.28430 | 14.80172 | 86° | 77km/h | 14212m | 5.3m/s | -53.5°C | 4.9% | 0hPa | 2.7V | 00:00:00 | 01:09:20 | 00:00:00 | |
| OE5FHM-15 | 2026-09-02 02:58:00 | 48.28427 | 14.80086 | 91° | 77km/h | 14198m | 4.7m/s | -53.5°C | 4.8% | 0hPa | 2.7V | 00:00:00 | 01:09:17 | 00:00:00 | |
| OM5KV | 2026-09-02 02:57:59 | 48.28427 | 14.80086 | 92° | 77km/h | 14198m | 4.7m/s | -53.5°C | 2.1% | 0hPa | 2.7V | 00:00:00 | 00:00:00 | 00:00:00 | |
| OE3JTB-15 | 2026-09-02 02:57:56 | 48.28425 | 14.79967 | 90° | 77km/h | 14180m | 6.0m/s | -53.4°C | 4.9% | 0hPa | 2.7V | 00:00:00 | 00:00:00 | 08:30:00 | |
| SP3BTT-10 | 2026-09-02 02:57:55 | 48.28425 | 14.79938 | 91° | 77km/h | 14175m | 3.0m/s | 0°C | 0% | 0hPa | 2.7V | 00:00:00 | 00:00:00 | 00:00:00 | |
| OE5MMP-10 | 2026-09-02 02:57:53 | 48.28425 | 14.79882 | 90° | 73km/h | 14166m | 4.8m/s | -53.3°C | 4.8% | 0hPa | 2.7V | 00:00:00 | 01:09:10 | 00:00:00 | |
| PETON7-10 | 2026-09-02 02:57:50 | 48.28428 | 14.79800 | 96° | 75km/h | 14150m | 4.5m/s | -53.3°C | 4.8% | 0hPa | 2.7V | 00:00:00 | 00:00:00 | 00:00:00 | |
| OM5KV | 2026-09-02 02:57:47 | 48.28431 | 14.79747 | 96° | 71km/h | 14140m | 4.0m/s | -53.4°C | 2.1% | 0hPa | 2.7V | 00:00:00 | 00:00:00 | 00:00:00 | |
| PG1ADW-2 | 2026-09-02 02:57:46 | 48.28434 | 14.79692 | 94° | 80km/h | 14129m | 3.8m/s | -53.3°C | 4.8% | 0hPa | 2.7V | 00:00:00 | 00:00:00 | 00:00:00 | |
| OE5MMP-10 | 2026-09-02 02:57:43 | 48.28436 | 14.79608 | 94° | 78km/h | 14113m | 5.9m/s | -53.3°C | 4.7% | 0hPa | 2.7V | 00:00:00 | 01:09:00 | 00:00:00 | |
| OE5DXL-15 | 2026-09-02 02:57:42 | 48.28438 | 14.79580 | 96° | 86km/h | 14108m | 4.6m/s | -53.3°C | 4.7% | 0hPa | 2.7V | 00:00:00 | 00:00:00 | 00:00:00 | |
| OE3OSB-13 | 2026-09-02 02:57:41 | 48.28439 | 14.79551 | 93° | 75km/h | 14103m | 5.1m/s | -53.3°C | 1.9% | -1.0hPa | 2.7V | 00:00:00 | 00:00:00 | 00:00:00 | |
| OE8JPQ-2 | 2026-09-02 02:57:40 | 48.28440 | 14.79523 | 94° | 84km/h | 14098m | 4.8m/s | -53.2°C | 4.7% | 0hPa | 2.7V | 00:00:00 | 00:00:00 | 00:00:00 | |
| OE5WHR-10 | 2026-09-02 02:57:39 | 48.28442 | 14.79494 | 95° | 84km/h | 14092m | 5.8m/s | -53.2°C | 4.7% | 0hPa | 2.7V | 00:00:00 | 01:08:56 | 00:00:00 | |
| OE5DRO-10 | 2026-09-02 02:57:36 | 48.28445 | 14.79403 | 92° | 86km/h | 14077m | 3.8m/s | -53.2°C | 4.7% | 0hPa | 2.7V | 00:00:00 | 00:00:00 | 00:00:00 | |
| DO3MHA-12 | 2026-09-02 02:57:35 | 48.28445 | 14.79373 | 92° | 82km/h | 14073m | 5.8m/s | -53.2°C | 4.7% | 0hPa | 2.7V | 00:00:00 | 01:08:52 | 00:00:00 | |
| OM5KV | 2026-09-02 02:57:34 | 48.28445 | 14.79373 | 92° | 82km/h | 14073m | 5.8m/s | -53.3°C | 2.1% | 0hPa | 2.7V | 00:00:00 | 00:00:00 | 00:00:00 | |
| OE5MMP-10 | 2026-09-02 02:57:33 | 48.28447 | 14.79310 | 91° | 84km/h | 14062m | 6.1m/s | -53.3°C | 4.7% | 0hPa | 2.7V | 00:00:00 | 01:08:50 | 00:00:00 | |
| OE5FHM-15 | 2026-09-02 02:57:30 | 48.28449 | 14.79215 | 96° | 89km/h | 14047m | 4.0m/s | -53.4°C | 4.8% | 0hPa | 2.7V | 00:00:00 | 01:08:47 | 00:00:00 | |
| OE3JTB-15 | 2026-09-02 02:57:27 | 48.28456 | 14.79123 | 98° | 91km/h | 14033m | 4.4m/s | -53.4°C | 4.8% | 0hPa | 2.7V | 00:00:00 | 00:00:00 | 00:00:00 | |
| PG1ADW-2 | 2026-09-02 02:57:26 | 48.28459 | 14.79091 | 100° | 91km/h | 14028m | 4.7m/s | -53.5°C | 4.8% | 0hPa | 2.7V | 00:00:00 | 01:08:43 | 00:00:00 | |
| DO3MHA-12 | 2026-09-02 02:57:25 | 48.28462 | 14.79059 | 99° | 89km/h | 14024m | 3.1m/s | -53.4°C | 4.8% | 0hPa | 2.7V | 00:00:00 | 01:08:42 | 00:00:00 | |
| OE5MMP-10 | 2026-09-02 02:57:23 | 48.28468 | 14.78994 | 98° | 91km/h | 14016m | 3.8m/s | -53.4°C | 4.9% | 0hPa | 2.7V | 00:00:00 | 01:08:40 | 08:30:00 | |
| OM5KV | 2026-09-02 02:57:21 | 48.28471 | 14.78961 | 99° | 89km/h | 14011m | 5.8m/s | -53.5°C | 2.1% | 0hPa | 2.7V | 00:00:00 | 00:00:00 | 00:00:00 | |
| PETON7-10 | 2026-09-02 02:57:20 | 48.28477 | 14.78892 | 96° | 93km/h | 14002m | 5.0m/s | -53.6°C | 4.8% | 0hPa | 2.7V | 00:00:00 | 00:00:00 | 00:00:00 | |
| OE5WHR-10 | 2026-09-02 02:57:18 | 48.28480 | 14.78823 | 94° | 91km/h | 13993m | 4.9m/s | -53.6°C | 4.9% | 0hPa | 2.7V | 00:00:00 | 00:00:00 | 00:00:00 | |
| OK1ALN | 2026-09-02 02:57:16 | 48.28481 | 14.78788 | 95° | 93km/h | 13988m | 4.0m/s | -53.7°C | 2.2% | 0hPa | 2.7V | 00:00:00 | 00:00:00 | 00:00:00 | |
| DO3MHA-12 | 2026-09-02 02:57:15 | 48.28484 | 14.78718 | 93° | 93km/h | 13980m | 5.1m/s | -53.7°C | 4.8% | 0hPa | 2.7V | 00:00:00 | 01:08:32 | 00:00:00 | |
| OE5MMP-10 | 2026-09-02 02:57:13 | 48.28486 | 14.78650 | 94° | 93km/h | 13970m | 4.2m/s | -53.7°C | 4.8% | 0hPa | 2.7V | 00:00:00 | 01:08:30 | 00:00:00 | |
| OE5DXL-15 | 2026-09-02 02:57:12 | 48.28488 | 14.78616 | 94° | 89km/h | 13965m | 4.8m/s | -53.8°C | 4.9% | 0hPa | 2.7V | 00:00:00 | 00:00:00 | 00:00:00 | |
| OE3OSB-13 | 2026-09-02 02:57:10 | 48.28489 | 14.78548 | 90° | 89km/h | 13956m | 5.0m/s | -54.0°C | 2.0% | -1.0hPa | 2.7V | 00:00:00 | 00:00:00 | 00:00:00 | |
| DG1MFX-10 | 2026-09-02 02:57:08 | 48.28490 | 14.78513 | 92° | 95km/h | 13951m | 5.0m/s | -54.1°C | 2.2% | 0hPa | 2.7V | 00:00:00 | 00:00:00 | 00:00:00 | |
| PG1ADW-2 | 2026-09-02 02:57:06 | 48.28488 | 14.78404 | 86° | 89km/h | 13936m | 4.1m/s | -54.0°C | 5.0% | 0hPa | 2.7V | 00:00:00 | 00:00:00 | 00:00:00 | |
| PETON7-10 | 2026-09-02 02:57:05 | 48.28486 | 14.78368 | 88° | 91km/h | 13931m | 5.5m/s | -54.0°C | 5.0% | 0hPa | 2.7V | 00:00:00 | 00:00:00 | 00:00:00 | |
| OE5FHM-15 | 2026-09-02 02:57:00 | 48.28475 | 14.78195 | 85° | 86km/h | 13907m | 4.3m/s | -53.8°C | 5.0% | 0hPa | 2.7V | 00:00:00 | 01:08:17 | 00:00:00 | |
| OM5KV | 2026-09-02 02:56:59 | 48.28475 | 14.78195 | 85° | 91km/h | 13907m | 4.3m/s | -53.9°C | 2.2% | 0hPa | 2.7V | 00:00:00 | 00:00:00 | 00:00:00 | |
| OE5DRO-10 | 2026-09-02 02:56:58 | 48.28469 | 14.78127 | 83° | 88km/h | 13898m | 5.5m/s | -53.8°C | 4.9% | 0hPa | 2.7V | 00:00:00 | 00:00:00 | 00:00:00 | |
| OE5WHR-10 | 2026-09-02 02:56:57 | 48.28466 | 14.78093 | 83° | 86km/h | 13892m | 5.1m/s | -53.7°C | 5.0% | 0hPa | 2.7V | 00:00:00 | 00:00:00 | 00:00:00 | |
| DO3MHA-12 | 2026-09-02 02:56:55 | 48.28460 | 14.78025 | 81° | 88km/h | 13883m | 5.0m/s | -53.7°C | 4.9% | 0hPa | 2.7V | 00:00:00 | 01:08:12 | 00:00:00 | |
| OE5MMP-10 | 2026-09-02 02:56:53 | 48.28452 | 14.77958 | 82° | 86km/h | 13873m | 6.1m/s | -53.7°C | 5.0% | 0hPa | 2.7V | 00:00:00 | 01:08:10 | 00:00:00 | |
| OM5KV | 2026-09-02 02:56:51 | 48.28449 | 14.77925 | 82° | 89km/h | 13867m | 3.2m/s | -53.7°C | 2.2% | 0hPa | 2.7V | 00:00:00 | 00:00:00 | 00:00:00 | |
| PETON7-10 | 2026-09-02 02:56:50 | 48.28442 | 14.77859 | 82° | 84km/h | 13858m | 4.2m/s | -53.6°C | 4.9% | 0hPa | 2.7V | 00:00:00 | 01:08:07 | 00:00:00 | |
| OM5KV | 2026-09-02 02:56:48 | 48.28438 | 14.77827 | 84° | 86km/h | 13852m | 6.6m/s | -53.7°C | 2.2% | 0hPa | 2.7V | 00:00:00 | 00:00:00 | 00:00:00 | |
| PG1ADW-2 | 2026-09-02 02:56:46 | 48.28432 | 14.77730 | 85° | 80km/h | 13837m | 5.1m/s | -53.6°C | 4.9% | 0hPa | 2.7V | 00:00:00 | 00:00:00 | 00:00:00 | |
| OM5KV | 2026-09-02 02:56:45 | 48.28432 | 14.77730 | 85° | 84km/h | 13837m | 5.2m/s | -53.6°C | 2.2% | 0hPa | 2.7V | 00:00:00 | 00:00:00 | 00:00:00 | |
| DO3MHA-12 | 2026-09-02 02:56:44 | 48.28427 | 14.77668 | 84° | 84km/h | 13827m | 4.8m/s | -53.5°C | 4.9% | 0hPa | 2.7V | 00:00:00 | 01:08:01 | 00:00:00 | |
| OE5MMP-10 | 2026-09-02 02:56:43 | 48.28424 | 14.77636 | 83° | 84km/h | 13822m | 4.5m/s | -53.5°C | 4.9% | 0hPa | 2.7V | 00:00:00 | 01:08:00 | 00:00:00 | |
| OE5DXL-15 | 2026-09-02 02:56:42 | 48.28421 | 14.77604 | 83° | 77km/h | 13818m | 4.3m/s | -53.5°C | 4.9% | 0hPa | 2.7V | 00:00:00 | 00:00:00 | 00:00:00 | |
| OM5KV | 2026-09-02 02:56:40 | 48.28418 | 14.77572 | 81° | 86km/h | 13813m | 4.7m/s | -53.5°C | 2.3% | 0hPa | 2.7V | 00:00:00 | 00:00:00 | 00:00:00 | |
| OE8JPQ-2 | 2026-09-02 02:56:39 | 48.28410 | 14.77508 | 82° | 77km/h | 13805m | 5.4m/s | -53.5°C | 4.9% | 0hPa | 2.7V | 00:00:00 | 00:00:00 | 00:00:00 | |
| DG1MFX-10 | 2026-09-02 02:56:38 | 48.28410 | 14.77508 | 82° | 86km/h | 13805m | 5.4m/s | -53.5°C | 2.2% | 0hPa | 2.7V | 00:00:00 | 00:00:00 | 00:00:00 | |
| OE5WHR-10 | 2026-09-02 02:56:36 | 48.28401 | 14.77415 | 82° | 75km/h | 13790m | 4.9m/s | -53.4°C | 4.9% | 0hPa | 2.7V | 00:00:00 | 01:07:53 | 00:00:00 | |
| PETON7-10 | 2026-09-02 02:56:35 | 48.28399 | 14.77385 | 82° | 77km/h | 13785m | 4.5m/s | -53.4°C | 4.9% | 0hPa | 2.7V | 00:00:00 | 00:00:00 | 00:00:00 | |
| DO3MHA-12 | 2026-09-02 02:56:34 | 48.28396 | 14.77356 | 84° | 77km/h | 13780m | 5.9m/s | -53.5°C | 4.9% | 0hPa | 2.7V | 00:00:00 | 01:07:51 | 00:00:00 | |
| OE5MMP-10 | 2026-09-02 02:56:33 | 48.28393 | 14.77326 | 83° | 75km/h | 13776m | 3.1m/s | -53.5°C | 4.9% | 0hPa | 2.7V | 00:00:00 | 01:07:50 | 00:00:00 | |
| OE5FHM-15 | 2026-09-02 02:56:30 | 48.28384 | 14.77241 | 80° | 75km/h | 13761m | 4.5m/s | -53.5°C | 5.0% | 0hPa | 2.7V | 00:00:00 | 01:07:47 | 00:00:00 | |
| OE3JTB-15 | 2026-09-02 02:56:29 | 48.28381 | 14.77213 | 82° | 75km/h | 13757m | 5.0m/s | -53.5°C | 5.0% | 0hPa | 2.7V | 00:00:00 | 00:00:00 | 00:00:00 | |
| PG1ADW-2 | 2026-09-02 02:56:26 | 48.28369 | 14.77130 | 79° | 75km/h | 13742m | 4.8m/s | -53.4°C | 4.9% | 0hPa | 2.7V | 00:00:00 | 00:00:00 | 00:00:00 | |
| DO3MHA-12 | 2026-09-02 02:56:24 | 48.28363 | 14.77073 | 81° | 73km/h | 13733m | 4.8m/s | -53.3°C | 4.9% | 0hPa | 2.7V | 00:00:00 | 01:07:41 | 00:00:00 | |
| OE5MMP-10 | 2026-09-02 02:56:23 | 48.28360 | 14.77045 | 79° | 73km/h | 13728m | 4.8m/s | -53.3°C | 4.9% | 0hPa | 2.7V | 00:00:00 | 01:07:40 | 00:00:00 | |
| OM5KV | 2026-09-02 02:56:22 | 48.28360 | 14.77045 | 80° | 75km/h | 13728m | 4.9m/s | -53.4°C | 2.2% | 0hPa | 2.7V | 00:00:00 | 00:00:00 | 00:00:00 | |
| OM5KV | 2026-09-02 02:56:21 | 48.28356 | 14.77018 | 83° | 75km/h | 13723m | 4.6m/s | -53.3°C | 2.2% | 0hPa | 2.7V | 00:00:00 | 00:00:00 | 00:00:00 | |
| PETON7-10 | 2026-09-02 02:56:20 | 48.28351 | 14.76960 | 82° | 73km/h | 13714m | 3.7m/s | -53.2°C | 4.9% | 0hPa | 2.7V | 00:00:00 | 00:00:00 | 00:00:00 | |
| OE8JPQ-2 | 2026-09-02 02:56:19 | 48.28349 | 14.76933 | 83° | 75km/h | 13709m | 5.8m/s | -53.2°C | 4.9% | 0hPa | 2.7V | 00:00:00 | 01:07:36 | 00:00:00 | |
| OM5KV | 2026-09-02 02:56:16 | 48.28344 | 14.76879 | 85° | 71km/h | 13700m | 4.7m/s | -53.2°C | 2.3% | 0hPa | 2.7V | 00:00:00 | 00:00:00 | 00:00:00 | |
| OE5WHR-10 | 2026-09-02 02:56:15 | 48.28341 | 14.76825 | 86° | 77km/h | 13690m | 3.7m/s | -53.1°C | 4.9% | 0hPa | 2.7V | 00:00:00 | 00:00:00 | 08:30:00 | |
| DO3MHA-12 | 2026-09-02 02:56:14 | 48.28340 | 14.76797 | 85° | 75km/h | 13686m | 4.8m/s | -53.1°C | 4.9% | 0hPa | 2.7V | 00:00:00 | 01:07:31 | 08:30:00 | |
| OE5MMP-10 | 2026-09-02 02:56:13 | 48.28338 | 14.76770 | 84° | 75km/h | 13681m | 4.6m/s | -53.1°C | 4.9% | 0hPa | 2.7V | 00:00:00 | 01:07:30 | 00:00:00 | |
| OE5DXL-15 | 2026-09-02 02:56:12 | 48.28336 | 14.76742 | 86° | 80km/h | 13676m | 5.7m/s | -53.0°C | 4.8% | 0hPa | 2.7V | 00:00:00 | 00:00:00 | 00:00:00 | |
| OE3OSB-13 | 2026-09-02 02:56:08 | 48.28328 | 14.76603 | 88° | 73km/h | 13651m | 3.8m/s | -53.1°C | 2.1% | -1.0hPa | 2.7V | 00:00:00 | 00:00:00 | 00:00:00 | |
| PG1ADW-2 | 2026-09-02 02:56:06 | 48.28327 | 14.76574 | 88° | 80km/h | 13646m | 6.2m/s | -53.0°C | 4.8% | 0hPa | 2.7V | 00:00:00 | 01:07:23 | 00:00:00 | |
| PETON7-10 | 2026-09-02 02:56:05 | 48.28326 | 14.76545 | 88° | 78km/h | 13640m | 4.5m/s | -53.0°C | 4.9% | 0hPa | 2.7V | 00:00:00 | 01:07:22 | 00:00:00 | |
| DO3MHA-12 | 2026-09-02 02:56:04 | 48.28326 | 14.76516 | 90° | 78km/h | 13635m | 6.6m/s | -52.9°C | 4.8% | 0hPa | 2.7V | 00:00:00 | 01:07:21 | 00:00:00 | |
| OE5MMP-10 | 2026-09-02 02:56:03 | 48.28325 | 14.76487 | 89° | 78km/h | 13629m | 4.8m/s | -52.9°C | 4.8% | 0hPa | 2.7V | 00:00:00 | 01:07:20 | 00:00:00 | |
| OM5KV | 2026-09-02 02:56:02 | 48.28325 | 14.76487 | 89° | 78km/h | 13629m | 4.9m/s | -53.0°C | 2.2% | 0hPa | 2.7V | 00:00:00 | 00:00:00 | 00:00:00 | |
| OE5FHM-15 | 2026-09-02 02:56:00 | 48.28324 | 14.76398 | 90° | 84km/h | 13615m | 5.1m/s | -52.9°C | 4.8% | 0hPa | 2.7V | 00:00:00 | 01:07:17 | 08:30:00 | |
| OE8JPQ-2 | 2026-09-02 02:55:59 | 48.28323 | 14.76368 | 88° | 84km/h | 13610m | 4.3m/s | -52.9°C | 4.9% | 0hPa | 2.7V | 00:00:00 | 00:00:00 | 08:30:00 | |
| OE5DRO-10 | 2026-09-02 02:55:56 | 48.28322 | 14.76280 | 89° | 84km/h | 13595m | 4.8m/s | -52.9°C | 5.0% | 0hPa | 2.7V | 00:00:00 | 00:00:00 | 00:00:00 | |
| DO3MHA-12 | 2026-09-02 02:55:54 | 48.28321 | 14.76219 | 88° | 84km/h | 13586m | 5.5m/s | -52.9°C | 5.0% | 0hPa | 2.7V | 00:00:00 | 01:07:11 | 00:00:00 | |
| OK1ALN | 2026-09-02 02:55:53 | 48.28321 | 14.76219 | 88° | 82km/h | 13586m | 5.6m/s | -53.0°C | 0% | 0hPa | 2.7V | 00:00:00 | 00:00:00 | 00:00:00 | |
| PETON7-10 | 2026-09-02 02:55:50 | 48.28320 | 14.76094 | 92° | 86km/h | 13568m | 3.5m/s | -52.9°C | 5.0% | 0hPa | 2.7V | 00:00:00 | 00:00:00 | 08:30:00 | |
| OM5KV | 2026-09-02 02:55:49 | 48.28320 | 14.76094 | 93° | 84km/h | 13568m | 3.5m/s | -53.0°C | 2.4% | 0hPa | 2.7V | 00:00:00 | 00:00:00 | 00:00:00 | |
| PG1ADW-2 | 2026-09-02 02:55:46 | 48.28324 | 14.75965 | 93° | 86km/h | 13549m | 4.2m/s | -52.9°C | 5.0% | 0hPa | 2.7V | 00:00:00 | 00:00:00 | 08:30:00 | |
| DO3MHA-12 | 2026-09-02 02:55:44 | 48.28325 | 14.75899 | 92° | 84km/h | 13538m | 4.3m/s | -52.9°C | 5.0% | 0hPa | 2.7V | 00:00:00 | 01:07:01 | 00:00:00 | |
| OE5MMP-10 | 2026-09-02 02:55:43 | 48.28326 | 14.75867 | 93° | 84km/h | 13533m | 5.7m/s | -52.9°C | 5.0% | 0hPa | 2.7V | 00:00:00 | 01:07:00 | 00:00:00 | |
| OE5DXL-15 | 2026-09-02 02:55:42 | 48.28327 | 14.75835 | 95° | 89km/h | 13528m | 4.1m/s | -52.9°C | 5.0% | 0hPa | 2.7V | 00:00:00 | 00:00:00 | 00:00:00 | |
| OE8JPQ-2 | 2026-09-02 02:55:39 | 48.28330 | 14.75739 | 93° | 88km/h | 13513m | 6.1m/s | -52.8°C | 5.0% | 0hPa | 2.7V | 00:00:00 | 00:00:00 | 00:00:00 | |
| OM5KV | 2026-09-02 02:55:38 | 48.28330 | 14.75739 | 93° | 84km/h | 13513m | 6.1m/s | -52.8°C | 2.4% | 0hPa | 2.7V | 00:00:00 | 00:00:00 | 00:00:00 | |
| OE5DRO-10 | 2026-09-02 02:55:37 | 48.28330 | 14.75676 | 88° | 88km/h | 13503m | 5.6m/s | -52.8°C | 5.0% | 0hPa | 2.7V | 00:00:00 | 00:00:00 | 00:00:00 | |
| OM5KV | 2026-09-02 02:55:36 | 48.28330 | 14.75676 | 89° | 84km/h | 13503m | 5.7m/s | -52.8°C | 2.4% | 0hPa | 2.7V | 00:00:00 | 00:00:00 | 00:00:00 | |
| PETON7-10 | 2026-09-02 02:55:35 | 48.28329 | 14.75612 | 88° | 88km/h | 13493m | 4.9m/s | -52.7°C | 4.9% | 0hPa | 2.7V | 00:00:00 | 00:00:00 | 00:00:00 | |
| DO3MHA-12 | 2026-09-02 02:55:34 | 48.28327 | 14.75580 | 88° | 88km/h | 13488m | 4.0m/s | -52.7°C | 5.0% | 0hPa | 2.7V | 00:00:00 | 01:06:51 | 00:00:00 | |
| OE5MMP-10 | 2026-09-02 02:55:33 | 48.28327 | 14.75548 | 89° | 89km/h | 13484m | 4.4m/s | -52.7°C | 4.9% | 0hPa | 2.7V | 00:00:00 | 01:06:50 | 00:00:00 | |
| OK1ALN | 2026-09-02 02:55:32 | 48.28327 | 14.75548 | 89° | 86km/h | 13484m | 4.5m/s | -52.7°C | 0% | 0hPa | 2.7V | 00:00:00 | 00:00:00 | 00:00:00 | |
| OE3JTB-15 | 2026-09-02 02:55:31 | 48.28326 | 14.75482 | 91° | 93km/h | 13474m | 4.4m/s | -52.7°C | 5.0% | 0hPa | 2.7V | 00:00:00 | 01:06:48 | 00:00:00 | |
| OE5FHM-15 | 2026-09-02 02:55:30 | 48.28326 | 14.75449 | 91° | 95km/h | 13469m | 4.1m/s | -52.6°C | 4.9% | 0hPa | 2.7V | 00:00:00 | 01:06:47 | 00:00:00 | |
| PG1ADW-2 | 2026-09-02 02:55:26 | 48.28327 | 14.75313 | 92° | 95km/h | 13451m | 5.1m/s | -52.7°C | 5.0% | 0hPa | 2.7V | 00:00:00 | 00:00:00 | 00:00:00 | |
| DO3MHA-12 | 2026-09-02 02:55:24 | 48.28327 | 14.75245 | 91° | 91km/h | 13440m | 5.3m/s | -52.7°C | 5.0% | 0hPa | 2.7V | 00:00:00 | 01:06:41 | 00:00:00 | |
| OE5MMP-10 | 2026-09-02 02:55:23 | 48.28327 | 14.75211 | 90° | 93km/h | 13435m | 5.1m/s | -52.7°C | 5.0% | 0hPa | 2.7V | 00:00:00 | 01:06:40 | 00:00:00 | |
| PETON7-10 | 2026-09-02 02:55:20 | 48.28326 | 14.75110 | 89° | 97km/h | 13420m | 4.2m/s | -52.7°C | 5.1% | 0hPa | 2.7V | 00:00:00 | 01:06:37 | 00:00:00 | |
| OE8JPQ-2 | 2026-09-02 02:55:19 | 48.28326 | 14.75075 | 90° | 97km/h | 13415m | 5.7m/s | -52.7°C | 5.0% | 0hPa | 2.7V | 00:00:00 | 01:06:36 | 00:00:00 | |
| OE5DRO-10 | 2026-09-02 02:55:18 | 48.28326 | 14.75040 | 91° | 97km/h | 13410m | 3.8m/s | -52.8°C | 5.2% | 0hPa | 2.7V | 00:00:00 | 00:00:00 | 00:00:00 | |
| OM5KV | 2026-09-02 02:55:16 | 48.28326 | 14.75004 | 90° | 95km/h | 13406m | 4.0m/s | -53.0°C | 2.5% | 0hPa | 2.7V | 00:00:00 | 00:00:00 | 00:00:00 | |
| DO3MHA-12 | 2026-09-02 02:55:14 | 48.28324 | 14.74896 | 89° | 99km/h | 13390m | 4.5m/s | -53.2°C | 5.4% | 0hPa | 2.7V | 00:00:00 | 01:06:31 | 00:00:00 | |
| OE5MMP-10 | 2026-09-02 02:55:13 | 48.28324 | 14.74860 | 89° | 99km/h | 13386m | 3.9m/s | -53.2°C | 5.4% | 0hPa | 2.7V | 00:00:00 | 01:06:30 | 00:00:00 | |
| OE5DXL-15 | 2026-09-02 02:55:12 | 48.28323 | 14.74823 | 89° | 95km/h | 13381m | 6.2m/s | -53.2°C | 5.4% | 0hPa | 2.7V | 00:00:00 | 00:00:00 | 00:00:00 | |
| OM5KV | 2026-09-02 02:55:08 | 48.28324 | 14.74709 | 93° | 100km/h | 13366m | 3.5m/s | -53.3°C | 2.7% | 0hPa | 2.7V | 00:00:00 | 00:00:00 | 00:00:00 | |
| OM5KV | 2026-09-02 02:55:07 | 48.28324 | 14.74670 | 92° | 102km/h | 13362m | 5.1m/s | -53.3°C | 2.7% | 0hPa | 2.7V | 00:00:00 | 00:00:00 | 00:00:00 | |
| OE3OSB-13 | 2026-09-02 02:55:06 | 48.28322 | 14.74557 | 85° | 95km/h | 13346m | 4.9m/s | -53.4°C | 2.6% | -1.0hPa | 2.7V | 00:00:00 | 00:00:00 | 00:00:00 | |
| PETON7-10 | 2026-09-02 02:55:05 | 48.28322 | 14.74557 | 86° | 95km/h | 13346m | 4.9m/s | -53.4°C | 5.5% | 0hPa | 2.7V | 00:00:00 | 00:00:00 | 00:00:00 | |
| DO3MHA-12 | 2026-09-02 02:55:04 | 48.28320 | 14.74521 | 85° | 95km/h | 13340m | 5.7m/s | -53.4°C | 5.5% | 0hPa | 2.7V | 00:00:00 | 01:06:21 | 00:00:00 | |
| OE5MMP-10 | 2026-09-02 02:55:03 | 48.28318 | 14.74484 | 86° | 95km/h | 13335m | 4.5m/s | -53.5°C | 5.5% | 0hPa | 2.7V | 00:00:00 | 01:06:20 | 00:00:00 | |
| OE3JTB-15 | 2026-09-02 02:55:02 | 48.28316 | 14.74448 | 85° | 91km/h | 13330m | 6.4m/s | -53.5°C | 5.5% | 0hPa | 2.7V | 00:00:00 | 00:00:00 | 00:00:00 | |
| OE5FHM-15 | 2026-09-02 02:55:00 | 48.28312 | 14.74377 | 87° | 91km/h | 13318m | 5.9m/s | -53.5°C | 5.5% | 0hPa | 2.7V | 00:00:00 | 01:06:17 | 00:00:00 | |
| OE5DRO-10 | 2026-09-02 02:54:59 | 48.28310 | 14.74341 | 87° | 91km/h | 13312m | 4.0m/s | -53.5°C | 5.6% | 0hPa | 2.7V | 00:00:00 | 00:00:00 | 08:30:00 | |
| OM5KV | 2026-09-02 02:54:57 | 48.28308 | 14.74305 | 86° | 93km/h | 13308m | 4.8m/s | -53.6°C | 2.9% | 0hPa | 2.7V | 00:00:00 | 00:00:00 | 00:00:00 | |
| OM5KV | 2026-09-02 02:54:56 | 48.28306 | 14.74271 | 85° | 91km/h | 13303m | 4.7m/s | -53.6°C | 2.9% | 0hPa | 2.7V | 00:00:00 | 00:00:00 | 00:00:00 | |
| DO3MHA-12 | 2026-09-02 02:54:54 | 48.28298 | 14.74164 | 81° | 91km/h | 13289m | 3.9m/s | -53.5°C | 5.6% | 0hPa | 2.7V | 00:00:00 | 01:06:11 | 00:00:00 | |
| OE5MMP-10 | 2026-09-02 02:54:53 | 48.28293 | 14.74128 | 81° | 91km/h | 13284m | 5.3m/s | -53.5°C | 5.7% | 0hPa | 2.7V | 00:00:00 | 01:06:10 | 00:00:00 | |
| OK1ALN | 2026-09-02 02:54:52 | 48.28293 | 14.74128 | 81° | 95km/h | 13284m | 5.3m/s | 0°C | 0% | 0hPa | 2.7V | 00:00:00 | 00:00:00 | 00:00:00 | |
| OE5WHR-10 | 2026-09-02 02:54:51 | 48.28285 | 14.74057 | 80° | 91km/h | 13274m | 5.9m/s | -53.5°C | 5.7% | 0hPa | 2.7V | 00:00:00 | 00:00:00 | 00:00:00 | |
| PETON7-10 | 2026-09-02 02:54:50 | 48.28281 | 14.74022 | 80° | 89km/h | 13269m | 4.6m/s | -53.5°C | 5.6% | 0hPa | 2.7V | 00:00:00 | 00:00:00 | 00:00:00 | |
| DO3MHA-12 | 2026-09-02 02:54:44 | 48.28254 | 14.73823 | 80° | 91km/h | 13237m | 3.8m/s | -53.6°C | 5.8% | 0hPa | 2.7V | 00:00:00 | 01:06:01 | 08:30:00 | |
| OE5MMP-10 | 2026-09-02 02:54:43 | 48.28250 | 14.73790 | 81° | 91km/h | 13233m | 5.7m/s | -53.6°C | 5.8% | 0hPa | 2.7V | 00:00:00 | 01:06:00 | 00:00:00 | |
| OE5DXL-15 | 2026-09-02 02:54:42 | 48.28247 | 14.73757 | 80° | 88km/h | 13228m | 3.5m/s | -53.6°C | 5.9% | 0hPa | 2.7V | 00:00:00 | 00:00:00 | 00:00:00 | |
| OE5DRO-10 | 2026-09-02 02:54:40 | 48.28238 | 14.73691 | 81° | 89km/h | 13218m | 4.8m/s | -53.7°C | 5.9% | 0hPa | 2.7V | 00:00:00 | 00:00:00 | 00:00:00 | |
| OE8JPQ-2 | 2026-09-02 02:54:39 | 48.28234 | 14.73657 | 81° | 88km/h | 13213m | 4.6m/s | -53.7°C | 6.0% | 0hPa | 2.7V | 00:00:00 | 00:00:00 | 00:00:00 | |
| PETON7-10 | 2026-09-02 02:54:35 | 48.28216 | 14.73520 | 81° | 88km/h | 13192m | 4.4m/s | -53.7°C | 6.1% | 0hPa | 2.7V | 00:00:00 | 01:05:52 | 00:00:00 | |
| DO3MHA-12 | 2026-09-02 02:54:34 | 48.28212 | 14.73484 | 80° | 88km/h | 13188m | 3.9m/s | -53.7°C | 6.1% | 0hPa | 2.7V | 00:00:00 | 01:05:51 | 00:00:00 | |
| OE5MMP-10 | 2026-09-02 02:54:33 | 48.28208 | 14.73450 | 81° | 86km/h | 13183m | 5.2m/s | -53.7°C | 6.2% | 0hPa | 2.7V | 00:00:00 | 01:05:50 | 00:00:00 | |
| OK1ALN | 2026-09-02 02:54:31 | 48.28203 | 14.73416 | 80° | 89km/h | 13178m | 4.5m/s | 0°C | 0% | 0hPa | 2.7V | 00:00:00 | 00:00:00 | 00:00:00 | |
| OE5WHR-10 | 2026-09-02 02:54:30 | 48.28195 | 14.73350 | 80° | 88km/h | 13168m | 3.6m/s | -53.8°C | 6.4% | 0hPa | 2.7V | 00:00:00 | 01:05:47 | 00:00:00 | |
| OM5KV | 2026-09-02 02:54:29 | 48.28195 | 14.73350 | 80° | 88km/h | 13168m | 3.7m/s | -53.8°C | 3.4% | 0hPa | 2.7V | 00:00:00 | 00:00:00 | 00:00:00 | |
| OM5KV | 2026-09-02 02:54:28 | 48.28191 | 14.73318 | 79° | 86km/h | 13163m | 5.6m/s | -53.8°C | 3.4% | 0hPa | 2.7V | 00:00:00 | 00:00:00 | 00:00:00 | |
| PG1ADW-2 | 2026-09-02 02:54:26 | 48.28176 | 14.73224 | 78° | 88km/h | 13150m | 3.7m/s | -53.8°C | 6.4% | 0hPa | 2.7V | 00:00:00 | 00:00:00 | 00:00:00 | |
| DO3MHA-12 | 2026-09-02 02:54:24 | 48.28167 | 14.73162 | 79° | 88km/h | 13140m | 4.6m/s | -53.8°C | 6.4% | 0hPa | 2.7V | 00:00:00 | 01:05:41 | 00:00:00 | |
| OE5MMP-10 | 2026-09-02 02:54:23 | 48.28163 | 14.73130 | 81° | 88km/h | 13135m | 4.2m/s | -53.8°C | 6.4% | 0hPa | 2.7V | 00:00:00 | 01:05:40 | 08:30:00 | |
| OM5KV | 2026-09-02 02:54:22 | 48.28163 | 14.73130 | 81° | 86km/h | 13135m | 4.2m/s | -53.9°C | 3.4% | 0hPa | 2.7V | 00:00:00 | 00:00:00 | 00:00:00 | |
| OE5DRO-10 | 2026-09-02 02:54:21 | 48.28156 | 14.73067 | 82° | 89km/h | 13126m | 5.0m/s | -53.9°C | 6.5% | 0hPa | 2.7V | 00:00:00 | 00:00:00 | 00:00:00 | |
| PETON7-10 | 2026-09-02 02:54:20 | 48.28153 | 14.73035 | 82° | 89km/h | 13121m | 4.2m/s | -53.9°C | 6.5% | 0hPa | 2.7V | 00:00:00 | 00:00:00 | 00:00:00 | |
| OE8JPQ-2 | 2026-09-02 02:54:19 | 48.28150 | 14.73003 | 81° | 89km/h | 13116m | 5.8m/s | -54.0°C | 6.5% | 0hPa | 2.7V | 00:00:00 | 01:05:36 | 00:00:00 | |
| OM5KV | 2026-09-02 02:54:17 | 48.28146 | 14.72970 | 80° | 88km/h | 13111m | 3.8m/s | -54.0°C | 3.6% | 0hPa | 2.7V | 00:00:00 | 00:00:00 | 00:00:00 | |
| DO3MHA-12 | 2026-09-02 02:54:14 | 48.28129 | 14.72837 | 79° | 89km/h | 13092m | 6.0m/s | -53.8°C | 6.5% | 0hPa | 2.7V | 00:00:00 | 01:05:31 | 00:00:00 | |
| OE5MMP-10 | 2026-09-02 02:54:13 | 48.28125 | 14.72804 | 79° | 89km/h | 13087m | 4.6m/s | -53.8°C | 6.6% | 0hPa | 2.7V | 00:00:00 | 01:05:30 | 00:00:00 | |
| OE5DXL-15 | 2026-09-02 02:54:12 | 48.28121 | 14.72771 | 80° | 95km/h | 13081m | 5.9m/s | -53.7°C | 6.5% | 0hPa | 2.7V | 00:00:00 | 00:00:00 | 08:30:00 | |
| OK1ALN | 2026-09-02 02:54:10 | 48.28117 | 14.72738 | 81° | 89km/h | 13076m | 4.1m/s | 0°C | 0% | 0hPa | 2.7V | 00:00:00 | 00:00:00 | 00:00:00 | |
| OE5WHR-10 | 2026-09-02 02:54:09 | 48.28109 | 14.72672 | 81° | 93km/h | 13065m | 4.1m/s | -53.7°C | 6.6% | 0hPa | 2.7V | 00:00:00 | 00:00:00 | 00:00:00 | |
| PG1ADW-2 | 2026-09-02 02:54:06 | 48.28097 | 14.72571 | 81° | 95km/h | 13051m | 5.6m/s | -53.6°C | 6.5% | 0hPa | 2.7V | 00:00:00 | 00:00:00 | 00:00:00 | |
| PETON7-10 | 2026-09-02 02:54:05 | 48.28094 | 14.72538 | 83° | 93km/h | 13046m | 3.9m/s | -53.6°C | 6.5% | 0hPa | 2.7V | 00:00:00 | 00:00:00 | 00:00:00 | |
| OE5MMP-10 | 2026-09-02 02:54:03 | 48.28089 | 14.72471 | 84° | 93km/h | 13036m | 5.2m/s | -53.6°C | 6.6% | 0hPa | 2.7V | 00:00:00 | 01:05:20 | 00:00:00 | |
| OE5FHM-15 | 2026-09-02 02:54:00 | 48.28082 | 14.72366 | 84° | 99km/h | 13020m | 4.2m/s | -53.6°C | 6.5% | 0hPa | 2.7V | 00:00:00 | 01:05:17 | 00:00:00 | |
| OE8JPQ-2 | 2026-09-02 02:53:59 | 48.28079 | 14.72331 | 83° | 99km/h | 13015m | 6.1m/s | -53.6°C | 6.6% | 0hPa | 2.7V | 00:00:00 | 00:00:00 | 00:00:00 | |
| OE5HKT-10 | 2026-09-02 02:53:57 | 48.28073 | 14.72261 | 83° | 99km/h | 13006m | 4.4m/s | -53.5°C | 6.5% | 0hPa | 2.7V | 00:00:00 | 00:00:00 | 00:00:00 | |
| DO3MHA-12 | 2026-09-02 02:53:54 | 48.28064 | 14.72153 | 84° | 99km/h | 12990m | 4.2m/s | -53.6°C | 6.5% | 0hPa | 2.7V | 00:00:00 | 01:05:11 | 00:00:00 | |
| OE5MMP-10 | 2026-09-02 02:53:53 | 48.28061 | 14.72117 | 84° | 99km/h | 12984m | 6.7m/s | -53.6°C | 6.6% | 0hPa | 2.7V | 00:00:00 | 01:05:10 | 00:00:00 | |
| OE5REO-15 | 2026-09-02 02:53:51 | 48.28058 | 14.72080 | 84° | 99km/h | 12979m | 3.4m/s | -53.7°C | 3.8% | 0hPa | 2.7V | 00:00:00 | 00:00:00 | 00:00:00 | |
| PETON7-10 | 2026-09-02 02:53:50 | 48.28052 | 14.72006 | 84° | 100km/h | 12968m | 4.2m/s | -53.7°C | 6.8% | 0hPa | 2.7V | 00:00:00 | 01:05:07 | 00:00:00 | |
| OE5WHR-10 | 2026-09-02 02:53:48 | 48.28045 | 14.71932 | 82° | 100km/h | 12958m | 4.9m/s | -53.8°C | 6.7% | 0hPa | 2.7V | 00:00:00 | 00:00:00 | 00:00:00 | |
| PG1ADW-2 | 2026-09-02 02:53:46 | 48.28037 | 14.71858 | 80° | 100km/h | 12949m | 4.6m/s | -53.8°C | 6.9% | 0hPa | 2.7V | 00:00:00 | 00:00:00 | 00:00:00 | |
| DO3MHA-12 | 2026-09-02 02:53:44 | 48.28029 | 14.71782 | 81° | 100km/h | 12938m | 3.9m/s | -53.7°C | 6.9% | 0hPa | 2.7V | 00:00:00 | 01:05:01 | 00:00:00 | |
| OE5MMP-10 | 2026-09-02 02:53:43 | 48.28024 | 14.71745 | 81° | 100km/h | 12933m | 5.5m/s | -53.7°C | 6.9% | 0hPa | 2.7V | 00:00:00 | 01:05:00 | 00:00:00 | |
| OE5DXL-15 | 2026-09-02 02:53:42 | 48.28020 | 14.71708 | 81° | 99km/h | 12929m | 2.9m/s | -53.7°C | 6.9% | 0hPa | 2.7V | 00:00:00 | 00:00:00 | 00:00:00 | |
| OE8JPQ-2 | 2026-09-02 02:53:39 | 48.28006 | 14.71597 | 79° | 99km/h | 12915m | 4.6m/s | 0°C | 0% | 0hPa | 2.7V | 00:00:00 | 00:00:00 | 00:00:00 | |
| OE5HKT-10 | 2026-09-02 02:53:36 | 48.27990 | 14.71485 | 77° | 99km/h | 12900m | 6.1m/s | -53.6°C | 6.9% | 0hPa | 2.7V | 00:00:00 | 01:04:53 | 00:00:00 | |
| PETON7-10 | 2026-09-02 02:53:35 | 48.27984 | 14.71448 | 77° | 99km/h | 12895m | 3.8m/s | -53.6°C | 7.0% | 0hPa | 2.7V | 00:00:00 | 00:00:00 | 08:30:00 | |
| DO3MHA-12 | 2026-09-02 02:53:34 | 48.27978 | 14.71412 | 77° | 99km/h | 12890m | 4.7m/s | -53.6°C | 7.1% | 0hPa | 2.7V | 00:00:00 | 01:04:51 | 00:00:00 | |
| OE5MMP-10 | 2026-09-02 02:53:33 | 48.27973 | 14.71375 | 79° | 99km/h | 12886m | 4.4m/s | -53.6°C | 7.0% | 0hPa | 2.7V | 00:00:00 | 01:04:50 | 00:00:00 | |
| OE5FHM-15 | 2026-09-02 02:53:30 | 48.27958 | 14.71264 | 80° | 97km/h | 12872m | 4.5m/s | -53.5°C | 7.0% | 0hPa | 2.7V | 00:00:00 | 01:04:47 | 00:00:00 | |
| OE5WHR-10 | 2026-09-02 02:53:27 | 48.27945 | 14.71153 | 80° | 99km/h | 12858m | 4.4m/s | -53.6°C | 7.1% | 0hPa | 2.7V | 00:00:00 | 01:04:44 | 00:00:00 | |
| PG1ADW-2 | 2026-09-02 02:53:26 | 48.27941 | 14.71116 | 81° | 99km/h | 12853m | 6.1m/s | -53.5°C | 7.1% | 0hPa | 2.7V | 00:00:00 | 01:04:43 | 00:00:00 | |
| DO3MHA-12 | 2026-09-02 02:53:24 | 48.27932 | 14.71042 | 78° | 97km/h | 12843m | 6.0m/s | -53.5°C | 7.1% | 0hPa | 2.7V | 00:00:00 | 01:04:41 | 00:00:00 | |
| OE5MMP-10 | 2026-09-02 02:53:23 | 48.27927 | 14.71006 | 78° | 97km/h | 12838m | 4.3m/s | -53.4°C | 7.0% | 0hPa | 2.7V | 00:00:00 | 01:04:40 | 00:00:00 | |
| DG1MFX-10 | 2026-09-02 02:53:21 | 48.27921 | 14.70971 | 77° | 99km/h | 12832m | 5.2m/s | -53.5°C | 4.2% | 0hPa | 2.7V | 00:00:00 | 00:00:00 | 00:00:00 | |
| PETON7-10 | 2026-09-02 02:53:20 | 48.27909 | 14.70899 | 76° | 99km/h | 12823m | 5.4m/s | -53.4°C | 7.1% | 0hPa | 2.7V | 00:00:00 | 00:00:00 | 00:00:00 | |
| OE8JPQ-2 | 2026-09-02 02:53:19 | 48.27903 | 14.70864 | 77° | 97km/h | 12818m | 3.8m/s | 0°C | 0% | 0hPa | 2.7V | 00:00:00 | 01:04:36 | 00:00:00 | |
| DO3MHA-12 | 2026-09-02 02:53:14 | 48.27876 | 14.70683 | 78° | 99km/h | 12796m | 3.6m/s | -53.6°C | 7.5% | 0hPa | 2.7V | 00:00:00 | 01:04:31 | 08:30:00 | |
| OE5MMP-10 | 2026-09-02 02:53:13 | 48.27871 | 14.70646 | 80° | 97km/h | 12792m | 5.1m/s | -53.6°C | 7.6% | 0hPa | 2.7V | 00:00:00 | 01:04:30 | 00:00:00 | |
| OE5DXL-15 | 2026-09-02 02:53:12 | 48.27867 | 14.70608 | 80° | 93km/h | 12788m | 3.3m/s | -53.6°C | 7.7% | 0hPa | 2.7V | 00:00:00 | 00:00:00 | 00:00:00 | |
| OE5HKT-10 | 2026-09-02 02:53:11 | 48.27862 | 14.70571 | 79° | 93km/h | 12783m | 5.2m/s | -53.6°C | 7.8% | 0hPa | 2.7V | 00:00:00 | 00:00:00 | 00:00:00 | |
| OE5WHR-10 | 2026-09-02 02:53:06 | 48.27837 | 14.70390 | 79° | 93km/h | 12761m | 4.9m/s | -54.0°C | 8.3% | 0hPa | 2.7V | 00:00:00 | 00:00:00 | 08:30:00 | |
| PETON7-10 | 2026-09-02 02:53:05 | 48.27832 | 14.70355 | 78° | 91km/h | 12757m | 4.0m/s | -54.1°C | 8.5% | 0hPa | 2.7V | 00:00:00 | 01:04:22 | 00:00:00 | |
| DO3MHA-12 | 2026-09-02 02:53:04 | 48.27827 | 14.70321 | 78° | 93km/h | 12752m | 5.2m/s | -54.1°C | 8.5% | 0hPa | 2.7V | 00:00:00 | 01:04:21 | 00:00:00 | |
| OE5MMP-10 | 2026-09-02 02:53:03 | 48.27821 | 14.70286 | 78° | 93km/h | 12747m | 4.3m/s | -54.1°C | 8.6% | 0hPa | 2.7V | 00:00:00 | 01:04:20 | 00:00:00 | |
| OE3OSB-13 | 2026-09-02 02:53:01 | 48.27811 | 14.70218 | 77° | 93km/h | 12737m | 3.7m/s | -54.2°C | 5.2% | -1.0hPa | 2.7V | 00:00:00 | 00:00:00 | 00:00:00 | |
| OE5FHM-15 | 2026-09-02 02:53:00 | 48.27805 | 14.70182 | 78° | 93km/h | 12733m | 5.3m/s | -54.1°C | 8.7% | 0hPa | 2.7V | 00:00:00 | 01:04:17 | 00:00:00 | |
| OE8JPQ-2 | 2026-09-02 02:52:59 | 48.27800 | 14.70148 | 77° | 95km/h | 12728m | 4.7m/s | 0°C | 0% | 0hPa | 2.7V | 00:00:00 | 00:00:00 | 00:00:00 | |
| DO3MHA-12 | 2026-09-02 02:52:54 | 48.27775 | 14.69977 | 77° | 91km/h | 12703m | 3.0m/s | -54.2°C | 9.4% | 0hPa | 2.7V | 00:00:00 | 01:04:11 | 00:00:00 | |
| OE5MMP-10 | 2026-09-02 02:52:53 | 48.27770 | 14.69945 | 78° | 93km/h | 12699m | 5.2m/s | -54.2°C | 9.4% | 0hPa | 2.7V | 00:00:00 | 01:04:10 | 08:30:00 | |
| OK1ALN | 2026-09-02 02:52:52 | 48.27770 | 14.69945 | 79° | 88km/h | 12699m | 5.2m/s | 0°C | 0% | 0hPa | 2.7V | 00:00:00 | 00:00:00 | 00:00:00 | |
| PETON7-10 | 2026-09-02 02:52:50 | 48.27759 | 14.69844 | 82° | 95km/h | 12685m | 5.6m/s | -54.4°C | 9.8% | 0hPa | 2.7V | 00:00:00 | 00:00:00 | 00:00:00 | |
| OE5DRO-10 | 2026-09-02 02:52:46 | 48.27745 | 14.69702 | 81° | 97km/h | 12665m | 3.3m/s | -54.5°C | 10.5% | 0hPa | 2.7V | 00:00:00 | 00:00:00 | 00:00:00 | |
| PG1ADW-2 | 2026-09-02 02:52:45 | 48.27741 | 14.69667 | 81° | 97km/h | 12660m | 5.7m/s | -54.5°C | 10.6% | 0hPa | 2.7V | 00:00:00 | 00:00:00 | 08:30:00 | |
| DO3MHA-12 | 2026-09-02 02:52:44 | 48.27737 | 14.69633 | 82° | 95km/h | 12655m | 3.8m/s | -54.7°C | 10.9% | 0hPa | 2.7V | 00:00:00 | 01:04:01 | 00:00:00 | |
| OE5MMP-10 | 2026-09-02 02:52:43 | 48.27733 | 14.69598 | 80° | 95km/h | 12650m | 5.5m/s | -54.8°C | 11.2% | 0hPa | 2.7V | 00:00:00 | 01:04:00 | 00:00:00 | |
| OE5DXL-15 | 2026-09-02 02:52:42 | 48.27729 | 14.69563 | 80° | 100km/h | 12645m | 3.8m/s | -54.9°C | 11.5% | 0hPa | 2.7V | 00:00:00 | 00:00:00 | 00:00:00 | |
| OE3JTB-15 | 2026-09-02 02:52:37 | 48.27711 | 14.69385 | 84° | 102km/h | 12623m | 5.2m/s | -55.1°C | 12.5% | 0hPa | 2.7V | 00:00:00 | 01:03:54 | 00:00:00 | |
| PETON7-10 | 2026-09-02 02:52:35 | 48.27706 | 14.69313 | 83° | 100km/h | 12614m | 3.3m/s | -55.2°C | 12.9% | 0hPa | 2.7V | 00:00:00 | 00:00:00 | 00:00:00 | |
| DO3MHA-12 | 2026-09-02 02:52:34 | 48.27703 | 14.69277 | 82° | 100km/h | 12609m | 5.8m/s | -55.3°C | 13.1% | 0hPa | 2.7V | 00:00:00 | 01:03:51 | 00:00:00 | |
| OE5MMP-10 | 2026-09-02 02:52:33 | 48.27699 | 14.69240 | 81° | 100km/h | 12604m | 4.9m/s | -55.5°C | 13.5% | 0hPa | 2.7V | 00:00:00 | 01:03:50 | 00:00:00 | |
| DG1MFX-10 | 2026-09-02 02:52:32 | 48.27699 | 14.69240 | 82° | 97km/h | 12604m | 4.9m/s | -55.5°C | 9.4% | 0hPa | 2.7V | 00:00:00 | 00:00:00 | 00:00:00 | |
| OE5FHM-15 | 2026-09-02 02:52:30 | 48.27686 | 14.69131 | 80° | 102km/h | 12588m | 3.8m/s | -55.9°C | 14.6% | 0hPa | 2.7V | 00:00:00 | 01:03:47 | 00:00:00 | |
| OE5HKT-10 | 2026-09-02 02:52:29 | 48.27682 | 14.69094 | 80° | 111km/h | 12583m | 5.8m/s | -56.0°C | 14.7% | 0hPa | 2.7V | 00:00:00 | 01:03:46 | 00:00:00 | |
| OE5DRO-10 | 2026-09-02 02:52:27 | 48.27672 | 14.69020 | 77° | 104km/h | 12573m | 6.1m/s | -56.1°C | 15.0% | 0hPa | 2.7V | 00:00:00 | 00:00:00 | 00:00:00 | |
| PG1ADW-2 | 2026-09-02 02:52:25 | 48.27659 | 14.68944 | 76° | 104km/h | 12564m | 5.6m/s | -56.1°C | 15.3% | 0hPa | 2.7V | 00:00:00 | 00:00:00 | 00:00:00 | |
| DO3MHA-12 | 2026-09-02 02:52:24 | 48.27652 | 14.68906 | 75° | 104km/h | 12558m | 4.2m/s | -56.2°C | 15.5% | 0hPa | 2.7V | 00:00:00 | 01:03:41 | 00:00:00 | |
| OE5MMP-10 | 2026-09-02 02:52:23 | 48.27645 | 14.68867 | 75° | 104km/h | 12553m | 5.4m/s | -56.2°C | 15.6% | 0hPa | 2.7V | 00:00:00 | 01:03:40 | 00:00:00 | |
| PETON7-10 | 2026-09-02 02:52:20 | 48.27625 | 14.68752 | 77° | 102km/h | 12538m | 5.9m/s | -56.4°C | 16.1% | 0hPa | 2.7V | 00:00:00 | 01:03:37 | 00:00:00 | |
| DO3MHA-12 | 2026-09-02 02:52:14 | 48.27591 | 14.68522 | 78° | 102km/h | 12507m | 5.5m/s | -56.8°C | 17.3% | 0hPa | 2.7V | 00:00:00 | 01:03:31 | 00:00:00 | |
| OE5MMP-10 | 2026-09-02 02:52:13 | 48.27585 | 14.68485 | 77° | 102km/h | 12502m | 5.0m/s | -56.9°C | 17.4% | 0hPa | 2.7V | 00:00:00 | 01:03:30 | 00:00:00 | |
| OE5DXL-15 | 2026-09-02 02:52:12 | 48.27579 | 14.68448 | 76° | 97km/h | 12496m | 5.4m/s | -56.9°C | 17.5% | 0hPa | 2.7V | 00:00:00 | 00:00:00 | 00:00:00 | |
| OE3JTB-15 | 2026-09-02 02:52:08 | 48.27552 | 14.68298 | 74° | 110km/h | 12479m | 5.3m/s | -57.3°C | 18.0% | 0hPa | 2.7V | 00:00:00 | 00:00:00 | 00:00:00 | |
| PG1ADW-2 | 2026-09-02 02:52:05 | 48.27530 | 14.68186 | 75° | 95km/h | 12464m | 4.0m/s | -57.3°C | 18.4% | 0hPa | 2.7V | 00:00:00 | 01:03:22 | 00:00:00 | |
| DO3MHA-12 | 2026-09-02 02:52:04 | 48.27523 | 14.68149 | 74° | 97km/h | 12459m | 5.9m/s | -57.3°C | 18.4% | 0hPa | 2.7V | 00:00:00 | 01:03:21 | 00:00:00 | |
| OE5MMP-10 | 2026-09-02 02:52:03 | 48.27516 | 14.68113 | 74° | 97km/h | 12454m | 4.0m/s | -57.3°C | 18.6% | 0hPa | 2.7V | 00:00:00 | 01:03:20 | 00:00:00 | |
| OE3OSB-13 | 2026-09-02 02:51:59 | 48.27489 | 14.67974 | 73° | 93km/h | 12435m | 3.5m/s | -57.3°C | 13.6% | -1.0hPa | 2.7V | 00:00:00 | 00:00:00 | 00:00:00 | |
| DO3MHA-12 | 2026-09-02 02:51:54 | 48.27457 | 14.67798 | 78° | 93km/h | 12412m | 5.1m/s | -57.2°C | 19.7% | 0hPa | 2.7V | 00:00:00 | 01:03:11 | 00:00:00 | |
| OE5MMP-10 | 2026-09-02 02:51:53 | 48.27452 | 14.67762 | 78° | 93km/h | 12407m | 4.2m/s | -57.2°C | 19.8% | 0hPa | 2.7V | 00:00:00 | 01:03:10 | 00:00:00 | |
| DG1MFX-10 | 2026-09-02 02:51:52 | 48.27452 | 14.67762 | 79° | 95km/h | 12407m | 4.3m/s | -57.2°C | 14.5% | 0hPa | 2.7V | 00:00:00 | 00:00:00 | 00:00:00 | |
| PETON7-10 | 2026-09-02 02:51:50 | 48.27437 | 14.67657 | 79° | 93km/h | 12391m | 4.9m/s | -57.2°C | 20.2% | 0hPa | 2.7V | 00:00:00 | 00:00:00 | 00:00:00 | |
| OE5DRO-10 | 2026-09-02 02:51:49 | 48.27432 | 14.67623 | 79° | 95km/h | 12386m | 6.2m/s | -57.2°C | 20.3% | 0hPa | 2.7V | 00:00:00 | 00:00:00 | 00:00:00 | |
| PG1ADW-2 | 2026-09-02 02:51:45 | 48.27414 | 14.67486 | 79° | 97km/h | 12366m | 4.9m/s | -57.3°C | 21.0% | 0hPa | 2.7V | 00:00:00 | 00:00:00 | 00:00:00 | |
| DO3MHA-12 | 2026-09-02 02:51:44 | 48.27410 | 14.67452 | 81° | 95km/h | 12361m | 4.4m/s | -57.4°C | 21.1% | 0hPa | 2.7V | 00:00:00 | 01:03:01 | 08:30:00 | |
| OE5MMP-10 | 2026-09-02 02:51:43 | 48.27406 | 14.67417 | 81° | 95km/h | 12357m | 4.3m/s | -57.5°C | 21.3% | 0hPa | 2.7V | 00:00:00 | 01:03:00 | 00:00:00 | |
| OE5DXL-15 | 2026-09-02 02:51:42 | 48.27402 | 14.67382 | 80° | 99km/h | 12352m | 5.4m/s | -57.5°C | 21.4% | 0hPa | 2.7V | 00:00:00 | 00:00:00 | 00:00:00 | |
| PETON7-10 | 2026-09-02 02:51:35 | 48.27375 | 14.67132 | 82° | 99km/h | 12319m | 3.8m/s | -57.3°C | 22.4% | 0hPa | 2.7V | 00:00:00 | 01:02:52 | 00:00:00 | |
| DO3MHA-12 | 2026-09-02 02:51:34 | 48.27371 | 14.67096 | 80° | 99km/h | 12314m | 6.1m/s | -57.2°C | 22.5% | 0hPa | 2.7V | 00:00:00 | 01:02:51 | 00:00:00 | |
| OE5MMP-10 | 2026-09-02 02:51:33 | 48.27367 | 14.67059 | 79° | 99km/h | 12309m | 4.6m/s | -57.2°C | 23.1% | 0hPa | 2.7V | 00:00:00 | 01:02:50 | 00:00:00 | |
| DG1MFX-10 | 2026-09-02 02:51:31 | 48.27362 | 14.67022 | 81° | 100km/h | 12305m | 4.6m/s | -57.2°C | 17.3% | 0hPa | 2.7V | 00:00:00 | 00:00:00 | 00:00:00 | |
| OE5FHM-15 | 2026-09-02 02:51:30 | 48.27353 | 14.66948 | 80° | 106km/h | 12295m | 4.3m/s | -57.2°C | 23.6% | 0hPa | 2.7V | 00:00:00 | 01:02:47 | 08:30:00 | |
| OE3OSB-13 | 2026-09-02 02:51:28 | 48.27345 | 14.66875 | 80° | 99km/h | 12285m | 6.0m/s | -57.3°C | 17.7% | -1.0hPa | 2.7V | 00:00:00 | 00:00:00 | 00:00:00 | |
| PG1ADW-2 | 2026-09-02 02:51:25 | 48.27332 | 14.66764 | 80° | 104km/h | 12269m | 4.2m/s | -57.3°C | 24.9% | 0hPa | 2.7V | 00:00:00 | 00:00:00 | 00:00:00 | |
| DO3MHA-12 | 2026-09-02 02:51:24 | 48.27327 | 14.66727 | 80° | 100km/h | 12264m | 6.3m/s | -57.3°C | 24.9% | 0hPa | 2.7V | 00:00:00 | 01:02:41 | 00:00:00 | |
| OE5MMP-10 | 2026-09-02 02:51:23 | 48.27323 | 14.66691 | 80° | 102km/h | 12258m | 4.9m/s | -57.2°C | 25.1% | 0hPa | 2.7V | 00:00:00 | 01:02:40 | 08:30:00 | |
| OE5WHR-10 | 2026-09-02 02:51:21 | 48.27314 | 14.66620 | 82° | 108km/h | 12248m | 4.1m/s | -57.1°C | 25.3% | 0hPa | 2.7V | 00:00:00 | 01:02:38 | 00:00:00 | |
| PETON7-10 | 2026-09-02 02:51:20 | 48.27311 | 14.66584 | 83° | 106km/h | 12244m | 6.1m/s | -57.0°C | 25.3% | 0hPa | 2.7V | 00:00:00 | 00:00:00 | 08:30:00 | |
| OM5KV | 2026-09-02 02:51:18 | 48.27308 | 14.66548 | 82° | 97km/h | 12238m | 5.5m/s | -57.0°C | 19.2% | 0hPa | 2.7V | 00:00:00 | 00:00:00 | 00:00:00 | |
| DO3MHA-12 | 2026-09-02 02:51:14 | 48.27279 | 14.66353 | 73° | 111km/h | 12205m | 9.3m/s | -56.9°C | 25.9% | 0hPa | 2.7V | 00:00:00 | 01:02:31 | 00:00:00 | |
| OE5MMP-10 | 2026-09-02 02:51:13 | 48.27270 | 14.66313 | 73° | 110km/h | 12197m | 5.7m/s | -57.0°C | 26.4% | 0hPa | 2.7V | 00:00:00 | 01:02:30 | 00:00:00 | |
| OE5DXL-15 | 2026-09-02 02:51:12 | 48.27262 | 14.66273 | 74° | 113km/h | 12190m | 8.3m/s | -57.0°C | 26.8% | 0hPa | 2.7V | 00:00:00 | 00:00:00 | 00:00:00 | |
| OE5DRO-10 | 2026-09-02 02:51:11 | 48.27255 | 14.66232 | 77° | 115km/h | 12184m | 4.3m/s | -57.1°C | 27.4% | 0hPa | 2.7V | 00:00:00 | 00:00:00 | 00:00:00 | |
| DG1MFX-10 | 2026-09-02 02:51:10 | 48.27255 | 14.66232 | 77° | 110km/h | 12184m | 4.3m/s | -57.1°C | 21.1% | 0hPa | 2.7V | 00:00:00 | 00:00:00 | 00:00:00 | |
| PG1ADW-2 | 2026-09-02 02:51:05 | 48.27214 | 14.65992 | 77° | 115km/h | 12142m | 5.1m/s | -57.2°C | 29.8% | 0hPa | 2.7V | 00:00:00 | 00:00:00 | 00:00:00 | |
| DO3MHA-12 | 2026-09-02 02:51:04 | 48.27208 | 14.65950 | 78° | 117km/h | 12137m | 4.6m/s | -57.2°C | 29.9% | 0hPa | 2.7V | 00:00:00 | 01:02:21 | 00:00:00 | |
| OE5MMP-10 | 2026-09-02 02:51:03 | 48.27201 | 14.65907 | 78° | 117km/h | 12132m | 5.7m/s | -57.3°C | 30.1% | 0hPa | 2.7V | 00:00:00 | 01:02:20 | 00:00:00 | |
| OE3OSB-13 | 2026-09-02 02:50:57 | 48.27161 | 14.65646 | 77° | 119km/h | 12101m | 6.3m/s | -57.5°C | 24.1% | -1.0hPa | 2.7V | 00:00:00 | 00:00:00 | 00:00:00 | |
| OM5KV | 2026-09-02 02:50:55 | 48.27155 | 14.65602 | 79° | 119km/h | 12095m | 5.3m/s | -57.5°C | 24.6% | 0hPa | 2.7V | 00:00:00 | 00:00:00 | 00:00:00 | |
| DO3MHA-12 | 2026-09-02 02:50:54 | 48.27143 | 14.65516 | 79° | 113km/h | 12084m | 4.8m/s | -57.5°C | 32.0% | 0hPa | 2.7V | 00:00:00 | 01:02:11 | 00:00:00 | |
| OE5MMP-10 | 2026-09-02 02:50:53 | 48.27137 | 14.65474 | 80° | 111km/h | 12078m | 6.8m/s | -57.5°C | 32.3% | 0hPa | 2.7V | 00:00:00 | 01:02:10 | 00:00:00 | |
| OE5DRO-10 | 2026-09-02 02:50:52 | 48.27132 | 14.65431 | 80° | 111km/h | 12072m | 4.4m/s | -57.6°C | 32.6% | 0hPa | 2.7V | 00:00:00 | 00:00:00 | 00:00:00 | |
| OM5KV | 2026-09-02 02:50:51 | 48.27132 | 14.65431 | 81° | 113km/h | 12072m | 4.5m/s | -57.6°C | 25.4% | 0hPa | 2.7V | 00:00:00 | 00:00:00 | 00:00:00 | |
| PETON7-10 | 2026-09-02 02:50:50 | 48.27121 | 14.65348 | 80° | 111km/h | 12061m | 5.9m/s | -57.6°C | 32.8% | 0hPa | 2.7V | 00:00:00 | 01:02:07 | 00:00:00 | |
| DG1MFX-10 | 2026-09-02 02:50:49 | 48.27121 | 14.65348 | 80° | 111km/h | 12061m | 5.9m/s | -57.6°C | 25.7% | 0hPa | 2.7V | 00:00:00 | 00:00:00 | 00:00:00 | |
| PG1ADW-2 | 2026-09-02 02:50:45 | 48.27096 | 14.65139 | 80° | 115km/h | 12034m | 4.5m/s | -57.6°C | 33.8% | 0hPa | 2.7V | 00:00:00 | 01:02:02 | 00:00:00 | |
| DO3MHA-12 | 2026-09-02 02:50:44 | 48.27091 | 14.65098 | 80° | 111km/h | 12029m | 6.5m/s | -57.6°C | 33.9% | 0hPa | 2.7V | 00:00:00 | 01:02:01 | 00:00:00 | |
| OE5MMP-10 | 2026-09-02 02:50:43 | 48.27086 | 14.65057 | 81° | 113km/h | 12023m | 5.1m/s | -57.6°C | 34.3% | 0hPa | 2.7V | 00:00:00 | 01:02:00 | 00:00:00 | |
| OE5DXL-15 | 2026-09-02 02:50:42 | 48.27081 | 14.65016 | 80° | 117km/h | 12018m | 5.0m/s | -57.6°C | 34.8% | 0hPa | 2.7V | 00:00:00 | 00:00:00 | 00:00:00 | |
| OE5WHR-10 | 2026-09-02 02:50:39 | 48.27064 | 14.64892 | 79° | 117km/h | 12003m | 5.0m/s | -57.5°C | 35.2% | 0hPa | 2.7V | 00:00:00 | 00:00:00 | 00:00:00 | |
| OE5HKT-10 | 2026-09-02 02:50:37 | 48.27053 | 14.64808 | 79° | 117km/h | 11992m | 5.8m/s | -57.6°C | 36.0% | 0hPa | 2.7V | 00:00:00 | 00:00:00 | 00:00:00 | |
| PETON7-10 | 2026-09-02 02:50:35 | 48.27042 | 14.64724 | 80° | 117km/h | 11982m | 6.1m/s | -57.6°C | 36.5% | 0hPa | 2.7V | 00:00:00 | 00:00:00 | 00:00:00 | |
| DO3MHA-12 | 2026-09-02 02:50:34 | 48.27037 | 14.64681 | 80° | 119km/h | 11977m | 3.9m/s | -57.6°C | 36.8% | 0hPa | 2.7V | 00:00:00 | 01:01:51 | 00:00:00 | |
| OE5MMP-10 | 2026-09-02 02:50:33 | 48.27032 | 14.64638 | 80° | 119km/h | 11972m | 5.6m/s | -57.6°C | 36.7% | 0hPa | 2.7V | 00:00:00 | 01:01:50 | 00:00:00 | |
| OE5FHM-15 | 2026-09-02 02:50:30 | 48.27012 | 14.64508 | 77° | 117km/h | 11957m | 5.7m/s | -57.5°C | 37.1% | 0hPa | 2.7V | 00:00:00 | 01:01:47 | 00:00:00 | |
| DG1MFX-10 | 2026-09-02 02:50:29 | 48.27011 | 14.64508 | 78° | 119km/h | 11957m | 5.8m/s | -57.6°C | 29.4% | 0hPa | 2.7V | 00:00:00 | 00:00:00 | 00:00:00 | |
| OM5KV | 2026-09-02 02:50:28 | 48.27005 | 14.64464 | 78° | 119km/h | 11951m | 5.8m/s | -57.5°C | 29.8% | 0hPa | 2.7V | 00:00:00 | 00:00:00 | 00:00:00 | |
| OM5KV | 2026-09-02 02:50:27 | 48.26998 | 14.64421 | 78° | 117km/h | 11945m | 5.8m/s | -57.5°C | 29.7% | 0hPa | 2.7V | 00:00:00 | 00:00:00 | 00:00:00 | |
| OE3OSB-13 | 2026-09-02 02:50:26 | 48.26976 | 14.64290 | 75° | 119km/h | 11927m | 5.2m/s | -57.4°C | 30.3% | -1.0hPa | 2.7V | 00:00:00 | 00:00:00 | 00:00:00 | |
| PG1ADW-2 | 2026-09-02 02:50:25 | 48.26976 | 14.64290 | 76° | 117km/h | 11927m | 5.1m/s | -57.3°C | 38.6% | 0hPa | 2.7V | 00:00:00 | 00:00:00 | 00:00:00 | |
| DO3MHA-12 | 2026-09-02 02:50:24 | 48.26969 | 14.64247 | 77° | 117km/h | 11921m | 6.6m/s | -57.3°C | 39.0% | 0hPa | 2.7V | 00:00:00 | 01:01:41 | 00:00:00 | |
| OE5MMP-10 | 2026-09-02 02:50:23 | 48.26962 | 14.64203 | 77° | 117km/h | 11916m | 3.8m/s | -57.3°C | 39.5% | 0hPa | 2.7V | 00:00:00 | 01:01:40 | 00:00:00 | |
| OM5KV | 2026-09-02 02:50:21 | 48.26955 | 14.64160 | 78° | 119km/h | 11911m | 7.3m/s | -57.3°C | 31.4% | 0hPa | 2.7V | 00:00:00 | 00:00:00 | 00:00:00 | |
| PETON7-10 | 2026-09-02 02:50:20 | 48.26942 | 14.64072 | 78° | 117km/h | 11899m | 7.3m/s | -57.2°C | 39.9% | 0hPa | 2.7V | 00:00:00 | 00:00:00 | 00:00:00 | |
| OE5WHR-10 | 2026-09-02 02:50:18 | 48.26929 | 14.63986 | 77° | 115km/h | 11888m | 8.1m/s | -57.3°C | 39.8% | 0hPa | 2.7V | 00:00:00 | 01:01:35 | 00:00:00 | |
| OE5HKT-10 | 2026-09-02 02:50:16 | 48.26913 | 14.63900 | 75° | 111km/h | 11873m | 7.8m/s | -57.5°C | 40.2% | 0hPa | 2.7V | 00:00:00 | 01:01:33 | 00:00:00 | |
| OM5KV | 2026-09-02 02:50:15 | 48.26913 | 14.63900 | 75° | 119km/h | 11873m | 7.8m/s | -57.5°C | 32.2% | 0hPa | 2.7V | 00:00:00 | 00:00:00 | 00:00:00 | |
| DO3MHA-12 | 2026-09-02 02:50:14 | 48.26898 | 14.63814 | 75° | 115km/h | 11858m | 5.1m/s | -57.5°C | 40.6% | 0hPa | 2.7V | 00:00:00 | 01:01:31 | 08:30:00 | |
| OE5DXL-15 | 2026-09-02 02:50:12 | 48.26881 | 14.63728 | 73° | 111km/h | 11845m | 6.0m/s | -57.6°C | 41.7% | 0hPa | 2.7V | 00:00:00 | 00:00:00 | 00:00:00 | |
| DG1MFX-10 | 2026-09-02 02:50:08 | 48.26853 | 14.63603 | 71° | 117km/h | 11826m | 6.8m/s | -57.6°C | 34.0% | 0hPa | 2.7V | 00:00:00 | 00:00:00 | 00:00:00 | |
| PETON7-10 | 2026-09-02 02:50:05 | 48.26811 | 14.63442 | 68° | 111km/h | 11804m | 6.4m/s | -57.4°C | 42.6% | 0hPa | 2.7V | 00:00:00 | 01:01:22 | 00:00:00 | |
| DO3MHA-12 | 2026-09-02 02:50:04 | 48.26801 | 14.63403 | 68° | 111km/h | 11798m | 5.4m/s | -57.4°C | 42.6% | 0hPa | 2.7V | 00:00:00 | 01:01:21 | 00:00:00 | |
| OE5MMP-10 | 2026-09-02 02:50:03 | 48.26790 | 14.63364 | 69° | 111km/h | 11793m | 4.7m/s | -57.3°C | 42.9% | 0hPa | 2.7V | 00:00:00 | 01:01:20 | 00:00:00 | |
| OE5FHM-15 | 2026-09-02 02:50:00 | 48.26759 | 14.63246 | 69° | 110km/h | 11777m | 6.4m/s | -57.3°C | 42.6% | 0hPa | 2.7V | 00:00:00 | 01:01:17 | 00:00:00 | |
| OE5WHR-10 | 2026-09-02 02:49:57 | 48.26728 | 14.63128 | 67° | 110km/h | 11761m | 3.3m/s | -57.2°C | 43.1% | 0hPa | 2.7V | 00:00:00 | 00:00:00 | 08:30:00 | |
| OE5DRO-10 | 2026-09-02 02:49:55 | 48.26706 | 14.63051 | 67° | 110km/h | 11751m | 4.8m/s | -57.1°C | 42.6% | 0hPa | 2.7V | 00:00:00 | 00:00:00 | 00:00:00 | |
| DO3MHA-12 | 2026-09-02 02:49:54 | 48.26695 | 14.63013 | 67° | 110km/h | 11745m | 6.2m/s | -57.1°C | 42.5% | 0hPa | 2.7V | 00:00:00 | 01:01:11 | 00:00:00 | |
| OE5MMP-10 | 2026-09-02 02:49:53 | 48.26684 | 14.62975 | 67° | 110km/h | 11740m | 5.1m/s | -57.0°C | 42.5% | 0hPa | 2.7V | 00:00:00 | 01:01:10 | 08:30:00 | |
| OM5KV | 2026-09-02 02:49:51 | 48.26673 | 14.62937 | 68° | 108km/h | 11734m | 5.2m/s | -57.1°C | 34.3% | 0hPa | 2.7V | 00:00:00 | 00:00:00 | 00:00:00 | |
| PETON7-10 | 2026-09-02 02:49:50 | 48.26652 | 14.62861 | 67° | 110km/h | 11724m | 4.9m/s | -57.0°C | 42.7% | 0hPa | 2.7V | 00:00:00 | 00:00:00 | 00:00:00 | |
| OM5KV | 2026-09-02 02:49:48 | 48.26641 | 14.62823 | 68° | 110km/h | 11720m | 4.9m/s | -57.0°C | 34.2% | 0hPa | 2.7V | 00:00:00 | 00:00:00 | 00:00:00 | |
| DG1MFX-10 | 2026-09-02 02:49:47 | 48.26630 | 14.62784 | 68° | 110km/h | 11714m | 5.3m/s | -57.0°C | 34.5% | 0hPa | 2.7V | 00:00:00 | 00:00:00 | 00:00:00 | |
| OM5KV | 2026-09-02 02:49:46 | 48.26619 | 14.62746 | 68° | 111km/h | 11709m | 6.1m/s | -56.9°C | 33.9% | 0hPa | 2.7V | 00:00:00 | 00:00:00 | 00:00:00 | |
| PG1ADW-2 | 2026-09-02 02:49:45 | 48.26598 | 14.62669 | 68° | 110km/h | 11698m | 6.1m/s | -56.8°C | 41.9% | 0hPa | 2.7V | 00:00:00 | 00:00:00 | 08:30:00 | |
| DO3MHA-12 | 2026-09-02 02:49:44 | 48.26588 | 14.62630 | 68° | 110km/h | 11692m | 5.4m/s | -56.8°C | 41.9% | 0hPa | 2.7V | 00:00:00 | 01:01:01 | 00:00:00 | |
| OE5MMP-10 | 2026-09-02 02:49:43 | 48.26577 | 14.62592 | 68° | 110km/h | 11687m | 5.0m/s | -56.7°C | 42.0% | 0hPa | 2.7V | 00:00:00 | 01:01:00 | 00:00:00 | |
| OE5DXL-15 | 2026-09-02 02:49:42 | 48.26567 | 14.62554 | 68° | 110km/h | 11681m | 5.9m/s | -56.7°C | 41.6% | 0hPa | 2.7V | 00:00:00 | 00:00:00 | 08:30:00 | |
| OE5DRO-10 | 2026-09-02 02:49:36 | 48.26502 | 14.62325 | 68° | 111km/h | 11652m | 4.6m/s | -56.4°C | 41.7% | 0hPa | 2.7V | 00:00:00 | 00:00:00 | 00:00:00 | |
| PETON7-10 | 2026-09-02 02:49:35 | 48.26492 | 14.62285 | 69° | 111km/h | 11646m | 6.4m/s | -56.4°C | 41.7% | 0hPa | 2.7V | 00:00:00 | 00:00:00 | 00:00:00 | |
| DO3MHA-12 | 2026-09-02 02:49:34 | 48.26481 | 14.62246 | 68° | 110km/h | 11641m | 4.1m/s | -56.4°C | 41.9% | 0hPa | 2.7V | 00:00:00 | 01:00:51 | 00:00:00 | |
| OE5MMP-10 | 2026-09-02 02:49:33 | 48.26470 | 14.62207 | 68° | 110km/h | 11636m | 6.0m/s | -56.3°C | 41.8% | 0hPa | 2.7V | 00:00:00 | 01:00:50 | 00:00:00 | |
| OE5FHM-15 | 2026-09-02 02:49:30 | 48.26438 | 14.62092 | 67° | 110km/h | 11621m | 5.8m/s | -56.3°C | 41.8% | 0hPa | 2.7V | 00:00:00 | 01:00:47 | 00:00:00 | |
| OE5HKT-10 | 2026-09-02 02:49:26 | 48.26395 | 14.61939 | 68° | 111km/h | 11599m | 5.0m/s | -56.2°C | 43.0% | 0hPa | 2.7V | 00:00:00 | 00:00:00 | 00:00:00 | |
| PG1ADW-2 | 2026-09-02 02:49:25 | 48.26385 | 14.61899 | 69° | 111km/h | 11595m | 4.2m/s | -56.3°C | 43.4% | 0hPa | 2.7V | 00:00:00 | 01:00:42 | 00:00:00 | |
| OE3OSB-13 | 2026-09-02 02:49:24 | 48.26365 | 14.61819 | 69° | 113km/h | 11585m | 4.3m/s | -56.3°C | 35.2% | -1.0hPa | 2.7V | 00:00:00 | 00:00:00 | 00:00:00 | |
| OE5MMP-10 | 2026-09-02 02:49:23 | 48.26365 | 14.61819 | 70° | 111km/h | 11585m | 4.3m/s | -56.3°C | 43.8% | 0hPa | 2.7V | 00:00:00 | 01:00:40 | 00:00:00 | |
| PETON7-10 | 2026-09-02 02:49:20 | 48.26334 | 14.61697 | 71° | 110km/h | 11570m | 5.5m/s | -56.2°C | 44.1% | 0hPa | 2.7V | 00:00:00 | 01:00:37 | 00:00:00 | |
| OE5DRO-10 | 2026-09-02 02:49:17 | 48.26306 | 14.61579 | 71° | 110km/h | 11554m | 4.7m/s | -56.1°C | 44.3% | 0hPa | 2.7V | 00:00:00 | 00:00:00 | 08:30:00 | |
| OE5WHR-10 | 2026-09-02 02:49:15 | 48.26288 | 14.61502 | 72° | 110km/h | 11544m | 4.1m/s | -56.2°C | 44.7% | 0hPa | 2.7V | 00:00:00 | 01:00:32 | 00:00:00 | |
| DO3MHA-12 | 2026-09-02 02:49:14 | 48.26280 | 14.61463 | 71° | 110km/h | 11539m | 5.1m/s | -56.2°C | 44.6% | 0hPa | 2.7V | 00:00:00 | 01:00:31 | 00:00:00 | |
| OE5MMP-10 | 2026-09-02 02:49:13 | 48.26271 | 14.61424 | 71° | 110km/h | 11534m | 5.4m/s | -56.1°C | 44.8% | 0hPa | 2.7V | 00:00:00 | 01:00:30 | 00:00:00 | |
| OE5DXL-15 | 2026-09-02 02:49:12 | 48.26262 | 14.61385 | 72° | 110km/h | 11528m | 6.1m/s | -56.1°C | 44.9% | 0hPa | 2.7V | 00:00:00 | 00:00:00 | 00:00:00 | |
| OM5KV | 2026-09-02 02:49:07 | 48.26223 | 14.61228 | 70° | 111km/h | 11508m | 5.9m/s | -56.1°C | 37.1% | 0hPa | 2.7V | 00:00:00 | 00:00:00 | 00:00:00 | |
| PG1ADW-2 | 2026-09-02 02:49:05 | 48.26191 | 14.61112 | 68° | 110km/h | 11493m | 4.8m/s | -55.9°C | 45.3% | 0hPa | 2.7V | 00:00:00 | 00:00:00 | 00:00:00 | |
| DO3MHA-12 | 2026-09-02 02:49:04 | 48.26180 | 14.61074 | 69° | 110km/h | 11488m | 4.9m/s | -55.9°C | 45.3% | 0hPa | 2.7V | 00:00:00 | 01:00:21 | 00:00:00 | |
| OE5MMP-10 | 2026-09-02 02:49:03 | 48.26170 | 14.61036 | 68° | 110km/h | 11483m | 5.9m/s | -55.9°C | 45.0% | 0hPa | 2.7V | 00:00:00 | 01:00:20 | 00:00:00 | |
| OM5KV | 2026-09-02 02:49:02 | 48.26170 | 14.61036 | 69° | 110km/h | 11483m | 5.9m/s | -55.9°C | 36.8% | 0hPa | 2.7V | 00:00:00 | 00:00:00 | 00:00:00 | |
| OE3OSB-13 | 2026-09-02 02:48:53 | 48.26068 | 14.60606 | 72° | 111km/h | 11424m | 4.3m/s | -55.7°C | 37.5% | -1.0hPa | 2.7V | 00:00:00 | 00:00:00 | 00:00:00 | |
| PETON7-10 | 2026-09-02 02:48:50 | 48.26050 | 14.60525 | 72° | 110km/h | 11414m | 4.8m/s | -55.6°C | 46.1% | 0hPa | 2.7V | 00:00:00 | 00:00:00 | 00:00:00 | |
| PG1ADW-2 | 2026-09-02 02:48:45 | 48.26005 | 14.60330 | 72° | 108km/h | 11389m | 5.8m/s | -55.4°C | 46.1% | 0hPa | 2.7V | 00:00:00 | 00:00:00 | 00:00:00 | |
| DO3MHA-12 | 2026-09-02 02:48:44 | 48.25997 | 14.60292 | 72° | 108km/h | 11383m | 4.2m/s | -55.4°C | 46.1% | 0hPa | 2.7V | 00:00:00 | 01:00:01 | 08:30:00 | |
| OE5MMP-10 | 2026-09-02 02:48:43 | 48.25988 | 14.60253 | 71° | 108km/h | 11378m | 6.1m/s | -55.4°C | 45.8% | 0hPa | 2.7V | 00:00:00 | 01:00:00 | 00:00:00 | |
| OE5DXL-15 | 2026-09-02 02:48:42 | 48.25979 | 14.60214 | 71° | 108km/h | 11373m | 4.5m/s | -55.3°C | 46.0% | 0hPa | 2.7V | 00:00:00 | 00:00:00 | 00:00:00 | |
| OE5DRO-10 | 2026-09-02 02:48:39 | 48.25952 | 14.60097 | 71° | 108km/h | 11356m | 5.3m/s | -55.2°C | 46.2% | 0hPa | 2.7V | 00:00:00 | 00:00:00 | 00:00:00 | |
| OM5KV | 2026-09-02 02:48:38 | 48.25953 | 14.60098 | 72° | 108km/h | 11356m | 5.4m/s | -55.3°C | 38.0% | 0hPa | 2.7V | 00:00:00 | 00:00:00 | 00:00:00 | |
| OM5KV | 2026-09-02 02:48:36 | 48.25935 | 14.60019 | 74° | 110km/h | 11347m | 5.7m/s | -55.2°C | 37.4% | 0hPa | 2.7V | 00:00:00 | 00:00:00 | 00:00:00 | |
| PETON7-10 | 2026-09-02 02:48:35 | 48.25918 | 14.59941 | 73° | 108km/h | 11337m | 4.7m/s | -55.1°C | 45.5% | 0hPa | 2.7V | 00:00:00 | 00:59:52 | 00:00:00 | |
| DO3MHA-12 | 2026-09-02 02:48:34 | 48.25910 | 14.59901 | 74° | 108km/h | 11331m | 6.0m/s | -55.0°C | 45.3% | 0hPa | 2.7V | 00:00:00 | 00:59:51 | 00:00:00 | |
| OE5MMP-10 | 2026-09-02 02:48:33 | 48.25902 | 14.59862 | 74° | 108km/h | 11326m | 3.7m/s | -55.0°C | 45.3% | 0hPa | 2.7V | 00:00:00 | 00:59:50 | 00:00:00 | |
| OE5FHM-15 | 2026-09-02 02:48:30 | 48.25879 | 14.59744 | 75° | 110km/h | 11311m | 6.3m/s | -54.9°C | 45.0% | 0hPa | 2.7V | 00:00:00 | 00:59:47 | 00:00:00 | |
| OM5KV | 2026-09-02 02:48:28 | 48.25863 | 14.59665 | 72° | 110km/h | 11301m | 5.3m/s | -54.9°C | 37.1% | 0hPa | 2.7V | 00:00:00 | 00:00:00 | 00:00:00 | |
| OM5KV | 2026-09-02 02:48:27 | 48.25863 | 14.59665 | 72° | 110km/h | 11301m | 5.3m/s | -54.9°C | 37.1% | 0hPa | 2.7V | 00:00:00 | 00:00:00 | 00:00:00 | |
| PG1ADW-2 | 2026-09-02 02:48:25 | 48.25836 | 14.59548 | 70° | 108km/h | 11286m | 5.4m/s | -54.7°C | 44.4% | 0hPa | 2.7V | 00:00:00 | 00:00:00 | 00:00:00 | |
| DO3MHA-12 | 2026-09-02 02:48:24 | 48.25827 | 14.59510 | 70° | 108km/h | 11281m | 4.4m/s | -54.7°C | 44.8% | 0hPa | 2.7V | 00:00:00 | 00:59:41 | 00:00:00 | |
| OE5MMP-10 | 2026-09-02 02:48:23 | 48.25818 | 14.59473 | 71° | 108km/h | 11276m | 6.0m/s | -54.7°C | 44.7% | 0hPa | 2.7V | 00:00:00 | 00:59:40 | 08:30:00 | |
| OM5KV | 2026-09-02 02:48:22 | 48.25818 | 14.59473 | 72° | 104km/h | 11276m | 6.0m/s | -54.7°C | 36.7% | 0hPa | 2.7V | 00:00:00 | 00:00:00 | 00:00:00 | |
| OM5KV | 2026-09-02 02:48:21 | 48.25810 | 14.59435 | 73° | 106km/h | 11271m | 3.8m/s | -54.7°C | 37.0% | 0hPa | 2.7V | 00:00:00 | 00:00:00 | 00:00:00 | |
| PETON7-10 | 2026-09-02 02:48:20 | 48.25793 | 14.59358 | 73° | 110km/h | 11261m | 4.4m/s | -54.6°C | 44.3% | 0hPa | 2.7V | 00:00:00 | 00:00:00 | 00:00:00 | |
| OM5KV | 2026-09-02 02:48:17 | 48.25778 | 14.59280 | 75° | 110km/h | 11251m | 4.9m/s | -54.5°C | 36.2% | 0hPa | 2.7V | 00:00:00 | 00:00:00 | 00:00:00 | |
| OE3JTB-15 | 2026-09-02 02:48:16 | 48.25761 | 14.59200 | 73° | 110km/h | 11241m | 5.1m/s | -54.4°C | 44.0% | 0hPa | 2.7V | 00:00:00 | 00:59:33 | 00:00:00 | |
| DO3MHA-12 | 2026-09-02 02:48:14 | 48.25745 | 14.59120 | 73° | 110km/h | 11230m | 5.0m/s | -54.4°C | 44.2% | 0hPa | 2.7V | 00:00:00 | 00:59:31 | 00:00:00 | |
| OE5MMP-10 | 2026-09-02 02:48:13 | 48.25736 | 14.59080 | 73° | 110km/h | 11225m | 4.8m/s | -54.4°C | 44.6% | 0hPa | 2.7V | 00:00:00 | 00:59:30 | 00:00:00 | |
| OE5DXL-15 | 2026-09-02 02:48:12 | 48.25728 | 14.59040 | 73° | 110km/h | 11221m | 3.7m/s | -54.3°C | 44.4% | 0hPa | 2.7V | 00:00:00 | 00:00:00 | 00:00:00 | |
| PG1ADW-2 | 2026-09-02 02:48:05 | 48.25673 | 14.58764 | 75° | 110km/h | 11187m | 5.9m/s | -54.1°C | 43.7% | 0hPa | 2.7V | 00:00:00 | 00:59:22 | 00:00:00 | |
| DO3MHA-12 | 2026-09-02 02:48:04 | 48.25665 | 14.58724 | 74° | 110km/h | 11182m | 4.2m/s | -54.1°C | 44.1% | 0hPa | 2.7V | 00:00:00 | 00:59:21 | 00:00:00 | |
| OE5HKT-10 | 2026-09-02 02:48:02 | 48.25650 | 14.58643 | 75° | 110km/h | 11172m | 4.5m/s | -54.0°C | 43.4% | 0hPa | 2.7V | 00:00:00 | 00:59:19 | 00:00:00 | |
| OE5DRO-10 | 2026-09-02 02:48:01 | 48.25642 | 14.58603 | 74° | 110km/h | 11167m | 6.2m/s | -54.0°C | 43.1% | 0hPa | 2.7V | 00:00:00 | 00:00:00 | 00:00:00 | |
| OE5FHM-15 | 2026-09-02 02:48:00 | 48.25634 | 14.58562 | 74° | 110km/h | 11162m | 3.8m/s | -53.9°C | 43.2% | 0hPa | 2.7V | 00:00:00 | 00:59:17 | 00:00:00 | |
| OM5KV | 2026-09-02 02:47:59 | 48.25634 | 14.58562 | 75° | 111km/h | 11162m | 3.8m/s | -54.0°C | 35.6% | 0hPa | 2.7V | 00:00:00 | 00:00:00 | 00:00:00 | |
| DO3MHA-12 | 2026-09-02 02:47:54 | 48.25587 | 14.58325 | 75° | 110km/h | 11133m | 3.5m/s | -53.8°C | 43.1% | 0hPa | 2.7V | 00:00:00 | 00:59:11 | 00:00:00 | |
| OE5MMP-10 | 2026-09-02 02:47:53 | 48.25580 | 14.58285 | 74° | 110km/h | 11128m | 5.0m/s | -53.8°C | 42.9% | 0hPa | 2.7V | 00:00:00 | 00:59:10 | 00:00:00 | |
| OE5WHR-10 | 2026-09-02 02:47:51 | 48.25565 | 14.58204 | 76° | 110km/h | 11118m | 5.0m/s | -53.7°C | 42.5% | 0hPa | 2.7V | 00:00:00 | 00:00:00 | 00:00:00 | |
| PETON7-10 | 2026-09-02 02:47:50 | 48.25558 | 14.58164 | 76° | 110km/h | 11114m | 4.2m/s | -53.6°C | 42.4% | 0hPa | 2.7V | 00:00:00 | 00:59:07 | 00:00:00 | |
| OE5REO-15 | 2026-09-02 02:47:48 | 48.25550 | 14.58124 | 75° | 110km/h | 11109m | 5.7m/s | -53.6°C | 0% | 0hPa | 2.7V | 00:00:00 | 00:00:00 | 00:00:00 | |
| OE3JTB-15 | 2026-09-02 02:47:47 | 48.25536 | 14.58045 | 76° | 110km/h | 11099m | 5.8m/s | -53.5°C | 41.8% | 0hPa | 2.7V | 00:00:00 | 00:00:00 | 08:30:00 | |
| OM5KV | 2026-09-02 02:47:46 | 48.25536 | 14.58045 | 76° | 108km/h | 11099m | 5.8m/s | -53.5°C | 34.4% | 0hPa | 2.7V | 00:00:00 | 00:00:00 | 00:00:00 | |
| PG1ADW-2 | 2026-09-02 02:47:45 | 48.25521 | 14.57966 | 74° | 110km/h | 11089m | 5.0m/s | -53.4°C | 41.7% | 0hPa | 2.7V | 00:00:00 | 00:00:00 | 00:00:00 | |
| DO3MHA-12 | 2026-09-02 02:47:44 | 48.25513 | 14.57926 | 75° | 110km/h | 11083m | 6.0m/s | -53.3°C | 41.5% | 0hPa | 2.7V | 00:00:00 | 00:59:01 | 00:00:00 | |
| OE5MMP-10 | 2026-09-02 02:47:43 | 48.25506 | 14.57886 | 75° | 110km/h | 11078m | 4.4m/s | -53.3°C | 41.5% | 0hPa | 2.7V | 00:00:00 | 00:59:00 | 00:00:00 | |
| OE5DXL-15 | 2026-09-02 02:47:42 | 48.25498 | 14.57846 | 74° | 110km/h | 11073m | 5.5m/s | -53.2°C | 41.2% | 0hPa | 2.7V | 00:00:00 | 00:00:00 | 00:00:00 | |
| OE5HKT-10 | 2026-09-02 02:47:41 | 48.25490 | 14.57806 | 74° | 111km/h | 11068m | 4.2m/s | -53.2°C | 41.4% | 0hPa | 2.7V | 00:00:00 | 00:00:00 | 08:30:00 | |
| OM5KV | 2026-09-02 02:47:40 | 48.25490 | 14.57806 | 74° | 111km/h | 11068m | 4.2m/s | -53.2°C | 34.2% | 0hPa | 2.7V | 00:00:00 | 00:00:00 | 00:00:00 | |
| OM5KV | 2026-09-02 02:47:38 | 48.25475 | 14.57726 | 76° | 110km/h | 11058m | 4.7m/s | -53.2°C | 34.0% | 0hPa | 2.7V | 00:00:00 | 00:00:00 | 00:00:00 | |
| PETON7-10 | 2026-09-02 02:47:35 | 48.25445 | 14.57568 | 75° | 110km/h | 11037m | 4.4m/s | -53.0°C | 41.0% | 0hPa | 2.7V | 00:00:00 | 00:00:00 | 00:00:00 | |
| DO3MHA-12 | 2026-09-02 02:47:34 | 48.25437 | 14.57529 | 74° | 110km/h | 11032m | 6.5m/s | -53.0°C | 40.8% | 0hPa | 2.9V | 00:00:00 | 00:58:51 | 00:00:00 | |
| OE5MMP-10 | 2026-09-02 02:47:33 | 48.25429 | 14.57489 | 73° | 110km/h | 11026m | 4.0m/s | -53.0°C | 41.2% | 0hPa | 2.9V | 00:00:00 | 00:58:50 | 00:00:00 | |
| OM5KV | 2026-09-02 02:47:32 | 48.25429 | 14.57489 | 74° | 108km/h | 11026m | 4.0m/s | -53.0°C | 34.1% | 0hPa | 2.9V | 00:00:00 | 00:00:00 | 00:00:00 | |
| OE5WHR-10 | 2026-09-02 02:47:30 | 48.25405 | 14.57369 | 73° | 111km/h | 11011m | 6.1m/s | -52.9°C | 41.3% | 0hPa | 2.9V | 00:00:00 | 00:00:00 | 00:00:00 | |
| OM5KV | 2026-09-02 02:47:26 | 48.25381 | 14.57249 | 75° | 110km/h | 10996m | 3.6m/s | -52.9°C | 34.7% | 0hPa | 2.9V | 00:00:00 | 00:00:00 | 00:00:00 | |
| PG1ADW-2 | 2026-09-02 02:47:25 | 48.25366 | 14.57169 | 75° | 111km/h | 10987m | 4.1m/s | -52.8°C | 41.9% | 0hPa | 2.9V | 00:00:00 | 00:00:00 | 00:00:00 | |
| DO3MHA-12 | 2026-09-02 02:47:24 | 48.25358 | 14.57129 | 75° | 111km/h | 10981m | 6.0m/s | -52.8°C | 42.1% | 0hPa | 2.9V | 00:00:00 | 00:58:41 | 00:00:00 | |
| OE5MMP-10 | 2026-09-02 02:47:23 | 48.25351 | 14.57088 | 75° | 111km/h | 10977m | 3.1m/s | -52.7°C | 42.4% | 0hPa | 2.9V | 00:00:00 | 00:58:40 | 00:00:00 | |
| PETON7-10 | 2026-09-02 02:47:20 | 48.25328 | 14.56964 | 76° | 110km/h | 10962m | 5.9m/s | -52.6°C | 41.8% | 0hPa | 2.7V | 00:00:00 | 00:00:00 | 00:00:00 | |
| OE5HKT-10 | 2026-09-02 02:47:19 | 48.25321 | 14.56923 | 76° | 110km/h | 10957m | 4.3m/s | -52.6°C | 42.0% | 0hPa | 2.7V | 00:00:00 | 00:00:00 | 00:00:00 | |
| OE3JTB-15 | 2026-09-02 02:47:18 | 48.25313 | 14.56882 | 75° | 110km/h | 10952m | 5.9m/s | -52.6°C | 42.1% | 0hPa | 2.7V | 00:00:00 | 00:00:00 | 00:00:00 | |
| OE5REO-15 | 2026-09-02 02:47:16 | 48.25306 | 14.56842 | 76° | 110km/h | 10947m | 4.2m/s | -52.6°C | 0% | 0hPa | 2.7V | 00:00:00 | 00:00:00 | 00:00:00 | |
| DO3MHA-12 | 2026-09-02 02:47:14 | 48.25285 | 14.56722 | 74° | 110km/h | 10933m | 4.6m/s | -52.4°C | 42.8% | 0hPa | 2.7V | 00:00:00 | 00:58:31 | 08:30:00 | |
| OE5MMP-10 | 2026-09-02 02:47:13 | 48.25277 | 14.56682 | 74° | 110km/h | 10928m | 4.0m/s | -52.3°C | 42.5% | 0hPa | 2.9V | 00:00:00 | 00:58:30 | 00:00:00 | |
| OE5DXL-15 | 2026-09-02 02:47:12 | 48.25269 | 14.56642 | 75° | 108km/h | 10924m | 4.9m/s | -52.3°C | 42.6% | 0hPa | 2.9V | 00:00:00 | 00:00:00 | 00:00:00 | |
| OM5KV | 2026-09-02 02:47:11 | 48.25269 | 14.56642 | 75° | 111km/h | 10924m | 4.9m/s | -52.4°C | 35.4% | 0hPa | 2.9V | 00:00:00 | 00:00:00 | 00:00:00 | |
| OM5KV | 2026-09-02 02:47:10 | 48.25262 | 14.56601 | 75° | 111km/h | 10919m | 3.8m/s | -52.3°C | 35.3% | 0hPa | 2.9V | 00:00:00 | 00:00:00 | 00:00:00 | |
| OE5WHR-10 | 2026-09-02 02:47:09 | 48.25245 | 14.56522 | 73° | 108km/h | 10910m | 4.6m/s | -52.2°C | 42.1% | 0hPa | 2.9V | 00:00:00 | 00:58:26 | 00:00:00 | |
| PETON7-10 | 2026-09-02 02:47:05 | 48.25212 | 14.56365 | 72° | 108km/h | 10888m | 4.5m/s | -52.1°C | 42.9% | 0hPa | 2.9V | 00:00:00 | 00:58:22 | 00:00:00 | |
| DO3MHA-12 | 2026-09-02 02:47:04 | 48.25204 | 14.56326 | 74° | 108km/h | 10883m | 5.7m/s | -52.1°C | 43.3% | 0hPa | 2.9V | 00:00:00 | 00:58:21 | 00:00:00 | |
| OE5MMP-10 | 2026-09-02 02:47:03 | 48.25196 | 14.56287 | 74° | 108km/h | 10878m | 3.2m/s | -52.0°C | 43.5% | 0hPa | 2.9V | 00:00:00 | 00:58:20 | 00:00:00 | |
| OE3OSB-13 | 2026-09-02 02:46:49 | 48.25074 | 14.55700 | 75° | 108km/h | 10801m | 4.8m/s | -51.6°C | 35.2% | -1.0hPa | 2.9V | 00:00:00 | 00:00:00 | 00:00:00 | |
| OE5WHR-10 | 2026-09-02 02:46:48 | 48.25074 | 14.55700 | 76° | 108km/h | 10801m | 4.7m/s | -51.6°C | 42.5% | 0hPa | 2.9V | 00:00:00 | 00:00:00 | 08:30:00 | |
| OM5KV | 2026-09-02 02:46:47 | 48.25074 | 14.55700 | 76° | 110km/h | 10801m | 4.8m/s | -51.6°C | 35.5% | 0hPa | 2.7V | 00:00:00 | 00:00:00 | 00:00:00 | |
| OM5KV | 2026-09-02 02:46:46 | 48.25067 | 14.55660 | 77° | 108km/h | 10796m | 5.1m/s | -51.6°C | 35.7% | 0hPa | 2.7V | 00:00:00 | 00:00:00 | 00:00:00 | |
| PG1ADW-2 | 2026-09-02 02:46:45 | 48.25053 | 14.55582 | 75° | 108km/h | 10785m | 4.0m/s | -51.4°C | 43.0% | 0hPa | 2.7V | 00:00:00 | 00:58:02 | 08:30:00 | |
| DO3MHA-12 | 2026-09-02 02:46:44 | 48.25046 | 14.55543 | 76° | 106km/h | 10781m | 4.0m/s | -51.4°C | 42.6% | 0hPa | 2.7V | 00:00:00 | 00:58:01 | 00:00:00 | |
| OE5MMP-10 | 2026-09-02 02:46:43 | 48.25040 | 14.55504 | 77° | 108km/h | 10777m | 4.9m/s | -51.3°C | 42.6% | 0hPa | 2.7V | 00:00:00 | 00:58:00 | 00:00:00 | |
| OE5DXL-15 | 2026-09-02 02:46:42 | 48.25033 | 14.55465 | 77° | 108km/h | 10772m | 4.3m/s | -51.3°C | 42.8% | 0hPa | 2.7V | 00:00:00 | 00:00:00 | 00:00:00 | |
| OE5REO-15 | 2026-09-02 02:46:41 | 48.25034 | 14.55465 | 77° | 104km/h | 10772m | 4.4m/s | -51.4°C | 0% | 0hPa | 2.7V | 00:00:00 | 00:00:00 | 00:00:00 | |
| OM5KV | 2026-09-02 02:46:40 | 48.25027 | 14.55427 | 76° | 106km/h | 10767m | 4.8m/s | -51.3°C | 36.0% | 0hPa | 2.7V | 00:00:00 | 00:00:00 | 00:00:00 | |
| OE5HKT-10 | 2026-09-02 02:46:37 | 48.25001 | 14.55270 | 75° | 108km/h | 10749m | 4.6m/s | -51.1°C | 43.1% | 0hPa | 2.7V | 00:00:00 | 00:00:00 | 00:00:00 | |
| PETON7-10 | 2026-09-02 02:46:35 | 48.24986 | 14.55191 | 75° | 106km/h | 10741m | 5.7m/s | -51.0°C | 42.8% | 0hPa | 2.7V | 00:00:00 | 00:00:00 | 00:00:00 | |
| DO3MHA-12 | 2026-09-02 02:46:34 | 48.24979 | 14.55152 | 75° | 108km/h | 10736m | 3.5m/s | -51.0°C | 43.2% | 0hPa | 2.7V | 00:00:00 | 00:57:51 | 00:00:00 | |
| OE5MMP-10 | 2026-09-02 02:46:33 | 48.24971 | 14.55112 | 75° | 108km/h | 10731m | 5.4m/s | -51.0°C | 43.1% | 0hPa | 2.7V | 00:00:00 | 00:57:50 | 00:00:00 | |
| DG1MFX-10 | 2026-09-02 02:46:31 | 48.24964 | 14.55072 | 77° | 108km/h | 10726m | 4.5m/s | -51.0°C | 36.6% | 0hPa | 2.7V | 00:00:00 | 00:00:00 | 00:00:00 | |
| OE5FHM-15 | 2026-09-02 02:46:30 | 48.24952 | 14.54993 | 78° | 106km/h | 10717m | 5.3m/s | -50.9°C | 43.9% | 0hPa | 2.7V | 00:00:00 | 00:57:47 | 00:00:00 | |
| OE5WHR-10 | 2026-09-02 02:46:27 | 48.24934 | 14.54874 | 78° | 108km/h | 10701m | 4.5m/s | -50.8°C | 45.5% | 0hPa | 2.7V | 00:00:00 | 00:00:00 | 00:00:00 | |
| OE5DRO-10 | 2026-09-02 02:46:26 | 48.24928 | 14.54835 | 78° | 108km/h | 10696m | 5.8m/s | -50.7°C | 45.7% | 0hPa | 2.7V | 00:00:00 | 00:00:00 | 08:30:00 | |
| PG1ADW-2 | 2026-09-02 02:46:25 | 48.24922 | 14.54796 | 78° | 108km/h | 10691m | 3.9m/s | -50.7°C | 46.0% | 0hPa | 2.7V | 00:00:00 | 00:00:00 | 00:00:00 | |
| DO3MHA-12 | 2026-09-02 02:46:24 | 48.24917 | 14.54757 | 79° | 108km/h | 10687m | 5.9m/s | -50.6°C | 45.8% | 0hPa | 2.7V | 00:00:00 | 00:57:41 | 00:00:00 | |
| OE5MMP-10 | 2026-09-02 02:46:23 | 48.24911 | 14.54718 | 77° | 108km/h | 10681m | 5.0m/s | -50.6°C | 46.2% | 0hPa | 2.7V | 00:00:00 | 00:57:40 | 00:00:00 | |
| OM5KV | 2026-09-02 02:46:22 | 48.24911 | 14.54718 | 78° | 104km/h | 10681m | 5.0m/s | -50.7°C | 39.1% | 0hPa | 2.7V | 00:00:00 | 00:00:00 | 00:00:00 | |
| PETON7-10 | 2026-09-02 02:46:20 | 48.24892 | 14.54601 | 77° | 108km/h | 10666m | 4.3m/s | -50.5°C | 47.4% | 0hPa | 2.7V | 00:00:00 | 00:57:37 | 00:00:00 | |
| OE3OSB-13 | 2026-09-02 02:46:18 | 48.24872 | 14.54481 | 76° | 108km/h | 10650m | 5.7m/s | -50.5°C | 39.6% | -1.0hPa | 2.7V | 00:00:00 | 00:00:00 | 00:00:00 | |
| OE5HKT-10 | 2026-09-02 02:46:16 | 48.24866 | 14.54441 | 77° | 106km/h | 10646m | 3.7m/s | -50.4°C | 47.1% | 0hPa | 2.7V | 00:00:00 | 00:00:00 | 00:00:00 | |
| OM5KV | 2026-09-02 02:46:15 | 48.24866 | 14.54441 | 78° | 108km/h | 10646m | 3.7m/s | -50.4°C | 40.0% | 0hPa | 2.7V | 00:00:00 | 00:00:00 | 00:00:00 | |
| DO3MHA-12 | 2026-09-02 02:46:14 | 48.24853 | 14.54362 | 77° | 108km/h | 10635m | 3.9m/s | -50.3°C | 47.4% | 0hPa | 2.7V | 00:00:00 | 00:57:31 | 00:00:00 | |
| OE5MMP-10 | 2026-09-02 02:46:13 | 48.24847 | 14.54323 | 78° | 108km/h | 10631m | 5.6m/s | -50.3°C | 46.9% | 0hPa | 2.9V | 00:00:00 | 00:57:30 | 00:00:00 | |
| OE5DXL-15 | 2026-09-02 02:46:12 | 48.24841 | 14.54283 | 76° | 104km/h | 10625m | 5.4m/s | -50.2°C | 47.0% | 0hPa | 2.9V | 00:00:00 | 00:00:00 | 00:00:00 | |
| DG1MFX-10 | 2026-09-02 02:46:09 | 48.24826 | 14.54206 | 76° | 106km/h | 10615m | 4.7m/s | -50.2°C | 40.3% | 0hPa | 2.9V | 00:00:00 | 00:00:00 | 00:00:00 | |
| OE5WHR-10 | 2026-09-02 02:46:06 | 48.24798 | 14.54049 | 76° | 104km/h | 10596m | 5.4m/s | -50.0°C | 47.6% | 0hPa | 2.9V | 00:00:00 | 00:57:23 | 00:00:00 | |
| PG1ADW-2 | 2026-09-02 02:46:05 | 48.24792 | 14.54010 | 76° | 104km/h | 10591m | 3.7m/s | -50.0°C | 47.9% | 0hPa | 2.9V | 00:00:00 | 00:00:00 | 00:00:00 | |
| DO3MHA-12 | 2026-09-02 02:46:04 | 48.24784 | 14.53971 | 74° | 106km/h | 10586m | 5.5m/s | -50.0°C | 47.5% | 0hPa | 2.9V | 00:00:00 | 00:57:21 | 00:00:00 | |
| OE5MMP-10 | 2026-09-02 02:46:03 | 48.24777 | 14.53932 | 75° | 106km/h | 10581m | 3.9m/s | -49.9°C | 47.7% | 0hPa | 2.9V | 00:00:00 | 00:57:20 | 00:00:00 | |
| OM5KV | 2026-09-02 02:46:02 | 48.24777 | 14.53932 | 75° | 106km/h | 10581m | 4.0m/s | -50.0°C | 40.5% | 0hPa | 2.9V | 00:00:00 | 00:00:00 | 00:00:00 | |
| OE3OSB-13 | 2026-09-02 02:45:46 | 48.24655 | 14.53291 | 75° | 99km/h | 10500m | 5.4m/s | -49.4°C | 42.3% | -1.0hPa | 2.9V | 00:00:00 | 00:00:00 | 00:00:00 | |
| PG1ADW-2 | 2026-09-02 02:45:45 | 48.24648 | 14.53254 | 74° | 104km/h | 10495m | 3.6m/s | -49.3°C | 50.4% | 0hPa | 2.9V | 00:00:00 | 00:00:00 | 00:00:00 | |
| DO3MHA-12 | 2026-09-02 02:45:44 | 48.24640 | 14.53216 | 72° | 104km/h | 10492m | 4.4m/s | -49.3°C | 50.7% | 0hPa | 2.9V | 00:00:00 | 00:57:01 | 08:30:00 | |
| OE5MMP-10 | 2026-09-02 02:45:43 | 48.24631 | 14.53178 | 72° | 104km/h | 10487m | 4.3m/s | -49.2°C | 50.7% | 0hPa | 2.9V | 00:00:00 | 00:57:00 | 00:00:00 | |
| OE5DXL-15 | 2026-09-02 02:45:42 | 48.24623 | 14.53141 | 72° | 102km/h | 10482m | 6.4m/s | -49.2°C | 50.8% | 0hPa | 2.9V | 00:00:00 | 00:00:00 | 00:00:00 | |
| PETON7-10 | 2026-09-02 02:45:35 | 48.24571 | 14.52875 | 77° | 102km/h | 10444m | 7.0m/s | -48.9°C | 55.5% | 0hPa | 2.9V | 00:00:00 | 00:56:52 | 00:00:00 | |
| DO3MHA-12 | 2026-09-02 02:45:34 | 48.24564 | 14.52835 | 76° | 102km/h | 10438m | 4.7m/s | -48.9°C | 57.1% | 0hPa | 2.9V | 00:00:00 | 00:56:51 | 00:00:00 | |
| OE5MMP-10 | 2026-09-02 02:45:33 | 48.24557 | 14.52797 | 74° | 102km/h | 10434m | 4.6m/s | -48.9°C | 59.3% | 0hPa | 2.9V | 00:00:00 | 00:56:50 | 00:00:00 | |
| OM5KV | 2026-09-02 02:45:32 | 48.24557 | 14.52797 | 75° | 102km/h | 10434m | 4.7m/s | -48.9°C | 51.4% | 0hPa | 2.9V | 00:00:00 | 00:00:00 | 00:00:00 | |
| OM5KV | 2026-09-02 02:45:31 | 48.24550 | 14.52761 | 73° | 100km/h | 10430m | 3.3m/s | -48.9°C | 52.9% | 0hPa | 2.9V | 00:00:00 | 00:00:00 | 00:00:00 | |
| OE5FHM-15 | 2026-09-02 02:45:30 | 48.24535 | 14.52688 | 75° | 100km/h | 10420m | 6.6m/s | -48.8°C | 64.8% | 0hPa | 2.9V | 00:00:00 | 00:56:47 | 00:00:00 | |
| OE5DRO-10 | 2026-09-02 02:45:29 | 48.24529 | 14.52651 | 77° | 100km/h | 10415m | 4.1m/s | -48.8°C | 67.6% | 0hPa | 2.9V | 00:00:00 | 00:00:00 | 00:00:00 | |
| DG1MFX-10 | 2026-09-02 02:45:28 | 48.24529 | 14.52652 | 77° | 100km/h | 10415m | 4.1m/s | -48.8°C | 59.0% | 0hPa | 2.7V | 00:00:00 | 00:00:00 | 00:00:00 | |
| OM5KV | 2026-09-02 02:45:26 | 48.24517 | 14.52578 | 76° | 100km/h | 10403m | 7.0m/s | -48.8°C | 63.0% | 0hPa | 2.7V | 00:00:00 | 00:00:00 | 00:00:00 | |
| PG1ADW-2 | 2026-09-02 02:45:25 | 48.24503 | 14.52503 | 76° | 99km/h | 10393m | 5.2m/s | -48.7°C | 74.6% | 0hPa | 2.7V | 00:00:00 | 00:56:42 | 00:00:00 | |
| DO3MHA-12 | 2026-09-02 02:45:24 | 48.24497 | 14.52464 | 77° | 100km/h | 10387m | 5.5m/s | -48.7°C | 75.6% | 0hPa | 2.7V | 00:00:00 | 00:56:41 | 00:00:00 | |
| OE5MMP-10 | 2026-09-02 02:45:23 | 48.24491 | 14.52426 | 78° | 100km/h | 10383m | 3.8m/s | -48.6°C | 76.7% | 0hPa | 2.7V | 00:00:00 | 00:56:40 | 08:30:00 | |
| PETON7-10 | 2026-09-02 02:45:20 | 48.24472 | 14.52316 | 75° | 99km/h | 10367m | 5.2m/s | -48.5°C | 78.0% | 0hPa | 2.9V | 00:00:00 | 00:00:00 | 00:00:00 | |
| OE3OSB-13 | 2026-09-02 02:45:15 | 48.24440 | 14.52130 | 76° | 100km/h | 10342m | 6.8m/s | -48.4°C | 70.1% | -1.0hPa | 2.9V | 00:00:00 | 00:00:00 | 00:00:00 | |
| DO3MHA-12 | 2026-09-02 02:45:14 | 48.24434 | 14.52093 | 77° | 97km/h | 10336m | 3.5m/s | -48.3°C | 80.7% | 0hPa | 2.9V | 00:00:00 | 00:56:31 | 00:00:00 | |
| OE5MMP-10 | 2026-09-02 02:45:13 | 48.24428 | 14.52057 | 76° | 97km/h | 10332m | 6.1m/s | -48.2°C | 79.3% | 0hPa | 2.7V | 00:00:00 | 00:56:30 | 00:00:00 | |
| OE5DXL-15 | 2026-09-02 02:45:12 | 48.24421 | 14.52022 | 75° | 99km/h | 10326m | 6.2m/s | -48.2°C | 79.5% | 0hPa | 2.7V | 00:00:00 | 00:00:00 | 08:30:00 | |
| OE5DRO-10 | 2026-09-02 02:45:10 | 48.24409 | 14.51951 | 77° | 99km/h | 10316m | 5.8m/s | -48.1°C | 78.6% | 0hPa | 2.9V | 00:00:00 | 00:00:00 | 00:00:00 | |
| DG1MFX-10 | 2026-09-02 02:45:07 | 48.24397 | 14.51881 | 77° | 95km/h | 10306m | 5.9m/s | -48.0°C | 68.4% | 0hPa | 2.9V | 00:00:00 | 00:00:00 | 00:00:00 | |
| PG1ADW-2 | 2026-09-02 02:45:05 | 48.24378 | 14.51774 | 75° | 99km/h | 10291m | 4.9m/s | -47.8°C | 76.5% | 0hPa | 2.9V | 00:00:00 | 00:00:00 | 00:00:00 | |
| OE5MMP-10 | 2026-09-02 02:45:03 | 48.24364 | 14.51701 | 74° | 99km/h | 10280m | 3.8m/s | -47.7°C | 76.3% | 0hPa | 2.9V | 00:00:00 | 00:56:20 | 00:00:00 | |
| OE5FHM-15 | 2026-09-02 02:45:00 | 48.24342 | 14.51591 | 74° | 97km/h | 10266m | 4.6m/s | -47.6°C | 76.0% | 0hPa | 2.9V | 00:00:00 | 00:56:17 | 00:00:00 | |
| OM5KV | 2026-09-02 02:44:58 | 48.24335 | 14.51555 | 76° | 97km/h | 10261m | 4.8m/s | -47.6°C | 66.7% | 0hPa | 2.9V | 00:00:00 | 00:00:00 | 00:00:00 | |
| OM5KV | 2026-09-02 02:44:57 | 48.24329 | 14.51520 | 77° | 95km/h | 10257m | 3.6m/s | -47.6°C | 67.1% | 0hPa | 2.9V | 00:00:00 | 00:00:00 | 00:00:00 | |
| OE3JTB-15 | 2026-09-02 02:44:56 | 48.24317 | 14.51449 | 75° | 95km/h | 10248m | 4.8m/s | -47.4°C | 75.0% | 0hPa | 2.9V | 00:00:00 | 00:56:13 | 00:00:00 | |
| DO3MHA-12 | 2026-09-02 02:44:54 | 48.24304 | 14.51377 | 75° | 99km/h | 10239m | 6.0m/s | -47.3°C | 74.3% | 0hPa | 2.9V | 00:00:00 | 00:56:11 | 00:00:00 | |
| OE5MMP-10 | 2026-09-02 02:44:53 | 48.24297 | 14.51341 | 74° | 99km/h | 10234m | 4.1m/s | -47.3°C | 74.7% | 0hPa | 2.9V | 00:00:00 | 00:56:10 | 00:00:00 | |
| OM5KV | 2026-09-02 02:44:52 | 48.24297 | 14.51341 | 75° | 100km/h | 10234m | 4.1m/s | -47.3°C | 65.8% | 0hPa | 2.9V | 00:00:00 | 00:00:00 | 00:00:00 | |
| OE5HKT-10 | 2026-09-02 02:44:51 | 48.24282 | 14.51269 | 74° | 97km/h | 10224m | 5.0m/s | -47.2°C | 75.0% | 0hPa | 2.9V | 00:00:00 | 00:56:08 | 00:00:00 | |
| PETON7-10 | 2026-09-02 02:44:50 | 48.24275 | 14.51234 | 74° | 97km/h | 10219m | 4.6m/s | -47.2°C | 75.7% | 0hPa | 2.9V | 00:00:00 | 00:56:07 | 00:00:00 | |
| OM5KV | 2026-09-02 02:44:48 | 48.24260 | 14.51163 | 73° | 99km/h | 10210m | 4.6m/s | -47.1°C | 66.2% | 0hPa | 2.9V | 00:00:00 | 00:00:00 | 00:00:00 | |
| DG1MFX-10 | 2026-09-02 02:44:47 | 48.24260 | 14.51163 | 73° | 99km/h | 10210m | 4.6m/s | -47.1°C | 66.2% | 0hPa | 2.9V | 00:00:00 | 00:00:00 | 00:00:00 | |
| OM5KV | 2026-09-02 02:44:46 | 48.24253 | 14.51127 | 74° | 99km/h | 10205m | 5.4m/s | -47.1°C | 65.8% | 0hPa | 2.9V | 00:00:00 | 00:00:00 | 00:00:00 | |
| PG1ADW-2 | 2026-09-02 02:44:45 | 48.24238 | 14.51055 | 74° | 95km/h | 10196m | 5.9m/s | -47.0°C | 73.6% | 0hPa | 2.9V | 00:00:00 | 00:00:00 | 00:00:00 | |
| DO3MHA-12 | 2026-09-02 02:44:44 | 48.24232 | 14.51019 | 75° | 97km/h | 10191m | 4.2m/s | -46.9°C | 73.7% | 0hPa | 2.7V | 00:00:00 | 00:56:01 | 00:00:00 | |
| OE5MMP-10 | 2026-09-02 02:44:43 | 48.24225 | 14.50982 | 75° | 97km/h | 10186m | 4.4m/s | -46.9°C | 73.7% | 0hPa | 2.9V | 00:00:00 | 00:56:00 | 00:00:00 | |
| OE5DXL-15 | 2026-09-02 02:44:42 | 48.24218 | 14.50947 | 74° | 93km/h | 10182m | 3.4m/s | -46.8°C | 73.1% | 0hPa | 2.9V | 00:00:00 | 00:00:00 | 00:00:00 | |
| OM5KV | 2026-09-02 02:44:40 | 48.24211 | 14.50912 | 75° | 97km/h | 10178m | 6.0m/s | -46.8°C | 64.1% | 0hPa | 2.9V | 00:00:00 | 00:00:00 | 00:00:00 | |
| OM5KV | 2026-09-02 02:44:39 | 48.24204 | 14.50877 | 75° | 95km/h | 10173m | 3.4m/s | -46.8°C | 64.3% | 0hPa | 2.9V | 00:00:00 | 00:00:00 | 00:00:00 | |
| OM5KV | 2026-09-02 02:44:36 | 48.24185 | 14.50773 | 74° | 95km/h | 10157m | 6.8m/s | -46.7°C | 63.5% | 0hPa | 2.9V | 00:00:00 | 00:00:00 | 00:00:00 | |
| PETON7-10 | 2026-09-02 02:44:35 | 48.24171 | 14.50703 | 75° | 93km/h | 10147m | 6.1m/s | -46.5°C | 72.8% | 0hPa | 2.9V | 00:00:00 | 00:00:00 | 08:30:00 | |
| DO3MHA-12 | 2026-09-02 02:44:34 | 48.24164 | 14.50668 | 74° | 93km/h | 10142m | 2.9m/s | -46.5°C | 73.6% | 0hPa | 2.9V | 00:00:00 | 00:55:51 | 00:00:00 | |
| OE5MMP-10 | 2026-09-02 02:44:33 | 48.24157 | 14.50633 | 73° | 93km/h | 10138m | 4.9m/s | -46.4°C | 73.0% | 0hPa | 2.9V | 00:00:00 | 00:55:50 | 00:00:00 | |
| OE5DRO-10 | 2026-09-02 02:44:32 | 48.24150 | 14.50599 | 73° | 93km/h | 10133m | 4.4m/s | -46.4°C | 73.4% | 0hPa | 2.9V | 00:00:00 | 00:00:00 | 00:00:00 | |
| OE5FHM-15 | 2026-09-02 02:44:30 | 48.24137 | 14.50532 | 74° | 93km/h | 10125m | 4.7m/s | -46.3°C | 73.8% | 0hPa | 2.9V | 00:00:00 | 00:55:47 | 00:00:00 | |
| OM5KV | 2026-09-02 02:44:29 | 48.24137 | 14.50532 | 75° | 91km/h | 10125m | 4.7m/s | -46.4°C | 65.3% | 0hPa | 2.9V | 00:00:00 | 00:00:00 | 00:00:00 | |
| OM5KV | 2026-09-02 02:44:28 | 48.24130 | 14.50499 | 75° | 91km/h | 10121m | 3.4m/s | -46.3°C | 65.3% | 0hPa | 2.9V | 00:00:00 | 00:00:00 | 00:00:00 | |
| DG1MFX-10 | 2026-09-02 02:44:26 | 48.24117 | 14.50433 | 73° | 91km/h | 10112m | 4.1m/s | -46.3°C | 65.1% | 0hPa | 2.9V | 00:00:00 | 00:00:00 | 00:00:00 | |
| PG1ADW-2 | 2026-09-02 02:44:25 | 48.24103 | 14.50366 | 74° | 93km/h | 10102m | 3.3m/s | -46.1°C | 74.0% | 0hPa | 2.9V | 00:00:00 | 00:00:00 | 00:00:00 | |
| DO3MHA-12 | 2026-09-02 02:44:24 | 48.24096 | 14.50331 | 74° | 93km/h | 10098m | 4.3m/s | -46.1°C | 73.1% | 0hPa | 2.9V | 00:00:00 | 00:55:41 | 00:00:00 | |
| OE5MMP-10 | 2026-09-02 02:44:23 | 48.24089 | 14.50297 | 72° | 93km/h | 10093m | 5.3m/s | -46.0°C | 73.0% | 0hPa | 2.9V | 00:00:00 | 00:55:40 | 00:00:00 | |
| OE5WHR-10 | 2026-09-02 02:44:21 | 48.24074 | 14.50228 | 72° | 91km/h | 10083m | 4.4m/s | -45.9°C | 73.4% | 0hPa | 2.7V | 00:00:00 | 00:00:00 | 00:00:00 | |
| PETON7-10 | 2026-09-02 02:44:20 | 48.24066 | 14.50194 | 72° | 93km/h | 10078m | 5.4m/s | -45.9°C | 73.4% | 0hPa | 2.7V | 00:00:00 | 00:00:00 | 00:00:00 | |
| OM5KV | 2026-09-02 02:44:18 | 48.24059 | 14.50161 | 74° | 93km/h | 10074m | 3.7m/s | -45.9°C | 65.2% | 0hPa | 2.7V | 00:00:00 | 00:00:00 | 00:00:00 | |
| DO3MHA-12 | 2026-09-02 02:44:14 | 48.24026 | 14.49993 | 73° | 93km/h | 10051m | 4.4m/s | -45.7°C | 74.4% | 0hPa | 2.7V | 00:00:00 | 00:55:31 | 08:30:00 | |
| OE5MMP-10 | 2026-09-02 02:44:13 | 48.24019 | 14.49960 | 73° | 93km/h | 10046m | 5.0m/s | -45.6°C | 73.9% | 0hPa | 2.7V | 00:00:00 | 00:55:30 | 00:00:00 | |
| OE5DXL-15 | 2026-09-02 02:44:12 | 48.24012 | 14.49926 | 72° | 91km/h | 10041m | 4.9m/s | -45.6°C | 74.6% | 0hPa | 2.7V | 00:00:00 | 00:00:00 | 00:00:00 | |
| OE5HKT-10 | 2026-09-02 02:44:07 | 48.23976 | 14.49759 | 73° | 91km/h | 10017m | 5.5m/s | -45.4°C | 76.9% | 0hPa | 2.7V | 00:00:00 | 00:00:00 | 00:00:00 | |
| OM5KV | 2026-09-02 02:44:06 | 48.23976 | 14.49759 | 74° | 93km/h | 10017m | 5.5m/s | -45.4°C | 68.4% | 0hPa | 2.7V | 00:00:00 | 00:00:00 | 00:00:00 | |
| PG1ADW-2 | 2026-09-02 02:44:05 | 48.23962 | 14.49692 | 73° | 91km/h | 10008m | 5.3m/s | -45.3°C | 77.1% | 0hPa | 2.7V | 00:00:00 | 00:55:22 | 00:00:00 | |
| DO3MHA-12 | 2026-09-02 02:44:04 | 48.23956 | 14.49660 | 74° | 91km/h | 10003m | 4.0m/s | -45.2°C | 77.3% | 0hPa | 2.7V | 00:00:00 | 00:55:21 | 00:00:00 | |
| OE5WHR-10 | 2026-09-02 02:44:00 | 48.23929 | 14.49529 | 74° | 91km/h | 9986m | 4.2m/s | -45.1°C | 79.0% | 0hPa | 2.7V | 00:00:00 | 00:55:17 | 00:00:00 | |
| OM5KV | 2026-09-02 02:43:56 | 48.23907 | 14.49430 | 72° | 91km/h | 9973m | 5.5m/s | -45.1°C | 70.5% | 0hPa | 2.7V | 00:00:00 | 00:00:00 | 00:00:00 | |
| OE3JTB-15 | 2026-09-02 02:43:55 | 48.23891 | 14.49363 | 71° | 89km/h | 9964m | 4.9m/s | -44.9°C | 79.4% | 0hPa | 2.7V | 00:00:00 | 00:00:00 | 00:00:00 | |
| DO3MHA-12 | 2026-09-02 02:43:54 | 48.23884 | 14.49329 | 72° | 89km/h | 9959m | 4.1m/s | -44.9°C | 79.4% | 0hPa | 2.7V | 00:00:00 | 00:55:11 | 00:00:00 | |
| OE5MMP-10 | 2026-09-02 02:43:53 | 48.23877 | 14.49296 | 74° | 89km/h | 9954m | 4.8m/s | -44.8°C | 79.8% | 0hPa | 2.7V | 00:00:00 | 00:55:10 | 08:30:00 | |
| PETON7-10 | 2026-09-02 02:43:50 | 48.23858 | 14.49195 | 75° | 91km/h | 9941m | 3.0m/s | -44.7°C | 79.6% | 0hPa | 2.9V | 00:00:00 | 00:00:00 | 00:00:00 | |
| OM5KV | 2026-09-02 02:43:49 | 48.23858 | 14.49195 | 75° | 89km/h | 9941m | 3.1m/s | -44.8°C | 71.0% | 0hPa | 2.9V | 00:00:00 | 00:00:00 | 00:00:00 | |
| OE5HKT-10 | 2026-09-02 02:43:46 | 48.23831 | 14.49067 | 73° | 88km/h | 9925m | 4.1m/s | -44.6°C | 79.8% | 0hPa | 2.9V | 00:00:00 | 00:55:03 | 00:00:00 | |
| PG1ADW-2 | 2026-09-02 02:43:45 | 48.23825 | 14.49034 | 74° | 89km/h | 9920m | 4.3m/s | -44.5°C | 79.7% | 0hPa | 2.9V | 00:00:00 | 00:00:00 | 08:30:00 | |
| DO3MHA-12 | 2026-09-02 02:43:44 | 48.23819 | 14.49002 | 74° | 91km/h | 9916m | 5.0m/s | -44.5°C | 79.3% | 0hPa | 2.9V | 00:00:00 | 00:55:01 | 00:00:00 | |
| OE5MMP-10 | 2026-09-02 02:43:43 | 48.23812 | 14.48970 | 74° | 91km/h | 9912m | 4.3m/s | -44.4°C | 79.8% | 0hPa | 2.7V | 00:00:00 | 00:55:00 | 00:00:00 | |
| OE5DXL-15 | 2026-09-02 02:43:42 | 48.23806 | 14.48937 | 76° | 88km/h | 9907m | 5.7m/s | -44.4°C | 79.5% | 0hPa | 2.7V | 00:00:00 | 00:00:00 | 00:00:00 | |
| OE5WHR-10 | 2026-09-02 02:43:39 | 48.23785 | 14.48835 | 72° | 88km/h | 9894m | 3.5m/s | -44.3°C | 79.8% | 0hPa | 2.9V | 00:00:00 | 00:00:00 | 08:30:00 | |
| PETON7-10 | 2026-09-02 02:43:35 | 48.23758 | 14.48703 | 73° | 86km/h | 9876m | 4.5m/s | -44.1°C | 79.1% | 0hPa | 2.9V | 00:00:00 | 00:00:00 | 00:00:00 | |
| DO3MHA-12 | 2026-09-02 02:43:34 | 48.23752 | 14.48672 | 73° | 88km/h | 9871m | 5.3m/s | -44.1°C | 78.6% | 0hPa | 2.9V | 00:00:00 | 00:54:51 | 00:00:00 | |
| OE5MMP-10 | 2026-09-02 02:43:33 | 48.23745 | 14.48640 | 73° | 88km/h | 9866m | 4.7m/s | -44.1°C | 79.1% | 0hPa | 2.9V | 00:00:00 | 00:54:50 | 00:00:00 | |
| OE5FHM-15 | 2026-09-02 02:43:30 | 48.23721 | 14.48546 | 69° | 84km/h | 9851m | 5.3m/s | -43.9°C | 79.8% | 0hPa | 2.9V | 00:00:00 | 00:54:47 | 00:00:00 | |
| OM5KV | 2026-09-02 02:43:27 | 48.23706 | 14.48484 | 73° | 89km/h | 9842m | 4.6m/s | -43.9°C | 71.7% | 0hPa | 2.9V | 00:00:00 | 00:00:00 | 00:00:00 | |
| PG1ADW-2 | 2026-09-02 02:43:25 | 48.23678 | 14.48359 | 72° | 84km/h | 9822m | 6.1m/s | -43.8°C | 79.6% | 0hPa | 2.9V | 00:00:00 | 00:00:00 | 00:00:00 | |
| DO3MHA-12 | 2026-09-02 02:43:24 | 48.23678 | 14.48359 | 72° | 84km/h | 9822m | 6.1m/s | -43.8°C | 79.6% | 0hPa | 2.9V | 00:00:00 | 00:54:41 | 00:00:00 | |
| OE5MMP-10 | 2026-09-02 02:43:23 | 48.23671 | 14.48328 | 71° | 84km/h | 9817m | 3.1m/s | -43.7°C | 80.0% | 0hPa | 2.9V | 00:00:00 | 00:54:40 | 00:00:00 | |
| PETON7-10 | 2026-09-02 02:43:20 | 48.23651 | 14.48238 | 73° | 84km/h | 9803m | 4.6m/s | -43.6°C | 78.2% | 0hPa | 2.7V | 00:00:00 | 00:54:37 | 00:00:00 | |
| OM5KV | 2026-09-02 02:43:19 | 48.23651 | 14.48238 | 74° | 84km/h | 9803m | 4.6m/s | -43.6°C | 70.0% | 0hPa | 2.7V | 00:00:00 | 00:00:00 | 00:00:00 | |
| OE5WHR-10 | 2026-09-02 02:43:18 | 48.23638 | 14.48178 | 72° | 84km/h | 9792m | 6.5m/s | -43.5°C | 76.7% | 0hPa | 2.7V | 00:00:00 | 00:00:00 | 00:00:00 | |
| OE5DRO-10 | 2026-09-02 02:43:16 | 48.23625 | 14.48119 | 73° | 86km/h | 9782m | 4.8m/s | -43.4°C | 75.9% | 0hPa | 2.7V | 00:00:00 | 00:00:00 | 00:00:00 | |
| DO3MHA-12 | 2026-09-02 02:43:14 | 48.23612 | 14.48057 | 71° | 84km/h | 9772m | 4.6m/s | -43.3°C | 74.5% | 0hPa | 2.7V | 00:00:00 | 00:54:31 | 00:00:00 | |
| OE5MMP-10 | 2026-09-02 02:43:13 | 48.23605 | 14.48027 | 71° | 84km/h | 9768m | 4.3m/s | -43.3°C | 74.3% | 0hPa | 2.9V | 00:00:00 | 00:54:30 | 00:00:00 | |
| OE5DXL-15 | 2026-09-02 02:43:12 | 48.23598 | 14.47996 | 72° | 86km/h | 9763m | 5.9m/s | -43.2°C | 73.7% | 0hPa | 2.9V | 00:00:00 | 00:00:00 | 00:00:00 | |
| OE3OSB-13 | 2026-09-02 02:43:11 | 48.23592 | 14.47965 | 72° | 84km/h | 9758m | 3.8m/s | -43.2°C | 65.6% | -1.0hPa | 2.9V | 00:00:00 | 00:00:00 | 00:00:00 | |
| OE5REO-15 | 2026-09-02 02:43:10 | 48.23592 | 14.47965 | 74° | 84km/h | 9758m | 3.8m/s | 0°C | 0% | 0hPa | 2.9V | 00:00:00 | 00:00:00 | 00:00:00 | |
| OM5KV | 2026-09-02 02:43:09 | 48.23586 | 14.47934 | 75° | 82km/h | 9753m | 5.0m/s | -43.2°C | 65.2% | 0hPa | 2.9V | 00:00:00 | 00:00:00 | 00:00:00 | |
| OM5KV | 2026-09-02 02:43:08 | 48.23580 | 14.47904 | 76° | 84km/h | 9748m | 4.7m/s | -43.1°C | 64.8% | 0hPa | 2.9V | 00:00:00 | 00:00:00 | 00:00:00 | |
| OM5KV | 2026-09-02 02:43:06 | 48.23569 | 14.47842 | 78° | 82km/h | 9739m | 5.6m/s | -43.0°C | 63.7% | 0hPa | 2.9V | 00:00:00 | 00:00:00 | 00:00:00 | |
| PG1ADW-2 | 2026-09-02 02:43:05 | 48.23560 | 14.47782 | 77° | 88km/h | 9729m | 5.5m/s | -42.9°C | 70.9% | 0hPa | 2.9V | 00:00:00 | 00:00:00 | 00:00:00 | |
| DO3MHA-12 | 2026-09-02 02:43:04 | 48.23554 | 14.47751 | 75° | 88km/h | 9724m | 4.0m/s | -42.8°C | 70.7% | 0hPa | 2.9V | 00:00:00 | 00:54:21 | 00:00:00 | |
| OE5FHM-15 | 2026-09-02 02:43:00 | 48.23532 | 14.47625 | 75° | 88km/h | 9703m | 5.6m/s | -42.7°C | 71.7% | 0hPa | 2.9V | 00:00:00 | 00:54:17 | 00:00:00 | |
| OM5KV | 2026-09-02 02:42:58 | 48.23526 | 14.47593 | 76° | 89km/h | 9698m | 3.2m/s | -42.8°C | 64.6% | 0hPa | 2.9V | 00:00:00 | 00:00:00 | 00:00:00 | |
| OE5WHR-10 | 2026-09-02 02:42:57 | 48.23515 | 14.47527 | 76° | 88km/h | 9688m | 4.5m/s | -42.6°C | 72.4% | 0hPa | 2.9V | 00:00:00 | 00:54:14 | 00:00:00 | |
| OE3JTB-15 | 2026-09-02 02:42:56 | 48.23509 | 14.47494 | 76° | 86km/h | 9684m | 4.6m/s | -42.6°C | 73.3% | 0hPa | 2.9V | 00:00:00 | 00:00:00 | 08:30:00 | |
| OM5KV | 2026-09-02 02:42:55 | 48.23509 | 14.47494 | 77° | 88km/h | 9684m | 4.6m/s | -42.6°C | 65.8% | 0hPa | 2.9V | 00:00:00 | 00:00:00 | 00:00:00 | |
| DO3MHA-12 | 2026-09-02 02:42:54 | 48.23499 | 14.47430 | 78° | 88km/h | 9676m | 4.3m/s | -42.5°C | 73.2% | 0hPa | 2.9V | 00:00:00 | 00:54:11 | 00:00:00 | |
| OE5MMP-10 | 2026-09-02 02:42:53 | 48.23494 | 14.47398 | 77° | 88km/h | 9672m | 3.1m/s | -42.5°C | 73.0% | 0hPa | 2.9V | 00:00:00 | 00:54:10 | 00:00:00 | |
| PETON7-10 | 2026-09-02 02:42:50 | 48.23475 | 14.47304 | 73° | 88km/h | 9658m | 6.4m/s | -42.3°C | 70.1% | 0hPa | 2.7V | 00:00:00 | 00:00:00 | 00:00:00 | |
| PG1ADW-2 | 2026-09-02 02:42:45 | 48.23449 | 14.47140 | 78° | 86km/h | 9624m | 5.8m/s | -42.1°C | 72.3% | 0hPa | 2.7V | 00:00:00 | 00:54:02 | 00:00:00 | |
| DO3MHA-12 | 2026-09-02 02:42:44 | 48.23444 | 14.47108 | 78° | 86km/h | 9620m | 2.4m/s | -42.0°C | 72.8% | 0hPa | 2.9V | 00:00:00 | 00:54:01 | 08:30:00 | |
| OE5HKT-10 | 2026-09-02 02:42:43 | 48.23439 | 14.47076 | 78° | 86km/h | 9616m | 6.2m/s | -42.0°C | 72.1% | 0hPa | 2.9V | 00:00:00 | 00:54:00 | 00:00:00 | |
| OE5DXL-15 | 2026-09-02 02:42:42 | 48.23434 | 14.47043 | 78° | 84km/h | 9610m | 4.4m/s | -41.9°C | 73.2% | 0hPa | 2.9V | 00:00:00 | 00:00:00 | 00:00:00 | |
| DG1MFX-10 | 2026-09-02 02:42:41 | 48.23434 | 14.47043 | 79° | 86km/h | 9610m | 4.5m/s | -42.0°C | 65.8% | 0hPa | 2.9V | 00:00:00 | 00:00:00 | 00:00:00 | |
| OE3OSB-13 | 2026-09-02 02:42:40 | 48.23421 | 14.46948 | 77° | 86km/h | 9596m | 5.8m/s | -41.9°C | 66.9% | -1.0hPa | 2.9V | 00:00:00 | 00:00:00 | 00:00:00 | |
| OE5DRO-10 | 2026-09-02 02:42:38 | 48.23416 | 14.46916 | 77° | 86km/h | 9592m | 3.1m/s | -41.8°C | 75.5% | 0hPa | 2.9V | 00:00:00 | 00:00:00 | 00:00:00 | |
| OM5KV | 2026-09-02 02:42:37 | 48.23416 | 14.46916 | 77° | 88km/h | 9592m | 3.2m/s | -41.8°C | 68.0% | 0hPa | 2.9V | 00:00:00 | 00:00:00 | 00:00:00 | |
| OE5WHR-10 | 2026-09-02 02:42:36 | 48.23405 | 14.46854 | 76° | 84km/h | 9583m | 3.9m/s | -41.7°C | 75.9% | 0hPa | 2.9V | 00:00:00 | 00:00:00 | 00:00:00 | |
| PETON7-10 | 2026-09-02 02:42:35 | 48.23400 | 14.46823 | 77° | 86km/h | 9579m | 4.7m/s | -41.7°C | 75.3% | 0hPa | 2.9V | 00:00:00 | 00:53:52 | 00:00:00 | |
| DO3MHA-12 | 2026-09-02 02:42:34 | 48.23395 | 14.46792 | 77° | 84km/h | 9574m | 4.8m/s | -41.6°C | 75.9% | 0hPa | 2.9V | 00:00:00 | 00:53:51 | 00:00:00 | |
| OE5MMP-10 | 2026-09-02 02:42:33 | 48.23390 | 14.46761 | 77° | 86km/h | 9569m | 5.6m/s | -41.6°C | 75.7% | 0hPa | 2.9V | 00:00:00 | 00:53:50 | 00:00:00 | |
| OE5REO-15 | 2026-09-02 02:42:32 | 48.23390 | 14.46761 | 78° | 82km/h | 9569m | 5.6m/s | 0°C | 0% | 0hPa | 2.9V | 00:00:00 | 00:00:00 | 00:00:00 | |
| OE5FHM-15 | 2026-09-02 02:42:30 | 48.23377 | 14.46667 | 79° | 84km/h | 9555m | 3.6m/s | -41.5°C | 76.0% | 0hPa | 2.9V | 00:00:00 | 00:53:47 | 08:30:00 | |
| OM5KV | 2026-09-02 02:42:29 | 48.23377 | 14.46667 | 79° | 86km/h | 9555m | 3.7m/s | -41.5°C | 68.5% | 0hPa | 2.7V | 00:00:00 | 00:00:00 | 00:00:00 | |
| OM5KV | 2026-09-02 02:42:28 | 48.23373 | 14.46635 | 79° | 84km/h | 9551m | 5.0m/s | -41.5°C | 68.6% | 0hPa | 2.7V | 00:00:00 | 00:00:00 | 00:00:00 | |
| OE3JTB-15 | 2026-09-02 02:42:27 | 48.23364 | 14.46572 | 78° | 82km/h | 9542m | 5.6m/s | -41.4°C | 76.2% | 0hPa | 2.7V | 00:00:00 | 00:00:00 | 00:00:00 | |
| PG1ADW-2 | 2026-09-02 02:42:25 | 48.23353 | 14.46510 | 76° | 84km/h | 9532m | 4.1m/s | -41.3°C | 77.1% | 0hPa | 2.7V | 00:00:00 | 00:00:00 | 00:00:00 | |
| DO3MHA-12 | 2026-09-02 02:42:24 | 48.23348 | 14.46478 | 76° | 84km/h | 9527m | 5.4m/s | -41.3°C | 77.0% | 0hPa | 2.7V | 00:00:00 | 00:53:41 | 00:00:00 | |
| OE5MMP-10 | 2026-09-02 02:42:23 | 48.23342 | 14.46446 | 77° | 84km/h | 9523m | 3.3m/s | -41.2°C | 77.5% | 0hPa | 2.7V | 00:00:00 | 00:53:40 | 08:30:00 | |
| OE5HKT-10 | 2026-09-02 02:42:22 | 48.23337 | 14.46414 | 76° | 82km/h | 9518m | 5.3m/s | -41.2°C | 77.1% | 0hPa | 2.7V | 00:00:00 | 00:00:00 | 00:00:00 | |
| DG1MFX-10 | 2026-09-02 02:42:21 | 48.23337 | 14.46414 | 77° | 86km/h | 9518m | 5.3m/s | -41.2°C | 69.6% | 0hPa | 2.9V | 00:00:00 | 00:00:00 | 00:00:00 | |
| PETON7-10 | 2026-09-02 02:42:20 | 48.23326 | 14.46351 | 76° | 82km/h | 9509m | 5.0m/s | -41.1°C | 76.8% | 0hPa | 2.9V | 00:00:00 | 00:00:00 | 08:30:00 | |
| OE5DRO-10 | 2026-09-02 02:42:19 | 48.23321 | 14.46320 | 76° | 82km/h | 9504m | 4.6m/s | -41.1°C | 76.4% | 0hPa | 2.9V | 00:00:00 | 00:00:00 | 00:00:00 | |
| OM5KV | 2026-09-02 02:42:17 | 48.23316 | 14.46289 | 77° | 84km/h | 9500m | 4.7m/s | -41.1°C | 69.1% | 0hPa | 2.9V | 00:00:00 | 00:00:00 | 00:00:00 | |
| OM5KV | 2026-09-02 02:42:16 | 48.23310 | 14.46258 | 76° | 84km/h | 9495m | 5.3m/s | -41.1°C | 68.5% | 0hPa | 2.9V | 00:00:00 | 00:00:00 | 00:00:00 | |
| OE5WHR-10 | 2026-09-02 02:42:15 | 48.23299 | 14.46198 | 76° | 80km/h | 9484m | 6.7m/s | -40.9°C | 75.2% | 0hPa | 2.9V | 00:00:00 | 00:00:00 | 00:00:00 | |
| DO3MHA-12 | 2026-09-02 02:42:14 | 48.23295 | 14.46169 | 78° | 82km/h | 9479m | 4.4m/s | -40.9°C | 75.9% | 0hPa | 2.9V | 00:00:00 | 00:53:31 | 00:00:00 | |
| OE5MMP-10 | 2026-09-02 02:42:13 | 48.23290 | 14.46139 | 78° | 82km/h | 9473m | 5.6m/s | -40.8°C | 75.7% | 0hPa | 2.9V | 00:00:00 | 00:53:30 | 00:00:00 | |
| OE5DXL-15 | 2026-09-02 02:42:12 | 48.23286 | 14.46109 | 77° | 80km/h | 9469m | 3.0m/s | -40.8°C | 75.8% | 0hPa | 2.9V | 00:00:00 | 00:00:00 | 00:00:00 | |
| OM5KV | 2026-09-02 02:42:11 | 48.23286 | 14.46109 | 78° | 82km/h | 9469m | 3.1m/s | -40.9°C | 68.4% | 0hPa | 2.7V | 00:00:00 | 00:00:00 | 00:00:00 | |
| OM5KV | 2026-09-02 02:42:10 | 48.23281 | 14.46079 | 77° | 80km/h | 9465m | 5.8m/s | -40.8°C | 67.4% | 0hPa | 2.7V | 00:00:00 | 00:00:00 | 00:00:00 | |
| OM5KV | 2026-09-02 02:42:09 | 48.23276 | 14.46049 | 77° | 82km/h | 9459m | 4.3m/s | -40.8°C | 67.6% | 0hPa | 2.7V | 00:00:00 | 00:00:00 | 00:00:00 | |
| PETON7-10 | 2026-09-02 02:42:05 | 48.23249 | 14.45896 | 76° | 80km/h | 9436m | 5.7m/s | -40.5°C | 73.8% | 0hPa | 2.7V | 00:00:00 | 00:00:00 | 00:00:00 | |
| DO3MHA-12 | 2026-09-02 02:42:04 | 48.23244 | 14.45866 | 77° | 78km/h | 9431m | 3.9m/s | -40.5°C | 73.7% | 0hPa | 2.7V | 00:00:00 | 00:53:21 | 00:00:00 | |
| OE5HKT-10 | 2026-09-02 02:42:01 | 48.23230 | 14.45778 | 78° | 80km/h | 9417m | 5.1m/s | -40.3°C | 73.2% | 0hPa | 2.7V | 00:00:00 | 00:00:00 | 00:00:00 | |
| OE5FHM-15 | 2026-09-02 02:42:00 | 48.23226 | 14.45749 | 77° | 80km/h | 9412m | 5.0m/s | -40.3°C | 72.9% | 0hPa | 2.7V | 00:00:00 | 00:53:17 | 00:00:00 | |
| OM5KV | 2026-09-02 02:41:59 | 48.23226 | 14.45749 | 77° | 78km/h | 9412m | 5.1m/s | -40.3°C | 65.9% | 0hPa | 2.7V | 00:00:00 | 00:00:00 | 00:00:00 | |
| OE3JTB-15 | 2026-09-02 02:41:58 | 48.23214 | 14.45692 | 74° | 80km/h | 9403m | 4.4m/s | -40.2°C | 73.0% | 0hPa | 2.7V | 00:00:00 | 00:53:15 | 00:00:00 | |
| DO3MHA-12 | 2026-09-02 02:41:54 | 48.23192 | 14.45577 | 76° | 78km/h | 9385m | 4.5m/s | -40.0°C | 71.4% | 0hPa | 2.7V | 00:00:00 | 00:53:11 | 00:00:00 | |
| OE5MMP-10 | 2026-09-02 02:41:53 | 48.23187 | 14.45548 | 77° | 78km/h | 9381m | 3.8m/s | -40.0°C | 70.9% | 0hPa | 2.7V | 00:00:00 | 00:53:10 | 00:00:00 | |
| PETON7-10 | 2026-09-02 02:41:50 | 48.23173 | 14.45460 | 78° | 80km/h | 9366m | 6.1m/s | -39.8°C | 70.0% | 0hPa | 2.9V | 00:00:00 | 00:53:07 | 00:00:00 | |
| OM5KV | 2026-09-02 02:41:48 | 48.23169 | 14.45431 | 78° | 78km/h | 9360m | 4.4m/s | -39.8°C | 63.3% | 0hPa | 2.9V | 00:00:00 | 00:00:00 | 00:00:00 | |
| OM5KV | 2026-09-02 02:41:47 | 48.23164 | 14.45403 | 76° | 78km/h | 9356m | 4.6m/s | -39.8°C | 63.3% | 0hPa | 2.9V | 00:00:00 | 00:00:00 | 00:00:00 | |
| PG1ADW-2 | 2026-09-02 02:41:45 | 48.23148 | 14.45316 | 74° | 80km/h | 9342m | 4.6m/s | -39.6°C | 68.7% | 0hPa | 2.9V | 00:00:00 | 00:00:00 | 00:00:00 | |
| DO3MHA-12 | 2026-09-02 02:41:44 | 48.23142 | 14.45287 | 74° | 82km/h | 9337m | 4.4m/s | -39.6°C | 68.8% | 0hPa | 2.9V | 00:00:00 | 00:53:01 | 00:00:00 | |
| OE5MMP-10 | 2026-09-02 02:41:43 | 48.23137 | 14.45257 | 74° | 82km/h | 9332m | 5.7m/s | -39.5°C | 68.9% | 0hPa | 2.7V | 00:00:00 | 00:53:00 | 00:00:00 | |
| OE5DXL-15 | 2026-09-02 02:41:42 | 48.23131 | 14.45228 | 75° | 78km/h | 9327m | 3.6m/s | -39.5°C | 69.4% | 0hPa | 2.7V | 00:00:00 | 00:00:00 | 00:00:00 | |
| OE5DRO-10 | 2026-09-02 02:41:41 | 48.23125 | 14.45199 | 74° | 80km/h | 9323m | 5.3m/s | -39.4°C | 69.0% | 0hPa | 2.7V | 00:00:00 | 00:00:00 | 00:00:00 | |
| OE5HKT-10 | 2026-09-02 02:41:38 | 48.23109 | 14.45110 | 75° | 78km/h | 9308m | 4.7m/s | -39.3°C | 69.6% | 0hPa | 2.7V | 00:00:00 | 00:52:55 | 00:00:00 | |
| OM5KV | 2026-09-02 02:41:37 | 48.23109 | 14.45110 | 75° | 84km/h | 9308m | 4.8m/s | -39.3°C | 63.0% | 0hPa | 2.7V | 00:00:00 | 00:00:00 | 00:00:00 | |
| OM5KV | 2026-09-02 02:41:36 | 48.23103 | 14.45079 | 74° | 84km/h | 9303m | 5.0m/s | -39.3°C | 63.9% | 0hPa | 2.7V | 00:00:00 | 00:00:00 | 00:00:00 | |
| PETON7-10 | 2026-09-02 02:41:35 | 48.23092 | 14.45018 | 79° | 78km/h | 9293m | 6.3m/s | -39.1°C | 69.9% | 0hPa | 2.7V | 00:00:00 | 00:00:00 | 00:00:00 | |
| DO3MHA-12 | 2026-09-02 02:41:34 | 48.23088 | 14.44988 | 81° | 80km/h | 9288m | 3.7m/s | -39.1°C | 70.4% | 0hPa | 2.7V | 00:00:00 | 00:52:51 | 00:00:00 | |
| OE5MMP-10 | 2026-09-02 02:41:33 | 48.23085 | 14.44956 | 83° | 78km/h | 9284m | 5.1m/s | -39.1°C | 69.9% | 0hPa | 2.7V | 00:00:00 | 00:52:50 | 00:00:00 | |
| OM5KV | 2026-09-02 02:41:31 | 48.23083 | 14.44926 | 85° | 80km/h | 9279m | 3.8m/s | -39.1°C | 63.6% | 0hPa | 2.7V | 00:00:00 | 00:00:00 | 00:00:00 | |
| OE5FHM-15 | 2026-09-02 02:41:30 | 48.23077 | 14.44868 | 78° | 77km/h | 9269m | 3.9m/s | -38.9°C | 69.5% | 0hPa | 2.7V | 00:00:00 | 00:52:47 | 00:00:00 | |
| OE3JTB-15 | 2026-09-02 02:41:29 | 48.23073 | 14.44841 | 75° | 78km/h | 9263m | 8.0m/s | -38.9°C | 68.8% | 0hPa | 2.7V | 00:00:00 | 00:00:00 | 00:00:00 | |
| PG1ADW-2 | 2026-09-02 02:41:25 | 48.23050 | 14.44727 | 74° | 77km/h | 9233m | 6.7m/s | -38.8°C | 71.7% | 0hPa | 2.7V | 00:00:00 | 00:52:42 | 00:00:00 | |
| DO3MHA-12 | 2026-09-02 02:41:24 | 48.23044 | 14.44699 | 73° | 77km/h | 9227m | 4.6m/s | -38.8°C | 72.2% | 0hPa | 2.7V | 00:00:00 | 00:52:41 | 00:00:00 | |
| OE5DRO-10 | 2026-09-02 02:41:22 | 48.23033 | 14.44643 | 75° | 77km/h | 9218m | 3.3m/s | -38.7°C | 72.9% | 0hPa | 2.7V | 00:00:00 | 00:00:00 | 00:00:00 | |
| PETON7-10 | 2026-09-02 02:41:20 | 48.23023 | 14.44587 | 74° | 77km/h | 9209m | 4.3m/s | -38.6°C | 72.6% | 0hPa | 2.7V | 00:00:00 | 00:00:00 | 00:00:00 | |
| OM5KV | 2026-09-02 02:41:19 | 48.23023 | 14.44587 | 75° | 75km/h | 9209m | 4.4m/s | -38.7°C | 65.9% | 0hPa | 2.7V | 00:00:00 | 00:00:00 | 00:00:00 | |
| OM5KV | 2026-09-02 02:41:18 | 48.23018 | 14.44560 | 74° | 77km/h | 9205m | 4.0m/s | -38.6°C | 65.9% | 0hPa | 2.7V | 00:00:00 | 00:00:00 | 00:00:00 | |
| OE5HKT-10 | 2026-09-02 02:41:17 | 48.23006 | 14.44503 | 74° | 78km/h | 9196m | 4.1m/s | -38.5°C | 72.3% | 0hPa | 2.7V | 00:00:00 | 00:00:00 | 08:30:00 | |
| OM5KV | 2026-09-02 02:41:15 | 48.23001 | 14.44475 | 76° | 77km/h | 9192m | 4.0m/s | -38.5°C | 65.7% | 0hPa | 2.9V | 00:00:00 | 00:00:00 | 00:00:00 | |
| DO3MHA-12 | 2026-09-02 02:41:14 | 48.22990 | 14.44418 | 74° | 77km/h | 9182m | 4.1m/s | -38.4°C | 72.1% | 0hPa | 2.9V | 00:00:00 | 00:52:31 | 08:30:00 | |
| OE5MMP-10 | 2026-09-02 02:41:13 | 48.22984 | 14.44389 | 73° | 77km/h | 9178m | 5.6m/s | -38.3°C | 72.2% | 0hPa | 2.9V | 00:00:00 | 00:52:30 | 00:00:00 | |
| OE5DXL-15 | 2026-09-02 02:41:12 | 48.22979 | 14.44361 | 73° | 78km/h | 9173m | 2.9m/s | -38.3°C | 72.8% | 0hPa | 2.9V | 00:00:00 | 00:00:00 | 00:00:00 | |
| OM5KV | 2026-09-02 02:41:09 | 48.22966 | 14.44304 | 74° | 77km/h | 9165m | 4.1m/s | -38.2°C | 65.8% | 0hPa | 2.9V | 00:00:00 | 00:00:00 | 00:00:00 | |
| OM5KV | 2026-09-02 02:41:08 | 48.22960 | 14.44277 | 73° | 75km/h | 9160m | 5.1m/s | -38.2°C | 66.0% | 0hPa | 2.9V | 00:00:00 | 00:00:00 | 00:00:00 | |
| OE3OSB-13 | 2026-09-02 02:41:07 | 48.22943 | 14.44195 | 72° | 77km/h | 9147m | 5.1m/s | -38.1°C | -1.0% | -1.0hPa | 2.9V | 00:00:00 | 00:00:00 | 00:00:00 | |
| PG1ADW-2 | 2026-09-02 02:41:05 | 48.22938 | 14.44167 | 73° | 78km/h | 9142m | 4.2m/s | -38.0°C | 71.6% | 0hPa | 2.9V | 00:00:00 | 00:00:00 | 00:00:00 | |
| DO3MHA-12 | 2026-09-02 02:41:04 | 48.22932 | 14.44139 | 74° | 78km/h | 9138m | 3.7m/s | -38.0°C | 71.9% | 0hPa | 2.9V | 00:00:00 | 00:52:21 | 00:00:00 | |
| OM5KV | 2026-09-02 02:41:03 | 48.22932 | 14.44139 | 75° | 78km/h | 9138m | 3.7m/s | -38.0°C | 65.5% | 0hPa | 2.9V | 00:00:00 | 00:00:00 | 00:00:00 | |
| OM5KV | 2026-09-02 02:41:01 | 48.22919 | 14.44081 | 73° | 80km/h | 9129m | 4.4m/s | -37.9°C | 65.4% | 0hPa | 2.9V | 00:00:00 | 00:00:00 | 00:00:00 | |
| OE5FHM-15 | 2026-09-02 02:41:00 | 48.22908 | 14.44024 | 74° | 77km/h | 9119m | 4.7m/s | -37.8°C | 70.8% | 0hPa | 2.9V | 00:00:00 | 00:52:17 | 00:00:00 | |
| OM5KV | 2026-09-02 02:40:58 | 48.22902 | 14.43995 | 75° | 78km/h | 9113m | 6.2m/s | -37.8°C | 63.9% | 0hPa | 2.9V | 00:00:00 | 00:00:00 | 00:00:00 | |
| DG1MFX-10 | 2026-09-02 02:40:57 | 48.22897 | 14.43967 | 76° | 77km/h | 9108m | 4.0m/s | -37.8°C | 0% | 0hPa | 2.9V | 00:00:00 | 00:00:00 | 00:00:00 | |
| OE5HKT-10 | 2026-09-02 02:40:56 | 48.22886 | 14.43911 | 74° | 77km/h | 9099m | 4.3m/s | -37.7°C | 69.4% | 0hPa | 2.9V | 00:00:00 | 00:00:00 | 00:00:00 | |
| OM5KV | 2026-09-02 02:40:55 | 48.22886 | 14.43911 | 74° | 77km/h | 9099m | 4.4m/s | -37.8°C | 63.1% | 0hPa | 2.9V | 00:00:00 | 00:00:00 | 00:00:00 | |
| DO3MHA-12 | 2026-09-02 02:40:54 | 48.22875 | 14.43854 | 73° | 78km/h | 9091m | 4.5m/s | -37.6°C | 67.8% | 0hPa | 2.9V | 00:00:00 | 00:52:11 | 00:00:00 | |
| OE5MMP-10 | 2026-09-02 02:40:53 | 48.22869 | 14.43826 | 73° | 78km/h | 9086m | 5.9m/s | -37.6°C | 66.8% | 0hPa | 2.9V | 00:00:00 | 00:52:10 | 08:30:00 | |
| OE5WHR-10 | 2026-09-02 02:40:51 | 48.22857 | 14.43769 | 74° | 75km/h | 9075m | 3.9m/s | -37.6°C | 67.2% | 0hPa | 2.7V | 00:00:00 | 00:52:08 | 00:00:00 | |
| PETON7-10 | 2026-09-02 02:40:50 | 48.22851 | 14.43741 | 75° | 77km/h | 9071m | 5.5m/s | -37.6°C | 67.1% | 0hPa | 2.7V | 00:00:00 | 00:00:00 | 00:00:00 | |
| PG1ADW-2 | 2026-09-02 02:40:45 | 48.22825 | 14.43599 | 76° | 75km/h | 9047m | 4.5m/s | -37.4°C | 68.5% | 0hPa | 2.7V | 00:00:00 | 00:00:00 | 08:30:00 | |
| DO3MHA-12 | 2026-09-02 02:40:44 | 48.22820 | 14.43571 | 75° | 75km/h | 9042m | 5.4m/s | -37.4°C | 69.4% | 0hPa | 2.7V | 00:00:00 | 00:52:01 | 00:00:00 | |
| OE5MMP-10 | 2026-09-02 02:40:43 | 48.22815 | 14.43542 | 77° | 75km/h | 9037m | 4.9m/s | -37.4°C | 69.6% | 0hPa | 2.9V | 00:00:00 | 00:52:00 | 00:00:00 | |
| OE5DXL-15 | 2026-09-02 02:40:42 | 48.22811 | 14.43513 | 77° | 73km/h | 9032m | 4.6m/s | -37.4°C | 70.6% | 0hPa | 2.9V | 00:00:00 | 00:51:59 | 08:30:00 | |
| OM5KV | 2026-09-02 02:40:41 | 48.22811 | 14.43513 | 78° | 77km/h | 9032m | 4.6m/s | -37.4°C | 64.3% | 0hPa | 2.9V | 00:00:00 | 00:00:00 | 00:00:00 | |
| OM5KV | 2026-09-02 02:40:38 | 48.22797 | 14.43431 | 77° | 75km/h | 9018m | 4.0m/s | -37.3°C | 65.6% | 0hPa | 2.9V | 00:00:00 | 00:00:00 | 00:00:00 | |
| DG1MFX-10 | 2026-09-02 02:40:37 | 48.22792 | 14.43403 | 78° | 73km/h | 9013m | 4.5m/s | 0°C | 0% | 0hPa | 2.9V | 00:00:00 | 00:00:00 | 00:00:00 | |
| OE3OSB-13 | 2026-09-02 02:40:36 | 48.22780 | 14.43323 | 77° | 73km/h | 9000m | 4.7m/s | 0°C | -1.0% | -1.0hPa | 2.9V | 00:00:00 | 00:00:00 | 00:00:00 | |
| OE5HKT-10 | 2026-09-02 02:40:35 | 48.22780 | 14.43323 | 78° | 73km/h | 9000m | 4.6m/s | -37.2°C | 73.5% | 0hPa | 2.9V | 00:00:00 | 00:51:52 | 00:00:00 | |
| DO3MHA-12 | 2026-09-02 02:40:34 | 48.22775 | 14.43296 | 79° | 73km/h | 8995m | 4.9m/s | -37.1°C | 73.4% | 0hPa | 2.9V | 00:00:00 | 00:51:51 | 00:00:00 | |
| OE5MMP-10 | 2026-09-02 02:40:33 | 48.22772 | 14.43269 | 79° | 73km/h | 8990m | 5.0m/s | -37.1°C | 73.8% | 0hPa | 2.9V | 00:00:00 | 00:51:50 | 00:00:00 | |
| OM5KV | 2026-09-02 02:40:32 | 48.22772 | 14.43269 | 80° | 73km/h | 8990m | 5.0m/s | -37.1°C | 67.4% | 0hPa | 2.9V | 00:00:00 | 00:00:00 | 00:00:00 | |
| OE3JTB-15 | 2026-09-02 02:40:31 | 48.22764 | 14.43215 | 78° | 73km/h | 8981m | 4.2m/s | -37.0°C | 74.3% | 0hPa | 2.9V | 00:00:00 | 00:51:48 | 00:00:00 | |
| OE5WHR-10 | 2026-09-02 02:40:30 | 48.22761 | 14.43188 | 79° | 73km/h | 8976m | 5.7m/s | -37.0°C | 74.7% | 0hPa | 2.9V | 00:00:00 | 00:00:00 | 08:30:00 | |
| OM5KV | 2026-09-02 02:40:29 | 48.22761 | 14.43188 | 79° | 71km/h | 8976m | 5.8m/s | -37.0°C | 68.3% | 0hPa | 2.9V | 00:00:00 | 00:00:00 | 00:00:00 | |
| OM5KV | 2026-09-02 02:40:27 | 48.22752 | 14.43134 | 77° | 75km/h | 8966m | 4.4m/s | -37.0°C | 70.1% | 0hPa | 2.9V | 00:00:00 | 00:00:00 | 00:00:00 | |
| OM5KV | 2026-09-02 02:40:26 | 48.22748 | 14.43106 | 79° | 75km/h | 8962m | 4.3m/s | -37.0°C | 71.5% | 0hPa | 2.9V | 00:00:00 | 00:00:00 | 00:00:00 | |
| PG1ADW-2 | 2026-09-02 02:40:25 | 48.22740 | 14.43051 | 77° | 71km/h | 8954m | 4.0m/s | -36.9°C | 79.6% | 0hPa | 2.9V | 00:00:00 | 00:00:00 | 00:00:00 | |
| DO3MHA-12 | 2026-09-02 02:40:24 | 48.22735 | 14.43024 | 76° | 71km/h | 8949m | 5.0m/s | -36.9°C | 80.5% | 0hPa | 2.9V | 00:00:00 | 00:51:41 | 00:00:00 | |
| OE5MMP-10 | 2026-09-02 02:40:23 | 48.22730 | 14.42997 | 76° | 71km/h | 8944m | 4.3m/s | -36.9°C | 80.9% | 0hPa | 2.9V | 00:00:00 | 00:51:40 | 00:00:00 | |
| OM5KV | 2026-09-02 02:40:21 | 48.22726 | 14.42971 | 78° | 69km/h | 8940m | 4.4m/s | -36.9°C | 74.8% | 0hPa | 2.9V | 00:00:00 | 00:00:00 | 00:00:00 | |
| PETON7-10 | 2026-09-02 02:40:20 | 48.22719 | 14.42920 | 78° | 71km/h | 8930m | 5.4m/s | -36.8°C | 82.3% | 0hPa | 2.9V | 00:00:00 | 00:51:37 | 00:00:00 | |
| DG1MFX-10 | 2026-09-02 02:40:16 | 48.22710 | 14.42840 | 82° | 73km/h | 8915m | 6.1m/s | 0°C | 0% | 0hPa | 2.9V | 00:00:00 | 00:00:00 | 00:00:00 | |
| DO3MHA-12 | 2026-09-02 02:40:14 | 48.22701 | 14.42757 | 81° | 71km/h | 8901m | 3.9m/s | -36.7°C | 85.1% | 0hPa | 2.9V | 00:00:00 | 00:51:31 | 00:00:00 | |
| OE5MMP-10 | 2026-09-02 02:40:13 | 48.22698 | 14.42730 | 78° | 71km/h | 8897m | 5.1m/s | -36.6°C | 84.4% | 0hPa | 2.9V | 00:00:00 | 00:51:30 | 00:00:00 | |
| OE5DXL-15 | 2026-09-02 02:40:12 | 48.22694 | 14.42703 | 77° | 69km/h | 8893m | 3.9m/s | -36.6°C | 84.7% | 0hPa | 2.9V | 00:00:00 | 00:00:00 | 00:00:00 | |
| OE5WHR-10 | 2026-09-02 02:40:09 | 48.22682 | 14.42626 | 78° | 69km/h | 8879m | 4.8m/s | -36.5°C | 82.9% | 0hPa | 2.9V | 00:00:00 | 00:00:00 | 00:00:00 | |
| OM5KV | 2026-09-02 02:40:08 | 48.22682 | 14.42626 | 78° | 69km/h | 8879m | 4.8m/s | -36.5°C | 76.1% | 0hPa | 2.9V | 00:00:00 | 00:00:00 | 00:00:00 | |
| OM5KV | 2026-09-02 02:40:07 | 48.22678 | 14.42600 | 79° | 69km/h | 8874m | 5.3m/s | -36.5°C | 75.9% | 0hPa | 2.9V | 00:00:00 | 00:00:00 | 00:00:00 | |
| OE5DRO-10 | 2026-09-02 02:40:06 | 48.22671 | 14.42548 | 81° | 69km/h | 8864m | 3.9m/s | -36.3°C | 82.8% | 0hPa | 2.9V | 00:00:00 | 00:00:00 | 00:00:00 | |
| PG1ADW-2 | 2026-09-02 02:40:05 | 48.22669 | 14.42521 | 82° | 69km/h | 8860m | 5.5m/s | -36.3°C | 82.2% | 0hPa | 2.9V | 00:00:00 | 00:51:22 | 00:00:00 | |
| DO3MHA-12 | 2026-09-02 02:40:04 | 48.22666 | 14.42493 | 81° | 71km/h | 8855m | 3.6m/s | -36.3°C | 82.6% | 0hPa | 2.9V | 00:00:00 | 00:51:21 | 00:00:00 | |
| OE5MMP-10 | 2026-09-02 02:40:03 | 48.22663 | 14.42466 | 84° | 69km/h | 8851m | 5.0m/s | -36.2°C | 81.7% | 0hPa | 2.9V | 00:00:00 | 00:51:20 | 00:00:00 | |
| OE3JTB-15 | 2026-09-02 02:40:02 | 48.22660 | 14.42438 | 83° | 68km/h | 8846m | 4.3m/s | -36.2°C | 82.1% | 0hPa | 2.9V | 00:00:00 | 00:00:00 | 00:00:00 | |
| OE5FHM-15 | 2026-09-02 02:40:00 | 48.22656 | 14.42385 | 82° | 66km/h | 8838m | 4.3m/s | -36.2°C | 81.6% | 0hPa | 2.9V | 00:00:00 | 00:51:17 | 00:00:00 | |
| OM5KV | 2026-09-02 02:39:57 | 48.22649 | 14.42332 | 80° | 71km/h | 8829m | 4.6m/s | -36.1°C | 74.6% | 0hPa | 2.9V | 00:00:00 | 00:00:00 | 00:00:00 | |
| OM5KV | 2026-09-02 02:39:56 | 48.22645 | 14.42306 | 78° | 68km/h | 8825m | 4.8m/s | -36.1°C | 74.9% | 0hPa | 2.9V | 00:00:00 | 00:00:00 | 00:00:00 | |
| DO3MHA-12 | 2026-09-02 02:39:54 | 48.22634 | 14.42231 | 80° | 66km/h | 8811m | 4.5m/s | -35.9°C | 80.7% | 0hPa | 2.9V | 00:00:00 | 00:51:11 | 00:00:00 | |
| OE5MMP-10 | 2026-09-02 02:39:53 | 48.22631 | 14.42206 | 81° | 66km/h | 8807m | 4.7m/s | -35.9°C | 80.8% | 0hPa | 2.9V | 00:00:00 | 00:51:10 | 00:00:00 | |
| OM5KV | 2026-09-02 02:39:51 | 48.22628 | 14.42182 | 83° | 66km/h | 8802m | 4.5m/s | -35.9°C | 74.0% | 0hPa | 2.9V | 00:00:00 | 00:00:00 | 00:00:00 | |
| PETON7-10 | 2026-09-02 02:39:50 | 48.22624 | 14.42132 | 83° | 66km/h | 8792m | 5.4m/s | -35.8°C | 79.5% | 0hPa | 2.9V | 00:00:00 | 00:00:00 | 00:00:00 | |
| OE5WHR-10 | 2026-09-02 02:39:48 | 48.22619 | 14.42083 | 82° | 64km/h | 8782m | 5.4m/s | -35.7°C | 79.9% | 0hPa | 2.9V | 00:00:00 | 00:51:05 | 00:00:00 | |
| OE5DRO-10 | 2026-09-02 02:39:47 | 48.22617 | 14.42058 | 80° | 64km/h | 8777m | 3.9m/s | -35.6°C | 80.2% | 0hPa | 2.9V | 00:00:00 | 00:00:00 | 00:00:00 | |
| OM5KV | 2026-09-02 02:39:46 | 48.22617 | 14.42058 | 80° | 66km/h | 8777m | 3.9m/s | -35.7°C | 73.7% | 0hPa | 2.7V | 00:00:00 | 00:00:00 | 00:00:00 | |
| PG1ADW-2 | 2026-09-02 02:39:45 | 48.22611 | 14.42009 | 82° | 64km/h | 8768m | 6.0m/s | -35.6°C | 78.7% | 0hPa | 2.7V | 00:00:00 | 00:00:00 | 00:00:00 | |
| DO3MHA-12 | 2026-09-02 02:39:44 | 48.22608 | 14.41985 | 79° | 66km/h | 8762m | 5.8m/s | -35.5°C | 78.6% | 0hPa | 2.7V | 00:00:00 | 00:51:01 | 08:30:00 | |
| OE5MMP-10 | 2026-09-02 02:39:43 | 48.22605 | 14.41960 | 81° | 64km/h | 8757m | 4.4m/s | -35.5°C | 78.8% | 0hPa | 2.7V | 00:00:00 | 00:51:00 | 00:00:00 | |
| OE5DXL-15 | 2026-09-02 02:39:42 | 48.22603 | 14.41935 | 82° | 62km/h | 8752m | 6.0m/s | -35.4°C | 79.0% | 0hPa | 2.7V | 00:00:00 | 00:00:00 | 00:00:00 | |
| OM5KV | 2026-09-02 02:39:40 | 48.22600 | 14.41911 | 84° | 64km/h | 8747m | 3.9m/s | -35.5°C | 72.8% | 0hPa | 2.7V | 00:00:00 | 00:00:00 | 00:00:00 | |
| OM5KV | 2026-09-02 02:39:39 | 48.22598 | 14.41887 | 81° | 64km/h | 8742m | 5.6m/s | -35.4°C | 72.9% | 0hPa | 2.7V | 00:00:00 | 00:00:00 | 00:00:00 | |
| PETON7-10 | 2026-09-02 02:39:35 | 48.22586 | 14.41766 | 82° | 62km/h | 8719m | 3.9m/s | -35.2°C | 81.3% | 0hPa | 2.7V | 00:00:00 | 00:50:52 | 00:00:00 | |
| DO3MHA-12 | 2026-09-02 02:39:34 | 48.22584 | 14.41742 | 83° | 60km/h | 8715m | 4.1m/s | -35.2°C | 81.2% | 0hPa | 2.7V | 00:00:00 | 00:50:51 | 00:00:00 | |
| OE5MMP-10 | 2026-09-02 02:39:33 | 48.22582 | 14.41718 | 84° | 60km/h | 8711m | 5.1m/s | -35.2°C | 81.5% | 0hPa | 2.7V | 00:00:00 | 00:50:50 | 00:00:00 | |
| OE5HKT-10 | 2026-09-02 02:39:32 | 48.22580 | 14.41695 | 84° | 62km/h | 8707m | 3.8m/s | -35.1°C | 82.2% | 0hPa | 2.7V | 00:00:00 | 00:50:49 | 00:00:00 | |
| OE5FHM-15 | 2026-09-02 02:39:30 | 48.22576 | 14.41650 | 81° | 62km/h | 8698m | 4.6m/s | -35.1°C | 82.6% | 0hPa | 2.7V | 00:00:00 | 00:50:47 | 00:00:00 | |
| OE5DRO-10 | 2026-09-02 02:39:28 | 48.22573 | 14.41604 | 84° | 62km/h | 8689m | 4.4m/s | -35.0°C | 83.6% | 0hPa | 2.9V | 00:00:00 | 00:00:00 | 00:00:00 | |
| OE5WHR-10 | 2026-09-02 02:39:27 | 48.22571 | 14.41582 | 85° | 62km/h | 8684m | 5.0m/s | -35.0°C | 84.2% | 0hPa | 2.9V | 00:00:00 | 00:00:00 | 00:00:00 | |
| PG1ADW-2 | 2026-09-02 02:39:25 | 48.22568 | 14.41536 | 84° | 64km/h | 8676m | 5.2m/s | -35.0°C | 84.7% | 0hPa | 2.7V | 00:00:00 | 00:00:00 | 00:00:00 | |
| DO3MHA-12 | 2026-09-02 02:39:24 | 48.22566 | 14.41513 | 84° | 62km/h | 8671m | 3.9m/s | -34.9°C | 85.6% | 0hPa | 2.7V | 00:00:00 | 00:50:41 | 00:00:00 | |
| OE5MMP-10 | 2026-09-02 02:39:23 | 48.22564 | 14.41490 | 82° | 62km/h | 8666m | 5.8m/s | -34.9°C | 86.1% | 0hPa | 2.7V | 00:00:00 | 00:50:40 | 08:30:00 | |
| PETON7-10 | 2026-09-02 02:39:20 | 48.22555 | 14.41421 | 80° | 64km/h | 8652m | 4.7m/s | -34.8°C | 87.1% | 0hPa | 2.9V | 00:00:00 | 00:00:00 | 00:00:00 | |
| NBG1-10 | 2026-09-02 02:39:18 | 48.22549 | 14.41375 | 79° | 62km/h | 8643m | 4.3m/s | 0°C | 0% | 0hPa | 2.9V | 00:00:00 | 00:50:35 | 00:00:00 | |
| OM5KV | 2026-09-02 02:39:17 | 48.22549 | 14.41375 | 80° | 62km/h | 8643m | 4.3m/s | -34.8°C | 80.8% | 0hPa | 2.9V | 00:00:00 | 00:00:00 | 00:00:00 | |
| DO3MHA-12 | 2026-09-02 02:39:14 | 48.22539 | 14.41282 | 84° | 64km/h | 8623m | 4.6m/s | -34.8°C | 88.5% | 0hPa | 2.9V | 00:00:00 | 00:50:31 | 00:00:00 | |
| OE5MMP-10 | 2026-09-02 02:39:13 | 48.22537 | 14.41258 | 84° | 64km/h | 8617m | 6.3m/s | -34.7°C | 88.2% | 0hPa | 2.9V | 00:00:00 | 00:50:30 | 00:00:00 | |
| OE5DXL-15 | 2026-09-02 02:39:12 | 48.22536 | 14.41234 | 87° | 62km/h | 8612m | 3.8m/s | -34.7°C | 88.2% | 0hPa | 2.9V | 00:00:00 | 00:00:00 | 00:00:00 | |
| OE5HKT-10 | 2026-09-02 02:39:11 | 48.22534 | 14.41210 | 88° | 62km/h | 8607m | 5.4m/s | -34.7°C | 87.4% | 0hPa | 2.9V | 00:00:00 | 00:00:00 | 00:00:00 | |
| OE5DRO-10 | 2026-09-02 02:39:09 | 48.22532 | 14.41161 | 85° | 62km/h | 8597m | 6.6m/s | -34.6°C | 86.4% | 0hPa | 2.9V | 00:00:00 | 00:00:00 | 00:00:00 | |
| OM5KV | 2026-09-02 02:39:07 | 48.22530 | 14.41136 | 82° | 68km/h | 8592m | 3.7m/s | -34.6°C | 80.2% | 0hPa | 2.9V | 00:00:00 | 00:00:00 | 00:00:00 | |
| OE5WHR-10 | 2026-09-02 02:39:06 | 48.22524 | 14.41087 | 81° | 62km/h | 8581m | 5.3m/s | -34.5°C | 86.8% | 0hPa | 2.9V | 00:00:00 | 00:00:00 | 00:00:00 | |
| PG1ADW-2 | 2026-09-02 02:39:05 | 48.22522 | 14.41063 | 83° | 62km/h | 8576m | 4.2m/s | -34.4°C | 88.1% | 0hPa | 2.9V | 00:00:00 | 00:00:00 | 00:00:00 | |
| DO3MHA-12 | 2026-09-02 02:39:04 | 48.22520 | 14.41040 | 83° | 62km/h | 8572m | 3.7m/s | -34.4°C | 87.6% | 0hPa | 2.9V | 00:00:00 | 00:50:21 | 00:00:00 | |
| OE5MMP-10 | 2026-09-02 02:39:03 | 48.22518 | 14.41016 | 82° | 62km/h | 8567m | 5.7m/s | -34.4°C | 87.1% | 0hPa | 2.9V | 00:00:00 | 00:50:20 | 00:00:00 | |
| OM5KV | 2026-09-02 02:39:01 | 48.22515 | 14.40993 | 82° | 62km/h | 8562m | 3.9m/s | -34.4°C | 80.9% | 0hPa | 2.9V | 00:00:00 | 00:00:00 | 00:00:00 | |
| OE5FHM-15 | 2026-09-02 02:39:00 | 48.22511 | 14.40945 | 83° | 60km/h | 8553m | 3.8m/s | -34.3°C | 87.6% | 0hPa | 2.9V | 00:00:00 | 00:50:17 | 00:00:00 | |
| DO3MHA-12 | 2026-09-02 02:38:54 | 48.22499 | 14.40806 | 83° | 58km/h | 8522m | 3.5m/s | -34.2°C | 89.9% | 0hPa | 2.9V | 00:00:00 | 00:50:11 | 00:00:00 | |
| OE5MMP-10 | 2026-09-02 02:38:53 | 48.22497 | 14.40783 | 85° | 60km/h | 8518m | 5.2m/s | -34.2°C | 89.3% | 0hPa | 2.9V | 00:00:00 | 00:50:10 | 00:00:00 | |
| OM5KV | 2026-09-02 02:38:51 | 48.22495 | 14.40760 | 84° | 62km/h | 8513m | 4.5m/s | -34.2°C | 82.6% | 0hPa | 2.9V | 00:00:00 | 00:00:00 | 00:00:00 | |
| PETON7-10 | 2026-09-02 02:38:50 | 48.22492 | 14.40714 | 85° | 60km/h | 8503m | 3.8m/s | -34.2°C | 89.2% | 0hPa | 2.9V | 00:00:00 | 00:50:07 | 00:00:00 | |
| OM5KV | 2026-09-02 02:38:49 | 48.22492 | 14.40714 | 86° | 62km/h | 8503m | 3.8m/s | -34.2°C | 82.5% | 0hPa | 2.9V | 00:00:00 | 00:00:00 | 00:00:00 | |
| OM5KV | 2026-09-02 02:38:46 | 48.22488 | 14.40647 | 84° | 58km/h | 8488m | 4.1m/s | -34.1°C | 83.0% | 0hPa | 2.9V | 00:00:00 | 00:00:00 | 00:00:00 | |
| PG1ADW-2 | 2026-09-02 02:38:45 | 48.22485 | 14.40603 | 84° | 58km/h | 8478m | 4.3m/s | -34.1°C | 90.2% | 0hPa | 2.9V | 00:00:00 | 00:50:02 | 00:00:00 | |
| OE5MMP-10 | 2026-09-02 02:38:43 | 48.22481 | 14.40559 | 83° | 60km/h | 8469m | 3.0m/s | -34.1°C | 90.0% | 0hPa | 2.9V | 00:00:00 | 00:50:00 | 00:00:00 | |
| OE5DXL-15 | 2026-09-02 02:38:42 | 48.22479 | 14.40536 | 82° | 57km/h | 8465m | 5.7m/s | -34.1°C | 88.5% | 0hPa | 2.9V | 00:00:00 | 00:00:00 | 00:00:00 | |
| OM5KV | 2026-09-02 02:38:40 | 48.22477 | 14.40514 | 84° | 60km/h | 8459m | 4.4m/s | -34.1°C | 82.2% | 0hPa | 2.9V | 00:00:00 | 00:00:00 | 00:00:00 | |
| DO3MHA-12 | 2026-09-02 02:38:39 | 48.22473 | 14.40469 | 84° | 58km/h | 8449m | 4.3m/s | -34.0°C | 88.6% | 0hPa | 2.9V | 00:00:00 | 00:49:56 | 00:00:00 | |
| OM5KV | 2026-09-02 02:38:37 | 48.22469 | 14.40422 | 83° | 60km/h | 8439m | 4.6m/s | -34.0°C | 82.1% | 0hPa | 2.9V | 00:00:00 | 00:00:00 | 00:00:00 | |
| PETON7-10 | 2026-09-02 02:38:35 | 48.22467 | 14.40378 | 86° | 55km/h | 8430m | 4.3m/s | -33.9°C | 88.1% | 0hPa | 2.9V | 00:00:00 | 00:00:00 | 00:00:00 | |
| OM5KV | 2026-09-02 02:38:34 | 48.22467 | 14.40378 | 87° | 57km/h | 8430m | 4.3m/s | -33.9°C | 81.6% | 0hPa | 2.9V | 00:00:00 | 00:00:00 | 00:00:00 | |
| OE5MMP-10 | 2026-09-02 02:38:33 | 48.22465 | 14.40335 | 87° | 55km/h | 8420m | 3.4m/s | -33.8°C | 88.0% | 0hPa | 2.9V | 00:00:00 | 00:49:50 | 00:00:00 | |
| OM5KV | 2026-09-02 02:38:31 | 48.22464 | 14.40293 | 91° | 55km/h | 8411m | 3.7m/s | -33.7°C | 80.7% | 0hPa | 2.9V | 00:00:00 | 00:00:00 | 00:00:00 | |
| OE5FHM-15 | 2026-09-02 02:38:30 | 48.22464 | 14.40272 | 89° | 55km/h | 8406m | 5.8m/s | -33.6°C | 86.7% | 0hPa | 2.9V | 00:00:00 | 00:49:47 | 00:00:00 | |
| DO3MHA-12 | 2026-09-02 02:38:29 | 48.22463 | 14.40251 | 89° | 55km/h | 8402m | 4.1m/s | -33.6°C | 86.9% | 0hPa | 2.9V | 00:00:00 | 00:49:46 | 00:00:00 | |
| OM5KV | 2026-09-02 02:38:28 | 48.22463 | 14.40251 | 90° | 55km/h | 8402m | 4.2m/s | -33.6°C | 80.5% | 0hPa | 2.9V | 00:00:00 | 00:00:00 | 00:00:00 | |
| PG1ADW-2 | 2026-09-02 02:38:25 | 48.22461 | 14.40169 | 88° | 55km/h | 8384m | 4.3m/s | -33.4°C | 85.3% | 0hPa | 2.9V | 00:00:00 | 00:00:00 | 00:00:00 | |
| OE5WHR-10 | 2026-09-02 02:38:24 | 48.22461 | 14.40148 | 88° | 55km/h | 8378m | 6.0m/s | -33.4°C | 85.0% | 0hPa | 2.9V | 00:00:00 | 00:00:00 | 00:00:00 | |
| OE5MMP-10 | 2026-09-02 02:38:23 | 48.22460 | 14.40127 | 87° | 53km/h | 8373m | 4.1m/s | -33.3°C | 85.0% | 0hPa | 2.9V | 00:00:00 | 00:49:40 | 00:00:00 | |
| PETON7-10 | 2026-09-02 02:38:20 | 48.22456 | 14.40064 | 85° | 53km/h | 8361m | 4.9m/s | -33.2°C | 84.8% | 0hPa | 2.9V | 00:00:00 | 00:00:00 | 00:00:00 | |
| OM5KV | 2026-09-02 02:38:19 | 48.22456 | 14.40063 | 86° | 53km/h | 8361m | 5.0m/s | -33.3°C | 78.6% | 0hPa | 2.9V | 00:00:00 | 00:00:00 | 00:00:00 | |
| OM5KV | 2026-09-02 02:38:18 | 48.22455 | 14.40044 | 88° | 51km/h | 8356m | 4.0m/s | -33.2°C | 78.5% | 0hPa | 2.9V | 00:00:00 | 00:00:00 | 00:00:00 | |
| OE5MMP-10 | 2026-09-02 02:38:13 | 48.22449 | 14.39925 | 87° | 55km/h | 8328m | 4.5m/s | -32.9°C | 83.1% | 0hPa | 2.9V | 00:00:00 | 00:49:30 | 00:00:00 | |
| OE5DXL-15 | 2026-09-02 02:38:12 | 48.22448 | 14.39903 | 88° | 55km/h | 8324m | 4.4m/s | -32.9°C | 82.5% | 0hPa | 2.9V | 00:00:00 | 00:00:00 | 00:00:00 | |
| DO3MHA-12 | 2026-09-02 02:38:08 | 48.22444 | 14.39820 | 91° | 53km/h | 8302m | 6.2m/s | -32.7°C | 79.8% | 0hPa | 2.9V | 00:00:00 | 00:49:25 | 00:00:00 | |
| OM5KV | 2026-09-02 02:38:07 | 48.22444 | 14.39820 | 91° | 55km/h | 8302m | 6.3m/s | -32.7°C | 74.0% | 0hPa | 2.9V | 00:00:00 | 00:00:00 | 00:00:00 | |
| OE3JTB-15 | 2026-09-02 02:38:06 | 48.22444 | 14.39780 | 87° | 53km/h | 8290m | 6.8m/s | -32.6°C | 79.7% | 0hPa | 2.9V | 00:00:00 | 00:00:00 | 00:00:00 | |
| PG1ADW-2 | 2026-09-02 02:38:05 | 48.22443 | 14.39761 | 88° | 53km/h | 8284m | 4.7m/s | -32.5°C | 80.0% | 0hPa | 2.9V | 00:00:00 | 00:00:00 | 00:00:00 | |
| OE5WHR-10 | 2026-09-02 02:38:03 | 48.22442 | 14.39720 | 89° | 55km/h | 8272m | 6.0m/s | -32.4°C | 79.3% | 0hPa | 2.9V | 00:00:00 | 00:00:00 | 00:00:00 | |
| OM5KV | 2026-09-02 02:38:02 | 48.22442 | 14.39720 | 90° | 57km/h | 8272m | 6.0m/s | -32.5°C | 73.6% | 0hPa | 2.9V | 00:00:00 | 00:00:00 | 00:00:00 | |
| OM5KV | 2026-09-02 02:38:01 | 48.22441 | 14.39699 | 88° | 58km/h | 8266m | 5.8m/s | -32.4°C | 73.3% | 0hPa | 2.9V | 00:00:00 | 00:00:00 | 00:00:00 | |
| OE5FHM-15 | 2026-09-02 02:38:00 | 48.22440 | 14.39654 | 87° | 53km/h | 8256m | 6.3m/s | -32.3°C | 77.7% | 0hPa | 2.9V | 00:00:00 | 00:49:17 | 08:30:00 | |
| DO3MHA-12 | 2026-09-02 02:37:58 | 48.22438 | 14.39606 | 86° | 51km/h | 8243m | 5.1m/s | -32.1°C | 76.8% | 0hPa | 2.9V | 00:00:00 | 00:49:15 | 08:30:00 | |
| OM5KV | 2026-09-02 02:37:56 | 48.22436 | 14.39584 | 84° | 57km/h | 8237m | 7.4m/s | -32.1°C | 70.8% | 0hPa | 2.9V | 00:00:00 | 00:00:00 | 00:00:00 | |
| OM5KV | 2026-09-02 02:37:55 | 48.22435 | 14.39564 | 84° | 49km/h | 8230m | 5.5m/s | -32.1°C | 69.3% | 0hPa | 2.9V | 00:00:00 | 00:00:00 | 00:00:00 | |
| OM5KV | 2026-09-02 02:37:54 | 48.22434 | 14.39547 | 88° | 44km/h | 8224m | 7.4m/s | -32.1°C | 67.3% | 0hPa | 2.9V | 00:00:00 | 00:00:00 | 00:00:00 | |
| OE5MMP-10 | 2026-09-02 02:37:53 | 48.22435 | 14.39512 | 96° | 53km/h | 8209m | 7.5m/s | -31.9°C | 71.4% | 0hPa | 2.9V | 00:00:00 | 00:49:10 | 08:30:00 | |
| OM5KV | 2026-09-02 02:37:51 | 48.22435 | 14.39493 | 91° | 53km/h | 8202m | 6.3m/s | -31.9°C | 65.7% | 0hPa | 2.9V | 00:00:00 | 00:00:00 | 00:00:00 | |
| PETON7-10 | 2026-09-02 02:37:50 | 48.22433 | 14.39454 | 79° | 53km/h | 8188m | 7.7m/s | -31.7°C | 68.4% | 0hPa | 2.9V | 00:00:00 | 00:00:00 | 08:30:00 | |
| OM5KV | 2026-09-02 02:37:48 | 48.22431 | 14.39436 | 82° | 47km/h | 8180m | 6.9m/s | -31.7°C | 62.9% | 0hPa | 2.9V | 00:00:00 | 00:00:00 | 00:00:00 | |
| DO3MHA-12 | 2026-09-02 02:37:47 | 48.22429 | 14.39398 | 90° | 55km/h | 8167m | 6.7m/s | -31.5°C | 67.6% | 0hPa | 2.9V | 00:00:00 | 00:49:04 | 00:00:00 | |
| PG1ADW-2 | 2026-09-02 02:37:45 | 48.22428 | 14.39354 | 85° | 57km/h | 8153m | 7.8m/s | -31.4°C | 66.0% | 0hPa | 2.9V | 00:00:00 | 00:00:00 | 08:30:00 | |
| OM5KV | 2026-09-02 02:37:44 | 48.22428 | 14.39354 | 86° | 60km/h | 8153m | 7.8m/s | -31.5°C | 61.1% | 0hPa | 2.9V | 00:00:00 | 00:00:00 | 00:00:00 | |
| OE5MMP-10 | 2026-09-02 02:37:43 | 48.22425 | 14.39312 | 87° | 53km/h | 8138m | 6.1m/s | -31.3°C | 65.3% | 0hPa | 2.9V | 00:00:00 | 00:49:00 | 00:00:00 | |
| OE5WHR-10 | 2026-09-02 02:37:42 | 48.22425 | 14.39293 | 98° | 57km/h | 8132m | 5.8m/s | -31.3°C | 63.8% | 0hPa | 2.9V | 00:00:00 | 00:48:59 | 00:00:00 | |
| OM5KV | 2026-09-02 02:37:39 | 48.22433 | 14.39256 | 112° | 57km/h | 8119m | 7.6m/s | -31.3°C | 55.6% | 0hPa | 2.9V | 00:00:00 | 00:00:00 | 00:00:00 | |
| DO3MHA-12 | 2026-09-02 02:37:37 | 48.22446 | 14.39195 | 103° | 57km/h | 8098m | 5.1m/s | -31.2°C | 57.2% | 0hPa | 2.9V | 00:00:00 | 00:48:54 | 00:00:00 | |
| OM5KV | 2026-09-02 02:37:36 | 48.22446 | 14.39195 | 103° | 53km/h | 8098m | 5.2m/s | -31.2°C | 52.8% | 0hPa | 2.9V | 00:00:00 | 00:00:00 | 00:00:00 | |
| PETON7-10 | 2026-09-02 02:37:35 | 48.22451 | 14.39156 | 101° | 57km/h | 8083m | 10.1m/s | -31.1°C | 53.2% | 0hPa | 2.9V | 00:00:00 | 00:00:00 | 00:00:00 | |
| OE5DRO-10 | 2026-09-02 02:37:34 | 48.22453 | 14.39137 | 98° | 57km/h | 8073m | 10.4m/s | -31.0°C | 52.7% | 0hPa | 2.9V | 00:00:00 | 00:00:00 | 00:00:00 | |
| OE5MMP-10 | 2026-09-02 02:37:33 | 48.22455 | 14.39117 | 97° | 58km/h | 8063m | 7.8m/s | -30.9°C | 53.0% | 0hPa | 2.9V | 00:00:00 | 00:48:50 | 00:00:00 | |
| OE5FHM-15 | 2026-09-02 02:37:30 | 48.22460 | 14.39054 | 96° | 57km/h | 8046m | 6.5m/s | -30.8°C | 53.5% | 0hPa | 2.9V | 00:00:00 | 00:48:47 | 00:00:00 | |
| DO3MHA-12 | 2026-09-02 02:37:27 | 48.22466 | 14.38983 | 103° | 55km/h | 8030m | 4.9m/s | -30.6°C | 53.3% | 0hPa | 2.9V | 00:00:00 | 00:48:44 | 00:00:00 | |
| OE5HKT-10 | 2026-09-02 02:37:26 | 48.22469 | 14.38960 | 106° | 57km/h | 8025m | 5.4m/s | -30.6°C | 52.3% | 0hPa | 2.7V | 00:00:00 | 00:48:43 | 00:00:00 | |
| PG1ADW-2 | 2026-09-02 02:37:25 | 48.22474 | 14.38938 | 106° | 57km/h | 8019m | 5.7m/s | -30.5°C | 51.5% | 0hPa | 2.7V | 00:00:00 | 00:48:42 | 00:00:00 | |
| OM5KV | 2026-09-02 02:37:24 | 48.22473 | 14.38938 | 106° | 60km/h | 8019m | 5.8m/s | -30.6°C | 0% | 0hPa | 2.7V | 00:00:00 | 00:00:00 | 00:00:00 | |
| OE5MMP-10 | 2026-09-02 02:37:23 | 48.22480 | 14.38897 | 104° | 55km/h | 8008m | 6.7m/s | -30.4°C | 49.5% | 0hPa | 2.7V | 00:00:00 | 00:48:40 | 00:00:00 | |
| Es werden nur die letzten 3500 von 4009 Frames angezeigt. GPX/KML und Diagramme bleiben verfügbar. | |||||||||||||||